<?xml version="1.0" encoding="UTF-8" standalone="no" ?>
<gpx xmlns="http://www.topografix.com/GPX/1/1" xmlns:xsi="http://www.w3.org/2001/XMLSchema-instance" xsi:schemaLocation="http://www.topografix.com/GPX/1/1 http://www.topografix.com/GPX/1/1/gpx.xsd" version="1.1" creator="VisuGPX - https://www.visugpx.com">
  <metadata>
    <name>Crevant-Laveine Cyclisme</name>
  </metadata>
  <trk>
    <name><![CDATA[Crevant-Laveine Cyclisme_1]]></name>
    <trkseg>
      <trkpt lat="45.91273" lon="3.37377">
        <ele>321.4</ele>
        <time>2024-05-18T12:19:46Z</time>
      </trkpt>
      <trkpt lat="45.91273" lon="3.37377">
        <ele>321.4</ele>
        <time>2024-05-18T12:19:47Z</time>
      </trkpt>
      <trkpt lat="45.91273" lon="3.37377">
        <ele>321.4</ele>
        <time>2024-05-18T12:19:48Z</time>
      </trkpt>
      <trkpt lat="45.91265" lon="3.37376">
        <ele>321.4</ele>
        <time>2024-05-18T12:19:49Z</time>
      </trkpt>
      <trkpt lat="45.91263" lon="3.37374">
        <ele>321.4</ele>
        <time>2024-05-18T12:19:50Z</time>
      </trkpt>
      <trkpt lat="45.91263" lon="3.37374">
        <ele>321.4</ele>
        <time>2024-05-18T12:19:51Z</time>
      </trkpt>
      <trkpt lat="45.91261" lon="3.37372">
        <ele>321.2</ele>
        <time>2024-05-18T12:19:52Z</time>
      </trkpt>
      <trkpt lat="45.91261" lon="3.37372">
        <ele>321.2</ele>
        <time>2024-05-18T12:19:53Z</time>
      </trkpt>
      <trkpt lat="45.91261" lon="3.37372">
        <ele>321.2</ele>
        <time>2024-05-18T12:19:54Z</time>
      </trkpt>
      <trkpt lat="45.91251" lon="3.37363">
        <ele>321</ele>
        <time>2024-05-18T12:19:55Z</time>
      </trkpt>
      <trkpt lat="45.91249" lon="3.37361">
        <ele>321</ele>
        <time>2024-05-18T12:19:56Z</time>
      </trkpt>
      <trkpt lat="45.91247" lon="3.37359">
        <ele>321</ele>
        <time>2024-05-18T12:19:57Z</time>
      </trkpt>
      <trkpt lat="45.91247" lon="3.37359">
        <ele>320.8</ele>
        <time>2024-05-18T12:19:58Z</time>
      </trkpt>
      <trkpt lat="45.91247" lon="3.37359">
        <ele>320.8</ele>
        <time>2024-05-18T12:19:59Z</time>
      </trkpt>
      <trkpt lat="45.91245" lon="3.37357">
        <ele>320.8</ele>
        <time>2024-05-18T12:20:00Z</time>
      </trkpt>
      <trkpt lat="45.91238" lon="3.37355">
        <ele>320.6</ele>
        <time>2024-05-18T12:20:01Z</time>
      </trkpt>
      <trkpt lat="45.91235" lon="3.37355">
        <ele>320.6</ele>
        <time>2024-05-18T12:20:02Z</time>
      </trkpt>
      <trkpt lat="45.91242" lon="3.37355">
        <ele>320.6</ele>
        <time>2024-05-18T12:20:03Z</time>
      </trkpt>
      <trkpt lat="45.91242" lon="3.37355">
        <ele>320.6</ele>
        <time>2024-05-18T12:20:04Z</time>
      </trkpt>
      <trkpt lat="45.91242" lon="3.37355">
        <ele>320.4</ele>
        <time>2024-05-18T12:20:05Z</time>
      </trkpt>
      <trkpt lat="45.91242" lon="3.37355">
        <ele>320.4</ele>
        <time>2024-05-18T12:20:06Z</time>
      </trkpt>
      <trkpt lat="45.91242" lon="3.37355">
        <ele>320.2</ele>
        <time>2024-05-18T12:20:07Z</time>
      </trkpt>
      <trkpt lat="45.91227" lon="3.37315">
        <ele>320.2</ele>
        <time>2024-05-18T12:20:08Z</time>
      </trkpt>
      <trkpt lat="45.91226" lon="3.37307">
        <ele>319.8</ele>
        <time>2024-05-18T12:20:09Z</time>
      </trkpt>
      <trkpt lat="45.91225" lon="3.373">
        <ele>319.6</ele>
        <time>2024-05-18T12:20:10Z</time>
      </trkpt>
      <trkpt lat="45.91224" lon="3.37292">
        <ele>319.6</ele>
        <time>2024-05-18T12:20:11Z</time>
      </trkpt>
      <trkpt lat="45.91224" lon="3.37284">
        <ele>319.4</ele>
        <time>2024-05-18T12:20:12Z</time>
      </trkpt>
      <trkpt lat="45.91223" lon="3.37275">
        <ele>319.2</ele>
        <time>2024-05-18T12:20:13Z</time>
      </trkpt>
      <trkpt lat="45.91222" lon="3.37266">
        <ele>319</ele>
        <time>2024-05-18T12:20:14Z</time>
      </trkpt>
      <trkpt lat="45.91221" lon="3.37256">
        <ele>318.8</ele>
        <time>2024-05-18T12:20:15Z</time>
      </trkpt>
      <trkpt lat="45.91219" lon="3.37246">
        <ele>318.6</ele>
        <time>2024-05-18T12:20:16Z</time>
      </trkpt>
      <trkpt lat="45.91217" lon="3.37235">
        <ele>318.4</ele>
        <time>2024-05-18T12:20:17Z</time>
      </trkpt>
      <trkpt lat="45.91215" lon="3.37225">
        <ele>318</ele>
        <time>2024-05-18T12:20:18Z</time>
      </trkpt>
      <trkpt lat="45.91213" lon="3.37215">
        <ele>317.8</ele>
        <time>2024-05-18T12:20:19Z</time>
      </trkpt>
      <trkpt lat="45.91211" lon="3.37204">
        <ele>317.6</ele>
        <time>2024-05-18T12:20:20Z</time>
      </trkpt>
      <trkpt lat="45.9121" lon="3.37193">
        <ele>317.4</ele>
        <time>2024-05-18T12:20:21Z</time>
      </trkpt>
      <trkpt lat="45.91208" lon="3.37181">
        <ele>317</ele>
        <time>2024-05-18T12:20:22Z</time>
      </trkpt>
      <trkpt lat="45.91207" lon="3.37168">
        <ele>316.8</ele>
        <time>2024-05-18T12:20:23Z</time>
      </trkpt>
      <trkpt lat="45.91206" lon="3.37155">
        <ele>316.4</ele>
        <time>2024-05-18T12:20:24Z</time>
      </trkpt>
      <trkpt lat="45.91207" lon="3.37141">
        <ele>316</ele>
        <time>2024-05-18T12:20:25Z</time>
      </trkpt>
      <trkpt lat="45.91209" lon="3.37127">
        <ele>315.8</ele>
        <time>2024-05-18T12:20:26Z</time>
      </trkpt>
      <trkpt lat="45.91212" lon="3.37114">
        <ele>315.4</ele>
        <time>2024-05-18T12:20:27Z</time>
      </trkpt>
      <trkpt lat="45.91216" lon="3.37101">
        <ele>315</ele>
        <time>2024-05-18T12:20:28Z</time>
      </trkpt>
      <trkpt lat="45.9122" lon="3.37089">
        <ele>314.8</ele>
        <time>2024-05-18T12:20:29Z</time>
      </trkpt>
      <trkpt lat="45.91224" lon="3.37078">
        <ele>314.4</ele>
        <time>2024-05-18T12:20:30Z</time>
      </trkpt>
      <trkpt lat="45.91228" lon="3.37066">
        <ele>314.2</ele>
        <time>2024-05-18T12:20:31Z</time>
      </trkpt>
      <trkpt lat="45.91231" lon="3.37054">
        <ele>313.8</ele>
        <time>2024-05-18T12:20:32Z</time>
      </trkpt>
      <trkpt lat="45.91234" lon="3.37041">
        <ele>313.4</ele>
        <time>2024-05-18T12:20:33Z</time>
      </trkpt>
      <trkpt lat="45.91237" lon="3.37028">
        <ele>313.2</ele>
        <time>2024-05-18T12:20:34Z</time>
      </trkpt>
      <trkpt lat="45.91241" lon="3.37017">
        <ele>312.8</ele>
        <time>2024-05-18T12:20:35Z</time>
      </trkpt>
      <trkpt lat="45.91244" lon="3.37006">
        <ele>312.4</ele>
        <time>2024-05-18T12:20:36Z</time>
      </trkpt>
      <trkpt lat="45.91247" lon="3.36995">
        <ele>312</ele>
        <time>2024-05-18T12:20:37Z</time>
      </trkpt>
      <trkpt lat="45.91249" lon="3.36984">
        <ele>311.8</ele>
        <time>2024-05-18T12:20:38Z</time>
      </trkpt>
      <trkpt lat="45.91251" lon="3.36973">
        <ele>311.4</ele>
        <time>2024-05-18T12:20:39Z</time>
      </trkpt>
      <trkpt lat="45.91251" lon="3.36961">
        <ele>311</ele>
        <time>2024-05-18T12:20:40Z</time>
      </trkpt>
      <trkpt lat="45.9125" lon="3.3695">
        <ele>310.6</ele>
        <time>2024-05-18T12:20:41Z</time>
      </trkpt>
      <trkpt lat="45.9125" lon="3.36939">
        <ele>310.4</ele>
        <time>2024-05-18T12:20:42Z</time>
      </trkpt>
      <trkpt lat="45.9125" lon="3.36929">
        <ele>310</ele>
        <time>2024-05-18T12:20:43Z</time>
      </trkpt>
      <trkpt lat="45.9125" lon="3.3692">
        <ele>309.8</ele>
        <time>2024-05-18T12:20:44Z</time>
      </trkpt>
      <trkpt lat="45.9125" lon="3.36912">
        <ele>309.4</ele>
        <time>2024-05-18T12:20:45Z</time>
      </trkpt>
      <trkpt lat="45.9125" lon="3.36905">
        <ele>309</ele>
        <time>2024-05-18T12:20:46Z</time>
      </trkpt>
      <trkpt lat="45.91253" lon="3.36894">
        <ele>308.8</ele>
        <time>2024-05-18T12:20:47Z</time>
      </trkpt>
      <trkpt lat="45.91251" lon="3.36892">
        <ele>308.4</ele>
        <time>2024-05-18T12:20:48Z</time>
      </trkpt>
      <trkpt lat="45.91249" lon="3.3689">
        <ele>308</ele>
        <time>2024-05-18T12:20:49Z</time>
      </trkpt>
      <trkpt lat="45.91247" lon="3.36886">
        <ele>307.8</ele>
        <time>2024-05-18T12:20:50Z</time>
      </trkpt>
      <trkpt lat="45.91244" lon="3.36881">
        <ele>307.4</ele>
        <time>2024-05-18T12:20:51Z</time>
      </trkpt>
      <trkpt lat="45.9124" lon="3.36876">
        <ele>307.2</ele>
        <time>2024-05-18T12:20:52Z</time>
      </trkpt>
      <trkpt lat="45.91237" lon="3.3687">
        <ele>306.8</ele>
        <time>2024-05-18T12:20:53Z</time>
      </trkpt>
      <trkpt lat="45.91233" lon="3.36865">
        <ele>306.6</ele>
        <time>2024-05-18T12:20:54Z</time>
      </trkpt>
      <trkpt lat="45.91229" lon="3.36859">
        <ele>306.4</ele>
        <time>2024-05-18T12:20:55Z</time>
      </trkpt>
      <trkpt lat="45.91225" lon="3.36853">
        <ele>306.2</ele>
        <time>2024-05-18T12:20:56Z</time>
      </trkpt>
      <trkpt lat="45.91221" lon="3.36848">
        <ele>306</ele>
        <time>2024-05-18T12:20:57Z</time>
      </trkpt>
      <trkpt lat="45.91221" lon="3.36848">
        <ele>305.6</ele>
        <time>2024-05-18T12:20:58Z</time>
      </trkpt>
      <trkpt lat="45.91221" lon="3.36848">
        <ele>305.4</ele>
        <time>2024-05-18T12:20:59Z</time>
      </trkpt>
      <trkpt lat="45.91221" lon="3.36848">
        <ele>305.2</ele>
        <time>2024-05-18T12:21:00Z</time>
      </trkpt>
      <trkpt lat="45.912" lon="3.36836">
        <ele>304.8</ele>
        <time>2024-05-18T12:21:01Z</time>
      </trkpt>
      <trkpt lat="45.91194" lon="3.36834">
        <ele>304.6</ele>
        <time>2024-05-18T12:21:02Z</time>
      </trkpt>
      <trkpt lat="45.91188" lon="3.36831">
        <ele>304.4</ele>
        <time>2024-05-18T12:21:03Z</time>
      </trkpt>
      <trkpt lat="45.91182" lon="3.36829">
        <ele>304.2</ele>
        <time>2024-05-18T12:21:04Z</time>
      </trkpt>
      <trkpt lat="45.91176" lon="3.36827">
        <ele>303.8</ele>
        <time>2024-05-18T12:21:05Z</time>
      </trkpt>
      <trkpt lat="45.9117" lon="3.36825">
        <ele>303.6</ele>
        <time>2024-05-18T12:21:06Z</time>
      </trkpt>
      <trkpt lat="45.91163" lon="3.36823">
        <ele>303.4</ele>
        <time>2024-05-18T12:21:07Z</time>
      </trkpt>
      <trkpt lat="45.91157" lon="3.36821">
        <ele>303</ele>
        <time>2024-05-18T12:21:08Z</time>
      </trkpt>
      <trkpt lat="45.9115" lon="3.36818">
        <ele>302.8</ele>
        <time>2024-05-18T12:21:09Z</time>
      </trkpt>
      <trkpt lat="45.91144" lon="3.36816">
        <ele>302.6</ele>
        <time>2024-05-18T12:21:10Z</time>
      </trkpt>
      <trkpt lat="45.91137" lon="3.36814">
        <ele>302.2</ele>
        <time>2024-05-18T12:21:11Z</time>
      </trkpt>
      <trkpt lat="45.91131" lon="3.36812">
        <ele>302</ele>
        <time>2024-05-18T12:21:12Z</time>
      </trkpt>
      <trkpt lat="45.91124" lon="3.36809">
        <ele>301.8</ele>
        <time>2024-05-18T12:21:13Z</time>
      </trkpt>
      <trkpt lat="45.91118" lon="3.36807">
        <ele>301.6</ele>
        <time>2024-05-18T12:21:14Z</time>
      </trkpt>
      <trkpt lat="45.91112" lon="3.36805">
        <ele>301.2</ele>
        <time>2024-05-18T12:21:15Z</time>
      </trkpt>
      <trkpt lat="45.91105" lon="3.36803">
        <ele>301</ele>
        <time>2024-05-18T12:21:16Z</time>
      </trkpt>
      <trkpt lat="45.91099" lon="3.36801">
        <ele>300.8</ele>
        <time>2024-05-18T12:21:17Z</time>
      </trkpt>
      <trkpt lat="45.91092" lon="3.36798">
        <ele>300.4</ele>
        <time>2024-05-18T12:21:18Z</time>
      </trkpt>
      <trkpt lat="45.91086" lon="3.36796">
        <ele>300.2</ele>
        <time>2024-05-18T12:21:19Z</time>
      </trkpt>
      <trkpt lat="45.91079" lon="3.36794">
        <ele>300</ele>
        <time>2024-05-18T12:21:20Z</time>
      </trkpt>
      <trkpt lat="45.91073" lon="3.36792">
        <ele>299.8</ele>
        <time>2024-05-18T12:21:21Z</time>
      </trkpt>
      <trkpt lat="45.91066" lon="3.36789">
        <ele>299.6</ele>
        <time>2024-05-18T12:21:22Z</time>
      </trkpt>
      <trkpt lat="45.9106" lon="3.36787">
        <ele>299.2</ele>
        <time>2024-05-18T12:21:23Z</time>
      </trkpt>
      <trkpt lat="45.91053" lon="3.36785">
        <ele>299</ele>
        <time>2024-05-18T12:21:24Z</time>
      </trkpt>
      <trkpt lat="45.91047" lon="3.36783">
        <ele>298.8</ele>
        <time>2024-05-18T12:21:25Z</time>
      </trkpt>
      <trkpt lat="45.9104" lon="3.3678">
        <ele>298.6</ele>
        <time>2024-05-18T12:21:26Z</time>
      </trkpt>
      <trkpt lat="45.91034" lon="3.36778">
        <ele>298.4</ele>
        <time>2024-05-18T12:21:27Z</time>
      </trkpt>
      <trkpt lat="45.91028" lon="3.36776">
        <ele>298.2</ele>
        <time>2024-05-18T12:21:28Z</time>
      </trkpt>
      <trkpt lat="45.91022" lon="3.36774">
        <ele>298</ele>
        <time>2024-05-18T12:21:29Z</time>
      </trkpt>
      <trkpt lat="45.91016" lon="3.36773">
        <ele>298</ele>
        <time>2024-05-18T12:21:30Z</time>
      </trkpt>
      <trkpt lat="45.9101" lon="3.36771">
        <ele>297.8</ele>
        <time>2024-05-18T12:21:31Z</time>
      </trkpt>
      <trkpt lat="45.91004" lon="3.36769">
        <ele>297.6</ele>
        <time>2024-05-18T12:21:32Z</time>
      </trkpt>
      <trkpt lat="45.90998" lon="3.36767">
        <ele>297.4</ele>
        <time>2024-05-18T12:21:33Z</time>
      </trkpt>
      <trkpt lat="45.90991" lon="3.36766">
        <ele>297.2</ele>
        <time>2024-05-18T12:21:34Z</time>
      </trkpt>
      <trkpt lat="45.90985" lon="3.36764">
        <ele>297</ele>
        <time>2024-05-18T12:21:35Z</time>
      </trkpt>
      <trkpt lat="45.90985" lon="3.36764">
        <ele>296.8</ele>
        <time>2024-05-18T12:21:36Z</time>
      </trkpt>
      <trkpt lat="45.90985" lon="3.36764">
        <ele>296.6</ele>
        <time>2024-05-18T12:21:37Z</time>
      </trkpt>
      <trkpt lat="45.90985" lon="3.36764">
        <ele>296.4</ele>
        <time>2024-05-18T12:21:38Z</time>
      </trkpt>
      <trkpt lat="45.90961" lon="3.36763">
        <ele>296.2</ele>
        <time>2024-05-18T12:21:39Z</time>
      </trkpt>
      <trkpt lat="45.90955" lon="3.36764">
        <ele>296</ele>
        <time>2024-05-18T12:21:40Z</time>
      </trkpt>
      <trkpt lat="45.90949" lon="3.36767">
        <ele>296</ele>
        <time>2024-05-18T12:21:41Z</time>
      </trkpt>
      <trkpt lat="45.90943" lon="3.36769">
        <ele>295.8</ele>
        <time>2024-05-18T12:21:42Z</time>
      </trkpt>
      <trkpt lat="45.90937" lon="3.36772">
        <ele>295.6</ele>
        <time>2024-05-18T12:21:43Z</time>
      </trkpt>
      <trkpt lat="45.90931" lon="3.36774">
        <ele>295.6</ele>
        <time>2024-05-18T12:21:44Z</time>
      </trkpt>
      <trkpt lat="45.90925" lon="3.36777">
        <ele>295.6</ele>
        <time>2024-05-18T12:21:45Z</time>
      </trkpt>
      <trkpt lat="45.9092" lon="3.36779">
        <ele>295.6</ele>
        <time>2024-05-18T12:21:46Z</time>
      </trkpt>
      <trkpt lat="45.90914" lon="3.36782">
        <ele>295.4</ele>
        <time>2024-05-18T12:21:47Z</time>
      </trkpt>
      <trkpt lat="45.90908" lon="3.36784">
        <ele>295.2</ele>
        <time>2024-05-18T12:21:48Z</time>
      </trkpt>
      <trkpt lat="45.90903" lon="3.36786">
        <ele>295.2</ele>
        <time>2024-05-18T12:21:49Z</time>
      </trkpt>
      <trkpt lat="45.90897" lon="3.36789">
        <ele>295.2</ele>
        <time>2024-05-18T12:21:50Z</time>
      </trkpt>
      <trkpt lat="45.90892" lon="3.36793">
        <ele>295</ele>
        <time>2024-05-18T12:21:51Z</time>
      </trkpt>
      <trkpt lat="45.90886" lon="3.36797">
        <ele>295</ele>
        <time>2024-05-18T12:21:52Z</time>
      </trkpt>
      <trkpt lat="45.90881" lon="3.36801">
        <ele>294.8</ele>
        <time>2024-05-18T12:21:53Z</time>
      </trkpt>
      <trkpt lat="45.90876" lon="3.36804">
        <ele>294.6</ele>
        <time>2024-05-18T12:21:54Z</time>
      </trkpt>
      <trkpt lat="45.90871" lon="3.36808">
        <ele>294.6</ele>
        <time>2024-05-18T12:21:55Z</time>
      </trkpt>
      <trkpt lat="45.90866" lon="3.36812">
        <ele>294.4</ele>
        <time>2024-05-18T12:21:56Z</time>
      </trkpt>
      <trkpt lat="45.90861" lon="3.36816">
        <ele>294.4</ele>
        <time>2024-05-18T12:21:57Z</time>
      </trkpt>
      <trkpt lat="45.90856" lon="3.3682">
        <ele>294.2</ele>
        <time>2024-05-18T12:21:58Z</time>
      </trkpt>
      <trkpt lat="45.9085" lon="3.36821">
        <ele>294.2</ele>
        <time>2024-05-18T12:21:59Z</time>
      </trkpt>
      <trkpt lat="45.90844" lon="3.36821">
        <ele>294.2</ele>
        <time>2024-05-18T12:22:00Z</time>
      </trkpt>
      <trkpt lat="45.90838" lon="3.36821">
        <ele>294</ele>
        <time>2024-05-18T12:22:01Z</time>
      </trkpt>
      <trkpt lat="45.90832" lon="3.36821">
        <ele>294</ele>
        <time>2024-05-18T12:22:02Z</time>
      </trkpt>
      <trkpt lat="45.90826" lon="3.3682">
        <ele>294</ele>
        <time>2024-05-18T12:22:03Z</time>
      </trkpt>
      <trkpt lat="45.90821" lon="3.36819">
        <ele>293.8</ele>
        <time>2024-05-18T12:22:04Z</time>
      </trkpt>
      <trkpt lat="45.90815" lon="3.36818">
        <ele>293.8</ele>
        <time>2024-05-18T12:22:05Z</time>
      </trkpt>
      <trkpt lat="45.90809" lon="3.36816">
        <ele>293.8</ele>
        <time>2024-05-18T12:22:06Z</time>
      </trkpt>
      <trkpt lat="45.90803" lon="3.36815">
        <ele>293.8</ele>
        <time>2024-05-18T12:22:07Z</time>
      </trkpt>
      <trkpt lat="45.90797" lon="3.36814">
        <ele>293.6</ele>
        <time>2024-05-18T12:22:08Z</time>
      </trkpt>
      <trkpt lat="45.90792" lon="3.36812">
        <ele>293.6</ele>
        <time>2024-05-18T12:22:09Z</time>
      </trkpt>
      <trkpt lat="45.90786" lon="3.36811">
        <ele>293.6</ele>
        <time>2024-05-18T12:22:10Z</time>
      </trkpt>
      <trkpt lat="45.9078" lon="3.3681">
        <ele>293.4</ele>
        <time>2024-05-18T12:22:11Z</time>
      </trkpt>
      <trkpt lat="45.90774" lon="3.36809">
        <ele>293.4</ele>
        <time>2024-05-18T12:22:12Z</time>
      </trkpt>
      <trkpt lat="45.90769" lon="3.36807">
        <ele>293.4</ele>
        <time>2024-05-18T12:22:13Z</time>
      </trkpt>
      <trkpt lat="45.90763" lon="3.36806">
        <ele>293.4</ele>
        <time>2024-05-18T12:22:14Z</time>
      </trkpt>
      <trkpt lat="45.90757" lon="3.36805">
        <ele>293.2</ele>
        <time>2024-05-18T12:22:15Z</time>
      </trkpt>
      <trkpt lat="45.90751" lon="3.36803">
        <ele>293.2</ele>
        <time>2024-05-18T12:22:16Z</time>
      </trkpt>
      <trkpt lat="45.90745" lon="3.36802">
        <ele>293.2</ele>
        <time>2024-05-18T12:22:17Z</time>
      </trkpt>
      <trkpt lat="45.90739" lon="3.36801">
        <ele>293.2</ele>
        <time>2024-05-18T12:22:18Z</time>
      </trkpt>
      <trkpt lat="45.90733" lon="3.36799">
        <ele>293.2</ele>
        <time>2024-05-18T12:22:19Z</time>
      </trkpt>
      <trkpt lat="45.90728" lon="3.36798">
        <ele>293.2</ele>
        <time>2024-05-18T12:22:20Z</time>
      </trkpt>
      <trkpt lat="45.90722" lon="3.36797">
        <ele>293.2</ele>
        <time>2024-05-18T12:22:21Z</time>
      </trkpt>
      <trkpt lat="45.90716" lon="3.36795">
        <ele>293.2</ele>
        <time>2024-05-18T12:22:22Z</time>
      </trkpt>
      <trkpt lat="45.9071" lon="3.36794">
        <ele>293.2</ele>
        <time>2024-05-18T12:22:23Z</time>
      </trkpt>
      <trkpt lat="45.90704" lon="3.36793">
        <ele>293.2</ele>
        <time>2024-05-18T12:22:24Z</time>
      </trkpt>
      <trkpt lat="45.90698" lon="3.36791">
        <ele>293.2</ele>
        <time>2024-05-18T12:22:25Z</time>
      </trkpt>
      <trkpt lat="45.90692" lon="3.3679">
        <ele>293</ele>
        <time>2024-05-18T12:22:26Z</time>
      </trkpt>
      <trkpt lat="45.90685" lon="3.36788">
        <ele>293</ele>
        <time>2024-05-18T12:22:27Z</time>
      </trkpt>
      <trkpt lat="45.9068" lon="3.36784">
        <ele>293</ele>
        <time>2024-05-18T12:22:28Z</time>
      </trkpt>
      <trkpt lat="45.90674" lon="3.36779">
        <ele>292.8</ele>
        <time>2024-05-18T12:22:29Z</time>
      </trkpt>
      <trkpt lat="45.90669" lon="3.36775">
        <ele>292.8</ele>
        <time>2024-05-18T12:22:30Z</time>
      </trkpt>
      <trkpt lat="45.90663" lon="3.3677">
        <ele>292.8</ele>
        <time>2024-05-18T12:22:31Z</time>
      </trkpt>
      <trkpt lat="45.90657" lon="3.36766">
        <ele>292.6</ele>
        <time>2024-05-18T12:22:32Z</time>
      </trkpt>
      <trkpt lat="45.90652" lon="3.3676">
        <ele>292.6</ele>
        <time>2024-05-18T12:22:33Z</time>
      </trkpt>
      <trkpt lat="45.90647" lon="3.36753">
        <ele>292.6</ele>
        <time>2024-05-18T12:22:34Z</time>
      </trkpt>
      <trkpt lat="45.90643" lon="3.36747">
        <ele>292.4</ele>
        <time>2024-05-18T12:22:35Z</time>
      </trkpt>
      <trkpt lat="45.90639" lon="3.36742">
        <ele>292.4</ele>
        <time>2024-05-18T12:22:36Z</time>
      </trkpt>
      <trkpt lat="45.90634" lon="3.36735">
        <ele>292.2</ele>
        <time>2024-05-18T12:22:37Z</time>
      </trkpt>
      <trkpt lat="45.90629" lon="3.36729">
        <ele>292</ele>
        <time>2024-05-18T12:22:38Z</time>
      </trkpt>
      <trkpt lat="45.90624" lon="3.36722">
        <ele>292</ele>
        <time>2024-05-18T12:22:39Z</time>
      </trkpt>
      <trkpt lat="45.9062" lon="3.36716">
        <ele>292</ele>
        <time>2024-05-18T12:22:40Z</time>
      </trkpt>
      <trkpt lat="45.90615" lon="3.3671">
        <ele>292</ele>
        <time>2024-05-18T12:22:41Z</time>
      </trkpt>
      <trkpt lat="45.90611" lon="3.36704">
        <ele>292</ele>
        <time>2024-05-18T12:22:42Z</time>
      </trkpt>
      <trkpt lat="45.90607" lon="3.36698">
        <ele>292</ele>
        <time>2024-05-18T12:22:43Z</time>
      </trkpt>
      <trkpt lat="45.90602" lon="3.36692">
        <ele>291.8</ele>
        <time>2024-05-18T12:22:44Z</time>
      </trkpt>
      <trkpt lat="45.90598" lon="3.36686">
        <ele>292</ele>
        <time>2024-05-18T12:22:45Z</time>
      </trkpt>
      <trkpt lat="45.90593" lon="3.3668">
        <ele>292</ele>
        <time>2024-05-18T12:22:46Z</time>
      </trkpt>
      <trkpt lat="45.90589" lon="3.36674">
        <ele>291.8</ele>
        <time>2024-05-18T12:22:47Z</time>
      </trkpt>
      <trkpt lat="45.90585" lon="3.36668">
        <ele>291.8</ele>
        <time>2024-05-18T12:22:48Z</time>
      </trkpt>
      <trkpt lat="45.9058" lon="3.36662">
        <ele>291.8</ele>
        <time>2024-05-18T12:22:49Z</time>
      </trkpt>
      <trkpt lat="45.90576" lon="3.36656">
        <ele>291.8</ele>
        <time>2024-05-18T12:22:50Z</time>
      </trkpt>
      <trkpt lat="45.90571" lon="3.3665">
        <ele>291.8</ele>
        <time>2024-05-18T12:22:51Z</time>
      </trkpt>
      <trkpt lat="45.90567" lon="3.36644">
        <ele>291.8</ele>
        <time>2024-05-18T12:22:52Z</time>
      </trkpt>
      <trkpt lat="45.90563" lon="3.36638">
        <ele>291.8</ele>
        <time>2024-05-18T12:22:53Z</time>
      </trkpt>
      <trkpt lat="45.90558" lon="3.36632">
        <ele>291.8</ele>
        <time>2024-05-18T12:22:54Z</time>
      </trkpt>
      <trkpt lat="45.90554" lon="3.36626">
        <ele>291.8</ele>
        <time>2024-05-18T12:22:55Z</time>
      </trkpt>
      <trkpt lat="45.90549" lon="3.36619">
        <ele>291.6</ele>
        <time>2024-05-18T12:22:56Z</time>
      </trkpt>
      <trkpt lat="45.90545" lon="3.36613">
        <ele>291.8</ele>
        <time>2024-05-18T12:22:57Z</time>
      </trkpt>
      <trkpt lat="45.9054" lon="3.36607">
        <ele>291.8</ele>
        <time>2024-05-18T12:22:58Z</time>
      </trkpt>
      <trkpt lat="45.90536" lon="3.36601">
        <ele>291.8</ele>
        <time>2024-05-18T12:22:59Z</time>
      </trkpt>
      <trkpt lat="45.90531" lon="3.36595">
        <ele>291.8</ele>
        <time>2024-05-18T12:23:00Z</time>
      </trkpt>
      <trkpt lat="45.90527" lon="3.36589">
        <ele>291.8</ele>
        <time>2024-05-18T12:23:01Z</time>
      </trkpt>
      <trkpt lat="45.90523" lon="3.36583">
        <ele>291.8</ele>
        <time>2024-05-18T12:23:02Z</time>
      </trkpt>
      <trkpt lat="45.90518" lon="3.36577">
        <ele>291.8</ele>
        <time>2024-05-18T12:23:03Z</time>
      </trkpt>
      <trkpt lat="45.90514" lon="3.36571">
        <ele>291.8</ele>
        <time>2024-05-18T12:23:04Z</time>
      </trkpt>
      <trkpt lat="45.90509" lon="3.36565">
        <ele>291.8</ele>
        <time>2024-05-18T12:23:05Z</time>
      </trkpt>
      <trkpt lat="45.90505" lon="3.36559">
        <ele>291.8</ele>
        <time>2024-05-18T12:23:06Z</time>
      </trkpt>
      <trkpt lat="45.905" lon="3.36553">
        <ele>291.6</ele>
        <time>2024-05-18T12:23:07Z</time>
      </trkpt>
      <trkpt lat="45.90496" lon="3.36547">
        <ele>291.8</ele>
        <time>2024-05-18T12:23:08Z</time>
      </trkpt>
      <trkpt lat="45.90491" lon="3.3654">
        <ele>291.6</ele>
        <time>2024-05-18T12:23:09Z</time>
      </trkpt>
      <trkpt lat="45.90487" lon="3.36534">
        <ele>291.6</ele>
        <time>2024-05-18T12:23:10Z</time>
      </trkpt>
      <trkpt lat="45.90482" lon="3.36528">
        <ele>291.6</ele>
        <time>2024-05-18T12:23:11Z</time>
      </trkpt>
      <trkpt lat="45.90478" lon="3.36522">
        <ele>291.6</ele>
        <time>2024-05-18T12:23:12Z</time>
      </trkpt>
      <trkpt lat="45.90474" lon="3.36516">
        <ele>291.6</ele>
        <time>2024-05-18T12:23:13Z</time>
      </trkpt>
      <trkpt lat="45.9047" lon="3.36509">
        <ele>291.6</ele>
        <time>2024-05-18T12:23:14Z</time>
      </trkpt>
      <trkpt lat="45.90466" lon="3.36503">
        <ele>291.6</ele>
        <time>2024-05-18T12:23:15Z</time>
      </trkpt>
      <trkpt lat="45.90461" lon="3.36497">
        <ele>291.6</ele>
        <time>2024-05-18T12:23:16Z</time>
      </trkpt>
      <trkpt lat="45.90457" lon="3.3649">
        <ele>291.6</ele>
        <time>2024-05-18T12:23:17Z</time>
      </trkpt>
      <trkpt lat="45.90453" lon="3.36484">
        <ele>291.6</ele>
        <time>2024-05-18T12:23:18Z</time>
      </trkpt>
      <trkpt lat="45.90449" lon="3.36476">
        <ele>291.6</ele>
        <time>2024-05-18T12:23:19Z</time>
      </trkpt>
      <trkpt lat="45.90446" lon="3.36468">
        <ele>291.6</ele>
        <time>2024-05-18T12:23:20Z</time>
      </trkpt>
      <trkpt lat="45.90444" lon="3.3646">
        <ele>291.6</ele>
        <time>2024-05-18T12:23:21Z</time>
      </trkpt>
      <trkpt lat="45.90441" lon="3.36452">
        <ele>291.6</ele>
        <time>2024-05-18T12:23:22Z</time>
      </trkpt>
      <trkpt lat="45.90438" lon="3.36444">
        <ele>291.6</ele>
        <time>2024-05-18T12:23:23Z</time>
      </trkpt>
      <trkpt lat="45.90435" lon="3.36435">
        <ele>291.6</ele>
        <time>2024-05-18T12:23:24Z</time>
      </trkpt>
      <trkpt lat="45.90432" lon="3.36427">
        <ele>291.6</ele>
        <time>2024-05-18T12:23:25Z</time>
      </trkpt>
      <trkpt lat="45.90429" lon="3.36419">
        <ele>291.6</ele>
        <time>2024-05-18T12:23:26Z</time>
      </trkpt>
      <trkpt lat="45.90426" lon="3.3641">
        <ele>291.6</ele>
        <time>2024-05-18T12:23:27Z</time>
      </trkpt>
      <trkpt lat="45.90423" lon="3.36402">
        <ele>291.6</ele>
        <time>2024-05-18T12:23:28Z</time>
      </trkpt>
      <trkpt lat="45.9042" lon="3.36393">
        <ele>291.6</ele>
        <time>2024-05-18T12:23:29Z</time>
      </trkpt>
      <trkpt lat="45.90418" lon="3.36384">
        <ele>291.6</ele>
        <time>2024-05-18T12:23:30Z</time>
      </trkpt>
      <trkpt lat="45.90415" lon="3.36376">
        <ele>291.4</ele>
        <time>2024-05-18T12:23:31Z</time>
      </trkpt>
      <trkpt lat="45.90412" lon="3.36366">
        <ele>291.4</ele>
        <time>2024-05-18T12:23:32Z</time>
      </trkpt>
      <trkpt lat="45.90411" lon="3.36356">
        <ele>291.4</ele>
        <time>2024-05-18T12:23:33Z</time>
      </trkpt>
      <trkpt lat="45.9041" lon="3.36346">
        <ele>291.4</ele>
        <time>2024-05-18T12:23:34Z</time>
      </trkpt>
      <trkpt lat="45.90409" lon="3.36336">
        <ele>291.4</ele>
        <time>2024-05-18T12:23:35Z</time>
      </trkpt>
      <trkpt lat="45.90409" lon="3.36325">
        <ele>291.4</ele>
        <time>2024-05-18T12:23:36Z</time>
      </trkpt>
      <trkpt lat="45.90408" lon="3.36315">
        <ele>291.4</ele>
        <time>2024-05-18T12:23:37Z</time>
      </trkpt>
      <trkpt lat="45.90408" lon="3.36304">
        <ele>291.4</ele>
        <time>2024-05-18T12:23:38Z</time>
      </trkpt>
      <trkpt lat="45.90409" lon="3.36294">
        <ele>291.2</ele>
        <time>2024-05-18T12:23:39Z</time>
      </trkpt>
      <trkpt lat="45.90411" lon="3.36284">
        <ele>291</ele>
        <time>2024-05-18T12:23:40Z</time>
      </trkpt>
      <trkpt lat="45.90412" lon="3.36274">
        <ele>291</ele>
        <time>2024-05-18T12:23:41Z</time>
      </trkpt>
      <trkpt lat="45.90413" lon="3.36263">
        <ele>290.6</ele>
        <time>2024-05-18T12:23:42Z</time>
      </trkpt>
      <trkpt lat="45.90414" lon="3.36252">
        <ele>290.4</ele>
        <time>2024-05-18T12:23:43Z</time>
      </trkpt>
      <trkpt lat="45.90415" lon="3.36241">
        <ele>290.2</ele>
        <time>2024-05-18T12:23:44Z</time>
      </trkpt>
      <trkpt lat="45.90416" lon="3.3623">
        <ele>290.2</ele>
        <time>2024-05-18T12:23:45Z</time>
      </trkpt>
      <trkpt lat="45.90418" lon="3.36219">
        <ele>290</ele>
        <time>2024-05-18T12:23:46Z</time>
      </trkpt>
      <trkpt lat="45.90419" lon="3.36209">
        <ele>289.8</ele>
        <time>2024-05-18T12:23:47Z</time>
      </trkpt>
      <trkpt lat="45.9042" lon="3.36198">
        <ele>289.8</ele>
        <time>2024-05-18T12:23:48Z</time>
      </trkpt>
      <trkpt lat="45.90421" lon="3.36188">
        <ele>289.6</ele>
        <time>2024-05-18T12:23:49Z</time>
      </trkpt>
      <trkpt lat="45.90422" lon="3.36177">
        <ele>289.6</ele>
        <time>2024-05-18T12:23:50Z</time>
      </trkpt>
      <trkpt lat="45.90422" lon="3.36167">
        <ele>289.4</ele>
        <time>2024-05-18T12:23:51Z</time>
      </trkpt>
      <trkpt lat="45.90422" lon="3.36156">
        <ele>289.4</ele>
        <time>2024-05-18T12:23:52Z</time>
      </trkpt>
      <trkpt lat="45.90422" lon="3.36146">
        <ele>289.2</ele>
        <time>2024-05-18T12:23:53Z</time>
      </trkpt>
      <trkpt lat="45.90421" lon="3.36135">
        <ele>289.2</ele>
        <time>2024-05-18T12:23:54Z</time>
      </trkpt>
      <trkpt lat="45.90421" lon="3.36124">
        <ele>289</ele>
        <time>2024-05-18T12:23:55Z</time>
      </trkpt>
      <trkpt lat="45.9042" lon="3.36113">
        <ele>289</ele>
        <time>2024-05-18T12:23:56Z</time>
      </trkpt>
      <trkpt lat="45.90415" lon="3.36105">
        <ele>288.8</ele>
        <time>2024-05-18T12:23:57Z</time>
      </trkpt>
      <trkpt lat="45.90411" lon="3.36096">
        <ele>288.8</ele>
        <time>2024-05-18T12:23:58Z</time>
      </trkpt>
      <trkpt lat="45.90407" lon="3.36087">
        <ele>288.6</ele>
        <time>2024-05-18T12:23:59Z</time>
      </trkpt>
      <trkpt lat="45.90407" lon="3.36087">
        <ele>288.6</ele>
        <time>2024-05-18T12:24:00Z</time>
      </trkpt>
      <trkpt lat="45.90398" lon="3.3607">
        <ele>288.6</ele>
        <time>2024-05-18T12:24:01Z</time>
      </trkpt>
      <trkpt lat="45.90394" lon="3.36062">
        <ele>288.6</ele>
        <time>2024-05-18T12:24:02Z</time>
      </trkpt>
      <trkpt lat="45.9039" lon="3.36054">
        <ele>288.6</ele>
        <time>2024-05-18T12:24:03Z</time>
      </trkpt>
      <trkpt lat="45.90386" lon="3.36046">
        <ele>288.4</ele>
        <time>2024-05-18T12:24:04Z</time>
      </trkpt>
      <trkpt lat="45.90383" lon="3.36038">
        <ele>288.4</ele>
        <time>2024-05-18T12:24:05Z</time>
      </trkpt>
      <trkpt lat="45.90379" lon="3.3603">
        <ele>288.2</ele>
        <time>2024-05-18T12:24:06Z</time>
      </trkpt>
      <trkpt lat="45.90375" lon="3.36022">
        <ele>288.2</ele>
        <time>2024-05-18T12:24:07Z</time>
      </trkpt>
      <trkpt lat="45.90371" lon="3.36014">
        <ele>288.2</ele>
        <time>2024-05-18T12:24:08Z</time>
      </trkpt>
      <trkpt lat="45.90371" lon="3.36014">
        <ele>288.2</ele>
        <time>2024-05-18T12:24:09Z</time>
      </trkpt>
      <trkpt lat="45.90362" lon="3.35999">
        <ele>288.2</ele>
        <time>2024-05-18T12:24:10Z</time>
      </trkpt>
      <trkpt lat="45.90358" lon="3.35991">
        <ele>288</ele>
        <time>2024-05-18T12:24:11Z</time>
      </trkpt>
      <trkpt lat="45.90358" lon="3.35991">
        <ele>288</ele>
        <time>2024-05-18T12:24:12Z</time>
      </trkpt>
      <trkpt lat="45.9035" lon="3.35976">
        <ele>288</ele>
        <time>2024-05-18T12:24:13Z</time>
      </trkpt>
      <trkpt lat="45.90345" lon="3.35969">
        <ele>288</ele>
        <time>2024-05-18T12:24:14Z</time>
      </trkpt>
      <trkpt lat="45.90341" lon="3.35961">
        <ele>287.8</ele>
        <time>2024-05-18T12:24:15Z</time>
      </trkpt>
      <trkpt lat="45.90337" lon="3.35954">
        <ele>287.8</ele>
        <time>2024-05-18T12:24:16Z</time>
      </trkpt>
      <trkpt lat="45.90333" lon="3.35946">
        <ele>287.8</ele>
        <time>2024-05-18T12:24:17Z</time>
      </trkpt>
      <trkpt lat="45.90329" lon="3.35939">
        <ele>287.8</ele>
        <time>2024-05-18T12:24:18Z</time>
      </trkpt>
      <trkpt lat="45.90325" lon="3.35932">
        <ele>287.8</ele>
        <time>2024-05-18T12:24:19Z</time>
      </trkpt>
      <trkpt lat="45.9032" lon="3.35925">
        <ele>287.8</ele>
        <time>2024-05-18T12:24:20Z</time>
      </trkpt>
      <trkpt lat="45.90316" lon="3.35917">
        <ele>287.6</ele>
        <time>2024-05-18T12:24:21Z</time>
      </trkpt>
      <trkpt lat="45.90312" lon="3.3591">
        <ele>287.6</ele>
        <time>2024-05-18T12:24:22Z</time>
      </trkpt>
      <trkpt lat="45.90308" lon="3.35903">
        <ele>287.6</ele>
        <time>2024-05-18T12:24:23Z</time>
      </trkpt>
      <trkpt lat="45.90304" lon="3.35896">
        <ele>287.6</ele>
        <time>2024-05-18T12:24:24Z</time>
      </trkpt>
      <trkpt lat="45.903" lon="3.35889">
        <ele>287.6</ele>
        <time>2024-05-18T12:24:25Z</time>
      </trkpt>
      <trkpt lat="45.90296" lon="3.35882">
        <ele>287.6</ele>
        <time>2024-05-18T12:24:26Z</time>
      </trkpt>
      <trkpt lat="45.90292" lon="3.35875">
        <ele>287.6</ele>
        <time>2024-05-18T12:24:27Z</time>
      </trkpt>
      <trkpt lat="45.90288" lon="3.35868">
        <ele>287.6</ele>
        <time>2024-05-18T12:24:28Z</time>
      </trkpt>
      <trkpt lat="45.90285" lon="3.35861">
        <ele>287.6</ele>
        <time>2024-05-18T12:24:29Z</time>
      </trkpt>
      <trkpt lat="45.90281" lon="3.35854">
        <ele>287.6</ele>
        <time>2024-05-18T12:24:30Z</time>
      </trkpt>
      <trkpt lat="45.90277" lon="3.35847">
        <ele>287.6</ele>
        <time>2024-05-18T12:24:31Z</time>
      </trkpt>
      <trkpt lat="45.90273" lon="3.35841">
        <ele>287.6</ele>
        <time>2024-05-18T12:24:32Z</time>
      </trkpt>
      <trkpt lat="45.90269" lon="3.35834">
        <ele>287.4</ele>
        <time>2024-05-18T12:24:33Z</time>
      </trkpt>
      <trkpt lat="45.90265" lon="3.35827">
        <ele>287.4</ele>
        <time>2024-05-18T12:24:34Z</time>
      </trkpt>
      <trkpt lat="45.90262" lon="3.3582">
        <ele>287.4</ele>
        <time>2024-05-18T12:24:35Z</time>
      </trkpt>
      <trkpt lat="45.90258" lon="3.35813">
        <ele>287.4</ele>
        <time>2024-05-18T12:24:36Z</time>
      </trkpt>
      <trkpt lat="45.90254" lon="3.35806">
        <ele>287.4</ele>
        <time>2024-05-18T12:24:37Z</time>
      </trkpt>
      <trkpt lat="45.9025" lon="3.358">
        <ele>287.4</ele>
        <time>2024-05-18T12:24:38Z</time>
      </trkpt>
      <trkpt lat="45.90246" lon="3.35793">
        <ele>287.4</ele>
        <time>2024-05-18T12:24:39Z</time>
      </trkpt>
      <trkpt lat="45.90242" lon="3.35785">
        <ele>287.4</ele>
        <time>2024-05-18T12:24:40Z</time>
      </trkpt>
      <trkpt lat="45.90237" lon="3.35779">
        <ele>287.4</ele>
        <time>2024-05-18T12:24:41Z</time>
      </trkpt>
      <trkpt lat="45.90232" lon="3.35774">
        <ele>287.2</ele>
        <time>2024-05-18T12:24:42Z</time>
      </trkpt>
      <trkpt lat="45.90227" lon="3.35768">
        <ele>287.2</ele>
        <time>2024-05-18T12:24:43Z</time>
      </trkpt>
      <trkpt lat="45.90222" lon="3.35763">
        <ele>287.4</ele>
        <time>2024-05-18T12:24:44Z</time>
      </trkpt>
      <trkpt lat="45.90216" lon="3.35757">
        <ele>287.2</ele>
        <time>2024-05-18T12:24:45Z</time>
      </trkpt>
      <trkpt lat="45.90212" lon="3.35752">
        <ele>287.2</ele>
        <time>2024-05-18T12:24:46Z</time>
      </trkpt>
      <trkpt lat="45.90206" lon="3.35746">
        <ele>287.4</ele>
        <time>2024-05-18T12:24:47Z</time>
      </trkpt>
      <trkpt lat="45.90201" lon="3.35742">
        <ele>287.2</ele>
        <time>2024-05-18T12:24:48Z</time>
      </trkpt>
      <trkpt lat="45.90195" lon="3.35738">
        <ele>287.2</ele>
        <time>2024-05-18T12:24:49Z</time>
      </trkpt>
      <trkpt lat="45.90189" lon="3.35733">
        <ele>287.4</ele>
        <time>2024-05-18T12:24:50Z</time>
      </trkpt>
      <trkpt lat="45.90184" lon="3.35729">
        <ele>287.4</ele>
        <time>2024-05-18T12:24:51Z</time>
      </trkpt>
      <trkpt lat="45.90178" lon="3.35724">
        <ele>287.2</ele>
        <time>2024-05-18T12:24:52Z</time>
      </trkpt>
      <trkpt lat="45.90172" lon="3.3572">
        <ele>287.4</ele>
        <time>2024-05-18T12:24:53Z</time>
      </trkpt>
      <trkpt lat="45.90166" lon="3.35715">
        <ele>287.6</ele>
        <time>2024-05-18T12:24:54Z</time>
      </trkpt>
      <trkpt lat="45.90161" lon="3.35711">
        <ele>287.4</ele>
        <time>2024-05-18T12:24:55Z</time>
      </trkpt>
      <trkpt lat="45.90155" lon="3.35707">
        <ele>287.4</ele>
        <time>2024-05-18T12:24:56Z</time>
      </trkpt>
      <trkpt lat="45.90149" lon="3.35703">
        <ele>287.4</ele>
        <time>2024-05-18T12:24:57Z</time>
      </trkpt>
      <trkpt lat="45.90143" lon="3.35699">
        <ele>287.6</ele>
        <time>2024-05-18T12:24:58Z</time>
      </trkpt>
      <trkpt lat="45.90138" lon="3.35695">
        <ele>287.4</ele>
        <time>2024-05-18T12:24:59Z</time>
      </trkpt>
      <trkpt lat="45.90132" lon="3.35691">
        <ele>287.4</ele>
        <time>2024-05-18T12:25:00Z</time>
      </trkpt>
      <trkpt lat="45.90126" lon="3.35687">
        <ele>287.6</ele>
        <time>2024-05-18T12:25:01Z</time>
      </trkpt>
      <trkpt lat="45.90121" lon="3.35684">
        <ele>287.6</ele>
        <time>2024-05-18T12:25:02Z</time>
      </trkpt>
      <trkpt lat="45.90115" lon="3.3568">
        <ele>287.6</ele>
        <time>2024-05-18T12:25:03Z</time>
      </trkpt>
      <trkpt lat="45.90109" lon="3.35676">
        <ele>287.6</ele>
        <time>2024-05-18T12:25:04Z</time>
      </trkpt>
      <trkpt lat="45.90103" lon="3.35672">
        <ele>287.6</ele>
        <time>2024-05-18T12:25:05Z</time>
      </trkpt>
      <trkpt lat="45.90097" lon="3.35668">
        <ele>287.6</ele>
        <time>2024-05-18T12:25:06Z</time>
      </trkpt>
      <trkpt lat="45.90092" lon="3.35664">
        <ele>287.6</ele>
        <time>2024-05-18T12:25:07Z</time>
      </trkpt>
      <trkpt lat="45.90086" lon="3.3566">
        <ele>287.8</ele>
        <time>2024-05-18T12:25:08Z</time>
      </trkpt>
      <trkpt lat="45.90081" lon="3.35657">
        <ele>287.6</ele>
        <time>2024-05-18T12:25:09Z</time>
      </trkpt>
      <trkpt lat="45.90075" lon="3.35653">
        <ele>287.6</ele>
        <time>2024-05-18T12:25:10Z</time>
      </trkpt>
      <trkpt lat="45.9007" lon="3.35649">
        <ele>287.6</ele>
        <time>2024-05-18T12:25:11Z</time>
      </trkpt>
      <trkpt lat="45.90064" lon="3.35645">
        <ele>287.6</ele>
        <time>2024-05-18T12:25:12Z</time>
      </trkpt>
      <trkpt lat="45.90058" lon="3.35641">
        <ele>287.6</ele>
        <time>2024-05-18T12:25:13Z</time>
      </trkpt>
      <trkpt lat="45.90053" lon="3.35637">
        <ele>287.6</ele>
        <time>2024-05-18T12:25:14Z</time>
      </trkpt>
      <trkpt lat="45.90047" lon="3.35634">
        <ele>287.6</ele>
        <time>2024-05-18T12:25:15Z</time>
      </trkpt>
      <trkpt lat="45.90041" lon="3.3563">
        <ele>287.8</ele>
        <time>2024-05-18T12:25:16Z</time>
      </trkpt>
      <trkpt lat="45.90035" lon="3.35626">
        <ele>287.8</ele>
        <time>2024-05-18T12:25:17Z</time>
      </trkpt>
      <trkpt lat="45.9003" lon="3.35622">
        <ele>287.8</ele>
        <time>2024-05-18T12:25:18Z</time>
      </trkpt>
      <trkpt lat="45.90024" lon="3.35618">
        <ele>287.8</ele>
        <time>2024-05-18T12:25:19Z</time>
      </trkpt>
      <trkpt lat="45.90018" lon="3.35614">
        <ele>287.8</ele>
        <time>2024-05-18T12:25:20Z</time>
      </trkpt>
      <trkpt lat="45.90013" lon="3.3561">
        <ele>287.8</ele>
        <time>2024-05-18T12:25:21Z</time>
      </trkpt>
      <trkpt lat="45.90007" lon="3.35606">
        <ele>287.8</ele>
        <time>2024-05-18T12:25:22Z</time>
      </trkpt>
      <trkpt lat="45.90002" lon="3.35603">
        <ele>287.8</ele>
        <time>2024-05-18T12:25:23Z</time>
      </trkpt>
      <trkpt lat="45.89996" lon="3.35599">
        <ele>287.8</ele>
        <time>2024-05-18T12:25:24Z</time>
      </trkpt>
      <trkpt lat="45.8999" lon="3.35595">
        <ele>287.8</ele>
        <time>2024-05-18T12:25:25Z</time>
      </trkpt>
      <trkpt lat="45.89985" lon="3.35591">
        <ele>287.8</ele>
        <time>2024-05-18T12:25:26Z</time>
      </trkpt>
      <trkpt lat="45.89979" lon="3.35587">
        <ele>288</ele>
        <time>2024-05-18T12:25:27Z</time>
      </trkpt>
      <trkpt lat="45.89974" lon="3.35584">
        <ele>288</ele>
        <time>2024-05-18T12:25:28Z</time>
      </trkpt>
      <trkpt lat="45.89968" lon="3.3558">
        <ele>288</ele>
        <time>2024-05-18T12:25:29Z</time>
      </trkpt>
      <trkpt lat="45.89962" lon="3.35576">
        <ele>288</ele>
        <time>2024-05-18T12:25:30Z</time>
      </trkpt>
      <trkpt lat="45.89957" lon="3.35572">
        <ele>288</ele>
        <time>2024-05-18T12:25:31Z</time>
      </trkpt>
      <trkpt lat="45.89951" lon="3.35568">
        <ele>288</ele>
        <time>2024-05-18T12:25:32Z</time>
      </trkpt>
      <trkpt lat="45.89946" lon="3.35564">
        <ele>288.2</ele>
        <time>2024-05-18T12:25:33Z</time>
      </trkpt>
      <trkpt lat="45.8994" lon="3.35561">
        <ele>288.2</ele>
        <time>2024-05-18T12:25:34Z</time>
      </trkpt>
      <trkpt lat="45.89935" lon="3.35557">
        <ele>288.2</ele>
        <time>2024-05-18T12:25:35Z</time>
      </trkpt>
      <trkpt lat="45.89929" lon="3.35553">
        <ele>288.2</ele>
        <time>2024-05-18T12:25:36Z</time>
      </trkpt>
      <trkpt lat="45.89924" lon="3.3555">
        <ele>288.2</ele>
        <time>2024-05-18T12:25:37Z</time>
      </trkpt>
      <trkpt lat="45.89918" lon="3.35546">
        <ele>288.2</ele>
        <time>2024-05-18T12:25:38Z</time>
      </trkpt>
      <trkpt lat="45.89912" lon="3.35542">
        <ele>288.2</ele>
        <time>2024-05-18T12:25:39Z</time>
      </trkpt>
      <trkpt lat="45.89907" lon="3.35538">
        <ele>288.2</ele>
        <time>2024-05-18T12:25:40Z</time>
      </trkpt>
      <trkpt lat="45.89902" lon="3.35535">
        <ele>288.2</ele>
        <time>2024-05-18T12:25:41Z</time>
      </trkpt>
      <trkpt lat="45.89896" lon="3.35531">
        <ele>288.4</ele>
        <time>2024-05-18T12:25:42Z</time>
      </trkpt>
      <trkpt lat="45.89891" lon="3.35527">
        <ele>288.4</ele>
        <time>2024-05-18T12:25:43Z</time>
      </trkpt>
      <trkpt lat="45.89885" lon="3.35523">
        <ele>288.4</ele>
        <time>2024-05-18T12:25:44Z</time>
      </trkpt>
      <trkpt lat="45.8988" lon="3.3552">
        <ele>288.4</ele>
        <time>2024-05-18T12:25:45Z</time>
      </trkpt>
      <trkpt lat="45.89874" lon="3.35516">
        <ele>288.6</ele>
        <time>2024-05-18T12:25:46Z</time>
      </trkpt>
      <trkpt lat="45.89869" lon="3.35512">
        <ele>288.6</ele>
        <time>2024-05-18T12:25:47Z</time>
      </trkpt>
      <trkpt lat="45.89863" lon="3.35509">
        <ele>288.6</ele>
        <time>2024-05-18T12:25:48Z</time>
      </trkpt>
      <trkpt lat="45.89858" lon="3.35505">
        <ele>288.6</ele>
        <time>2024-05-18T12:25:49Z</time>
      </trkpt>
      <trkpt lat="45.89852" lon="3.35501">
        <ele>288.8</ele>
        <time>2024-05-18T12:25:50Z</time>
      </trkpt>
      <trkpt lat="45.89847" lon="3.35497">
        <ele>288.8</ele>
        <time>2024-05-18T12:25:51Z</time>
      </trkpt>
      <trkpt lat="45.89842" lon="3.35492">
        <ele>288.8</ele>
        <time>2024-05-18T12:25:52Z</time>
      </trkpt>
      <trkpt lat="45.89837" lon="3.35487">
        <ele>288.8</ele>
        <time>2024-05-18T12:25:53Z</time>
      </trkpt>
      <trkpt lat="45.89832" lon="3.35482">
        <ele>288.8</ele>
        <time>2024-05-18T12:25:54Z</time>
      </trkpt>
      <trkpt lat="45.89827" lon="3.35477">
        <ele>289</ele>
        <time>2024-05-18T12:25:55Z</time>
      </trkpt>
      <trkpt lat="45.89822" lon="3.35473">
        <ele>289</ele>
        <time>2024-05-18T12:25:56Z</time>
      </trkpt>
      <trkpt lat="45.89817" lon="3.35468">
        <ele>289</ele>
        <time>2024-05-18T12:25:57Z</time>
      </trkpt>
      <trkpt lat="45.89812" lon="3.35463">
        <ele>289.2</ele>
        <time>2024-05-18T12:25:58Z</time>
      </trkpt>
      <trkpt lat="45.89807" lon="3.35459">
        <ele>289.2</ele>
        <time>2024-05-18T12:25:59Z</time>
      </trkpt>
      <trkpt lat="45.89802" lon="3.35453">
        <ele>289.2</ele>
        <time>2024-05-18T12:26:00Z</time>
      </trkpt>
      <trkpt lat="45.89797" lon="3.35447">
        <ele>289.2</ele>
        <time>2024-05-18T12:26:01Z</time>
      </trkpt>
      <trkpt lat="45.89792" lon="3.35441">
        <ele>289.2</ele>
        <time>2024-05-18T12:26:02Z</time>
      </trkpt>
      <trkpt lat="45.89787" lon="3.35435">
        <ele>289.2</ele>
        <time>2024-05-18T12:26:03Z</time>
      </trkpt>
      <trkpt lat="45.89782" lon="3.35429">
        <ele>289.2</ele>
        <time>2024-05-18T12:26:04Z</time>
      </trkpt>
      <trkpt lat="45.89777" lon="3.35423">
        <ele>289.2</ele>
        <time>2024-05-18T12:26:05Z</time>
      </trkpt>
      <trkpt lat="45.89772" lon="3.35417">
        <ele>289.4</ele>
        <time>2024-05-18T12:26:06Z</time>
      </trkpt>
      <trkpt lat="45.89767" lon="3.3541">
        <ele>289.2</ele>
        <time>2024-05-18T12:26:07Z</time>
      </trkpt>
      <trkpt lat="45.89762" lon="3.35404">
        <ele>289.2</ele>
        <time>2024-05-18T12:26:08Z</time>
      </trkpt>
      <trkpt lat="45.89756" lon="3.35397">
        <ele>289.2</ele>
        <time>2024-05-18T12:26:09Z</time>
      </trkpt>
      <trkpt lat="45.89751" lon="3.35391">
        <ele>289.2</ele>
        <time>2024-05-18T12:26:10Z</time>
      </trkpt>
      <trkpt lat="45.89746" lon="3.35385">
        <ele>289.2</ele>
        <time>2024-05-18T12:26:11Z</time>
      </trkpt>
      <trkpt lat="45.8974" lon="3.35378">
        <ele>289.2</ele>
        <time>2024-05-18T12:26:12Z</time>
      </trkpt>
      <trkpt lat="45.89735" lon="3.35371">
        <ele>289.2</ele>
        <time>2024-05-18T12:26:13Z</time>
      </trkpt>
      <trkpt lat="45.89729" lon="3.35364">
        <ele>289.2</ele>
        <time>2024-05-18T12:26:14Z</time>
      </trkpt>
      <trkpt lat="45.89724" lon="3.35357">
        <ele>289.2</ele>
        <time>2024-05-18T12:26:15Z</time>
      </trkpt>
      <trkpt lat="45.89718" lon="3.35351">
        <ele>289.2</ele>
        <time>2024-05-18T12:26:16Z</time>
      </trkpt>
      <trkpt lat="45.89713" lon="3.35344">
        <ele>289.2</ele>
        <time>2024-05-18T12:26:17Z</time>
      </trkpt>
      <trkpt lat="45.89707" lon="3.35337">
        <ele>289.2</ele>
        <time>2024-05-18T12:26:18Z</time>
      </trkpt>
      <trkpt lat="45.89702" lon="3.3533">
        <ele>289.2</ele>
        <time>2024-05-18T12:26:19Z</time>
      </trkpt>
      <trkpt lat="45.89696" lon="3.35324">
        <ele>289.2</ele>
        <time>2024-05-18T12:26:20Z</time>
      </trkpt>
      <trkpt lat="45.89691" lon="3.35318">
        <ele>289.2</ele>
        <time>2024-05-18T12:26:21Z</time>
      </trkpt>
      <trkpt lat="45.89686" lon="3.35312">
        <ele>289.2</ele>
        <time>2024-05-18T12:26:22Z</time>
      </trkpt>
      <trkpt lat="45.89681" lon="3.35305">
        <ele>289.2</ele>
        <time>2024-05-18T12:26:23Z</time>
      </trkpt>
      <trkpt lat="45.89676" lon="3.35299">
        <ele>289.4</ele>
        <time>2024-05-18T12:26:24Z</time>
      </trkpt>
      <trkpt lat="45.89671" lon="3.35293">
        <ele>289.4</ele>
        <time>2024-05-18T12:26:25Z</time>
      </trkpt>
      <trkpt lat="45.89666" lon="3.35287">
        <ele>289.4</ele>
        <time>2024-05-18T12:26:26Z</time>
      </trkpt>
      <trkpt lat="45.89661" lon="3.35281">
        <ele>289.4</ele>
        <time>2024-05-18T12:26:27Z</time>
      </trkpt>
      <trkpt lat="45.89657" lon="3.35275">
        <ele>289.4</ele>
        <time>2024-05-18T12:26:28Z</time>
      </trkpt>
      <trkpt lat="45.89652" lon="3.35269">
        <ele>289.4</ele>
        <time>2024-05-18T12:26:29Z</time>
      </trkpt>
      <trkpt lat="45.89647" lon="3.35264">
        <ele>289.4</ele>
        <time>2024-05-18T12:26:30Z</time>
      </trkpt>
      <trkpt lat="45.89643" lon="3.35258">
        <ele>289.4</ele>
        <time>2024-05-18T12:26:31Z</time>
      </trkpt>
      <trkpt lat="45.89638" lon="3.35253">
        <ele>289.4</ele>
        <time>2024-05-18T12:26:32Z</time>
      </trkpt>
      <trkpt lat="45.89633" lon="3.35248">
        <ele>289.4</ele>
        <time>2024-05-18T12:26:33Z</time>
      </trkpt>
      <trkpt lat="45.89628" lon="3.35243">
        <ele>289.4</ele>
        <time>2024-05-18T12:26:34Z</time>
      </trkpt>
      <trkpt lat="45.89623" lon="3.35238">
        <ele>289.4</ele>
        <time>2024-05-18T12:26:35Z</time>
      </trkpt>
      <trkpt lat="45.89617" lon="3.35233">
        <ele>289.4</ele>
        <time>2024-05-18T12:26:36Z</time>
      </trkpt>
      <trkpt lat="45.89612" lon="3.35228">
        <ele>289.6</ele>
        <time>2024-05-18T12:26:37Z</time>
      </trkpt>
      <trkpt lat="45.89607" lon="3.35223">
        <ele>289.6</ele>
        <time>2024-05-18T12:26:38Z</time>
      </trkpt>
      <trkpt lat="45.89602" lon="3.35218">
        <ele>289.6</ele>
        <time>2024-05-18T12:26:39Z</time>
      </trkpt>
      <trkpt lat="45.89598" lon="3.35213">
        <ele>289.6</ele>
        <time>2024-05-18T12:26:40Z</time>
      </trkpt>
      <trkpt lat="45.89593" lon="3.35208">
        <ele>289.6</ele>
        <time>2024-05-18T12:26:41Z</time>
      </trkpt>
      <trkpt lat="45.89588" lon="3.35203">
        <ele>289.6</ele>
        <time>2024-05-18T12:26:42Z</time>
      </trkpt>
      <trkpt lat="45.89583" lon="3.35198">
        <ele>289.6</ele>
        <time>2024-05-18T12:26:43Z</time>
      </trkpt>
      <trkpt lat="45.89578" lon="3.35193">
        <ele>289.6</ele>
        <time>2024-05-18T12:26:44Z</time>
      </trkpt>
      <trkpt lat="45.89573" lon="3.35188">
        <ele>289.8</ele>
        <time>2024-05-18T12:26:45Z</time>
      </trkpt>
      <trkpt lat="45.89568" lon="3.35183">
        <ele>289.8</ele>
        <time>2024-05-18T12:26:46Z</time>
      </trkpt>
      <trkpt lat="45.89563" lon="3.35178">
        <ele>289.8</ele>
        <time>2024-05-18T12:26:47Z</time>
      </trkpt>
      <trkpt lat="45.89558" lon="3.35173">
        <ele>289.8</ele>
        <time>2024-05-18T12:26:48Z</time>
      </trkpt>
      <trkpt lat="45.89553" lon="3.35168">
        <ele>289.8</ele>
        <time>2024-05-18T12:26:49Z</time>
      </trkpt>
      <trkpt lat="45.89548" lon="3.35163">
        <ele>289.8</ele>
        <time>2024-05-18T12:26:50Z</time>
      </trkpt>
      <trkpt lat="45.89543" lon="3.35159">
        <ele>289.8</ele>
        <time>2024-05-18T12:26:51Z</time>
      </trkpt>
      <trkpt lat="45.89538" lon="3.35155">
        <ele>290</ele>
        <time>2024-05-18T12:26:52Z</time>
      </trkpt>
      <trkpt lat="45.89533" lon="3.35151">
        <ele>290</ele>
        <time>2024-05-18T12:26:53Z</time>
      </trkpt>
      <trkpt lat="45.89527" lon="3.35147">
        <ele>290</ele>
        <time>2024-05-18T12:26:54Z</time>
      </trkpt>
      <trkpt lat="45.89522" lon="3.35144">
        <ele>290</ele>
        <time>2024-05-18T12:26:55Z</time>
      </trkpt>
      <trkpt lat="45.89517" lon="3.3514">
        <ele>290</ele>
        <time>2024-05-18T12:26:56Z</time>
      </trkpt>
      <trkpt lat="45.89511" lon="3.35136">
        <ele>290.2</ele>
        <time>2024-05-18T12:26:57Z</time>
      </trkpt>
      <trkpt lat="45.89506" lon="3.35133">
        <ele>290.2</ele>
        <time>2024-05-18T12:26:58Z</time>
      </trkpt>
      <trkpt lat="45.89501" lon="3.35129">
        <ele>290.2</ele>
        <time>2024-05-18T12:26:59Z</time>
      </trkpt>
      <trkpt lat="45.89495" lon="3.35125">
        <ele>290.2</ele>
        <time>2024-05-18T12:27:00Z</time>
      </trkpt>
      <trkpt lat="45.8949" lon="3.35121">
        <ele>290.4</ele>
        <time>2024-05-18T12:27:01Z</time>
      </trkpt>
      <trkpt lat="45.89484" lon="3.35117">
        <ele>290.4</ele>
        <time>2024-05-18T12:27:02Z</time>
      </trkpt>
      <trkpt lat="45.89479" lon="3.35113">
        <ele>290.4</ele>
        <time>2024-05-18T12:27:03Z</time>
      </trkpt>
      <trkpt lat="45.89474" lon="3.3511">
        <ele>290.4</ele>
        <time>2024-05-18T12:27:04Z</time>
      </trkpt>
      <trkpt lat="45.89468" lon="3.35106">
        <ele>290.6</ele>
        <time>2024-05-18T12:27:05Z</time>
      </trkpt>
      <trkpt lat="45.89463" lon="3.35102">
        <ele>290.6</ele>
        <time>2024-05-18T12:27:06Z</time>
      </trkpt>
      <trkpt lat="45.89457" lon="3.35098">
        <ele>290.6</ele>
        <time>2024-05-18T12:27:07Z</time>
      </trkpt>
      <trkpt lat="45.89452" lon="3.35094">
        <ele>290.6</ele>
        <time>2024-05-18T12:27:08Z</time>
      </trkpt>
      <trkpt lat="45.89446" lon="3.3509">
        <ele>290.6</ele>
        <time>2024-05-18T12:27:09Z</time>
      </trkpt>
      <trkpt lat="45.8944" lon="3.35086">
        <ele>290.8</ele>
        <time>2024-05-18T12:27:10Z</time>
      </trkpt>
      <trkpt lat="45.89435" lon="3.35083">
        <ele>290.8</ele>
        <time>2024-05-18T12:27:11Z</time>
      </trkpt>
      <trkpt lat="45.8943" lon="3.35079">
        <ele>290.8</ele>
        <time>2024-05-18T12:27:12Z</time>
      </trkpt>
      <trkpt lat="45.89424" lon="3.35075">
        <ele>290.8</ele>
        <time>2024-05-18T12:27:13Z</time>
      </trkpt>
      <trkpt lat="45.89418" lon="3.35071">
        <ele>290.8</ele>
        <time>2024-05-18T12:27:14Z</time>
      </trkpt>
      <trkpt lat="45.89413" lon="3.35067">
        <ele>291</ele>
        <time>2024-05-18T12:27:15Z</time>
      </trkpt>
      <trkpt lat="45.89407" lon="3.35063">
        <ele>291</ele>
        <time>2024-05-18T12:27:16Z</time>
      </trkpt>
      <trkpt lat="45.89402" lon="3.35059">
        <ele>291</ele>
        <time>2024-05-18T12:27:17Z</time>
      </trkpt>
      <trkpt lat="45.89396" lon="3.35055">
        <ele>291</ele>
        <time>2024-05-18T12:27:18Z</time>
      </trkpt>
      <trkpt lat="45.89391" lon="3.35052">
        <ele>291</ele>
        <time>2024-05-18T12:27:19Z</time>
      </trkpt>
      <trkpt lat="45.89385" lon="3.35048">
        <ele>291</ele>
        <time>2024-05-18T12:27:20Z</time>
      </trkpt>
      <trkpt lat="45.8938" lon="3.35044">
        <ele>291.2</ele>
        <time>2024-05-18T12:27:21Z</time>
      </trkpt>
      <trkpt lat="45.89374" lon="3.3504">
        <ele>291.2</ele>
        <time>2024-05-18T12:27:22Z</time>
      </trkpt>
      <trkpt lat="45.89369" lon="3.35036">
        <ele>291.2</ele>
        <time>2024-05-18T12:27:23Z</time>
      </trkpt>
      <trkpt lat="45.89363" lon="3.35032">
        <ele>291.2</ele>
        <time>2024-05-18T12:27:24Z</time>
      </trkpt>
      <trkpt lat="45.89358" lon="3.35028">
        <ele>291.4</ele>
        <time>2024-05-18T12:27:25Z</time>
      </trkpt>
      <trkpt lat="45.89352" lon="3.35025">
        <ele>291.4</ele>
        <time>2024-05-18T12:27:26Z</time>
      </trkpt>
      <trkpt lat="45.89347" lon="3.35021">
        <ele>291.4</ele>
        <time>2024-05-18T12:27:27Z</time>
      </trkpt>
      <trkpt lat="45.89342" lon="3.35017">
        <ele>291.4</ele>
        <time>2024-05-18T12:27:28Z</time>
      </trkpt>
      <trkpt lat="45.89336" lon="3.35014">
        <ele>291.6</ele>
        <time>2024-05-18T12:27:29Z</time>
      </trkpt>
      <trkpt lat="45.89331" lon="3.3501">
        <ele>291.6</ele>
        <time>2024-05-18T12:27:30Z</time>
      </trkpt>
      <trkpt lat="45.89326" lon="3.35006">
        <ele>291.6</ele>
        <time>2024-05-18T12:27:31Z</time>
      </trkpt>
      <trkpt lat="45.89321" lon="3.35003">
        <ele>291.6</ele>
        <time>2024-05-18T12:27:32Z</time>
      </trkpt>
      <trkpt lat="45.89316" lon="3.34999">
        <ele>291.8</ele>
        <time>2024-05-18T12:27:33Z</time>
      </trkpt>
      <trkpt lat="45.89311" lon="3.34996">
        <ele>291.8</ele>
        <time>2024-05-18T12:27:34Z</time>
      </trkpt>
      <trkpt lat="45.89305" lon="3.34992">
        <ele>291.8</ele>
        <time>2024-05-18T12:27:35Z</time>
      </trkpt>
      <trkpt lat="45.893" lon="3.3499">
        <ele>291.8</ele>
        <time>2024-05-18T12:27:36Z</time>
      </trkpt>
      <trkpt lat="45.89295" lon="3.34988">
        <ele>291.8</ele>
        <time>2024-05-18T12:27:37Z</time>
      </trkpt>
      <trkpt lat="45.89289" lon="3.34986">
        <ele>291.8</ele>
        <time>2024-05-18T12:27:38Z</time>
      </trkpt>
      <trkpt lat="45.89284" lon="3.34984">
        <ele>291.8</ele>
        <time>2024-05-18T12:27:39Z</time>
      </trkpt>
      <trkpt lat="45.89278" lon="3.34985">
        <ele>292</ele>
        <time>2024-05-18T12:27:40Z</time>
      </trkpt>
      <trkpt lat="45.89273" lon="3.34987">
        <ele>292</ele>
        <time>2024-05-18T12:27:41Z</time>
      </trkpt>
      <trkpt lat="45.89268" lon="3.34988">
        <ele>292</ele>
        <time>2024-05-18T12:27:42Z</time>
      </trkpt>
      <trkpt lat="45.89263" lon="3.34989">
        <ele>292</ele>
        <time>2024-05-18T12:27:43Z</time>
      </trkpt>
      <trkpt lat="45.89257" lon="3.3499">
        <ele>292.2</ele>
        <time>2024-05-18T12:27:44Z</time>
      </trkpt>
      <trkpt lat="45.89252" lon="3.34991">
        <ele>292.2</ele>
        <time>2024-05-18T12:27:45Z</time>
      </trkpt>
      <trkpt lat="45.89247" lon="3.3499">
        <ele>292.4</ele>
        <time>2024-05-18T12:27:46Z</time>
      </trkpt>
      <trkpt lat="45.89242" lon="3.3499">
        <ele>292.4</ele>
        <time>2024-05-18T12:27:47Z</time>
      </trkpt>
      <trkpt lat="45.89236" lon="3.3499">
        <ele>292.4</ele>
        <time>2024-05-18T12:27:48Z</time>
      </trkpt>
      <trkpt lat="45.89231" lon="3.3499">
        <ele>292.6</ele>
        <time>2024-05-18T12:27:49Z</time>
      </trkpt>
      <trkpt lat="45.89226" lon="3.34989">
        <ele>292.6</ele>
        <time>2024-05-18T12:27:50Z</time>
      </trkpt>
      <trkpt lat="45.8922" lon="3.34989">
        <ele>292.6</ele>
        <time>2024-05-18T12:27:51Z</time>
      </trkpt>
      <trkpt lat="45.89213" lon="3.34989">
        <ele>292.8</ele>
        <time>2024-05-18T12:27:52Z</time>
      </trkpt>
      <trkpt lat="45.89207" lon="3.34987">
        <ele>292.8</ele>
        <time>2024-05-18T12:27:53Z</time>
      </trkpt>
      <trkpt lat="45.89202" lon="3.34985">
        <ele>292.8</ele>
        <time>2024-05-18T12:27:54Z</time>
      </trkpt>
      <trkpt lat="45.89196" lon="3.34983">
        <ele>293</ele>
        <time>2024-05-18T12:27:55Z</time>
      </trkpt>
      <trkpt lat="45.89191" lon="3.34981">
        <ele>293</ele>
        <time>2024-05-18T12:27:56Z</time>
      </trkpt>
      <trkpt lat="45.89185" lon="3.34979">
        <ele>293</ele>
        <time>2024-05-18T12:27:57Z</time>
      </trkpt>
      <trkpt lat="45.8918" lon="3.34976">
        <ele>293.2</ele>
        <time>2024-05-18T12:27:58Z</time>
      </trkpt>
      <trkpt lat="45.89174" lon="3.34974">
        <ele>293.2</ele>
        <time>2024-05-18T12:27:59Z</time>
      </trkpt>
      <trkpt lat="45.89169" lon="3.34972">
        <ele>293.4</ele>
        <time>2024-05-18T12:28:00Z</time>
      </trkpt>
      <trkpt lat="45.89163" lon="3.3497">
        <ele>293.4</ele>
        <time>2024-05-18T12:28:01Z</time>
      </trkpt>
      <trkpt lat="45.89158" lon="3.34968">
        <ele>293.4</ele>
        <time>2024-05-18T12:28:02Z</time>
      </trkpt>
      <trkpt lat="45.89152" lon="3.34965">
        <ele>293.6</ele>
        <time>2024-05-18T12:28:03Z</time>
      </trkpt>
      <trkpt lat="45.89147" lon="3.34963">
        <ele>293.6</ele>
        <time>2024-05-18T12:28:04Z</time>
      </trkpt>
      <trkpt lat="45.89141" lon="3.34961">
        <ele>293.8</ele>
        <time>2024-05-18T12:28:05Z</time>
      </trkpt>
      <trkpt lat="45.89136" lon="3.34959">
        <ele>293.8</ele>
        <time>2024-05-18T12:28:06Z</time>
      </trkpt>
      <trkpt lat="45.8913" lon="3.34956">
        <ele>294</ele>
        <time>2024-05-18T12:28:07Z</time>
      </trkpt>
      <trkpt lat="45.89125" lon="3.34954">
        <ele>294</ele>
        <time>2024-05-18T12:28:08Z</time>
      </trkpt>
      <trkpt lat="45.89119" lon="3.34952">
        <ele>294</ele>
        <time>2024-05-18T12:28:09Z</time>
      </trkpt>
      <trkpt lat="45.89114" lon="3.3495">
        <ele>294.2</ele>
        <time>2024-05-18T12:28:10Z</time>
      </trkpt>
      <trkpt lat="45.89108" lon="3.34948">
        <ele>294.2</ele>
        <time>2024-05-18T12:28:11Z</time>
      </trkpt>
      <trkpt lat="45.89103" lon="3.34946">
        <ele>294.2</ele>
        <time>2024-05-18T12:28:12Z</time>
      </trkpt>
      <trkpt lat="45.89097" lon="3.34945">
        <ele>294.4</ele>
        <time>2024-05-18T12:28:13Z</time>
      </trkpt>
      <trkpt lat="45.89092" lon="3.34944">
        <ele>294.4</ele>
        <time>2024-05-18T12:28:14Z</time>
      </trkpt>
      <trkpt lat="45.89086" lon="3.34943">
        <ele>294.4</ele>
        <time>2024-05-18T12:28:15Z</time>
      </trkpt>
      <trkpt lat="45.89081" lon="3.34942">
        <ele>294.6</ele>
        <time>2024-05-18T12:28:16Z</time>
      </trkpt>
      <trkpt lat="45.89075" lon="3.3494">
        <ele>294.6</ele>
        <time>2024-05-18T12:28:17Z</time>
      </trkpt>
      <trkpt lat="45.89069" lon="3.34939">
        <ele>294.6</ele>
        <time>2024-05-18T12:28:18Z</time>
      </trkpt>
      <trkpt lat="45.89063" lon="3.34938">
        <ele>294.8</ele>
        <time>2024-05-18T12:28:19Z</time>
      </trkpt>
      <trkpt lat="45.89058" lon="3.34937">
        <ele>294.8</ele>
        <time>2024-05-18T12:28:20Z</time>
      </trkpt>
      <trkpt lat="45.89053" lon="3.34936">
        <ele>294.8</ele>
        <time>2024-05-18T12:28:21Z</time>
      </trkpt>
      <trkpt lat="45.89047" lon="3.34935">
        <ele>295</ele>
        <time>2024-05-18T12:28:22Z</time>
      </trkpt>
      <trkpt lat="45.89041" lon="3.34933">
        <ele>295</ele>
        <time>2024-05-18T12:28:23Z</time>
      </trkpt>
      <trkpt lat="45.89035" lon="3.3493">
        <ele>295</ele>
        <time>2024-05-18T12:28:24Z</time>
      </trkpt>
      <trkpt lat="45.89029" lon="3.34926">
        <ele>295.2</ele>
        <time>2024-05-18T12:28:25Z</time>
      </trkpt>
      <trkpt lat="45.89023" lon="3.34923">
        <ele>295.2</ele>
        <time>2024-05-18T12:28:26Z</time>
      </trkpt>
      <trkpt lat="45.89017" lon="3.3492">
        <ele>295.2</ele>
        <time>2024-05-18T12:28:27Z</time>
      </trkpt>
      <trkpt lat="45.89011" lon="3.34916">
        <ele>295.2</ele>
        <time>2024-05-18T12:28:28Z</time>
      </trkpt>
      <trkpt lat="45.89005" lon="3.34913">
        <ele>295.2</ele>
        <time>2024-05-18T12:28:29Z</time>
      </trkpt>
      <trkpt lat="45.88999" lon="3.3491">
        <ele>295.4</ele>
        <time>2024-05-18T12:28:30Z</time>
      </trkpt>
      <trkpt lat="45.88992" lon="3.34906">
        <ele>295.4</ele>
        <time>2024-05-18T12:28:31Z</time>
      </trkpt>
      <trkpt lat="45.88986" lon="3.34903">
        <ele>295.4</ele>
        <time>2024-05-18T12:28:32Z</time>
      </trkpt>
      <trkpt lat="45.88979" lon="3.34899">
        <ele>295.4</ele>
        <time>2024-05-18T12:28:33Z</time>
      </trkpt>
      <trkpt lat="45.88973" lon="3.34895">
        <ele>295.4</ele>
        <time>2024-05-18T12:28:34Z</time>
      </trkpt>
      <trkpt lat="45.88966" lon="3.34892">
        <ele>295.4</ele>
        <time>2024-05-18T12:28:35Z</time>
      </trkpt>
      <trkpt lat="45.8896" lon="3.34888">
        <ele>295.4</ele>
        <time>2024-05-18T12:28:36Z</time>
      </trkpt>
      <trkpt lat="45.88953" lon="3.34885">
        <ele>295.4</ele>
        <time>2024-05-18T12:28:37Z</time>
      </trkpt>
      <trkpt lat="45.88945" lon="3.34885">
        <ele>295.4</ele>
        <time>2024-05-18T12:28:38Z</time>
      </trkpt>
      <trkpt lat="45.88938" lon="3.34884">
        <ele>295.4</ele>
        <time>2024-05-18T12:28:39Z</time>
      </trkpt>
      <trkpt lat="45.8893" lon="3.34884">
        <ele>295.2</ele>
        <time>2024-05-18T12:28:40Z</time>
      </trkpt>
      <trkpt lat="45.88922" lon="3.34884">
        <ele>295.2</ele>
        <time>2024-05-18T12:28:41Z</time>
      </trkpt>
      <trkpt lat="45.88914" lon="3.34886">
        <ele>295.2</ele>
        <time>2024-05-18T12:28:42Z</time>
      </trkpt>
      <trkpt lat="45.88906" lon="3.34888">
        <ele>295.2</ele>
        <time>2024-05-18T12:28:43Z</time>
      </trkpt>
      <trkpt lat="45.88898" lon="3.34891">
        <ele>295.4</ele>
        <time>2024-05-18T12:28:44Z</time>
      </trkpt>
      <trkpt lat="45.88889" lon="3.34893">
        <ele>295.2</ele>
        <time>2024-05-18T12:28:45Z</time>
      </trkpt>
      <trkpt lat="45.8888" lon="3.34896">
        <ele>295</ele>
        <time>2024-05-18T12:28:46Z</time>
      </trkpt>
      <trkpt lat="45.88871" lon="3.34898">
        <ele>294.6</ele>
        <time>2024-05-18T12:28:47Z</time>
      </trkpt>
      <trkpt lat="45.88862" lon="3.34901">
        <ele>294.8</ele>
        <time>2024-05-18T12:28:48Z</time>
      </trkpt>
      <trkpt lat="45.88854" lon="3.34904">
        <ele>294.8</ele>
        <time>2024-05-18T12:28:49Z</time>
      </trkpt>
      <trkpt lat="45.88846" lon="3.34909">
        <ele>294.8</ele>
        <time>2024-05-18T12:28:50Z</time>
      </trkpt>
      <trkpt lat="45.88838" lon="3.34914">
        <ele>294.6</ele>
        <time>2024-05-18T12:28:51Z</time>
      </trkpt>
      <trkpt lat="45.88831" lon="3.34919">
        <ele>294.6</ele>
        <time>2024-05-18T12:28:52Z</time>
      </trkpt>
      <trkpt lat="45.88823" lon="3.34923">
        <ele>294.6</ele>
        <time>2024-05-18T12:28:53Z</time>
      </trkpt>
      <trkpt lat="45.88816" lon="3.34928">
        <ele>294.4</ele>
        <time>2024-05-18T12:28:54Z</time>
      </trkpt>
      <trkpt lat="45.88809" lon="3.34932">
        <ele>294.4</ele>
        <time>2024-05-18T12:28:55Z</time>
      </trkpt>
      <trkpt lat="45.88802" lon="3.34937">
        <ele>294.4</ele>
        <time>2024-05-18T12:28:56Z</time>
      </trkpt>
      <trkpt lat="45.88795" lon="3.34941">
        <ele>294.4</ele>
        <time>2024-05-18T12:28:57Z</time>
      </trkpt>
      <trkpt lat="45.88788" lon="3.34944">
        <ele>294.2</ele>
        <time>2024-05-18T12:28:58Z</time>
      </trkpt>
      <trkpt lat="45.88781" lon="3.34947">
        <ele>294.2</ele>
        <time>2024-05-18T12:28:59Z</time>
      </trkpt>
      <trkpt lat="45.88773" lon="3.3495">
        <ele>294.2</ele>
        <time>2024-05-18T12:29:00Z</time>
      </trkpt>
      <trkpt lat="45.88767" lon="3.34953">
        <ele>294.2</ele>
        <time>2024-05-18T12:29:01Z</time>
      </trkpt>
      <trkpt lat="45.8876" lon="3.34956">
        <ele>294.2</ele>
        <time>2024-05-18T12:29:02Z</time>
      </trkpt>
      <trkpt lat="45.88753" lon="3.34959">
        <ele>294.2</ele>
        <time>2024-05-18T12:29:03Z</time>
      </trkpt>
      <trkpt lat="45.88746" lon="3.34962">
        <ele>294.2</ele>
        <time>2024-05-18T12:29:04Z</time>
      </trkpt>
      <trkpt lat="45.88739" lon="3.34965">
        <ele>294</ele>
        <time>2024-05-18T12:29:05Z</time>
      </trkpt>
      <trkpt lat="45.88732" lon="3.34969">
        <ele>294</ele>
        <time>2024-05-18T12:29:06Z</time>
      </trkpt>
      <trkpt lat="45.88725" lon="3.34972">
        <ele>294</ele>
        <time>2024-05-18T12:29:07Z</time>
      </trkpt>
      <trkpt lat="45.88718" lon="3.34974">
        <ele>294</ele>
        <time>2024-05-18T12:29:08Z</time>
      </trkpt>
      <trkpt lat="45.88711" lon="3.34977">
        <ele>294</ele>
        <time>2024-05-18T12:29:09Z</time>
      </trkpt>
      <trkpt lat="45.88705" lon="3.3498">
        <ele>293.8</ele>
        <time>2024-05-18T12:29:10Z</time>
      </trkpt>
      <trkpt lat="45.88699" lon="3.34983">
        <ele>293.8</ele>
        <time>2024-05-18T12:29:11Z</time>
      </trkpt>
      <trkpt lat="45.88692" lon="3.34986">
        <ele>293.8</ele>
        <time>2024-05-18T12:29:12Z</time>
      </trkpt>
      <trkpt lat="45.88685" lon="3.34989">
        <ele>293.8</ele>
        <time>2024-05-18T12:29:13Z</time>
      </trkpt>
      <trkpt lat="45.88679" lon="3.34991">
        <ele>293.6</ele>
        <time>2024-05-18T12:29:14Z</time>
      </trkpt>
      <trkpt lat="45.88673" lon="3.34994">
        <ele>293.6</ele>
        <time>2024-05-18T12:29:15Z</time>
      </trkpt>
      <trkpt lat="45.88667" lon="3.34997">
        <ele>293.6</ele>
        <time>2024-05-18T12:29:16Z</time>
      </trkpt>
      <trkpt lat="45.8866" lon="3.34999">
        <ele>293.6</ele>
        <time>2024-05-18T12:29:17Z</time>
      </trkpt>
      <trkpt lat="45.88653" lon="3.35001">
        <ele>293.4</ele>
        <time>2024-05-18T12:29:18Z</time>
      </trkpt>
      <trkpt lat="45.88647" lon="3.35002">
        <ele>293.4</ele>
        <time>2024-05-18T12:29:19Z</time>
      </trkpt>
      <trkpt lat="45.8864" lon="3.35004">
        <ele>293.4</ele>
        <time>2024-05-18T12:29:20Z</time>
      </trkpt>
      <trkpt lat="45.88634" lon="3.35005">
        <ele>293.2</ele>
        <time>2024-05-18T12:29:21Z</time>
      </trkpt>
      <trkpt lat="45.88627" lon="3.35007">
        <ele>293.2</ele>
        <time>2024-05-18T12:29:22Z</time>
      </trkpt>
      <trkpt lat="45.8862" lon="3.35008">
        <ele>293.2</ele>
        <time>2024-05-18T12:29:23Z</time>
      </trkpt>
      <trkpt lat="45.88614" lon="3.35009">
        <ele>293.2</ele>
        <time>2024-05-18T12:29:24Z</time>
      </trkpt>
      <trkpt lat="45.88608" lon="3.35011">
        <ele>293</ele>
        <time>2024-05-18T12:29:25Z</time>
      </trkpt>
      <trkpt lat="45.88601" lon="3.35012">
        <ele>293</ele>
        <time>2024-05-18T12:29:26Z</time>
      </trkpt>
      <trkpt lat="45.88595" lon="3.35013">
        <ele>293</ele>
        <time>2024-05-18T12:29:27Z</time>
      </trkpt>
      <trkpt lat="45.88589" lon="3.35015">
        <ele>293</ele>
        <time>2024-05-18T12:29:28Z</time>
      </trkpt>
      <trkpt lat="45.88583" lon="3.35016">
        <ele>293</ele>
        <time>2024-05-18T12:29:29Z</time>
      </trkpt>
      <trkpt lat="45.88578" lon="3.35017">
        <ele>293</ele>
        <time>2024-05-18T12:29:30Z</time>
      </trkpt>
      <trkpt lat="45.88572" lon="3.35018">
        <ele>293</ele>
        <time>2024-05-18T12:29:31Z</time>
      </trkpt>
      <trkpt lat="45.88566" lon="3.3502">
        <ele>293</ele>
        <time>2024-05-18T12:29:32Z</time>
      </trkpt>
      <trkpt lat="45.88561" lon="3.35021">
        <ele>293</ele>
        <time>2024-05-18T12:29:33Z</time>
      </trkpt>
      <trkpt lat="45.88555" lon="3.35022">
        <ele>293</ele>
        <time>2024-05-18T12:29:34Z</time>
      </trkpt>
      <trkpt lat="45.88549" lon="3.35023">
        <ele>293.2</ele>
        <time>2024-05-18T12:29:35Z</time>
      </trkpt>
      <trkpt lat="45.88544" lon="3.35024">
        <ele>293.2</ele>
        <time>2024-05-18T12:29:36Z</time>
      </trkpt>
      <trkpt lat="45.88539" lon="3.35025">
        <ele>293.2</ele>
        <time>2024-05-18T12:29:37Z</time>
      </trkpt>
      <trkpt lat="45.88533" lon="3.35027">
        <ele>293.2</ele>
        <time>2024-05-18T12:29:38Z</time>
      </trkpt>
      <trkpt lat="45.88528" lon="3.35028">
        <ele>292.8</ele>
        <time>2024-05-18T12:29:39Z</time>
      </trkpt>
      <trkpt lat="45.88522" lon="3.35029">
        <ele>293</ele>
        <time>2024-05-18T12:29:40Z</time>
      </trkpt>
      <trkpt lat="45.88517" lon="3.3503">
        <ele>293.2</ele>
        <time>2024-05-18T12:29:41Z</time>
      </trkpt>
      <trkpt lat="45.88511" lon="3.35031">
        <ele>293.4</ele>
        <time>2024-05-18T12:29:42Z</time>
      </trkpt>
      <trkpt lat="45.88505" lon="3.35032">
        <ele>293.8</ele>
        <time>2024-05-18T12:29:43Z</time>
      </trkpt>
      <trkpt lat="45.885" lon="3.35034">
        <ele>293.4</ele>
        <time>2024-05-18T12:29:44Z</time>
      </trkpt>
      <trkpt lat="45.88494" lon="3.35033">
        <ele>293.4</ele>
        <time>2024-05-18T12:29:45Z</time>
      </trkpt>
      <trkpt lat="45.88488" lon="3.35032">
        <ele>293.6</ele>
        <time>2024-05-18T12:29:46Z</time>
      </trkpt>
      <trkpt lat="45.88482" lon="3.35031">
        <ele>293.6</ele>
        <time>2024-05-18T12:29:47Z</time>
      </trkpt>
      <trkpt lat="45.88477" lon="3.3503">
        <ele>293.6</ele>
        <time>2024-05-18T12:29:48Z</time>
      </trkpt>
      <trkpt lat="45.88471" lon="3.3503">
        <ele>293.6</ele>
        <time>2024-05-18T12:29:49Z</time>
      </trkpt>
      <trkpt lat="45.88465" lon="3.35029">
        <ele>293.6</ele>
        <time>2024-05-18T12:29:50Z</time>
      </trkpt>
      <trkpt lat="45.88459" lon="3.35028">
        <ele>293.6</ele>
        <time>2024-05-18T12:29:51Z</time>
      </trkpt>
      <trkpt lat="45.88453" lon="3.35027">
        <ele>293.6</ele>
        <time>2024-05-18T12:29:52Z</time>
      </trkpt>
      <trkpt lat="45.88447" lon="3.35026">
        <ele>293.6</ele>
        <time>2024-05-18T12:29:53Z</time>
      </trkpt>
      <trkpt lat="45.88441" lon="3.35025">
        <ele>293.8</ele>
        <time>2024-05-18T12:29:54Z</time>
      </trkpt>
      <trkpt lat="45.88436" lon="3.35025">
        <ele>293.8</ele>
        <time>2024-05-18T12:29:55Z</time>
      </trkpt>
      <trkpt lat="45.8843" lon="3.35024">
        <ele>293.8</ele>
        <time>2024-05-18T12:29:56Z</time>
      </trkpt>
      <trkpt lat="45.88424" lon="3.35023">
        <ele>293.8</ele>
        <time>2024-05-18T12:29:57Z</time>
      </trkpt>
      <trkpt lat="45.88418" lon="3.35022">
        <ele>293.8</ele>
        <time>2024-05-18T12:29:58Z</time>
      </trkpt>
      <trkpt lat="45.88412" lon="3.35021">
        <ele>293.8</ele>
        <time>2024-05-18T12:29:59Z</time>
      </trkpt>
      <trkpt lat="45.88405" lon="3.3502">
        <ele>294</ele>
        <time>2024-05-18T12:30:00Z</time>
      </trkpt>
      <trkpt lat="45.88399" lon="3.35019">
        <ele>294</ele>
        <time>2024-05-18T12:30:01Z</time>
      </trkpt>
      <trkpt lat="45.88393" lon="3.35018">
        <ele>294</ele>
        <time>2024-05-18T12:30:02Z</time>
      </trkpt>
      <trkpt lat="45.88387" lon="3.35017">
        <ele>294.2</ele>
        <time>2024-05-18T12:30:03Z</time>
      </trkpt>
      <trkpt lat="45.88381" lon="3.35015">
        <ele>294.2</ele>
        <time>2024-05-18T12:30:04Z</time>
      </trkpt>
      <trkpt lat="45.88375" lon="3.35014">
        <ele>294.2</ele>
        <time>2024-05-18T12:30:05Z</time>
      </trkpt>
      <trkpt lat="45.88369" lon="3.35012">
        <ele>294.2</ele>
        <time>2024-05-18T12:30:06Z</time>
      </trkpt>
      <trkpt lat="45.88363" lon="3.35009">
        <ele>294.2</ele>
        <time>2024-05-18T12:30:07Z</time>
      </trkpt>
      <trkpt lat="45.88357" lon="3.35006">
        <ele>294.4</ele>
        <time>2024-05-18T12:30:08Z</time>
      </trkpt>
      <trkpt lat="45.88351" lon="3.35004">
        <ele>294.4</ele>
        <time>2024-05-18T12:30:09Z</time>
      </trkpt>
      <trkpt lat="45.88344" lon="3.35001">
        <ele>294.4</ele>
        <time>2024-05-18T12:30:10Z</time>
      </trkpt>
      <trkpt lat="45.88338" lon="3.34998">
        <ele>294.4</ele>
        <time>2024-05-18T12:30:11Z</time>
      </trkpt>
      <trkpt lat="45.88332" lon="3.34996">
        <ele>294.4</ele>
        <time>2024-05-18T12:30:12Z</time>
      </trkpt>
      <trkpt lat="45.88326" lon="3.34993">
        <ele>294.4</ele>
        <time>2024-05-18T12:30:13Z</time>
      </trkpt>
      <trkpt lat="45.8832" lon="3.34991">
        <ele>294.4</ele>
        <time>2024-05-18T12:30:14Z</time>
      </trkpt>
      <trkpt lat="45.88314" lon="3.34988">
        <ele>294.4</ele>
        <time>2024-05-18T12:30:15Z</time>
      </trkpt>
      <trkpt lat="45.88308" lon="3.34986">
        <ele>294.4</ele>
        <time>2024-05-18T12:30:16Z</time>
      </trkpt>
      <trkpt lat="45.88302" lon="3.34983">
        <ele>294.4</ele>
        <time>2024-05-18T12:30:17Z</time>
      </trkpt>
      <trkpt lat="45.88296" lon="3.3498">
        <ele>294.6</ele>
        <time>2024-05-18T12:30:18Z</time>
      </trkpt>
      <trkpt lat="45.8829" lon="3.34977">
        <ele>294.6</ele>
        <time>2024-05-18T12:30:19Z</time>
      </trkpt>
      <trkpt lat="45.88284" lon="3.34974">
        <ele>294.6</ele>
        <time>2024-05-18T12:30:20Z</time>
      </trkpt>
      <trkpt lat="45.88278" lon="3.34971">
        <ele>294.6</ele>
        <time>2024-05-18T12:30:21Z</time>
      </trkpt>
      <trkpt lat="45.88271" lon="3.34968">
        <ele>294.6</ele>
        <time>2024-05-18T12:30:22Z</time>
      </trkpt>
      <trkpt lat="45.88265" lon="3.34965">
        <ele>294.6</ele>
        <time>2024-05-18T12:30:23Z</time>
      </trkpt>
      <trkpt lat="45.88259" lon="3.3496">
        <ele>294.6</ele>
        <time>2024-05-18T12:30:24Z</time>
      </trkpt>
      <trkpt lat="45.88253" lon="3.34955">
        <ele>294.6</ele>
        <time>2024-05-18T12:30:25Z</time>
      </trkpt>
      <trkpt lat="45.88247" lon="3.3495">
        <ele>294.8</ele>
        <time>2024-05-18T12:30:26Z</time>
      </trkpt>
      <trkpt lat="45.88242" lon="3.34945">
        <ele>294.8</ele>
        <time>2024-05-18T12:30:27Z</time>
      </trkpt>
      <trkpt lat="45.88236" lon="3.3494">
        <ele>294.8</ele>
        <time>2024-05-18T12:30:28Z</time>
      </trkpt>
      <trkpt lat="45.88231" lon="3.34934">
        <ele>294.8</ele>
        <time>2024-05-18T12:30:29Z</time>
      </trkpt>
      <trkpt lat="45.88226" lon="3.34929">
        <ele>294.8</ele>
        <time>2024-05-18T12:30:30Z</time>
      </trkpt>
      <trkpt lat="45.8822" lon="3.34923">
        <ele>294.8</ele>
        <time>2024-05-18T12:30:31Z</time>
      </trkpt>
      <trkpt lat="45.88215" lon="3.34918">
        <ele>294.8</ele>
        <time>2024-05-18T12:30:32Z</time>
      </trkpt>
      <trkpt lat="45.8821" lon="3.34913">
        <ele>294.8</ele>
        <time>2024-05-18T12:30:33Z</time>
      </trkpt>
      <trkpt lat="45.88205" lon="3.34907">
        <ele>294.8</ele>
        <time>2024-05-18T12:30:34Z</time>
      </trkpt>
      <trkpt lat="45.88199" lon="3.34902">
        <ele>294.8</ele>
        <time>2024-05-18T12:30:35Z</time>
      </trkpt>
      <trkpt lat="45.88194" lon="3.34896">
        <ele>294.8</ele>
        <time>2024-05-18T12:30:36Z</time>
      </trkpt>
      <trkpt lat="45.88189" lon="3.34891">
        <ele>294.8</ele>
        <time>2024-05-18T12:30:37Z</time>
      </trkpt>
      <trkpt lat="45.88183" lon="3.34885">
        <ele>294.8</ele>
        <time>2024-05-18T12:30:38Z</time>
      </trkpt>
      <trkpt lat="45.88178" lon="3.34879">
        <ele>295</ele>
        <time>2024-05-18T12:30:39Z</time>
      </trkpt>
      <trkpt lat="45.88172" lon="3.34874">
        <ele>295</ele>
        <time>2024-05-18T12:30:40Z</time>
      </trkpt>
      <trkpt lat="45.88167" lon="3.34868">
        <ele>295</ele>
        <time>2024-05-18T12:30:41Z</time>
      </trkpt>
      <trkpt lat="45.88162" lon="3.34863">
        <ele>295</ele>
        <time>2024-05-18T12:30:42Z</time>
      </trkpt>
      <trkpt lat="45.88156" lon="3.3486">
        <ele>295</ele>
        <time>2024-05-18T12:30:43Z</time>
      </trkpt>
      <trkpt lat="45.8815" lon="3.34857">
        <ele>295.2</ele>
        <time>2024-05-18T12:30:44Z</time>
      </trkpt>
      <trkpt lat="45.88145" lon="3.34854">
        <ele>295.2</ele>
        <time>2024-05-18T12:30:45Z</time>
      </trkpt>
      <trkpt lat="45.8814" lon="3.34851">
        <ele>295.2</ele>
        <time>2024-05-18T12:30:46Z</time>
      </trkpt>
      <trkpt lat="45.88134" lon="3.3485">
        <ele>295.2</ele>
        <time>2024-05-18T12:30:47Z</time>
      </trkpt>
      <trkpt lat="45.88128" lon="3.34849">
        <ele>295.4</ele>
        <time>2024-05-18T12:30:48Z</time>
      </trkpt>
      <trkpt lat="45.88122" lon="3.34848">
        <ele>295.4</ele>
        <time>2024-05-18T12:30:49Z</time>
      </trkpt>
      <trkpt lat="45.88116" lon="3.34847">
        <ele>295.4</ele>
        <time>2024-05-18T12:30:50Z</time>
      </trkpt>
      <trkpt lat="45.88111" lon="3.34846">
        <ele>295.4</ele>
        <time>2024-05-18T12:30:51Z</time>
      </trkpt>
      <trkpt lat="45.88105" lon="3.34845">
        <ele>295.6</ele>
        <time>2024-05-18T12:30:52Z</time>
      </trkpt>
      <trkpt lat="45.88099" lon="3.34844">
        <ele>295.6</ele>
        <time>2024-05-18T12:30:53Z</time>
      </trkpt>
      <trkpt lat="45.88094" lon="3.34843">
        <ele>295.6</ele>
        <time>2024-05-18T12:30:54Z</time>
      </trkpt>
      <trkpt lat="45.88088" lon="3.34842">
        <ele>295.6</ele>
        <time>2024-05-18T12:30:55Z</time>
      </trkpt>
      <trkpt lat="45.88083" lon="3.34841">
        <ele>295.8</ele>
        <time>2024-05-18T12:30:56Z</time>
      </trkpt>
      <trkpt lat="45.88077" lon="3.34839">
        <ele>295.8</ele>
        <time>2024-05-18T12:30:57Z</time>
      </trkpt>
      <trkpt lat="45.88072" lon="3.34838">
        <ele>295.8</ele>
        <time>2024-05-18T12:30:58Z</time>
      </trkpt>
      <trkpt lat="45.88066" lon="3.34837">
        <ele>296</ele>
        <time>2024-05-18T12:30:59Z</time>
      </trkpt>
      <trkpt lat="45.8806" lon="3.34836">
        <ele>296</ele>
        <time>2024-05-18T12:31:00Z</time>
      </trkpt>
      <trkpt lat="45.88054" lon="3.34835">
        <ele>296</ele>
        <time>2024-05-18T12:31:01Z</time>
      </trkpt>
      <trkpt lat="45.88048" lon="3.34834">
        <ele>296.2</ele>
        <time>2024-05-18T12:31:02Z</time>
      </trkpt>
      <trkpt lat="45.88043" lon="3.34833">
        <ele>296.2</ele>
        <time>2024-05-18T12:31:03Z</time>
      </trkpt>
      <trkpt lat="45.88037" lon="3.34832">
        <ele>296.2</ele>
        <time>2024-05-18T12:31:04Z</time>
      </trkpt>
      <trkpt lat="45.88031" lon="3.34831">
        <ele>296.2</ele>
        <time>2024-05-18T12:31:05Z</time>
      </trkpt>
      <trkpt lat="45.88026" lon="3.3483">
        <ele>296.4</ele>
        <time>2024-05-18T12:31:06Z</time>
      </trkpt>
      <trkpt lat="45.8802" lon="3.34827">
        <ele>296.4</ele>
        <time>2024-05-18T12:31:07Z</time>
      </trkpt>
      <trkpt lat="45.88015" lon="3.34824">
        <ele>296.4</ele>
        <time>2024-05-18T12:31:08Z</time>
      </trkpt>
      <trkpt lat="45.88009" lon="3.34822">
        <ele>296.6</ele>
        <time>2024-05-18T12:31:09Z</time>
      </trkpt>
      <trkpt lat="45.88003" lon="3.34819">
        <ele>296.6</ele>
        <time>2024-05-18T12:31:10Z</time>
      </trkpt>
      <trkpt lat="45.87998" lon="3.34816">
        <ele>296.6</ele>
        <time>2024-05-18T12:31:11Z</time>
      </trkpt>
      <trkpt lat="45.87992" lon="3.34813">
        <ele>296.6</ele>
        <time>2024-05-18T12:31:12Z</time>
      </trkpt>
      <trkpt lat="45.87986" lon="3.34811">
        <ele>296.8</ele>
        <time>2024-05-18T12:31:13Z</time>
      </trkpt>
      <trkpt lat="45.87981" lon="3.34808">
        <ele>296.8</ele>
        <time>2024-05-18T12:31:14Z</time>
      </trkpt>
      <trkpt lat="45.87976" lon="3.34805">
        <ele>297</ele>
        <time>2024-05-18T12:31:15Z</time>
      </trkpt>
      <trkpt lat="45.8797" lon="3.34803">
        <ele>297</ele>
        <time>2024-05-18T12:31:16Z</time>
      </trkpt>
      <trkpt lat="45.87964" lon="3.348">
        <ele>297</ele>
        <time>2024-05-18T12:31:17Z</time>
      </trkpt>
      <trkpt lat="45.87959" lon="3.34797">
        <ele>297</ele>
        <time>2024-05-18T12:31:18Z</time>
      </trkpt>
      <trkpt lat="45.87953" lon="3.34794">
        <ele>297.2</ele>
        <time>2024-05-18T12:31:19Z</time>
      </trkpt>
      <trkpt lat="45.87948" lon="3.3479">
        <ele>297.2</ele>
        <time>2024-05-18T12:31:20Z</time>
      </trkpt>
      <trkpt lat="45.87943" lon="3.34785">
        <ele>297.2</ele>
        <time>2024-05-18T12:31:21Z</time>
      </trkpt>
      <trkpt lat="45.87938" lon="3.34779">
        <ele>297.2</ele>
        <time>2024-05-18T12:31:22Z</time>
      </trkpt>
      <trkpt lat="45.87934" lon="3.34774">
        <ele>297.4</ele>
        <time>2024-05-18T12:31:23Z</time>
      </trkpt>
      <trkpt lat="45.87929" lon="3.34769">
        <ele>297.4</ele>
        <time>2024-05-18T12:31:24Z</time>
      </trkpt>
      <trkpt lat="45.87924" lon="3.34764">
        <ele>297.4</ele>
        <time>2024-05-18T12:31:25Z</time>
      </trkpt>
      <trkpt lat="45.87919" lon="3.34758">
        <ele>297.4</ele>
        <time>2024-05-18T12:31:26Z</time>
      </trkpt>
      <trkpt lat="45.87915" lon="3.34753">
        <ele>297.6</ele>
        <time>2024-05-18T12:31:27Z</time>
      </trkpt>
      <trkpt lat="45.8791" lon="3.34747">
        <ele>297.6</ele>
        <time>2024-05-18T12:31:28Z</time>
      </trkpt>
      <trkpt lat="45.87905" lon="3.34742">
        <ele>297.8</ele>
        <time>2024-05-18T12:31:29Z</time>
      </trkpt>
      <trkpt lat="45.879" lon="3.34737">
        <ele>297.8</ele>
        <time>2024-05-18T12:31:30Z</time>
      </trkpt>
      <trkpt lat="45.87896" lon="3.34731">
        <ele>297.8</ele>
        <time>2024-05-18T12:31:31Z</time>
      </trkpt>
      <trkpt lat="45.87891" lon="3.34726">
        <ele>298</ele>
        <time>2024-05-18T12:31:32Z</time>
      </trkpt>
      <trkpt lat="45.87886" lon="3.34721">
        <ele>298</ele>
        <time>2024-05-18T12:31:33Z</time>
      </trkpt>
      <trkpt lat="45.87881" lon="3.34715">
        <ele>298</ele>
        <time>2024-05-18T12:31:34Z</time>
      </trkpt>
      <trkpt lat="45.87877" lon="3.3471">
        <ele>298.2</ele>
        <time>2024-05-18T12:31:35Z</time>
      </trkpt>
      <trkpt lat="45.87872" lon="3.34704">
        <ele>298.2</ele>
        <time>2024-05-18T12:31:36Z</time>
      </trkpt>
      <trkpt lat="45.87867" lon="3.34699">
        <ele>298.2</ele>
        <time>2024-05-18T12:31:37Z</time>
      </trkpt>
      <trkpt lat="45.87862" lon="3.34694">
        <ele>298.4</ele>
        <time>2024-05-18T12:31:38Z</time>
      </trkpt>
      <trkpt lat="45.87862" lon="3.34694">
        <ele>298.4</ele>
        <time>2024-05-18T12:31:39Z</time>
      </trkpt>
      <trkpt lat="45.87853" lon="3.34683">
        <ele>298.4</ele>
        <time>2024-05-18T12:31:40Z</time>
      </trkpt>
      <trkpt lat="45.87848" lon="3.34677">
        <ele>298.6</ele>
        <time>2024-05-18T12:31:41Z</time>
      </trkpt>
      <trkpt lat="45.87848" lon="3.34677">
        <ele>298.6</ele>
        <time>2024-05-18T12:31:42Z</time>
      </trkpt>
      <trkpt lat="45.87839" lon="3.34664">
        <ele>298.6</ele>
        <time>2024-05-18T12:31:43Z</time>
      </trkpt>
      <trkpt lat="45.87835" lon="3.34657">
        <ele>298.6</ele>
        <time>2024-05-18T12:31:44Z</time>
      </trkpt>
      <trkpt lat="45.87831" lon="3.3465">
        <ele>298.6</ele>
        <time>2024-05-18T12:31:45Z</time>
      </trkpt>
      <trkpt lat="45.87831" lon="3.3465">
        <ele>298.8</ele>
        <time>2024-05-18T12:31:46Z</time>
      </trkpt>
      <trkpt lat="45.87822" lon="3.34637">
        <ele>298.8</ele>
        <time>2024-05-18T12:31:47Z</time>
      </trkpt>
      <trkpt lat="45.87817" lon="3.3463">
        <ele>298.8</ele>
        <time>2024-05-18T12:31:48Z</time>
      </trkpt>
      <trkpt lat="45.87813" lon="3.34623">
        <ele>299</ele>
        <time>2024-05-18T12:31:49Z</time>
      </trkpt>
      <trkpt lat="45.87813" lon="3.34623">
        <ele>298.8</ele>
        <time>2024-05-18T12:31:50Z</time>
      </trkpt>
      <trkpt lat="45.87804" lon="3.34609">
        <ele>299</ele>
        <time>2024-05-18T12:31:51Z</time>
      </trkpt>
      <trkpt lat="45.878" lon="3.34601">
        <ele>299</ele>
        <time>2024-05-18T12:31:52Z</time>
      </trkpt>
      <trkpt lat="45.87796" lon="3.34594">
        <ele>299</ele>
        <time>2024-05-18T12:31:53Z</time>
      </trkpt>
      <trkpt lat="45.87792" lon="3.34587">
        <ele>299.2</ele>
        <time>2024-05-18T12:31:54Z</time>
      </trkpt>
      <trkpt lat="45.87792" lon="3.34587">
        <ele>299.2</ele>
        <time>2024-05-18T12:31:55Z</time>
      </trkpt>
      <trkpt lat="45.87784" lon="3.34573">
        <ele>299.2</ele>
        <time>2024-05-18T12:31:56Z</time>
      </trkpt>
      <trkpt lat="45.8778" lon="3.34565">
        <ele>299.2</ele>
        <time>2024-05-18T12:31:57Z</time>
      </trkpt>
      <trkpt lat="45.87777" lon="3.34559">
        <ele>299.2</ele>
        <time>2024-05-18T12:31:58Z</time>
      </trkpt>
      <trkpt lat="45.87777" lon="3.34559">
        <ele>299.2</ele>
        <time>2024-05-18T12:31:59Z</time>
      </trkpt>
      <trkpt lat="45.87769" lon="3.34544">
        <ele>299.2</ele>
        <time>2024-05-18T12:32:00Z</time>
      </trkpt>
      <trkpt lat="45.87769" lon="3.34544">
        <ele>299.4</ele>
        <time>2024-05-18T12:32:01Z</time>
      </trkpt>
      <trkpt lat="45.87769" lon="3.34544">
        <ele>299.4</ele>
        <time>2024-05-18T12:32:02Z</time>
      </trkpt>
      <trkpt lat="45.87769" lon="3.34544">
        <ele>299.4</ele>
        <time>2024-05-18T12:32:03Z</time>
      </trkpt>
      <trkpt lat="45.87757" lon="3.34523">
        <ele>299.4</ele>
        <time>2024-05-18T12:32:04Z</time>
      </trkpt>
      <trkpt lat="45.87748" lon="3.3451">
        <ele>299.4</ele>
        <time>2024-05-18T12:32:05Z</time>
      </trkpt>
      <trkpt lat="45.87743" lon="3.34504">
        <ele>299.4</ele>
        <time>2024-05-18T12:32:06Z</time>
      </trkpt>
      <trkpt lat="45.87739" lon="3.34498">
        <ele>299.6</ele>
        <time>2024-05-18T12:32:07Z</time>
      </trkpt>
      <trkpt lat="45.87734" lon="3.34491">
        <ele>299.6</ele>
        <time>2024-05-18T12:32:08Z</time>
      </trkpt>
      <trkpt lat="45.8773" lon="3.34485">
        <ele>299.6</ele>
        <time>2024-05-18T12:32:09Z</time>
      </trkpt>
      <trkpt lat="45.87726" lon="3.34479">
        <ele>299.6</ele>
        <time>2024-05-18T12:32:10Z</time>
      </trkpt>
      <trkpt lat="45.8772" lon="3.34474">
        <ele>299.6</ele>
        <time>2024-05-18T12:32:11Z</time>
      </trkpt>
      <trkpt lat="45.87715" lon="3.34469">
        <ele>299.6</ele>
        <time>2024-05-18T12:32:12Z</time>
      </trkpt>
      <trkpt lat="45.87709" lon="3.34465">
        <ele>299.6</ele>
        <time>2024-05-18T12:32:13Z</time>
      </trkpt>
      <trkpt lat="45.87704" lon="3.3446">
        <ele>299.8</ele>
        <time>2024-05-18T12:32:14Z</time>
      </trkpt>
      <trkpt lat="45.87698" lon="3.34456">
        <ele>299.8</ele>
        <time>2024-05-18T12:32:15Z</time>
      </trkpt>
      <trkpt lat="45.87692" lon="3.34451">
        <ele>299.8</ele>
        <time>2024-05-18T12:32:16Z</time>
      </trkpt>
      <trkpt lat="45.87687" lon="3.34447">
        <ele>299.8</ele>
        <time>2024-05-18T12:32:17Z</time>
      </trkpt>
      <trkpt lat="45.87681" lon="3.34442">
        <ele>299.8</ele>
        <time>2024-05-18T12:32:18Z</time>
      </trkpt>
      <trkpt lat="45.87676" lon="3.34437">
        <ele>299.8</ele>
        <time>2024-05-18T12:32:19Z</time>
      </trkpt>
      <trkpt lat="45.87671" lon="3.34431">
        <ele>299.8</ele>
        <time>2024-05-18T12:32:20Z</time>
      </trkpt>
      <trkpt lat="45.87665" lon="3.34426">
        <ele>299.8</ele>
        <time>2024-05-18T12:32:21Z</time>
      </trkpt>
      <trkpt lat="45.8766" lon="3.3442">
        <ele>299.8</ele>
        <time>2024-05-18T12:32:22Z</time>
      </trkpt>
      <trkpt lat="45.87655" lon="3.34415">
        <ele>300</ele>
        <time>2024-05-18T12:32:23Z</time>
      </trkpt>
      <trkpt lat="45.8765" lon="3.3441">
        <ele>300</ele>
        <time>2024-05-18T12:32:24Z</time>
      </trkpt>
      <trkpt lat="45.87645" lon="3.34404">
        <ele>300</ele>
        <time>2024-05-18T12:32:25Z</time>
      </trkpt>
      <trkpt lat="45.87639" lon="3.34399">
        <ele>300</ele>
        <time>2024-05-18T12:32:26Z</time>
      </trkpt>
      <trkpt lat="45.87634" lon="3.34394">
        <ele>300</ele>
        <time>2024-05-18T12:32:27Z</time>
      </trkpt>
      <trkpt lat="45.87629" lon="3.34388">
        <ele>300</ele>
        <time>2024-05-18T12:32:28Z</time>
      </trkpt>
      <trkpt lat="45.87624" lon="3.34383">
        <ele>300.2</ele>
        <time>2024-05-18T12:32:29Z</time>
      </trkpt>
      <trkpt lat="45.87619" lon="3.34377">
        <ele>300.2</ele>
        <time>2024-05-18T12:32:30Z</time>
      </trkpt>
      <trkpt lat="45.87614" lon="3.34372">
        <ele>300.2</ele>
        <time>2024-05-18T12:32:31Z</time>
      </trkpt>
      <trkpt lat="45.87609" lon="3.34367">
        <ele>300.2</ele>
        <time>2024-05-18T12:32:32Z</time>
      </trkpt>
      <trkpt lat="45.87603" lon="3.34361">
        <ele>300.2</ele>
        <time>2024-05-18T12:32:33Z</time>
      </trkpt>
      <trkpt lat="45.87598" lon="3.34356">
        <ele>300.4</ele>
        <time>2024-05-18T12:32:34Z</time>
      </trkpt>
      <trkpt lat="45.87593" lon="3.34351">
        <ele>300.4</ele>
        <time>2024-05-18T12:32:35Z</time>
      </trkpt>
      <trkpt lat="45.87588" lon="3.34345">
        <ele>300.4</ele>
        <time>2024-05-18T12:32:36Z</time>
      </trkpt>
      <trkpt lat="45.87583" lon="3.3434">
        <ele>300.4</ele>
        <time>2024-05-18T12:32:37Z</time>
      </trkpt>
      <trkpt lat="45.87578" lon="3.34335">
        <ele>300.4</ele>
        <time>2024-05-18T12:32:38Z</time>
      </trkpt>
      <trkpt lat="45.87573" lon="3.3433">
        <ele>300.6</ele>
        <time>2024-05-18T12:32:39Z</time>
      </trkpt>
      <trkpt lat="45.87568" lon="3.34324">
        <ele>300.6</ele>
        <time>2024-05-18T12:32:40Z</time>
      </trkpt>
      <trkpt lat="45.87563" lon="3.34319">
        <ele>300.6</ele>
        <time>2024-05-18T12:32:41Z</time>
      </trkpt>
      <trkpt lat="45.87558" lon="3.34314">
        <ele>300.6</ele>
        <time>2024-05-18T12:32:42Z</time>
      </trkpt>
      <trkpt lat="45.87553" lon="3.34308">
        <ele>300.6</ele>
        <time>2024-05-18T12:32:43Z</time>
      </trkpt>
      <trkpt lat="45.87548" lon="3.34303">
        <ele>300.8</ele>
        <time>2024-05-18T12:32:44Z</time>
      </trkpt>
      <trkpt lat="45.87543" lon="3.34298">
        <ele>300.8</ele>
        <time>2024-05-18T12:32:45Z</time>
      </trkpt>
      <trkpt lat="45.87538" lon="3.34292">
        <ele>300.8</ele>
        <time>2024-05-18T12:32:46Z</time>
      </trkpt>
      <trkpt lat="45.87532" lon="3.34288">
        <ele>300.8</ele>
        <time>2024-05-18T12:32:47Z</time>
      </trkpt>
      <trkpt lat="45.87526" lon="3.34285">
        <ele>300.8</ele>
        <time>2024-05-18T12:32:48Z</time>
      </trkpt>
      <trkpt lat="45.8752" lon="3.34281">
        <ele>300.8</ele>
        <time>2024-05-18T12:32:49Z</time>
      </trkpt>
      <trkpt lat="45.87514" lon="3.34278">
        <ele>300.8</ele>
        <time>2024-05-18T12:32:50Z</time>
      </trkpt>
      <trkpt lat="45.87508" lon="3.34275">
        <ele>300.8</ele>
        <time>2024-05-18T12:32:51Z</time>
      </trkpt>
      <trkpt lat="45.87502" lon="3.34271">
        <ele>300.8</ele>
        <time>2024-05-18T12:32:52Z</time>
      </trkpt>
      <trkpt lat="45.87496" lon="3.34268">
        <ele>300.8</ele>
        <time>2024-05-18T12:32:53Z</time>
      </trkpt>
      <trkpt lat="45.8749" lon="3.34265">
        <ele>300.8</ele>
        <time>2024-05-18T12:32:54Z</time>
      </trkpt>
      <trkpt lat="45.87484" lon="3.34261">
        <ele>300.8</ele>
        <time>2024-05-18T12:32:55Z</time>
      </trkpt>
      <trkpt lat="45.87478" lon="3.34258">
        <ele>301</ele>
        <time>2024-05-18T12:32:56Z</time>
      </trkpt>
      <trkpt lat="45.87472" lon="3.34255">
        <ele>300.8</ele>
        <time>2024-05-18T12:32:57Z</time>
      </trkpt>
      <trkpt lat="45.87466" lon="3.34251">
        <ele>301</ele>
        <time>2024-05-18T12:32:58Z</time>
      </trkpt>
      <trkpt lat="45.8746" lon="3.34248">
        <ele>301</ele>
        <time>2024-05-18T12:32:59Z</time>
      </trkpt>
      <trkpt lat="45.87453" lon="3.34244">
        <ele>301</ele>
        <time>2024-05-18T12:33:00Z</time>
      </trkpt>
      <trkpt lat="45.87447" lon="3.34241">
        <ele>301</ele>
        <time>2024-05-18T12:33:01Z</time>
      </trkpt>
      <trkpt lat="45.87441" lon="3.34238">
        <ele>301</ele>
        <time>2024-05-18T12:33:02Z</time>
      </trkpt>
      <trkpt lat="45.87434" lon="3.34234">
        <ele>301</ele>
        <time>2024-05-18T12:33:03Z</time>
      </trkpt>
      <trkpt lat="45.87428" lon="3.3423">
        <ele>301</ele>
        <time>2024-05-18T12:33:04Z</time>
      </trkpt>
      <trkpt lat="45.87423" lon="3.34225">
        <ele>301</ele>
        <time>2024-05-18T12:33:05Z</time>
      </trkpt>
      <trkpt lat="45.87418" lon="3.34219">
        <ele>301</ele>
        <time>2024-05-18T12:33:06Z</time>
      </trkpt>
      <trkpt lat="45.87412" lon="3.34213">
        <ele>301</ele>
        <time>2024-05-18T12:33:07Z</time>
      </trkpt>
      <trkpt lat="45.87407" lon="3.34207">
        <ele>301</ele>
        <time>2024-05-18T12:33:08Z</time>
      </trkpt>
      <trkpt lat="45.87401" lon="3.34202">
        <ele>301.2</ele>
        <time>2024-05-18T12:33:09Z</time>
      </trkpt>
      <trkpt lat="45.87395" lon="3.34196">
        <ele>301.2</ele>
        <time>2024-05-18T12:33:10Z</time>
      </trkpt>
      <trkpt lat="45.8739" lon="3.3419">
        <ele>301.2</ele>
        <time>2024-05-18T12:33:11Z</time>
      </trkpt>
      <trkpt lat="45.87384" lon="3.34184">
        <ele>301.2</ele>
        <time>2024-05-18T12:33:12Z</time>
      </trkpt>
      <trkpt lat="45.8738" lon="3.34177">
        <ele>301.2</ele>
        <time>2024-05-18T12:33:13Z</time>
      </trkpt>
      <trkpt lat="45.87375" lon="3.3417">
        <ele>301.2</ele>
        <time>2024-05-18T12:33:14Z</time>
      </trkpt>
      <trkpt lat="45.87371" lon="3.34162">
        <ele>301.4</ele>
        <time>2024-05-18T12:33:15Z</time>
      </trkpt>
      <trkpt lat="45.87367" lon="3.34154">
        <ele>301.4</ele>
        <time>2024-05-18T12:33:16Z</time>
      </trkpt>
      <trkpt lat="45.87363" lon="3.34147">
        <ele>301.4</ele>
        <time>2024-05-18T12:33:17Z</time>
      </trkpt>
      <trkpt lat="45.87359" lon="3.3414">
        <ele>301.4</ele>
        <time>2024-05-18T12:33:18Z</time>
      </trkpt>
      <trkpt lat="45.87355" lon="3.34132">
        <ele>301.4</ele>
        <time>2024-05-18T12:33:19Z</time>
      </trkpt>
      <trkpt lat="45.87352" lon="3.34124">
        <ele>301.4</ele>
        <time>2024-05-18T12:33:20Z</time>
      </trkpt>
      <trkpt lat="45.87349" lon="3.34115">
        <ele>301.6</ele>
        <time>2024-05-18T12:33:21Z</time>
      </trkpt>
      <trkpt lat="45.87345" lon="3.34106">
        <ele>301.6</ele>
        <time>2024-05-18T12:33:22Z</time>
      </trkpt>
      <trkpt lat="45.87342" lon="3.34097">
        <ele>301.6</ele>
        <time>2024-05-18T12:33:23Z</time>
      </trkpt>
      <trkpt lat="45.87339" lon="3.34088">
        <ele>301.6</ele>
        <time>2024-05-18T12:33:24Z</time>
      </trkpt>
      <trkpt lat="45.87336" lon="3.34079">
        <ele>301.6</ele>
        <time>2024-05-18T12:33:25Z</time>
      </trkpt>
      <trkpt lat="45.87334" lon="3.34069">
        <ele>301.8</ele>
        <time>2024-05-18T12:33:26Z</time>
      </trkpt>
      <trkpt lat="45.87331" lon="3.3406">
        <ele>301.8</ele>
        <time>2024-05-18T12:33:27Z</time>
      </trkpt>
      <trkpt lat="45.87328" lon="3.3405">
        <ele>301.8</ele>
        <time>2024-05-18T12:33:28Z</time>
      </trkpt>
      <trkpt lat="45.87325" lon="3.3404">
        <ele>301.8</ele>
        <time>2024-05-18T12:33:29Z</time>
      </trkpt>
      <trkpt lat="45.87322" lon="3.3403">
        <ele>301.8</ele>
        <time>2024-05-18T12:33:30Z</time>
      </trkpt>
      <trkpt lat="45.87319" lon="3.3402">
        <ele>301.8</ele>
        <time>2024-05-18T12:33:31Z</time>
      </trkpt>
      <trkpt lat="45.87316" lon="3.34011">
        <ele>301.8</ele>
        <time>2024-05-18T12:33:32Z</time>
      </trkpt>
      <trkpt lat="45.87313" lon="3.34001">
        <ele>301.6</ele>
        <time>2024-05-18T12:33:33Z</time>
      </trkpt>
      <trkpt lat="45.8731" lon="3.33991">
        <ele>301.6</ele>
        <time>2024-05-18T12:33:34Z</time>
      </trkpt>
      <trkpt lat="45.87308" lon="3.33981">
        <ele>301.6</ele>
        <time>2024-05-18T12:33:35Z</time>
      </trkpt>
      <trkpt lat="45.87305" lon="3.33971">
        <ele>301.6</ele>
        <time>2024-05-18T12:33:36Z</time>
      </trkpt>
      <trkpt lat="45.87302" lon="3.33961">
        <ele>301.6</ele>
        <time>2024-05-18T12:33:37Z</time>
      </trkpt>
      <trkpt lat="45.87299" lon="3.33951">
        <ele>302</ele>
        <time>2024-05-18T12:33:38Z</time>
      </trkpt>
      <trkpt lat="45.87296" lon="3.33941">
        <ele>301.8</ele>
        <time>2024-05-18T12:33:39Z</time>
      </trkpt>
      <trkpt lat="45.87293" lon="3.33932">
        <ele>301.6</ele>
        <time>2024-05-18T12:33:40Z</time>
      </trkpt>
      <trkpt lat="45.87289" lon="3.33923">
        <ele>301.2</ele>
        <time>2024-05-18T12:33:41Z</time>
      </trkpt>
      <trkpt lat="45.87286" lon="3.33915">
        <ele>301.2</ele>
        <time>2024-05-18T12:33:42Z</time>
      </trkpt>
      <trkpt lat="45.87282" lon="3.33907">
        <ele>301.2</ele>
        <time>2024-05-18T12:33:43Z</time>
      </trkpt>
      <trkpt lat="45.87278" lon="3.33899">
        <ele>301</ele>
        <time>2024-05-18T12:33:44Z</time>
      </trkpt>
      <trkpt lat="45.87274" lon="3.3389">
        <ele>301.4</ele>
        <time>2024-05-18T12:33:45Z</time>
      </trkpt>
      <trkpt lat="45.8727" lon="3.33882">
        <ele>301.4</ele>
        <time>2024-05-18T12:33:46Z</time>
      </trkpt>
      <trkpt lat="45.87266" lon="3.33874">
        <ele>301.4</ele>
        <time>2024-05-18T12:33:47Z</time>
      </trkpt>
      <trkpt lat="45.87262" lon="3.33866">
        <ele>301.4</ele>
        <time>2024-05-18T12:33:48Z</time>
      </trkpt>
      <trkpt lat="45.87258" lon="3.33858">
        <ele>301.4</ele>
        <time>2024-05-18T12:33:49Z</time>
      </trkpt>
      <trkpt lat="45.87255" lon="3.3385">
        <ele>301.4</ele>
        <time>2024-05-18T12:33:50Z</time>
      </trkpt>
      <trkpt lat="45.87251" lon="3.33841">
        <ele>301.4</ele>
        <time>2024-05-18T12:33:51Z</time>
      </trkpt>
      <trkpt lat="45.87247" lon="3.33833">
        <ele>301.4</ele>
        <time>2024-05-18T12:33:52Z</time>
      </trkpt>
      <trkpt lat="45.87243" lon="3.33825">
        <ele>301.4</ele>
        <time>2024-05-18T12:33:53Z</time>
      </trkpt>
      <trkpt lat="45.87239" lon="3.33817">
        <ele>301.4</ele>
        <time>2024-05-18T12:33:54Z</time>
      </trkpt>
      <trkpt lat="45.87235" lon="3.3381">
        <ele>301.2</ele>
        <time>2024-05-18T12:33:55Z</time>
      </trkpt>
      <trkpt lat="45.8723" lon="3.33804">
        <ele>301.2</ele>
        <time>2024-05-18T12:33:56Z</time>
      </trkpt>
      <trkpt lat="45.87225" lon="3.33798">
        <ele>301.2</ele>
        <time>2024-05-18T12:33:57Z</time>
      </trkpt>
      <trkpt lat="45.8722" lon="3.33793">
        <ele>301.2</ele>
        <time>2024-05-18T12:33:58Z</time>
      </trkpt>
      <trkpt lat="45.87214" lon="3.33787">
        <ele>301.2</ele>
        <time>2024-05-18T12:33:59Z</time>
      </trkpt>
      <trkpt lat="45.87209" lon="3.33781">
        <ele>301.2</ele>
        <time>2024-05-18T12:34:00Z</time>
      </trkpt>
      <trkpt lat="45.87204" lon="3.33775">
        <ele>301.2</ele>
        <time>2024-05-18T12:34:01Z</time>
      </trkpt>
      <trkpt lat="45.87199" lon="3.3377">
        <ele>301.2</ele>
        <time>2024-05-18T12:34:02Z</time>
      </trkpt>
      <trkpt lat="45.87194" lon="3.33764">
        <ele>301.4</ele>
        <time>2024-05-18T12:34:03Z</time>
      </trkpt>
      <trkpt lat="45.87189" lon="3.33759">
        <ele>301.4</ele>
        <time>2024-05-18T12:34:04Z</time>
      </trkpt>
      <trkpt lat="45.87184" lon="3.33754">
        <ele>301.2</ele>
        <time>2024-05-18T12:34:05Z</time>
      </trkpt>
      <trkpt lat="45.87179" lon="3.33748">
        <ele>301.2</ele>
        <time>2024-05-18T12:34:06Z</time>
      </trkpt>
      <trkpt lat="45.87174" lon="3.33743">
        <ele>301.4</ele>
        <time>2024-05-18T12:34:07Z</time>
      </trkpt>
      <trkpt lat="45.87169" lon="3.33738">
        <ele>301.6</ele>
        <time>2024-05-18T12:34:08Z</time>
      </trkpt>
      <trkpt lat="45.87164" lon="3.33732">
        <ele>301.8</ele>
        <time>2024-05-18T12:34:09Z</time>
      </trkpt>
      <trkpt lat="45.87159" lon="3.33727">
        <ele>301.4</ele>
        <time>2024-05-18T12:34:10Z</time>
      </trkpt>
      <trkpt lat="45.87153" lon="3.33723">
        <ele>301.4</ele>
        <time>2024-05-18T12:34:11Z</time>
      </trkpt>
      <trkpt lat="45.87147" lon="3.33719">
        <ele>301.6</ele>
        <time>2024-05-18T12:34:12Z</time>
      </trkpt>
      <trkpt lat="45.87142" lon="3.33715">
        <ele>301.6</ele>
        <time>2024-05-18T12:34:13Z</time>
      </trkpt>
      <trkpt lat="45.87137" lon="3.33711">
        <ele>301.6</ele>
        <time>2024-05-18T12:34:14Z</time>
      </trkpt>
      <trkpt lat="45.87131" lon="3.33707">
        <ele>301.6</ele>
        <time>2024-05-18T12:34:15Z</time>
      </trkpt>
      <trkpt lat="45.87126" lon="3.33704">
        <ele>301.6</ele>
        <time>2024-05-18T12:34:16Z</time>
      </trkpt>
      <trkpt lat="45.87121" lon="3.337">
        <ele>301.6</ele>
        <time>2024-05-18T12:34:17Z</time>
      </trkpt>
      <trkpt lat="45.87115" lon="3.33696">
        <ele>301.8</ele>
        <time>2024-05-18T12:34:18Z</time>
      </trkpt>
      <trkpt lat="45.8711" lon="3.33692">
        <ele>301.8</ele>
        <time>2024-05-18T12:34:19Z</time>
      </trkpt>
      <trkpt lat="45.87104" lon="3.33689">
        <ele>301.8</ele>
        <time>2024-05-18T12:34:20Z</time>
      </trkpt>
      <trkpt lat="45.87099" lon="3.33685">
        <ele>301.8</ele>
        <time>2024-05-18T12:34:21Z</time>
      </trkpt>
      <trkpt lat="45.87093" lon="3.33681">
        <ele>301.8</ele>
        <time>2024-05-18T12:34:22Z</time>
      </trkpt>
      <trkpt lat="45.87088" lon="3.33677">
        <ele>301.8</ele>
        <time>2024-05-18T12:34:23Z</time>
      </trkpt>
      <trkpt lat="45.87082" lon="3.33673">
        <ele>301.8</ele>
        <time>2024-05-18T12:34:24Z</time>
      </trkpt>
      <trkpt lat="45.87077" lon="3.33669">
        <ele>301.8</ele>
        <time>2024-05-18T12:34:25Z</time>
      </trkpt>
      <trkpt lat="45.87071" lon="3.33666">
        <ele>301.8</ele>
        <time>2024-05-18T12:34:26Z</time>
      </trkpt>
      <trkpt lat="45.87065" lon="3.33663">
        <ele>302</ele>
        <time>2024-05-18T12:34:27Z</time>
      </trkpt>
      <trkpt lat="45.87059" lon="3.3366">
        <ele>302</ele>
        <time>2024-05-18T12:34:28Z</time>
      </trkpt>
      <trkpt lat="45.87059" lon="3.3366">
        <ele>302</ele>
        <time>2024-05-18T12:34:29Z</time>
      </trkpt>
      <trkpt lat="45.87059" lon="3.3366">
        <ele>302</ele>
        <time>2024-05-18T12:34:30Z</time>
      </trkpt>
      <trkpt lat="45.87059" lon="3.3366">
        <ele>302</ele>
        <time>2024-05-18T12:34:31Z</time>
      </trkpt>
      <trkpt lat="45.87036" lon="3.33649">
        <ele>302</ele>
        <time>2024-05-18T12:34:32Z</time>
      </trkpt>
      <trkpt lat="45.8703" lon="3.33646">
        <ele>302</ele>
        <time>2024-05-18T12:34:33Z</time>
      </trkpt>
      <trkpt lat="45.87023" lon="3.33643">
        <ele>302</ele>
        <time>2024-05-18T12:34:34Z</time>
      </trkpt>
      <trkpt lat="45.87017" lon="3.33642">
        <ele>302</ele>
        <time>2024-05-18T12:34:35Z</time>
      </trkpt>
      <trkpt lat="45.87011" lon="3.3364">
        <ele>302</ele>
        <time>2024-05-18T12:34:36Z</time>
      </trkpt>
      <trkpt lat="45.87005" lon="3.33639">
        <ele>302</ele>
        <time>2024-05-18T12:34:37Z</time>
      </trkpt>
      <trkpt lat="45.86998" lon="3.33638">
        <ele>302</ele>
        <time>2024-05-18T12:34:38Z</time>
      </trkpt>
      <trkpt lat="45.86992" lon="3.33636">
        <ele>302</ele>
        <time>2024-05-18T12:34:39Z</time>
      </trkpt>
      <trkpt lat="45.86986" lon="3.33635">
        <ele>302</ele>
        <time>2024-05-18T12:34:40Z</time>
      </trkpt>
      <trkpt lat="45.86979" lon="3.33634">
        <ele>302</ele>
        <time>2024-05-18T12:34:41Z</time>
      </trkpt>
      <trkpt lat="45.86973" lon="3.33632">
        <ele>302</ele>
        <time>2024-05-18T12:34:42Z</time>
      </trkpt>
      <trkpt lat="45.86967" lon="3.33631">
        <ele>302</ele>
        <time>2024-05-18T12:34:43Z</time>
      </trkpt>
      <trkpt lat="45.8696" lon="3.3363">
        <ele>302</ele>
        <time>2024-05-18T12:34:44Z</time>
      </trkpt>
      <trkpt lat="45.86954" lon="3.33629">
        <ele>302</ele>
        <time>2024-05-18T12:34:45Z</time>
      </trkpt>
      <trkpt lat="45.86947" lon="3.33629">
        <ele>302</ele>
        <time>2024-05-18T12:34:46Z</time>
      </trkpt>
      <trkpt lat="45.86941" lon="3.33628">
        <ele>302</ele>
        <time>2024-05-18T12:34:47Z</time>
      </trkpt>
      <trkpt lat="45.86934" lon="3.33627">
        <ele>302</ele>
        <time>2024-05-18T12:34:48Z</time>
      </trkpt>
      <trkpt lat="45.86928" lon="3.33627">
        <ele>302</ele>
        <time>2024-05-18T12:34:49Z</time>
      </trkpt>
      <trkpt lat="45.86922" lon="3.33626">
        <ele>302</ele>
        <time>2024-05-18T12:34:50Z</time>
      </trkpt>
      <trkpt lat="45.86915" lon="3.33625">
        <ele>302</ele>
        <time>2024-05-18T12:34:51Z</time>
      </trkpt>
      <trkpt lat="45.86909" lon="3.33625">
        <ele>302</ele>
        <time>2024-05-18T12:34:52Z</time>
      </trkpt>
      <trkpt lat="45.86902" lon="3.33624">
        <ele>302</ele>
        <time>2024-05-18T12:34:53Z</time>
      </trkpt>
      <trkpt lat="45.86896" lon="3.33623">
        <ele>302</ele>
        <time>2024-05-18T12:34:54Z</time>
      </trkpt>
      <trkpt lat="45.8689" lon="3.33623">
        <ele>302</ele>
        <time>2024-05-18T12:34:55Z</time>
      </trkpt>
      <trkpt lat="45.86883" lon="3.33622">
        <ele>302</ele>
        <time>2024-05-18T12:34:56Z</time>
      </trkpt>
      <trkpt lat="45.86877" lon="3.33621">
        <ele>302</ele>
        <time>2024-05-18T12:34:57Z</time>
      </trkpt>
      <trkpt lat="45.86871" lon="3.33621">
        <ele>302</ele>
        <time>2024-05-18T12:34:58Z</time>
      </trkpt>
      <trkpt lat="45.86864" lon="3.3362">
        <ele>302.2</ele>
        <time>2024-05-18T12:34:59Z</time>
      </trkpt>
      <trkpt lat="45.86858" lon="3.33619">
        <ele>302</ele>
        <time>2024-05-18T12:35:00Z</time>
      </trkpt>
      <trkpt lat="45.86852" lon="3.33618">
        <ele>302.2</ele>
        <time>2024-05-18T12:35:01Z</time>
      </trkpt>
      <trkpt lat="45.86846" lon="3.33616">
        <ele>302.2</ele>
        <time>2024-05-18T12:35:02Z</time>
      </trkpt>
      <trkpt lat="45.86839" lon="3.33615">
        <ele>302.2</ele>
        <time>2024-05-18T12:35:03Z</time>
      </trkpt>
      <trkpt lat="45.86833" lon="3.33613">
        <ele>302.2</ele>
        <time>2024-05-18T12:35:04Z</time>
      </trkpt>
      <trkpt lat="45.86827" lon="3.33611">
        <ele>302.2</ele>
        <time>2024-05-18T12:35:05Z</time>
      </trkpt>
      <trkpt lat="45.86821" lon="3.3361">
        <ele>302.2</ele>
        <time>2024-05-18T12:35:06Z</time>
      </trkpt>
      <trkpt lat="45.86815" lon="3.33608">
        <ele>302.2</ele>
        <time>2024-05-18T12:35:07Z</time>
      </trkpt>
      <trkpt lat="45.86809" lon="3.33607">
        <ele>302.2</ele>
        <time>2024-05-18T12:35:08Z</time>
      </trkpt>
      <trkpt lat="45.86802" lon="3.33605">
        <ele>302.2</ele>
        <time>2024-05-18T12:35:09Z</time>
      </trkpt>
      <trkpt lat="45.86796" lon="3.33602">
        <ele>302.2</ele>
        <time>2024-05-18T12:35:10Z</time>
      </trkpt>
      <trkpt lat="45.8679" lon="3.33599">
        <ele>302.2</ele>
        <time>2024-05-18T12:35:11Z</time>
      </trkpt>
      <trkpt lat="45.86784" lon="3.33596">
        <ele>302.2</ele>
        <time>2024-05-18T12:35:12Z</time>
      </trkpt>
      <trkpt lat="45.86778" lon="3.33592">
        <ele>302.2</ele>
        <time>2024-05-18T12:35:13Z</time>
      </trkpt>
      <trkpt lat="45.86772" lon="3.33589">
        <ele>302.2</ele>
        <time>2024-05-18T12:35:14Z</time>
      </trkpt>
      <trkpt lat="45.86766" lon="3.33586">
        <ele>302.2</ele>
        <time>2024-05-18T12:35:15Z</time>
      </trkpt>
      <trkpt lat="45.86761" lon="3.33583">
        <ele>302.2</ele>
        <time>2024-05-18T12:35:16Z</time>
      </trkpt>
      <trkpt lat="45.86755" lon="3.3358">
        <ele>302.4</ele>
        <time>2024-05-18T12:35:17Z</time>
      </trkpt>
      <trkpt lat="45.86749" lon="3.33575">
        <ele>302.4</ele>
        <time>2024-05-18T12:35:18Z</time>
      </trkpt>
      <trkpt lat="45.86744" lon="3.3357">
        <ele>302.4</ele>
        <time>2024-05-18T12:35:19Z</time>
      </trkpt>
      <trkpt lat="45.86738" lon="3.33566">
        <ele>302.4</ele>
        <time>2024-05-18T12:35:20Z</time>
      </trkpt>
      <trkpt lat="45.86733" lon="3.33561">
        <ele>302.4</ele>
        <time>2024-05-18T12:35:21Z</time>
      </trkpt>
      <trkpt lat="45.86727" lon="3.33556">
        <ele>302.4</ele>
        <time>2024-05-18T12:35:22Z</time>
      </trkpt>
      <trkpt lat="45.86721" lon="3.33551">
        <ele>302.6</ele>
        <time>2024-05-18T12:35:23Z</time>
      </trkpt>
      <trkpt lat="45.86716" lon="3.33547">
        <ele>302.6</ele>
        <time>2024-05-18T12:35:24Z</time>
      </trkpt>
      <trkpt lat="45.8671" lon="3.33542">
        <ele>302.6</ele>
        <time>2024-05-18T12:35:25Z</time>
      </trkpt>
      <trkpt lat="45.86704" lon="3.33537">
        <ele>302.6</ele>
        <time>2024-05-18T12:35:26Z</time>
      </trkpt>
      <trkpt lat="45.86699" lon="3.33532">
        <ele>302.6</ele>
        <time>2024-05-18T12:35:27Z</time>
      </trkpt>
      <trkpt lat="45.86693" lon="3.33527">
        <ele>302.6</ele>
        <time>2024-05-18T12:35:28Z</time>
      </trkpt>
      <trkpt lat="45.86687" lon="3.33523">
        <ele>302.6</ele>
        <time>2024-05-18T12:35:29Z</time>
      </trkpt>
      <trkpt lat="45.86681" lon="3.33518">
        <ele>302.4</ele>
        <time>2024-05-18T12:35:30Z</time>
      </trkpt>
      <trkpt lat="45.86675" lon="3.33513">
        <ele>302.4</ele>
        <time>2024-05-18T12:35:31Z</time>
      </trkpt>
      <trkpt lat="45.86669" lon="3.33508">
        <ele>302.4</ele>
        <time>2024-05-18T12:35:32Z</time>
      </trkpt>
      <trkpt lat="45.86662" lon="3.33505">
        <ele>302.4</ele>
        <time>2024-05-18T12:35:33Z</time>
      </trkpt>
      <trkpt lat="45.86655" lon="3.33502">
        <ele>302.6</ele>
        <time>2024-05-18T12:35:34Z</time>
      </trkpt>
      <trkpt lat="45.86648" lon="3.33499">
        <ele>302.6</ele>
        <time>2024-05-18T12:35:35Z</time>
      </trkpt>
      <trkpt lat="45.86641" lon="3.33497">
        <ele>302.2</ele>
        <time>2024-05-18T12:35:36Z</time>
      </trkpt>
      <trkpt lat="45.86634" lon="3.33496">
        <ele>302.2</ele>
        <time>2024-05-18T12:35:37Z</time>
      </trkpt>
      <trkpt lat="45.86626" lon="3.33496">
        <ele>302.2</ele>
        <time>2024-05-18T12:35:38Z</time>
      </trkpt>
      <trkpt lat="45.86619" lon="3.33495">
        <ele>302</ele>
        <time>2024-05-18T12:35:39Z</time>
      </trkpt>
      <trkpt lat="45.86611" lon="3.33496">
        <ele>302</ele>
        <time>2024-05-18T12:35:40Z</time>
      </trkpt>
      <trkpt lat="45.86604" lon="3.33497">
        <ele>301.8</ele>
        <time>2024-05-18T12:35:41Z</time>
      </trkpt>
      <trkpt lat="45.86596" lon="3.33498">
        <ele>301.8</ele>
        <time>2024-05-18T12:35:42Z</time>
      </trkpt>
      <trkpt lat="45.86589" lon="3.33499">
        <ele>301.6</ele>
        <time>2024-05-18T12:35:43Z</time>
      </trkpt>
      <trkpt lat="45.86582" lon="3.335">
        <ele>301.6</ele>
        <time>2024-05-18T12:35:44Z</time>
      </trkpt>
      <trkpt lat="45.86575" lon="3.33501">
        <ele>301.6</ele>
        <time>2024-05-18T12:35:45Z</time>
      </trkpt>
      <trkpt lat="45.86568" lon="3.33502">
        <ele>301.6</ele>
        <time>2024-05-18T12:35:46Z</time>
      </trkpt>
      <trkpt lat="45.86561" lon="3.33503">
        <ele>301.6</ele>
        <time>2024-05-18T12:35:47Z</time>
      </trkpt>
      <trkpt lat="45.86554" lon="3.33504">
        <ele>301.4</ele>
        <time>2024-05-18T12:35:48Z</time>
      </trkpt>
      <trkpt lat="45.86548" lon="3.33504">
        <ele>301.4</ele>
        <time>2024-05-18T12:35:49Z</time>
      </trkpt>
      <trkpt lat="45.86541" lon="3.33505">
        <ele>301.6</ele>
        <time>2024-05-18T12:35:50Z</time>
      </trkpt>
      <trkpt lat="45.86534" lon="3.33506">
        <ele>301.4</ele>
        <time>2024-05-18T12:35:51Z</time>
      </trkpt>
      <trkpt lat="45.86528" lon="3.33507">
        <ele>301.4</ele>
        <time>2024-05-18T12:35:52Z</time>
      </trkpt>
      <trkpt lat="45.86522" lon="3.33508">
        <ele>301.4</ele>
        <time>2024-05-18T12:35:53Z</time>
      </trkpt>
      <trkpt lat="45.86516" lon="3.33509">
        <ele>301.4</ele>
        <time>2024-05-18T12:35:54Z</time>
      </trkpt>
      <trkpt lat="45.86511" lon="3.33509">
        <ele>301.6</ele>
        <time>2024-05-18T12:35:55Z</time>
      </trkpt>
      <trkpt lat="45.86505" lon="3.3351">
        <ele>301.6</ele>
        <time>2024-05-18T12:35:56Z</time>
      </trkpt>
      <trkpt lat="45.86499" lon="3.33511">
        <ele>301.6</ele>
        <time>2024-05-18T12:35:57Z</time>
      </trkpt>
      <trkpt lat="45.86493" lon="3.33511">
        <ele>301.6</ele>
        <time>2024-05-18T12:35:58Z</time>
      </trkpt>
      <trkpt lat="45.86488" lon="3.33512">
        <ele>301.6</ele>
        <time>2024-05-18T12:35:59Z</time>
      </trkpt>
      <trkpt lat="45.86482" lon="3.33513">
        <ele>301.6</ele>
        <time>2024-05-18T12:36:00Z</time>
      </trkpt>
      <trkpt lat="45.86476" lon="3.33513">
        <ele>301.6</ele>
        <time>2024-05-18T12:36:01Z</time>
      </trkpt>
      <trkpt lat="45.86471" lon="3.33514">
        <ele>301.4</ele>
        <time>2024-05-18T12:36:02Z</time>
      </trkpt>
      <trkpt lat="45.86465" lon="3.33515">
        <ele>301.6</ele>
        <time>2024-05-18T12:36:03Z</time>
      </trkpt>
      <trkpt lat="45.86459" lon="3.33516">
        <ele>301.8</ele>
        <time>2024-05-18T12:36:04Z</time>
      </trkpt>
      <trkpt lat="45.86454" lon="3.33517">
        <ele>302.2</ele>
        <time>2024-05-18T12:36:05Z</time>
      </trkpt>
      <trkpt lat="45.86448" lon="3.33518">
        <ele>302</ele>
        <time>2024-05-18T12:36:06Z</time>
      </trkpt>
      <trkpt lat="45.86442" lon="3.33519">
        <ele>302</ele>
        <time>2024-05-18T12:36:07Z</time>
      </trkpt>
      <trkpt lat="45.86437" lon="3.3352">
        <ele>302</ele>
        <time>2024-05-18T12:36:08Z</time>
      </trkpt>
      <trkpt lat="45.86431" lon="3.33521">
        <ele>302</ele>
        <time>2024-05-18T12:36:09Z</time>
      </trkpt>
      <trkpt lat="45.86426" lon="3.33522">
        <ele>302</ele>
        <time>2024-05-18T12:36:10Z</time>
      </trkpt>
      <trkpt lat="45.8642" lon="3.33523">
        <ele>302</ele>
        <time>2024-05-18T12:36:11Z</time>
      </trkpt>
      <trkpt lat="45.86415" lon="3.33525">
        <ele>302.2</ele>
        <time>2024-05-18T12:36:12Z</time>
      </trkpt>
      <trkpt lat="45.86409" lon="3.33526">
        <ele>302.2</ele>
        <time>2024-05-18T12:36:13Z</time>
      </trkpt>
      <trkpt lat="45.86403" lon="3.33527">
        <ele>302.2</ele>
        <time>2024-05-18T12:36:14Z</time>
      </trkpt>
      <trkpt lat="45.86397" lon="3.33528">
        <ele>302.2</ele>
        <time>2024-05-18T12:36:15Z</time>
      </trkpt>
      <trkpt lat="45.86391" lon="3.33529">
        <ele>302.2</ele>
        <time>2024-05-18T12:36:16Z</time>
      </trkpt>
      <trkpt lat="45.86385" lon="3.33531">
        <ele>302.2</ele>
        <time>2024-05-18T12:36:17Z</time>
      </trkpt>
      <trkpt lat="45.86379" lon="3.33534">
        <ele>302.2</ele>
        <time>2024-05-18T12:36:18Z</time>
      </trkpt>
      <trkpt lat="45.86373" lon="3.33537">
        <ele>302.2</ele>
        <time>2024-05-18T12:36:19Z</time>
      </trkpt>
      <trkpt lat="45.86367" lon="3.3354">
        <ele>302.2</ele>
        <time>2024-05-18T12:36:20Z</time>
      </trkpt>
      <trkpt lat="45.86361" lon="3.33543">
        <ele>302</ele>
        <time>2024-05-18T12:36:21Z</time>
      </trkpt>
      <trkpt lat="45.86355" lon="3.33546">
        <ele>302</ele>
        <time>2024-05-18T12:36:22Z</time>
      </trkpt>
      <trkpt lat="45.86349" lon="3.33549">
        <ele>302</ele>
        <time>2024-05-18T12:36:23Z</time>
      </trkpt>
      <trkpt lat="45.86342" lon="3.33551">
        <ele>302</ele>
        <time>2024-05-18T12:36:24Z</time>
      </trkpt>
      <trkpt lat="45.86336" lon="3.33551">
        <ele>302</ele>
        <time>2024-05-18T12:36:25Z</time>
      </trkpt>
      <trkpt lat="45.8633" lon="3.33551">
        <ele>302</ele>
        <time>2024-05-18T12:36:26Z</time>
      </trkpt>
      <trkpt lat="45.86324" lon="3.33551">
        <ele>302.2</ele>
        <time>2024-05-18T12:36:27Z</time>
      </trkpt>
      <trkpt lat="45.86317" lon="3.33551">
        <ele>301.8</ele>
        <time>2024-05-18T12:36:28Z</time>
      </trkpt>
      <trkpt lat="45.86309" lon="3.33551">
        <ele>301.4</ele>
        <time>2024-05-18T12:36:29Z</time>
      </trkpt>
      <trkpt lat="45.86301" lon="3.33549">
        <ele>301.8</ele>
        <time>2024-05-18T12:36:30Z</time>
      </trkpt>
      <trkpt lat="45.86293" lon="3.33546">
        <ele>301.6</ele>
        <time>2024-05-18T12:36:31Z</time>
      </trkpt>
      <trkpt lat="45.86286" lon="3.33542">
        <ele>301.6</ele>
        <time>2024-05-18T12:36:32Z</time>
      </trkpt>
      <trkpt lat="45.86278" lon="3.33538">
        <ele>301.6</ele>
        <time>2024-05-18T12:36:33Z</time>
      </trkpt>
      <trkpt lat="45.8627" lon="3.33534">
        <ele>301.6</ele>
        <time>2024-05-18T12:36:34Z</time>
      </trkpt>
      <trkpt lat="45.86262" lon="3.3353">
        <ele>301.4</ele>
        <time>2024-05-18T12:36:35Z</time>
      </trkpt>
      <trkpt lat="45.86255" lon="3.33526">
        <ele>301.4</ele>
        <time>2024-05-18T12:36:36Z</time>
      </trkpt>
      <trkpt lat="45.86247" lon="3.33522">
        <ele>301.4</ele>
        <time>2024-05-18T12:36:37Z</time>
      </trkpt>
      <trkpt lat="45.8624" lon="3.33519">
        <ele>301.4</ele>
        <time>2024-05-18T12:36:38Z</time>
      </trkpt>
      <trkpt lat="45.86233" lon="3.33515">
        <ele>301.2</ele>
        <time>2024-05-18T12:36:39Z</time>
      </trkpt>
      <trkpt lat="45.86227" lon="3.33512">
        <ele>301.2</ele>
        <time>2024-05-18T12:36:40Z</time>
      </trkpt>
      <trkpt lat="45.86222" lon="3.33509">
        <ele>301.2</ele>
        <time>2024-05-18T12:36:41Z</time>
      </trkpt>
      <trkpt lat="45.86216" lon="3.33505">
        <ele>301.2</ele>
        <time>2024-05-18T12:36:42Z</time>
      </trkpt>
      <trkpt lat="45.8621" lon="3.33501">
        <ele>301.2</ele>
        <time>2024-05-18T12:36:43Z</time>
      </trkpt>
      <trkpt lat="45.86205" lon="3.33495">
        <ele>301.2</ele>
        <time>2024-05-18T12:36:44Z</time>
      </trkpt>
      <trkpt lat="45.86201" lon="3.33488">
        <ele>301.2</ele>
        <time>2024-05-18T12:36:45Z</time>
      </trkpt>
      <trkpt lat="45.86197" lon="3.33482">
        <ele>301.2</ele>
        <time>2024-05-18T12:36:46Z</time>
      </trkpt>
      <trkpt lat="45.86194" lon="3.33474">
        <ele>301</ele>
        <time>2024-05-18T12:36:47Z</time>
      </trkpt>
      <trkpt lat="45.86191" lon="3.33467">
        <ele>301</ele>
        <time>2024-05-18T12:36:48Z</time>
      </trkpt>
      <trkpt lat="45.86188" lon="3.33459">
        <ele>301.2</ele>
        <time>2024-05-18T12:36:49Z</time>
      </trkpt>
      <trkpt lat="45.86185" lon="3.33452">
        <ele>301.2</ele>
        <time>2024-05-18T12:36:50Z</time>
      </trkpt>
      <trkpt lat="45.86182" lon="3.33445">
        <ele>301.2</ele>
        <time>2024-05-18T12:36:51Z</time>
      </trkpt>
      <trkpt lat="45.86179" lon="3.33438">
        <ele>301.2</ele>
        <time>2024-05-18T12:36:52Z</time>
      </trkpt>
      <trkpt lat="45.86176" lon="3.3343">
        <ele>301.2</ele>
        <time>2024-05-18T12:36:53Z</time>
      </trkpt>
      <trkpt lat="45.86173" lon="3.33423">
        <ele>301.2</ele>
        <time>2024-05-18T12:36:54Z</time>
      </trkpt>
      <trkpt lat="45.86172" lon="3.33415">
        <ele>301.2</ele>
        <time>2024-05-18T12:36:55Z</time>
      </trkpt>
      <trkpt lat="45.86169" lon="3.33406">
        <ele>301.2</ele>
        <time>2024-05-18T12:36:56Z</time>
      </trkpt>
      <trkpt lat="45.86167" lon="3.33398">
        <ele>301.2</ele>
        <time>2024-05-18T12:36:57Z</time>
      </trkpt>
      <trkpt lat="45.86164" lon="3.3339">
        <ele>301</ele>
        <time>2024-05-18T12:36:58Z</time>
      </trkpt>
      <trkpt lat="45.86162" lon="3.33382">
        <ele>301</ele>
        <time>2024-05-18T12:36:59Z</time>
      </trkpt>
      <trkpt lat="45.8616" lon="3.33374">
        <ele>301</ele>
        <time>2024-05-18T12:37:00Z</time>
      </trkpt>
      <trkpt lat="45.86157" lon="3.33366">
        <ele>301</ele>
        <time>2024-05-18T12:37:01Z</time>
      </trkpt>
      <trkpt lat="45.86155" lon="3.33358">
        <ele>301</ele>
        <time>2024-05-18T12:37:02Z</time>
      </trkpt>
      <trkpt lat="45.86153" lon="3.3335">
        <ele>301</ele>
        <time>2024-05-18T12:37:03Z</time>
      </trkpt>
      <trkpt lat="45.8615" lon="3.33342">
        <ele>301</ele>
        <time>2024-05-18T12:37:04Z</time>
      </trkpt>
      <trkpt lat="45.86148" lon="3.33334">
        <ele>300.8</ele>
        <time>2024-05-18T12:37:05Z</time>
      </trkpt>
      <trkpt lat="45.86145" lon="3.33325">
        <ele>300.8</ele>
        <time>2024-05-18T12:37:06Z</time>
      </trkpt>
      <trkpt lat="45.86143" lon="3.33317">
        <ele>300.8</ele>
        <time>2024-05-18T12:37:07Z</time>
      </trkpt>
      <trkpt lat="45.86141" lon="3.3331">
        <ele>300.8</ele>
        <time>2024-05-18T12:37:08Z</time>
      </trkpt>
      <trkpt lat="45.86138" lon="3.33302">
        <ele>300.8</ele>
        <time>2024-05-18T12:37:09Z</time>
      </trkpt>
      <trkpt lat="45.86136" lon="3.33294">
        <ele>300.8</ele>
        <time>2024-05-18T12:37:10Z</time>
      </trkpt>
      <trkpt lat="45.86134" lon="3.33286">
        <ele>300.8</ele>
        <time>2024-05-18T12:37:11Z</time>
      </trkpt>
      <trkpt lat="45.86132" lon="3.33279">
        <ele>300.8</ele>
        <time>2024-05-18T12:37:12Z</time>
      </trkpt>
      <trkpt lat="45.86129" lon="3.33272">
        <ele>301</ele>
        <time>2024-05-18T12:37:13Z</time>
      </trkpt>
      <trkpt lat="45.86127" lon="3.33265">
        <ele>301</ele>
        <time>2024-05-18T12:37:14Z</time>
      </trkpt>
      <trkpt lat="45.86125" lon="3.33258">
        <ele>301</ele>
        <time>2024-05-18T12:37:15Z</time>
      </trkpt>
      <trkpt lat="45.86123" lon="3.33251">
        <ele>301</ele>
        <time>2024-05-18T12:37:16Z</time>
      </trkpt>
      <trkpt lat="45.86122" lon="3.33244">
        <ele>301.2</ele>
        <time>2024-05-18T12:37:17Z</time>
      </trkpt>
      <trkpt lat="45.8612" lon="3.33237">
        <ele>301.2</ele>
        <time>2024-05-18T12:37:18Z</time>
      </trkpt>
      <trkpt lat="45.86119" lon="3.3323">
        <ele>301.2</ele>
        <time>2024-05-18T12:37:19Z</time>
      </trkpt>
      <trkpt lat="45.86117" lon="3.33223">
        <ele>301.2</ele>
        <time>2024-05-18T12:37:20Z</time>
      </trkpt>
      <trkpt lat="45.86116" lon="3.33217">
        <ele>301.4</ele>
        <time>2024-05-18T12:37:21Z</time>
      </trkpt>
      <trkpt lat="45.86115" lon="3.33209">
        <ele>301.4</ele>
        <time>2024-05-18T12:37:22Z</time>
      </trkpt>
      <trkpt lat="45.86115" lon="3.33202">
        <ele>301.4</ele>
        <time>2024-05-18T12:37:23Z</time>
      </trkpt>
      <trkpt lat="45.86114" lon="3.33195">
        <ele>301.6</ele>
        <time>2024-05-18T12:37:24Z</time>
      </trkpt>
      <trkpt lat="45.86114" lon="3.33188">
        <ele>301.6</ele>
        <time>2024-05-18T12:37:25Z</time>
      </trkpt>
      <trkpt lat="45.86113" lon="3.33181">
        <ele>301.6</ele>
        <time>2024-05-18T12:37:26Z</time>
      </trkpt>
      <trkpt lat="45.86113" lon="3.33173">
        <ele>301.6</ele>
        <time>2024-05-18T12:37:27Z</time>
      </trkpt>
      <trkpt lat="45.86112" lon="3.33165">
        <ele>301.8</ele>
        <time>2024-05-18T12:37:28Z</time>
      </trkpt>
      <trkpt lat="45.86111" lon="3.33158">
        <ele>301.8</ele>
        <time>2024-05-18T12:37:29Z</time>
      </trkpt>
      <trkpt lat="45.86111" lon="3.3315">
        <ele>302</ele>
        <time>2024-05-18T12:37:30Z</time>
      </trkpt>
      <trkpt lat="45.8611" lon="3.33142">
        <ele>302</ele>
        <time>2024-05-18T12:37:31Z</time>
      </trkpt>
      <trkpt lat="45.86109" lon="3.33134">
        <ele>302</ele>
        <time>2024-05-18T12:37:32Z</time>
      </trkpt>
      <trkpt lat="45.86109" lon="3.33126">
        <ele>302.2</ele>
        <time>2024-05-18T12:37:33Z</time>
      </trkpt>
      <trkpt lat="45.86108" lon="3.33117">
        <ele>302.2</ele>
        <time>2024-05-18T12:37:34Z</time>
      </trkpt>
      <trkpt lat="45.86107" lon="3.33109">
        <ele>302.2</ele>
        <time>2024-05-18T12:37:35Z</time>
      </trkpt>
      <trkpt lat="45.86106" lon="3.331">
        <ele>302.2</ele>
        <time>2024-05-18T12:37:36Z</time>
      </trkpt>
      <trkpt lat="45.86106" lon="3.33092">
        <ele>302.4</ele>
        <time>2024-05-18T12:37:37Z</time>
      </trkpt>
      <trkpt lat="45.86105" lon="3.33083">
        <ele>302.4</ele>
        <time>2024-05-18T12:37:38Z</time>
      </trkpt>
      <trkpt lat="45.86104" lon="3.33075">
        <ele>302.4</ele>
        <time>2024-05-18T12:37:39Z</time>
      </trkpt>
      <trkpt lat="45.86104" lon="3.33067">
        <ele>302.6</ele>
        <time>2024-05-18T12:37:40Z</time>
      </trkpt>
      <trkpt lat="45.86103" lon="3.33058">
        <ele>302.6</ele>
        <time>2024-05-18T12:37:41Z</time>
      </trkpt>
      <trkpt lat="45.86102" lon="3.3305">
        <ele>302.8</ele>
        <time>2024-05-18T12:37:42Z</time>
      </trkpt>
      <trkpt lat="45.86102" lon="3.33042">
        <ele>302.8</ele>
        <time>2024-05-18T12:37:43Z</time>
      </trkpt>
      <trkpt lat="45.86101" lon="3.33034">
        <ele>302.8</ele>
        <time>2024-05-18T12:37:44Z</time>
      </trkpt>
      <trkpt lat="45.861" lon="3.33026">
        <ele>303</ele>
        <time>2024-05-18T12:37:45Z</time>
      </trkpt>
      <trkpt lat="45.861" lon="3.33018">
        <ele>303</ele>
        <time>2024-05-18T12:37:46Z</time>
      </trkpt>
      <trkpt lat="45.86099" lon="3.33009">
        <ele>303</ele>
        <time>2024-05-18T12:37:47Z</time>
      </trkpt>
      <trkpt lat="45.86098" lon="3.33001">
        <ele>303.2</ele>
        <time>2024-05-18T12:37:48Z</time>
      </trkpt>
      <trkpt lat="45.86098" lon="3.32993">
        <ele>303.2</ele>
        <time>2024-05-18T12:37:49Z</time>
      </trkpt>
      <trkpt lat="45.86097" lon="3.32984">
        <ele>303.4</ele>
        <time>2024-05-18T12:37:50Z</time>
      </trkpt>
      <trkpt lat="45.86096" lon="3.32975">
        <ele>303.4</ele>
        <time>2024-05-18T12:37:51Z</time>
      </trkpt>
      <trkpt lat="45.86095" lon="3.32966">
        <ele>303.4</ele>
        <time>2024-05-18T12:37:52Z</time>
      </trkpt>
      <trkpt lat="45.86095" lon="3.32958">
        <ele>303.4</ele>
        <time>2024-05-18T12:37:53Z</time>
      </trkpt>
      <trkpt lat="45.86094" lon="3.32949">
        <ele>303.4</ele>
        <time>2024-05-18T12:37:54Z</time>
      </trkpt>
      <trkpt lat="45.86093" lon="3.3294">
        <ele>303.6</ele>
        <time>2024-05-18T12:37:55Z</time>
      </trkpt>
      <trkpt lat="45.86092" lon="3.32931">
        <ele>303.6</ele>
        <time>2024-05-18T12:37:56Z</time>
      </trkpt>
      <trkpt lat="45.86092" lon="3.32923">
        <ele>303.6</ele>
        <time>2024-05-18T12:37:57Z</time>
      </trkpt>
      <trkpt lat="45.86091" lon="3.32914">
        <ele>303.8</ele>
        <time>2024-05-18T12:37:58Z</time>
      </trkpt>
      <trkpt lat="45.8609" lon="3.32905">
        <ele>303.8</ele>
        <time>2024-05-18T12:37:59Z</time>
      </trkpt>
      <trkpt lat="45.86091" lon="3.32896">
        <ele>303.8</ele>
        <time>2024-05-18T12:38:00Z</time>
      </trkpt>
      <trkpt lat="45.86091" lon="3.32887">
        <ele>303.8</ele>
        <time>2024-05-18T12:38:01Z</time>
      </trkpt>
      <trkpt lat="45.86091" lon="3.32878">
        <ele>304</ele>
        <time>2024-05-18T12:38:02Z</time>
      </trkpt>
      <trkpt lat="45.86091" lon="3.32869">
        <ele>304</ele>
        <time>2024-05-18T12:38:03Z</time>
      </trkpt>
      <trkpt lat="45.86092" lon="3.32861">
        <ele>304</ele>
        <time>2024-05-18T12:38:04Z</time>
      </trkpt>
      <trkpt lat="45.86092" lon="3.32852">
        <ele>304</ele>
        <time>2024-05-18T12:38:05Z</time>
      </trkpt>
      <trkpt lat="45.86092" lon="3.32843">
        <ele>304.2</ele>
        <time>2024-05-18T12:38:06Z</time>
      </trkpt>
      <trkpt lat="45.86092" lon="3.32835">
        <ele>304.2</ele>
        <time>2024-05-18T12:38:07Z</time>
      </trkpt>
      <trkpt lat="45.86093" lon="3.32826">
        <ele>304.2</ele>
        <time>2024-05-18T12:38:08Z</time>
      </trkpt>
      <trkpt lat="45.86093" lon="3.32818">
        <ele>304.2</ele>
        <time>2024-05-18T12:38:09Z</time>
      </trkpt>
      <trkpt lat="45.86093" lon="3.32809">
        <ele>304.2</ele>
        <time>2024-05-18T12:38:10Z</time>
      </trkpt>
      <trkpt lat="45.86093" lon="3.32801">
        <ele>304.2</ele>
        <time>2024-05-18T12:38:11Z</time>
      </trkpt>
      <trkpt lat="45.86094" lon="3.32792">
        <ele>304.2</ele>
        <time>2024-05-18T12:38:12Z</time>
      </trkpt>
      <trkpt lat="45.86094" lon="3.32784">
        <ele>304.2</ele>
        <time>2024-05-18T12:38:13Z</time>
      </trkpt>
      <trkpt lat="45.86094" lon="3.32775">
        <ele>304.2</ele>
        <time>2024-05-18T12:38:14Z</time>
      </trkpt>
      <trkpt lat="45.86094" lon="3.32767">
        <ele>304.2</ele>
        <time>2024-05-18T12:38:15Z</time>
      </trkpt>
      <trkpt lat="45.86094" lon="3.32758">
        <ele>304.2</ele>
        <time>2024-05-18T12:38:16Z</time>
      </trkpt>
      <trkpt lat="45.86095" lon="3.3275">
        <ele>304</ele>
        <time>2024-05-18T12:38:17Z</time>
      </trkpt>
      <trkpt lat="45.86095" lon="3.32741">
        <ele>304</ele>
        <time>2024-05-18T12:38:18Z</time>
      </trkpt>
      <trkpt lat="45.86095" lon="3.32733">
        <ele>304</ele>
        <time>2024-05-18T12:38:19Z</time>
      </trkpt>
      <trkpt lat="45.86095" lon="3.32724">
        <ele>304</ele>
        <time>2024-05-18T12:38:20Z</time>
      </trkpt>
      <trkpt lat="45.86096" lon="3.32716">
        <ele>304</ele>
        <time>2024-05-18T12:38:21Z</time>
      </trkpt>
      <trkpt lat="45.86096" lon="3.32707">
        <ele>304.4</ele>
        <time>2024-05-18T12:38:22Z</time>
      </trkpt>
      <trkpt lat="45.86096" lon="3.32699">
        <ele>304</ele>
        <time>2024-05-18T12:38:23Z</time>
      </trkpt>
      <trkpt lat="45.86096" lon="3.3269">
        <ele>303.4</ele>
        <time>2024-05-18T12:38:24Z</time>
      </trkpt>
      <trkpt lat="45.86097" lon="3.32682">
        <ele>303.6</ele>
        <time>2024-05-18T12:38:25Z</time>
      </trkpt>
      <trkpt lat="45.86098" lon="3.32673">
        <ele>303.6</ele>
        <time>2024-05-18T12:38:26Z</time>
      </trkpt>
      <trkpt lat="45.86099" lon="3.32664">
        <ele>303.6</ele>
        <time>2024-05-18T12:38:27Z</time>
      </trkpt>
      <trkpt lat="45.861" lon="3.32656">
        <ele>303.4</ele>
        <time>2024-05-18T12:38:28Z</time>
      </trkpt>
      <trkpt lat="45.86102" lon="3.32647">
        <ele>303.2</ele>
        <time>2024-05-18T12:38:29Z</time>
      </trkpt>
      <trkpt lat="45.86103" lon="3.32639">
        <ele>303.2</ele>
        <time>2024-05-18T12:38:30Z</time>
      </trkpt>
      <trkpt lat="45.86105" lon="3.3263">
        <ele>303</ele>
        <time>2024-05-18T12:38:31Z</time>
      </trkpt>
      <trkpt lat="45.86106" lon="3.32622">
        <ele>303</ele>
        <time>2024-05-18T12:38:32Z</time>
      </trkpt>
      <trkpt lat="45.86108" lon="3.32613">
        <ele>302.8</ele>
        <time>2024-05-18T12:38:33Z</time>
      </trkpt>
      <trkpt lat="45.86109" lon="3.32605">
        <ele>302.8</ele>
        <time>2024-05-18T12:38:34Z</time>
      </trkpt>
      <trkpt lat="45.8611" lon="3.32596">
        <ele>302.6</ele>
        <time>2024-05-18T12:38:35Z</time>
      </trkpt>
      <trkpt lat="45.86112" lon="3.32588">
        <ele>302.4</ele>
        <time>2024-05-18T12:38:36Z</time>
      </trkpt>
      <trkpt lat="45.86113" lon="3.32579">
        <ele>302.4</ele>
        <time>2024-05-18T12:38:37Z</time>
      </trkpt>
      <trkpt lat="45.86115" lon="3.32571">
        <ele>302.2</ele>
        <time>2024-05-18T12:38:38Z</time>
      </trkpt>
      <trkpt lat="45.86116" lon="3.32562">
        <ele>302</ele>
        <time>2024-05-18T12:38:39Z</time>
      </trkpt>
      <trkpt lat="45.86117" lon="3.32554">
        <ele>302</ele>
        <time>2024-05-18T12:38:40Z</time>
      </trkpt>
      <trkpt lat="45.86118" lon="3.32546">
        <ele>302</ele>
        <time>2024-05-18T12:38:41Z</time>
      </trkpt>
      <trkpt lat="45.86117" lon="3.32537">
        <ele>301.8</ele>
        <time>2024-05-18T12:38:42Z</time>
      </trkpt>
      <trkpt lat="45.86117" lon="3.32528">
        <ele>301.8</ele>
        <time>2024-05-18T12:38:43Z</time>
      </trkpt>
      <trkpt lat="45.86116" lon="3.3252">
        <ele>301.8</ele>
        <time>2024-05-18T12:38:44Z</time>
      </trkpt>
      <trkpt lat="45.86115" lon="3.32511">
        <ele>301.8</ele>
        <time>2024-05-18T12:38:45Z</time>
      </trkpt>
      <trkpt lat="45.86115" lon="3.32502">
        <ele>301.8</ele>
        <time>2024-05-18T12:38:46Z</time>
      </trkpt>
      <trkpt lat="45.86114" lon="3.32493">
        <ele>301.6</ele>
        <time>2024-05-18T12:38:47Z</time>
      </trkpt>
      <trkpt lat="45.86114" lon="3.32484">
        <ele>301.6</ele>
        <time>2024-05-18T12:38:48Z</time>
      </trkpt>
      <trkpt lat="45.86113" lon="3.32474">
        <ele>301.8</ele>
        <time>2024-05-18T12:38:49Z</time>
      </trkpt>
      <trkpt lat="45.86112" lon="3.32465">
        <ele>301.8</ele>
        <time>2024-05-18T12:38:50Z</time>
      </trkpt>
      <trkpt lat="45.86111" lon="3.32456">
        <ele>301.8</ele>
        <time>2024-05-18T12:38:51Z</time>
      </trkpt>
      <trkpt lat="45.86108" lon="3.32447">
        <ele>301.8</ele>
        <time>2024-05-18T12:38:52Z</time>
      </trkpt>
      <trkpt lat="45.86105" lon="3.32438">
        <ele>301.6</ele>
        <time>2024-05-18T12:38:53Z</time>
      </trkpt>
      <trkpt lat="45.86102" lon="3.32429">
        <ele>301.6</ele>
        <time>2024-05-18T12:38:54Z</time>
      </trkpt>
      <trkpt lat="45.86099" lon="3.3242">
        <ele>301.4</ele>
        <time>2024-05-18T12:38:55Z</time>
      </trkpt>
      <trkpt lat="45.86096" lon="3.3241">
        <ele>301.4</ele>
        <time>2024-05-18T12:38:56Z</time>
      </trkpt>
      <trkpt lat="45.86093" lon="3.32401">
        <ele>301.2</ele>
        <time>2024-05-18T12:38:57Z</time>
      </trkpt>
      <trkpt lat="45.8609" lon="3.32392">
        <ele>301.2</ele>
        <time>2024-05-18T12:38:58Z</time>
      </trkpt>
      <trkpt lat="45.86087" lon="3.32382">
        <ele>301</ele>
        <time>2024-05-18T12:38:59Z</time>
      </trkpt>
      <trkpt lat="45.86084" lon="3.32372">
        <ele>301</ele>
        <time>2024-05-18T12:39:00Z</time>
      </trkpt>
      <trkpt lat="45.86081" lon="3.32362">
        <ele>301</ele>
        <time>2024-05-18T12:39:01Z</time>
      </trkpt>
      <trkpt lat="45.86077" lon="3.32351">
        <ele>300.8</ele>
        <time>2024-05-18T12:39:02Z</time>
      </trkpt>
      <trkpt lat="45.86074" lon="3.3234">
        <ele>300.6</ele>
        <time>2024-05-18T12:39:03Z</time>
      </trkpt>
      <trkpt lat="45.8607" lon="3.32328">
        <ele>300.6</ele>
        <time>2024-05-18T12:39:04Z</time>
      </trkpt>
      <trkpt lat="45.86066" lon="3.32316">
        <ele>300.4</ele>
        <time>2024-05-18T12:39:05Z</time>
      </trkpt>
      <trkpt lat="45.86063" lon="3.32304">
        <ele>300.2</ele>
        <time>2024-05-18T12:39:06Z</time>
      </trkpt>
      <trkpt lat="45.86059" lon="3.32292">
        <ele>300.2</ele>
        <time>2024-05-18T12:39:07Z</time>
      </trkpt>
      <trkpt lat="45.86054" lon="3.32279">
        <ele>300</ele>
        <time>2024-05-18T12:39:08Z</time>
      </trkpt>
      <trkpt lat="45.86051" lon="3.32264">
        <ele>299.8</ele>
        <time>2024-05-18T12:39:09Z</time>
      </trkpt>
      <trkpt lat="45.86049" lon="3.3225">
        <ele>299.8</ele>
        <time>2024-05-18T12:39:10Z</time>
      </trkpt>
      <trkpt lat="45.86048" lon="3.32235">
        <ele>299.6</ele>
        <time>2024-05-18T12:39:11Z</time>
      </trkpt>
      <trkpt lat="45.86046" lon="3.32221">
        <ele>299.4</ele>
        <time>2024-05-18T12:39:12Z</time>
      </trkpt>
      <trkpt lat="45.86045" lon="3.32206">
        <ele>299.4</ele>
        <time>2024-05-18T12:39:13Z</time>
      </trkpt>
      <trkpt lat="45.86045" lon="3.32192">
        <ele>299.2</ele>
        <time>2024-05-18T12:39:14Z</time>
      </trkpt>
      <trkpt lat="45.86044" lon="3.32178">
        <ele>299.2</ele>
        <time>2024-05-18T12:39:15Z</time>
      </trkpt>
      <trkpt lat="45.86043" lon="3.32164">
        <ele>299</ele>
        <time>2024-05-18T12:39:16Z</time>
      </trkpt>
      <trkpt lat="45.86043" lon="3.3215">
        <ele>299</ele>
        <time>2024-05-18T12:39:17Z</time>
      </trkpt>
      <trkpt lat="45.86042" lon="3.32136">
        <ele>298.8</ele>
        <time>2024-05-18T12:39:18Z</time>
      </trkpt>
      <trkpt lat="45.86042" lon="3.32122">
        <ele>298.8</ele>
        <time>2024-05-18T12:39:19Z</time>
      </trkpt>
      <trkpt lat="45.86041" lon="3.32109">
        <ele>298.8</ele>
        <time>2024-05-18T12:39:20Z</time>
      </trkpt>
      <trkpt lat="45.86041" lon="3.32096">
        <ele>298.6</ele>
        <time>2024-05-18T12:39:21Z</time>
      </trkpt>
      <trkpt lat="45.86041" lon="3.32096">
        <ele>298.6</ele>
        <time>2024-05-18T12:39:22Z</time>
      </trkpt>
      <trkpt lat="45.8604" lon="3.32071">
        <ele>298.6</ele>
        <time>2024-05-18T12:39:23Z</time>
      </trkpt>
      <trkpt lat="45.86039" lon="3.32059">
        <ele>298.6</ele>
        <time>2024-05-18T12:39:24Z</time>
      </trkpt>
      <trkpt lat="45.86039" lon="3.32046">
        <ele>298.4</ele>
        <time>2024-05-18T12:39:25Z</time>
      </trkpt>
      <trkpt lat="45.86039" lon="3.32034">
        <ele>298.4</ele>
        <time>2024-05-18T12:39:26Z</time>
      </trkpt>
      <trkpt lat="45.86039" lon="3.32022">
        <ele>298.4</ele>
        <time>2024-05-18T12:39:27Z</time>
      </trkpt>
      <trkpt lat="45.86039" lon="3.3201">
        <ele>298.2</ele>
        <time>2024-05-18T12:39:28Z</time>
      </trkpt>
      <trkpt lat="45.86039" lon="3.31999">
        <ele>298.2</ele>
        <time>2024-05-18T12:39:29Z</time>
      </trkpt>
      <trkpt lat="45.86039" lon="3.31987">
        <ele>298.4</ele>
        <time>2024-05-18T12:39:30Z</time>
      </trkpt>
      <trkpt lat="45.8604" lon="3.31976">
        <ele>298.2</ele>
        <time>2024-05-18T12:39:31Z</time>
      </trkpt>
      <trkpt lat="45.8604" lon="3.31965">
        <ele>298.2</ele>
        <time>2024-05-18T12:39:32Z</time>
      </trkpt>
      <trkpt lat="45.8604" lon="3.31954">
        <ele>298.2</ele>
        <time>2024-05-18T12:39:33Z</time>
      </trkpt>
      <trkpt lat="45.8604" lon="3.31943">
        <ele>298.2</ele>
        <time>2024-05-18T12:39:34Z</time>
      </trkpt>
      <trkpt lat="45.8604" lon="3.31932">
        <ele>298.2</ele>
        <time>2024-05-18T12:39:35Z</time>
      </trkpt>
      <trkpt lat="45.8604" lon="3.31921">
        <ele>298.2</ele>
        <time>2024-05-18T12:39:36Z</time>
      </trkpt>
      <trkpt lat="45.8604" lon="3.31911">
        <ele>298</ele>
        <time>2024-05-18T12:39:37Z</time>
      </trkpt>
      <trkpt lat="45.8604" lon="3.319">
        <ele>298</ele>
        <time>2024-05-18T12:39:38Z</time>
      </trkpt>
      <trkpt lat="45.86041" lon="3.3189">
        <ele>298</ele>
        <time>2024-05-18T12:39:39Z</time>
      </trkpt>
      <trkpt lat="45.86041" lon="3.31879">
        <ele>298</ele>
        <time>2024-05-18T12:39:40Z</time>
      </trkpt>
      <trkpt lat="45.86041" lon="3.31869">
        <ele>297.8</ele>
        <time>2024-05-18T12:39:41Z</time>
      </trkpt>
      <trkpt lat="45.86041" lon="3.31859">
        <ele>297.8</ele>
        <time>2024-05-18T12:39:42Z</time>
      </trkpt>
      <trkpt lat="45.86041" lon="3.31849">
        <ele>297.8</ele>
        <time>2024-05-18T12:39:43Z</time>
      </trkpt>
      <trkpt lat="45.86041" lon="3.31838">
        <ele>297.8</ele>
        <time>2024-05-18T12:39:44Z</time>
      </trkpt>
      <trkpt lat="45.86041" lon="3.31828">
        <ele>297.8</ele>
        <time>2024-05-18T12:39:45Z</time>
      </trkpt>
      <trkpt lat="45.86041" lon="3.31818">
        <ele>297.8</ele>
        <time>2024-05-18T12:39:46Z</time>
      </trkpt>
      <trkpt lat="45.86041" lon="3.31808">
        <ele>297.8</ele>
        <time>2024-05-18T12:39:47Z</time>
      </trkpt>
      <trkpt lat="45.86041" lon="3.31798">
        <ele>297.8</ele>
        <time>2024-05-18T12:39:48Z</time>
      </trkpt>
      <trkpt lat="45.86041" lon="3.31787">
        <ele>297.8</ele>
        <time>2024-05-18T12:39:49Z</time>
      </trkpt>
      <trkpt lat="45.86041" lon="3.31777">
        <ele>297.8</ele>
        <time>2024-05-18T12:39:50Z</time>
      </trkpt>
      <trkpt lat="45.86041" lon="3.31766">
        <ele>297.8</ele>
        <time>2024-05-18T12:39:51Z</time>
      </trkpt>
      <trkpt lat="45.86041" lon="3.31756">
        <ele>297.6</ele>
        <time>2024-05-18T12:39:52Z</time>
      </trkpt>
      <trkpt lat="45.86041" lon="3.31746">
        <ele>297.8</ele>
        <time>2024-05-18T12:39:53Z</time>
      </trkpt>
      <trkpt lat="45.86041" lon="3.31736">
        <ele>297.8</ele>
        <time>2024-05-18T12:39:54Z</time>
      </trkpt>
      <trkpt lat="45.86042" lon="3.31725">
        <ele>297.8</ele>
        <time>2024-05-18T12:39:55Z</time>
      </trkpt>
      <trkpt lat="45.86042" lon="3.31715">
        <ele>297.6</ele>
        <time>2024-05-18T12:39:56Z</time>
      </trkpt>
      <trkpt lat="45.86042" lon="3.31705">
        <ele>297.6</ele>
        <time>2024-05-18T12:39:57Z</time>
      </trkpt>
      <trkpt lat="45.86042" lon="3.31694">
        <ele>297.6</ele>
        <time>2024-05-18T12:39:58Z</time>
      </trkpt>
      <trkpt lat="45.86042" lon="3.31684">
        <ele>297.6</ele>
        <time>2024-05-18T12:39:59Z</time>
      </trkpt>
      <trkpt lat="45.86042" lon="3.31673">
        <ele>297.6</ele>
        <time>2024-05-18T12:40:00Z</time>
      </trkpt>
      <trkpt lat="45.86042" lon="3.31662">
        <ele>297.6</ele>
        <time>2024-05-18T12:40:01Z</time>
      </trkpt>
      <trkpt lat="45.86042" lon="3.31652">
        <ele>297.6</ele>
        <time>2024-05-18T12:40:02Z</time>
      </trkpt>
      <trkpt lat="45.86042" lon="3.31642">
        <ele>297.6</ele>
        <time>2024-05-18T12:40:03Z</time>
      </trkpt>
      <trkpt lat="45.86042" lon="3.31631">
        <ele>297.6</ele>
        <time>2024-05-18T12:40:04Z</time>
      </trkpt>
      <trkpt lat="45.86042" lon="3.31621">
        <ele>297.6</ele>
        <time>2024-05-18T12:40:05Z</time>
      </trkpt>
      <trkpt lat="45.86042" lon="3.3161">
        <ele>297.6</ele>
        <time>2024-05-18T12:40:06Z</time>
      </trkpt>
      <trkpt lat="45.86042" lon="3.316">
        <ele>297.6</ele>
        <time>2024-05-18T12:40:07Z</time>
      </trkpt>
      <trkpt lat="45.86042" lon="3.3159">
        <ele>297.4</ele>
        <time>2024-05-18T12:40:08Z</time>
      </trkpt>
      <trkpt lat="45.86042" lon="3.31579">
        <ele>297.4</ele>
        <time>2024-05-18T12:40:09Z</time>
      </trkpt>
      <trkpt lat="45.86042" lon="3.31569">
        <ele>297.4</ele>
        <time>2024-05-18T12:40:10Z</time>
      </trkpt>
      <trkpt lat="45.86042" lon="3.31558">
        <ele>297.4</ele>
        <time>2024-05-18T12:40:11Z</time>
      </trkpt>
      <trkpt lat="45.86042" lon="3.31547">
        <ele>297.4</ele>
        <time>2024-05-18T12:40:12Z</time>
      </trkpt>
      <trkpt lat="45.86042" lon="3.31537">
        <ele>297.2</ele>
        <time>2024-05-18T12:40:13Z</time>
      </trkpt>
      <trkpt lat="45.86042" lon="3.31526">
        <ele>297.2</ele>
        <time>2024-05-18T12:40:14Z</time>
      </trkpt>
      <trkpt lat="45.86042" lon="3.31516">
        <ele>297.4</ele>
        <time>2024-05-18T12:40:15Z</time>
      </trkpt>
      <trkpt lat="45.86043" lon="3.31505">
        <ele>297.2</ele>
        <time>2024-05-18T12:40:16Z</time>
      </trkpt>
      <trkpt lat="45.86043" lon="3.31495">
        <ele>297.2</ele>
        <time>2024-05-18T12:40:17Z</time>
      </trkpt>
      <trkpt lat="45.86043" lon="3.31484">
        <ele>297.2</ele>
        <time>2024-05-18T12:40:18Z</time>
      </trkpt>
      <trkpt lat="45.86043" lon="3.31474">
        <ele>297.2</ele>
        <time>2024-05-18T12:40:19Z</time>
      </trkpt>
      <trkpt lat="45.86043" lon="3.31464">
        <ele>297.2</ele>
        <time>2024-05-18T12:40:20Z</time>
      </trkpt>
      <trkpt lat="45.86043" lon="3.31455">
        <ele>297.2</ele>
        <time>2024-05-18T12:40:21Z</time>
      </trkpt>
      <trkpt lat="45.86043" lon="3.31444">
        <ele>297.2</ele>
        <time>2024-05-18T12:40:22Z</time>
      </trkpt>
      <trkpt lat="45.86043" lon="3.31434">
        <ele>297.2</ele>
        <time>2024-05-18T12:40:23Z</time>
      </trkpt>
      <trkpt lat="45.86043" lon="3.31425">
        <ele>297.2</ele>
        <time>2024-05-18T12:40:24Z</time>
      </trkpt>
      <trkpt lat="45.86043" lon="3.31415">
        <ele>297.2</ele>
        <time>2024-05-18T12:40:25Z</time>
      </trkpt>
      <trkpt lat="45.86043" lon="3.31405">
        <ele>297.2</ele>
        <time>2024-05-18T12:40:26Z</time>
      </trkpt>
      <trkpt lat="45.86043" lon="3.31395">
        <ele>297.2</ele>
        <time>2024-05-18T12:40:27Z</time>
      </trkpt>
      <trkpt lat="45.86043" lon="3.31385">
        <ele>297.2</ele>
        <time>2024-05-18T12:40:28Z</time>
      </trkpt>
      <trkpt lat="45.86043" lon="3.31375">
        <ele>297.2</ele>
        <time>2024-05-18T12:40:29Z</time>
      </trkpt>
      <trkpt lat="45.86044" lon="3.31365">
        <ele>297.2</ele>
        <time>2024-05-18T12:40:30Z</time>
      </trkpt>
      <trkpt lat="45.86045" lon="3.31355">
        <ele>297.2</ele>
        <time>2024-05-18T12:40:31Z</time>
      </trkpt>
      <trkpt lat="45.86047" lon="3.31346">
        <ele>297.2</ele>
        <time>2024-05-18T12:40:32Z</time>
      </trkpt>
      <trkpt lat="45.86049" lon="3.31336">
        <ele>297.2</ele>
        <time>2024-05-18T12:40:33Z</time>
      </trkpt>
      <trkpt lat="45.8605" lon="3.31326">
        <ele>297.2</ele>
        <time>2024-05-18T12:40:34Z</time>
      </trkpt>
      <trkpt lat="45.86052" lon="3.31317">
        <ele>297.2</ele>
        <time>2024-05-18T12:40:35Z</time>
      </trkpt>
      <trkpt lat="45.86054" lon="3.31307">
        <ele>297.2</ele>
        <time>2024-05-18T12:40:36Z</time>
      </trkpt>
      <trkpt lat="45.86055" lon="3.31298">
        <ele>297.2</ele>
        <time>2024-05-18T12:40:37Z</time>
      </trkpt>
      <trkpt lat="45.86057" lon="3.31288">
        <ele>297.2</ele>
        <time>2024-05-18T12:40:38Z</time>
      </trkpt>
      <trkpt lat="45.86058" lon="3.31279">
        <ele>297.2</ele>
        <time>2024-05-18T12:40:39Z</time>
      </trkpt>
      <trkpt lat="45.8606" lon="3.31269">
        <ele>297.2</ele>
        <time>2024-05-18T12:40:40Z</time>
      </trkpt>
      <trkpt lat="45.86061" lon="3.3126">
        <ele>297.2</ele>
        <time>2024-05-18T12:40:41Z</time>
      </trkpt>
      <trkpt lat="45.86063" lon="3.31251">
        <ele>297.2</ele>
        <time>2024-05-18T12:40:42Z</time>
      </trkpt>
      <trkpt lat="45.86065" lon="3.31241">
        <ele>297.2</ele>
        <time>2024-05-18T12:40:43Z</time>
      </trkpt>
      <trkpt lat="45.86066" lon="3.31232">
        <ele>297.2</ele>
        <time>2024-05-18T12:40:44Z</time>
      </trkpt>
      <trkpt lat="45.86068" lon="3.31222">
        <ele>297.2</ele>
        <time>2024-05-18T12:40:45Z</time>
      </trkpt>
      <trkpt lat="45.86069" lon="3.31213">
        <ele>297.2</ele>
        <time>2024-05-18T12:40:46Z</time>
      </trkpt>
      <trkpt lat="45.86071" lon="3.31204">
        <ele>297.2</ele>
        <time>2024-05-18T12:40:47Z</time>
      </trkpt>
      <trkpt lat="45.86073" lon="3.31194">
        <ele>297.2</ele>
        <time>2024-05-18T12:40:48Z</time>
      </trkpt>
      <trkpt lat="45.86075" lon="3.31185">
        <ele>297.2</ele>
        <time>2024-05-18T12:40:49Z</time>
      </trkpt>
      <trkpt lat="45.86077" lon="3.31176">
        <ele>297.4</ele>
        <time>2024-05-18T12:40:50Z</time>
      </trkpt>
      <trkpt lat="45.86079" lon="3.31166">
        <ele>297.4</ele>
        <time>2024-05-18T12:40:51Z</time>
      </trkpt>
      <trkpt lat="45.86081" lon="3.31157">
        <ele>297.4</ele>
        <time>2024-05-18T12:40:52Z</time>
      </trkpt>
      <trkpt lat="45.86083" lon="3.31148">
        <ele>297.4</ele>
        <time>2024-05-18T12:40:53Z</time>
      </trkpt>
      <trkpt lat="45.86084" lon="3.31138">
        <ele>297.4</ele>
        <time>2024-05-18T12:40:54Z</time>
      </trkpt>
      <trkpt lat="45.86086" lon="3.31129">
        <ele>297.4</ele>
        <time>2024-05-18T12:40:55Z</time>
      </trkpt>
      <trkpt lat="45.86088" lon="3.3112">
        <ele>297.4</ele>
        <time>2024-05-18T12:40:56Z</time>
      </trkpt>
      <trkpt lat="45.8609" lon="3.31111">
        <ele>297.4</ele>
        <time>2024-05-18T12:40:57Z</time>
      </trkpt>
      <trkpt lat="45.86092" lon="3.31101">
        <ele>297.4</ele>
        <time>2024-05-18T12:40:58Z</time>
      </trkpt>
      <trkpt lat="45.86094" lon="3.31092">
        <ele>297.4</ele>
        <time>2024-05-18T12:40:59Z</time>
      </trkpt>
      <trkpt lat="45.86096" lon="3.31083">
        <ele>297.4</ele>
        <time>2024-05-18T12:41:00Z</time>
      </trkpt>
      <trkpt lat="45.86098" lon="3.31074">
        <ele>297.4</ele>
        <time>2024-05-18T12:41:01Z</time>
      </trkpt>
      <trkpt lat="45.861" lon="3.31064">
        <ele>297.4</ele>
        <time>2024-05-18T12:41:02Z</time>
      </trkpt>
      <trkpt lat="45.86102" lon="3.31055">
        <ele>297.4</ele>
        <time>2024-05-18T12:41:03Z</time>
      </trkpt>
      <trkpt lat="45.86104" lon="3.31046">
        <ele>297.4</ele>
        <time>2024-05-18T12:41:04Z</time>
      </trkpt>
      <trkpt lat="45.86105" lon="3.31037">
        <ele>297.4</ele>
        <time>2024-05-18T12:41:05Z</time>
      </trkpt>
      <trkpt lat="45.86107" lon="3.31027">
        <ele>297.4</ele>
        <time>2024-05-18T12:41:06Z</time>
      </trkpt>
      <trkpt lat="45.86109" lon="3.31018">
        <ele>297.4</ele>
        <time>2024-05-18T12:41:07Z</time>
      </trkpt>
      <trkpt lat="45.86111" lon="3.31008">
        <ele>297.4</ele>
        <time>2024-05-18T12:41:08Z</time>
      </trkpt>
      <trkpt lat="45.86113" lon="3.30999">
        <ele>297.4</ele>
        <time>2024-05-18T12:41:09Z</time>
      </trkpt>
      <trkpt lat="45.86115" lon="3.3099">
        <ele>297.4</ele>
        <time>2024-05-18T12:41:10Z</time>
      </trkpt>
      <trkpt lat="45.86117" lon="3.30981">
        <ele>297.4</ele>
        <time>2024-05-18T12:41:11Z</time>
      </trkpt>
      <trkpt lat="45.86119" lon="3.30972">
        <ele>297.2</ele>
        <time>2024-05-18T12:41:12Z</time>
      </trkpt>
      <trkpt lat="45.86121" lon="3.30963">
        <ele>297.2</ele>
        <time>2024-05-18T12:41:13Z</time>
      </trkpt>
      <trkpt lat="45.86122" lon="3.30954">
        <ele>297.2</ele>
        <time>2024-05-18T12:41:14Z</time>
      </trkpt>
      <trkpt lat="45.86124" lon="3.30946">
        <ele>297.2</ele>
        <time>2024-05-18T12:41:15Z</time>
      </trkpt>
      <trkpt lat="45.86126" lon="3.30937">
        <ele>297.2</ele>
        <time>2024-05-18T12:41:16Z</time>
      </trkpt>
      <trkpt lat="45.86128" lon="3.30929">
        <ele>297.2</ele>
        <time>2024-05-18T12:41:17Z</time>
      </trkpt>
      <trkpt lat="45.8613" lon="3.3092">
        <ele>297.2</ele>
        <time>2024-05-18T12:41:18Z</time>
      </trkpt>
      <trkpt lat="45.86131" lon="3.30912">
        <ele>297.2</ele>
        <time>2024-05-18T12:41:19Z</time>
      </trkpt>
      <trkpt lat="45.86133" lon="3.30903">
        <ele>297.2</ele>
        <time>2024-05-18T12:41:20Z</time>
      </trkpt>
      <trkpt lat="45.86135" lon="3.30895">
        <ele>297</ele>
        <time>2024-05-18T12:41:21Z</time>
      </trkpt>
      <trkpt lat="45.86137" lon="3.30887">
        <ele>297</ele>
        <time>2024-05-18T12:41:22Z</time>
      </trkpt>
      <trkpt lat="45.86138" lon="3.30879">
        <ele>297</ele>
        <time>2024-05-18T12:41:23Z</time>
      </trkpt>
      <trkpt lat="45.8614" lon="3.3087">
        <ele>297</ele>
        <time>2024-05-18T12:41:24Z</time>
      </trkpt>
      <trkpt lat="45.86142" lon="3.30862">
        <ele>296.8</ele>
        <time>2024-05-18T12:41:25Z</time>
      </trkpt>
      <trkpt lat="45.86143" lon="3.30854">
        <ele>296.8</ele>
        <time>2024-05-18T12:41:26Z</time>
      </trkpt>
      <trkpt lat="45.86145" lon="3.30846">
        <ele>296.6</ele>
        <time>2024-05-18T12:41:27Z</time>
      </trkpt>
      <trkpt lat="45.86146" lon="3.30838">
        <ele>296.6</ele>
        <time>2024-05-18T12:41:28Z</time>
      </trkpt>
      <trkpt lat="45.86148" lon="3.3083">
        <ele>296.6</ele>
        <time>2024-05-18T12:41:29Z</time>
      </trkpt>
      <trkpt lat="45.86149" lon="3.30822">
        <ele>296.4</ele>
        <time>2024-05-18T12:41:30Z</time>
      </trkpt>
      <trkpt lat="45.86151" lon="3.30814">
        <ele>296.4</ele>
        <time>2024-05-18T12:41:31Z</time>
      </trkpt>
      <trkpt lat="45.86153" lon="3.30806">
        <ele>296.4</ele>
        <time>2024-05-18T12:41:32Z</time>
      </trkpt>
      <trkpt lat="45.86154" lon="3.30798">
        <ele>296.4</ele>
        <time>2024-05-18T12:41:33Z</time>
      </trkpt>
      <trkpt lat="45.86156" lon="3.3079">
        <ele>296.2</ele>
        <time>2024-05-18T12:41:34Z</time>
      </trkpt>
      <trkpt lat="45.86158" lon="3.30782">
        <ele>296.2</ele>
        <time>2024-05-18T12:41:35Z</time>
      </trkpt>
      <trkpt lat="45.86159" lon="3.30774">
        <ele>296.2</ele>
        <time>2024-05-18T12:41:36Z</time>
      </trkpt>
      <trkpt lat="45.86161" lon="3.30766">
        <ele>296</ele>
        <time>2024-05-18T12:41:37Z</time>
      </trkpt>
      <trkpt lat="45.86162" lon="3.30757">
        <ele>296</ele>
        <time>2024-05-18T12:41:38Z</time>
      </trkpt>
      <trkpt lat="45.86164" lon="3.30749">
        <ele>296</ele>
        <time>2024-05-18T12:41:39Z</time>
      </trkpt>
      <trkpt lat="45.86166" lon="3.30741">
        <ele>296</ele>
        <time>2024-05-18T12:41:40Z</time>
      </trkpt>
      <trkpt lat="45.86168" lon="3.30733">
        <ele>296</ele>
        <time>2024-05-18T12:41:41Z</time>
      </trkpt>
      <trkpt lat="45.86169" lon="3.30724">
        <ele>296.2</ele>
        <time>2024-05-18T12:41:42Z</time>
      </trkpt>
      <trkpt lat="45.86171" lon="3.30716">
        <ele>296.2</ele>
        <time>2024-05-18T12:41:43Z</time>
      </trkpt>
      <trkpt lat="45.86173" lon="3.30708">
        <ele>296.2</ele>
        <time>2024-05-18T12:41:44Z</time>
      </trkpt>
      <trkpt lat="45.86175" lon="3.30699">
        <ele>296.2</ele>
        <time>2024-05-18T12:41:45Z</time>
      </trkpt>
      <trkpt lat="45.86176" lon="3.30691">
        <ele>296.2</ele>
        <time>2024-05-18T12:41:46Z</time>
      </trkpt>
      <trkpt lat="45.86178" lon="3.30682">
        <ele>296.4</ele>
        <time>2024-05-18T12:41:47Z</time>
      </trkpt>
      <trkpt lat="45.8618" lon="3.30673">
        <ele>296.4</ele>
        <time>2024-05-18T12:41:48Z</time>
      </trkpt>
      <trkpt lat="45.86182" lon="3.30665">
        <ele>296.2</ele>
        <time>2024-05-18T12:41:49Z</time>
      </trkpt>
      <trkpt lat="45.86184" lon="3.30656">
        <ele>296.4</ele>
        <time>2024-05-18T12:41:50Z</time>
      </trkpt>
      <trkpt lat="45.86185" lon="3.30647">
        <ele>296</ele>
        <time>2024-05-18T12:41:51Z</time>
      </trkpt>
      <trkpt lat="45.86187" lon="3.30638">
        <ele>295.8</ele>
        <time>2024-05-18T12:41:52Z</time>
      </trkpt>
      <trkpt lat="45.86189" lon="3.30629">
        <ele>296.2</ele>
        <time>2024-05-18T12:41:53Z</time>
      </trkpt>
      <trkpt lat="45.86191" lon="3.3062">
        <ele>296.2</ele>
        <time>2024-05-18T12:41:54Z</time>
      </trkpt>
      <trkpt lat="45.86193" lon="3.30611">
        <ele>296.4</ele>
        <time>2024-05-18T12:41:55Z</time>
      </trkpt>
      <trkpt lat="45.86195" lon="3.30602">
        <ele>296.4</ele>
        <time>2024-05-18T12:41:56Z</time>
      </trkpt>
      <trkpt lat="45.86197" lon="3.30593">
        <ele>296.6</ele>
        <time>2024-05-18T12:41:57Z</time>
      </trkpt>
      <trkpt lat="45.86199" lon="3.30584">
        <ele>296.6</ele>
        <time>2024-05-18T12:41:58Z</time>
      </trkpt>
      <trkpt lat="45.86201" lon="3.30575">
        <ele>296.6</ele>
        <time>2024-05-18T12:41:59Z</time>
      </trkpt>
      <trkpt lat="45.86203" lon="3.30565">
        <ele>296.4</ele>
        <time>2024-05-18T12:42:00Z</time>
      </trkpt>
      <trkpt lat="45.86205" lon="3.30556">
        <ele>296.2</ele>
        <time>2024-05-18T12:42:01Z</time>
      </trkpt>
      <trkpt lat="45.86207" lon="3.30547">
        <ele>296.2</ele>
        <time>2024-05-18T12:42:02Z</time>
      </trkpt>
      <trkpt lat="45.86208" lon="3.30537">
        <ele>296.2</ele>
        <time>2024-05-18T12:42:03Z</time>
      </trkpt>
      <trkpt lat="45.86209" lon="3.30527">
        <ele>296</ele>
        <time>2024-05-18T12:42:04Z</time>
      </trkpt>
      <trkpt lat="45.8621" lon="3.30518">
        <ele>296.2</ele>
        <time>2024-05-18T12:42:05Z</time>
      </trkpt>
      <trkpt lat="45.86211" lon="3.30508">
        <ele>296</ele>
        <time>2024-05-18T12:42:06Z</time>
      </trkpt>
      <trkpt lat="45.86212" lon="3.30497">
        <ele>296</ele>
        <time>2024-05-18T12:42:07Z</time>
      </trkpt>
      <trkpt lat="45.86212" lon="3.30487">
        <ele>296</ele>
        <time>2024-05-18T12:42:08Z</time>
      </trkpt>
      <trkpt lat="45.86213" lon="3.30477">
        <ele>295.8</ele>
        <time>2024-05-18T12:42:09Z</time>
      </trkpt>
      <trkpt lat="45.86214" lon="3.30467">
        <ele>295.8</ele>
        <time>2024-05-18T12:42:10Z</time>
      </trkpt>
      <trkpt lat="45.86215" lon="3.30458">
        <ele>295.6</ele>
        <time>2024-05-18T12:42:11Z</time>
      </trkpt>
      <trkpt lat="45.86215" lon="3.30448">
        <ele>295.6</ele>
        <time>2024-05-18T12:42:12Z</time>
      </trkpt>
      <trkpt lat="45.86216" lon="3.30439">
        <ele>295.4</ele>
        <time>2024-05-18T12:42:13Z</time>
      </trkpt>
      <trkpt lat="45.86217" lon="3.3043">
        <ele>295.4</ele>
        <time>2024-05-18T12:42:14Z</time>
      </trkpt>
      <trkpt lat="45.86218" lon="3.3042">
        <ele>295.2</ele>
        <time>2024-05-18T12:42:15Z</time>
      </trkpt>
      <trkpt lat="45.86218" lon="3.30411">
        <ele>295.2</ele>
        <time>2024-05-18T12:42:16Z</time>
      </trkpt>
      <trkpt lat="45.86219" lon="3.30403">
        <ele>295.2</ele>
        <time>2024-05-18T12:42:17Z</time>
      </trkpt>
      <trkpt lat="45.8622" lon="3.30394">
        <ele>295.2</ele>
        <time>2024-05-18T12:42:18Z</time>
      </trkpt>
      <trkpt lat="45.8622" lon="3.30387">
        <ele>295.2</ele>
        <time>2024-05-18T12:42:19Z</time>
      </trkpt>
      <trkpt lat="45.86221" lon="3.30379">
        <ele>295.2</ele>
        <time>2024-05-18T12:42:20Z</time>
      </trkpt>
      <trkpt lat="45.86221" lon="3.30372">
        <ele>295.2</ele>
        <time>2024-05-18T12:42:21Z</time>
      </trkpt>
      <trkpt lat="45.8622" lon="3.30368">
        <ele>295.2</ele>
        <time>2024-05-18T12:42:22Z</time>
      </trkpt>
      <trkpt lat="45.86216" lon="3.30366">
        <ele>295.4</ele>
        <time>2024-05-18T12:42:23Z</time>
      </trkpt>
      <trkpt lat="45.86212" lon="3.30364">
        <ele>295.4</ele>
        <time>2024-05-18T12:42:24Z</time>
      </trkpt>
      <trkpt lat="45.86207" lon="3.30362">
        <ele>295.6</ele>
        <time>2024-05-18T12:42:25Z</time>
      </trkpt>
      <trkpt lat="45.86203" lon="3.30359">
        <ele>295.4</ele>
        <time>2024-05-18T12:42:26Z</time>
      </trkpt>
      <trkpt lat="45.86198" lon="3.30357">
        <ele>296.4</ele>
        <time>2024-05-18T12:42:27Z</time>
      </trkpt>
      <trkpt lat="45.86193" lon="3.30355">
        <ele>296</ele>
        <time>2024-05-18T12:42:28Z</time>
      </trkpt>
      <trkpt lat="45.86188" lon="3.30352">
        <ele>296.2</ele>
        <time>2024-05-18T12:42:29Z</time>
      </trkpt>
      <trkpt lat="45.86183" lon="3.3035">
        <ele>296.2</ele>
        <time>2024-05-18T12:42:30Z</time>
      </trkpt>
      <trkpt lat="45.86179" lon="3.30346">
        <ele>296.4</ele>
        <time>2024-05-18T12:42:31Z</time>
      </trkpt>
      <trkpt lat="45.86176" lon="3.30341">
        <ele>296.6</ele>
        <time>2024-05-18T12:42:32Z</time>
      </trkpt>
      <trkpt lat="45.86172" lon="3.30337">
        <ele>296.8</ele>
        <time>2024-05-18T12:42:33Z</time>
      </trkpt>
      <trkpt lat="45.86167" lon="3.30332">
        <ele>297</ele>
        <time>2024-05-18T12:42:34Z</time>
      </trkpt>
      <trkpt lat="45.86163" lon="3.30328">
        <ele>297</ele>
        <time>2024-05-18T12:42:35Z</time>
      </trkpt>
      <trkpt lat="45.86159" lon="3.30323">
        <ele>297.2</ele>
        <time>2024-05-18T12:42:36Z</time>
      </trkpt>
      <trkpt lat="45.86155" lon="3.30319">
        <ele>297.4</ele>
        <time>2024-05-18T12:42:37Z</time>
      </trkpt>
      <trkpt lat="45.86151" lon="3.30314">
        <ele>297.4</ele>
        <time>2024-05-18T12:42:38Z</time>
      </trkpt>
      <trkpt lat="45.86147" lon="3.3031">
        <ele>297.6</ele>
        <time>2024-05-18T12:42:39Z</time>
      </trkpt>
      <trkpt lat="45.86143" lon="3.30305">
        <ele>297.8</ele>
        <time>2024-05-18T12:42:40Z</time>
      </trkpt>
      <trkpt lat="45.86139" lon="3.303">
        <ele>298</ele>
        <time>2024-05-18T12:42:41Z</time>
      </trkpt>
      <trkpt lat="45.86135" lon="3.30296">
        <ele>298.2</ele>
        <time>2024-05-18T12:42:42Z</time>
      </trkpt>
      <trkpt lat="45.86131" lon="3.30291">
        <ele>298.2</ele>
        <time>2024-05-18T12:42:43Z</time>
      </trkpt>
      <trkpt lat="45.86127" lon="3.30287">
        <ele>298.4</ele>
        <time>2024-05-18T12:42:44Z</time>
      </trkpt>
      <trkpt lat="45.86123" lon="3.30282">
        <ele>298.6</ele>
        <time>2024-05-18T12:42:45Z</time>
      </trkpt>
      <trkpt lat="45.86119" lon="3.30277">
        <ele>298.6</ele>
        <time>2024-05-18T12:42:46Z</time>
      </trkpt>
      <trkpt lat="45.86114" lon="3.30272">
        <ele>298.8</ele>
        <time>2024-05-18T12:42:47Z</time>
      </trkpt>
      <trkpt lat="45.8611" lon="3.30267">
        <ele>298.8</ele>
        <time>2024-05-18T12:42:48Z</time>
      </trkpt>
      <trkpt lat="45.86106" lon="3.30262">
        <ele>299</ele>
        <time>2024-05-18T12:42:49Z</time>
      </trkpt>
      <trkpt lat="45.86102" lon="3.30257">
        <ele>299.2</ele>
        <time>2024-05-18T12:42:50Z</time>
      </trkpt>
      <trkpt lat="45.86098" lon="3.30251">
        <ele>299.4</ele>
        <time>2024-05-18T12:42:51Z</time>
      </trkpt>
      <trkpt lat="45.86094" lon="3.30246">
        <ele>299.4</ele>
        <time>2024-05-18T12:42:52Z</time>
      </trkpt>
      <trkpt lat="45.8609" lon="3.30241">
        <ele>299.6</ele>
        <time>2024-05-18T12:42:53Z</time>
      </trkpt>
      <trkpt lat="45.86085" lon="3.30237">
        <ele>299.6</ele>
        <time>2024-05-18T12:42:54Z</time>
      </trkpt>
      <trkpt lat="45.86081" lon="3.30232">
        <ele>299.8</ele>
        <time>2024-05-18T12:42:55Z</time>
      </trkpt>
      <trkpt lat="45.86076" lon="3.30227">
        <ele>300</ele>
        <time>2024-05-18T12:42:56Z</time>
      </trkpt>
      <trkpt lat="45.86072" lon="3.30222">
        <ele>300.2</ele>
        <time>2024-05-18T12:42:57Z</time>
      </trkpt>
      <trkpt lat="45.86067" lon="3.30217">
        <ele>300.4</ele>
        <time>2024-05-18T12:42:58Z</time>
      </trkpt>
      <trkpt lat="45.86063" lon="3.30212">
        <ele>300.6</ele>
        <time>2024-05-18T12:42:59Z</time>
      </trkpt>
      <trkpt lat="45.86059" lon="3.30207">
        <ele>300.8</ele>
        <time>2024-05-18T12:43:00Z</time>
      </trkpt>
      <trkpt lat="45.86054" lon="3.30203">
        <ele>300.8</ele>
        <time>2024-05-18T12:43:01Z</time>
      </trkpt>
      <trkpt lat="45.86049" lon="3.30198">
        <ele>301</ele>
        <time>2024-05-18T12:43:02Z</time>
      </trkpt>
      <trkpt lat="45.86045" lon="3.30193">
        <ele>301</ele>
        <time>2024-05-18T12:43:03Z</time>
      </trkpt>
      <trkpt lat="45.8604" lon="3.30188">
        <ele>301.2</ele>
        <time>2024-05-18T12:43:04Z</time>
      </trkpt>
      <trkpt lat="45.86036" lon="3.30183">
        <ele>301.4</ele>
        <time>2024-05-18T12:43:05Z</time>
      </trkpt>
      <trkpt lat="45.86031" lon="3.30178">
        <ele>301.4</ele>
        <time>2024-05-18T12:43:06Z</time>
      </trkpt>
      <trkpt lat="45.86027" lon="3.30173">
        <ele>301.6</ele>
        <time>2024-05-18T12:43:07Z</time>
      </trkpt>
      <trkpt lat="45.86022" lon="3.30168">
        <ele>301.8</ele>
        <time>2024-05-18T12:43:08Z</time>
      </trkpt>
      <trkpt lat="45.86017" lon="3.30163">
        <ele>301.8</ele>
        <time>2024-05-18T12:43:09Z</time>
      </trkpt>
      <trkpt lat="45.86014" lon="3.30157">
        <ele>302</ele>
        <time>2024-05-18T12:43:10Z</time>
      </trkpt>
      <trkpt lat="45.8601" lon="3.3015">
        <ele>302.2</ele>
        <time>2024-05-18T12:43:11Z</time>
      </trkpt>
      <trkpt lat="45.86007" lon="3.30144">
        <ele>302.2</ele>
        <time>2024-05-18T12:43:12Z</time>
      </trkpt>
      <trkpt lat="45.86003" lon="3.30138">
        <ele>302.4</ele>
        <time>2024-05-18T12:43:13Z</time>
      </trkpt>
      <trkpt lat="45.86" lon="3.30132">
        <ele>302.4</ele>
        <time>2024-05-18T12:43:14Z</time>
      </trkpt>
      <trkpt lat="45.85996" lon="3.30126">
        <ele>302.6</ele>
        <time>2024-05-18T12:43:15Z</time>
      </trkpt>
      <trkpt lat="45.85993" lon="3.3012">
        <ele>302.6</ele>
        <time>2024-05-18T12:43:16Z</time>
      </trkpt>
      <trkpt lat="45.8599" lon="3.30115">
        <ele>302.8</ele>
        <time>2024-05-18T12:43:17Z</time>
      </trkpt>
      <trkpt lat="45.85992" lon="3.30109">
        <ele>302.8</ele>
        <time>2024-05-18T12:43:18Z</time>
      </trkpt>
      <trkpt lat="45.85995" lon="3.30104">
        <ele>303</ele>
        <time>2024-05-18T12:43:19Z</time>
      </trkpt>
      <trkpt lat="45.85998" lon="3.301">
        <ele>303</ele>
        <time>2024-05-18T12:43:20Z</time>
      </trkpt>
      <trkpt lat="45.86" lon="3.30098">
        <ele>303.2</ele>
        <time>2024-05-18T12:43:21Z</time>
      </trkpt>
      <trkpt lat="45.86" lon="3.30096">
        <ele>303.2</ele>
        <time>2024-05-18T12:43:22Z</time>
      </trkpt>
      <trkpt lat="45.86001" lon="3.30095">
        <ele>303.4</ele>
        <time>2024-05-18T12:43:23Z</time>
      </trkpt>
      <trkpt lat="45.86002" lon="3.30093">
        <ele>303.4</ele>
        <time>2024-05-18T12:43:24Z</time>
      </trkpt>
      <trkpt lat="45.86005" lon="3.3009">
        <ele>303.6</ele>
        <time>2024-05-18T12:43:25Z</time>
      </trkpt>
      <trkpt lat="45.86008" lon="3.3009">
        <ele>303.6</ele>
        <time>2024-05-18T12:43:26Z</time>
      </trkpt>
      <trkpt lat="45.86012" lon="3.3009">
        <ele>303.6</ele>
        <time>2024-05-18T12:43:27Z</time>
      </trkpt>
      <trkpt lat="45.86016" lon="3.3009">
        <ele>303.8</ele>
        <time>2024-05-18T12:43:28Z</time>
      </trkpt>
      <trkpt lat="45.86022" lon="3.30091">
        <ele>304</ele>
        <time>2024-05-18T12:43:29Z</time>
      </trkpt>
      <trkpt lat="45.86027" lon="3.30092">
        <ele>304</ele>
        <time>2024-05-18T12:43:30Z</time>
      </trkpt>
      <trkpt lat="45.86032" lon="3.30093">
        <ele>304.2</ele>
        <time>2024-05-18T12:43:31Z</time>
      </trkpt>
      <trkpt lat="45.86038" lon="3.30094">
        <ele>304.2</ele>
        <time>2024-05-18T12:43:32Z</time>
      </trkpt>
      <trkpt lat="45.86044" lon="3.30095">
        <ele>304.4</ele>
        <time>2024-05-18T12:43:33Z</time>
      </trkpt>
      <trkpt lat="45.8605" lon="3.30096">
        <ele>304.4</ele>
        <time>2024-05-18T12:43:34Z</time>
      </trkpt>
      <trkpt lat="45.86055" lon="3.30097">
        <ele>304.6</ele>
        <time>2024-05-18T12:43:35Z</time>
      </trkpt>
      <trkpt lat="45.86061" lon="3.30098">
        <ele>304.6</ele>
        <time>2024-05-18T12:43:36Z</time>
      </trkpt>
      <trkpt lat="45.86066" lon="3.30099">
        <ele>304.8</ele>
        <time>2024-05-18T12:43:37Z</time>
      </trkpt>
      <trkpt lat="45.86072" lon="3.30101">
        <ele>304.8</ele>
        <time>2024-05-18T12:43:38Z</time>
      </trkpt>
      <trkpt lat="45.86078" lon="3.30102">
        <ele>304.8</ele>
        <time>2024-05-18T12:43:39Z</time>
      </trkpt>
      <trkpt lat="45.86084" lon="3.30103">
        <ele>304.8</ele>
        <time>2024-05-18T12:43:40Z</time>
      </trkpt>
      <trkpt lat="45.8609" lon="3.30104">
        <ele>305</ele>
        <time>2024-05-18T12:43:41Z</time>
      </trkpt>
      <trkpt lat="45.86095" lon="3.30105">
        <ele>305</ele>
        <time>2024-05-18T12:43:42Z</time>
      </trkpt>
      <trkpt lat="45.861" lon="3.30106">
        <ele>305</ele>
        <time>2024-05-18T12:43:43Z</time>
      </trkpt>
      <trkpt lat="45.86105" lon="3.30107">
        <ele>305.2</ele>
        <time>2024-05-18T12:43:44Z</time>
      </trkpt>
      <trkpt lat="45.8611" lon="3.30108">
        <ele>305.4</ele>
        <time>2024-05-18T12:43:45Z</time>
      </trkpt>
      <trkpt lat="45.86115" lon="3.30109">
        <ele>305.4</ele>
        <time>2024-05-18T12:43:46Z</time>
      </trkpt>
      <trkpt lat="45.8612" lon="3.3011">
        <ele>305.4</ele>
        <time>2024-05-18T12:43:47Z</time>
      </trkpt>
      <trkpt lat="45.86125" lon="3.30111">
        <ele>305.6</ele>
        <time>2024-05-18T12:43:48Z</time>
      </trkpt>
      <trkpt lat="45.8613" lon="3.30112">
        <ele>305.8</ele>
        <time>2024-05-18T12:43:49Z</time>
      </trkpt>
      <trkpt lat="45.86135" lon="3.30113">
        <ele>306</ele>
        <time>2024-05-18T12:43:50Z</time>
      </trkpt>
      <trkpt lat="45.8614" lon="3.30114">
        <ele>306.2</ele>
        <time>2024-05-18T12:43:51Z</time>
      </trkpt>
      <trkpt lat="45.86145" lon="3.30115">
        <ele>306.2</ele>
        <time>2024-05-18T12:43:52Z</time>
      </trkpt>
      <trkpt lat="45.86151" lon="3.30116">
        <ele>306.4</ele>
        <time>2024-05-18T12:43:53Z</time>
      </trkpt>
      <trkpt lat="45.86156" lon="3.30117">
        <ele>306.6</ele>
        <time>2024-05-18T12:43:54Z</time>
      </trkpt>
      <trkpt lat="45.86161" lon="3.30118">
        <ele>306.6</ele>
        <time>2024-05-18T12:43:55Z</time>
      </trkpt>
      <trkpt lat="45.86166" lon="3.30119">
        <ele>306.8</ele>
        <time>2024-05-18T12:43:56Z</time>
      </trkpt>
      <trkpt lat="45.86171" lon="3.3012">
        <ele>307</ele>
        <time>2024-05-18T12:43:57Z</time>
      </trkpt>
      <trkpt lat="45.86176" lon="3.30121">
        <ele>307</ele>
        <time>2024-05-18T12:43:58Z</time>
      </trkpt>
      <trkpt lat="45.86181" lon="3.30123">
        <ele>307.2</ele>
        <time>2024-05-18T12:43:59Z</time>
      </trkpt>
      <trkpt lat="45.86187" lon="3.30125">
        <ele>307.4</ele>
        <time>2024-05-18T12:44:00Z</time>
      </trkpt>
      <trkpt lat="45.86192" lon="3.30127">
        <ele>307.4</ele>
        <time>2024-05-18T12:44:01Z</time>
      </trkpt>
      <trkpt lat="45.86197" lon="3.30129">
        <ele>307.6</ele>
        <time>2024-05-18T12:44:02Z</time>
      </trkpt>
      <trkpt lat="45.86202" lon="3.30132">
        <ele>307.8</ele>
        <time>2024-05-18T12:44:03Z</time>
      </trkpt>
      <trkpt lat="45.86207" lon="3.30135">
        <ele>308</ele>
        <time>2024-05-18T12:44:04Z</time>
      </trkpt>
      <trkpt lat="45.86212" lon="3.30138">
        <ele>308</ele>
        <time>2024-05-18T12:44:05Z</time>
      </trkpt>
      <trkpt lat="45.86217" lon="3.30141">
        <ele>308.2</ele>
        <time>2024-05-18T12:44:06Z</time>
      </trkpt>
      <trkpt lat="45.86223" lon="3.30144">
        <ele>308.4</ele>
        <time>2024-05-18T12:44:07Z</time>
      </trkpt>
      <trkpt lat="45.86229" lon="3.30147">
        <ele>308.6</ele>
        <time>2024-05-18T12:44:08Z</time>
      </trkpt>
      <trkpt lat="45.86234" lon="3.3015">
        <ele>308.6</ele>
        <time>2024-05-18T12:44:09Z</time>
      </trkpt>
      <trkpt lat="45.8624" lon="3.30153">
        <ele>308.8</ele>
        <time>2024-05-18T12:44:10Z</time>
      </trkpt>
      <trkpt lat="45.86245" lon="3.30156">
        <ele>308.8</ele>
        <time>2024-05-18T12:44:11Z</time>
      </trkpt>
      <trkpt lat="45.86251" lon="3.30159">
        <ele>309</ele>
        <time>2024-05-18T12:44:12Z</time>
      </trkpt>
      <trkpt lat="45.86259" lon="3.30163">
        <ele>309</ele>
        <time>2024-05-18T12:44:13Z</time>
      </trkpt>
      <trkpt lat="45.86266" lon="3.30167">
        <ele>309</ele>
        <time>2024-05-18T12:44:14Z</time>
      </trkpt>
      <trkpt lat="45.86272" lon="3.3017">
        <ele>309</ele>
        <time>2024-05-18T12:44:15Z</time>
      </trkpt>
      <trkpt lat="45.86278" lon="3.30173">
        <ele>309.2</ele>
        <time>2024-05-18T12:44:16Z</time>
      </trkpt>
      <trkpt lat="45.86284" lon="3.30176">
        <ele>309.2</ele>
        <time>2024-05-18T12:44:17Z</time>
      </trkpt>
      <trkpt lat="45.86289" lon="3.30179">
        <ele>309.4</ele>
        <time>2024-05-18T12:44:18Z</time>
      </trkpt>
      <trkpt lat="45.86295" lon="3.30182">
        <ele>309.6</ele>
        <time>2024-05-18T12:44:19Z</time>
      </trkpt>
      <trkpt lat="45.86301" lon="3.30185">
        <ele>309.6</ele>
        <time>2024-05-18T12:44:20Z</time>
      </trkpt>
      <trkpt lat="45.86307" lon="3.30188">
        <ele>309.8</ele>
        <time>2024-05-18T12:44:21Z</time>
      </trkpt>
      <trkpt lat="45.86314" lon="3.30191">
        <ele>309.8</ele>
        <time>2024-05-18T12:44:22Z</time>
      </trkpt>
      <trkpt lat="45.8632" lon="3.30193">
        <ele>310</ele>
        <time>2024-05-18T12:44:23Z</time>
      </trkpt>
      <trkpt lat="45.86327" lon="3.30196">
        <ele>310.2</ele>
        <time>2024-05-18T12:44:24Z</time>
      </trkpt>
      <trkpt lat="45.86333" lon="3.30198">
        <ele>310.2</ele>
        <time>2024-05-18T12:44:25Z</time>
      </trkpt>
      <trkpt lat="45.8634" lon="3.302">
        <ele>310.4</ele>
        <time>2024-05-18T12:44:26Z</time>
      </trkpt>
      <trkpt lat="45.86345" lon="3.30203">
        <ele>310.4</ele>
        <time>2024-05-18T12:44:27Z</time>
      </trkpt>
      <trkpt lat="45.86352" lon="3.30205">
        <ele>310.6</ele>
        <time>2024-05-18T12:44:28Z</time>
      </trkpt>
      <trkpt lat="45.86359" lon="3.30208">
        <ele>310.6</ele>
        <time>2024-05-18T12:44:29Z</time>
      </trkpt>
      <trkpt lat="45.86366" lon="3.30213">
        <ele>310.6</ele>
        <time>2024-05-18T12:44:30Z</time>
      </trkpt>
      <trkpt lat="45.86372" lon="3.30217">
        <ele>310.6</ele>
        <time>2024-05-18T12:44:31Z</time>
      </trkpt>
      <trkpt lat="45.86378" lon="3.30221">
        <ele>310.8</ele>
        <time>2024-05-18T12:44:32Z</time>
      </trkpt>
      <trkpt lat="45.86384" lon="3.30225">
        <ele>310.8</ele>
        <time>2024-05-18T12:44:33Z</time>
      </trkpt>
      <trkpt lat="45.8639" lon="3.30229">
        <ele>310.8</ele>
        <time>2024-05-18T12:44:34Z</time>
      </trkpt>
      <trkpt lat="45.86396" lon="3.30233">
        <ele>311</ele>
        <time>2024-05-18T12:44:35Z</time>
      </trkpt>
      <trkpt lat="45.86402" lon="3.30235">
        <ele>311</ele>
        <time>2024-05-18T12:44:36Z</time>
      </trkpt>
      <trkpt lat="45.86408" lon="3.30237">
        <ele>311</ele>
        <time>2024-05-18T12:44:37Z</time>
      </trkpt>
      <trkpt lat="45.86414" lon="3.30239">
        <ele>311.2</ele>
        <time>2024-05-18T12:44:38Z</time>
      </trkpt>
      <trkpt lat="45.8642" lon="3.30241">
        <ele>311.2</ele>
        <time>2024-05-18T12:44:39Z</time>
      </trkpt>
      <trkpt lat="45.86425" lon="3.30243">
        <ele>311.4</ele>
        <time>2024-05-18T12:44:40Z</time>
      </trkpt>
      <trkpt lat="45.86431" lon="3.30245">
        <ele>311.6</ele>
        <time>2024-05-18T12:44:41Z</time>
      </trkpt>
      <trkpt lat="45.86437" lon="3.30247">
        <ele>311.6</ele>
        <time>2024-05-18T12:44:42Z</time>
      </trkpt>
      <trkpt lat="45.86443" lon="3.30249">
        <ele>311.8</ele>
        <time>2024-05-18T12:44:43Z</time>
      </trkpt>
      <trkpt lat="45.86448" lon="3.30251">
        <ele>311.8</ele>
        <time>2024-05-18T12:44:44Z</time>
      </trkpt>
      <trkpt lat="45.86454" lon="3.30253">
        <ele>311.8</ele>
        <time>2024-05-18T12:44:45Z</time>
      </trkpt>
      <trkpt lat="45.86461" lon="3.30254">
        <ele>312</ele>
        <time>2024-05-18T12:44:46Z</time>
      </trkpt>
      <trkpt lat="45.86467" lon="3.30256">
        <ele>312</ele>
        <time>2024-05-18T12:44:47Z</time>
      </trkpt>
      <trkpt lat="45.86474" lon="3.30258">
        <ele>312.2</ele>
        <time>2024-05-18T12:44:48Z</time>
      </trkpt>
      <trkpt lat="45.86481" lon="3.3026">
        <ele>312.4</ele>
        <time>2024-05-18T12:44:49Z</time>
      </trkpt>
      <trkpt lat="45.86487" lon="3.30261">
        <ele>312.6</ele>
        <time>2024-05-18T12:44:50Z</time>
      </trkpt>
      <trkpt lat="45.86493" lon="3.30262">
        <ele>312.6</ele>
        <time>2024-05-18T12:44:51Z</time>
      </trkpt>
      <trkpt lat="45.865" lon="3.30263">
        <ele>312.8</ele>
        <time>2024-05-18T12:44:52Z</time>
      </trkpt>
      <trkpt lat="45.86506" lon="3.30264">
        <ele>313</ele>
        <time>2024-05-18T12:44:53Z</time>
      </trkpt>
      <trkpt lat="45.86512" lon="3.30265">
        <ele>313.2</ele>
        <time>2024-05-18T12:44:54Z</time>
      </trkpt>
      <trkpt lat="45.86519" lon="3.30266">
        <ele>313.2</ele>
        <time>2024-05-18T12:44:55Z</time>
      </trkpt>
      <trkpt lat="45.86527" lon="3.30267">
        <ele>313.4</ele>
        <time>2024-05-18T12:44:56Z</time>
      </trkpt>
      <trkpt lat="45.86534" lon="3.30268">
        <ele>313.4</ele>
        <time>2024-05-18T12:44:57Z</time>
      </trkpt>
      <trkpt lat="45.86541" lon="3.30269">
        <ele>313.6</ele>
        <time>2024-05-18T12:44:58Z</time>
      </trkpt>
      <trkpt lat="45.86541" lon="3.30269">
        <ele>313.6</ele>
        <time>2024-05-18T12:44:59Z</time>
      </trkpt>
      <trkpt lat="45.86551" lon="3.30256">
        <ele>313.8</ele>
        <time>2024-05-18T12:45:00Z</time>
      </trkpt>
      <trkpt lat="45.86554" lon="3.30248">
        <ele>313.8</ele>
        <time>2024-05-18T12:45:01Z</time>
      </trkpt>
      <trkpt lat="45.86557" lon="3.30239">
        <ele>313.8</ele>
        <time>2024-05-18T12:45:02Z</time>
      </trkpt>
      <trkpt lat="45.8656" lon="3.30231">
        <ele>314</ele>
        <time>2024-05-18T12:45:03Z</time>
      </trkpt>
      <trkpt lat="45.86563" lon="3.30221">
        <ele>314</ele>
        <time>2024-05-18T12:45:04Z</time>
      </trkpt>
      <trkpt lat="45.86565" lon="3.30212">
        <ele>314.2</ele>
        <time>2024-05-18T12:45:05Z</time>
      </trkpt>
      <trkpt lat="45.86566" lon="3.30203">
        <ele>314.2</ele>
        <time>2024-05-18T12:45:06Z</time>
      </trkpt>
      <trkpt lat="45.86568" lon="3.30193">
        <ele>314.4</ele>
        <time>2024-05-18T12:45:07Z</time>
      </trkpt>
      <trkpt lat="45.86569" lon="3.30184">
        <ele>314.6</ele>
        <time>2024-05-18T12:45:08Z</time>
      </trkpt>
      <trkpt lat="45.86571" lon="3.30175">
        <ele>314.6</ele>
        <time>2024-05-18T12:45:09Z</time>
      </trkpt>
      <trkpt lat="45.86572" lon="3.30166">
        <ele>314.8</ele>
        <time>2024-05-18T12:45:10Z</time>
      </trkpt>
      <trkpt lat="45.86573" lon="3.30157">
        <ele>314.8</ele>
        <time>2024-05-18T12:45:11Z</time>
      </trkpt>
      <trkpt lat="45.86575" lon="3.30148">
        <ele>315</ele>
        <time>2024-05-18T12:45:12Z</time>
      </trkpt>
      <trkpt lat="45.86576" lon="3.3014">
        <ele>315.2</ele>
        <time>2024-05-18T12:45:13Z</time>
      </trkpt>
      <trkpt lat="45.86576" lon="3.3014">
        <ele>315.2</ele>
        <time>2024-05-18T12:45:14Z</time>
      </trkpt>
      <trkpt lat="45.86576" lon="3.3014">
        <ele>315.4</ele>
        <time>2024-05-18T12:45:15Z</time>
      </trkpt>
      <trkpt lat="45.86581" lon="3.30113">
        <ele>315.4</ele>
        <time>2024-05-18T12:45:16Z</time>
      </trkpt>
      <trkpt lat="45.86581" lon="3.30113">
        <ele>315.6</ele>
        <time>2024-05-18T12:45:17Z</time>
      </trkpt>
      <trkpt lat="45.86583" lon="3.30096">
        <ele>315.6</ele>
        <time>2024-05-18T12:45:18Z</time>
      </trkpt>
      <trkpt lat="45.86585" lon="3.30087">
        <ele>315.8</ele>
        <time>2024-05-18T12:45:19Z</time>
      </trkpt>
      <trkpt lat="45.86586" lon="3.30079">
        <ele>315.8</ele>
        <time>2024-05-18T12:45:20Z</time>
      </trkpt>
      <trkpt lat="45.86588" lon="3.3007">
        <ele>316</ele>
        <time>2024-05-18T12:45:21Z</time>
      </trkpt>
      <trkpt lat="45.86588" lon="3.3007">
        <ele>316</ele>
        <time>2024-05-18T12:45:22Z</time>
      </trkpt>
      <trkpt lat="45.86591" lon="3.30052">
        <ele>316.2</ele>
        <time>2024-05-18T12:45:23Z</time>
      </trkpt>
      <trkpt lat="45.86591" lon="3.30052">
        <ele>316.2</ele>
        <time>2024-05-18T12:45:24Z</time>
      </trkpt>
      <trkpt lat="45.86594" lon="3.30034">
        <ele>316.4</ele>
        <time>2024-05-18T12:45:25Z</time>
      </trkpt>
      <trkpt lat="45.86595" lon="3.30025">
        <ele>316.4</ele>
        <time>2024-05-18T12:45:26Z</time>
      </trkpt>
      <trkpt lat="45.86595" lon="3.30025">
        <ele>316.6</ele>
        <time>2024-05-18T12:45:27Z</time>
      </trkpt>
      <trkpt lat="45.86598" lon="3.30008">
        <ele>316.6</ele>
        <time>2024-05-18T12:45:28Z</time>
      </trkpt>
      <trkpt lat="45.86598" lon="3.30008">
        <ele>316.6</ele>
        <time>2024-05-18T12:45:29Z</time>
      </trkpt>
      <trkpt lat="45.86602" lon="3.29991">
        <ele>316.6</ele>
        <time>2024-05-18T12:45:30Z</time>
      </trkpt>
      <trkpt lat="45.86605" lon="3.29982">
        <ele>316.6</ele>
        <time>2024-05-18T12:45:31Z</time>
      </trkpt>
      <trkpt lat="45.86607" lon="3.29973">
        <ele>316.8</ele>
        <time>2024-05-18T12:45:32Z</time>
      </trkpt>
      <trkpt lat="45.86609" lon="3.29965">
        <ele>316.8</ele>
        <time>2024-05-18T12:45:33Z</time>
      </trkpt>
      <trkpt lat="45.86612" lon="3.29956">
        <ele>316.8</ele>
        <time>2024-05-18T12:45:34Z</time>
      </trkpt>
      <trkpt lat="45.86614" lon="3.29948">
        <ele>317</ele>
        <time>2024-05-18T12:45:35Z</time>
      </trkpt>
      <trkpt lat="45.86617" lon="3.29939">
        <ele>317</ele>
        <time>2024-05-18T12:45:36Z</time>
      </trkpt>
      <trkpt lat="45.86619" lon="3.2993">
        <ele>317</ele>
        <time>2024-05-18T12:45:37Z</time>
      </trkpt>
      <trkpt lat="45.86622" lon="3.29922">
        <ele>317</ele>
        <time>2024-05-18T12:45:38Z</time>
      </trkpt>
      <trkpt lat="45.86624" lon="3.29913">
        <ele>317</ele>
        <time>2024-05-18T12:45:39Z</time>
      </trkpt>
      <trkpt lat="45.86627" lon="3.29905">
        <ele>317</ele>
        <time>2024-05-18T12:45:40Z</time>
      </trkpt>
      <trkpt lat="45.86629" lon="3.29896">
        <ele>317</ele>
        <time>2024-05-18T12:45:41Z</time>
      </trkpt>
      <trkpt lat="45.86631" lon="3.29888">
        <ele>317.2</ele>
        <time>2024-05-18T12:45:42Z</time>
      </trkpt>
      <trkpt lat="45.86634" lon="3.29879">
        <ele>317.2</ele>
        <time>2024-05-18T12:45:43Z</time>
      </trkpt>
      <trkpt lat="45.86636" lon="3.2987">
        <ele>317.2</ele>
        <time>2024-05-18T12:45:44Z</time>
      </trkpt>
      <trkpt lat="45.86639" lon="3.29862">
        <ele>317.2</ele>
        <time>2024-05-18T12:45:45Z</time>
      </trkpt>
      <trkpt lat="45.86641" lon="3.29853">
        <ele>317.2</ele>
        <time>2024-05-18T12:45:46Z</time>
      </trkpt>
      <trkpt lat="45.86644" lon="3.29844">
        <ele>317.2</ele>
        <time>2024-05-18T12:45:47Z</time>
      </trkpt>
      <trkpt lat="45.86647" lon="3.29836">
        <ele>317.2</ele>
        <time>2024-05-18T12:45:48Z</time>
      </trkpt>
      <trkpt lat="45.8665" lon="3.29827">
        <ele>317.2</ele>
        <time>2024-05-18T12:45:49Z</time>
      </trkpt>
      <trkpt lat="45.86653" lon="3.29819">
        <ele>317.2</ele>
        <time>2024-05-18T12:45:50Z</time>
      </trkpt>
      <trkpt lat="45.86656" lon="3.2981">
        <ele>317.2</ele>
        <time>2024-05-18T12:45:51Z</time>
      </trkpt>
      <trkpt lat="45.86659" lon="3.29802">
        <ele>317.2</ele>
        <time>2024-05-18T12:45:52Z</time>
      </trkpt>
      <trkpt lat="45.86662" lon="3.29793">
        <ele>317.2</ele>
        <time>2024-05-18T12:45:53Z</time>
      </trkpt>
      <trkpt lat="45.86665" lon="3.29785">
        <ele>317.2</ele>
        <time>2024-05-18T12:45:54Z</time>
      </trkpt>
      <trkpt lat="45.86667" lon="3.29777">
        <ele>317.2</ele>
        <time>2024-05-18T12:45:55Z</time>
      </trkpt>
      <trkpt lat="45.8667" lon="3.29768">
        <ele>317.2</ele>
        <time>2024-05-18T12:45:56Z</time>
      </trkpt>
      <trkpt lat="45.86673" lon="3.2976">
        <ele>317.2</ele>
        <time>2024-05-18T12:45:57Z</time>
      </trkpt>
      <trkpt lat="45.86676" lon="3.29752">
        <ele>317.2</ele>
        <time>2024-05-18T12:45:58Z</time>
      </trkpt>
      <trkpt lat="45.86679" lon="3.29743">
        <ele>317.2</ele>
        <time>2024-05-18T12:45:59Z</time>
      </trkpt>
      <trkpt lat="45.86682" lon="3.29735">
        <ele>317</ele>
        <time>2024-05-18T12:46:00Z</time>
      </trkpt>
      <trkpt lat="45.86685" lon="3.29726">
        <ele>317.2</ele>
        <time>2024-05-18T12:46:01Z</time>
      </trkpt>
      <trkpt lat="45.86688" lon="3.29718">
        <ele>317</ele>
        <time>2024-05-18T12:46:02Z</time>
      </trkpt>
      <trkpt lat="45.86691" lon="3.29709">
        <ele>316.8</ele>
        <time>2024-05-18T12:46:03Z</time>
      </trkpt>
      <trkpt lat="45.86694" lon="3.297">
        <ele>316.8</ele>
        <time>2024-05-18T12:46:04Z</time>
      </trkpt>
      <trkpt lat="45.86696" lon="3.29692">
        <ele>317</ele>
        <time>2024-05-18T12:46:05Z</time>
      </trkpt>
      <trkpt lat="45.86699" lon="3.29683">
        <ele>317</ele>
        <time>2024-05-18T12:46:06Z</time>
      </trkpt>
      <trkpt lat="45.86703" lon="3.29674">
        <ele>316.8</ele>
        <time>2024-05-18T12:46:07Z</time>
      </trkpt>
      <trkpt lat="45.86706" lon="3.29667">
        <ele>316.8</ele>
        <time>2024-05-18T12:46:08Z</time>
      </trkpt>
      <trkpt lat="45.8671" lon="3.29659">
        <ele>316.8</ele>
        <time>2024-05-18T12:46:09Z</time>
      </trkpt>
      <trkpt lat="45.86714" lon="3.29651">
        <ele>316.8</ele>
        <time>2024-05-18T12:46:10Z</time>
      </trkpt>
      <trkpt lat="45.86718" lon="3.29643">
        <ele>316.8</ele>
        <time>2024-05-18T12:46:11Z</time>
      </trkpt>
      <trkpt lat="45.86722" lon="3.29636">
        <ele>316.8</ele>
        <time>2024-05-18T12:46:12Z</time>
      </trkpt>
      <trkpt lat="45.86726" lon="3.29628">
        <ele>316.8</ele>
        <time>2024-05-18T12:46:13Z</time>
      </trkpt>
      <trkpt lat="45.8673" lon="3.2962">
        <ele>316.6</ele>
        <time>2024-05-18T12:46:14Z</time>
      </trkpt>
      <trkpt lat="45.86734" lon="3.29612">
        <ele>316.6</ele>
        <time>2024-05-18T12:46:15Z</time>
      </trkpt>
      <trkpt lat="45.86737" lon="3.29604">
        <ele>316.6</ele>
        <time>2024-05-18T12:46:16Z</time>
      </trkpt>
      <trkpt lat="45.86741" lon="3.29597">
        <ele>316.6</ele>
        <time>2024-05-18T12:46:17Z</time>
      </trkpt>
      <trkpt lat="45.86745" lon="3.29589">
        <ele>316.6</ele>
        <time>2024-05-18T12:46:18Z</time>
      </trkpt>
      <trkpt lat="45.86749" lon="3.29581">
        <ele>316.6</ele>
        <time>2024-05-18T12:46:19Z</time>
      </trkpt>
      <trkpt lat="45.86753" lon="3.29574">
        <ele>316.6</ele>
        <time>2024-05-18T12:46:20Z</time>
      </trkpt>
      <trkpt lat="45.86757" lon="3.29566">
        <ele>316.6</ele>
        <time>2024-05-18T12:46:21Z</time>
      </trkpt>
      <trkpt lat="45.8676" lon="3.29558">
        <ele>316.6</ele>
        <time>2024-05-18T12:46:22Z</time>
      </trkpt>
      <trkpt lat="45.86764" lon="3.29551">
        <ele>316.6</ele>
        <time>2024-05-18T12:46:23Z</time>
      </trkpt>
      <trkpt lat="45.86768" lon="3.29544">
        <ele>316.6</ele>
        <time>2024-05-18T12:46:24Z</time>
      </trkpt>
      <trkpt lat="45.86772" lon="3.29536">
        <ele>316.6</ele>
        <time>2024-05-18T12:46:25Z</time>
      </trkpt>
      <trkpt lat="45.86775" lon="3.29529">
        <ele>316.6</ele>
        <time>2024-05-18T12:46:26Z</time>
      </trkpt>
      <trkpt lat="45.86779" lon="3.29521">
        <ele>316.6</ele>
        <time>2024-05-18T12:46:27Z</time>
      </trkpt>
      <trkpt lat="45.86783" lon="3.29514">
        <ele>316.6</ele>
        <time>2024-05-18T12:46:28Z</time>
      </trkpt>
      <trkpt lat="45.86786" lon="3.29506">
        <ele>316.4</ele>
        <time>2024-05-18T12:46:29Z</time>
      </trkpt>
      <trkpt lat="45.8679" lon="3.29498">
        <ele>316.4</ele>
        <time>2024-05-18T12:46:30Z</time>
      </trkpt>
      <trkpt lat="45.86793" lon="3.2949">
        <ele>316.4</ele>
        <time>2024-05-18T12:46:31Z</time>
      </trkpt>
      <trkpt lat="45.86797" lon="3.29482">
        <ele>316.4</ele>
        <time>2024-05-18T12:46:32Z</time>
      </trkpt>
      <trkpt lat="45.86801" lon="3.29474">
        <ele>316.4</ele>
        <time>2024-05-18T12:46:33Z</time>
      </trkpt>
      <trkpt lat="45.86804" lon="3.29466">
        <ele>316.4</ele>
        <time>2024-05-18T12:46:34Z</time>
      </trkpt>
      <trkpt lat="45.86808" lon="3.29458">
        <ele>316.4</ele>
        <time>2024-05-18T12:46:35Z</time>
      </trkpt>
      <trkpt lat="45.86811" lon="3.2945">
        <ele>316.4</ele>
        <time>2024-05-18T12:46:36Z</time>
      </trkpt>
      <trkpt lat="45.86815" lon="3.29442">
        <ele>316.4</ele>
        <time>2024-05-18T12:46:37Z</time>
      </trkpt>
      <trkpt lat="45.86819" lon="3.29434">
        <ele>316.4</ele>
        <time>2024-05-18T12:46:38Z</time>
      </trkpt>
      <trkpt lat="45.86822" lon="3.29426">
        <ele>316.4</ele>
        <time>2024-05-18T12:46:39Z</time>
      </trkpt>
      <trkpt lat="45.86826" lon="3.29419">
        <ele>316.4</ele>
        <time>2024-05-18T12:46:40Z</time>
      </trkpt>
      <trkpt lat="45.86829" lon="3.29411">
        <ele>316.4</ele>
        <time>2024-05-18T12:46:41Z</time>
      </trkpt>
      <trkpt lat="45.86833" lon="3.29403">
        <ele>316.4</ele>
        <time>2024-05-18T12:46:42Z</time>
      </trkpt>
      <trkpt lat="45.86836" lon="3.29396">
        <ele>316.4</ele>
        <time>2024-05-18T12:46:43Z</time>
      </trkpt>
      <trkpt lat="45.8684" lon="3.29388">
        <ele>316.4</ele>
        <time>2024-05-18T12:46:44Z</time>
      </trkpt>
      <trkpt lat="45.86843" lon="3.2938">
        <ele>316.4</ele>
        <time>2024-05-18T12:46:45Z</time>
      </trkpt>
      <trkpt lat="45.86847" lon="3.29372">
        <ele>316.4</ele>
        <time>2024-05-18T12:46:46Z</time>
      </trkpt>
      <trkpt lat="45.8685" lon="3.29365">
        <ele>316.4</ele>
        <time>2024-05-18T12:46:47Z</time>
      </trkpt>
      <trkpt lat="45.86853" lon="3.29356">
        <ele>316.4</ele>
        <time>2024-05-18T12:46:48Z</time>
      </trkpt>
      <trkpt lat="45.86856" lon="3.29348">
        <ele>316.4</ele>
        <time>2024-05-18T12:46:49Z</time>
      </trkpt>
      <trkpt lat="45.86859" lon="3.29339">
        <ele>316.4</ele>
        <time>2024-05-18T12:46:50Z</time>
      </trkpt>
      <trkpt lat="45.86861" lon="3.29331">
        <ele>316.4</ele>
        <time>2024-05-18T12:46:51Z</time>
      </trkpt>
      <trkpt lat="45.86864" lon="3.29323">
        <ele>316.4</ele>
        <time>2024-05-18T12:46:52Z</time>
      </trkpt>
      <trkpt lat="45.86866" lon="3.29315">
        <ele>316.4</ele>
        <time>2024-05-18T12:46:53Z</time>
      </trkpt>
      <trkpt lat="45.86869" lon="3.29307">
        <ele>316.4</ele>
        <time>2024-05-18T12:46:54Z</time>
      </trkpt>
      <trkpt lat="45.86871" lon="3.29298">
        <ele>316.4</ele>
        <time>2024-05-18T12:46:55Z</time>
      </trkpt>
      <trkpt lat="45.86874" lon="3.2929">
        <ele>316.4</ele>
        <time>2024-05-18T12:46:56Z</time>
      </trkpt>
      <trkpt lat="45.86876" lon="3.29283">
        <ele>316.4</ele>
        <time>2024-05-18T12:46:57Z</time>
      </trkpt>
      <trkpt lat="45.86879" lon="3.29275">
        <ele>316.6</ele>
        <time>2024-05-18T12:46:58Z</time>
      </trkpt>
      <trkpt lat="45.86881" lon="3.29266">
        <ele>316.4</ele>
        <time>2024-05-18T12:46:59Z</time>
      </trkpt>
      <trkpt lat="45.86884" lon="3.29259">
        <ele>316.4</ele>
        <time>2024-05-18T12:47:00Z</time>
      </trkpt>
      <trkpt lat="45.86886" lon="3.2925">
        <ele>316.4</ele>
        <time>2024-05-18T12:47:01Z</time>
      </trkpt>
      <trkpt lat="45.86889" lon="3.29243">
        <ele>316.4</ele>
        <time>2024-05-18T12:47:02Z</time>
      </trkpt>
      <trkpt lat="45.86891" lon="3.29235">
        <ele>316.6</ele>
        <time>2024-05-18T12:47:03Z</time>
      </trkpt>
      <trkpt lat="45.86894" lon="3.29227">
        <ele>316.6</ele>
        <time>2024-05-18T12:47:04Z</time>
      </trkpt>
      <trkpt lat="45.86896" lon="3.29219">
        <ele>316.6</ele>
        <time>2024-05-18T12:47:05Z</time>
      </trkpt>
      <trkpt lat="45.86899" lon="3.29211">
        <ele>316.6</ele>
        <time>2024-05-18T12:47:06Z</time>
      </trkpt>
      <trkpt lat="45.86901" lon="3.29203">
        <ele>316.6</ele>
        <time>2024-05-18T12:47:07Z</time>
      </trkpt>
      <trkpt lat="45.86904" lon="3.29195">
        <ele>316.6</ele>
        <time>2024-05-18T12:47:08Z</time>
      </trkpt>
      <trkpt lat="45.86906" lon="3.29187">
        <ele>316.8</ele>
        <time>2024-05-18T12:47:09Z</time>
      </trkpt>
      <trkpt lat="45.86909" lon="3.29179">
        <ele>316.8</ele>
        <time>2024-05-18T12:47:10Z</time>
      </trkpt>
      <trkpt lat="45.86911" lon="3.29171">
        <ele>316.8</ele>
        <time>2024-05-18T12:47:11Z</time>
      </trkpt>
      <trkpt lat="45.86913" lon="3.29164">
        <ele>316.8</ele>
        <time>2024-05-18T12:47:12Z</time>
      </trkpt>
      <trkpt lat="45.86916" lon="3.29156">
        <ele>316.8</ele>
        <time>2024-05-18T12:47:13Z</time>
      </trkpt>
      <trkpt lat="45.86918" lon="3.29148">
        <ele>316.8</ele>
        <time>2024-05-18T12:47:14Z</time>
      </trkpt>
      <trkpt lat="45.86921" lon="3.2914">
        <ele>316.8</ele>
        <time>2024-05-18T12:47:15Z</time>
      </trkpt>
      <trkpt lat="45.86923" lon="3.29133">
        <ele>316.8</ele>
        <time>2024-05-18T12:47:16Z</time>
      </trkpt>
      <trkpt lat="45.86926" lon="3.29125">
        <ele>316.8</ele>
        <time>2024-05-18T12:47:17Z</time>
      </trkpt>
      <trkpt lat="45.86928" lon="3.29117">
        <ele>316.8</ele>
        <time>2024-05-18T12:47:18Z</time>
      </trkpt>
      <trkpt lat="45.8693" lon="3.29109">
        <ele>317</ele>
        <time>2024-05-18T12:47:19Z</time>
      </trkpt>
      <trkpt lat="45.86933" lon="3.29102">
        <ele>317</ele>
        <time>2024-05-18T12:47:20Z</time>
      </trkpt>
      <trkpt lat="45.86935" lon="3.29094">
        <ele>317</ele>
        <time>2024-05-18T12:47:21Z</time>
      </trkpt>
      <trkpt lat="45.86938" lon="3.29087">
        <ele>317.2</ele>
        <time>2024-05-18T12:47:22Z</time>
      </trkpt>
      <trkpt lat="45.86941" lon="3.2908">
        <ele>317.2</ele>
        <time>2024-05-18T12:47:23Z</time>
      </trkpt>
      <trkpt lat="45.86944" lon="3.29073">
        <ele>317.2</ele>
        <time>2024-05-18T12:47:24Z</time>
      </trkpt>
      <trkpt lat="45.86947" lon="3.29066">
        <ele>317.4</ele>
        <time>2024-05-18T12:47:25Z</time>
      </trkpt>
      <trkpt lat="45.8695" lon="3.29058">
        <ele>317.4</ele>
        <time>2024-05-18T12:47:26Z</time>
      </trkpt>
      <trkpt lat="45.86953" lon="3.29051">
        <ele>317.6</ele>
        <time>2024-05-18T12:47:27Z</time>
      </trkpt>
      <trkpt lat="45.86956" lon="3.29044">
        <ele>317.6</ele>
        <time>2024-05-18T12:47:28Z</time>
      </trkpt>
      <trkpt lat="45.86959" lon="3.29037">
        <ele>317.6</ele>
        <time>2024-05-18T12:47:29Z</time>
      </trkpt>
      <trkpt lat="45.86963" lon="3.2903">
        <ele>317.8</ele>
        <time>2024-05-18T12:47:30Z</time>
      </trkpt>
      <trkpt lat="45.86966" lon="3.29024">
        <ele>317.8</ele>
        <time>2024-05-18T12:47:31Z</time>
      </trkpt>
      <trkpt lat="45.8697" lon="3.29017">
        <ele>317.8</ele>
        <time>2024-05-18T12:47:32Z</time>
      </trkpt>
      <trkpt lat="45.86973" lon="3.2901">
        <ele>317.8</ele>
        <time>2024-05-18T12:47:33Z</time>
      </trkpt>
      <trkpt lat="45.86976" lon="3.29004">
        <ele>318</ele>
        <time>2024-05-18T12:47:34Z</time>
      </trkpt>
      <trkpt lat="45.8698" lon="3.28997">
        <ele>318</ele>
        <time>2024-05-18T12:47:35Z</time>
      </trkpt>
      <trkpt lat="45.86983" lon="3.28991">
        <ele>318</ele>
        <time>2024-05-18T12:47:36Z</time>
      </trkpt>
      <trkpt lat="45.86987" lon="3.28984">
        <ele>318.2</ele>
        <time>2024-05-18T12:47:37Z</time>
      </trkpt>
      <trkpt lat="45.8699" lon="3.28977">
        <ele>318.2</ele>
        <time>2024-05-18T12:47:38Z</time>
      </trkpt>
      <trkpt lat="45.86994" lon="3.2897">
        <ele>318.2</ele>
        <time>2024-05-18T12:47:39Z</time>
      </trkpt>
      <trkpt lat="45.86998" lon="3.28963">
        <ele>318.4</ele>
        <time>2024-05-18T12:47:40Z</time>
      </trkpt>
      <trkpt lat="45.87001" lon="3.28956">
        <ele>318.4</ele>
        <time>2024-05-18T12:47:41Z</time>
      </trkpt>
      <trkpt lat="45.87005" lon="3.2895">
        <ele>318.4</ele>
        <time>2024-05-18T12:47:42Z</time>
      </trkpt>
      <trkpt lat="45.87008" lon="3.28943">
        <ele>318.6</ele>
        <time>2024-05-18T12:47:43Z</time>
      </trkpt>
      <trkpt lat="45.87012" lon="3.28936">
        <ele>318.6</ele>
        <time>2024-05-18T12:47:44Z</time>
      </trkpt>
      <trkpt lat="45.87016" lon="3.28929">
        <ele>318.8</ele>
        <time>2024-05-18T12:47:45Z</time>
      </trkpt>
      <trkpt lat="45.87019" lon="3.28922">
        <ele>318.8</ele>
        <time>2024-05-18T12:47:46Z</time>
      </trkpt>
      <trkpt lat="45.87023" lon="3.28915">
        <ele>319</ele>
        <time>2024-05-18T12:47:47Z</time>
      </trkpt>
      <trkpt lat="45.87026" lon="3.28909">
        <ele>319</ele>
        <time>2024-05-18T12:47:48Z</time>
      </trkpt>
      <trkpt lat="45.8703" lon="3.28901">
        <ele>319.2</ele>
        <time>2024-05-18T12:47:49Z</time>
      </trkpt>
      <trkpt lat="45.87034" lon="3.28895">
        <ele>319.2</ele>
        <time>2024-05-18T12:47:50Z</time>
      </trkpt>
      <trkpt lat="45.87039" lon="3.28888">
        <ele>319.4</ele>
        <time>2024-05-18T12:47:51Z</time>
      </trkpt>
      <trkpt lat="45.87043" lon="3.28881">
        <ele>319.4</ele>
        <time>2024-05-18T12:47:52Z</time>
      </trkpt>
      <trkpt lat="45.87048" lon="3.28874">
        <ele>319.6</ele>
        <time>2024-05-18T12:47:53Z</time>
      </trkpt>
      <trkpt lat="45.87052" lon="3.28867">
        <ele>319.6</ele>
        <time>2024-05-18T12:47:54Z</time>
      </trkpt>
      <trkpt lat="45.87057" lon="3.2886">
        <ele>319.6</ele>
        <time>2024-05-18T12:47:55Z</time>
      </trkpt>
      <trkpt lat="45.87062" lon="3.28853">
        <ele>319.8</ele>
        <time>2024-05-18T12:47:56Z</time>
      </trkpt>
      <trkpt lat="45.87067" lon="3.28846">
        <ele>319.8</ele>
        <time>2024-05-18T12:47:57Z</time>
      </trkpt>
      <trkpt lat="45.87072" lon="3.28838">
        <ele>320</ele>
        <time>2024-05-18T12:47:58Z</time>
      </trkpt>
      <trkpt lat="45.87077" lon="3.28831">
        <ele>320</ele>
        <time>2024-05-18T12:47:59Z</time>
      </trkpt>
      <trkpt lat="45.87082" lon="3.28823">
        <ele>320</ele>
        <time>2024-05-18T12:48:00Z</time>
      </trkpt>
      <trkpt lat="45.87087" lon="3.28816">
        <ele>320</ele>
        <time>2024-05-18T12:48:01Z</time>
      </trkpt>
      <trkpt lat="45.87092" lon="3.28808">
        <ele>320.2</ele>
        <time>2024-05-18T12:48:02Z</time>
      </trkpt>
      <trkpt lat="45.87097" lon="3.28801">
        <ele>320.2</ele>
        <time>2024-05-18T12:48:03Z</time>
      </trkpt>
      <trkpt lat="45.87102" lon="3.28793">
        <ele>320.2</ele>
        <time>2024-05-18T12:48:04Z</time>
      </trkpt>
      <trkpt lat="45.87107" lon="3.28785">
        <ele>320.4</ele>
        <time>2024-05-18T12:48:05Z</time>
      </trkpt>
      <trkpt lat="45.87112" lon="3.28778">
        <ele>320.4</ele>
        <time>2024-05-18T12:48:06Z</time>
      </trkpt>
      <trkpt lat="45.87117" lon="3.2877">
        <ele>320.4</ele>
        <time>2024-05-18T12:48:07Z</time>
      </trkpt>
      <trkpt lat="45.87122" lon="3.28762">
        <ele>320.4</ele>
        <time>2024-05-18T12:48:08Z</time>
      </trkpt>
      <trkpt lat="45.87127" lon="3.28754">
        <ele>320.4</ele>
        <time>2024-05-18T12:48:09Z</time>
      </trkpt>
      <trkpt lat="45.87133" lon="3.28746">
        <ele>320.4</ele>
        <time>2024-05-18T12:48:10Z</time>
      </trkpt>
      <trkpt lat="45.87138" lon="3.28738">
        <ele>320.6</ele>
        <time>2024-05-18T12:48:11Z</time>
      </trkpt>
      <trkpt lat="45.87143" lon="3.2873">
        <ele>320.6</ele>
        <time>2024-05-18T12:48:12Z</time>
      </trkpt>
      <trkpt lat="45.87148" lon="3.28722">
        <ele>320.8</ele>
        <time>2024-05-18T12:48:13Z</time>
      </trkpt>
      <trkpt lat="45.87154" lon="3.28714">
        <ele>320.8</ele>
        <time>2024-05-18T12:48:14Z</time>
      </trkpt>
      <trkpt lat="45.87159" lon="3.28707">
        <ele>320.8</ele>
        <time>2024-05-18T12:48:15Z</time>
      </trkpt>
      <trkpt lat="45.87164" lon="3.28698">
        <ele>320.8</ele>
        <time>2024-05-18T12:48:16Z</time>
      </trkpt>
      <trkpt lat="45.87169" lon="3.2869">
        <ele>321</ele>
        <time>2024-05-18T12:48:17Z</time>
      </trkpt>
      <trkpt lat="45.87175" lon="3.28682">
        <ele>321</ele>
        <time>2024-05-18T12:48:18Z</time>
      </trkpt>
      <trkpt lat="45.8718" lon="3.28674">
        <ele>321</ele>
        <time>2024-05-18T12:48:19Z</time>
      </trkpt>
      <trkpt lat="45.87185" lon="3.28666">
        <ele>321</ele>
        <time>2024-05-18T12:48:20Z</time>
      </trkpt>
      <trkpt lat="45.87191" lon="3.28658">
        <ele>321.2</ele>
        <time>2024-05-18T12:48:21Z</time>
      </trkpt>
      <trkpt lat="45.87195" lon="3.28648">
        <ele>321.2</ele>
        <time>2024-05-18T12:48:22Z</time>
      </trkpt>
      <trkpt lat="45.87199" lon="3.28638">
        <ele>321.2</ele>
        <time>2024-05-18T12:48:23Z</time>
      </trkpt>
      <trkpt lat="45.87202" lon="3.28628">
        <ele>321.2</ele>
        <time>2024-05-18T12:48:24Z</time>
      </trkpt>
      <trkpt lat="45.87206" lon="3.28617">
        <ele>321.2</ele>
        <time>2024-05-18T12:48:25Z</time>
      </trkpt>
      <trkpt lat="45.87209" lon="3.28607">
        <ele>321.2</ele>
        <time>2024-05-18T12:48:26Z</time>
      </trkpt>
      <trkpt lat="45.87213" lon="3.28597">
        <ele>321.4</ele>
        <time>2024-05-18T12:48:27Z</time>
      </trkpt>
      <trkpt lat="45.87216" lon="3.28587">
        <ele>321.2</ele>
        <time>2024-05-18T12:48:28Z</time>
      </trkpt>
      <trkpt lat="45.87219" lon="3.28577">
        <ele>321.2</ele>
        <time>2024-05-18T12:48:29Z</time>
      </trkpt>
      <trkpt lat="45.87223" lon="3.28567">
        <ele>321.2</ele>
        <time>2024-05-18T12:48:30Z</time>
      </trkpt>
      <trkpt lat="45.87226" lon="3.28557">
        <ele>321.4</ele>
        <time>2024-05-18T12:48:31Z</time>
      </trkpt>
      <trkpt lat="45.8723" lon="3.28547">
        <ele>321.4</ele>
        <time>2024-05-18T12:48:32Z</time>
      </trkpt>
      <trkpt lat="45.87233" lon="3.28537">
        <ele>321.2</ele>
        <time>2024-05-18T12:48:33Z</time>
      </trkpt>
      <trkpt lat="45.87236" lon="3.28527">
        <ele>321.2</ele>
        <time>2024-05-18T12:48:34Z</time>
      </trkpt>
      <trkpt lat="45.8724" lon="3.28517">
        <ele>321.2</ele>
        <time>2024-05-18T12:48:35Z</time>
      </trkpt>
      <trkpt lat="45.87243" lon="3.28507">
        <ele>321.2</ele>
        <time>2024-05-18T12:48:36Z</time>
      </trkpt>
      <trkpt lat="45.87247" lon="3.28497">
        <ele>321.2</ele>
        <time>2024-05-18T12:48:37Z</time>
      </trkpt>
      <trkpt lat="45.8725" lon="3.28487">
        <ele>321.2</ele>
        <time>2024-05-18T12:48:38Z</time>
      </trkpt>
      <trkpt lat="45.87254" lon="3.28477">
        <ele>321.4</ele>
        <time>2024-05-18T12:48:39Z</time>
      </trkpt>
      <trkpt lat="45.87257" lon="3.28467">
        <ele>320.8</ele>
        <time>2024-05-18T12:48:40Z</time>
      </trkpt>
      <trkpt lat="45.87261" lon="3.28457">
        <ele>320.8</ele>
        <time>2024-05-18T12:48:41Z</time>
      </trkpt>
      <trkpt lat="45.87264" lon="3.28447">
        <ele>320.8</ele>
        <time>2024-05-18T12:48:42Z</time>
      </trkpt>
      <trkpt lat="45.87268" lon="3.28438">
        <ele>320.6</ele>
        <time>2024-05-18T12:48:43Z</time>
      </trkpt>
      <trkpt lat="45.87271" lon="3.28428">
        <ele>320.6</ele>
        <time>2024-05-18T12:48:44Z</time>
      </trkpt>
      <trkpt lat="45.87274" lon="3.28418">
        <ele>320.6</ele>
        <time>2024-05-18T12:48:45Z</time>
      </trkpt>
      <trkpt lat="45.87278" lon="3.28409">
        <ele>320.6</ele>
        <time>2024-05-18T12:48:46Z</time>
      </trkpt>
      <trkpt lat="45.87281" lon="3.28399">
        <ele>320.6</ele>
        <time>2024-05-18T12:48:47Z</time>
      </trkpt>
      <trkpt lat="45.87284" lon="3.2839">
        <ele>320.6</ele>
        <time>2024-05-18T12:48:48Z</time>
      </trkpt>
      <trkpt lat="45.87287" lon="3.28381">
        <ele>320.6</ele>
        <time>2024-05-18T12:48:49Z</time>
      </trkpt>
      <trkpt lat="45.87291" lon="3.28371">
        <ele>320.6</ele>
        <time>2024-05-18T12:48:50Z</time>
      </trkpt>
      <trkpt lat="45.87294" lon="3.28361">
        <ele>320.6</ele>
        <time>2024-05-18T12:48:51Z</time>
      </trkpt>
      <trkpt lat="45.87297" lon="3.28352">
        <ele>320.6</ele>
        <time>2024-05-18T12:48:52Z</time>
      </trkpt>
      <trkpt lat="45.873" lon="3.28343">
        <ele>320.6</ele>
        <time>2024-05-18T12:48:53Z</time>
      </trkpt>
      <trkpt lat="45.87304" lon="3.28333">
        <ele>320.4</ele>
        <time>2024-05-18T12:48:54Z</time>
      </trkpt>
      <trkpt lat="45.87307" lon="3.28324">
        <ele>320.4</ele>
        <time>2024-05-18T12:48:55Z</time>
      </trkpt>
      <trkpt lat="45.8731" lon="3.28314">
        <ele>320.4</ele>
        <time>2024-05-18T12:48:56Z</time>
      </trkpt>
      <trkpt lat="45.87313" lon="3.28305">
        <ele>320.4</ele>
        <time>2024-05-18T12:48:57Z</time>
      </trkpt>
      <trkpt lat="45.87316" lon="3.28295">
        <ele>320.4</ele>
        <time>2024-05-18T12:48:58Z</time>
      </trkpt>
      <trkpt lat="45.8732" lon="3.28286">
        <ele>320.4</ele>
        <time>2024-05-18T12:48:59Z</time>
      </trkpt>
      <trkpt lat="45.87323" lon="3.28276">
        <ele>320.4</ele>
        <time>2024-05-18T12:49:00Z</time>
      </trkpt>
      <trkpt lat="45.87327" lon="3.28266">
        <ele>320.4</ele>
        <time>2024-05-18T12:49:01Z</time>
      </trkpt>
      <trkpt lat="45.8733" lon="3.28256">
        <ele>320.4</ele>
        <time>2024-05-18T12:49:02Z</time>
      </trkpt>
      <trkpt lat="45.87333" lon="3.28247">
        <ele>320.2</ele>
        <time>2024-05-18T12:49:03Z</time>
      </trkpt>
      <trkpt lat="45.87336" lon="3.28237">
        <ele>320.2</ele>
        <time>2024-05-18T12:49:04Z</time>
      </trkpt>
      <trkpt lat="45.8734" lon="3.28227">
        <ele>320.2</ele>
        <time>2024-05-18T12:49:05Z</time>
      </trkpt>
      <trkpt lat="45.87343" lon="3.28218">
        <ele>320.2</ele>
        <time>2024-05-18T12:49:06Z</time>
      </trkpt>
      <trkpt lat="45.87347" lon="3.28208">
        <ele>320</ele>
        <time>2024-05-18T12:49:07Z</time>
      </trkpt>
      <trkpt lat="45.8735" lon="3.28199">
        <ele>320</ele>
        <time>2024-05-18T12:49:08Z</time>
      </trkpt>
      <trkpt lat="45.87354" lon="3.28189">
        <ele>320</ele>
        <time>2024-05-18T12:49:09Z</time>
      </trkpt>
      <trkpt lat="45.87358" lon="3.2818">
        <ele>319.8</ele>
        <time>2024-05-18T12:49:10Z</time>
      </trkpt>
      <trkpt lat="45.87362" lon="3.28171">
        <ele>319.8</ele>
        <time>2024-05-18T12:49:11Z</time>
      </trkpt>
      <trkpt lat="45.87366" lon="3.28162">
        <ele>319.8</ele>
        <time>2024-05-18T12:49:12Z</time>
      </trkpt>
      <trkpt lat="45.87369" lon="3.28153">
        <ele>319.6</ele>
        <time>2024-05-18T12:49:13Z</time>
      </trkpt>
      <trkpt lat="45.87373" lon="3.28144">
        <ele>319.6</ele>
        <time>2024-05-18T12:49:14Z</time>
      </trkpt>
      <trkpt lat="45.87377" lon="3.28134">
        <ele>319.4</ele>
        <time>2024-05-18T12:49:15Z</time>
      </trkpt>
      <trkpt lat="45.87381" lon="3.28125">
        <ele>319.4</ele>
        <time>2024-05-18T12:49:16Z</time>
      </trkpt>
      <trkpt lat="45.87385" lon="3.28116">
        <ele>319.2</ele>
        <time>2024-05-18T12:49:17Z</time>
      </trkpt>
      <trkpt lat="45.87388" lon="3.28107">
        <ele>319</ele>
        <time>2024-05-18T12:49:18Z</time>
      </trkpt>
      <trkpt lat="45.87392" lon="3.28098">
        <ele>319</ele>
        <time>2024-05-18T12:49:19Z</time>
      </trkpt>
      <trkpt lat="45.87396" lon="3.28089">
        <ele>319</ele>
        <time>2024-05-18T12:49:20Z</time>
      </trkpt>
      <trkpt lat="45.874" lon="3.2808">
        <ele>319</ele>
        <time>2024-05-18T12:49:21Z</time>
      </trkpt>
      <trkpt lat="45.87403" lon="3.28071">
        <ele>318.8</ele>
        <time>2024-05-18T12:49:22Z</time>
      </trkpt>
      <trkpt lat="45.87407" lon="3.28062">
        <ele>318.8</ele>
        <time>2024-05-18T12:49:23Z</time>
      </trkpt>
      <trkpt lat="45.87411" lon="3.28053">
        <ele>318.8</ele>
        <time>2024-05-18T12:49:24Z</time>
      </trkpt>
      <trkpt lat="45.87415" lon="3.28043">
        <ele>318.8</ele>
        <time>2024-05-18T12:49:25Z</time>
      </trkpt>
      <trkpt lat="45.87419" lon="3.28034">
        <ele>318.8</ele>
        <time>2024-05-18T12:49:26Z</time>
      </trkpt>
      <trkpt lat="45.87422" lon="3.28024">
        <ele>318.6</ele>
        <time>2024-05-18T12:49:27Z</time>
      </trkpt>
      <trkpt lat="45.87426" lon="3.28015">
        <ele>318.6</ele>
        <time>2024-05-18T12:49:28Z</time>
      </trkpt>
      <trkpt lat="45.8743" lon="3.28006">
        <ele>318.6</ele>
        <time>2024-05-18T12:49:29Z</time>
      </trkpt>
      <trkpt lat="45.87434" lon="3.27997">
        <ele>318.6</ele>
        <time>2024-05-18T12:49:30Z</time>
      </trkpt>
      <trkpt lat="45.87437" lon="3.27987">
        <ele>318.6</ele>
        <time>2024-05-18T12:49:31Z</time>
      </trkpt>
      <trkpt lat="45.87441" lon="3.27978">
        <ele>318.6</ele>
        <time>2024-05-18T12:49:32Z</time>
      </trkpt>
      <trkpt lat="45.87445" lon="3.27969">
        <ele>318.6</ele>
        <time>2024-05-18T12:49:33Z</time>
      </trkpt>
      <trkpt lat="45.87449" lon="3.2796">
        <ele>318.6</ele>
        <time>2024-05-18T12:49:34Z</time>
      </trkpt>
      <trkpt lat="45.87452" lon="3.27951">
        <ele>318.6</ele>
        <time>2024-05-18T12:49:35Z</time>
      </trkpt>
      <trkpt lat="45.87456" lon="3.27941">
        <ele>318.6</ele>
        <time>2024-05-18T12:49:36Z</time>
      </trkpt>
      <trkpt lat="45.87459" lon="3.27932">
        <ele>318.8</ele>
        <time>2024-05-18T12:49:37Z</time>
      </trkpt>
      <trkpt lat="45.87463" lon="3.27923">
        <ele>318.8</ele>
        <time>2024-05-18T12:49:38Z</time>
      </trkpt>
      <trkpt lat="45.87467" lon="3.27913">
        <ele>318.8</ele>
        <time>2024-05-18T12:49:39Z</time>
      </trkpt>
      <trkpt lat="45.87469" lon="3.27902">
        <ele>318.8</ele>
        <time>2024-05-18T12:49:40Z</time>
      </trkpt>
      <trkpt lat="45.87471" lon="3.27891">
        <ele>318.8</ele>
        <time>2024-05-18T12:49:41Z</time>
      </trkpt>
      <trkpt lat="45.87472" lon="3.2788">
        <ele>318.2</ele>
        <time>2024-05-18T12:49:42Z</time>
      </trkpt>
      <trkpt lat="45.87474" lon="3.27869">
        <ele>318.2</ele>
        <time>2024-05-18T12:49:43Z</time>
      </trkpt>
      <trkpt lat="45.87475" lon="3.27859">
        <ele>318.6</ele>
        <time>2024-05-18T12:49:44Z</time>
      </trkpt>
      <trkpt lat="45.87477" lon="3.27848">
        <ele>318.8</ele>
        <time>2024-05-18T12:49:45Z</time>
      </trkpt>
      <trkpt lat="45.87477" lon="3.27837">
        <ele>319</ele>
        <time>2024-05-18T12:49:46Z</time>
      </trkpt>
      <trkpt lat="45.87477" lon="3.27827">
        <ele>319.2</ele>
        <time>2024-05-18T12:49:47Z</time>
      </trkpt>
      <trkpt lat="45.87477" lon="3.27816">
        <ele>319</ele>
        <time>2024-05-18T12:49:48Z</time>
      </trkpt>
      <trkpt lat="45.87477" lon="3.27806">
        <ele>319</ele>
        <time>2024-05-18T12:49:49Z</time>
      </trkpt>
      <trkpt lat="45.87478" lon="3.27795">
        <ele>319</ele>
        <time>2024-05-18T12:49:50Z</time>
      </trkpt>
      <trkpt lat="45.87478" lon="3.27785">
        <ele>319</ele>
        <time>2024-05-18T12:49:51Z</time>
      </trkpt>
      <trkpt lat="45.87478" lon="3.27774">
        <ele>319.2</ele>
        <time>2024-05-18T12:49:52Z</time>
      </trkpt>
      <trkpt lat="45.87478" lon="3.27764">
        <ele>319.2</ele>
        <time>2024-05-18T12:49:53Z</time>
      </trkpt>
      <trkpt lat="45.87479" lon="3.27754">
        <ele>319.2</ele>
        <time>2024-05-18T12:49:54Z</time>
      </trkpt>
      <trkpt lat="45.87479" lon="3.27744">
        <ele>319.2</ele>
        <time>2024-05-18T12:49:55Z</time>
      </trkpt>
      <trkpt lat="45.87479" lon="3.27733">
        <ele>319.2</ele>
        <time>2024-05-18T12:49:56Z</time>
      </trkpt>
      <trkpt lat="45.87479" lon="3.27723">
        <ele>319.4</ele>
        <time>2024-05-18T12:49:57Z</time>
      </trkpt>
      <trkpt lat="45.8748" lon="3.27712">
        <ele>319.4</ele>
        <time>2024-05-18T12:49:58Z</time>
      </trkpt>
      <trkpt lat="45.8748" lon="3.27702">
        <ele>319.4</ele>
        <time>2024-05-18T12:49:59Z</time>
      </trkpt>
      <trkpt lat="45.8748" lon="3.27691">
        <ele>319.6</ele>
        <time>2024-05-18T12:50:00Z</time>
      </trkpt>
      <trkpt lat="45.8748" lon="3.27681">
        <ele>319.6</ele>
        <time>2024-05-18T12:50:01Z</time>
      </trkpt>
      <trkpt lat="45.8748" lon="3.2767">
        <ele>319.6</ele>
        <time>2024-05-18T12:50:02Z</time>
      </trkpt>
      <trkpt lat="45.87481" lon="3.2766">
        <ele>319.6</ele>
        <time>2024-05-18T12:50:03Z</time>
      </trkpt>
      <trkpt lat="45.87481" lon="3.27649">
        <ele>319.8</ele>
        <time>2024-05-18T12:50:04Z</time>
      </trkpt>
      <trkpt lat="45.87482" lon="3.27639">
        <ele>319.8</ele>
        <time>2024-05-18T12:50:05Z</time>
      </trkpt>
      <trkpt lat="45.87483" lon="3.27628">
        <ele>319.8</ele>
        <time>2024-05-18T12:50:06Z</time>
      </trkpt>
      <trkpt lat="45.87484" lon="3.27618">
        <ele>319.8</ele>
        <time>2024-05-18T12:50:07Z</time>
      </trkpt>
      <trkpt lat="45.87484" lon="3.27608">
        <ele>319.8</ele>
        <time>2024-05-18T12:50:08Z</time>
      </trkpt>
      <trkpt lat="45.87485" lon="3.27597">
        <ele>320</ele>
        <time>2024-05-18T12:50:09Z</time>
      </trkpt>
      <trkpt lat="45.87486" lon="3.27587">
        <ele>320</ele>
        <time>2024-05-18T12:50:10Z</time>
      </trkpt>
      <trkpt lat="45.87487" lon="3.27576">
        <ele>320</ele>
        <time>2024-05-18T12:50:11Z</time>
      </trkpt>
      <trkpt lat="45.87489" lon="3.27566">
        <ele>320.2</ele>
        <time>2024-05-18T12:50:12Z</time>
      </trkpt>
      <trkpt lat="45.87491" lon="3.27557">
        <ele>320.2</ele>
        <time>2024-05-18T12:50:13Z</time>
      </trkpt>
      <trkpt lat="45.87494" lon="3.27547">
        <ele>320.2</ele>
        <time>2024-05-18T12:50:14Z</time>
      </trkpt>
      <trkpt lat="45.87497" lon="3.27537">
        <ele>320.2</ele>
        <time>2024-05-18T12:50:15Z</time>
      </trkpt>
      <trkpt lat="45.875" lon="3.27528">
        <ele>320.4</ele>
        <time>2024-05-18T12:50:16Z</time>
      </trkpt>
      <trkpt lat="45.87502" lon="3.27518">
        <ele>320.4</ele>
        <time>2024-05-18T12:50:17Z</time>
      </trkpt>
      <trkpt lat="45.87505" lon="3.27509">
        <ele>320.4</ele>
        <time>2024-05-18T12:50:18Z</time>
      </trkpt>
      <trkpt lat="45.87508" lon="3.27499">
        <ele>320.6</ele>
        <time>2024-05-18T12:50:19Z</time>
      </trkpt>
      <trkpt lat="45.87511" lon="3.2749">
        <ele>320.6</ele>
        <time>2024-05-18T12:50:20Z</time>
      </trkpt>
      <trkpt lat="45.87513" lon="3.2748">
        <ele>320.6</ele>
        <time>2024-05-18T12:50:21Z</time>
      </trkpt>
      <trkpt lat="45.87516" lon="3.2747">
        <ele>320.8</ele>
        <time>2024-05-18T12:50:22Z</time>
      </trkpt>
      <trkpt lat="45.87516" lon="3.2747">
        <ele>320.8</ele>
        <time>2024-05-18T12:50:23Z</time>
      </trkpt>
      <trkpt lat="45.87522" lon="3.27451">
        <ele>320.8</ele>
        <time>2024-05-18T12:50:24Z</time>
      </trkpt>
      <trkpt lat="45.87524" lon="3.27441">
        <ele>320.8</ele>
        <time>2024-05-18T12:50:25Z</time>
      </trkpt>
      <trkpt lat="45.87527" lon="3.27432">
        <ele>321</ele>
        <time>2024-05-18T12:50:26Z</time>
      </trkpt>
      <trkpt lat="45.8753" lon="3.27422">
        <ele>321</ele>
        <time>2024-05-18T12:50:27Z</time>
      </trkpt>
      <trkpt lat="45.87533" lon="3.27412">
        <ele>321</ele>
        <time>2024-05-18T12:50:28Z</time>
      </trkpt>
      <trkpt lat="45.87535" lon="3.27403">
        <ele>321</ele>
        <time>2024-05-18T12:50:29Z</time>
      </trkpt>
      <trkpt lat="45.87538" lon="3.27393">
        <ele>321.2</ele>
        <time>2024-05-18T12:50:30Z</time>
      </trkpt>
      <trkpt lat="45.87541" lon="3.27383">
        <ele>321.2</ele>
        <time>2024-05-18T12:50:31Z</time>
      </trkpt>
      <trkpt lat="45.87544" lon="3.27372">
        <ele>321.2</ele>
        <time>2024-05-18T12:50:32Z</time>
      </trkpt>
      <trkpt lat="45.87546" lon="3.27362">
        <ele>321.2</ele>
        <time>2024-05-18T12:50:33Z</time>
      </trkpt>
      <trkpt lat="45.87548" lon="3.27351">
        <ele>321.2</ele>
        <time>2024-05-18T12:50:34Z</time>
      </trkpt>
      <trkpt lat="45.8755" lon="3.2734">
        <ele>321.4</ele>
        <time>2024-05-18T12:50:35Z</time>
      </trkpt>
      <trkpt lat="45.87552" lon="3.27329">
        <ele>321.4</ele>
        <time>2024-05-18T12:50:36Z</time>
      </trkpt>
      <trkpt lat="45.87553" lon="3.27318">
        <ele>321.4</ele>
        <time>2024-05-18T12:50:37Z</time>
      </trkpt>
      <trkpt lat="45.87555" lon="3.27308">
        <ele>321.4</ele>
        <time>2024-05-18T12:50:38Z</time>
      </trkpt>
      <trkpt lat="45.87557" lon="3.27296">
        <ele>321.4</ele>
        <time>2024-05-18T12:50:39Z</time>
      </trkpt>
      <trkpt lat="45.87558" lon="3.27285">
        <ele>321.4</ele>
        <time>2024-05-18T12:50:40Z</time>
      </trkpt>
      <trkpt lat="45.87559" lon="3.27274">
        <ele>321.4</ele>
        <time>2024-05-18T12:50:41Z</time>
      </trkpt>
      <trkpt lat="45.8756" lon="3.27263">
        <ele>321.4</ele>
        <time>2024-05-18T12:50:42Z</time>
      </trkpt>
      <trkpt lat="45.87561" lon="3.27251">
        <ele>321.4</ele>
        <time>2024-05-18T12:50:43Z</time>
      </trkpt>
      <trkpt lat="45.87562" lon="3.2724">
        <ele>321.4</ele>
        <time>2024-05-18T12:50:44Z</time>
      </trkpt>
      <trkpt lat="45.87564" lon="3.27229">
        <ele>321.4</ele>
        <time>2024-05-18T12:50:45Z</time>
      </trkpt>
      <trkpt lat="45.87565" lon="3.27218">
        <ele>321.4</ele>
        <time>2024-05-18T12:50:46Z</time>
      </trkpt>
      <trkpt lat="45.87566" lon="3.27206">
        <ele>321.4</ele>
        <time>2024-05-18T12:50:47Z</time>
      </trkpt>
      <trkpt lat="45.87567" lon="3.27195">
        <ele>321.4</ele>
        <time>2024-05-18T12:50:48Z</time>
      </trkpt>
      <trkpt lat="45.87568" lon="3.27184">
        <ele>321.4</ele>
        <time>2024-05-18T12:50:49Z</time>
      </trkpt>
      <trkpt lat="45.8757" lon="3.27173">
        <ele>321.4</ele>
        <time>2024-05-18T12:50:50Z</time>
      </trkpt>
      <trkpt lat="45.87571" lon="3.27161">
        <ele>321.4</ele>
        <time>2024-05-18T12:50:51Z</time>
      </trkpt>
      <trkpt lat="45.87572" lon="3.2715">
        <ele>321.4</ele>
        <time>2024-05-18T12:50:52Z</time>
      </trkpt>
      <trkpt lat="45.87573" lon="3.27139">
        <ele>321.4</ele>
        <time>2024-05-18T12:50:53Z</time>
      </trkpt>
      <trkpt lat="45.87575" lon="3.27127">
        <ele>321.6</ele>
        <time>2024-05-18T12:50:54Z</time>
      </trkpt>
      <trkpt lat="45.87576" lon="3.27116">
        <ele>321.6</ele>
        <time>2024-05-18T12:50:55Z</time>
      </trkpt>
      <trkpt lat="45.87577" lon="3.27105">
        <ele>321.6</ele>
        <time>2024-05-18T12:50:56Z</time>
      </trkpt>
      <trkpt lat="45.87578" lon="3.27094">
        <ele>321.6</ele>
        <time>2024-05-18T12:50:57Z</time>
      </trkpt>
      <trkpt lat="45.87579" lon="3.27083">
        <ele>321.6</ele>
        <time>2024-05-18T12:50:58Z</time>
      </trkpt>
      <trkpt lat="45.87581" lon="3.27072">
        <ele>321.6</ele>
        <time>2024-05-18T12:50:59Z</time>
      </trkpt>
      <trkpt lat="45.87582" lon="3.27061">
        <ele>321.6</ele>
        <time>2024-05-18T12:51:00Z</time>
      </trkpt>
      <trkpt lat="45.87583" lon="3.27049">
        <ele>321.6</ele>
        <time>2024-05-18T12:51:01Z</time>
      </trkpt>
      <trkpt lat="45.87584" lon="3.27038">
        <ele>321.6</ele>
        <time>2024-05-18T12:51:02Z</time>
      </trkpt>
      <trkpt lat="45.87585" lon="3.27027">
        <ele>321.6</ele>
        <time>2024-05-18T12:51:03Z</time>
      </trkpt>
      <trkpt lat="45.87587" lon="3.27016">
        <ele>321.6</ele>
        <time>2024-05-18T12:51:04Z</time>
      </trkpt>
      <trkpt lat="45.87588" lon="3.27005">
        <ele>321.6</ele>
        <time>2024-05-18T12:51:05Z</time>
      </trkpt>
      <trkpt lat="45.87589" lon="3.26994">
        <ele>321.6</ele>
        <time>2024-05-18T12:51:06Z</time>
      </trkpt>
      <trkpt lat="45.8759" lon="3.26983">
        <ele>321.6</ele>
        <time>2024-05-18T12:51:07Z</time>
      </trkpt>
      <trkpt lat="45.87591" lon="3.26972">
        <ele>321.6</ele>
        <time>2024-05-18T12:51:08Z</time>
      </trkpt>
      <trkpt lat="45.87592" lon="3.26961">
        <ele>321.6</ele>
        <time>2024-05-18T12:51:09Z</time>
      </trkpt>
      <trkpt lat="45.87594" lon="3.2695">
        <ele>321.6</ele>
        <time>2024-05-18T12:51:10Z</time>
      </trkpt>
      <trkpt lat="45.87595" lon="3.2694">
        <ele>321.6</ele>
        <time>2024-05-18T12:51:11Z</time>
      </trkpt>
      <trkpt lat="45.87596" lon="3.26929">
        <ele>321.6</ele>
        <time>2024-05-18T12:51:12Z</time>
      </trkpt>
      <trkpt lat="45.87597" lon="3.26918">
        <ele>321.6</ele>
        <time>2024-05-18T12:51:13Z</time>
      </trkpt>
      <trkpt lat="45.87598" lon="3.26907">
        <ele>321.6</ele>
        <time>2024-05-18T12:51:14Z</time>
      </trkpt>
      <trkpt lat="45.876" lon="3.26896">
        <ele>321.6</ele>
        <time>2024-05-18T12:51:15Z</time>
      </trkpt>
      <trkpt lat="45.87601" lon="3.26885">
        <ele>321.6</ele>
        <time>2024-05-18T12:51:16Z</time>
      </trkpt>
      <trkpt lat="45.87602" lon="3.26874">
        <ele>321.6</ele>
        <time>2024-05-18T12:51:17Z</time>
      </trkpt>
      <trkpt lat="45.87603" lon="3.26863">
        <ele>321.6</ele>
        <time>2024-05-18T12:51:18Z</time>
      </trkpt>
      <trkpt lat="45.87604" lon="3.26852">
        <ele>321.6</ele>
        <time>2024-05-18T12:51:19Z</time>
      </trkpt>
      <trkpt lat="45.87606" lon="3.26841">
        <ele>321.6</ele>
        <time>2024-05-18T12:51:20Z</time>
      </trkpt>
      <trkpt lat="45.87607" lon="3.2683">
        <ele>321.6</ele>
        <time>2024-05-18T12:51:21Z</time>
      </trkpt>
      <trkpt lat="45.87609" lon="3.26821">
        <ele>321.6</ele>
        <time>2024-05-18T12:51:22Z</time>
      </trkpt>
      <trkpt lat="45.87613" lon="3.26812">
        <ele>321.6</ele>
        <time>2024-05-18T12:51:23Z</time>
      </trkpt>
      <trkpt lat="45.87617" lon="3.26803">
        <ele>321.6</ele>
        <time>2024-05-18T12:51:24Z</time>
      </trkpt>
      <trkpt lat="45.87621" lon="3.26795">
        <ele>321.6</ele>
        <time>2024-05-18T12:51:25Z</time>
      </trkpt>
      <trkpt lat="45.87626" lon="3.26788">
        <ele>321.6</ele>
        <time>2024-05-18T12:51:26Z</time>
      </trkpt>
      <trkpt lat="45.87632" lon="3.26781">
        <ele>321.6</ele>
        <time>2024-05-18T12:51:27Z</time>
      </trkpt>
      <trkpt lat="45.87638" lon="3.26775">
        <ele>321.6</ele>
        <time>2024-05-18T12:51:28Z</time>
      </trkpt>
      <trkpt lat="45.87645" lon="3.2677">
        <ele>321.6</ele>
        <time>2024-05-18T12:51:29Z</time>
      </trkpt>
      <trkpt lat="45.87652" lon="3.26765">
        <ele>321.6</ele>
        <time>2024-05-18T12:51:30Z</time>
      </trkpt>
      <trkpt lat="45.87659" lon="3.2676">
        <ele>321.6</ele>
        <time>2024-05-18T12:51:31Z</time>
      </trkpt>
      <trkpt lat="45.87666" lon="3.26755">
        <ele>321.4</ele>
        <time>2024-05-18T12:51:32Z</time>
      </trkpt>
      <trkpt lat="45.87673" lon="3.2675">
        <ele>321.4</ele>
        <time>2024-05-18T12:51:33Z</time>
      </trkpt>
      <trkpt lat="45.8768" lon="3.26745">
        <ele>321.4</ele>
        <time>2024-05-18T12:51:34Z</time>
      </trkpt>
      <trkpt lat="45.87688" lon="3.2674">
        <ele>321.4</ele>
        <time>2024-05-18T12:51:35Z</time>
      </trkpt>
      <trkpt lat="45.87695" lon="3.26735">
        <ele>321.2</ele>
        <time>2024-05-18T12:51:36Z</time>
      </trkpt>
      <trkpt lat="45.87702" lon="3.2673">
        <ele>321.2</ele>
        <time>2024-05-18T12:51:37Z</time>
      </trkpt>
      <trkpt lat="45.87708" lon="3.26725">
        <ele>321.2</ele>
        <time>2024-05-18T12:51:38Z</time>
      </trkpt>
      <trkpt lat="45.87715" lon="3.2672">
        <ele>321.2</ele>
        <time>2024-05-18T12:51:39Z</time>
      </trkpt>
      <trkpt lat="45.87722" lon="3.26715">
        <ele>321.2</ele>
        <time>2024-05-18T12:51:40Z</time>
      </trkpt>
      <trkpt lat="45.87729" lon="3.2671">
        <ele>321.2</ele>
        <time>2024-05-18T12:51:41Z</time>
      </trkpt>
      <trkpt lat="45.87736" lon="3.26705">
        <ele>321.2</ele>
        <time>2024-05-18T12:51:42Z</time>
      </trkpt>
      <trkpt lat="45.87743" lon="3.26701">
        <ele>321.2</ele>
        <time>2024-05-18T12:51:43Z</time>
      </trkpt>
      <trkpt lat="45.8775" lon="3.26696">
        <ele>321.2</ele>
        <time>2024-05-18T12:51:44Z</time>
      </trkpt>
      <trkpt lat="45.87757" lon="3.26691">
        <ele>321</ele>
        <time>2024-05-18T12:51:45Z</time>
      </trkpt>
      <trkpt lat="45.87764" lon="3.26686">
        <ele>321.2</ele>
        <time>2024-05-18T12:51:46Z</time>
      </trkpt>
      <trkpt lat="45.8777" lon="3.26681">
        <ele>321</ele>
        <time>2024-05-18T12:51:47Z</time>
      </trkpt>
      <trkpt lat="45.87777" lon="3.26676">
        <ele>321</ele>
        <time>2024-05-18T12:51:48Z</time>
      </trkpt>
      <trkpt lat="45.87784" lon="3.26671">
        <ele>321</ele>
        <time>2024-05-18T12:51:49Z</time>
      </trkpt>
      <trkpt lat="45.87791" lon="3.26666">
        <ele>321</ele>
        <time>2024-05-18T12:51:50Z</time>
      </trkpt>
      <trkpt lat="45.87798" lon="3.26662">
        <ele>321</ele>
        <time>2024-05-18T12:51:51Z</time>
      </trkpt>
      <trkpt lat="45.87805" lon="3.26657">
        <ele>321</ele>
        <time>2024-05-18T12:51:52Z</time>
      </trkpt>
      <trkpt lat="45.87812" lon="3.26652">
        <ele>321</ele>
        <time>2024-05-18T12:51:53Z</time>
      </trkpt>
      <trkpt lat="45.87819" lon="3.26647">
        <ele>321</ele>
        <time>2024-05-18T12:51:54Z</time>
      </trkpt>
      <trkpt lat="45.87825" lon="3.26642">
        <ele>321</ele>
        <time>2024-05-18T12:51:55Z</time>
      </trkpt>
      <trkpt lat="45.87832" lon="3.26638">
        <ele>321</ele>
        <time>2024-05-18T12:51:56Z</time>
      </trkpt>
      <trkpt lat="45.87839" lon="3.26633">
        <ele>321</ele>
        <time>2024-05-18T12:51:57Z</time>
      </trkpt>
      <trkpt lat="45.87845" lon="3.26628">
        <ele>321</ele>
        <time>2024-05-18T12:51:58Z</time>
      </trkpt>
      <trkpt lat="45.87852" lon="3.26624">
        <ele>321</ele>
        <time>2024-05-18T12:51:59Z</time>
      </trkpt>
      <trkpt lat="45.87858" lon="3.26619">
        <ele>321</ele>
        <time>2024-05-18T12:52:00Z</time>
      </trkpt>
      <trkpt lat="45.87865" lon="3.26614">
        <ele>321</ele>
        <time>2024-05-18T12:52:01Z</time>
      </trkpt>
      <trkpt lat="45.87872" lon="3.26609">
        <ele>320.8</ele>
        <time>2024-05-18T12:52:02Z</time>
      </trkpt>
      <trkpt lat="45.87879" lon="3.26605">
        <ele>321</ele>
        <time>2024-05-18T12:52:03Z</time>
      </trkpt>
      <trkpt lat="45.87885" lon="3.266">
        <ele>320.8</ele>
        <time>2024-05-18T12:52:04Z</time>
      </trkpt>
      <trkpt lat="45.87892" lon="3.26595">
        <ele>320.8</ele>
        <time>2024-05-18T12:52:05Z</time>
      </trkpt>
      <trkpt lat="45.87899" lon="3.26591">
        <ele>320.8</ele>
        <time>2024-05-18T12:52:06Z</time>
      </trkpt>
      <trkpt lat="45.87905" lon="3.26586">
        <ele>320.8</ele>
        <time>2024-05-18T12:52:07Z</time>
      </trkpt>
      <trkpt lat="45.87912" lon="3.26581">
        <ele>320.8</ele>
        <time>2024-05-18T12:52:08Z</time>
      </trkpt>
      <trkpt lat="45.87919" lon="3.26576">
        <ele>320.6</ele>
        <time>2024-05-18T12:52:09Z</time>
      </trkpt>
      <trkpt lat="45.87925" lon="3.26572">
        <ele>320.6</ele>
        <time>2024-05-18T12:52:10Z</time>
      </trkpt>
      <trkpt lat="45.87932" lon="3.26567">
        <ele>320.6</ele>
        <time>2024-05-18T12:52:11Z</time>
      </trkpt>
      <trkpt lat="45.87939" lon="3.26562">
        <ele>320.6</ele>
        <time>2024-05-18T12:52:12Z</time>
      </trkpt>
      <trkpt lat="45.87946" lon="3.26557">
        <ele>320.6</ele>
        <time>2024-05-18T12:52:13Z</time>
      </trkpt>
      <trkpt lat="45.87952" lon="3.26553">
        <ele>320.6</ele>
        <time>2024-05-18T12:52:14Z</time>
      </trkpt>
      <trkpt lat="45.87959" lon="3.26548">
        <ele>320.6</ele>
        <time>2024-05-18T12:52:15Z</time>
      </trkpt>
      <trkpt lat="45.87965" lon="3.26543">
        <ele>320.6</ele>
        <time>2024-05-18T12:52:16Z</time>
      </trkpt>
      <trkpt lat="45.87972" lon="3.26539">
        <ele>320.6</ele>
        <time>2024-05-18T12:52:17Z</time>
      </trkpt>
      <trkpt lat="45.87979" lon="3.26534">
        <ele>320.6</ele>
        <time>2024-05-18T12:52:18Z</time>
      </trkpt>
      <trkpt lat="45.87985" lon="3.26529">
        <ele>320.6</ele>
        <time>2024-05-18T12:52:19Z</time>
      </trkpt>
      <trkpt lat="45.87992" lon="3.26524">
        <ele>320.4</ele>
        <time>2024-05-18T12:52:20Z</time>
      </trkpt>
      <trkpt lat="45.87999" lon="3.26519">
        <ele>320.4</ele>
        <time>2024-05-18T12:52:21Z</time>
      </trkpt>
      <trkpt lat="45.88006" lon="3.26515">
        <ele>320.4</ele>
        <time>2024-05-18T12:52:22Z</time>
      </trkpt>
      <trkpt lat="45.88013" lon="3.2651">
        <ele>320.4</ele>
        <time>2024-05-18T12:52:23Z</time>
      </trkpt>
      <trkpt lat="45.8802" lon="3.26506">
        <ele>320.2</ele>
        <time>2024-05-18T12:52:24Z</time>
      </trkpt>
      <trkpt lat="45.88027" lon="3.26501">
        <ele>320.2</ele>
        <time>2024-05-18T12:52:25Z</time>
      </trkpt>
      <trkpt lat="45.88035" lon="3.26496">
        <ele>320</ele>
        <time>2024-05-18T12:52:26Z</time>
      </trkpt>
      <trkpt lat="45.88042" lon="3.26491">
        <ele>320</ele>
        <time>2024-05-18T12:52:27Z</time>
      </trkpt>
      <trkpt lat="45.88049" lon="3.26487">
        <ele>320</ele>
        <time>2024-05-18T12:52:28Z</time>
      </trkpt>
      <trkpt lat="45.88057" lon="3.26482">
        <ele>319.8</ele>
        <time>2024-05-18T12:52:29Z</time>
      </trkpt>
      <trkpt lat="45.88064" lon="3.26477">
        <ele>319.8</ele>
        <time>2024-05-18T12:52:30Z</time>
      </trkpt>
      <trkpt lat="45.88071" lon="3.26472">
        <ele>319.8</ele>
        <time>2024-05-18T12:52:31Z</time>
      </trkpt>
      <trkpt lat="45.88079" lon="3.26468">
        <ele>319.6</ele>
        <time>2024-05-18T12:52:32Z</time>
      </trkpt>
      <trkpt lat="45.88086" lon="3.26463">
        <ele>319.6</ele>
        <time>2024-05-18T12:52:33Z</time>
      </trkpt>
      <trkpt lat="45.88094" lon="3.26458">
        <ele>319.4</ele>
        <time>2024-05-18T12:52:34Z</time>
      </trkpt>
      <trkpt lat="45.88102" lon="3.26453">
        <ele>319.4</ele>
        <time>2024-05-18T12:52:35Z</time>
      </trkpt>
      <trkpt lat="45.88109" lon="3.26448">
        <ele>319.4</ele>
        <time>2024-05-18T12:52:36Z</time>
      </trkpt>
      <trkpt lat="45.88117" lon="3.26443">
        <ele>319.2</ele>
        <time>2024-05-18T12:52:37Z</time>
      </trkpt>
      <trkpt lat="45.88124" lon="3.26438">
        <ele>319.2</ele>
        <time>2024-05-18T12:52:38Z</time>
      </trkpt>
      <trkpt lat="45.88132" lon="3.26433">
        <ele>319</ele>
        <time>2024-05-18T12:52:39Z</time>
      </trkpt>
      <trkpt lat="45.88139" lon="3.26429">
        <ele>319</ele>
        <time>2024-05-18T12:52:40Z</time>
      </trkpt>
      <trkpt lat="45.88146" lon="3.26424">
        <ele>319</ele>
        <time>2024-05-18T12:52:41Z</time>
      </trkpt>
      <trkpt lat="45.88154" lon="3.26419">
        <ele>318.8</ele>
        <time>2024-05-18T12:52:42Z</time>
      </trkpt>
      <trkpt lat="45.88161" lon="3.26414">
        <ele>318.8</ele>
        <time>2024-05-18T12:52:43Z</time>
      </trkpt>
      <trkpt lat="45.88169" lon="3.26409">
        <ele>318.8</ele>
        <time>2024-05-18T12:52:44Z</time>
      </trkpt>
      <trkpt lat="45.88176" lon="3.26405">
        <ele>318.6</ele>
        <time>2024-05-18T12:52:45Z</time>
      </trkpt>
      <trkpt lat="45.88183" lon="3.264">
        <ele>318.6</ele>
        <time>2024-05-18T12:52:46Z</time>
      </trkpt>
      <trkpt lat="45.88191" lon="3.26395">
        <ele>318.6</ele>
        <time>2024-05-18T12:52:47Z</time>
      </trkpt>
      <trkpt lat="45.88198" lon="3.2639">
        <ele>318.4</ele>
        <time>2024-05-18T12:52:48Z</time>
      </trkpt>
      <trkpt lat="45.88205" lon="3.26386">
        <ele>318.4</ele>
        <time>2024-05-18T12:52:49Z</time>
      </trkpt>
      <trkpt lat="45.88212" lon="3.26381">
        <ele>318.4</ele>
        <time>2024-05-18T12:52:50Z</time>
      </trkpt>
      <trkpt lat="45.88219" lon="3.26377">
        <ele>318.2</ele>
        <time>2024-05-18T12:52:51Z</time>
      </trkpt>
      <trkpt lat="45.88227" lon="3.26372">
        <ele>318.2</ele>
        <time>2024-05-18T12:52:52Z</time>
      </trkpt>
      <trkpt lat="45.88234" lon="3.26367">
        <ele>318.2</ele>
        <time>2024-05-18T12:52:53Z</time>
      </trkpt>
      <trkpt lat="45.88241" lon="3.26362">
        <ele>318</ele>
        <time>2024-05-18T12:52:54Z</time>
      </trkpt>
      <trkpt lat="45.88248" lon="3.26357">
        <ele>318</ele>
        <time>2024-05-18T12:52:55Z</time>
      </trkpt>
      <trkpt lat="45.88255" lon="3.26353">
        <ele>317.8</ele>
        <time>2024-05-18T12:52:56Z</time>
      </trkpt>
      <trkpt lat="45.88262" lon="3.26348">
        <ele>317.8</ele>
        <time>2024-05-18T12:52:57Z</time>
      </trkpt>
      <trkpt lat="45.88269" lon="3.26343">
        <ele>317.8</ele>
        <time>2024-05-18T12:52:58Z</time>
      </trkpt>
      <trkpt lat="45.88276" lon="3.26339">
        <ele>317.6</ele>
        <time>2024-05-18T12:52:59Z</time>
      </trkpt>
      <trkpt lat="45.88283" lon="3.26334">
        <ele>317.6</ele>
        <time>2024-05-18T12:53:00Z</time>
      </trkpt>
      <trkpt lat="45.8829" lon="3.2633">
        <ele>317.6</ele>
        <time>2024-05-18T12:53:01Z</time>
      </trkpt>
      <trkpt lat="45.88297" lon="3.26325">
        <ele>317.4</ele>
        <time>2024-05-18T12:53:02Z</time>
      </trkpt>
      <trkpt lat="45.88303" lon="3.26321">
        <ele>317.4</ele>
        <time>2024-05-18T12:53:03Z</time>
      </trkpt>
      <trkpt lat="45.8831" lon="3.26316">
        <ele>317.4</ele>
        <time>2024-05-18T12:53:04Z</time>
      </trkpt>
      <trkpt lat="45.88317" lon="3.26312">
        <ele>317.2</ele>
        <time>2024-05-18T12:53:05Z</time>
      </trkpt>
      <trkpt lat="45.88324" lon="3.26307">
        <ele>317.2</ele>
        <time>2024-05-18T12:53:06Z</time>
      </trkpt>
      <trkpt lat="45.88331" lon="3.26302">
        <ele>317.2</ele>
        <time>2024-05-18T12:53:07Z</time>
      </trkpt>
      <trkpt lat="45.88337" lon="3.26298">
        <ele>317</ele>
        <time>2024-05-18T12:53:08Z</time>
      </trkpt>
      <trkpt lat="45.88344" lon="3.26293">
        <ele>317</ele>
        <time>2024-05-18T12:53:09Z</time>
      </trkpt>
      <trkpt lat="45.88351" lon="3.26289">
        <ele>317</ele>
        <time>2024-05-18T12:53:10Z</time>
      </trkpt>
      <trkpt lat="45.88358" lon="3.26284">
        <ele>317</ele>
        <time>2024-05-18T12:53:11Z</time>
      </trkpt>
      <trkpt lat="45.88364" lon="3.2628">
        <ele>316.8</ele>
        <time>2024-05-18T12:53:12Z</time>
      </trkpt>
      <trkpt lat="45.88371" lon="3.26275">
        <ele>316.8</ele>
        <time>2024-05-18T12:53:13Z</time>
      </trkpt>
      <trkpt lat="45.88378" lon="3.26271">
        <ele>316.8</ele>
        <time>2024-05-18T12:53:14Z</time>
      </trkpt>
      <trkpt lat="45.88385" lon="3.26266">
        <ele>316.6</ele>
        <time>2024-05-18T12:53:15Z</time>
      </trkpt>
      <trkpt lat="45.88392" lon="3.26262">
        <ele>316.6</ele>
        <time>2024-05-18T12:53:16Z</time>
      </trkpt>
      <trkpt lat="45.88399" lon="3.26257">
        <ele>316.4</ele>
        <time>2024-05-18T12:53:17Z</time>
      </trkpt>
      <trkpt lat="45.88406" lon="3.26253">
        <ele>316.4</ele>
        <time>2024-05-18T12:53:18Z</time>
      </trkpt>
      <trkpt lat="45.88412" lon="3.26248">
        <ele>316.4</ele>
        <time>2024-05-18T12:53:19Z</time>
      </trkpt>
      <trkpt lat="45.88419" lon="3.26243">
        <ele>316.4</ele>
        <time>2024-05-18T12:53:20Z</time>
      </trkpt>
      <trkpt lat="45.88426" lon="3.26239">
        <ele>316.4</ele>
        <time>2024-05-18T12:53:21Z</time>
      </trkpt>
      <trkpt lat="45.88432" lon="3.26235">
        <ele>316.2</ele>
        <time>2024-05-18T12:53:22Z</time>
      </trkpt>
      <trkpt lat="45.88438" lon="3.26231">
        <ele>316.2</ele>
        <time>2024-05-18T12:53:23Z</time>
      </trkpt>
      <trkpt lat="45.88445" lon="3.26227">
        <ele>316.2</ele>
        <time>2024-05-18T12:53:24Z</time>
      </trkpt>
      <trkpt lat="45.88451" lon="3.26223">
        <ele>316.2</ele>
        <time>2024-05-18T12:53:25Z</time>
      </trkpt>
      <trkpt lat="45.88457" lon="3.26219">
        <ele>316</ele>
        <time>2024-05-18T12:53:26Z</time>
      </trkpt>
      <trkpt lat="45.88463" lon="3.26215">
        <ele>316</ele>
        <time>2024-05-18T12:53:27Z</time>
      </trkpt>
      <trkpt lat="45.88469" lon="3.26211">
        <ele>316</ele>
        <time>2024-05-18T12:53:28Z</time>
      </trkpt>
      <trkpt lat="45.88474" lon="3.26208">
        <ele>315.8</ele>
        <time>2024-05-18T12:53:29Z</time>
      </trkpt>
      <trkpt lat="45.88471" lon="3.26198">
        <ele>315.8</ele>
        <time>2024-05-18T12:53:30Z</time>
      </trkpt>
      <trkpt lat="45.88469" lon="3.26191">
        <ele>315.8</ele>
        <time>2024-05-18T12:53:31Z</time>
      </trkpt>
      <trkpt lat="45.88466" lon="3.26184">
        <ele>315.6</ele>
        <time>2024-05-18T12:53:32Z</time>
      </trkpt>
      <trkpt lat="45.88464" lon="3.26176">
        <ele>315.6</ele>
        <time>2024-05-18T12:53:33Z</time>
      </trkpt>
      <trkpt lat="45.88461" lon="3.26168">
        <ele>315.6</ele>
        <time>2024-05-18T12:53:34Z</time>
      </trkpt>
      <trkpt lat="45.88458" lon="3.2616">
        <ele>315.4</ele>
        <time>2024-05-18T12:53:35Z</time>
      </trkpt>
      <trkpt lat="45.88455" lon="3.26151">
        <ele>315.4</ele>
        <time>2024-05-18T12:53:36Z</time>
      </trkpt>
      <trkpt lat="45.88452" lon="3.26142">
        <ele>315.4</ele>
        <time>2024-05-18T12:53:37Z</time>
      </trkpt>
      <trkpt lat="45.88449" lon="3.26133">
        <ele>315.4</ele>
        <time>2024-05-18T12:53:38Z</time>
      </trkpt>
      <trkpt lat="45.88446" lon="3.26124">
        <ele>315.4</ele>
        <time>2024-05-18T12:53:39Z</time>
      </trkpt>
      <trkpt lat="45.88443" lon="3.26115">
        <ele>315.2</ele>
        <time>2024-05-18T12:53:40Z</time>
      </trkpt>
      <trkpt lat="45.8844" lon="3.26105">
        <ele>315.2</ele>
        <time>2024-05-18T12:53:41Z</time>
      </trkpt>
      <trkpt lat="45.88437" lon="3.26096">
        <ele>315.2</ele>
        <time>2024-05-18T12:53:42Z</time>
      </trkpt>
      <trkpt lat="45.88434" lon="3.26087">
        <ele>315.2</ele>
        <time>2024-05-18T12:53:43Z</time>
      </trkpt>
      <trkpt lat="45.88431" lon="3.26078">
        <ele>315.2</ele>
        <time>2024-05-18T12:53:44Z</time>
      </trkpt>
      <trkpt lat="45.88428" lon="3.26069">
        <ele>315</ele>
        <time>2024-05-18T12:53:45Z</time>
      </trkpt>
      <trkpt lat="45.88425" lon="3.26059">
        <ele>315</ele>
        <time>2024-05-18T12:53:46Z</time>
      </trkpt>
      <trkpt lat="45.88422" lon="3.2605">
        <ele>315</ele>
        <time>2024-05-18T12:53:47Z</time>
      </trkpt>
      <trkpt lat="45.88419" lon="3.26041">
        <ele>315</ele>
        <time>2024-05-18T12:53:48Z</time>
      </trkpt>
      <trkpt lat="45.88416" lon="3.26032">
        <ele>315</ele>
        <time>2024-05-18T12:53:49Z</time>
      </trkpt>
      <trkpt lat="45.88413" lon="3.26023">
        <ele>314.8</ele>
        <time>2024-05-18T12:53:50Z</time>
      </trkpt>
      <trkpt lat="45.88411" lon="3.26014">
        <ele>314.8</ele>
        <time>2024-05-18T12:53:51Z</time>
      </trkpt>
      <trkpt lat="45.88408" lon="3.26005">
        <ele>314.8</ele>
        <time>2024-05-18T12:53:52Z</time>
      </trkpt>
      <trkpt lat="45.88405" lon="3.25996">
        <ele>314.6</ele>
        <time>2024-05-18T12:53:53Z</time>
      </trkpt>
      <trkpt lat="45.88402" lon="3.25987">
        <ele>314.6</ele>
        <time>2024-05-18T12:53:54Z</time>
      </trkpt>
      <trkpt lat="45.88399" lon="3.25978">
        <ele>314.6</ele>
        <time>2024-05-18T12:53:55Z</time>
      </trkpt>
      <trkpt lat="45.88396" lon="3.25969">
        <ele>314.6</ele>
        <time>2024-05-18T12:53:56Z</time>
      </trkpt>
      <trkpt lat="45.88393" lon="3.2596">
        <ele>314.6</ele>
        <time>2024-05-18T12:53:57Z</time>
      </trkpt>
      <trkpt lat="45.8839" lon="3.25951">
        <ele>314.6</ele>
        <time>2024-05-18T12:53:58Z</time>
      </trkpt>
      <trkpt lat="45.88387" lon="3.25942">
        <ele>314.4</ele>
        <time>2024-05-18T12:53:59Z</time>
      </trkpt>
      <trkpt lat="45.88384" lon="3.25933">
        <ele>314.4</ele>
        <time>2024-05-18T12:54:00Z</time>
      </trkpt>
      <trkpt lat="45.88381" lon="3.25924">
        <ele>314.4</ele>
        <time>2024-05-18T12:54:01Z</time>
      </trkpt>
      <trkpt lat="45.88378" lon="3.25915">
        <ele>314.4</ele>
        <time>2024-05-18T12:54:02Z</time>
      </trkpt>
      <trkpt lat="45.88375" lon="3.25906">
        <ele>314.4</ele>
        <time>2024-05-18T12:54:03Z</time>
      </trkpt>
      <trkpt lat="45.88372" lon="3.25897">
        <ele>314.4</ele>
        <time>2024-05-18T12:54:04Z</time>
      </trkpt>
      <trkpt lat="45.88369" lon="3.25888">
        <ele>314.4</ele>
        <time>2024-05-18T12:54:05Z</time>
      </trkpt>
      <trkpt lat="45.88366" lon="3.25879">
        <ele>314.4</ele>
        <time>2024-05-18T12:54:06Z</time>
      </trkpt>
      <trkpt lat="45.88364" lon="3.2587">
        <ele>314.2</ele>
        <time>2024-05-18T12:54:07Z</time>
      </trkpt>
      <trkpt lat="45.88361" lon="3.25861">
        <ele>314.2</ele>
        <time>2024-05-18T12:54:08Z</time>
      </trkpt>
      <trkpt lat="45.88357" lon="3.25852">
        <ele>314.2</ele>
        <time>2024-05-18T12:54:09Z</time>
      </trkpt>
      <trkpt lat="45.88354" lon="3.25844">
        <ele>314.2</ele>
        <time>2024-05-18T12:54:10Z</time>
      </trkpt>
      <trkpt lat="45.8835" lon="3.25837">
        <ele>314.2</ele>
        <time>2024-05-18T12:54:11Z</time>
      </trkpt>
      <trkpt lat="45.88346" lon="3.25829">
        <ele>314.2</ele>
        <time>2024-05-18T12:54:12Z</time>
      </trkpt>
      <trkpt lat="45.88342" lon="3.25821">
        <ele>314.2</ele>
        <time>2024-05-18T12:54:13Z</time>
      </trkpt>
      <trkpt lat="45.88338" lon="3.25813">
        <ele>314.2</ele>
        <time>2024-05-18T12:54:14Z</time>
      </trkpt>
      <trkpt lat="45.88334" lon="3.25805">
        <ele>314.2</ele>
        <time>2024-05-18T12:54:15Z</time>
      </trkpt>
      <trkpt lat="45.8833" lon="3.25797">
        <ele>314.2</ele>
        <time>2024-05-18T12:54:16Z</time>
      </trkpt>
      <trkpt lat="45.88326" lon="3.25789">
        <ele>314.2</ele>
        <time>2024-05-18T12:54:17Z</time>
      </trkpt>
      <trkpt lat="45.88322" lon="3.25781">
        <ele>314.2</ele>
        <time>2024-05-18T12:54:18Z</time>
      </trkpt>
      <trkpt lat="45.88318" lon="3.25774">
        <ele>314.2</ele>
        <time>2024-05-18T12:54:19Z</time>
      </trkpt>
      <trkpt lat="45.88314" lon="3.25766">
        <ele>314.2</ele>
        <time>2024-05-18T12:54:20Z</time>
      </trkpt>
      <trkpt lat="45.8831" lon="3.25758">
        <ele>314.2</ele>
        <time>2024-05-18T12:54:21Z</time>
      </trkpt>
      <trkpt lat="45.88306" lon="3.2575">
        <ele>314.2</ele>
        <time>2024-05-18T12:54:22Z</time>
      </trkpt>
      <trkpt lat="45.88302" lon="3.25742">
        <ele>314</ele>
        <time>2024-05-18T12:54:23Z</time>
      </trkpt>
      <trkpt lat="45.88298" lon="3.25734">
        <ele>314</ele>
        <time>2024-05-18T12:54:24Z</time>
      </trkpt>
      <trkpt lat="45.88294" lon="3.25726">
        <ele>314</ele>
        <time>2024-05-18T12:54:25Z</time>
      </trkpt>
      <trkpt lat="45.8829" lon="3.25718">
        <ele>314</ele>
        <time>2024-05-18T12:54:26Z</time>
      </trkpt>
      <trkpt lat="45.88286" lon="3.2571">
        <ele>314</ele>
        <time>2024-05-18T12:54:27Z</time>
      </trkpt>
      <trkpt lat="45.88282" lon="3.25703">
        <ele>314</ele>
        <time>2024-05-18T12:54:28Z</time>
      </trkpt>
      <trkpt lat="45.88278" lon="3.25695">
        <ele>314</ele>
        <time>2024-05-18T12:54:29Z</time>
      </trkpt>
      <trkpt lat="45.88274" lon="3.25687">
        <ele>314</ele>
        <time>2024-05-18T12:54:30Z</time>
      </trkpt>
      <trkpt lat="45.8827" lon="3.25679">
        <ele>314</ele>
        <time>2024-05-18T12:54:31Z</time>
      </trkpt>
      <trkpt lat="45.88267" lon="3.25672">
        <ele>314</ele>
        <time>2024-05-18T12:54:32Z</time>
      </trkpt>
      <trkpt lat="45.88263" lon="3.25664">
        <ele>314</ele>
        <time>2024-05-18T12:54:33Z</time>
      </trkpt>
      <trkpt lat="45.88259" lon="3.25656">
        <ele>314</ele>
        <time>2024-05-18T12:54:34Z</time>
      </trkpt>
      <trkpt lat="45.88255" lon="3.25649">
        <ele>314</ele>
        <time>2024-05-18T12:54:35Z</time>
      </trkpt>
      <trkpt lat="45.88251" lon="3.25641">
        <ele>314</ele>
        <time>2024-05-18T12:54:36Z</time>
      </trkpt>
      <trkpt lat="45.88247" lon="3.25633">
        <ele>314</ele>
        <time>2024-05-18T12:54:37Z</time>
      </trkpt>
      <trkpt lat="45.88243" lon="3.25624">
        <ele>314</ele>
        <time>2024-05-18T12:54:38Z</time>
      </trkpt>
      <trkpt lat="45.88238" lon="3.25616">
        <ele>314</ele>
        <time>2024-05-18T12:54:39Z</time>
      </trkpt>
      <trkpt lat="45.88234" lon="3.25608">
        <ele>314</ele>
        <time>2024-05-18T12:54:40Z</time>
      </trkpt>
      <trkpt lat="45.8823" lon="3.256">
        <ele>314</ele>
        <time>2024-05-18T12:54:41Z</time>
      </trkpt>
      <trkpt lat="45.88226" lon="3.25591">
        <ele>314</ele>
        <time>2024-05-18T12:54:42Z</time>
      </trkpt>
      <trkpt lat="45.88222" lon="3.25583">
        <ele>314</ele>
        <time>2024-05-18T12:54:43Z</time>
      </trkpt>
      <trkpt lat="45.88218" lon="3.25575">
        <ele>314</ele>
        <time>2024-05-18T12:54:44Z</time>
      </trkpt>
      <trkpt lat="45.88214" lon="3.25567">
        <ele>314</ele>
        <time>2024-05-18T12:54:45Z</time>
      </trkpt>
      <trkpt lat="45.8821" lon="3.2556">
        <ele>314</ele>
        <time>2024-05-18T12:54:46Z</time>
      </trkpt>
      <trkpt lat="45.88206" lon="3.25552">
        <ele>314</ele>
        <time>2024-05-18T12:54:47Z</time>
      </trkpt>
      <trkpt lat="45.88202" lon="3.25544">
        <ele>314</ele>
        <time>2024-05-18T12:54:48Z</time>
      </trkpt>
      <trkpt lat="45.88199" lon="3.25537">
        <ele>314</ele>
        <time>2024-05-18T12:54:49Z</time>
      </trkpt>
      <trkpt lat="45.88195" lon="3.25529">
        <ele>314</ele>
        <time>2024-05-18T12:54:50Z</time>
      </trkpt>
      <trkpt lat="45.88191" lon="3.25522">
        <ele>314</ele>
        <time>2024-05-18T12:54:51Z</time>
      </trkpt>
      <trkpt lat="45.88187" lon="3.25514">
        <ele>313.8</ele>
        <time>2024-05-18T12:54:52Z</time>
      </trkpt>
      <trkpt lat="45.88183" lon="3.25507">
        <ele>313.8</ele>
        <time>2024-05-18T12:54:53Z</time>
      </trkpt>
      <trkpt lat="45.8818" lon="3.25499">
        <ele>313.8</ele>
        <time>2024-05-18T12:54:54Z</time>
      </trkpt>
      <trkpt lat="45.88176" lon="3.25492">
        <ele>313.8</ele>
        <time>2024-05-18T12:54:55Z</time>
      </trkpt>
      <trkpt lat="45.88172" lon="3.25485">
        <ele>313.8</ele>
        <time>2024-05-18T12:54:56Z</time>
      </trkpt>
      <trkpt lat="45.88168" lon="3.25477">
        <ele>313.8</ele>
        <time>2024-05-18T12:54:57Z</time>
      </trkpt>
      <trkpt lat="45.88165" lon="3.2547">
        <ele>313.8</ele>
        <time>2024-05-18T12:54:58Z</time>
      </trkpt>
      <trkpt lat="45.88161" lon="3.25462">
        <ele>313.8</ele>
        <time>2024-05-18T12:54:59Z</time>
      </trkpt>
      <trkpt lat="45.88157" lon="3.25455">
        <ele>313.8</ele>
        <time>2024-05-18T12:55:00Z</time>
      </trkpt>
      <trkpt lat="45.88153" lon="3.25447">
        <ele>313.8</ele>
        <time>2024-05-18T12:55:01Z</time>
      </trkpt>
      <trkpt lat="45.8815" lon="3.2544">
        <ele>313.8</ele>
        <time>2024-05-18T12:55:02Z</time>
      </trkpt>
      <trkpt lat="45.88146" lon="3.25433">
        <ele>313.8</ele>
        <time>2024-05-18T12:55:03Z</time>
      </trkpt>
      <trkpt lat="45.88142" lon="3.25425">
        <ele>313.8</ele>
        <time>2024-05-18T12:55:04Z</time>
      </trkpt>
      <trkpt lat="45.88138" lon="3.25418">
        <ele>313.8</ele>
        <time>2024-05-18T12:55:05Z</time>
      </trkpt>
      <trkpt lat="45.88135" lon="3.2541">
        <ele>313.8</ele>
        <time>2024-05-18T12:55:06Z</time>
      </trkpt>
      <trkpt lat="45.88131" lon="3.25402">
        <ele>313.8</ele>
        <time>2024-05-18T12:55:07Z</time>
      </trkpt>
      <trkpt lat="45.88127" lon="3.25394">
        <ele>313.8</ele>
        <time>2024-05-18T12:55:08Z</time>
      </trkpt>
      <trkpt lat="45.88127" lon="3.25394">
        <ele>313.8</ele>
        <time>2024-05-18T12:55:09Z</time>
      </trkpt>
      <trkpt lat="45.88119" lon="3.25379">
        <ele>313.8</ele>
        <time>2024-05-18T12:55:10Z</time>
      </trkpt>
      <trkpt lat="45.88115" lon="3.25371">
        <ele>313.8</ele>
        <time>2024-05-18T12:55:11Z</time>
      </trkpt>
      <trkpt lat="45.88111" lon="3.25363">
        <ele>313.8</ele>
        <time>2024-05-18T12:55:12Z</time>
      </trkpt>
      <trkpt lat="45.88111" lon="3.25363">
        <ele>313.8</ele>
        <time>2024-05-18T12:55:13Z</time>
      </trkpt>
      <trkpt lat="45.88104" lon="3.25348">
        <ele>313.8</ele>
        <time>2024-05-18T12:55:14Z</time>
      </trkpt>
      <trkpt lat="45.881" lon="3.25341">
        <ele>313.8</ele>
        <time>2024-05-18T12:55:15Z</time>
      </trkpt>
      <trkpt lat="45.88096" lon="3.25333">
        <ele>313.8</ele>
        <time>2024-05-18T12:55:16Z</time>
      </trkpt>
      <trkpt lat="45.88092" lon="3.25325">
        <ele>313.8</ele>
        <time>2024-05-18T12:55:17Z</time>
      </trkpt>
      <trkpt lat="45.88088" lon="3.25318">
        <ele>313.8</ele>
        <time>2024-05-18T12:55:18Z</time>
      </trkpt>
      <trkpt lat="45.88084" lon="3.2531">
        <ele>313.8</ele>
        <time>2024-05-18T12:55:19Z</time>
      </trkpt>
      <trkpt lat="45.88081" lon="3.25302">
        <ele>313.8</ele>
        <time>2024-05-18T12:55:20Z</time>
      </trkpt>
      <trkpt lat="45.88078" lon="3.25294">
        <ele>313.8</ele>
        <time>2024-05-18T12:55:21Z</time>
      </trkpt>
      <trkpt lat="45.88074" lon="3.25286">
        <ele>314</ele>
        <time>2024-05-18T12:55:22Z</time>
      </trkpt>
      <trkpt lat="45.88071" lon="3.25278">
        <ele>314</ele>
        <time>2024-05-18T12:55:23Z</time>
      </trkpt>
      <trkpt lat="45.88067" lon="3.2527">
        <ele>314</ele>
        <time>2024-05-18T12:55:24Z</time>
      </trkpt>
      <trkpt lat="45.88064" lon="3.25262">
        <ele>313.8</ele>
        <time>2024-05-18T12:55:25Z</time>
      </trkpt>
      <trkpt lat="45.8806" lon="3.25253">
        <ele>313.8</ele>
        <time>2024-05-18T12:55:26Z</time>
      </trkpt>
      <trkpt lat="45.88057" lon="3.25245">
        <ele>313.8</ele>
        <time>2024-05-18T12:55:27Z</time>
      </trkpt>
      <trkpt lat="45.88055" lon="3.25236">
        <ele>314</ele>
        <time>2024-05-18T12:55:28Z</time>
      </trkpt>
      <trkpt lat="45.88053" lon="3.25227">
        <ele>314</ele>
        <time>2024-05-18T12:55:29Z</time>
      </trkpt>
      <trkpt lat="45.88051" lon="3.25218">
        <ele>314</ele>
        <time>2024-05-18T12:55:30Z</time>
      </trkpt>
      <trkpt lat="45.88049" lon="3.25209">
        <ele>314</ele>
        <time>2024-05-18T12:55:31Z</time>
      </trkpt>
      <trkpt lat="45.88047" lon="3.252">
        <ele>314</ele>
        <time>2024-05-18T12:55:32Z</time>
      </trkpt>
      <trkpt lat="45.88046" lon="3.25191">
        <ele>314</ele>
        <time>2024-05-18T12:55:33Z</time>
      </trkpt>
      <trkpt lat="45.88044" lon="3.25182">
        <ele>314</ele>
        <time>2024-05-18T12:55:34Z</time>
      </trkpt>
      <trkpt lat="45.88042" lon="3.25173">
        <ele>314</ele>
        <time>2024-05-18T12:55:35Z</time>
      </trkpt>
      <trkpt lat="45.8804" lon="3.25164">
        <ele>314</ele>
        <time>2024-05-18T12:55:36Z</time>
      </trkpt>
      <trkpt lat="45.88038" lon="3.25155">
        <ele>314</ele>
        <time>2024-05-18T12:55:37Z</time>
      </trkpt>
      <trkpt lat="45.88037" lon="3.25146">
        <ele>314</ele>
        <time>2024-05-18T12:55:38Z</time>
      </trkpt>
      <trkpt lat="45.88035" lon="3.25137">
        <ele>314</ele>
        <time>2024-05-18T12:55:39Z</time>
      </trkpt>
      <trkpt lat="45.88033" lon="3.25128">
        <ele>314</ele>
        <time>2024-05-18T12:55:40Z</time>
      </trkpt>
      <trkpt lat="45.88031" lon="3.25119">
        <ele>314.2</ele>
        <time>2024-05-18T12:55:41Z</time>
      </trkpt>
      <trkpt lat="45.88029" lon="3.2511">
        <ele>314.2</ele>
        <time>2024-05-18T12:55:42Z</time>
      </trkpt>
      <trkpt lat="45.88028" lon="3.25101">
        <ele>314.2</ele>
        <time>2024-05-18T12:55:43Z</time>
      </trkpt>
      <trkpt lat="45.88026" lon="3.25092">
        <ele>314.2</ele>
        <time>2024-05-18T12:55:44Z</time>
      </trkpt>
      <trkpt lat="45.88024" lon="3.25083">
        <ele>314.2</ele>
        <time>2024-05-18T12:55:45Z</time>
      </trkpt>
      <trkpt lat="45.88022" lon="3.25074">
        <ele>314.2</ele>
        <time>2024-05-18T12:55:46Z</time>
      </trkpt>
      <trkpt lat="45.88021" lon="3.25065">
        <ele>314.2</ele>
        <time>2024-05-18T12:55:47Z</time>
      </trkpt>
      <trkpt lat="45.88019" lon="3.25056">
        <ele>314.2</ele>
        <time>2024-05-18T12:55:48Z</time>
      </trkpt>
      <trkpt lat="45.88017" lon="3.25047">
        <ele>314.2</ele>
        <time>2024-05-18T12:55:49Z</time>
      </trkpt>
      <trkpt lat="45.88015" lon="3.25037">
        <ele>314.2</ele>
        <time>2024-05-18T12:55:50Z</time>
      </trkpt>
      <trkpt lat="45.88013" lon="3.25028">
        <ele>314.2</ele>
        <time>2024-05-18T12:55:51Z</time>
      </trkpt>
      <trkpt lat="45.88011" lon="3.25019">
        <ele>314.2</ele>
        <time>2024-05-18T12:55:52Z</time>
      </trkpt>
      <trkpt lat="45.8801" lon="3.25009">
        <ele>314.2</ele>
        <time>2024-05-18T12:55:53Z</time>
      </trkpt>
      <trkpt lat="45.88008" lon="3.25">
        <ele>314.2</ele>
        <time>2024-05-18T12:55:54Z</time>
      </trkpt>
      <trkpt lat="45.88006" lon="3.2499">
        <ele>314.2</ele>
        <time>2024-05-18T12:55:55Z</time>
      </trkpt>
      <trkpt lat="45.88004" lon="3.24981">
        <ele>314.2</ele>
        <time>2024-05-18T12:55:56Z</time>
      </trkpt>
      <trkpt lat="45.88002" lon="3.24971">
        <ele>314.2</ele>
        <time>2024-05-18T12:55:57Z</time>
      </trkpt>
      <trkpt lat="45.88" lon="3.24961">
        <ele>314.2</ele>
        <time>2024-05-18T12:55:58Z</time>
      </trkpt>
      <trkpt lat="45.87998" lon="3.24952">
        <ele>314.2</ele>
        <time>2024-05-18T12:55:59Z</time>
      </trkpt>
      <trkpt lat="45.87996" lon="3.24942">
        <ele>314.2</ele>
        <time>2024-05-18T12:56:00Z</time>
      </trkpt>
      <trkpt lat="45.87993" lon="3.24933">
        <ele>314.2</ele>
        <time>2024-05-18T12:56:01Z</time>
      </trkpt>
      <trkpt lat="45.8799" lon="3.24924">
        <ele>314.2</ele>
        <time>2024-05-18T12:56:02Z</time>
      </trkpt>
      <trkpt lat="45.87987" lon="3.24915">
        <ele>314.2</ele>
        <time>2024-05-18T12:56:03Z</time>
      </trkpt>
      <trkpt lat="45.87984" lon="3.24905">
        <ele>314.2</ele>
        <time>2024-05-18T12:56:04Z</time>
      </trkpt>
      <trkpt lat="45.87981" lon="3.24896">
        <ele>314</ele>
        <time>2024-05-18T12:56:05Z</time>
      </trkpt>
      <trkpt lat="45.87978" lon="3.24887">
        <ele>314</ele>
        <time>2024-05-18T12:56:06Z</time>
      </trkpt>
      <trkpt lat="45.87975" lon="3.24878">
        <ele>314</ele>
        <time>2024-05-18T12:56:07Z</time>
      </trkpt>
      <trkpt lat="45.87972" lon="3.24868">
        <ele>314</ele>
        <time>2024-05-18T12:56:08Z</time>
      </trkpt>
      <trkpt lat="45.87969" lon="3.24859">
        <ele>314</ele>
        <time>2024-05-18T12:56:09Z</time>
      </trkpt>
      <trkpt lat="45.87965" lon="3.2485">
        <ele>314</ele>
        <time>2024-05-18T12:56:10Z</time>
      </trkpt>
      <trkpt lat="45.87962" lon="3.24841">
        <ele>314</ele>
        <time>2024-05-18T12:56:11Z</time>
      </trkpt>
      <trkpt lat="45.87959" lon="3.24832">
        <ele>314</ele>
        <time>2024-05-18T12:56:12Z</time>
      </trkpt>
      <trkpt lat="45.87956" lon="3.24823">
        <ele>314</ele>
        <time>2024-05-18T12:56:13Z</time>
      </trkpt>
      <trkpt lat="45.87953" lon="3.24814">
        <ele>314</ele>
        <time>2024-05-18T12:56:14Z</time>
      </trkpt>
      <trkpt lat="45.8795" lon="3.24805">
        <ele>314</ele>
        <time>2024-05-18T12:56:15Z</time>
      </trkpt>
      <trkpt lat="45.87947" lon="3.24797">
        <ele>314</ele>
        <time>2024-05-18T12:56:16Z</time>
      </trkpt>
      <trkpt lat="45.87945" lon="3.24788">
        <ele>314</ele>
        <time>2024-05-18T12:56:17Z</time>
      </trkpt>
      <trkpt lat="45.87942" lon="3.2478">
        <ele>314</ele>
        <time>2024-05-18T12:56:18Z</time>
      </trkpt>
      <trkpt lat="45.87939" lon="3.24771">
        <ele>314</ele>
        <time>2024-05-18T12:56:19Z</time>
      </trkpt>
      <trkpt lat="45.87936" lon="3.24762">
        <ele>314</ele>
        <time>2024-05-18T12:56:20Z</time>
      </trkpt>
      <trkpt lat="45.87933" lon="3.24754">
        <ele>314</ele>
        <time>2024-05-18T12:56:21Z</time>
      </trkpt>
      <trkpt lat="45.8793" lon="3.24745">
        <ele>314</ele>
        <time>2024-05-18T12:56:22Z</time>
      </trkpt>
      <trkpt lat="45.87927" lon="3.24737">
        <ele>314</ele>
        <time>2024-05-18T12:56:23Z</time>
      </trkpt>
      <trkpt lat="45.87924" lon="3.24728">
        <ele>314</ele>
        <time>2024-05-18T12:56:24Z</time>
      </trkpt>
      <trkpt lat="45.87921" lon="3.24719">
        <ele>314</ele>
        <time>2024-05-18T12:56:25Z</time>
      </trkpt>
      <trkpt lat="45.87918" lon="3.24711">
        <ele>314.2</ele>
        <time>2024-05-18T12:56:26Z</time>
      </trkpt>
      <trkpt lat="45.87916" lon="3.24702">
        <ele>314.2</ele>
        <time>2024-05-18T12:56:27Z</time>
      </trkpt>
      <trkpt lat="45.87913" lon="3.24694">
        <ele>314.2</ele>
        <time>2024-05-18T12:56:28Z</time>
      </trkpt>
      <trkpt lat="45.8791" lon="3.24685">
        <ele>314.2</ele>
        <time>2024-05-18T12:56:29Z</time>
      </trkpt>
      <trkpt lat="45.87907" lon="3.24677">
        <ele>314.2</ele>
        <time>2024-05-18T12:56:30Z</time>
      </trkpt>
      <trkpt lat="45.87904" lon="3.24668">
        <ele>314.2</ele>
        <time>2024-05-18T12:56:31Z</time>
      </trkpt>
      <trkpt lat="45.87901" lon="3.24659">
        <ele>314.2</ele>
        <time>2024-05-18T12:56:32Z</time>
      </trkpt>
      <trkpt lat="45.87898" lon="3.24651">
        <ele>314.2</ele>
        <time>2024-05-18T12:56:33Z</time>
      </trkpt>
      <trkpt lat="45.87895" lon="3.24642">
        <ele>314.2</ele>
        <time>2024-05-18T12:56:34Z</time>
      </trkpt>
      <trkpt lat="45.87892" lon="3.24634">
        <ele>314.2</ele>
        <time>2024-05-18T12:56:35Z</time>
      </trkpt>
      <trkpt lat="45.87889" lon="3.24625">
        <ele>314.2</ele>
        <time>2024-05-18T12:56:36Z</time>
      </trkpt>
      <trkpt lat="45.87886" lon="3.24616">
        <ele>314.2</ele>
        <time>2024-05-18T12:56:37Z</time>
      </trkpt>
      <trkpt lat="45.87883" lon="3.24607">
        <ele>314.2</ele>
        <time>2024-05-18T12:56:38Z</time>
      </trkpt>
      <trkpt lat="45.8788" lon="3.24598">
        <ele>314.2</ele>
        <time>2024-05-18T12:56:39Z</time>
      </trkpt>
      <trkpt lat="45.87878" lon="3.2459">
        <ele>314.2</ele>
        <time>2024-05-18T12:56:40Z</time>
      </trkpt>
      <trkpt lat="45.87875" lon="3.24581">
        <ele>314.2</ele>
        <time>2024-05-18T12:56:41Z</time>
      </trkpt>
      <trkpt lat="45.87872" lon="3.24572">
        <ele>314.2</ele>
        <time>2024-05-18T12:56:42Z</time>
      </trkpt>
      <trkpt lat="45.87869" lon="3.24564">
        <ele>314.2</ele>
        <time>2024-05-18T12:56:43Z</time>
      </trkpt>
      <trkpt lat="45.87866" lon="3.24555">
        <ele>314.2</ele>
        <time>2024-05-18T12:56:44Z</time>
      </trkpt>
      <trkpt lat="45.87863" lon="3.24547">
        <ele>314.2</ele>
        <time>2024-05-18T12:56:45Z</time>
      </trkpt>
      <trkpt lat="45.8786" lon="3.24538">
        <ele>314.2</ele>
        <time>2024-05-18T12:56:46Z</time>
      </trkpt>
      <trkpt lat="45.87857" lon="3.2453">
        <ele>314.2</ele>
        <time>2024-05-18T12:56:47Z</time>
      </trkpt>
      <trkpt lat="45.87854" lon="3.24521">
        <ele>314.4</ele>
        <time>2024-05-18T12:56:48Z</time>
      </trkpt>
      <trkpt lat="45.87852" lon="3.24513">
        <ele>314.4</ele>
        <time>2024-05-18T12:56:49Z</time>
      </trkpt>
      <trkpt lat="45.87849" lon="3.24504">
        <ele>314.4</ele>
        <time>2024-05-18T12:56:50Z</time>
      </trkpt>
      <trkpt lat="45.87846" lon="3.24496">
        <ele>314.4</ele>
        <time>2024-05-18T12:56:51Z</time>
      </trkpt>
      <trkpt lat="45.87843" lon="3.24487">
        <ele>314.4</ele>
        <time>2024-05-18T12:56:52Z</time>
      </trkpt>
      <trkpt lat="45.8784" lon="3.24479">
        <ele>314.4</ele>
        <time>2024-05-18T12:56:53Z</time>
      </trkpt>
      <trkpt lat="45.87837" lon="3.2447">
        <ele>314.6</ele>
        <time>2024-05-18T12:56:54Z</time>
      </trkpt>
      <trkpt lat="45.87834" lon="3.24462">
        <ele>314.6</ele>
        <time>2024-05-18T12:56:55Z</time>
      </trkpt>
      <trkpt lat="45.87832" lon="3.24454">
        <ele>314.6</ele>
        <time>2024-05-18T12:56:56Z</time>
      </trkpt>
      <trkpt lat="45.87829" lon="3.24445">
        <ele>314.6</ele>
        <time>2024-05-18T12:56:57Z</time>
      </trkpt>
      <trkpt lat="45.87826" lon="3.24437">
        <ele>314.6</ele>
        <time>2024-05-18T12:56:58Z</time>
      </trkpt>
      <trkpt lat="45.87823" lon="3.24429">
        <ele>314.8</ele>
        <time>2024-05-18T12:56:59Z</time>
      </trkpt>
      <trkpt lat="45.87821" lon="3.24421">
        <ele>314.8</ele>
        <time>2024-05-18T12:57:00Z</time>
      </trkpt>
      <trkpt lat="45.87818" lon="3.24413">
        <ele>314.8</ele>
        <time>2024-05-18T12:57:01Z</time>
      </trkpt>
      <trkpt lat="45.87814" lon="3.24405">
        <ele>314.8</ele>
        <time>2024-05-18T12:57:02Z</time>
      </trkpt>
      <trkpt lat="45.87811" lon="3.24397">
        <ele>314.8</ele>
        <time>2024-05-18T12:57:03Z</time>
      </trkpt>
      <trkpt lat="45.87808" lon="3.24389">
        <ele>314.8</ele>
        <time>2024-05-18T12:57:04Z</time>
      </trkpt>
      <trkpt lat="45.87806" lon="3.2438">
        <ele>314.8</ele>
        <time>2024-05-18T12:57:05Z</time>
      </trkpt>
      <trkpt lat="45.87803" lon="3.24372">
        <ele>315</ele>
        <time>2024-05-18T12:57:06Z</time>
      </trkpt>
      <trkpt lat="45.878" lon="3.24363">
        <ele>315</ele>
        <time>2024-05-18T12:57:07Z</time>
      </trkpt>
      <trkpt lat="45.87797" lon="3.24355">
        <ele>315</ele>
        <time>2024-05-18T12:57:08Z</time>
      </trkpt>
      <trkpt lat="45.87794" lon="3.24346">
        <ele>315</ele>
        <time>2024-05-18T12:57:09Z</time>
      </trkpt>
      <trkpt lat="45.87791" lon="3.24337">
        <ele>315</ele>
        <time>2024-05-18T12:57:10Z</time>
      </trkpt>
      <trkpt lat="45.87788" lon="3.24329">
        <ele>315</ele>
        <time>2024-05-18T12:57:11Z</time>
      </trkpt>
      <trkpt lat="45.87785" lon="3.2432">
        <ele>315</ele>
        <time>2024-05-18T12:57:12Z</time>
      </trkpt>
      <trkpt lat="45.87783" lon="3.24311">
        <ele>315</ele>
        <time>2024-05-18T12:57:13Z</time>
      </trkpt>
      <trkpt lat="45.8778" lon="3.24303">
        <ele>315</ele>
        <time>2024-05-18T12:57:14Z</time>
      </trkpt>
      <trkpt lat="45.87777" lon="3.24294">
        <ele>315</ele>
        <time>2024-05-18T12:57:15Z</time>
      </trkpt>
      <trkpt lat="45.87774" lon="3.24286">
        <ele>315</ele>
        <time>2024-05-18T12:57:16Z</time>
      </trkpt>
      <trkpt lat="45.87771" lon="3.24277">
        <ele>315</ele>
        <time>2024-05-18T12:57:17Z</time>
      </trkpt>
      <trkpt lat="45.87768" lon="3.24268">
        <ele>315</ele>
        <time>2024-05-18T12:57:18Z</time>
      </trkpt>
      <trkpt lat="45.87765" lon="3.24259">
        <ele>315</ele>
        <time>2024-05-18T12:57:19Z</time>
      </trkpt>
      <trkpt lat="45.87762" lon="3.24251">
        <ele>315</ele>
        <time>2024-05-18T12:57:20Z</time>
      </trkpt>
      <trkpt lat="45.87759" lon="3.24242">
        <ele>315</ele>
        <time>2024-05-18T12:57:21Z</time>
      </trkpt>
      <trkpt lat="45.87756" lon="3.24233">
        <ele>315</ele>
        <time>2024-05-18T12:57:22Z</time>
      </trkpt>
      <trkpt lat="45.87753" lon="3.24225">
        <ele>315</ele>
        <time>2024-05-18T12:57:23Z</time>
      </trkpt>
      <trkpt lat="45.8775" lon="3.24216">
        <ele>315</ele>
        <time>2024-05-18T12:57:24Z</time>
      </trkpt>
      <trkpt lat="45.87747" lon="3.24207">
        <ele>315</ele>
        <time>2024-05-18T12:57:25Z</time>
      </trkpt>
      <trkpt lat="45.87744" lon="3.24199">
        <ele>315</ele>
        <time>2024-05-18T12:57:26Z</time>
      </trkpt>
      <trkpt lat="45.87741" lon="3.2419">
        <ele>315</ele>
        <time>2024-05-18T12:57:27Z</time>
      </trkpt>
      <trkpt lat="45.87738" lon="3.24181">
        <ele>315</ele>
        <time>2024-05-18T12:57:28Z</time>
      </trkpt>
      <trkpt lat="45.87735" lon="3.24173">
        <ele>315</ele>
        <time>2024-05-18T12:57:29Z</time>
      </trkpt>
      <trkpt lat="45.87733" lon="3.24164">
        <ele>315</ele>
        <time>2024-05-18T12:57:30Z</time>
      </trkpt>
      <trkpt lat="45.8773" lon="3.24155">
        <ele>315.2</ele>
        <time>2024-05-18T12:57:31Z</time>
      </trkpt>
      <trkpt lat="45.87727" lon="3.24146">
        <ele>315.2</ele>
        <time>2024-05-18T12:57:32Z</time>
      </trkpt>
      <trkpt lat="45.87724" lon="3.24138">
        <ele>315.2</ele>
        <time>2024-05-18T12:57:33Z</time>
      </trkpt>
      <trkpt lat="45.87721" lon="3.24129">
        <ele>315.2</ele>
        <time>2024-05-18T12:57:34Z</time>
      </trkpt>
      <trkpt lat="45.87718" lon="3.24121">
        <ele>315.2</ele>
        <time>2024-05-18T12:57:35Z</time>
      </trkpt>
      <trkpt lat="45.87715" lon="3.24112">
        <ele>315.2</ele>
        <time>2024-05-18T12:57:36Z</time>
      </trkpt>
      <trkpt lat="45.87712" lon="3.24103">
        <ele>315.2</ele>
        <time>2024-05-18T12:57:37Z</time>
      </trkpt>
      <trkpt lat="45.87709" lon="3.24095">
        <ele>315.2</ele>
        <time>2024-05-18T12:57:38Z</time>
      </trkpt>
      <trkpt lat="45.87706" lon="3.24086">
        <ele>315.2</ele>
        <time>2024-05-18T12:57:39Z</time>
      </trkpt>
      <trkpt lat="45.87703" lon="3.24078">
        <ele>315.2</ele>
        <time>2024-05-18T12:57:40Z</time>
      </trkpt>
      <trkpt lat="45.877" lon="3.24069">
        <ele>315.2</ele>
        <time>2024-05-18T12:57:41Z</time>
      </trkpt>
      <trkpt lat="45.87698" lon="3.24061">
        <ele>315.2</ele>
        <time>2024-05-18T12:57:42Z</time>
      </trkpt>
      <trkpt lat="45.87695" lon="3.24052">
        <ele>315.2</ele>
        <time>2024-05-18T12:57:43Z</time>
      </trkpt>
      <trkpt lat="45.87692" lon="3.24044">
        <ele>315.2</ele>
        <time>2024-05-18T12:57:44Z</time>
      </trkpt>
      <trkpt lat="45.87689" lon="3.24035">
        <ele>315.2</ele>
        <time>2024-05-18T12:57:45Z</time>
      </trkpt>
      <trkpt lat="45.87686" lon="3.24027">
        <ele>315.2</ele>
        <time>2024-05-18T12:57:46Z</time>
      </trkpt>
      <trkpt lat="45.87683" lon="3.24018">
        <ele>315.2</ele>
        <time>2024-05-18T12:57:47Z</time>
      </trkpt>
      <trkpt lat="45.8768" lon="3.2401">
        <ele>315.2</ele>
        <time>2024-05-18T12:57:48Z</time>
      </trkpt>
      <trkpt lat="45.87677" lon="3.24002">
        <ele>315.2</ele>
        <time>2024-05-18T12:57:49Z</time>
      </trkpt>
      <trkpt lat="45.87675" lon="3.23993">
        <ele>315.2</ele>
        <time>2024-05-18T12:57:50Z</time>
      </trkpt>
      <trkpt lat="45.87672" lon="3.23985">
        <ele>315.4</ele>
        <time>2024-05-18T12:57:51Z</time>
      </trkpt>
      <trkpt lat="45.87669" lon="3.23976">
        <ele>315.4</ele>
        <time>2024-05-18T12:57:52Z</time>
      </trkpt>
      <trkpt lat="45.87666" lon="3.23968">
        <ele>315.4</ele>
        <time>2024-05-18T12:57:53Z</time>
      </trkpt>
      <trkpt lat="45.87662" lon="3.2396">
        <ele>315.4</ele>
        <time>2024-05-18T12:57:54Z</time>
      </trkpt>
      <trkpt lat="45.87659" lon="3.23952">
        <ele>315.4</ele>
        <time>2024-05-18T12:57:55Z</time>
      </trkpt>
      <trkpt lat="45.87655" lon="3.23944">
        <ele>315.4</ele>
        <time>2024-05-18T12:57:56Z</time>
      </trkpt>
      <trkpt lat="45.87652" lon="3.23936">
        <ele>315.4</ele>
        <time>2024-05-18T12:57:57Z</time>
      </trkpt>
      <trkpt lat="45.87649" lon="3.23928">
        <ele>315.4</ele>
        <time>2024-05-18T12:57:58Z</time>
      </trkpt>
      <trkpt lat="45.87645" lon="3.23919">
        <ele>315.4</ele>
        <time>2024-05-18T12:57:59Z</time>
      </trkpt>
      <trkpt lat="45.87642" lon="3.23911">
        <ele>315.4</ele>
        <time>2024-05-18T12:58:00Z</time>
      </trkpt>
      <trkpt lat="45.87638" lon="3.23903">
        <ele>315.4</ele>
        <time>2024-05-18T12:58:01Z</time>
      </trkpt>
      <trkpt lat="45.87635" lon="3.23894">
        <ele>315.4</ele>
        <time>2024-05-18T12:58:02Z</time>
      </trkpt>
      <trkpt lat="45.87631" lon="3.23886">
        <ele>315.4</ele>
        <time>2024-05-18T12:58:03Z</time>
      </trkpt>
      <trkpt lat="45.87627" lon="3.23878">
        <ele>315.4</ele>
        <time>2024-05-18T12:58:04Z</time>
      </trkpt>
      <trkpt lat="45.87624" lon="3.23869">
        <ele>315.4</ele>
        <time>2024-05-18T12:58:05Z</time>
      </trkpt>
      <trkpt lat="45.8762" lon="3.23861">
        <ele>315.4</ele>
        <time>2024-05-18T12:58:06Z</time>
      </trkpt>
      <trkpt lat="45.87617" lon="3.23853">
        <ele>315.4</ele>
        <time>2024-05-18T12:58:07Z</time>
      </trkpt>
      <trkpt lat="45.87613" lon="3.23845">
        <ele>315.4</ele>
        <time>2024-05-18T12:58:08Z</time>
      </trkpt>
      <trkpt lat="45.8761" lon="3.23836">
        <ele>315.4</ele>
        <time>2024-05-18T12:58:09Z</time>
      </trkpt>
      <trkpt lat="45.87607" lon="3.23828">
        <ele>315.4</ele>
        <time>2024-05-18T12:58:10Z</time>
      </trkpt>
      <trkpt lat="45.87603" lon="3.2382">
        <ele>315.4</ele>
        <time>2024-05-18T12:58:11Z</time>
      </trkpt>
      <trkpt lat="45.876" lon="3.23812">
        <ele>315.4</ele>
        <time>2024-05-18T12:58:12Z</time>
      </trkpt>
      <trkpt lat="45.87596" lon="3.23804">
        <ele>315.6</ele>
        <time>2024-05-18T12:58:13Z</time>
      </trkpt>
      <trkpt lat="45.87593" lon="3.23796">
        <ele>315.6</ele>
        <time>2024-05-18T12:58:14Z</time>
      </trkpt>
      <trkpt lat="45.87589" lon="3.23788">
        <ele>315.6</ele>
        <time>2024-05-18T12:58:15Z</time>
      </trkpt>
      <trkpt lat="45.87586" lon="3.23779">
        <ele>315.6</ele>
        <time>2024-05-18T12:58:16Z</time>
      </trkpt>
      <trkpt lat="45.87583" lon="3.23771">
        <ele>315.6</ele>
        <time>2024-05-18T12:58:17Z</time>
      </trkpt>
      <trkpt lat="45.8758" lon="3.23763">
        <ele>315.6</ele>
        <time>2024-05-18T12:58:18Z</time>
      </trkpt>
      <trkpt lat="45.87577" lon="3.23755">
        <ele>315.6</ele>
        <time>2024-05-18T12:58:19Z</time>
      </trkpt>
      <trkpt lat="45.87574" lon="3.23747">
        <ele>315.6</ele>
        <time>2024-05-18T12:58:20Z</time>
      </trkpt>
      <trkpt lat="45.87571" lon="3.23738">
        <ele>315.6</ele>
        <time>2024-05-18T12:58:21Z</time>
      </trkpt>
      <trkpt lat="45.87568" lon="3.2373">
        <ele>315.6</ele>
        <time>2024-05-18T12:58:22Z</time>
      </trkpt>
      <trkpt lat="45.87565" lon="3.23721">
        <ele>315.8</ele>
        <time>2024-05-18T12:58:23Z</time>
      </trkpt>
      <trkpt lat="45.87562" lon="3.23713">
        <ele>315.8</ele>
        <time>2024-05-18T12:58:24Z</time>
      </trkpt>
      <trkpt lat="45.87559" lon="3.23705">
        <ele>315.8</ele>
        <time>2024-05-18T12:58:25Z</time>
      </trkpt>
      <trkpt lat="45.87556" lon="3.23697">
        <ele>315.8</ele>
        <time>2024-05-18T12:58:26Z</time>
      </trkpt>
      <trkpt lat="45.87553" lon="3.23689">
        <ele>315.8</ele>
        <time>2024-05-18T12:58:27Z</time>
      </trkpt>
      <trkpt lat="45.87549" lon="3.2368">
        <ele>315.8</ele>
        <time>2024-05-18T12:58:28Z</time>
      </trkpt>
      <trkpt lat="45.87546" lon="3.23672">
        <ele>316</ele>
        <time>2024-05-18T12:58:29Z</time>
      </trkpt>
      <trkpt lat="45.87543" lon="3.23664">
        <ele>316</ele>
        <time>2024-05-18T12:58:30Z</time>
      </trkpt>
      <trkpt lat="45.8754" lon="3.23655">
        <ele>316</ele>
        <time>2024-05-18T12:58:31Z</time>
      </trkpt>
      <trkpt lat="45.87537" lon="3.23647">
        <ele>316</ele>
        <time>2024-05-18T12:58:32Z</time>
      </trkpt>
      <trkpt lat="45.87534" lon="3.23639">
        <ele>316</ele>
        <time>2024-05-18T12:58:33Z</time>
      </trkpt>
      <trkpt lat="45.87531" lon="3.23631">
        <ele>316.2</ele>
        <time>2024-05-18T12:58:34Z</time>
      </trkpt>
      <trkpt lat="45.87528" lon="3.23623">
        <ele>316.2</ele>
        <time>2024-05-18T12:58:35Z</time>
      </trkpt>
      <trkpt lat="45.87525" lon="3.23614">
        <ele>316.2</ele>
        <time>2024-05-18T12:58:36Z</time>
      </trkpt>
      <trkpt lat="45.87522" lon="3.23606">
        <ele>316.2</ele>
        <time>2024-05-18T12:58:37Z</time>
      </trkpt>
      <trkpt lat="45.87519" lon="3.23598">
        <ele>316.2</ele>
        <time>2024-05-18T12:58:38Z</time>
      </trkpt>
      <trkpt lat="45.87516" lon="3.2359">
        <ele>316.2</ele>
        <time>2024-05-18T12:58:39Z</time>
      </trkpt>
      <trkpt lat="45.87513" lon="3.23581">
        <ele>316.2</ele>
        <time>2024-05-18T12:58:40Z</time>
      </trkpt>
      <trkpt lat="45.87509" lon="3.23573">
        <ele>316.2</ele>
        <time>2024-05-18T12:58:41Z</time>
      </trkpt>
      <trkpt lat="45.87506" lon="3.23565">
        <ele>316.2</ele>
        <time>2024-05-18T12:58:42Z</time>
      </trkpt>
      <trkpt lat="45.87503" lon="3.23556">
        <ele>316.2</ele>
        <time>2024-05-18T12:58:43Z</time>
      </trkpt>
      <trkpt lat="45.875" lon="3.23548">
        <ele>316.2</ele>
        <time>2024-05-18T12:58:44Z</time>
      </trkpt>
      <trkpt lat="45.87497" lon="3.23539">
        <ele>316.2</ele>
        <time>2024-05-18T12:58:45Z</time>
      </trkpt>
      <trkpt lat="45.87494" lon="3.23531">
        <ele>316.2</ele>
        <time>2024-05-18T12:58:46Z</time>
      </trkpt>
      <trkpt lat="45.87491" lon="3.23522">
        <ele>316.2</ele>
        <time>2024-05-18T12:58:47Z</time>
      </trkpt>
      <trkpt lat="45.87487" lon="3.23514">
        <ele>316.2</ele>
        <time>2024-05-18T12:58:48Z</time>
      </trkpt>
      <trkpt lat="45.87484" lon="3.23505">
        <ele>316.2</ele>
        <time>2024-05-18T12:58:49Z</time>
      </trkpt>
      <trkpt lat="45.87481" lon="3.23497">
        <ele>316.2</ele>
        <time>2024-05-18T12:58:50Z</time>
      </trkpt>
      <trkpt lat="45.87478" lon="3.23488">
        <ele>316.4</ele>
        <time>2024-05-18T12:58:51Z</time>
      </trkpt>
      <trkpt lat="45.87475" lon="3.2348">
        <ele>316.4</ele>
        <time>2024-05-18T12:58:52Z</time>
      </trkpt>
      <trkpt lat="45.87472" lon="3.23471">
        <ele>316.4</ele>
        <time>2024-05-18T12:58:53Z</time>
      </trkpt>
      <trkpt lat="45.87468" lon="3.23463">
        <ele>316.4</ele>
        <time>2024-05-18T12:58:54Z</time>
      </trkpt>
      <trkpt lat="45.87465" lon="3.23455">
        <ele>316.4</ele>
        <time>2024-05-18T12:58:55Z</time>
      </trkpt>
      <trkpt lat="45.87462" lon="3.23446">
        <ele>316.4</ele>
        <time>2024-05-18T12:58:56Z</time>
      </trkpt>
      <trkpt lat="45.87459" lon="3.23437">
        <ele>316.4</ele>
        <time>2024-05-18T12:58:57Z</time>
      </trkpt>
      <trkpt lat="45.87456" lon="3.23429">
        <ele>316.4</ele>
        <time>2024-05-18T12:58:58Z</time>
      </trkpt>
      <trkpt lat="45.87453" lon="3.23421">
        <ele>316.2</ele>
        <time>2024-05-18T12:58:59Z</time>
      </trkpt>
      <trkpt lat="45.8745" lon="3.23412">
        <ele>316.2</ele>
        <time>2024-05-18T12:59:00Z</time>
      </trkpt>
      <trkpt lat="45.87446" lon="3.23404">
        <ele>316.2</ele>
        <time>2024-05-18T12:59:01Z</time>
      </trkpt>
      <trkpt lat="45.87443" lon="3.23395">
        <ele>316.2</ele>
        <time>2024-05-18T12:59:02Z</time>
      </trkpt>
      <trkpt lat="45.8744" lon="3.23387">
        <ele>316.2</ele>
        <time>2024-05-18T12:59:03Z</time>
      </trkpt>
      <trkpt lat="45.87437" lon="3.23379">
        <ele>316.2</ele>
        <time>2024-05-18T12:59:04Z</time>
      </trkpt>
      <trkpt lat="45.87434" lon="3.23371">
        <ele>316.2</ele>
        <time>2024-05-18T12:59:05Z</time>
      </trkpt>
      <trkpt lat="45.87431" lon="3.23362">
        <ele>316.2</ele>
        <time>2024-05-18T12:59:06Z</time>
      </trkpt>
      <trkpt lat="45.87428" lon="3.23354">
        <ele>316.4</ele>
        <time>2024-05-18T12:59:07Z</time>
      </trkpt>
      <trkpt lat="45.87424" lon="3.23347">
        <ele>316.4</ele>
        <time>2024-05-18T12:59:08Z</time>
      </trkpt>
      <trkpt lat="45.8742" lon="3.23339">
        <ele>316.4</ele>
        <time>2024-05-18T12:59:09Z</time>
      </trkpt>
      <trkpt lat="45.87416" lon="3.23332">
        <ele>316.4</ele>
        <time>2024-05-18T12:59:10Z</time>
      </trkpt>
      <trkpt lat="45.87412" lon="3.23325">
        <ele>316.4</ele>
        <time>2024-05-18T12:59:11Z</time>
      </trkpt>
      <trkpt lat="45.87408" lon="3.23317">
        <ele>316.4</ele>
        <time>2024-05-18T12:59:12Z</time>
      </trkpt>
      <trkpt lat="45.87404" lon="3.2331">
        <ele>316.4</ele>
        <time>2024-05-18T12:59:13Z</time>
      </trkpt>
      <trkpt lat="45.874" lon="3.23302">
        <ele>316.4</ele>
        <time>2024-05-18T12:59:14Z</time>
      </trkpt>
      <trkpt lat="45.87395" lon="3.23295">
        <ele>316.4</ele>
        <time>2024-05-18T12:59:15Z</time>
      </trkpt>
      <trkpt lat="45.87391" lon="3.23288">
        <ele>316.4</ele>
        <time>2024-05-18T12:59:16Z</time>
      </trkpt>
      <trkpt lat="45.87387" lon="3.2328">
        <ele>316.4</ele>
        <time>2024-05-18T12:59:17Z</time>
      </trkpt>
      <trkpt lat="45.87383" lon="3.23273">
        <ele>316.4</ele>
        <time>2024-05-18T12:59:18Z</time>
      </trkpt>
      <trkpt lat="45.87379" lon="3.23265">
        <ele>316.4</ele>
        <time>2024-05-18T12:59:19Z</time>
      </trkpt>
      <trkpt lat="45.87375" lon="3.23258">
        <ele>316.2</ele>
        <time>2024-05-18T12:59:20Z</time>
      </trkpt>
      <trkpt lat="45.87371" lon="3.23251">
        <ele>316.2</ele>
        <time>2024-05-18T12:59:21Z</time>
      </trkpt>
      <trkpt lat="45.87367" lon="3.23243">
        <ele>316.2</ele>
        <time>2024-05-18T12:59:22Z</time>
      </trkpt>
      <trkpt lat="45.87362" lon="3.23236">
        <ele>316.2</ele>
        <time>2024-05-18T12:59:23Z</time>
      </trkpt>
      <trkpt lat="45.87358" lon="3.23228">
        <ele>316.2</ele>
        <time>2024-05-18T12:59:24Z</time>
      </trkpt>
      <trkpt lat="45.87354" lon="3.23221">
        <ele>316.2</ele>
        <time>2024-05-18T12:59:25Z</time>
      </trkpt>
      <trkpt lat="45.8735" lon="3.23213">
        <ele>316.2</ele>
        <time>2024-05-18T12:59:26Z</time>
      </trkpt>
      <trkpt lat="45.87346" lon="3.23206">
        <ele>316.2</ele>
        <time>2024-05-18T12:59:27Z</time>
      </trkpt>
      <trkpt lat="45.87342" lon="3.23198">
        <ele>316.2</ele>
        <time>2024-05-18T12:59:28Z</time>
      </trkpt>
      <trkpt lat="45.87338" lon="3.23191">
        <ele>316.2</ele>
        <time>2024-05-18T12:59:29Z</time>
      </trkpt>
      <trkpt lat="45.87334" lon="3.23184">
        <ele>316.2</ele>
        <time>2024-05-18T12:59:30Z</time>
      </trkpt>
      <trkpt lat="45.87329" lon="3.23176">
        <ele>316.2</ele>
        <time>2024-05-18T12:59:31Z</time>
      </trkpt>
      <trkpt lat="45.87325" lon="3.23169">
        <ele>316.2</ele>
        <time>2024-05-18T12:59:32Z</time>
      </trkpt>
      <trkpt lat="45.87321" lon="3.23161">
        <ele>316.2</ele>
        <time>2024-05-18T12:59:33Z</time>
      </trkpt>
      <trkpt lat="45.87317" lon="3.23154">
        <ele>316.2</ele>
        <time>2024-05-18T12:59:34Z</time>
      </trkpt>
      <trkpt lat="45.87313" lon="3.23146">
        <ele>316.2</ele>
        <time>2024-05-18T12:59:35Z</time>
      </trkpt>
      <trkpt lat="45.87309" lon="3.23138">
        <ele>316.2</ele>
        <time>2024-05-18T12:59:36Z</time>
      </trkpt>
      <trkpt lat="45.87304" lon="3.23131">
        <ele>316.2</ele>
        <time>2024-05-18T12:59:37Z</time>
      </trkpt>
      <trkpt lat="45.873" lon="3.23123">
        <ele>316.2</ele>
        <time>2024-05-18T12:59:38Z</time>
      </trkpt>
      <trkpt lat="45.87296" lon="3.23116">
        <ele>316.2</ele>
        <time>2024-05-18T12:59:39Z</time>
      </trkpt>
      <trkpt lat="45.87292" lon="3.23108">
        <ele>316.2</ele>
        <time>2024-05-18T12:59:40Z</time>
      </trkpt>
      <trkpt lat="45.87288" lon="3.23101">
        <ele>316.2</ele>
        <time>2024-05-18T12:59:41Z</time>
      </trkpt>
      <trkpt lat="45.87284" lon="3.23093">
        <ele>316</ele>
        <time>2024-05-18T12:59:42Z</time>
      </trkpt>
      <trkpt lat="45.87279" lon="3.23086">
        <ele>316</ele>
        <time>2024-05-18T12:59:43Z</time>
      </trkpt>
      <trkpt lat="45.87275" lon="3.23078">
        <ele>316</ele>
        <time>2024-05-18T12:59:44Z</time>
      </trkpt>
      <trkpt lat="45.87271" lon="3.2307">
        <ele>316</ele>
        <time>2024-05-18T12:59:45Z</time>
      </trkpt>
      <trkpt lat="45.87267" lon="3.23063">
        <ele>316</ele>
        <time>2024-05-18T12:59:46Z</time>
      </trkpt>
      <trkpt lat="45.87262" lon="3.23055">
        <ele>316</ele>
        <time>2024-05-18T12:59:47Z</time>
      </trkpt>
      <trkpt lat="45.87258" lon="3.23047">
        <ele>316</ele>
        <time>2024-05-18T12:59:48Z</time>
      </trkpt>
      <trkpt lat="45.87254" lon="3.23039">
        <ele>316</ele>
        <time>2024-05-18T12:59:49Z</time>
      </trkpt>
      <trkpt lat="45.87249" lon="3.23032">
        <ele>316</ele>
        <time>2024-05-18T12:59:50Z</time>
      </trkpt>
      <trkpt lat="45.87245" lon="3.23024">
        <ele>316</ele>
        <time>2024-05-18T12:59:51Z</time>
      </trkpt>
      <trkpt lat="45.87241" lon="3.23015">
        <ele>315.8</ele>
        <time>2024-05-18T12:59:52Z</time>
      </trkpt>
      <trkpt lat="45.87239" lon="3.23006">
        <ele>315.8</ele>
        <time>2024-05-18T12:59:53Z</time>
      </trkpt>
      <trkpt lat="45.87236" lon="3.22997">
        <ele>315.8</ele>
        <time>2024-05-18T12:59:54Z</time>
      </trkpt>
      <trkpt lat="45.87234" lon="3.22988">
        <ele>315.8</ele>
        <time>2024-05-18T12:59:55Z</time>
      </trkpt>
      <trkpt lat="45.87231" lon="3.22979">
        <ele>315.8</ele>
        <time>2024-05-18T12:59:56Z</time>
      </trkpt>
      <trkpt lat="45.87229" lon="3.2297">
        <ele>315.8</ele>
        <time>2024-05-18T12:59:57Z</time>
      </trkpt>
      <trkpt lat="45.87226" lon="3.22961">
        <ele>315.6</ele>
        <time>2024-05-18T12:59:58Z</time>
      </trkpt>
      <trkpt lat="45.87224" lon="3.22952">
        <ele>315.6</ele>
        <time>2024-05-18T12:59:59Z</time>
      </trkpt>
      <trkpt lat="45.87221" lon="3.22943">
        <ele>315.6</ele>
        <time>2024-05-18T13:00:00Z</time>
      </trkpt>
      <trkpt lat="45.87219" lon="3.22934">
        <ele>315.6</ele>
        <time>2024-05-18T13:00:01Z</time>
      </trkpt>
      <trkpt lat="45.87216" lon="3.22925">
        <ele>315.6</ele>
        <time>2024-05-18T13:00:02Z</time>
      </trkpt>
      <trkpt lat="45.87214" lon="3.22916">
        <ele>315.6</ele>
        <time>2024-05-18T13:00:03Z</time>
      </trkpt>
      <trkpt lat="45.87213" lon="3.22906">
        <ele>315.6</ele>
        <time>2024-05-18T13:00:04Z</time>
      </trkpt>
      <trkpt lat="45.87211" lon="3.22897">
        <ele>315.6</ele>
        <time>2024-05-18T13:00:05Z</time>
      </trkpt>
      <trkpt lat="45.8721" lon="3.22887">
        <ele>315.6</ele>
        <time>2024-05-18T13:00:06Z</time>
      </trkpt>
      <trkpt lat="45.8721" lon="3.22877">
        <ele>315.6</ele>
        <time>2024-05-18T13:00:07Z</time>
      </trkpt>
      <trkpt lat="45.8721" lon="3.22867">
        <ele>315.6</ele>
        <time>2024-05-18T13:00:08Z</time>
      </trkpt>
      <trkpt lat="45.8721" lon="3.22858">
        <ele>315.6</ele>
        <time>2024-05-18T13:00:09Z</time>
      </trkpt>
      <trkpt lat="45.8721" lon="3.22848">
        <ele>315.6</ele>
        <time>2024-05-18T13:00:10Z</time>
      </trkpt>
      <trkpt lat="45.8721" lon="3.22838">
        <ele>315.6</ele>
        <time>2024-05-18T13:00:11Z</time>
      </trkpt>
      <trkpt lat="45.87211" lon="3.22829">
        <ele>315.6</ele>
        <time>2024-05-18T13:00:12Z</time>
      </trkpt>
      <trkpt lat="45.87212" lon="3.22819">
        <ele>315.4</ele>
        <time>2024-05-18T13:00:13Z</time>
      </trkpt>
      <trkpt lat="45.87212" lon="3.2281">
        <ele>315.4</ele>
        <time>2024-05-18T13:00:14Z</time>
      </trkpt>
      <trkpt lat="45.87213" lon="3.22801">
        <ele>315.4</ele>
        <time>2024-05-18T13:00:15Z</time>
      </trkpt>
      <trkpt lat="45.87214" lon="3.22791">
        <ele>315.4</ele>
        <time>2024-05-18T13:00:16Z</time>
      </trkpt>
      <trkpt lat="45.87214" lon="3.22782">
        <ele>315.4</ele>
        <time>2024-05-18T13:00:17Z</time>
      </trkpt>
      <trkpt lat="45.87215" lon="3.22772">
        <ele>315.4</ele>
        <time>2024-05-18T13:00:18Z</time>
      </trkpt>
      <trkpt lat="45.87215" lon="3.22762">
        <ele>315.2</ele>
        <time>2024-05-18T13:00:19Z</time>
      </trkpt>
      <trkpt lat="45.87216" lon="3.22753">
        <ele>315.2</ele>
        <time>2024-05-18T13:00:20Z</time>
      </trkpt>
      <trkpt lat="45.87217" lon="3.22743">
        <ele>315.2</ele>
        <time>2024-05-18T13:00:21Z</time>
      </trkpt>
      <trkpt lat="45.87217" lon="3.22733">
        <ele>315.2</ele>
        <time>2024-05-18T13:00:22Z</time>
      </trkpt>
      <trkpt lat="45.87218" lon="3.22723">
        <ele>315.2</ele>
        <time>2024-05-18T13:00:23Z</time>
      </trkpt>
      <trkpt lat="45.87219" lon="3.22713">
        <ele>315.2</ele>
        <time>2024-05-18T13:00:24Z</time>
      </trkpt>
      <trkpt lat="45.8722" lon="3.22703">
        <ele>315</ele>
        <time>2024-05-18T13:00:25Z</time>
      </trkpt>
      <trkpt lat="45.8722" lon="3.22693">
        <ele>315</ele>
        <time>2024-05-18T13:00:26Z</time>
      </trkpt>
      <trkpt lat="45.87221" lon="3.22683">
        <ele>315</ele>
        <time>2024-05-18T13:00:27Z</time>
      </trkpt>
      <trkpt lat="45.87222" lon="3.22673">
        <ele>315</ele>
        <time>2024-05-18T13:00:28Z</time>
      </trkpt>
      <trkpt lat="45.87222" lon="3.22663">
        <ele>315</ele>
        <time>2024-05-18T13:00:29Z</time>
      </trkpt>
      <trkpt lat="45.87223" lon="3.22654">
        <ele>315</ele>
        <time>2024-05-18T13:00:30Z</time>
      </trkpt>
      <trkpt lat="45.87224" lon="3.22644">
        <ele>315</ele>
        <time>2024-05-18T13:00:31Z</time>
      </trkpt>
      <trkpt lat="45.87224" lon="3.22634">
        <ele>315</ele>
        <time>2024-05-18T13:00:32Z</time>
      </trkpt>
      <trkpt lat="45.87225" lon="3.22624">
        <ele>314.8</ele>
        <time>2024-05-18T13:00:33Z</time>
      </trkpt>
      <trkpt lat="45.87225" lon="3.22615">
        <ele>314.8</ele>
        <time>2024-05-18T13:00:34Z</time>
      </trkpt>
      <trkpt lat="45.87224" lon="3.22605">
        <ele>314.8</ele>
        <time>2024-05-18T13:00:35Z</time>
      </trkpt>
      <trkpt lat="45.87223" lon="3.22595">
        <ele>314.8</ele>
        <time>2024-05-18T13:00:36Z</time>
      </trkpt>
      <trkpt lat="45.87222" lon="3.22585">
        <ele>314.8</ele>
        <time>2024-05-18T13:00:37Z</time>
      </trkpt>
      <trkpt lat="45.8722" lon="3.22575">
        <ele>314.8</ele>
        <time>2024-05-18T13:00:38Z</time>
      </trkpt>
      <trkpt lat="45.87219" lon="3.22565">
        <ele>314.8</ele>
        <time>2024-05-18T13:00:39Z</time>
      </trkpt>
      <trkpt lat="45.87218" lon="3.22556">
        <ele>314.6</ele>
        <time>2024-05-18T13:00:40Z</time>
      </trkpt>
      <trkpt lat="45.87217" lon="3.22546">
        <ele>314.6</ele>
        <time>2024-05-18T13:00:41Z</time>
      </trkpt>
      <trkpt lat="45.87214" lon="3.22537">
        <ele>314.6</ele>
        <time>2024-05-18T13:00:42Z</time>
      </trkpt>
      <trkpt lat="45.87211" lon="3.22528">
        <ele>314.6</ele>
        <time>2024-05-18T13:00:43Z</time>
      </trkpt>
      <trkpt lat="45.87208" lon="3.22519">
        <ele>314.4</ele>
        <time>2024-05-18T13:00:44Z</time>
      </trkpt>
      <trkpt lat="45.87204" lon="3.2251">
        <ele>314.4</ele>
        <time>2024-05-18T13:00:45Z</time>
      </trkpt>
      <trkpt lat="45.87201" lon="3.22501">
        <ele>314.2</ele>
        <time>2024-05-18T13:00:46Z</time>
      </trkpt>
      <trkpt lat="45.87196" lon="3.22494">
        <ele>314.2</ele>
        <time>2024-05-18T13:00:47Z</time>
      </trkpt>
      <trkpt lat="45.8719" lon="3.22486">
        <ele>314</ele>
        <time>2024-05-18T13:00:48Z</time>
      </trkpt>
      <trkpt lat="45.87185" lon="3.22479">
        <ele>314</ele>
        <time>2024-05-18T13:00:49Z</time>
      </trkpt>
      <trkpt lat="45.8718" lon="3.22473">
        <ele>314</ele>
        <time>2024-05-18T13:00:50Z</time>
      </trkpt>
      <trkpt lat="45.87176" lon="3.22466">
        <ele>313.8</ele>
        <time>2024-05-18T13:00:51Z</time>
      </trkpt>
      <trkpt lat="45.87171" lon="3.22459">
        <ele>313.8</ele>
        <time>2024-05-18T13:00:52Z</time>
      </trkpt>
      <trkpt lat="45.87166" lon="3.22452">
        <ele>313.8</ele>
        <time>2024-05-18T13:00:53Z</time>
      </trkpt>
      <trkpt lat="45.87161" lon="3.22446">
        <ele>313.8</ele>
        <time>2024-05-18T13:00:54Z</time>
      </trkpt>
      <trkpt lat="45.87156" lon="3.22439">
        <ele>313.8</ele>
        <time>2024-05-18T13:00:55Z</time>
      </trkpt>
      <trkpt lat="45.87151" lon="3.22432">
        <ele>313.8</ele>
        <time>2024-05-18T13:00:56Z</time>
      </trkpt>
      <trkpt lat="45.87147" lon="3.22425">
        <ele>313.8</ele>
        <time>2024-05-18T13:00:57Z</time>
      </trkpt>
      <trkpt lat="45.87142" lon="3.22419">
        <ele>313.8</ele>
        <time>2024-05-18T13:00:58Z</time>
      </trkpt>
      <trkpt lat="45.87137" lon="3.22412">
        <ele>313.8</ele>
        <time>2024-05-18T13:00:59Z</time>
      </trkpt>
      <trkpt lat="45.87132" lon="3.22405">
        <ele>313.8</ele>
        <time>2024-05-18T13:01:00Z</time>
      </trkpt>
      <trkpt lat="45.87128" lon="3.22398">
        <ele>313.8</ele>
        <time>2024-05-18T13:01:01Z</time>
      </trkpt>
      <trkpt lat="45.87124" lon="3.2239">
        <ele>313.8</ele>
        <time>2024-05-18T13:01:02Z</time>
      </trkpt>
      <trkpt lat="45.8712" lon="3.22382">
        <ele>313.8</ele>
        <time>2024-05-18T13:01:03Z</time>
      </trkpt>
      <trkpt lat="45.87116" lon="3.22375">
        <ele>313.8</ele>
        <time>2024-05-18T13:01:04Z</time>
      </trkpt>
      <trkpt lat="45.87113" lon="3.22368">
        <ele>313.8</ele>
        <time>2024-05-18T13:01:05Z</time>
      </trkpt>
      <trkpt lat="45.87109" lon="3.2236">
        <ele>313.6</ele>
        <time>2024-05-18T13:01:06Z</time>
      </trkpt>
      <trkpt lat="45.87105" lon="3.22352">
        <ele>313.6</ele>
        <time>2024-05-18T13:01:07Z</time>
      </trkpt>
      <trkpt lat="45.87101" lon="3.22345">
        <ele>313.6</ele>
        <time>2024-05-18T13:01:08Z</time>
      </trkpt>
      <trkpt lat="45.87098" lon="3.22338">
        <ele>313.6</ele>
        <time>2024-05-18T13:01:09Z</time>
      </trkpt>
      <trkpt lat="45.87094" lon="3.22331">
        <ele>313.6</ele>
        <time>2024-05-18T13:01:10Z</time>
      </trkpt>
      <trkpt lat="45.87091" lon="3.22324">
        <ele>313.6</ele>
        <time>2024-05-18T13:01:11Z</time>
      </trkpt>
      <trkpt lat="45.87087" lon="3.22318">
        <ele>313.6</ele>
        <time>2024-05-18T13:01:12Z</time>
      </trkpt>
      <trkpt lat="45.87084" lon="3.22312">
        <ele>313.6</ele>
        <time>2024-05-18T13:01:13Z</time>
      </trkpt>
      <trkpt lat="45.87081" lon="3.22306">
        <ele>313.6</ele>
        <time>2024-05-18T13:01:14Z</time>
      </trkpt>
      <trkpt lat="45.87078" lon="3.223">
        <ele>313.4</ele>
        <time>2024-05-18T13:01:15Z</time>
      </trkpt>
      <trkpt lat="45.87076" lon="3.22296">
        <ele>313.4</ele>
        <time>2024-05-18T13:01:16Z</time>
      </trkpt>
      <trkpt lat="45.87073" lon="3.22296">
        <ele>313.4</ele>
        <time>2024-05-18T13:01:17Z</time>
      </trkpt>
      <trkpt lat="45.87071" lon="3.22299">
        <ele>313.4</ele>
        <time>2024-05-18T13:01:18Z</time>
      </trkpt>
      <trkpt lat="45.87067" lon="3.22302">
        <ele>313.4</ele>
        <time>2024-05-18T13:01:19Z</time>
      </trkpt>
      <trkpt lat="45.87063" lon="3.22305">
        <ele>313.2</ele>
        <time>2024-05-18T13:01:20Z</time>
      </trkpt>
      <trkpt lat="45.87059" lon="3.22309">
        <ele>313.2</ele>
        <time>2024-05-18T13:01:21Z</time>
      </trkpt>
      <trkpt lat="45.87055" lon="3.22313">
        <ele>313.2</ele>
        <time>2024-05-18T13:01:22Z</time>
      </trkpt>
      <trkpt lat="45.87051" lon="3.22317">
        <ele>313.2</ele>
        <time>2024-05-18T13:01:23Z</time>
      </trkpt>
      <trkpt lat="45.87046" lon="3.22322">
        <ele>313.2</ele>
        <time>2024-05-18T13:01:24Z</time>
      </trkpt>
      <trkpt lat="45.87041" lon="3.22325">
        <ele>313</ele>
        <time>2024-05-18T13:01:25Z</time>
      </trkpt>
      <trkpt lat="45.87035" lon="3.22329">
        <ele>313</ele>
        <time>2024-05-18T13:01:26Z</time>
      </trkpt>
      <trkpt lat="45.8703" lon="3.22333">
        <ele>313</ele>
        <time>2024-05-18T13:01:27Z</time>
      </trkpt>
      <trkpt lat="45.87025" lon="3.22337">
        <ele>313</ele>
        <time>2024-05-18T13:01:28Z</time>
      </trkpt>
      <trkpt lat="45.87019" lon="3.22341">
        <ele>312.8</ele>
        <time>2024-05-18T13:01:29Z</time>
      </trkpt>
      <trkpt lat="45.87014" lon="3.22345">
        <ele>312.8</ele>
        <time>2024-05-18T13:01:30Z</time>
      </trkpt>
      <trkpt lat="45.87008" lon="3.22348">
        <ele>312.8</ele>
        <time>2024-05-18T13:01:31Z</time>
      </trkpt>
      <trkpt lat="45.87003" lon="3.22353">
        <ele>312.6</ele>
        <time>2024-05-18T13:01:32Z</time>
      </trkpt>
      <trkpt lat="45.86997" lon="3.22356">
        <ele>312.6</ele>
        <time>2024-05-18T13:01:33Z</time>
      </trkpt>
      <trkpt lat="45.86992" lon="3.2236">
        <ele>312.6</ele>
        <time>2024-05-18T13:01:34Z</time>
      </trkpt>
      <trkpt lat="45.86986" lon="3.22364">
        <ele>312.6</ele>
        <time>2024-05-18T13:01:35Z</time>
      </trkpt>
      <trkpt lat="45.8698" lon="3.22368">
        <ele>312.6</ele>
        <time>2024-05-18T13:01:36Z</time>
      </trkpt>
      <trkpt lat="45.86975" lon="3.22372">
        <ele>312.6</ele>
        <time>2024-05-18T13:01:37Z</time>
      </trkpt>
      <trkpt lat="45.86969" lon="3.22376">
        <ele>312.6</ele>
        <time>2024-05-18T13:01:38Z</time>
      </trkpt>
      <trkpt lat="45.86964" lon="3.2238">
        <ele>312.6</ele>
        <time>2024-05-18T13:01:39Z</time>
      </trkpt>
      <trkpt lat="45.86958" lon="3.22384">
        <ele>312.4</ele>
        <time>2024-05-18T13:01:40Z</time>
      </trkpt>
      <trkpt lat="45.86952" lon="3.22389">
        <ele>312.4</ele>
        <time>2024-05-18T13:01:41Z</time>
      </trkpt>
      <trkpt lat="45.86947" lon="3.22394">
        <ele>312.4</ele>
        <time>2024-05-18T13:01:42Z</time>
      </trkpt>
      <trkpt lat="45.86942" lon="3.22398">
        <ele>312.4</ele>
        <time>2024-05-18T13:01:43Z</time>
      </trkpt>
      <trkpt lat="45.86936" lon="3.22403">
        <ele>312.4</ele>
        <time>2024-05-18T13:01:44Z</time>
      </trkpt>
      <trkpt lat="45.86931" lon="3.22408">
        <ele>312.4</ele>
        <time>2024-05-18T13:01:45Z</time>
      </trkpt>
      <trkpt lat="45.86925" lon="3.22413">
        <ele>312.4</ele>
        <time>2024-05-18T13:01:46Z</time>
      </trkpt>
      <trkpt lat="45.86919" lon="3.22418">
        <ele>312.4</ele>
        <time>2024-05-18T13:01:47Z</time>
      </trkpt>
      <trkpt lat="45.86914" lon="3.22423">
        <ele>312.4</ele>
        <time>2024-05-18T13:01:48Z</time>
      </trkpt>
      <trkpt lat="45.86909" lon="3.22428">
        <ele>312.4</ele>
        <time>2024-05-18T13:01:49Z</time>
      </trkpt>
      <trkpt lat="45.86903" lon="3.22432">
        <ele>312.4</ele>
        <time>2024-05-18T13:01:50Z</time>
      </trkpt>
      <trkpt lat="45.86898" lon="3.22437">
        <ele>312.2</ele>
        <time>2024-05-18T13:01:51Z</time>
      </trkpt>
      <trkpt lat="45.86893" lon="3.22441">
        <ele>312.2</ele>
        <time>2024-05-18T13:01:52Z</time>
      </trkpt>
      <trkpt lat="45.86888" lon="3.22446">
        <ele>312.2</ele>
        <time>2024-05-18T13:01:53Z</time>
      </trkpt>
      <trkpt lat="45.86883" lon="3.2245">
        <ele>312.2</ele>
        <time>2024-05-18T13:01:54Z</time>
      </trkpt>
      <trkpt lat="45.86881" lon="3.22454">
        <ele>312.2</ele>
        <time>2024-05-18T13:01:55Z</time>
      </trkpt>
      <trkpt lat="45.86878" lon="3.2246">
        <ele>312.2</ele>
        <time>2024-05-18T13:01:56Z</time>
      </trkpt>
      <trkpt lat="45.86869" lon="3.22461">
        <ele>312.2</ele>
        <time>2024-05-18T13:01:57Z</time>
      </trkpt>
      <trkpt lat="45.86865" lon="3.2246">
        <ele>312.2</ele>
        <time>2024-05-18T13:01:58Z</time>
      </trkpt>
      <trkpt lat="45.86861" lon="3.22457">
        <ele>312.2</ele>
        <time>2024-05-18T13:01:59Z</time>
      </trkpt>
      <trkpt lat="45.86857" lon="3.22452">
        <ele>312.2</ele>
        <time>2024-05-18T13:02:00Z</time>
      </trkpt>
      <trkpt lat="45.86853" lon="3.22447">
        <ele>312.2</ele>
        <time>2024-05-18T13:02:01Z</time>
      </trkpt>
      <trkpt lat="45.86849" lon="3.22442">
        <ele>312.2</ele>
        <time>2024-05-18T13:02:02Z</time>
      </trkpt>
      <trkpt lat="45.86845" lon="3.22436">
        <ele>312.2</ele>
        <time>2024-05-18T13:02:03Z</time>
      </trkpt>
      <trkpt lat="45.8684" lon="3.2243">
        <ele>312.2</ele>
        <time>2024-05-18T13:02:04Z</time>
      </trkpt>
      <trkpt lat="45.86836" lon="3.22424">
        <ele>312.2</ele>
        <time>2024-05-18T13:02:05Z</time>
      </trkpt>
      <trkpt lat="45.86832" lon="3.22418">
        <ele>312.2</ele>
        <time>2024-05-18T13:02:06Z</time>
      </trkpt>
      <trkpt lat="45.86827" lon="3.22413">
        <ele>312.2</ele>
        <time>2024-05-18T13:02:07Z</time>
      </trkpt>
      <trkpt lat="45.86823" lon="3.22407">
        <ele>312.2</ele>
        <time>2024-05-18T13:02:08Z</time>
      </trkpt>
      <trkpt lat="45.86819" lon="3.224">
        <ele>312.2</ele>
        <time>2024-05-18T13:02:09Z</time>
      </trkpt>
      <trkpt lat="45.86814" lon="3.22393">
        <ele>312.4</ele>
        <time>2024-05-18T13:02:10Z</time>
      </trkpt>
      <trkpt lat="45.8681" lon="3.22386">
        <ele>312.4</ele>
        <time>2024-05-18T13:02:11Z</time>
      </trkpt>
      <trkpt lat="45.86806" lon="3.22379">
        <ele>312.4</ele>
        <time>2024-05-18T13:02:12Z</time>
      </trkpt>
      <trkpt lat="45.86802" lon="3.22373">
        <ele>312.6</ele>
        <time>2024-05-18T13:02:13Z</time>
      </trkpt>
      <trkpt lat="45.86798" lon="3.22366">
        <ele>312.4</ele>
        <time>2024-05-18T13:02:14Z</time>
      </trkpt>
      <trkpt lat="45.86794" lon="3.22359">
        <ele>312.4</ele>
        <time>2024-05-18T13:02:15Z</time>
      </trkpt>
      <trkpt lat="45.86789" lon="3.22351">
        <ele>312.6</ele>
        <time>2024-05-18T13:02:16Z</time>
      </trkpt>
      <trkpt lat="45.86786" lon="3.22345">
        <ele>312.6</ele>
        <time>2024-05-18T13:02:17Z</time>
      </trkpt>
      <trkpt lat="45.86782" lon="3.22338">
        <ele>312.6</ele>
        <time>2024-05-18T13:02:18Z</time>
      </trkpt>
      <trkpt lat="45.86778" lon="3.22331">
        <ele>312.6</ele>
        <time>2024-05-18T13:02:19Z</time>
      </trkpt>
      <trkpt lat="45.86774" lon="3.22325">
        <ele>312.6</ele>
        <time>2024-05-18T13:02:20Z</time>
      </trkpt>
      <trkpt lat="45.86771" lon="3.22319">
        <ele>312.6</ele>
        <time>2024-05-18T13:02:21Z</time>
      </trkpt>
      <trkpt lat="45.86767" lon="3.22313">
        <ele>312.6</ele>
        <time>2024-05-18T13:02:22Z</time>
      </trkpt>
      <trkpt lat="45.86764" lon="3.22307">
        <ele>312.6</ele>
        <time>2024-05-18T13:02:23Z</time>
      </trkpt>
      <trkpt lat="45.86761" lon="3.22301">
        <ele>312.6</ele>
        <time>2024-05-18T13:02:24Z</time>
      </trkpt>
      <trkpt lat="45.86756" lon="3.22292">
        <ele>312.6</ele>
        <time>2024-05-18T13:02:25Z</time>
      </trkpt>
      <trkpt lat="45.86757" lon="3.22285">
        <ele>312.8</ele>
        <time>2024-05-18T13:02:26Z</time>
      </trkpt>
      <trkpt lat="45.86756" lon="3.22278">
        <ele>312.8</ele>
        <time>2024-05-18T13:02:27Z</time>
      </trkpt>
      <trkpt lat="45.86752" lon="3.22274">
        <ele>312.8</ele>
        <time>2024-05-18T13:02:28Z</time>
      </trkpt>
      <trkpt lat="45.86751" lon="3.22273">
        <ele>312.8</ele>
        <time>2024-05-18T13:02:29Z</time>
      </trkpt>
      <trkpt lat="45.86741" lon="3.22268">
        <ele>312.8</ele>
        <time>2024-05-18T13:02:30Z</time>
      </trkpt>
      <trkpt lat="45.86738" lon="3.22262">
        <ele>312.8</ele>
        <time>2024-05-18T13:02:31Z</time>
      </trkpt>
      <trkpt lat="45.86734" lon="3.22256">
        <ele>312.8</ele>
        <time>2024-05-18T13:02:32Z</time>
      </trkpt>
      <trkpt lat="45.8673" lon="3.22249">
        <ele>312.8</ele>
        <time>2024-05-18T13:02:33Z</time>
      </trkpt>
      <trkpt lat="45.86726" lon="3.22243">
        <ele>313</ele>
        <time>2024-05-18T13:02:34Z</time>
      </trkpt>
      <trkpt lat="45.86721" lon="3.22236">
        <ele>313</ele>
        <time>2024-05-18T13:02:35Z</time>
      </trkpt>
      <trkpt lat="45.86717" lon="3.22229">
        <ele>313</ele>
        <time>2024-05-18T13:02:36Z</time>
      </trkpt>
      <trkpt lat="45.86713" lon="3.22223">
        <ele>313</ele>
        <time>2024-05-18T13:02:37Z</time>
      </trkpt>
      <trkpt lat="45.86709" lon="3.22216">
        <ele>313</ele>
        <time>2024-05-18T13:02:38Z</time>
      </trkpt>
      <trkpt lat="45.86705" lon="3.22209">
        <ele>313</ele>
        <time>2024-05-18T13:02:39Z</time>
      </trkpt>
      <trkpt lat="45.867" lon="3.22201">
        <ele>313</ele>
        <time>2024-05-18T13:02:40Z</time>
      </trkpt>
      <trkpt lat="45.86696" lon="3.22194">
        <ele>313.2</ele>
        <time>2024-05-18T13:02:41Z</time>
      </trkpt>
      <trkpt lat="45.86691" lon="3.22187">
        <ele>313.2</ele>
        <time>2024-05-18T13:02:42Z</time>
      </trkpt>
      <trkpt lat="45.86687" lon="3.2218">
        <ele>313.2</ele>
        <time>2024-05-18T13:02:43Z</time>
      </trkpt>
      <trkpt lat="45.86682" lon="3.22173">
        <ele>313.2</ele>
        <time>2024-05-18T13:02:44Z</time>
      </trkpt>
      <trkpt lat="45.86678" lon="3.22166">
        <ele>313.2</ele>
        <time>2024-05-18T13:02:45Z</time>
      </trkpt>
      <trkpt lat="45.86674" lon="3.22159">
        <ele>313.2</ele>
        <time>2024-05-18T13:02:46Z</time>
      </trkpt>
      <trkpt lat="45.8667" lon="3.22152">
        <ele>313.2</ele>
        <time>2024-05-18T13:02:47Z</time>
      </trkpt>
      <trkpt lat="45.86665" lon="3.22145">
        <ele>313.2</ele>
        <time>2024-05-18T13:02:48Z</time>
      </trkpt>
      <trkpt lat="45.86661" lon="3.22139">
        <ele>313.4</ele>
        <time>2024-05-18T13:02:49Z</time>
      </trkpt>
      <trkpt lat="45.86656" lon="3.22133">
        <ele>313.4</ele>
        <time>2024-05-18T13:02:50Z</time>
      </trkpt>
      <trkpt lat="45.86652" lon="3.22127">
        <ele>313.4</ele>
        <time>2024-05-18T13:02:51Z</time>
      </trkpt>
      <trkpt lat="45.86647" lon="3.22121">
        <ele>313.4</ele>
        <time>2024-05-18T13:02:52Z</time>
      </trkpt>
      <trkpt lat="45.86642" lon="3.22115">
        <ele>313.4</ele>
        <time>2024-05-18T13:02:53Z</time>
      </trkpt>
      <trkpt lat="45.86637" lon="3.22109">
        <ele>313.4</ele>
        <time>2024-05-18T13:02:54Z</time>
      </trkpt>
      <trkpt lat="45.86632" lon="3.22103">
        <ele>313.4</ele>
        <time>2024-05-18T13:02:55Z</time>
      </trkpt>
      <trkpt lat="45.86628" lon="3.22097">
        <ele>313.4</ele>
        <time>2024-05-18T13:02:56Z</time>
      </trkpt>
      <trkpt lat="45.86623" lon="3.22091">
        <ele>313.4</ele>
        <time>2024-05-18T13:02:57Z</time>
      </trkpt>
      <trkpt lat="45.86618" lon="3.22085">
        <ele>313.4</ele>
        <time>2024-05-18T13:02:58Z</time>
      </trkpt>
      <trkpt lat="45.86613" lon="3.22079">
        <ele>313.4</ele>
        <time>2024-05-18T13:02:59Z</time>
      </trkpt>
      <trkpt lat="45.86608" lon="3.22073">
        <ele>313.4</ele>
        <time>2024-05-18T13:03:00Z</time>
      </trkpt>
      <trkpt lat="45.86603" lon="3.22067">
        <ele>313.6</ele>
        <time>2024-05-18T13:03:01Z</time>
      </trkpt>
      <trkpt lat="45.86598" lon="3.22061">
        <ele>313.6</ele>
        <time>2024-05-18T13:03:02Z</time>
      </trkpt>
      <trkpt lat="45.86593" lon="3.22055">
        <ele>313.6</ele>
        <time>2024-05-18T13:03:03Z</time>
      </trkpt>
      <trkpt lat="45.86588" lon="3.22049">
        <ele>313.6</ele>
        <time>2024-05-18T13:03:04Z</time>
      </trkpt>
      <trkpt lat="45.86583" lon="3.22043">
        <ele>313.8</ele>
        <time>2024-05-18T13:03:05Z</time>
      </trkpt>
      <trkpt lat="45.86579" lon="3.22037">
        <ele>313.8</ele>
        <time>2024-05-18T13:03:06Z</time>
      </trkpt>
      <trkpt lat="45.86574" lon="3.22031">
        <ele>313.8</ele>
        <time>2024-05-18T13:03:07Z</time>
      </trkpt>
      <trkpt lat="45.86569" lon="3.22025">
        <ele>314</ele>
        <time>2024-05-18T13:03:08Z</time>
      </trkpt>
      <trkpt lat="45.86564" lon="3.22019">
        <ele>314</ele>
        <time>2024-05-18T13:03:09Z</time>
      </trkpt>
      <trkpt lat="45.8656" lon="3.22013">
        <ele>314</ele>
        <time>2024-05-18T13:03:10Z</time>
      </trkpt>
      <trkpt lat="45.86555" lon="3.22007">
        <ele>314</ele>
        <time>2024-05-18T13:03:11Z</time>
      </trkpt>
      <trkpt lat="45.8655" lon="3.22001">
        <ele>314.2</ele>
        <time>2024-05-18T13:03:12Z</time>
      </trkpt>
      <trkpt lat="45.86545" lon="3.21995">
        <ele>314.2</ele>
        <time>2024-05-18T13:03:13Z</time>
      </trkpt>
      <trkpt lat="45.8654" lon="3.21989">
        <ele>314.2</ele>
        <time>2024-05-18T13:03:14Z</time>
      </trkpt>
      <trkpt lat="45.86535" lon="3.21983">
        <ele>314.4</ele>
        <time>2024-05-18T13:03:15Z</time>
      </trkpt>
      <trkpt lat="45.8653" lon="3.21978">
        <ele>314.4</ele>
        <time>2024-05-18T13:03:16Z</time>
      </trkpt>
      <trkpt lat="45.86526" lon="3.21972">
        <ele>314.4</ele>
        <time>2024-05-18T13:03:17Z</time>
      </trkpt>
      <trkpt lat="45.86522" lon="3.21967">
        <ele>314.6</ele>
        <time>2024-05-18T13:03:18Z</time>
      </trkpt>
      <trkpt lat="45.86518" lon="3.21963">
        <ele>314.8</ele>
        <time>2024-05-18T13:03:19Z</time>
      </trkpt>
      <trkpt lat="45.86515" lon="3.21957">
        <ele>314.8</ele>
        <time>2024-05-18T13:03:20Z</time>
      </trkpt>
      <trkpt lat="45.86514" lon="3.21942">
        <ele>315</ele>
        <time>2024-05-18T13:03:21Z</time>
      </trkpt>
      <trkpt lat="45.86517" lon="3.21938">
        <ele>315</ele>
        <time>2024-05-18T13:03:22Z</time>
      </trkpt>
      <trkpt lat="45.86521" lon="3.21934">
        <ele>315</ele>
        <time>2024-05-18T13:03:23Z</time>
      </trkpt>
      <trkpt lat="45.86525" lon="3.21929">
        <ele>315</ele>
        <time>2024-05-18T13:03:24Z</time>
      </trkpt>
      <trkpt lat="45.86527" lon="3.21922">
        <ele>315</ele>
        <time>2024-05-18T13:03:25Z</time>
      </trkpt>
      <trkpt lat="45.8653" lon="3.21915">
        <ele>315</ele>
        <time>2024-05-18T13:03:26Z</time>
      </trkpt>
      <trkpt lat="45.86533" lon="3.21907">
        <ele>315</ele>
        <time>2024-05-18T13:03:27Z</time>
      </trkpt>
      <trkpt lat="45.86536" lon="3.219">
        <ele>314.8</ele>
        <time>2024-05-18T13:03:28Z</time>
      </trkpt>
      <trkpt lat="45.86539" lon="3.21892">
        <ele>315</ele>
        <time>2024-05-18T13:03:29Z</time>
      </trkpt>
      <trkpt lat="45.86543" lon="3.21885">
        <ele>315</ele>
        <time>2024-05-18T13:03:30Z</time>
      </trkpt>
      <trkpt lat="45.86546" lon="3.21877">
        <ele>314.8</ele>
        <time>2024-05-18T13:03:31Z</time>
      </trkpt>
      <trkpt lat="45.86549" lon="3.21869">
        <ele>314.8</ele>
        <time>2024-05-18T13:03:32Z</time>
      </trkpt>
      <trkpt lat="45.86552" lon="3.21861">
        <ele>314.8</ele>
        <time>2024-05-18T13:03:33Z</time>
      </trkpt>
      <trkpt lat="45.86555" lon="3.21854">
        <ele>314.6</ele>
        <time>2024-05-18T13:03:34Z</time>
      </trkpt>
      <trkpt lat="45.86558" lon="3.21846">
        <ele>314.6</ele>
        <time>2024-05-18T13:03:35Z</time>
      </trkpt>
      <trkpt lat="45.86561" lon="3.21838">
        <ele>315.2</ele>
        <time>2024-05-18T13:03:36Z</time>
      </trkpt>
      <trkpt lat="45.86564" lon="3.21831">
        <ele>315</ele>
        <time>2024-05-18T13:03:37Z</time>
      </trkpt>
      <trkpt lat="45.86567" lon="3.21823">
        <ele>314.4</ele>
        <time>2024-05-18T13:03:38Z</time>
      </trkpt>
      <trkpt lat="45.86571" lon="3.21815">
        <ele>314.2</ele>
        <time>2024-05-18T13:03:39Z</time>
      </trkpt>
      <trkpt lat="45.86574" lon="3.21807">
        <ele>314</ele>
        <time>2024-05-18T13:03:40Z</time>
      </trkpt>
      <trkpt lat="45.86577" lon="3.21799">
        <ele>314.4</ele>
        <time>2024-05-18T13:03:41Z</time>
      </trkpt>
      <trkpt lat="45.8658" lon="3.21791">
        <ele>314.2</ele>
        <time>2024-05-18T13:03:42Z</time>
      </trkpt>
      <trkpt lat="45.86583" lon="3.21783">
        <ele>314.2</ele>
        <time>2024-05-18T13:03:43Z</time>
      </trkpt>
      <trkpt lat="45.86586" lon="3.21776">
        <ele>314.2</ele>
        <time>2024-05-18T13:03:44Z</time>
      </trkpt>
      <trkpt lat="45.86589" lon="3.21769">
        <ele>314.2</ele>
        <time>2024-05-18T13:03:45Z</time>
      </trkpt>
      <trkpt lat="45.86592" lon="3.21762">
        <ele>314.2</ele>
        <time>2024-05-18T13:03:46Z</time>
      </trkpt>
      <trkpt lat="45.86594" lon="3.21756">
        <ele>314.4</ele>
        <time>2024-05-18T13:03:47Z</time>
      </trkpt>
      <trkpt lat="45.86597" lon="3.21749">
        <ele>314.8</ele>
        <time>2024-05-18T13:03:48Z</time>
      </trkpt>
      <trkpt lat="45.866" lon="3.21744">
        <ele>315</ele>
        <time>2024-05-18T13:03:49Z</time>
      </trkpt>
      <trkpt lat="45.86604" lon="3.2174">
        <ele>315.2</ele>
        <time>2024-05-18T13:03:50Z</time>
      </trkpt>
      <trkpt lat="45.8661" lon="3.21737">
        <ele>315.2</ele>
        <time>2024-05-18T13:03:51Z</time>
      </trkpt>
      <trkpt lat="45.86613" lon="3.2174">
        <ele>315.2</ele>
        <time>2024-05-18T13:03:52Z</time>
      </trkpt>
      <trkpt lat="45.8662" lon="3.2174">
        <ele>315</ele>
        <time>2024-05-18T13:03:53Z</time>
      </trkpt>
      <trkpt lat="45.86626" lon="3.21729">
        <ele>315</ele>
        <time>2024-05-18T13:03:54Z</time>
      </trkpt>
      <trkpt lat="45.86625" lon="3.21723">
        <ele>315</ele>
        <time>2024-05-18T13:03:55Z</time>
      </trkpt>
      <trkpt lat="45.8662" lon="3.21715">
        <ele>314.8</ele>
        <time>2024-05-18T13:03:56Z</time>
      </trkpt>
      <trkpt lat="45.86619" lon="3.21711">
        <ele>314.6</ele>
        <time>2024-05-18T13:03:57Z</time>
      </trkpt>
      <trkpt lat="45.86618" lon="3.21704">
        <ele>314.4</ele>
        <time>2024-05-18T13:03:58Z</time>
      </trkpt>
      <trkpt lat="45.86616" lon="3.21697">
        <ele>314.2</ele>
        <time>2024-05-18T13:03:59Z</time>
      </trkpt>
      <trkpt lat="45.86614" lon="3.21689">
        <ele>314.2</ele>
        <time>2024-05-18T13:04:00Z</time>
      </trkpt>
      <trkpt lat="45.86612" lon="3.21681">
        <ele>314.2</ele>
        <time>2024-05-18T13:04:01Z</time>
      </trkpt>
      <trkpt lat="45.86611" lon="3.21673">
        <ele>314.2</ele>
        <time>2024-05-18T13:04:02Z</time>
      </trkpt>
      <trkpt lat="45.86609" lon="3.21665">
        <ele>314.4</ele>
        <time>2024-05-18T13:04:03Z</time>
      </trkpt>
      <trkpt lat="45.86607" lon="3.21657">
        <ele>314.2</ele>
        <time>2024-05-18T13:04:04Z</time>
      </trkpt>
      <trkpt lat="45.86605" lon="3.21649">
        <ele>314.4</ele>
        <time>2024-05-18T13:04:05Z</time>
      </trkpt>
      <trkpt lat="45.86603" lon="3.2164">
        <ele>314.4</ele>
        <time>2024-05-18T13:04:06Z</time>
      </trkpt>
      <trkpt lat="45.86601" lon="3.21632">
        <ele>314.4</ele>
        <time>2024-05-18T13:04:07Z</time>
      </trkpt>
      <trkpt lat="45.866" lon="3.21623">
        <ele>314.4</ele>
        <time>2024-05-18T13:04:08Z</time>
      </trkpt>
      <trkpt lat="45.86599" lon="3.21614">
        <ele>314.4</ele>
        <time>2024-05-18T13:04:09Z</time>
      </trkpt>
      <trkpt lat="45.86599" lon="3.21605">
        <ele>314.4</ele>
        <time>2024-05-18T13:04:10Z</time>
      </trkpt>
      <trkpt lat="45.86598" lon="3.21596">
        <ele>314.4</ele>
        <time>2024-05-18T13:04:11Z</time>
      </trkpt>
      <trkpt lat="45.86597" lon="3.21587">
        <ele>314.6</ele>
        <time>2024-05-18T13:04:12Z</time>
      </trkpt>
      <trkpt lat="45.86596" lon="3.21577">
        <ele>314.6</ele>
        <time>2024-05-18T13:04:13Z</time>
      </trkpt>
      <trkpt lat="45.86595" lon="3.21567">
        <ele>314.8</ele>
        <time>2024-05-18T13:04:14Z</time>
      </trkpt>
      <trkpt lat="45.86594" lon="3.21558">
        <ele>314.8</ele>
        <time>2024-05-18T13:04:15Z</time>
      </trkpt>
      <trkpt lat="45.86594" lon="3.21549">
        <ele>315</ele>
        <time>2024-05-18T13:04:16Z</time>
      </trkpt>
      <trkpt lat="45.86593" lon="3.21541">
        <ele>315</ele>
        <time>2024-05-18T13:04:17Z</time>
      </trkpt>
      <trkpt lat="45.86592" lon="3.21532">
        <ele>314.8</ele>
        <time>2024-05-18T13:04:18Z</time>
      </trkpt>
      <trkpt lat="45.86591" lon="3.21523">
        <ele>314.8</ele>
        <time>2024-05-18T13:04:19Z</time>
      </trkpt>
      <trkpt lat="45.86591" lon="3.21514">
        <ele>314.8</ele>
        <time>2024-05-18T13:04:20Z</time>
      </trkpt>
      <trkpt lat="45.8659" lon="3.21506">
        <ele>314.8</ele>
        <time>2024-05-18T13:04:21Z</time>
      </trkpt>
      <trkpt lat="45.86589" lon="3.21496">
        <ele>314.6</ele>
        <time>2024-05-18T13:04:22Z</time>
      </trkpt>
      <trkpt lat="45.86588" lon="3.21487">
        <ele>314.4</ele>
        <time>2024-05-18T13:04:23Z</time>
      </trkpt>
      <trkpt lat="45.86586" lon="3.21477">
        <ele>314.4</ele>
        <time>2024-05-18T13:04:24Z</time>
      </trkpt>
      <trkpt lat="45.86586" lon="3.21468">
        <ele>314.2</ele>
        <time>2024-05-18T13:04:25Z</time>
      </trkpt>
      <trkpt lat="45.86586" lon="3.2146">
        <ele>314.4</ele>
        <time>2024-05-18T13:04:26Z</time>
      </trkpt>
      <trkpt lat="45.86585" lon="3.21451">
        <ele>314.4</ele>
        <time>2024-05-18T13:04:27Z</time>
      </trkpt>
      <trkpt lat="45.86583" lon="3.21441">
        <ele>314.4</ele>
        <time>2024-05-18T13:04:28Z</time>
      </trkpt>
      <trkpt lat="45.86582" lon="3.21432">
        <ele>314.4</ele>
        <time>2024-05-18T13:04:29Z</time>
      </trkpt>
      <trkpt lat="45.86581" lon="3.21422">
        <ele>314.2</ele>
        <time>2024-05-18T13:04:30Z</time>
      </trkpt>
      <trkpt lat="45.8658" lon="3.21413">
        <ele>314.4</ele>
        <time>2024-05-18T13:04:31Z</time>
      </trkpt>
      <trkpt lat="45.86578" lon="3.21404">
        <ele>314.4</ele>
        <time>2024-05-18T13:04:32Z</time>
      </trkpt>
      <trkpt lat="45.86577" lon="3.21396">
        <ele>314.4</ele>
        <time>2024-05-18T13:04:33Z</time>
      </trkpt>
      <trkpt lat="45.86576" lon="3.21388">
        <ele>314.6</ele>
        <time>2024-05-18T13:04:34Z</time>
      </trkpt>
      <trkpt lat="45.86575" lon="3.2138">
        <ele>314.6</ele>
        <time>2024-05-18T13:04:35Z</time>
      </trkpt>
      <trkpt lat="45.86574" lon="3.21372">
        <ele>314.4</ele>
        <time>2024-05-18T13:04:36Z</time>
      </trkpt>
      <trkpt lat="45.86573" lon="3.21364">
        <ele>314.2</ele>
        <time>2024-05-18T13:04:37Z</time>
      </trkpt>
      <trkpt lat="45.86572" lon="3.21357">
        <ele>314.4</ele>
        <time>2024-05-18T13:04:38Z</time>
      </trkpt>
      <trkpt lat="45.86571" lon="3.2135">
        <ele>314.2</ele>
        <time>2024-05-18T13:04:39Z</time>
      </trkpt>
      <trkpt lat="45.86569" lon="3.21339">
        <ele>314.4</ele>
        <time>2024-05-18T13:04:40Z</time>
      </trkpt>
      <trkpt lat="45.8657" lon="3.21335">
        <ele>314.6</ele>
        <time>2024-05-18T13:04:41Z</time>
      </trkpt>
      <trkpt lat="45.86571" lon="3.21332">
        <ele>314.4</ele>
        <time>2024-05-18T13:04:42Z</time>
      </trkpt>
      <trkpt lat="45.86572" lon="3.21329">
        <ele>314.6</ele>
        <time>2024-05-18T13:04:43Z</time>
      </trkpt>
      <trkpt lat="45.86575" lon="3.21325">
        <ele>314.4</ele>
        <time>2024-05-18T13:04:44Z</time>
      </trkpt>
      <trkpt lat="45.86576" lon="3.21324">
        <ele>314.2</ele>
        <time>2024-05-18T13:04:45Z</time>
      </trkpt>
      <trkpt lat="45.86578" lon="3.21323">
        <ele>314.4</ele>
        <time>2024-05-18T13:04:46Z</time>
      </trkpt>
      <trkpt lat="45.86573" lon="3.21326">
        <ele>314.4</ele>
        <time>2024-05-18T13:04:47Z</time>
      </trkpt>
      <trkpt lat="45.86582" lon="3.21315">
        <ele>314.2</ele>
        <time>2024-05-18T13:04:48Z</time>
      </trkpt>
      <trkpt lat="45.8658" lon="3.2131">
        <ele>314.2</ele>
        <time>2024-05-18T13:04:49Z</time>
      </trkpt>
      <trkpt lat="45.86578" lon="3.21304">
        <ele>314.2</ele>
        <time>2024-05-18T13:04:50Z</time>
      </trkpt>
      <trkpt lat="45.86576" lon="3.21298">
        <ele>314</ele>
        <time>2024-05-18T13:04:51Z</time>
      </trkpt>
      <trkpt lat="45.86573" lon="3.21291">
        <ele>314</ele>
        <time>2024-05-18T13:04:52Z</time>
      </trkpt>
      <trkpt lat="45.8657" lon="3.21284">
        <ele>314</ele>
        <time>2024-05-18T13:04:53Z</time>
      </trkpt>
      <trkpt lat="45.86567" lon="3.21276">
        <ele>314</ele>
        <time>2024-05-18T13:04:54Z</time>
      </trkpt>
      <trkpt lat="45.86564" lon="3.21268">
        <ele>314</ele>
        <time>2024-05-18T13:04:55Z</time>
      </trkpt>
      <trkpt lat="45.86561" lon="3.21259">
        <ele>314</ele>
        <time>2024-05-18T13:04:56Z</time>
      </trkpt>
      <trkpt lat="45.86558" lon="3.21251">
        <ele>314</ele>
        <time>2024-05-18T13:04:57Z</time>
      </trkpt>
      <trkpt lat="45.86555" lon="3.21244">
        <ele>314</ele>
        <time>2024-05-18T13:04:58Z</time>
      </trkpt>
      <trkpt lat="45.86553" lon="3.21234">
        <ele>314</ele>
        <time>2024-05-18T13:04:59Z</time>
      </trkpt>
      <trkpt lat="45.86551" lon="3.21225">
        <ele>314</ele>
        <time>2024-05-18T13:05:00Z</time>
      </trkpt>
      <trkpt lat="45.8655" lon="3.21216">
        <ele>314</ele>
        <time>2024-05-18T13:05:01Z</time>
      </trkpt>
      <trkpt lat="45.86548" lon="3.21207">
        <ele>314</ele>
        <time>2024-05-18T13:05:02Z</time>
      </trkpt>
      <trkpt lat="45.86547" lon="3.21197">
        <ele>314</ele>
        <time>2024-05-18T13:05:03Z</time>
      </trkpt>
      <trkpt lat="45.86545" lon="3.21188">
        <ele>314</ele>
        <time>2024-05-18T13:05:04Z</time>
      </trkpt>
      <trkpt lat="45.86544" lon="3.21179">
        <ele>313.8</ele>
        <time>2024-05-18T13:05:05Z</time>
      </trkpt>
      <trkpt lat="45.86542" lon="3.21169">
        <ele>313.8</ele>
        <time>2024-05-18T13:05:06Z</time>
      </trkpt>
      <trkpt lat="45.86541" lon="3.2116">
        <ele>313.8</ele>
        <time>2024-05-18T13:05:07Z</time>
      </trkpt>
      <trkpt lat="45.86539" lon="3.2115">
        <ele>313.8</ele>
        <time>2024-05-18T13:05:08Z</time>
      </trkpt>
      <trkpt lat="45.86538" lon="3.21141">
        <ele>313.8</ele>
        <time>2024-05-18T13:05:09Z</time>
      </trkpt>
      <trkpt lat="45.86536" lon="3.21131">
        <ele>313.8</ele>
        <time>2024-05-18T13:05:10Z</time>
      </trkpt>
      <trkpt lat="45.86534" lon="3.21121">
        <ele>313.8</ele>
        <time>2024-05-18T13:05:11Z</time>
      </trkpt>
      <trkpt lat="45.86533" lon="3.21111">
        <ele>313.8</ele>
        <time>2024-05-18T13:05:12Z</time>
      </trkpt>
      <trkpt lat="45.86531" lon="3.21101">
        <ele>313.8</ele>
        <time>2024-05-18T13:05:13Z</time>
      </trkpt>
      <trkpt lat="45.8653" lon="3.21092">
        <ele>313.8</ele>
        <time>2024-05-18T13:05:14Z</time>
      </trkpt>
      <trkpt lat="45.86528" lon="3.21082">
        <ele>313.8</ele>
        <time>2024-05-18T13:05:15Z</time>
      </trkpt>
      <trkpt lat="45.86527" lon="3.21073">
        <ele>313.8</ele>
        <time>2024-05-18T13:05:16Z</time>
      </trkpt>
      <trkpt lat="45.86525" lon="3.21063">
        <ele>313.8</ele>
        <time>2024-05-18T13:05:17Z</time>
      </trkpt>
      <trkpt lat="45.86524" lon="3.21053">
        <ele>313.8</ele>
        <time>2024-05-18T13:05:18Z</time>
      </trkpt>
      <trkpt lat="45.86522" lon="3.21044">
        <ele>313.8</ele>
        <time>2024-05-18T13:05:19Z</time>
      </trkpt>
      <trkpt lat="45.8652" lon="3.21035">
        <ele>313.8</ele>
        <time>2024-05-18T13:05:20Z</time>
      </trkpt>
      <trkpt lat="45.86519" lon="3.21025">
        <ele>313.8</ele>
        <time>2024-05-18T13:05:21Z</time>
      </trkpt>
      <trkpt lat="45.86518" lon="3.21016">
        <ele>313.8</ele>
        <time>2024-05-18T13:05:22Z</time>
      </trkpt>
      <trkpt lat="45.86516" lon="3.21007">
        <ele>313.8</ele>
        <time>2024-05-18T13:05:23Z</time>
      </trkpt>
      <trkpt lat="45.86515" lon="3.20998">
        <ele>313.8</ele>
        <time>2024-05-18T13:05:24Z</time>
      </trkpt>
      <trkpt lat="45.86513" lon="3.20989">
        <ele>313.8</ele>
        <time>2024-05-18T13:05:25Z</time>
      </trkpt>
      <trkpt lat="45.86512" lon="3.2098">
        <ele>313.8</ele>
        <time>2024-05-18T13:05:26Z</time>
      </trkpt>
      <trkpt lat="45.8651" lon="3.20972">
        <ele>313.8</ele>
        <time>2024-05-18T13:05:27Z</time>
      </trkpt>
      <trkpt lat="45.86509" lon="3.20962">
        <ele>314</ele>
        <time>2024-05-18T13:05:28Z</time>
      </trkpt>
      <trkpt lat="45.86507" lon="3.20953">
        <ele>314</ele>
        <time>2024-05-18T13:05:29Z</time>
      </trkpt>
      <trkpt lat="45.86506" lon="3.20944">
        <ele>314</ele>
        <time>2024-05-18T13:05:30Z</time>
      </trkpt>
      <trkpt lat="45.86504" lon="3.20934">
        <ele>314</ele>
        <time>2024-05-18T13:05:31Z</time>
      </trkpt>
      <trkpt lat="45.86503" lon="3.20925">
        <ele>314</ele>
        <time>2024-05-18T13:05:32Z</time>
      </trkpt>
      <trkpt lat="45.86501" lon="3.20916">
        <ele>314</ele>
        <time>2024-05-18T13:05:33Z</time>
      </trkpt>
      <trkpt lat="45.865" lon="3.20906">
        <ele>314</ele>
        <time>2024-05-18T13:05:34Z</time>
      </trkpt>
      <trkpt lat="45.86498" lon="3.20897">
        <ele>314</ele>
        <time>2024-05-18T13:05:35Z</time>
      </trkpt>
      <trkpt lat="45.86497" lon="3.20887">
        <ele>314</ele>
        <time>2024-05-18T13:05:36Z</time>
      </trkpt>
      <trkpt lat="45.86495" lon="3.20878">
        <ele>314.2</ele>
        <time>2024-05-18T13:05:37Z</time>
      </trkpt>
      <trkpt lat="45.86494" lon="3.20868">
        <ele>314</ele>
        <time>2024-05-18T13:05:38Z</time>
      </trkpt>
      <trkpt lat="45.86492" lon="3.20859">
        <ele>314.2</ele>
        <time>2024-05-18T13:05:39Z</time>
      </trkpt>
      <trkpt lat="45.86491" lon="3.20849">
        <ele>314.2</ele>
        <time>2024-05-18T13:05:40Z</time>
      </trkpt>
      <trkpt lat="45.86489" lon="3.2084">
        <ele>314.2</ele>
        <time>2024-05-18T13:05:41Z</time>
      </trkpt>
      <trkpt lat="45.86487" lon="3.20831">
        <ele>314.2</ele>
        <time>2024-05-18T13:05:42Z</time>
      </trkpt>
      <trkpt lat="45.86486" lon="3.20822">
        <ele>314.2</ele>
        <time>2024-05-18T13:05:43Z</time>
      </trkpt>
      <trkpt lat="45.86485" lon="3.20813">
        <ele>314.2</ele>
        <time>2024-05-18T13:05:44Z</time>
      </trkpt>
      <trkpt lat="45.86483" lon="3.20804">
        <ele>314.2</ele>
        <time>2024-05-18T13:05:45Z</time>
      </trkpt>
      <trkpt lat="45.86482" lon="3.20794">
        <ele>314.2</ele>
        <time>2024-05-18T13:05:46Z</time>
      </trkpt>
      <trkpt lat="45.8648" lon="3.20785">
        <ele>314.2</ele>
        <time>2024-05-18T13:05:47Z</time>
      </trkpt>
      <trkpt lat="45.86479" lon="3.20776">
        <ele>314.2</ele>
        <time>2024-05-18T13:05:48Z</time>
      </trkpt>
      <trkpt lat="45.86477" lon="3.20767">
        <ele>314.4</ele>
        <time>2024-05-18T13:05:49Z</time>
      </trkpt>
      <trkpt lat="45.86476" lon="3.20758">
        <ele>314.4</ele>
        <time>2024-05-18T13:05:50Z</time>
      </trkpt>
      <trkpt lat="45.86474" lon="3.20749">
        <ele>314.4</ele>
        <time>2024-05-18T13:05:51Z</time>
      </trkpt>
      <trkpt lat="45.86473" lon="3.2074">
        <ele>314.4</ele>
        <time>2024-05-18T13:05:52Z</time>
      </trkpt>
      <trkpt lat="45.86471" lon="3.2073">
        <ele>314.4</ele>
        <time>2024-05-18T13:05:53Z</time>
      </trkpt>
      <trkpt lat="45.8647" lon="3.20721">
        <ele>314.4</ele>
        <time>2024-05-18T13:05:54Z</time>
      </trkpt>
      <trkpt lat="45.86468" lon="3.20712">
        <ele>314.4</ele>
        <time>2024-05-18T13:05:55Z</time>
      </trkpt>
      <trkpt lat="45.86467" lon="3.20702">
        <ele>314.4</ele>
        <time>2024-05-18T13:05:56Z</time>
      </trkpt>
      <trkpt lat="45.86465" lon="3.20693">
        <ele>314.4</ele>
        <time>2024-05-18T13:05:57Z</time>
      </trkpt>
      <trkpt lat="45.86464" lon="3.20683">
        <ele>314.4</ele>
        <time>2024-05-18T13:05:58Z</time>
      </trkpt>
      <trkpt lat="45.86462" lon="3.20673">
        <ele>314.6</ele>
        <time>2024-05-18T13:05:59Z</time>
      </trkpt>
      <trkpt lat="45.8646" lon="3.20663">
        <ele>314.6</ele>
        <time>2024-05-18T13:06:00Z</time>
      </trkpt>
      <trkpt lat="45.86459" lon="3.20653">
        <ele>314.6</ele>
        <time>2024-05-18T13:06:01Z</time>
      </trkpt>
      <trkpt lat="45.86457" lon="3.20643">
        <ele>314.6</ele>
        <time>2024-05-18T13:06:02Z</time>
      </trkpt>
      <trkpt lat="45.86456" lon="3.20633">
        <ele>314.6</ele>
        <time>2024-05-18T13:06:03Z</time>
      </trkpt>
      <trkpt lat="45.86454" lon="3.20623">
        <ele>314.6</ele>
        <time>2024-05-18T13:06:04Z</time>
      </trkpt>
      <trkpt lat="45.86452" lon="3.20613">
        <ele>314.6</ele>
        <time>2024-05-18T13:06:05Z</time>
      </trkpt>
      <trkpt lat="45.86451" lon="3.20604">
        <ele>314.6</ele>
        <time>2024-05-18T13:06:06Z</time>
      </trkpt>
      <trkpt lat="45.86449" lon="3.20594">
        <ele>314.6</ele>
        <time>2024-05-18T13:06:07Z</time>
      </trkpt>
      <trkpt lat="45.86448" lon="3.20584">
        <ele>314.8</ele>
        <time>2024-05-18T13:06:08Z</time>
      </trkpt>
      <trkpt lat="45.86446" lon="3.20574">
        <ele>314.8</ele>
        <time>2024-05-18T13:06:09Z</time>
      </trkpt>
      <trkpt lat="45.86444" lon="3.20564">
        <ele>314.8</ele>
        <time>2024-05-18T13:06:10Z</time>
      </trkpt>
      <trkpt lat="45.86442" lon="3.20554">
        <ele>314.8</ele>
        <time>2024-05-18T13:06:11Z</time>
      </trkpt>
      <trkpt lat="45.86441" lon="3.20544">
        <ele>314.8</ele>
        <time>2024-05-18T13:06:12Z</time>
      </trkpt>
      <trkpt lat="45.86439" lon="3.20534">
        <ele>314.8</ele>
        <time>2024-05-18T13:06:13Z</time>
      </trkpt>
      <trkpt lat="45.86437" lon="3.20523">
        <ele>315</ele>
        <time>2024-05-18T13:06:14Z</time>
      </trkpt>
      <trkpt lat="45.86436" lon="3.20513">
        <ele>315</ele>
        <time>2024-05-18T13:06:15Z</time>
      </trkpt>
      <trkpt lat="45.86434" lon="3.20503">
        <ele>315</ele>
        <time>2024-05-18T13:06:16Z</time>
      </trkpt>
      <trkpt lat="45.86432" lon="3.20493">
        <ele>315</ele>
        <time>2024-05-18T13:06:17Z</time>
      </trkpt>
      <trkpt lat="45.86431" lon="3.20483">
        <ele>315</ele>
        <time>2024-05-18T13:06:18Z</time>
      </trkpt>
      <trkpt lat="45.86429" lon="3.20473">
        <ele>315</ele>
        <time>2024-05-18T13:06:19Z</time>
      </trkpt>
      <trkpt lat="45.86427" lon="3.20463">
        <ele>315</ele>
        <time>2024-05-18T13:06:20Z</time>
      </trkpt>
      <trkpt lat="45.86426" lon="3.20454">
        <ele>315.2</ele>
        <time>2024-05-18T13:06:21Z</time>
      </trkpt>
      <trkpt lat="45.86424" lon="3.20444">
        <ele>315.2</ele>
        <time>2024-05-18T13:06:22Z</time>
      </trkpt>
      <trkpt lat="45.86422" lon="3.20434">
        <ele>315.2</ele>
        <time>2024-05-18T13:06:23Z</time>
      </trkpt>
      <trkpt lat="45.86421" lon="3.20424">
        <ele>315.2</ele>
        <time>2024-05-18T13:06:24Z</time>
      </trkpt>
      <trkpt lat="45.86419" lon="3.20415">
        <ele>315.2</ele>
        <time>2024-05-18T13:06:25Z</time>
      </trkpt>
      <trkpt lat="45.86417" lon="3.20405">
        <ele>315.4</ele>
        <time>2024-05-18T13:06:26Z</time>
      </trkpt>
      <trkpt lat="45.86415" lon="3.20395">
        <ele>315.4</ele>
        <time>2024-05-18T13:06:27Z</time>
      </trkpt>
      <trkpt lat="45.86413" lon="3.20386">
        <ele>315.4</ele>
        <time>2024-05-18T13:06:28Z</time>
      </trkpt>
      <trkpt lat="45.8641" lon="3.20376">
        <ele>315.4</ele>
        <time>2024-05-18T13:06:29Z</time>
      </trkpt>
      <trkpt lat="45.86407" lon="3.20366">
        <ele>315.4</ele>
        <time>2024-05-18T13:06:30Z</time>
      </trkpt>
      <trkpt lat="45.86405" lon="3.20357">
        <ele>315.4</ele>
        <time>2024-05-18T13:06:31Z</time>
      </trkpt>
      <trkpt lat="45.86402" lon="3.20347">
        <ele>315.4</ele>
        <time>2024-05-18T13:06:32Z</time>
      </trkpt>
      <trkpt lat="45.86399" lon="3.20337">
        <ele>315.4</ele>
        <time>2024-05-18T13:06:33Z</time>
      </trkpt>
      <trkpt lat="45.86397" lon="3.20328">
        <ele>315.4</ele>
        <time>2024-05-18T13:06:34Z</time>
      </trkpt>
      <trkpt lat="45.86394" lon="3.20318">
        <ele>315.4</ele>
        <time>2024-05-18T13:06:35Z</time>
      </trkpt>
      <trkpt lat="45.86391" lon="3.20308">
        <ele>315.4</ele>
        <time>2024-05-18T13:06:36Z</time>
      </trkpt>
      <trkpt lat="45.86389" lon="3.20299">
        <ele>315.4</ele>
        <time>2024-05-18T13:06:37Z</time>
      </trkpt>
      <trkpt lat="45.86386" lon="3.20289">
        <ele>315.4</ele>
        <time>2024-05-18T13:06:38Z</time>
      </trkpt>
      <trkpt lat="45.86383" lon="3.20279">
        <ele>315.4</ele>
        <time>2024-05-18T13:06:39Z</time>
      </trkpt>
      <trkpt lat="45.86381" lon="3.20269">
        <ele>315.6</ele>
        <time>2024-05-18T13:06:40Z</time>
      </trkpt>
      <trkpt lat="45.86378" lon="3.2026">
        <ele>315.6</ele>
        <time>2024-05-18T13:06:41Z</time>
      </trkpt>
      <trkpt lat="45.86375" lon="3.2025">
        <ele>315.6</ele>
        <time>2024-05-18T13:06:42Z</time>
      </trkpt>
      <trkpt lat="45.86372" lon="3.20241">
        <ele>315.6</ele>
        <time>2024-05-18T13:06:43Z</time>
      </trkpt>
      <trkpt lat="45.86369" lon="3.20232">
        <ele>315.6</ele>
        <time>2024-05-18T13:06:44Z</time>
      </trkpt>
      <trkpt lat="45.86366" lon="3.20222">
        <ele>315.6</ele>
        <time>2024-05-18T13:06:45Z</time>
      </trkpt>
      <trkpt lat="45.86362" lon="3.20213">
        <ele>315.6</ele>
        <time>2024-05-18T13:06:46Z</time>
      </trkpt>
      <trkpt lat="45.86359" lon="3.20203">
        <ele>315.6</ele>
        <time>2024-05-18T13:06:47Z</time>
      </trkpt>
      <trkpt lat="45.86356" lon="3.20194">
        <ele>315.6</ele>
        <time>2024-05-18T13:06:48Z</time>
      </trkpt>
      <trkpt lat="45.86352" lon="3.20184">
        <ele>315.6</ele>
        <time>2024-05-18T13:06:49Z</time>
      </trkpt>
      <trkpt lat="45.86349" lon="3.20175">
        <ele>315.6</ele>
        <time>2024-05-18T13:06:50Z</time>
      </trkpt>
      <trkpt lat="45.86346" lon="3.20165">
        <ele>315.6</ele>
        <time>2024-05-18T13:06:51Z</time>
      </trkpt>
      <trkpt lat="45.86342" lon="3.20156">
        <ele>315.6</ele>
        <time>2024-05-18T13:06:52Z</time>
      </trkpt>
      <trkpt lat="45.86339" lon="3.20146">
        <ele>315.6</ele>
        <time>2024-05-18T13:06:53Z</time>
      </trkpt>
      <trkpt lat="45.86336" lon="3.20137">
        <ele>315.8</ele>
        <time>2024-05-18T13:06:54Z</time>
      </trkpt>
      <trkpt lat="45.86332" lon="3.20127">
        <ele>315.8</ele>
        <time>2024-05-18T13:06:55Z</time>
      </trkpt>
      <trkpt lat="45.86329" lon="3.20118">
        <ele>315.8</ele>
        <time>2024-05-18T13:06:56Z</time>
      </trkpt>
      <trkpt lat="45.86326" lon="3.20108">
        <ele>315.8</ele>
        <time>2024-05-18T13:06:57Z</time>
      </trkpt>
      <trkpt lat="45.86322" lon="3.20098">
        <ele>315.8</ele>
        <time>2024-05-18T13:06:58Z</time>
      </trkpt>
      <trkpt lat="45.86318" lon="3.20089">
        <ele>315.8</ele>
        <time>2024-05-18T13:06:59Z</time>
      </trkpt>
      <trkpt lat="45.86315" lon="3.2008">
        <ele>315.8</ele>
        <time>2024-05-18T13:07:00Z</time>
      </trkpt>
      <trkpt lat="45.86311" lon="3.2007">
        <ele>315.8</ele>
        <time>2024-05-18T13:07:01Z</time>
      </trkpt>
      <trkpt lat="45.86307" lon="3.20061">
        <ele>315.6</ele>
        <time>2024-05-18T13:07:02Z</time>
      </trkpt>
      <trkpt lat="45.86304" lon="3.20052">
        <ele>315.8</ele>
        <time>2024-05-18T13:07:03Z</time>
      </trkpt>
      <trkpt lat="45.863" lon="3.20043">
        <ele>315.6</ele>
        <time>2024-05-18T13:07:04Z</time>
      </trkpt>
      <trkpt lat="45.86297" lon="3.20034">
        <ele>315.6</ele>
        <time>2024-05-18T13:07:05Z</time>
      </trkpt>
      <trkpt lat="45.86293" lon="3.20025">
        <ele>315.8</ele>
        <time>2024-05-18T13:07:06Z</time>
      </trkpt>
      <trkpt lat="45.8629" lon="3.20015">
        <ele>315.8</ele>
        <time>2024-05-18T13:07:07Z</time>
      </trkpt>
      <trkpt lat="45.86286" lon="3.20006">
        <ele>315.8</ele>
        <time>2024-05-18T13:07:08Z</time>
      </trkpt>
      <trkpt lat="45.86283" lon="3.19997">
        <ele>315.8</ele>
        <time>2024-05-18T13:07:09Z</time>
      </trkpt>
      <trkpt lat="45.8628" lon="3.19988">
        <ele>315.8</ele>
        <time>2024-05-18T13:07:10Z</time>
      </trkpt>
      <trkpt lat="45.86276" lon="3.19979">
        <ele>315.8</ele>
        <time>2024-05-18T13:07:11Z</time>
      </trkpt>
      <trkpt lat="45.86272" lon="3.1997">
        <ele>315.8</ele>
        <time>2024-05-18T13:07:12Z</time>
      </trkpt>
      <trkpt lat="45.86269" lon="3.19961">
        <ele>315.8</ele>
        <time>2024-05-18T13:07:13Z</time>
      </trkpt>
      <trkpt lat="45.86266" lon="3.19952">
        <ele>315.6</ele>
        <time>2024-05-18T13:07:14Z</time>
      </trkpt>
      <trkpt lat="45.86262" lon="3.19943">
        <ele>315.6</ele>
        <time>2024-05-18T13:07:15Z</time>
      </trkpt>
      <trkpt lat="45.86259" lon="3.19934">
        <ele>315.6</ele>
        <time>2024-05-18T13:07:16Z</time>
      </trkpt>
      <trkpt lat="45.86255" lon="3.19925">
        <ele>315.8</ele>
        <time>2024-05-18T13:07:17Z</time>
      </trkpt>
      <trkpt lat="45.86252" lon="3.19916">
        <ele>315.6</ele>
        <time>2024-05-18T13:07:18Z</time>
      </trkpt>
      <trkpt lat="45.86248" lon="3.19907">
        <ele>315.6</ele>
        <time>2024-05-18T13:07:19Z</time>
      </trkpt>
      <trkpt lat="45.86245" lon="3.19898">
        <ele>315.6</ele>
        <time>2024-05-18T13:07:20Z</time>
      </trkpt>
      <trkpt lat="45.86241" lon="3.19888">
        <ele>315.6</ele>
        <time>2024-05-18T13:07:21Z</time>
      </trkpt>
      <trkpt lat="45.86237" lon="3.19879">
        <ele>315.6</ele>
        <time>2024-05-18T13:07:22Z</time>
      </trkpt>
      <trkpt lat="45.86234" lon="3.1987">
        <ele>315.6</ele>
        <time>2024-05-18T13:07:23Z</time>
      </trkpt>
      <trkpt lat="45.8623" lon="3.19861">
        <ele>315.6</ele>
        <time>2024-05-18T13:07:24Z</time>
      </trkpt>
      <trkpt lat="45.86227" lon="3.19851">
        <ele>315.6</ele>
        <time>2024-05-18T13:07:25Z</time>
      </trkpt>
      <trkpt lat="45.86223" lon="3.19842">
        <ele>315.6</ele>
        <time>2024-05-18T13:07:26Z</time>
      </trkpt>
      <trkpt lat="45.8622" lon="3.19833">
        <ele>315.6</ele>
        <time>2024-05-18T13:07:27Z</time>
      </trkpt>
      <trkpt lat="45.86216" lon="3.19823">
        <ele>315.6</ele>
        <time>2024-05-18T13:07:28Z</time>
      </trkpt>
      <trkpt lat="45.86212" lon="3.19814">
        <ele>315.6</ele>
        <time>2024-05-18T13:07:29Z</time>
      </trkpt>
      <trkpt lat="45.86209" lon="3.19805">
        <ele>315.6</ele>
        <time>2024-05-18T13:07:30Z</time>
      </trkpt>
      <trkpt lat="45.86205" lon="3.19796">
        <ele>315.6</ele>
        <time>2024-05-18T13:07:31Z</time>
      </trkpt>
      <trkpt lat="45.86201" lon="3.19786">
        <ele>315.6</ele>
        <time>2024-05-18T13:07:32Z</time>
      </trkpt>
      <trkpt lat="45.86198" lon="3.19777">
        <ele>315.6</ele>
        <time>2024-05-18T13:07:33Z</time>
      </trkpt>
      <trkpt lat="45.86194" lon="3.19767">
        <ele>315.6</ele>
        <time>2024-05-18T13:07:34Z</time>
      </trkpt>
      <trkpt lat="45.86191" lon="3.19758">
        <ele>315.6</ele>
        <time>2024-05-18T13:07:35Z</time>
      </trkpt>
      <trkpt lat="45.86187" lon="3.19749">
        <ele>315.6</ele>
        <time>2024-05-18T13:07:36Z</time>
      </trkpt>
      <trkpt lat="45.86184" lon="3.1974">
        <ele>315.6</ele>
        <time>2024-05-18T13:07:37Z</time>
      </trkpt>
      <trkpt lat="45.8618" lon="3.19731">
        <ele>315.6</ele>
        <time>2024-05-18T13:07:38Z</time>
      </trkpt>
      <trkpt lat="45.86177" lon="3.19722">
        <ele>315.4</ele>
        <time>2024-05-18T13:07:39Z</time>
      </trkpt>
      <trkpt lat="45.86173" lon="3.19713">
        <ele>315.4</ele>
        <time>2024-05-18T13:07:40Z</time>
      </trkpt>
      <trkpt lat="45.8617" lon="3.19704">
        <ele>315.4</ele>
        <time>2024-05-18T13:07:41Z</time>
      </trkpt>
      <trkpt lat="45.86166" lon="3.19694">
        <ele>315.6</ele>
        <time>2024-05-18T13:07:42Z</time>
      </trkpt>
      <trkpt lat="45.86162" lon="3.19685">
        <ele>315.6</ele>
        <time>2024-05-18T13:07:43Z</time>
      </trkpt>
      <trkpt lat="45.86159" lon="3.19675">
        <ele>315.6</ele>
        <time>2024-05-18T13:07:44Z</time>
      </trkpt>
      <trkpt lat="45.86155" lon="3.19666">
        <ele>315.4</ele>
        <time>2024-05-18T13:07:45Z</time>
      </trkpt>
      <trkpt lat="45.86151" lon="3.19656">
        <ele>315.6</ele>
        <time>2024-05-18T13:07:46Z</time>
      </trkpt>
      <trkpt lat="45.86148" lon="3.19647">
        <ele>315.4</ele>
        <time>2024-05-18T13:07:47Z</time>
      </trkpt>
      <trkpt lat="45.86144" lon="3.19637">
        <ele>315.6</ele>
        <time>2024-05-18T13:07:48Z</time>
      </trkpt>
      <trkpt lat="45.86141" lon="3.19628">
        <ele>315.6</ele>
        <time>2024-05-18T13:07:49Z</time>
      </trkpt>
      <trkpt lat="45.86137" lon="3.19619">
        <ele>315.6</ele>
        <time>2024-05-18T13:07:50Z</time>
      </trkpt>
      <trkpt lat="45.86133" lon="3.1961">
        <ele>315.6</ele>
        <time>2024-05-18T13:07:51Z</time>
      </trkpt>
      <trkpt lat="45.8613" lon="3.196">
        <ele>315.4</ele>
        <time>2024-05-18T13:07:52Z</time>
      </trkpt>
      <trkpt lat="45.86127" lon="3.19591">
        <ele>315.4</ele>
        <time>2024-05-18T13:07:53Z</time>
      </trkpt>
      <trkpt lat="45.86123" lon="3.19582">
        <ele>315.4</ele>
        <time>2024-05-18T13:07:54Z</time>
      </trkpt>
      <trkpt lat="45.8612" lon="3.19572">
        <ele>315.4</ele>
        <time>2024-05-18T13:07:55Z</time>
      </trkpt>
      <trkpt lat="45.86117" lon="3.19563">
        <ele>315.4</ele>
        <time>2024-05-18T13:07:56Z</time>
      </trkpt>
      <trkpt lat="45.86114" lon="3.19553">
        <ele>315.4</ele>
        <time>2024-05-18T13:07:57Z</time>
      </trkpt>
      <trkpt lat="45.86111" lon="3.19544">
        <ele>315.4</ele>
        <time>2024-05-18T13:07:58Z</time>
      </trkpt>
      <trkpt lat="45.86107" lon="3.19535">
        <ele>315.4</ele>
        <time>2024-05-18T13:07:59Z</time>
      </trkpt>
      <trkpt lat="45.86104" lon="3.19525">
        <ele>315.4</ele>
        <time>2024-05-18T13:08:00Z</time>
      </trkpt>
      <trkpt lat="45.86101" lon="3.19516">
        <ele>315.4</ele>
        <time>2024-05-18T13:08:01Z</time>
      </trkpt>
      <trkpt lat="45.86097" lon="3.19506">
        <ele>315.4</ele>
        <time>2024-05-18T13:08:02Z</time>
      </trkpt>
      <trkpt lat="45.86094" lon="3.19496">
        <ele>315.4</ele>
        <time>2024-05-18T13:08:03Z</time>
      </trkpt>
      <trkpt lat="45.86092" lon="3.19486">
        <ele>315.4</ele>
        <time>2024-05-18T13:08:04Z</time>
      </trkpt>
      <trkpt lat="45.8609" lon="3.19476">
        <ele>315.4</ele>
        <time>2024-05-18T13:08:05Z</time>
      </trkpt>
      <trkpt lat="45.86088" lon="3.19466">
        <ele>315.4</ele>
        <time>2024-05-18T13:08:06Z</time>
      </trkpt>
      <trkpt lat="45.86085" lon="3.19456">
        <ele>315.4</ele>
        <time>2024-05-18T13:08:07Z</time>
      </trkpt>
      <trkpt lat="45.86083" lon="3.19447">
        <ele>315.6</ele>
        <time>2024-05-18T13:08:08Z</time>
      </trkpt>
      <trkpt lat="45.86081" lon="3.19437">
        <ele>315.6</ele>
        <time>2024-05-18T13:08:09Z</time>
      </trkpt>
      <trkpt lat="45.86079" lon="3.19427">
        <ele>315.6</ele>
        <time>2024-05-18T13:08:10Z</time>
      </trkpt>
      <trkpt lat="45.86077" lon="3.19417">
        <ele>315.6</ele>
        <time>2024-05-18T13:08:11Z</time>
      </trkpt>
      <trkpt lat="45.86075" lon="3.19407">
        <ele>315.6</ele>
        <time>2024-05-18T13:08:12Z</time>
      </trkpt>
      <trkpt lat="45.86072" lon="3.19397">
        <ele>315.6</ele>
        <time>2024-05-18T13:08:13Z</time>
      </trkpt>
      <trkpt lat="45.8607" lon="3.19387">
        <ele>315.6</ele>
        <time>2024-05-18T13:08:14Z</time>
      </trkpt>
      <trkpt lat="45.86069" lon="3.19377">
        <ele>315.6</ele>
        <time>2024-05-18T13:08:15Z</time>
      </trkpt>
      <trkpt lat="45.86067" lon="3.19367">
        <ele>315.6</ele>
        <time>2024-05-18T13:08:16Z</time>
      </trkpt>
      <trkpt lat="45.86066" lon="3.19357">
        <ele>315.6</ele>
        <time>2024-05-18T13:08:17Z</time>
      </trkpt>
      <trkpt lat="45.86064" lon="3.19346">
        <ele>315.6</ele>
        <time>2024-05-18T13:08:18Z</time>
      </trkpt>
      <trkpt lat="45.86063" lon="3.19336">
        <ele>315.6</ele>
        <time>2024-05-18T13:08:19Z</time>
      </trkpt>
      <trkpt lat="45.86061" lon="3.19326">
        <ele>315.6</ele>
        <time>2024-05-18T13:08:20Z</time>
      </trkpt>
      <trkpt lat="45.86059" lon="3.19316">
        <ele>315.6</ele>
        <time>2024-05-18T13:08:21Z</time>
      </trkpt>
      <trkpt lat="45.86058" lon="3.19305">
        <ele>315.6</ele>
        <time>2024-05-18T13:08:22Z</time>
      </trkpt>
      <trkpt lat="45.86057" lon="3.19295">
        <ele>315.6</ele>
        <time>2024-05-18T13:08:23Z</time>
      </trkpt>
      <trkpt lat="45.86056" lon="3.19284">
        <ele>315.6</ele>
        <time>2024-05-18T13:08:24Z</time>
      </trkpt>
      <trkpt lat="45.86055" lon="3.19274">
        <ele>315.6</ele>
        <time>2024-05-18T13:08:25Z</time>
      </trkpt>
      <trkpt lat="45.86054" lon="3.19264">
        <ele>315.6</ele>
        <time>2024-05-18T13:08:26Z</time>
      </trkpt>
      <trkpt lat="45.86053" lon="3.19253">
        <ele>315.6</ele>
        <time>2024-05-18T13:08:27Z</time>
      </trkpt>
      <trkpt lat="45.86052" lon="3.19243">
        <ele>315.6</ele>
        <time>2024-05-18T13:08:28Z</time>
      </trkpt>
      <trkpt lat="45.86051" lon="3.19232">
        <ele>315.6</ele>
        <time>2024-05-18T13:08:29Z</time>
      </trkpt>
      <trkpt lat="45.8605" lon="3.19222">
        <ele>315.6</ele>
        <time>2024-05-18T13:08:30Z</time>
      </trkpt>
      <trkpt lat="45.86049" lon="3.19212">
        <ele>315.6</ele>
        <time>2024-05-18T13:08:31Z</time>
      </trkpt>
      <trkpt lat="45.86048" lon="3.19202">
        <ele>315.6</ele>
        <time>2024-05-18T13:08:32Z</time>
      </trkpt>
      <trkpt lat="45.86047" lon="3.19192">
        <ele>315.6</ele>
        <time>2024-05-18T13:08:33Z</time>
      </trkpt>
      <trkpt lat="45.86046" lon="3.19182">
        <ele>315.6</ele>
        <time>2024-05-18T13:08:34Z</time>
      </trkpt>
      <trkpt lat="45.86045" lon="3.19172">
        <ele>315.6</ele>
        <time>2024-05-18T13:08:35Z</time>
      </trkpt>
      <trkpt lat="45.86046" lon="3.19162">
        <ele>315.6</ele>
        <time>2024-05-18T13:08:36Z</time>
      </trkpt>
      <trkpt lat="45.86046" lon="3.19152">
        <ele>315.6</ele>
        <time>2024-05-18T13:08:37Z</time>
      </trkpt>
      <trkpt lat="45.86046" lon="3.19142">
        <ele>315.6</ele>
        <time>2024-05-18T13:08:38Z</time>
      </trkpt>
      <trkpt lat="45.86047" lon="3.19132">
        <ele>315.8</ele>
        <time>2024-05-18T13:08:39Z</time>
      </trkpt>
      <trkpt lat="45.86047" lon="3.19122">
        <ele>315.8</ele>
        <time>2024-05-18T13:08:40Z</time>
      </trkpt>
      <trkpt lat="45.86047" lon="3.19114">
        <ele>315.8</ele>
        <time>2024-05-18T13:08:41Z</time>
      </trkpt>
      <trkpt lat="45.8605" lon="3.19102">
        <ele>315.8</ele>
        <time>2024-05-18T13:08:42Z</time>
      </trkpt>
      <trkpt lat="45.8605" lon="3.19092">
        <ele>315.8</ele>
        <time>2024-05-18T13:08:43Z</time>
      </trkpt>
      <trkpt lat="45.86045" lon="3.19084">
        <ele>315.8</ele>
        <time>2024-05-18T13:08:44Z</time>
      </trkpt>
      <trkpt lat="45.86041" lon="3.19075">
        <ele>315.8</ele>
        <time>2024-05-18T13:08:45Z</time>
      </trkpt>
      <trkpt lat="45.86039" lon="3.19066">
        <ele>315.8</ele>
        <time>2024-05-18T13:08:46Z</time>
      </trkpt>
      <trkpt lat="45.86037" lon="3.19056">
        <ele>315.8</ele>
        <time>2024-05-18T13:08:47Z</time>
      </trkpt>
      <trkpt lat="45.86034" lon="3.19046">
        <ele>315.8</ele>
        <time>2024-05-18T13:08:48Z</time>
      </trkpt>
      <trkpt lat="45.86032" lon="3.19036">
        <ele>315.8</ele>
        <time>2024-05-18T13:08:49Z</time>
      </trkpt>
      <trkpt lat="45.86029" lon="3.19025">
        <ele>315.8</ele>
        <time>2024-05-18T13:08:50Z</time>
      </trkpt>
      <trkpt lat="45.86027" lon="3.19015">
        <ele>315.8</ele>
        <time>2024-05-18T13:08:51Z</time>
      </trkpt>
      <trkpt lat="45.86025" lon="3.19005">
        <ele>315.8</ele>
        <time>2024-05-18T13:08:52Z</time>
      </trkpt>
      <trkpt lat="45.86023" lon="3.18995">
        <ele>315.8</ele>
        <time>2024-05-18T13:08:53Z</time>
      </trkpt>
      <trkpt lat="45.86021" lon="3.18985">
        <ele>315.8</ele>
        <time>2024-05-18T13:08:54Z</time>
      </trkpt>
      <trkpt lat="45.86019" lon="3.18975">
        <ele>315.8</ele>
        <time>2024-05-18T13:08:55Z</time>
      </trkpt>
      <trkpt lat="45.86016" lon="3.18965">
        <ele>316</ele>
        <time>2024-05-18T13:08:56Z</time>
      </trkpt>
      <trkpt lat="45.86014" lon="3.18954">
        <ele>316</ele>
        <time>2024-05-18T13:08:57Z</time>
      </trkpt>
      <trkpt lat="45.86012" lon="3.18945">
        <ele>316</ele>
        <time>2024-05-18T13:08:58Z</time>
      </trkpt>
      <trkpt lat="45.8601" lon="3.18935">
        <ele>316</ele>
        <time>2024-05-18T13:08:59Z</time>
      </trkpt>
      <trkpt lat="45.86008" lon="3.18924">
        <ele>316</ele>
        <time>2024-05-18T13:09:00Z</time>
      </trkpt>
      <trkpt lat="45.86006" lon="3.18914">
        <ele>316</ele>
        <time>2024-05-18T13:09:01Z</time>
      </trkpt>
      <trkpt lat="45.86004" lon="3.18904">
        <ele>316</ele>
        <time>2024-05-18T13:09:02Z</time>
      </trkpt>
      <trkpt lat="45.86001" lon="3.18895">
        <ele>316</ele>
        <time>2024-05-18T13:09:03Z</time>
      </trkpt>
      <trkpt lat="45.85998" lon="3.18886">
        <ele>316</ele>
        <time>2024-05-18T13:09:04Z</time>
      </trkpt>
      <trkpt lat="45.85994" lon="3.18876">
        <ele>316</ele>
        <time>2024-05-18T13:09:05Z</time>
      </trkpt>
      <trkpt lat="45.85991" lon="3.18867">
        <ele>316</ele>
        <time>2024-05-18T13:09:06Z</time>
      </trkpt>
      <trkpt lat="45.85988" lon="3.18858">
        <ele>316</ele>
        <time>2024-05-18T13:09:07Z</time>
      </trkpt>
      <trkpt lat="45.85985" lon="3.18848">
        <ele>316</ele>
        <time>2024-05-18T13:09:08Z</time>
      </trkpt>
      <trkpt lat="45.85982" lon="3.18839">
        <ele>316</ele>
        <time>2024-05-18T13:09:09Z</time>
      </trkpt>
      <trkpt lat="45.85979" lon="3.1883">
        <ele>316</ele>
        <time>2024-05-18T13:09:10Z</time>
      </trkpt>
      <trkpt lat="45.85975" lon="3.1882">
        <ele>316</ele>
        <time>2024-05-18T13:09:11Z</time>
      </trkpt>
      <trkpt lat="45.85972" lon="3.18811">
        <ele>316</ele>
        <time>2024-05-18T13:09:12Z</time>
      </trkpt>
      <trkpt lat="45.85969" lon="3.18802">
        <ele>315.8</ele>
        <time>2024-05-18T13:09:13Z</time>
      </trkpt>
      <trkpt lat="45.85966" lon="3.18793">
        <ele>316</ele>
        <time>2024-05-18T13:09:14Z</time>
      </trkpt>
      <trkpt lat="45.85963" lon="3.18783">
        <ele>316</ele>
        <time>2024-05-18T13:09:15Z</time>
      </trkpt>
      <trkpt lat="45.8596" lon="3.18774">
        <ele>316</ele>
        <time>2024-05-18T13:09:16Z</time>
      </trkpt>
      <trkpt lat="45.85957" lon="3.18765">
        <ele>316</ele>
        <time>2024-05-18T13:09:17Z</time>
      </trkpt>
      <trkpt lat="45.85953" lon="3.18756">
        <ele>316</ele>
        <time>2024-05-18T13:09:18Z</time>
      </trkpt>
      <trkpt lat="45.8595" lon="3.18747">
        <ele>316</ele>
        <time>2024-05-18T13:09:19Z</time>
      </trkpt>
      <trkpt lat="45.85947" lon="3.18738">
        <ele>316</ele>
        <time>2024-05-18T13:09:20Z</time>
      </trkpt>
      <trkpt lat="45.85944" lon="3.18729">
        <ele>316</ele>
        <time>2024-05-18T13:09:21Z</time>
      </trkpt>
      <trkpt lat="45.85941" lon="3.1872">
        <ele>316</ele>
        <time>2024-05-18T13:09:22Z</time>
      </trkpt>
      <trkpt lat="45.85938" lon="3.1871">
        <ele>316</ele>
        <time>2024-05-18T13:09:23Z</time>
      </trkpt>
      <trkpt lat="45.85935" lon="3.18701">
        <ele>316</ele>
        <time>2024-05-18T13:09:24Z</time>
      </trkpt>
      <trkpt lat="45.85932" lon="3.18692">
        <ele>316</ele>
        <time>2024-05-18T13:09:25Z</time>
      </trkpt>
      <trkpt lat="45.85929" lon="3.18683">
        <ele>316</ele>
        <time>2024-05-18T13:09:26Z</time>
      </trkpt>
      <trkpt lat="45.85927" lon="3.18674">
        <ele>316</ele>
        <time>2024-05-18T13:09:27Z</time>
      </trkpt>
      <trkpt lat="45.85924" lon="3.18665">
        <ele>316</ele>
        <time>2024-05-18T13:09:28Z</time>
      </trkpt>
      <trkpt lat="45.85922" lon="3.18656">
        <ele>316</ele>
        <time>2024-05-18T13:09:29Z</time>
      </trkpt>
      <trkpt lat="45.85918" lon="3.18646">
        <ele>316</ele>
        <time>2024-05-18T13:09:30Z</time>
      </trkpt>
      <trkpt lat="45.85915" lon="3.18638">
        <ele>316</ele>
        <time>2024-05-18T13:09:31Z</time>
      </trkpt>
      <trkpt lat="45.85912" lon="3.18629">
        <ele>316.2</ele>
        <time>2024-05-18T13:09:32Z</time>
      </trkpt>
      <trkpt lat="45.85909" lon="3.1862">
        <ele>316.2</ele>
        <time>2024-05-18T13:09:33Z</time>
      </trkpt>
      <trkpt lat="45.85905" lon="3.18611">
        <ele>316.2</ele>
        <time>2024-05-18T13:09:34Z</time>
      </trkpt>
      <trkpt lat="45.85902" lon="3.18603">
        <ele>316.2</ele>
        <time>2024-05-18T13:09:35Z</time>
      </trkpt>
      <trkpt lat="45.85899" lon="3.18594">
        <ele>316.2</ele>
        <time>2024-05-18T13:09:36Z</time>
      </trkpt>
      <trkpt lat="45.85896" lon="3.18586">
        <ele>316.2</ele>
        <time>2024-05-18T13:09:37Z</time>
      </trkpt>
      <trkpt lat="45.85892" lon="3.18577">
        <ele>316.4</ele>
        <time>2024-05-18T13:09:38Z</time>
      </trkpt>
      <trkpt lat="45.85889" lon="3.18568">
        <ele>316.4</ele>
        <time>2024-05-18T13:09:39Z</time>
      </trkpt>
      <trkpt lat="45.85886" lon="3.18559">
        <ele>316.4</ele>
        <time>2024-05-18T13:09:40Z</time>
      </trkpt>
      <trkpt lat="45.85882" lon="3.18551">
        <ele>316.4</ele>
        <time>2024-05-18T13:09:41Z</time>
      </trkpt>
      <trkpt lat="45.85879" lon="3.18542">
        <ele>316.4</ele>
        <time>2024-05-18T13:09:42Z</time>
      </trkpt>
      <trkpt lat="45.85876" lon="3.18534">
        <ele>316.4</ele>
        <time>2024-05-18T13:09:43Z</time>
      </trkpt>
      <trkpt lat="45.85873" lon="3.18525">
        <ele>316.6</ele>
        <time>2024-05-18T13:09:44Z</time>
      </trkpt>
      <trkpt lat="45.8587" lon="3.18517">
        <ele>316.6</ele>
        <time>2024-05-18T13:09:45Z</time>
      </trkpt>
      <trkpt lat="45.85866" lon="3.18508">
        <ele>316.6</ele>
        <time>2024-05-18T13:09:46Z</time>
      </trkpt>
      <trkpt lat="45.85863" lon="3.18499">
        <ele>316.6</ele>
        <time>2024-05-18T13:09:47Z</time>
      </trkpt>
      <trkpt lat="45.85859" lon="3.18491">
        <ele>316.8</ele>
        <time>2024-05-18T13:09:48Z</time>
      </trkpt>
      <trkpt lat="45.85855" lon="3.18483">
        <ele>316.8</ele>
        <time>2024-05-18T13:09:49Z</time>
      </trkpt>
      <trkpt lat="45.85851" lon="3.18475">
        <ele>316.8</ele>
        <time>2024-05-18T13:09:50Z</time>
      </trkpt>
      <trkpt lat="45.85847" lon="3.18467">
        <ele>316.8</ele>
        <time>2024-05-18T13:09:51Z</time>
      </trkpt>
      <trkpt lat="45.85843" lon="3.18459">
        <ele>316.8</ele>
        <time>2024-05-18T13:09:52Z</time>
      </trkpt>
      <trkpt lat="45.85839" lon="3.18451">
        <ele>316.8</ele>
        <time>2024-05-18T13:09:53Z</time>
      </trkpt>
      <trkpt lat="45.85835" lon="3.18443">
        <ele>317</ele>
        <time>2024-05-18T13:09:54Z</time>
      </trkpt>
      <trkpt lat="45.85831" lon="3.18435">
        <ele>317</ele>
        <time>2024-05-18T13:09:55Z</time>
      </trkpt>
      <trkpt lat="45.85827" lon="3.18427">
        <ele>317</ele>
        <time>2024-05-18T13:09:56Z</time>
      </trkpt>
      <trkpt lat="45.85823" lon="3.18418">
        <ele>316.8</ele>
        <time>2024-05-18T13:09:57Z</time>
      </trkpt>
      <trkpt lat="45.85819" lon="3.1841">
        <ele>316.8</ele>
        <time>2024-05-18T13:09:58Z</time>
      </trkpt>
      <trkpt lat="45.85815" lon="3.18402">
        <ele>316.8</ele>
        <time>2024-05-18T13:09:59Z</time>
      </trkpt>
      <trkpt lat="45.8581" lon="3.18394">
        <ele>316.8</ele>
        <time>2024-05-18T13:10:00Z</time>
      </trkpt>
      <trkpt lat="45.85806" lon="3.18385">
        <ele>316.8</ele>
        <time>2024-05-18T13:10:01Z</time>
      </trkpt>
      <trkpt lat="45.85802" lon="3.18378">
        <ele>317</ele>
        <time>2024-05-18T13:10:02Z</time>
      </trkpt>
      <trkpt lat="45.85797" lon="3.1837">
        <ele>317</ele>
        <time>2024-05-18T13:10:03Z</time>
      </trkpt>
      <trkpt lat="45.85793" lon="3.18362">
        <ele>316.8</ele>
        <time>2024-05-18T13:10:04Z</time>
      </trkpt>
      <trkpt lat="45.85788" lon="3.18354">
        <ele>317</ele>
        <time>2024-05-18T13:10:05Z</time>
      </trkpt>
      <trkpt lat="45.85783" lon="3.18346">
        <ele>317</ele>
        <time>2024-05-18T13:10:06Z</time>
      </trkpt>
      <trkpt lat="45.85779" lon="3.18338">
        <ele>316.8</ele>
        <time>2024-05-18T13:10:07Z</time>
      </trkpt>
      <trkpt lat="45.85774" lon="3.1833">
        <ele>316.8</ele>
        <time>2024-05-18T13:10:08Z</time>
      </trkpt>
      <trkpt lat="45.85769" lon="3.18322">
        <ele>317</ele>
        <time>2024-05-18T13:10:09Z</time>
      </trkpt>
      <trkpt lat="45.85765" lon="3.18314">
        <ele>317</ele>
        <time>2024-05-18T13:10:10Z</time>
      </trkpt>
      <trkpt lat="45.8576" lon="3.18305">
        <ele>317</ele>
        <time>2024-05-18T13:10:11Z</time>
      </trkpt>
      <trkpt lat="45.85755" lon="3.18297">
        <ele>317</ele>
        <time>2024-05-18T13:10:12Z</time>
      </trkpt>
      <trkpt lat="45.8575" lon="3.18289">
        <ele>317</ele>
        <time>2024-05-18T13:10:13Z</time>
      </trkpt>
      <trkpt lat="45.85746" lon="3.18281">
        <ele>317</ele>
        <time>2024-05-18T13:10:14Z</time>
      </trkpt>
      <trkpt lat="45.85741" lon="3.18273">
        <ele>317</ele>
        <time>2024-05-18T13:10:15Z</time>
      </trkpt>
      <trkpt lat="45.85736" lon="3.18265">
        <ele>317</ele>
        <time>2024-05-18T13:10:16Z</time>
      </trkpt>
      <trkpt lat="45.85731" lon="3.18257">
        <ele>317</ele>
        <time>2024-05-18T13:10:17Z</time>
      </trkpt>
      <trkpt lat="45.85727" lon="3.18249">
        <ele>317</ele>
        <time>2024-05-18T13:10:18Z</time>
      </trkpt>
      <trkpt lat="45.85722" lon="3.18241">
        <ele>317.2</ele>
        <time>2024-05-18T13:10:19Z</time>
      </trkpt>
      <trkpt lat="45.85718" lon="3.18234">
        <ele>317</ele>
        <time>2024-05-18T13:10:20Z</time>
      </trkpt>
      <trkpt lat="45.85713" lon="3.18226">
        <ele>317</ele>
        <time>2024-05-18T13:10:21Z</time>
      </trkpt>
      <trkpt lat="45.85709" lon="3.18218">
        <ele>317</ele>
        <time>2024-05-18T13:10:22Z</time>
      </trkpt>
      <trkpt lat="45.85704" lon="3.1821">
        <ele>317</ele>
        <time>2024-05-18T13:10:23Z</time>
      </trkpt>
      <trkpt lat="45.857" lon="3.18203">
        <ele>317</ele>
        <time>2024-05-18T13:10:24Z</time>
      </trkpt>
      <trkpt lat="45.85695" lon="3.18195">
        <ele>317</ele>
        <time>2024-05-18T13:10:25Z</time>
      </trkpt>
      <trkpt lat="45.85691" lon="3.18187">
        <ele>317</ele>
        <time>2024-05-18T13:10:26Z</time>
      </trkpt>
      <trkpt lat="45.85686" lon="3.18179">
        <ele>317</ele>
        <time>2024-05-18T13:10:27Z</time>
      </trkpt>
      <trkpt lat="45.85682" lon="3.18171">
        <ele>317.2</ele>
        <time>2024-05-18T13:10:28Z</time>
      </trkpt>
      <trkpt lat="45.85677" lon="3.18163">
        <ele>317.2</ele>
        <time>2024-05-18T13:10:29Z</time>
      </trkpt>
      <trkpt lat="45.85673" lon="3.18156">
        <ele>317.2</ele>
        <time>2024-05-18T13:10:30Z</time>
      </trkpt>
      <trkpt lat="45.85668" lon="3.18148">
        <ele>317.2</ele>
        <time>2024-05-18T13:10:31Z</time>
      </trkpt>
      <trkpt lat="45.85663" lon="3.1814">
        <ele>317.2</ele>
        <time>2024-05-18T13:10:32Z</time>
      </trkpt>
      <trkpt lat="45.85658" lon="3.18131">
        <ele>317.2</ele>
        <time>2024-05-18T13:10:33Z</time>
      </trkpt>
      <trkpt lat="45.85654" lon="3.18123">
        <ele>317.2</ele>
        <time>2024-05-18T13:10:34Z</time>
      </trkpt>
      <trkpt lat="45.85649" lon="3.18115">
        <ele>317.2</ele>
        <time>2024-05-18T13:10:35Z</time>
      </trkpt>
      <trkpt lat="45.85644" lon="3.18107">
        <ele>317.2</ele>
        <time>2024-05-18T13:10:36Z</time>
      </trkpt>
      <trkpt lat="45.85639" lon="3.18099">
        <ele>317.2</ele>
        <time>2024-05-18T13:10:37Z</time>
      </trkpt>
      <trkpt lat="45.85635" lon="3.18091">
        <ele>317.2</ele>
        <time>2024-05-18T13:10:38Z</time>
      </trkpt>
      <trkpt lat="45.8563" lon="3.18082">
        <ele>317.2</ele>
        <time>2024-05-18T13:10:39Z</time>
      </trkpt>
      <trkpt lat="45.85625" lon="3.18074">
        <ele>317.2</ele>
        <time>2024-05-18T13:10:40Z</time>
      </trkpt>
      <trkpt lat="45.8562" lon="3.18066">
        <ele>317.2</ele>
        <time>2024-05-18T13:10:41Z</time>
      </trkpt>
      <trkpt lat="45.85616" lon="3.18058">
        <ele>317.2</ele>
        <time>2024-05-18T13:10:42Z</time>
      </trkpt>
      <trkpt lat="45.85611" lon="3.1805">
        <ele>317.2</ele>
        <time>2024-05-18T13:10:43Z</time>
      </trkpt>
      <trkpt lat="45.85606" lon="3.18042">
        <ele>317.2</ele>
        <time>2024-05-18T13:10:44Z</time>
      </trkpt>
      <trkpt lat="45.85601" lon="3.18033">
        <ele>317.2</ele>
        <time>2024-05-18T13:10:45Z</time>
      </trkpt>
      <trkpt lat="45.85597" lon="3.18025">
        <ele>317.2</ele>
        <time>2024-05-18T13:10:46Z</time>
      </trkpt>
      <trkpt lat="45.85592" lon="3.18017">
        <ele>317.2</ele>
        <time>2024-05-18T13:10:47Z</time>
      </trkpt>
      <trkpt lat="45.85587" lon="3.18008">
        <ele>317.2</ele>
        <time>2024-05-18T13:10:48Z</time>
      </trkpt>
      <trkpt lat="45.85582" lon="3.18">
        <ele>317.4</ele>
        <time>2024-05-18T13:10:49Z</time>
      </trkpt>
      <trkpt lat="45.85577" lon="3.17992">
        <ele>317.4</ele>
        <time>2024-05-18T13:10:50Z</time>
      </trkpt>
      <trkpt lat="45.85572" lon="3.17983">
        <ele>317.6</ele>
        <time>2024-05-18T13:10:51Z</time>
      </trkpt>
      <trkpt lat="45.85568" lon="3.17975">
        <ele>317.6</ele>
        <time>2024-05-18T13:10:52Z</time>
      </trkpt>
      <trkpt lat="45.85563" lon="3.17967">
        <ele>317.6</ele>
        <time>2024-05-18T13:10:53Z</time>
      </trkpt>
      <trkpt lat="45.85558" lon="3.17959">
        <ele>317.6</ele>
        <time>2024-05-18T13:10:54Z</time>
      </trkpt>
      <trkpt lat="45.85554" lon="3.17951">
        <ele>317.6</ele>
        <time>2024-05-18T13:10:55Z</time>
      </trkpt>
      <trkpt lat="45.85549" lon="3.17943">
        <ele>317.6</ele>
        <time>2024-05-18T13:10:56Z</time>
      </trkpt>
      <trkpt lat="45.85544" lon="3.17936">
        <ele>317.6</ele>
        <time>2024-05-18T13:10:57Z</time>
      </trkpt>
      <trkpt lat="45.8554" lon="3.17928">
        <ele>317.6</ele>
        <time>2024-05-18T13:10:58Z</time>
      </trkpt>
      <trkpt lat="45.85535" lon="3.1792">
        <ele>317.8</ele>
        <time>2024-05-18T13:10:59Z</time>
      </trkpt>
      <trkpt lat="45.85531" lon="3.17912">
        <ele>317.8</ele>
        <time>2024-05-18T13:11:00Z</time>
      </trkpt>
      <trkpt lat="45.85526" lon="3.17904">
        <ele>317.8</ele>
        <time>2024-05-18T13:11:01Z</time>
      </trkpt>
      <trkpt lat="45.8552" lon="3.17897">
        <ele>317.8</ele>
        <time>2024-05-18T13:11:02Z</time>
      </trkpt>
      <trkpt lat="45.85515" lon="3.1789">
        <ele>317.6</ele>
        <time>2024-05-18T13:11:03Z</time>
      </trkpt>
      <trkpt lat="45.8551" lon="3.17883">
        <ele>317.8</ele>
        <time>2024-05-18T13:11:04Z</time>
      </trkpt>
      <trkpt lat="45.85504" lon="3.17876">
        <ele>317.8</ele>
        <time>2024-05-18T13:11:05Z</time>
      </trkpt>
      <trkpt lat="45.85499" lon="3.17869">
        <ele>317.8</ele>
        <time>2024-05-18T13:11:06Z</time>
      </trkpt>
      <trkpt lat="45.85493" lon="3.17863">
        <ele>317.8</ele>
        <time>2024-05-18T13:11:07Z</time>
      </trkpt>
      <trkpt lat="45.85488" lon="3.17856">
        <ele>317.8</ele>
        <time>2024-05-18T13:11:08Z</time>
      </trkpt>
      <trkpt lat="45.85483" lon="3.17849">
        <ele>317.8</ele>
        <time>2024-05-18T13:11:09Z</time>
      </trkpt>
      <trkpt lat="45.85478" lon="3.17843">
        <ele>317.8</ele>
        <time>2024-05-18T13:11:10Z</time>
      </trkpt>
      <trkpt lat="45.85473" lon="3.17836">
        <ele>317.8</ele>
        <time>2024-05-18T13:11:11Z</time>
      </trkpt>
      <trkpt lat="45.85467" lon="3.1783">
        <ele>317.8</ele>
        <time>2024-05-18T13:11:12Z</time>
      </trkpt>
      <trkpt lat="45.85462" lon="3.17824">
        <ele>317.8</ele>
        <time>2024-05-18T13:11:13Z</time>
      </trkpt>
      <trkpt lat="45.85456" lon="3.17818">
        <ele>317.8</ele>
        <time>2024-05-18T13:11:14Z</time>
      </trkpt>
      <trkpt lat="45.85451" lon="3.17812">
        <ele>317.8</ele>
        <time>2024-05-18T13:11:15Z</time>
      </trkpt>
      <trkpt lat="45.85445" lon="3.17805">
        <ele>317.8</ele>
        <time>2024-05-18T13:11:16Z</time>
      </trkpt>
      <trkpt lat="45.8544" lon="3.17799">
        <ele>317.8</ele>
        <time>2024-05-18T13:11:17Z</time>
      </trkpt>
      <trkpt lat="45.85434" lon="3.17793">
        <ele>317.8</ele>
        <time>2024-05-18T13:11:18Z</time>
      </trkpt>
      <trkpt lat="45.85429" lon="3.17787">
        <ele>317.8</ele>
        <time>2024-05-18T13:11:19Z</time>
      </trkpt>
      <trkpt lat="45.85423" lon="3.1778">
        <ele>317.8</ele>
        <time>2024-05-18T13:11:20Z</time>
      </trkpt>
      <trkpt lat="45.85417" lon="3.17774">
        <ele>317.8</ele>
        <time>2024-05-18T13:11:21Z</time>
      </trkpt>
      <trkpt lat="45.85412" lon="3.17768">
        <ele>317.8</ele>
        <time>2024-05-18T13:11:22Z</time>
      </trkpt>
      <trkpt lat="45.85406" lon="3.17762">
        <ele>317.8</ele>
        <time>2024-05-18T13:11:23Z</time>
      </trkpt>
      <trkpt lat="45.85401" lon="3.17756">
        <ele>317.8</ele>
        <time>2024-05-18T13:11:24Z</time>
      </trkpt>
      <trkpt lat="45.85396" lon="3.17749">
        <ele>317.8</ele>
        <time>2024-05-18T13:11:25Z</time>
      </trkpt>
      <trkpt lat="45.85392" lon="3.17742">
        <ele>317.8</ele>
        <time>2024-05-18T13:11:26Z</time>
      </trkpt>
      <trkpt lat="45.85387" lon="3.17734">
        <ele>318</ele>
        <time>2024-05-18T13:11:27Z</time>
      </trkpt>
      <trkpt lat="45.85383" lon="3.17726">
        <ele>318</ele>
        <time>2024-05-18T13:11:28Z</time>
      </trkpt>
      <trkpt lat="45.85379" lon="3.17719">
        <ele>318</ele>
        <time>2024-05-18T13:11:29Z</time>
      </trkpt>
      <trkpt lat="45.85375" lon="3.17712">
        <ele>318</ele>
        <time>2024-05-18T13:11:30Z</time>
      </trkpt>
      <trkpt lat="45.85372" lon="3.17706">
        <ele>318</ele>
        <time>2024-05-18T13:11:31Z</time>
      </trkpt>
      <trkpt lat="45.85368" lon="3.17699">
        <ele>318</ele>
        <time>2024-05-18T13:11:32Z</time>
      </trkpt>
      <trkpt lat="45.85366" lon="3.17692">
        <ele>318</ele>
        <time>2024-05-18T13:11:33Z</time>
      </trkpt>
      <trkpt lat="45.85363" lon="3.17684">
        <ele>318</ele>
        <time>2024-05-18T13:11:34Z</time>
      </trkpt>
      <trkpt lat="45.85361" lon="3.17676">
        <ele>318.2</ele>
        <time>2024-05-18T13:11:35Z</time>
      </trkpt>
      <trkpt lat="45.85358" lon="3.17667">
        <ele>318.2</ele>
        <time>2024-05-18T13:11:36Z</time>
      </trkpt>
      <trkpt lat="45.85356" lon="3.17659">
        <ele>318.2</ele>
        <time>2024-05-18T13:11:37Z</time>
      </trkpt>
      <trkpt lat="45.85355" lon="3.17649">
        <ele>318.2</ele>
        <time>2024-05-18T13:11:38Z</time>
      </trkpt>
      <trkpt lat="45.85355" lon="3.1764">
        <ele>318.2</ele>
        <time>2024-05-18T13:11:39Z</time>
      </trkpt>
      <trkpt lat="45.85349" lon="3.17631">
        <ele>318.2</ele>
        <time>2024-05-18T13:11:40Z</time>
      </trkpt>
      <trkpt lat="45.85344" lon="3.17625">
        <ele>318.2</ele>
        <time>2024-05-18T13:11:41Z</time>
      </trkpt>
      <trkpt lat="45.85337" lon="3.17621">
        <ele>318.4</ele>
        <time>2024-05-18T13:11:42Z</time>
      </trkpt>
      <trkpt lat="45.85331" lon="3.17622">
        <ele>318.2</ele>
        <time>2024-05-18T13:11:43Z</time>
      </trkpt>
      <trkpt lat="45.85324" lon="3.17626">
        <ele>318.2</ele>
        <time>2024-05-18T13:11:44Z</time>
      </trkpt>
      <trkpt lat="45.85319" lon="3.17632">
        <ele>318.2</ele>
        <time>2024-05-18T13:11:45Z</time>
      </trkpt>
      <trkpt lat="45.85317" lon="3.1764">
        <ele>318.2</ele>
        <time>2024-05-18T13:11:46Z</time>
      </trkpt>
      <trkpt lat="45.85316" lon="3.1765">
        <ele>318.2</ele>
        <time>2024-05-18T13:11:47Z</time>
      </trkpt>
      <trkpt lat="45.85317" lon="3.17657">
        <ele>318.2</ele>
        <time>2024-05-18T13:11:48Z</time>
      </trkpt>
      <trkpt lat="45.8532" lon="3.17666">
        <ele>318.4</ele>
        <time>2024-05-18T13:11:49Z</time>
      </trkpt>
      <trkpt lat="45.85318" lon="3.17684">
        <ele>318</ele>
        <time>2024-05-18T13:11:50Z</time>
      </trkpt>
      <trkpt lat="45.85314" lon="3.17693">
        <ele>318.2</ele>
        <time>2024-05-18T13:11:51Z</time>
      </trkpt>
      <trkpt lat="45.85308" lon="3.17701">
        <ele>318</ele>
        <time>2024-05-18T13:11:52Z</time>
      </trkpt>
      <trkpt lat="45.85303" lon="3.17708">
        <ele>318</ele>
        <time>2024-05-18T13:11:53Z</time>
      </trkpt>
      <trkpt lat="45.853" lon="3.17716">
        <ele>318</ele>
        <time>2024-05-18T13:11:54Z</time>
      </trkpt>
      <trkpt lat="45.85296" lon="3.17725">
        <ele>317.8</ele>
        <time>2024-05-18T13:11:55Z</time>
      </trkpt>
      <trkpt lat="45.85292" lon="3.17734">
        <ele>317.8</ele>
        <time>2024-05-18T13:11:56Z</time>
      </trkpt>
      <trkpt lat="45.8529" lon="3.17743">
        <ele>318</ele>
        <time>2024-05-18T13:11:57Z</time>
      </trkpt>
      <trkpt lat="45.85288" lon="3.17753">
        <ele>318</ele>
        <time>2024-05-18T13:11:58Z</time>
      </trkpt>
      <trkpt lat="45.85286" lon="3.17763">
        <ele>318</ele>
        <time>2024-05-18T13:11:59Z</time>
      </trkpt>
      <trkpt lat="45.85284" lon="3.17772">
        <ele>318</ele>
        <time>2024-05-18T13:12:00Z</time>
      </trkpt>
      <trkpt lat="45.85282" lon="3.17782">
        <ele>317.8</ele>
        <time>2024-05-18T13:12:01Z</time>
      </trkpt>
      <trkpt lat="45.8528" lon="3.17792">
        <ele>318</ele>
        <time>2024-05-18T13:12:02Z</time>
      </trkpt>
      <trkpt lat="45.85278" lon="3.17801">
        <ele>318</ele>
        <time>2024-05-18T13:12:03Z</time>
      </trkpt>
      <trkpt lat="45.85276" lon="3.1781">
        <ele>318.2</ele>
        <time>2024-05-18T13:12:04Z</time>
      </trkpt>
      <trkpt lat="45.85274" lon="3.1782">
        <ele>318.2</ele>
        <time>2024-05-18T13:12:05Z</time>
      </trkpt>
      <trkpt lat="45.85272" lon="3.17829">
        <ele>318</ele>
        <time>2024-05-18T13:12:06Z</time>
      </trkpt>
      <trkpt lat="45.8527" lon="3.17838">
        <ele>318</ele>
        <time>2024-05-18T13:12:07Z</time>
      </trkpt>
      <trkpt lat="45.85268" lon="3.17848">
        <ele>317.8</ele>
        <time>2024-05-18T13:12:08Z</time>
      </trkpt>
      <trkpt lat="45.85266" lon="3.17857">
        <ele>318</ele>
        <time>2024-05-18T13:12:09Z</time>
      </trkpt>
      <trkpt lat="45.85264" lon="3.17867">
        <ele>318</ele>
        <time>2024-05-18T13:12:10Z</time>
      </trkpt>
      <trkpt lat="45.85262" lon="3.17877">
        <ele>318</ele>
        <time>2024-05-18T13:12:11Z</time>
      </trkpt>
      <trkpt lat="45.8526" lon="3.17886">
        <ele>317.8</ele>
        <time>2024-05-18T13:12:12Z</time>
      </trkpt>
      <trkpt lat="45.85258" lon="3.17896">
        <ele>318</ele>
        <time>2024-05-18T13:12:13Z</time>
      </trkpt>
      <trkpt lat="45.85256" lon="3.17906">
        <ele>318</ele>
        <time>2024-05-18T13:12:14Z</time>
      </trkpt>
      <trkpt lat="45.85254" lon="3.17916">
        <ele>318</ele>
        <time>2024-05-18T13:12:15Z</time>
      </trkpt>
      <trkpt lat="45.85252" lon="3.17926">
        <ele>317.8</ele>
        <time>2024-05-18T13:12:16Z</time>
      </trkpt>
      <trkpt lat="45.85247" lon="3.17935">
        <ele>318</ele>
        <time>2024-05-18T13:12:17Z</time>
      </trkpt>
      <trkpt lat="45.85242" lon="3.17943">
        <ele>318</ele>
        <time>2024-05-18T13:12:18Z</time>
      </trkpt>
      <trkpt lat="45.85236" lon="3.17951">
        <ele>317.8</ele>
        <time>2024-05-18T13:12:19Z</time>
      </trkpt>
      <trkpt lat="45.8523" lon="3.17957">
        <ele>317.8</ele>
        <time>2024-05-18T13:12:20Z</time>
      </trkpt>
      <trkpt lat="45.85224" lon="3.17962">
        <ele>317.8</ele>
        <time>2024-05-18T13:12:21Z</time>
      </trkpt>
      <trkpt lat="45.85218" lon="3.17968">
        <ele>317.8</ele>
        <time>2024-05-18T13:12:22Z</time>
      </trkpt>
      <trkpt lat="45.85212" lon="3.17974">
        <ele>317.8</ele>
        <time>2024-05-18T13:12:23Z</time>
      </trkpt>
      <trkpt lat="45.85206" lon="3.17979">
        <ele>317.8</ele>
        <time>2024-05-18T13:12:24Z</time>
      </trkpt>
      <trkpt lat="45.852" lon="3.17985">
        <ele>317.8</ele>
        <time>2024-05-18T13:12:25Z</time>
      </trkpt>
      <trkpt lat="45.85195" lon="3.1799">
        <ele>317.8</ele>
        <time>2024-05-18T13:12:26Z</time>
      </trkpt>
      <trkpt lat="45.85189" lon="3.17996">
        <ele>317.8</ele>
        <time>2024-05-18T13:12:27Z</time>
      </trkpt>
      <trkpt lat="45.85183" lon="3.18001">
        <ele>317.8</ele>
        <time>2024-05-18T13:12:28Z</time>
      </trkpt>
      <trkpt lat="45.85177" lon="3.18007">
        <ele>317.6</ele>
        <time>2024-05-18T13:12:29Z</time>
      </trkpt>
      <trkpt lat="45.85171" lon="3.18012">
        <ele>317.6</ele>
        <time>2024-05-18T13:12:30Z</time>
      </trkpt>
      <trkpt lat="45.85167" lon="3.18019">
        <ele>317.6</ele>
        <time>2024-05-18T13:12:31Z</time>
      </trkpt>
      <trkpt lat="45.85162" lon="3.18026">
        <ele>317.6</ele>
        <time>2024-05-18T13:12:32Z</time>
      </trkpt>
      <trkpt lat="45.85158" lon="3.18033">
        <ele>317.6</ele>
        <time>2024-05-18T13:12:33Z</time>
      </trkpt>
      <trkpt lat="45.85154" lon="3.18039">
        <ele>317.6</ele>
        <time>2024-05-18T13:12:34Z</time>
      </trkpt>
      <trkpt lat="45.85151" lon="3.18044">
        <ele>317.4</ele>
        <time>2024-05-18T13:12:35Z</time>
      </trkpt>
      <trkpt lat="45.85142" lon="3.18041">
        <ele>317.4</ele>
        <time>2024-05-18T13:12:36Z</time>
      </trkpt>
      <trkpt lat="45.85139" lon="3.18035">
        <ele>317.4</ele>
        <time>2024-05-18T13:12:37Z</time>
      </trkpt>
      <trkpt lat="45.85137" lon="3.18029">
        <ele>317.4</ele>
        <time>2024-05-18T13:12:38Z</time>
      </trkpt>
      <trkpt lat="45.85134" lon="3.18021">
        <ele>317.4</ele>
        <time>2024-05-18T13:12:39Z</time>
      </trkpt>
      <trkpt lat="45.8513" lon="3.18013">
        <ele>317.4</ele>
        <time>2024-05-18T13:12:40Z</time>
      </trkpt>
      <trkpt lat="45.85127" lon="3.18006">
        <ele>317.4</ele>
        <time>2024-05-18T13:12:41Z</time>
      </trkpt>
      <trkpt lat="45.85123" lon="3.17994">
        <ele>317.6</ele>
        <time>2024-05-18T13:12:42Z</time>
      </trkpt>
      <trkpt lat="45.85117" lon="3.17992">
        <ele>317.6</ele>
        <time>2024-05-18T13:12:43Z</time>
      </trkpt>
      <trkpt lat="45.85111" lon="3.1799">
        <ele>317.6</ele>
        <time>2024-05-18T13:12:44Z</time>
      </trkpt>
      <trkpt lat="45.85104" lon="3.17987">
        <ele>317.6</ele>
        <time>2024-05-18T13:12:45Z</time>
      </trkpt>
      <trkpt lat="45.85097" lon="3.17985">
        <ele>317.6</ele>
        <time>2024-05-18T13:12:46Z</time>
      </trkpt>
      <trkpt lat="45.85091" lon="3.17983">
        <ele>317.4</ele>
        <time>2024-05-18T13:12:47Z</time>
      </trkpt>
      <trkpt lat="45.85084" lon="3.1798">
        <ele>317.4</ele>
        <time>2024-05-18T13:12:48Z</time>
      </trkpt>
      <trkpt lat="45.85077" lon="3.17978">
        <ele>317.4</ele>
        <time>2024-05-18T13:12:49Z</time>
      </trkpt>
      <trkpt lat="45.85071" lon="3.17976">
        <ele>317.4</ele>
        <time>2024-05-18T13:12:50Z</time>
      </trkpt>
      <trkpt lat="45.85064" lon="3.17973">
        <ele>317.4</ele>
        <time>2024-05-18T13:12:51Z</time>
      </trkpt>
      <trkpt lat="45.85058" lon="3.17971">
        <ele>317.4</ele>
        <time>2024-05-18T13:12:52Z</time>
      </trkpt>
      <trkpt lat="45.85051" lon="3.1797">
        <ele>317.4</ele>
        <time>2024-05-18T13:12:53Z</time>
      </trkpt>
      <trkpt lat="45.85044" lon="3.1797">
        <ele>317.4</ele>
        <time>2024-05-18T13:12:54Z</time>
      </trkpt>
      <trkpt lat="45.85037" lon="3.17969">
        <ele>317.4</ele>
        <time>2024-05-18T13:12:55Z</time>
      </trkpt>
      <trkpt lat="45.85031" lon="3.17969">
        <ele>317.4</ele>
        <time>2024-05-18T13:12:56Z</time>
      </trkpt>
      <trkpt lat="45.85024" lon="3.17968">
        <ele>317.4</ele>
        <time>2024-05-18T13:12:57Z</time>
      </trkpt>
      <trkpt lat="45.85017" lon="3.17968">
        <ele>317.4</ele>
        <time>2024-05-18T13:12:58Z</time>
      </trkpt>
      <trkpt lat="45.85011" lon="3.17967">
        <ele>317.4</ele>
        <time>2024-05-18T13:12:59Z</time>
      </trkpt>
      <trkpt lat="45.85004" lon="3.17967">
        <ele>317.4</ele>
        <time>2024-05-18T13:13:00Z</time>
      </trkpt>
      <trkpt lat="45.84997" lon="3.17966">
        <ele>317.4</ele>
        <time>2024-05-18T13:13:01Z</time>
      </trkpt>
      <trkpt lat="45.8499" lon="3.17965">
        <ele>317.4</ele>
        <time>2024-05-18T13:13:02Z</time>
      </trkpt>
      <trkpt lat="45.84984" lon="3.17965">
        <ele>317.4</ele>
        <time>2024-05-18T13:13:03Z</time>
      </trkpt>
      <trkpt lat="45.84977" lon="3.17964">
        <ele>317.4</ele>
        <time>2024-05-18T13:13:04Z</time>
      </trkpt>
      <trkpt lat="45.8497" lon="3.17964">
        <ele>317.4</ele>
        <time>2024-05-18T13:13:05Z</time>
      </trkpt>
      <trkpt lat="45.84964" lon="3.17963">
        <ele>317.4</ele>
        <time>2024-05-18T13:13:06Z</time>
      </trkpt>
      <trkpt lat="45.84957" lon="3.17963">
        <ele>317.4</ele>
        <time>2024-05-18T13:13:07Z</time>
      </trkpt>
      <trkpt lat="45.8495" lon="3.17962">
        <ele>317.4</ele>
        <time>2024-05-18T13:13:08Z</time>
      </trkpt>
      <trkpt lat="45.84943" lon="3.17962">
        <ele>317.4</ele>
        <time>2024-05-18T13:13:09Z</time>
      </trkpt>
      <trkpt lat="45.84937" lon="3.17961">
        <ele>317.4</ele>
        <time>2024-05-18T13:13:10Z</time>
      </trkpt>
      <trkpt lat="45.84931" lon="3.17961">
        <ele>317.4</ele>
        <time>2024-05-18T13:13:11Z</time>
      </trkpt>
      <trkpt lat="45.84925" lon="3.1796">
        <ele>317.4</ele>
        <time>2024-05-18T13:13:12Z</time>
      </trkpt>
      <trkpt lat="45.8492" lon="3.1796">
        <ele>317.4</ele>
        <time>2024-05-18T13:13:13Z</time>
      </trkpt>
      <trkpt lat="45.84915" lon="3.1796">
        <ele>317.2</ele>
        <time>2024-05-18T13:13:14Z</time>
      </trkpt>
      <trkpt lat="45.84909" lon="3.1796">
        <ele>317.2</ele>
        <time>2024-05-18T13:13:15Z</time>
      </trkpt>
      <trkpt lat="45.84903" lon="3.1796">
        <ele>317.2</ele>
        <time>2024-05-18T13:13:16Z</time>
      </trkpt>
      <trkpt lat="45.84896" lon="3.1796">
        <ele>317.2</ele>
        <time>2024-05-18T13:13:17Z</time>
      </trkpt>
      <trkpt lat="45.8489" lon="3.1796">
        <ele>317.2</ele>
        <time>2024-05-18T13:13:18Z</time>
      </trkpt>
      <trkpt lat="45.84883" lon="3.17962">
        <ele>317.2</ele>
        <time>2024-05-18T13:13:19Z</time>
      </trkpt>
      <trkpt lat="45.84877" lon="3.17964">
        <ele>317.2</ele>
        <time>2024-05-18T13:13:20Z</time>
      </trkpt>
      <trkpt lat="45.84871" lon="3.17966">
        <ele>317.2</ele>
        <time>2024-05-18T13:13:21Z</time>
      </trkpt>
      <trkpt lat="45.84865" lon="3.17967">
        <ele>317.2</ele>
        <time>2024-05-18T13:13:22Z</time>
      </trkpt>
      <trkpt lat="45.84859" lon="3.17969">
        <ele>317.2</ele>
        <time>2024-05-18T13:13:23Z</time>
      </trkpt>
      <trkpt lat="45.84853" lon="3.17971">
        <ele>317.2</ele>
        <time>2024-05-18T13:13:24Z</time>
      </trkpt>
      <trkpt lat="45.84847" lon="3.17974">
        <ele>317.2</ele>
        <time>2024-05-18T13:13:25Z</time>
      </trkpt>
      <trkpt lat="45.84844" lon="3.17981">
        <ele>317.2</ele>
        <time>2024-05-18T13:13:26Z</time>
      </trkpt>
      <trkpt lat="45.84841" lon="3.17987">
        <ele>317.2</ele>
        <time>2024-05-18T13:13:27Z</time>
      </trkpt>
      <trkpt lat="45.84838" lon="3.17995">
        <ele>317</ele>
        <time>2024-05-18T13:13:28Z</time>
      </trkpt>
      <trkpt lat="45.84836" lon="3.18004">
        <ele>317</ele>
        <time>2024-05-18T13:13:29Z</time>
      </trkpt>
      <trkpt lat="45.84834" lon="3.18012">
        <ele>317.2</ele>
        <time>2024-05-18T13:13:30Z</time>
      </trkpt>
      <trkpt lat="45.84832" lon="3.18021">
        <ele>317</ele>
        <time>2024-05-18T13:13:31Z</time>
      </trkpt>
      <trkpt lat="45.8483" lon="3.18029">
        <ele>317</ele>
        <time>2024-05-18T13:13:32Z</time>
      </trkpt>
      <trkpt lat="45.84828" lon="3.18038">
        <ele>317</ele>
        <time>2024-05-18T13:13:33Z</time>
      </trkpt>
      <trkpt lat="45.84826" lon="3.18046">
        <ele>317</ele>
        <time>2024-05-18T13:13:34Z</time>
      </trkpt>
      <trkpt lat="45.84823" lon="3.18055">
        <ele>317.2</ele>
        <time>2024-05-18T13:13:35Z</time>
      </trkpt>
      <trkpt lat="45.84821" lon="3.18064">
        <ele>317.2</ele>
        <time>2024-05-18T13:13:36Z</time>
      </trkpt>
      <trkpt lat="45.84819" lon="3.18072">
        <ele>317.2</ele>
        <time>2024-05-18T13:13:37Z</time>
      </trkpt>
      <trkpt lat="45.84818" lon="3.18081">
        <ele>317.2</ele>
        <time>2024-05-18T13:13:38Z</time>
      </trkpt>
      <trkpt lat="45.84817" lon="3.1809">
        <ele>317.2</ele>
        <time>2024-05-18T13:13:39Z</time>
      </trkpt>
      <trkpt lat="45.84816" lon="3.18099">
        <ele>317</ele>
        <time>2024-05-18T13:13:40Z</time>
      </trkpt>
      <trkpt lat="45.84815" lon="3.18108">
        <ele>317</ele>
        <time>2024-05-18T13:13:41Z</time>
      </trkpt>
      <trkpt lat="45.84814" lon="3.18118">
        <ele>317</ele>
        <time>2024-05-18T13:13:42Z</time>
      </trkpt>
      <trkpt lat="45.84813" lon="3.18127">
        <ele>317</ele>
        <time>2024-05-18T13:13:43Z</time>
      </trkpt>
      <trkpt lat="45.84812" lon="3.18136">
        <ele>317</ele>
        <time>2024-05-18T13:13:44Z</time>
      </trkpt>
      <trkpt lat="45.84811" lon="3.18145">
        <ele>317</ele>
        <time>2024-05-18T13:13:45Z</time>
      </trkpt>
      <trkpt lat="45.8481" lon="3.18155">
        <ele>317</ele>
        <time>2024-05-18T13:13:46Z</time>
      </trkpt>
      <trkpt lat="45.84809" lon="3.18164">
        <ele>317</ele>
        <time>2024-05-18T13:13:47Z</time>
      </trkpt>
      <trkpt lat="45.84808" lon="3.18173">
        <ele>317</ele>
        <time>2024-05-18T13:13:48Z</time>
      </trkpt>
      <trkpt lat="45.84807" lon="3.18183">
        <ele>317</ele>
        <time>2024-05-18T13:13:49Z</time>
      </trkpt>
      <trkpt lat="45.84806" lon="3.18192">
        <ele>317</ele>
        <time>2024-05-18T13:13:50Z</time>
      </trkpt>
      <trkpt lat="45.84805" lon="3.18201">
        <ele>317</ele>
        <time>2024-05-18T13:13:51Z</time>
      </trkpt>
      <trkpt lat="45.84805" lon="3.18211">
        <ele>317</ele>
        <time>2024-05-18T13:13:52Z</time>
      </trkpt>
      <trkpt lat="45.84805" lon="3.1822">
        <ele>317</ele>
        <time>2024-05-18T13:13:53Z</time>
      </trkpt>
      <trkpt lat="45.84804" lon="3.18229">
        <ele>317</ele>
        <time>2024-05-18T13:13:54Z</time>
      </trkpt>
      <trkpt lat="45.84804" lon="3.18239">
        <ele>317</ele>
        <time>2024-05-18T13:13:55Z</time>
      </trkpt>
      <trkpt lat="45.84804" lon="3.18248">
        <ele>317</ele>
        <time>2024-05-18T13:13:56Z</time>
      </trkpt>
      <trkpt lat="45.84804" lon="3.18258">
        <ele>317</ele>
        <time>2024-05-18T13:13:57Z</time>
      </trkpt>
      <trkpt lat="45.84804" lon="3.18267">
        <ele>317</ele>
        <time>2024-05-18T13:13:58Z</time>
      </trkpt>
      <trkpt lat="45.84803" lon="3.18277">
        <ele>317</ele>
        <time>2024-05-18T13:13:59Z</time>
      </trkpt>
      <trkpt lat="45.84803" lon="3.18286">
        <ele>317</ele>
        <time>2024-05-18T13:14:00Z</time>
      </trkpt>
      <trkpt lat="45.84803" lon="3.18295">
        <ele>317.2</ele>
        <time>2024-05-18T13:14:01Z</time>
      </trkpt>
      <trkpt lat="45.84805" lon="3.18304">
        <ele>317.2</ele>
        <time>2024-05-18T13:14:02Z</time>
      </trkpt>
      <trkpt lat="45.84809" lon="3.18312">
        <ele>317.2</ele>
        <time>2024-05-18T13:14:03Z</time>
      </trkpt>
      <trkpt lat="45.84813" lon="3.1832">
        <ele>317.2</ele>
        <time>2024-05-18T13:14:04Z</time>
      </trkpt>
      <trkpt lat="45.84816" lon="3.18328">
        <ele>317.2</ele>
        <time>2024-05-18T13:14:05Z</time>
      </trkpt>
      <trkpt lat="45.8482" lon="3.18335">
        <ele>317.2</ele>
        <time>2024-05-18T13:14:06Z</time>
      </trkpt>
      <trkpt lat="45.84823" lon="3.18343">
        <ele>317.2</ele>
        <time>2024-05-18T13:14:07Z</time>
      </trkpt>
      <trkpt lat="45.84826" lon="3.1835">
        <ele>317.2</ele>
        <time>2024-05-18T13:14:08Z</time>
      </trkpt>
      <trkpt lat="45.84829" lon="3.18356">
        <ele>317</ele>
        <time>2024-05-18T13:14:09Z</time>
      </trkpt>
      <trkpt lat="45.84832" lon="3.18362">
        <ele>317</ele>
        <time>2024-05-18T13:14:10Z</time>
      </trkpt>
      <trkpt lat="45.84835" lon="3.18367">
        <ele>317.2</ele>
        <time>2024-05-18T13:14:11Z</time>
      </trkpt>
      <trkpt lat="45.84839" lon="3.18374">
        <ele>317</ele>
        <time>2024-05-18T13:14:12Z</time>
      </trkpt>
      <trkpt lat="45.84842" lon="3.18381">
        <ele>317.2</ele>
        <time>2024-05-18T13:14:13Z</time>
      </trkpt>
      <trkpt lat="45.84846" lon="3.18388">
        <ele>317.2</ele>
        <time>2024-05-18T13:14:14Z</time>
      </trkpt>
      <trkpt lat="45.8485" lon="3.18395">
        <ele>317.2</ele>
        <time>2024-05-18T13:14:15Z</time>
      </trkpt>
      <trkpt lat="45.84853" lon="3.18403">
        <ele>317.2</ele>
        <time>2024-05-18T13:14:16Z</time>
      </trkpt>
      <trkpt lat="45.84857" lon="3.1841">
        <ele>317.2</ele>
        <time>2024-05-18T13:14:17Z</time>
      </trkpt>
      <trkpt lat="45.84861" lon="3.18417">
        <ele>317.2</ele>
        <time>2024-05-18T13:14:18Z</time>
      </trkpt>
      <trkpt lat="45.84863" lon="3.18421">
        <ele>317.4</ele>
        <time>2024-05-18T13:14:19Z</time>
      </trkpt>
      <trkpt lat="45.84872" lon="3.1843">
        <ele>317.4</ele>
        <time>2024-05-18T13:14:20Z</time>
      </trkpt>
      <trkpt lat="45.84873" lon="3.18439">
        <ele>317.4</ele>
        <time>2024-05-18T13:14:21Z</time>
      </trkpt>
      <trkpt lat="45.84876" lon="3.18445">
        <ele>317.4</ele>
        <time>2024-05-18T13:14:22Z</time>
      </trkpt>
      <trkpt lat="45.8488" lon="3.18453">
        <ele>317.4</ele>
        <time>2024-05-18T13:14:23Z</time>
      </trkpt>
      <trkpt lat="45.84883" lon="3.18461">
        <ele>317.2</ele>
        <time>2024-05-18T13:14:24Z</time>
      </trkpt>
      <trkpt lat="45.84887" lon="3.18469">
        <ele>317.4</ele>
        <time>2024-05-18T13:14:25Z</time>
      </trkpt>
      <trkpt lat="45.84891" lon="3.18476">
        <ele>317.4</ele>
        <time>2024-05-18T13:14:26Z</time>
      </trkpt>
      <trkpt lat="45.84895" lon="3.18484">
        <ele>317.4</ele>
        <time>2024-05-18T13:14:27Z</time>
      </trkpt>
      <trkpt lat="45.84899" lon="3.18492">
        <ele>317.4</ele>
        <time>2024-05-18T13:14:28Z</time>
      </trkpt>
      <trkpt lat="45.84904" lon="3.18499">
        <ele>317.4</ele>
        <time>2024-05-18T13:14:29Z</time>
      </trkpt>
      <trkpt lat="45.84908" lon="3.18506">
        <ele>317.4</ele>
        <time>2024-05-18T13:14:30Z</time>
      </trkpt>
      <trkpt lat="45.84912" lon="3.18513">
        <ele>317.4</ele>
        <time>2024-05-18T13:14:31Z</time>
      </trkpt>
      <trkpt lat="45.84917" lon="3.18521">
        <ele>317.4</ele>
        <time>2024-05-18T13:14:32Z</time>
      </trkpt>
      <trkpt lat="45.84921" lon="3.18528">
        <ele>317.4</ele>
        <time>2024-05-18T13:14:33Z</time>
      </trkpt>
      <trkpt lat="45.84925" lon="3.18535">
        <ele>317.4</ele>
        <time>2024-05-18T13:14:34Z</time>
      </trkpt>
      <trkpt lat="45.8493" lon="3.18541">
        <ele>317.4</ele>
        <time>2024-05-18T13:14:35Z</time>
      </trkpt>
      <trkpt lat="45.84935" lon="3.18547">
        <ele>317.4</ele>
        <time>2024-05-18T13:14:36Z</time>
      </trkpt>
      <trkpt lat="45.8494" lon="3.18553">
        <ele>317.4</ele>
        <time>2024-05-18T13:14:37Z</time>
      </trkpt>
      <trkpt lat="45.84944" lon="3.18559">
        <ele>317.4</ele>
        <time>2024-05-18T13:14:38Z</time>
      </trkpt>
      <trkpt lat="45.84949" lon="3.18565">
        <ele>317.6</ele>
        <time>2024-05-18T13:14:39Z</time>
      </trkpt>
      <trkpt lat="45.84954" lon="3.18572">
        <ele>317.6</ele>
        <time>2024-05-18T13:14:40Z</time>
      </trkpt>
      <trkpt lat="45.84959" lon="3.18575">
        <ele>317.6</ele>
        <time>2024-05-18T13:14:41Z</time>
      </trkpt>
      <trkpt lat="45.84964" lon="3.18578">
        <ele>317.4</ele>
        <time>2024-05-18T13:14:42Z</time>
      </trkpt>
      <trkpt lat="45.84968" lon="3.18573">
        <ele>317.6</ele>
        <time>2024-05-18T13:14:43Z</time>
      </trkpt>
      <trkpt lat="45.84972" lon="3.18567">
        <ele>317.6</ele>
        <time>2024-05-18T13:14:44Z</time>
      </trkpt>
      <trkpt lat="45.84972" lon="3.18561">
        <ele>317.6</ele>
        <time>2024-05-18T13:14:45Z</time>
      </trkpt>
      <trkpt lat="45.84972" lon="3.18552">
        <ele>317.6</ele>
        <time>2024-05-18T13:14:46Z</time>
      </trkpt>
      <trkpt lat="45.84972" lon="3.18544">
        <ele>317.6</ele>
        <time>2024-05-18T13:14:47Z</time>
      </trkpt>
      <trkpt lat="45.84972" lon="3.18535">
        <ele>317.6</ele>
        <time>2024-05-18T13:14:48Z</time>
      </trkpt>
      <trkpt lat="45.84972" lon="3.18526">
        <ele>317.6</ele>
        <time>2024-05-18T13:14:49Z</time>
      </trkpt>
      <trkpt lat="45.84971" lon="3.18516">
        <ele>317.6</ele>
        <time>2024-05-18T13:14:50Z</time>
      </trkpt>
      <trkpt lat="45.84971" lon="3.18507">
        <ele>317.6</ele>
        <time>2024-05-18T13:14:51Z</time>
      </trkpt>
      <trkpt lat="45.84971" lon="3.18497">
        <ele>317.6</ele>
        <time>2024-05-18T13:14:52Z</time>
      </trkpt>
      <trkpt lat="45.84971" lon="3.18488">
        <ele>317.8</ele>
        <time>2024-05-18T13:14:53Z</time>
      </trkpt>
      <trkpt lat="45.84971" lon="3.18479">
        <ele>317.6</ele>
        <time>2024-05-18T13:14:54Z</time>
      </trkpt>
      <trkpt lat="45.8497" lon="3.1847">
        <ele>317.6</ele>
        <time>2024-05-18T13:14:55Z</time>
      </trkpt>
      <trkpt lat="45.84973" lon="3.18459">
        <ele>317.8</ele>
        <time>2024-05-18T13:14:56Z</time>
      </trkpt>
      <trkpt lat="45.84977" lon="3.18453">
        <ele>317.6</ele>
        <time>2024-05-18T13:14:57Z</time>
      </trkpt>
      <trkpt lat="45.8498" lon="3.18446">
        <ele>317.6</ele>
        <time>2024-05-18T13:14:58Z</time>
      </trkpt>
      <trkpt lat="45.84984" lon="3.18439">
        <ele>317.8</ele>
        <time>2024-05-18T13:14:59Z</time>
      </trkpt>
      <trkpt lat="45.84988" lon="3.18432">
        <ele>317.6</ele>
        <time>2024-05-18T13:15:00Z</time>
      </trkpt>
      <trkpt lat="45.84993" lon="3.18426">
        <ele>317.6</ele>
        <time>2024-05-18T13:15:01Z</time>
      </trkpt>
      <trkpt lat="45.84997" lon="3.1842">
        <ele>317.8</ele>
        <time>2024-05-18T13:15:02Z</time>
      </trkpt>
      <trkpt lat="45.85002" lon="3.18414">
        <ele>317.8</ele>
        <time>2024-05-18T13:15:03Z</time>
      </trkpt>
      <trkpt lat="45.85007" lon="3.18408">
        <ele>317.8</ele>
        <time>2024-05-18T13:15:04Z</time>
      </trkpt>
      <trkpt lat="45.85012" lon="3.18402">
        <ele>317.8</ele>
        <time>2024-05-18T13:15:05Z</time>
      </trkpt>
      <trkpt lat="45.85017" lon="3.18397">
        <ele>317.8</ele>
        <time>2024-05-18T13:15:06Z</time>
      </trkpt>
      <trkpt lat="45.85022" lon="3.18391">
        <ele>317.8</ele>
        <time>2024-05-18T13:15:07Z</time>
      </trkpt>
      <trkpt lat="45.85027" lon="3.18385">
        <ele>317.8</ele>
        <time>2024-05-18T13:15:08Z</time>
      </trkpt>
      <trkpt lat="45.85032" lon="3.18379">
        <ele>317.8</ele>
        <time>2024-05-18T13:15:09Z</time>
      </trkpt>
      <trkpt lat="45.85037" lon="3.18373">
        <ele>317.8</ele>
        <time>2024-05-18T13:15:10Z</time>
      </trkpt>
      <trkpt lat="45.85042" lon="3.18367">
        <ele>318</ele>
        <time>2024-05-18T13:15:11Z</time>
      </trkpt>
      <trkpt lat="45.85047" lon="3.1836">
        <ele>318</ele>
        <time>2024-05-18T13:15:12Z</time>
      </trkpt>
      <trkpt lat="45.85052" lon="3.18355">
        <ele>318</ele>
        <time>2024-05-18T13:15:13Z</time>
      </trkpt>
      <trkpt lat="45.85056" lon="3.18349">
        <ele>318</ele>
        <time>2024-05-18T13:15:14Z</time>
      </trkpt>
      <trkpt lat="45.85061" lon="3.18343">
        <ele>318</ele>
        <time>2024-05-18T13:15:15Z</time>
      </trkpt>
      <trkpt lat="45.85066" lon="3.18337">
        <ele>318</ele>
        <time>2024-05-18T13:15:16Z</time>
      </trkpt>
      <trkpt lat="45.85071" lon="3.18331">
        <ele>318</ele>
        <time>2024-05-18T13:15:17Z</time>
      </trkpt>
      <trkpt lat="45.85076" lon="3.18324">
        <ele>318</ele>
        <time>2024-05-18T13:15:18Z</time>
      </trkpt>
      <trkpt lat="45.8508" lon="3.18318">
        <ele>318</ele>
        <time>2024-05-18T13:15:19Z</time>
      </trkpt>
      <trkpt lat="45.85085" lon="3.18312">
        <ele>318</ele>
        <time>2024-05-18T13:15:20Z</time>
      </trkpt>
      <trkpt lat="45.8509" lon="3.18305">
        <ele>318.2</ele>
        <time>2024-05-18T13:15:21Z</time>
      </trkpt>
      <trkpt lat="45.85094" lon="3.18299">
        <ele>318.2</ele>
        <time>2024-05-18T13:15:22Z</time>
      </trkpt>
      <trkpt lat="45.85099" lon="3.18292">
        <ele>318.2</ele>
        <time>2024-05-18T13:15:23Z</time>
      </trkpt>
      <trkpt lat="45.85104" lon="3.18285">
        <ele>318.2</ele>
        <time>2024-05-18T13:15:24Z</time>
      </trkpt>
      <trkpt lat="45.85109" lon="3.18279">
        <ele>318.2</ele>
        <time>2024-05-18T13:15:25Z</time>
      </trkpt>
      <trkpt lat="45.85113" lon="3.18272">
        <ele>318.2</ele>
        <time>2024-05-18T13:15:26Z</time>
      </trkpt>
      <trkpt lat="45.85117" lon="3.18265">
        <ele>318.2</ele>
        <time>2024-05-18T13:15:27Z</time>
      </trkpt>
      <trkpt lat="45.8512" lon="3.18257">
        <ele>318.2</ele>
        <time>2024-05-18T13:15:28Z</time>
      </trkpt>
      <trkpt lat="45.85123" lon="3.1825">
        <ele>318.2</ele>
        <time>2024-05-18T13:15:29Z</time>
      </trkpt>
      <trkpt lat="45.85127" lon="3.18243">
        <ele>318</ele>
        <time>2024-05-18T13:15:30Z</time>
      </trkpt>
      <trkpt lat="45.8513" lon="3.18235">
        <ele>318.2</ele>
        <time>2024-05-18T13:15:31Z</time>
      </trkpt>
      <trkpt lat="45.85133" lon="3.18227">
        <ele>318.2</ele>
        <time>2024-05-18T13:15:32Z</time>
      </trkpt>
      <trkpt lat="45.85137" lon="3.1822">
        <ele>318.2</ele>
        <time>2024-05-18T13:15:33Z</time>
      </trkpt>
      <trkpt lat="45.8514" lon="3.18213">
        <ele>318.2</ele>
        <time>2024-05-18T13:15:34Z</time>
      </trkpt>
      <trkpt lat="45.85143" lon="3.18205">
        <ele>318.2</ele>
        <time>2024-05-18T13:15:35Z</time>
      </trkpt>
      <trkpt lat="45.85146" lon="3.18198">
        <ele>318.2</ele>
        <time>2024-05-18T13:15:36Z</time>
      </trkpt>
      <trkpt lat="45.85149" lon="3.1819">
        <ele>318.2</ele>
        <time>2024-05-18T13:15:37Z</time>
      </trkpt>
      <trkpt lat="45.85152" lon="3.18183">
        <ele>318.2</ele>
        <time>2024-05-18T13:15:38Z</time>
      </trkpt>
      <trkpt lat="45.85155" lon="3.18176">
        <ele>318.2</ele>
        <time>2024-05-18T13:15:39Z</time>
      </trkpt>
      <trkpt lat="45.85158" lon="3.1817">
        <ele>318.2</ele>
        <time>2024-05-18T13:15:40Z</time>
      </trkpt>
      <trkpt lat="45.8516" lon="3.18163">
        <ele>318.2</ele>
        <time>2024-05-18T13:15:41Z</time>
      </trkpt>
      <trkpt lat="45.85163" lon="3.18157">
        <ele>318</ele>
        <time>2024-05-18T13:15:42Z</time>
      </trkpt>
      <trkpt lat="45.85165" lon="3.18152">
        <ele>318</ele>
        <time>2024-05-18T13:15:43Z</time>
      </trkpt>
      <trkpt lat="45.85167" lon="3.18147">
        <ele>318.2</ele>
        <time>2024-05-18T13:15:44Z</time>
      </trkpt>
      <trkpt lat="45.85175" lon="3.18144">
        <ele>318</ele>
        <time>2024-05-18T13:15:45Z</time>
      </trkpt>
      <trkpt lat="45.85179" lon="3.18146">
        <ele>318</ele>
        <time>2024-05-18T13:15:46Z</time>
      </trkpt>
      <trkpt lat="45.85183" lon="3.18149">
        <ele>318</ele>
        <time>2024-05-18T13:15:47Z</time>
      </trkpt>
      <trkpt lat="45.85188" lon="3.18153">
        <ele>317.8</ele>
        <time>2024-05-18T13:15:48Z</time>
      </trkpt>
      <trkpt lat="45.85193" lon="3.18156">
        <ele>317.8</ele>
        <time>2024-05-18T13:15:49Z</time>
      </trkpt>
      <trkpt lat="45.85199" lon="3.1816">
        <ele>317.8</ele>
        <time>2024-05-18T13:15:50Z</time>
      </trkpt>
      <trkpt lat="45.85205" lon="3.18164">
        <ele>317.8</ele>
        <time>2024-05-18T13:15:51Z</time>
      </trkpt>
      <trkpt lat="45.8521" lon="3.18168">
        <ele>317.8</ele>
        <time>2024-05-18T13:15:52Z</time>
      </trkpt>
      <trkpt lat="45.85216" lon="3.18172">
        <ele>317.8</ele>
        <time>2024-05-18T13:15:53Z</time>
      </trkpt>
      <trkpt lat="45.85221" lon="3.18176">
        <ele>317.8</ele>
        <time>2024-05-18T13:15:54Z</time>
      </trkpt>
      <trkpt lat="45.85227" lon="3.1818">
        <ele>317.8</ele>
        <time>2024-05-18T13:15:55Z</time>
      </trkpt>
      <trkpt lat="45.85233" lon="3.18184">
        <ele>317.8</ele>
        <time>2024-05-18T13:15:56Z</time>
      </trkpt>
      <trkpt lat="45.85239" lon="3.18188">
        <ele>317.8</ele>
        <time>2024-05-18T13:15:57Z</time>
      </trkpt>
      <trkpt lat="45.85245" lon="3.18192">
        <ele>317.8</ele>
        <time>2024-05-18T13:15:58Z</time>
      </trkpt>
      <trkpt lat="45.85251" lon="3.18196">
        <ele>317.8</ele>
        <time>2024-05-18T13:15:59Z</time>
      </trkpt>
      <trkpt lat="45.85256" lon="3.182">
        <ele>317.8</ele>
        <time>2024-05-18T13:16:00Z</time>
      </trkpt>
      <trkpt lat="45.85262" lon="3.18204">
        <ele>317.8</ele>
        <time>2024-05-18T13:16:01Z</time>
      </trkpt>
      <trkpt lat="45.85268" lon="3.18208">
        <ele>317.8</ele>
        <time>2024-05-18T13:16:02Z</time>
      </trkpt>
      <trkpt lat="45.85274" lon="3.18213">
        <ele>317.8</ele>
        <time>2024-05-18T13:16:03Z</time>
      </trkpt>
      <trkpt lat="45.8528" lon="3.18217">
        <ele>317.8</ele>
        <time>2024-05-18T13:16:04Z</time>
      </trkpt>
      <trkpt lat="45.85286" lon="3.18221">
        <ele>317.8</ele>
        <time>2024-05-18T13:16:05Z</time>
      </trkpt>
      <trkpt lat="45.85292" lon="3.18225">
        <ele>317.8</ele>
        <time>2024-05-18T13:16:06Z</time>
      </trkpt>
      <trkpt lat="45.85297" lon="3.1823">
        <ele>318</ele>
        <time>2024-05-18T13:16:07Z</time>
      </trkpt>
      <trkpt lat="45.85303" lon="3.18234">
        <ele>318</ele>
        <time>2024-05-18T13:16:08Z</time>
      </trkpt>
      <trkpt lat="45.85308" lon="3.18239">
        <ele>318</ele>
        <time>2024-05-18T13:16:09Z</time>
      </trkpt>
      <trkpt lat="45.85314" lon="3.18244">
        <ele>318.2</ele>
        <time>2024-05-18T13:16:10Z</time>
      </trkpt>
      <trkpt lat="45.8532" lon="3.18248">
        <ele>318</ele>
        <time>2024-05-18T13:16:11Z</time>
      </trkpt>
      <trkpt lat="45.85325" lon="3.18253">
        <ele>318</ele>
        <time>2024-05-18T13:16:12Z</time>
      </trkpt>
      <trkpt lat="45.85331" lon="3.18258">
        <ele>318.2</ele>
        <time>2024-05-18T13:16:13Z</time>
      </trkpt>
      <trkpt lat="45.85337" lon="3.18263">
        <ele>318</ele>
        <time>2024-05-18T13:16:14Z</time>
      </trkpt>
      <trkpt lat="45.85343" lon="3.18267">
        <ele>318</ele>
        <time>2024-05-18T13:16:15Z</time>
      </trkpt>
      <trkpt lat="45.85349" lon="3.18272">
        <ele>318</ele>
        <time>2024-05-18T13:16:16Z</time>
      </trkpt>
      <trkpt lat="45.85355" lon="3.18278">
        <ele>318</ele>
        <time>2024-05-18T13:16:17Z</time>
      </trkpt>
      <trkpt lat="45.8536" lon="3.18284">
        <ele>318</ele>
        <time>2024-05-18T13:16:18Z</time>
      </trkpt>
      <trkpt lat="45.85365" lon="3.1829">
        <ele>318</ele>
        <time>2024-05-18T13:16:19Z</time>
      </trkpt>
      <trkpt lat="45.8537" lon="3.18296">
        <ele>318</ele>
        <time>2024-05-18T13:16:20Z</time>
      </trkpt>
      <trkpt lat="45.85376" lon="3.18302">
        <ele>318</ele>
        <time>2024-05-18T13:16:21Z</time>
      </trkpt>
      <trkpt lat="45.85381" lon="3.18308">
        <ele>318</ele>
        <time>2024-05-18T13:16:22Z</time>
      </trkpt>
      <trkpt lat="45.85386" lon="3.18315">
        <ele>318</ele>
        <time>2024-05-18T13:16:23Z</time>
      </trkpt>
      <trkpt lat="45.85391" lon="3.18321">
        <ele>318</ele>
        <time>2024-05-18T13:16:24Z</time>
      </trkpt>
      <trkpt lat="45.85396" lon="3.18328">
        <ele>317.8</ele>
        <time>2024-05-18T13:16:25Z</time>
      </trkpt>
      <trkpt lat="45.85401" lon="3.18335">
        <ele>318</ele>
        <time>2024-05-18T13:16:26Z</time>
      </trkpt>
      <trkpt lat="45.85405" lon="3.18342">
        <ele>318</ele>
        <time>2024-05-18T13:16:27Z</time>
      </trkpt>
      <trkpt lat="45.8541" lon="3.18349">
        <ele>317.8</ele>
        <time>2024-05-18T13:16:28Z</time>
      </trkpt>
      <trkpt lat="45.85414" lon="3.18355">
        <ele>318</ele>
        <time>2024-05-18T13:16:29Z</time>
      </trkpt>
      <trkpt lat="45.85419" lon="3.18362">
        <ele>318</ele>
        <time>2024-05-18T13:16:30Z</time>
      </trkpt>
      <trkpt lat="45.85424" lon="3.18369">
        <ele>318</ele>
        <time>2024-05-18T13:16:31Z</time>
      </trkpt>
      <trkpt lat="45.85428" lon="3.18376">
        <ele>318</ele>
        <time>2024-05-18T13:16:32Z</time>
      </trkpt>
      <trkpt lat="45.85433" lon="3.18383">
        <ele>318</ele>
        <time>2024-05-18T13:16:33Z</time>
      </trkpt>
      <trkpt lat="45.85437" lon="3.18389">
        <ele>318</ele>
        <time>2024-05-18T13:16:34Z</time>
      </trkpt>
      <trkpt lat="45.85442" lon="3.18396">
        <ele>318</ele>
        <time>2024-05-18T13:16:35Z</time>
      </trkpt>
      <trkpt lat="45.85446" lon="3.18403">
        <ele>318</ele>
        <time>2024-05-18T13:16:36Z</time>
      </trkpt>
      <trkpt lat="45.85451" lon="3.18409">
        <ele>318</ele>
        <time>2024-05-18T13:16:37Z</time>
      </trkpt>
      <trkpt lat="45.85455" lon="3.18416">
        <ele>318</ele>
        <time>2024-05-18T13:16:38Z</time>
      </trkpt>
      <trkpt lat="45.8546" lon="3.18423">
        <ele>318.2</ele>
        <time>2024-05-18T13:16:39Z</time>
      </trkpt>
      <trkpt lat="45.85464" lon="3.18429">
        <ele>318</ele>
        <time>2024-05-18T13:16:40Z</time>
      </trkpt>
      <trkpt lat="45.85469" lon="3.18435">
        <ele>318</ele>
        <time>2024-05-18T13:16:41Z</time>
      </trkpt>
      <trkpt lat="45.85474" lon="3.1844">
        <ele>318</ele>
        <time>2024-05-18T13:16:42Z</time>
      </trkpt>
      <trkpt lat="45.8548" lon="3.18446">
        <ele>318</ele>
        <time>2024-05-18T13:16:43Z</time>
      </trkpt>
      <trkpt lat="45.85485" lon="3.18451">
        <ele>318</ele>
        <time>2024-05-18T13:16:44Z</time>
      </trkpt>
      <trkpt lat="45.85491" lon="3.18457">
        <ele>318.2</ele>
        <time>2024-05-18T13:16:45Z</time>
      </trkpt>
      <trkpt lat="45.85496" lon="3.18462">
        <ele>318</ele>
        <time>2024-05-18T13:16:46Z</time>
      </trkpt>
      <trkpt lat="45.85501" lon="3.18467">
        <ele>318</ele>
        <time>2024-05-18T13:16:47Z</time>
      </trkpt>
      <trkpt lat="45.85507" lon="3.18473">
        <ele>318</ele>
        <time>2024-05-18T13:16:48Z</time>
      </trkpt>
      <trkpt lat="45.85512" lon="3.18478">
        <ele>318</ele>
        <time>2024-05-18T13:16:49Z</time>
      </trkpt>
      <trkpt lat="45.85518" lon="3.18484">
        <ele>318</ele>
        <time>2024-05-18T13:16:50Z</time>
      </trkpt>
      <trkpt lat="45.85523" lon="3.18489">
        <ele>318</ele>
        <time>2024-05-18T13:16:51Z</time>
      </trkpt>
      <trkpt lat="45.85529" lon="3.18494">
        <ele>318</ele>
        <time>2024-05-18T13:16:52Z</time>
      </trkpt>
      <trkpt lat="45.85534" lon="3.185">
        <ele>318</ele>
        <time>2024-05-18T13:16:53Z</time>
      </trkpt>
      <trkpt lat="45.85539" lon="3.18505">
        <ele>318</ele>
        <time>2024-05-18T13:16:54Z</time>
      </trkpt>
      <trkpt lat="45.85544" lon="3.1851">
        <ele>318</ele>
        <time>2024-05-18T13:16:55Z</time>
      </trkpt>
      <trkpt lat="45.8555" lon="3.18516">
        <ele>318</ele>
        <time>2024-05-18T13:16:56Z</time>
      </trkpt>
      <trkpt lat="45.85555" lon="3.18521">
        <ele>318</ele>
        <time>2024-05-18T13:16:57Z</time>
      </trkpt>
      <trkpt lat="45.85561" lon="3.18527">
        <ele>318</ele>
        <time>2024-05-18T13:16:58Z</time>
      </trkpt>
      <trkpt lat="45.85566" lon="3.18532">
        <ele>318</ele>
        <time>2024-05-18T13:16:59Z</time>
      </trkpt>
      <trkpt lat="45.85572" lon="3.18538">
        <ele>318</ele>
        <time>2024-05-18T13:17:00Z</time>
      </trkpt>
      <trkpt lat="45.85577" lon="3.18543">
        <ele>318</ele>
        <time>2024-05-18T13:17:01Z</time>
      </trkpt>
      <trkpt lat="45.85583" lon="3.18549">
        <ele>318</ele>
        <time>2024-05-18T13:17:02Z</time>
      </trkpt>
      <trkpt lat="45.8559" lon="3.18552">
        <ele>317.8</ele>
        <time>2024-05-18T13:17:03Z</time>
      </trkpt>
      <trkpt lat="45.85596" lon="3.18554">
        <ele>317.8</ele>
        <time>2024-05-18T13:17:04Z</time>
      </trkpt>
      <trkpt lat="45.85603" lon="3.18556">
        <ele>317.8</ele>
        <time>2024-05-18T13:17:05Z</time>
      </trkpt>
      <trkpt lat="45.85609" lon="3.18558">
        <ele>317.8</ele>
        <time>2024-05-18T13:17:06Z</time>
      </trkpt>
      <trkpt lat="45.85616" lon="3.1856">
        <ele>317.8</ele>
        <time>2024-05-18T13:17:07Z</time>
      </trkpt>
      <trkpt lat="45.85623" lon="3.18562">
        <ele>317.8</ele>
        <time>2024-05-18T13:17:08Z</time>
      </trkpt>
      <trkpt lat="45.85629" lon="3.18564">
        <ele>317.8</ele>
        <time>2024-05-18T13:17:09Z</time>
      </trkpt>
      <trkpt lat="45.85636" lon="3.18566">
        <ele>318</ele>
        <time>2024-05-18T13:17:10Z</time>
      </trkpt>
      <trkpt lat="45.85644" lon="3.18568">
        <ele>318</ele>
        <time>2024-05-18T13:17:11Z</time>
      </trkpt>
      <trkpt lat="45.85651" lon="3.1857">
        <ele>318</ele>
        <time>2024-05-18T13:17:12Z</time>
      </trkpt>
      <trkpt lat="45.85657" lon="3.18572">
        <ele>317.8</ele>
        <time>2024-05-18T13:17:13Z</time>
      </trkpt>
      <trkpt lat="45.85664" lon="3.18574">
        <ele>318</ele>
        <time>2024-05-18T13:17:14Z</time>
      </trkpt>
      <trkpt lat="45.85671" lon="3.18577">
        <ele>318</ele>
        <time>2024-05-18T13:17:15Z</time>
      </trkpt>
      <trkpt lat="45.85678" lon="3.18579">
        <ele>318</ele>
        <time>2024-05-18T13:17:16Z</time>
      </trkpt>
      <trkpt lat="45.85685" lon="3.18581">
        <ele>318</ele>
        <time>2024-05-18T13:17:17Z</time>
      </trkpt>
      <trkpt lat="45.85692" lon="3.18583">
        <ele>318</ele>
        <time>2024-05-18T13:17:18Z</time>
      </trkpt>
      <trkpt lat="45.85699" lon="3.18585">
        <ele>318</ele>
        <time>2024-05-18T13:17:19Z</time>
      </trkpt>
      <trkpt lat="45.85706" lon="3.18587">
        <ele>318</ele>
        <time>2024-05-18T13:17:20Z</time>
      </trkpt>
      <trkpt lat="45.85713" lon="3.18589">
        <ele>318</ele>
        <time>2024-05-18T13:17:21Z</time>
      </trkpt>
      <trkpt lat="45.8572" lon="3.18592">
        <ele>318</ele>
        <time>2024-05-18T13:17:22Z</time>
      </trkpt>
      <trkpt lat="45.85728" lon="3.18594">
        <ele>318</ele>
        <time>2024-05-18T13:17:23Z</time>
      </trkpt>
      <trkpt lat="45.85735" lon="3.18596">
        <ele>317.8</ele>
        <time>2024-05-18T13:17:24Z</time>
      </trkpt>
      <trkpt lat="45.85743" lon="3.18599">
        <ele>318</ele>
        <time>2024-05-18T13:17:25Z</time>
      </trkpt>
      <trkpt lat="45.8575" lon="3.18602">
        <ele>317.8</ele>
        <time>2024-05-18T13:17:26Z</time>
      </trkpt>
      <trkpt lat="45.85757" lon="3.18606">
        <ele>317.8</ele>
        <time>2024-05-18T13:17:27Z</time>
      </trkpt>
      <trkpt lat="45.85764" lon="3.18609">
        <ele>317.8</ele>
        <time>2024-05-18T13:17:28Z</time>
      </trkpt>
      <trkpt lat="45.85771" lon="3.18613">
        <ele>317.8</ele>
        <time>2024-05-18T13:17:29Z</time>
      </trkpt>
      <trkpt lat="45.85778" lon="3.18616">
        <ele>317.8</ele>
        <time>2024-05-18T13:17:30Z</time>
      </trkpt>
      <trkpt lat="45.85785" lon="3.1862">
        <ele>318</ele>
        <time>2024-05-18T13:17:31Z</time>
      </trkpt>
      <trkpt lat="45.85792" lon="3.18623">
        <ele>318</ele>
        <time>2024-05-18T13:17:32Z</time>
      </trkpt>
      <trkpt lat="45.85798" lon="3.18627">
        <ele>317.8</ele>
        <time>2024-05-18T13:17:33Z</time>
      </trkpt>
      <trkpt lat="45.85805" lon="3.1863">
        <ele>317.8</ele>
        <time>2024-05-18T13:17:34Z</time>
      </trkpt>
      <trkpt lat="45.85811" lon="3.18633">
        <ele>317.8</ele>
        <time>2024-05-18T13:17:35Z</time>
      </trkpt>
      <trkpt lat="45.85818" lon="3.18637">
        <ele>318</ele>
        <time>2024-05-18T13:17:36Z</time>
      </trkpt>
      <trkpt lat="45.85824" lon="3.1864">
        <ele>318</ele>
        <time>2024-05-18T13:17:37Z</time>
      </trkpt>
      <trkpt lat="45.8583" lon="3.18643">
        <ele>318</ele>
        <time>2024-05-18T13:17:38Z</time>
      </trkpt>
      <trkpt lat="45.85837" lon="3.18646">
        <ele>318</ele>
        <time>2024-05-18T13:17:39Z</time>
      </trkpt>
      <trkpt lat="45.85843" lon="3.18649">
        <ele>318</ele>
        <time>2024-05-18T13:17:40Z</time>
      </trkpt>
      <trkpt lat="45.85848" lon="3.18652">
        <ele>318</ele>
        <time>2024-05-18T13:17:41Z</time>
      </trkpt>
      <trkpt lat="45.85854" lon="3.18655">
        <ele>318</ele>
        <time>2024-05-18T13:17:42Z</time>
      </trkpt>
      <trkpt lat="45.85859" lon="3.18658">
        <ele>318</ele>
        <time>2024-05-18T13:17:43Z</time>
      </trkpt>
      <trkpt lat="45.85865" lon="3.18661">
        <ele>318</ele>
        <time>2024-05-18T13:17:44Z</time>
      </trkpt>
      <trkpt lat="45.8587" lon="3.18664">
        <ele>317.8</ele>
        <time>2024-05-18T13:17:45Z</time>
      </trkpt>
      <trkpt lat="45.85876" lon="3.18667">
        <ele>317.8</ele>
        <time>2024-05-18T13:17:46Z</time>
      </trkpt>
      <trkpt lat="45.85881" lon="3.18669">
        <ele>317.8</ele>
        <time>2024-05-18T13:17:47Z</time>
      </trkpt>
      <trkpt lat="45.85886" lon="3.18672">
        <ele>317.8</ele>
        <time>2024-05-18T13:17:48Z</time>
      </trkpt>
      <trkpt lat="45.85891" lon="3.18675">
        <ele>317.8</ele>
        <time>2024-05-18T13:17:49Z</time>
      </trkpt>
      <trkpt lat="45.85896" lon="3.18677">
        <ele>317.8</ele>
        <time>2024-05-18T13:17:50Z</time>
      </trkpt>
      <trkpt lat="45.85901" lon="3.1868">
        <ele>317.8</ele>
        <time>2024-05-18T13:17:51Z</time>
      </trkpt>
      <trkpt lat="45.85906" lon="3.18682">
        <ele>317.8</ele>
        <time>2024-05-18T13:17:52Z</time>
      </trkpt>
      <trkpt lat="45.8591" lon="3.18685">
        <ele>317.8</ele>
        <time>2024-05-18T13:17:53Z</time>
      </trkpt>
      <trkpt lat="45.85914" lon="3.18687">
        <ele>317.8</ele>
        <time>2024-05-18T13:17:54Z</time>
      </trkpt>
      <trkpt lat="45.85918" lon="3.18689">
        <ele>317.8</ele>
        <time>2024-05-18T13:17:55Z</time>
      </trkpt>
      <trkpt lat="45.85921" lon="3.18691">
        <ele>317.8</ele>
        <time>2024-05-18T13:17:56Z</time>
      </trkpt>
      <trkpt lat="45.85922" lon="3.18692">
        <ele>317.8</ele>
        <time>2024-05-18T13:17:57Z</time>
      </trkpt>
      <trkpt lat="45.85923" lon="3.18692">
        <ele>317.8</ele>
        <time>2024-05-18T13:17:58Z</time>
      </trkpt>
      <trkpt lat="45.85923" lon="3.18692">
        <ele>317.8</ele>
        <time>2024-05-18T13:17:59Z</time>
      </trkpt>
      <trkpt lat="45.85923" lon="3.18692">
        <ele>317.8</ele>
        <time>2024-05-18T13:18:00Z</time>
      </trkpt>
      <trkpt lat="45.85929" lon="3.18695">
        <ele>317.6</ele>
        <time>2024-05-18T13:18:15Z</time>
      </trkpt>
      <trkpt lat="45.85931" lon="3.18687">
        <ele>317.6</ele>
        <time>2024-05-18T13:18:16Z</time>
      </trkpt>
      <trkpt lat="45.85929" lon="3.18683">
        <ele>317.6</ele>
        <time>2024-05-18T13:18:17Z</time>
      </trkpt>
      <trkpt lat="45.85928" lon="3.18678">
        <ele>317.6</ele>
        <time>2024-05-18T13:18:18Z</time>
      </trkpt>
      <trkpt lat="45.85926" lon="3.18672">
        <ele>317.6</ele>
        <time>2024-05-18T13:18:19Z</time>
      </trkpt>
      <trkpt lat="45.85924" lon="3.18665">
        <ele>317.6</ele>
        <time>2024-05-18T13:18:20Z</time>
      </trkpt>
      <trkpt lat="45.85922" lon="3.18658">
        <ele>317.6</ele>
        <time>2024-05-18T13:18:21Z</time>
      </trkpt>
      <trkpt lat="45.8592" lon="3.18651">
        <ele>317.6</ele>
        <time>2024-05-18T13:18:22Z</time>
      </trkpt>
      <trkpt lat="45.85917" lon="3.18642">
        <ele>317.6</ele>
        <time>2024-05-18T13:18:23Z</time>
      </trkpt>
      <trkpt lat="45.85914" lon="3.18634">
        <ele>317.6</ele>
        <time>2024-05-18T13:18:24Z</time>
      </trkpt>
      <trkpt lat="45.85911" lon="3.18626">
        <ele>317.6</ele>
        <time>2024-05-18T13:18:25Z</time>
      </trkpt>
      <trkpt lat="45.85908" lon="3.18618">
        <ele>317.6</ele>
        <time>2024-05-18T13:18:26Z</time>
      </trkpt>
      <trkpt lat="45.85905" lon="3.18609">
        <ele>317.6</ele>
        <time>2024-05-18T13:18:27Z</time>
      </trkpt>
      <trkpt lat="45.85901" lon="3.18601">
        <ele>317.6</ele>
        <time>2024-05-18T13:18:28Z</time>
      </trkpt>
      <trkpt lat="45.85898" lon="3.18593">
        <ele>317.8</ele>
        <time>2024-05-18T13:18:29Z</time>
      </trkpt>
      <trkpt lat="45.85895" lon="3.18584">
        <ele>317.8</ele>
        <time>2024-05-18T13:18:30Z</time>
      </trkpt>
      <trkpt lat="45.85892" lon="3.18576">
        <ele>317.8</ele>
        <time>2024-05-18T13:18:31Z</time>
      </trkpt>
      <trkpt lat="45.85889" lon="3.18567">
        <ele>317.8</ele>
        <time>2024-05-18T13:18:32Z</time>
      </trkpt>
      <trkpt lat="45.85885" lon="3.18559">
        <ele>317.8</ele>
        <time>2024-05-18T13:18:33Z</time>
      </trkpt>
      <trkpt lat="45.85882" lon="3.1855">
        <ele>317.8</ele>
        <time>2024-05-18T13:18:34Z</time>
      </trkpt>
      <trkpt lat="45.85879" lon="3.18542">
        <ele>317.8</ele>
        <time>2024-05-18T13:18:35Z</time>
      </trkpt>
      <trkpt lat="45.85876" lon="3.18533">
        <ele>317.8</ele>
        <time>2024-05-18T13:18:36Z</time>
      </trkpt>
      <trkpt lat="45.85873" lon="3.18524">
        <ele>317.8</ele>
        <time>2024-05-18T13:18:37Z</time>
      </trkpt>
      <trkpt lat="45.85869" lon="3.18515">
        <ele>317.8</ele>
        <time>2024-05-18T13:18:38Z</time>
      </trkpt>
      <trkpt lat="45.85866" lon="3.18507">
        <ele>318</ele>
        <time>2024-05-18T13:18:39Z</time>
      </trkpt>
      <trkpt lat="45.85863" lon="3.18498">
        <ele>318</ele>
        <time>2024-05-18T13:18:40Z</time>
      </trkpt>
      <trkpt lat="45.85859" lon="3.1849">
        <ele>318</ele>
        <time>2024-05-18T13:18:41Z</time>
      </trkpt>
      <trkpt lat="45.85855" lon="3.18482">
        <ele>318</ele>
        <time>2024-05-18T13:18:42Z</time>
      </trkpt>
      <trkpt lat="45.85851" lon="3.18474">
        <ele>318</ele>
        <time>2024-05-18T13:18:43Z</time>
      </trkpt>
      <trkpt lat="45.85847" lon="3.18466">
        <ele>318</ele>
        <time>2024-05-18T13:18:44Z</time>
      </trkpt>
      <trkpt lat="45.85843" lon="3.18458">
        <ele>318</ele>
        <time>2024-05-18T13:18:45Z</time>
      </trkpt>
      <trkpt lat="45.85839" lon="3.1845">
        <ele>318</ele>
        <time>2024-05-18T13:18:46Z</time>
      </trkpt>
      <trkpt lat="45.85834" lon="3.18441">
        <ele>318</ele>
        <time>2024-05-18T13:18:47Z</time>
      </trkpt>
      <trkpt lat="45.8583" lon="3.18433">
        <ele>318</ele>
        <time>2024-05-18T13:18:48Z</time>
      </trkpt>
      <trkpt lat="45.85826" lon="3.18424">
        <ele>318.2</ele>
        <time>2024-05-18T13:18:49Z</time>
      </trkpt>
      <trkpt lat="45.85821" lon="3.18415">
        <ele>318.2</ele>
        <time>2024-05-18T13:18:50Z</time>
      </trkpt>
      <trkpt lat="45.85817" lon="3.18407">
        <ele>318.2</ele>
        <time>2024-05-18T13:18:51Z</time>
      </trkpt>
      <trkpt lat="45.85813" lon="3.18399">
        <ele>318.2</ele>
        <time>2024-05-18T13:18:52Z</time>
      </trkpt>
      <trkpt lat="45.85809" lon="3.1839">
        <ele>318</ele>
        <time>2024-05-18T13:18:53Z</time>
      </trkpt>
      <trkpt lat="45.85804" lon="3.18382">
        <ele>318</ele>
        <time>2024-05-18T13:18:54Z</time>
      </trkpt>
      <trkpt lat="45.858" lon="3.18374">
        <ele>318</ele>
        <time>2024-05-18T13:18:55Z</time>
      </trkpt>
      <trkpt lat="45.85795" lon="3.18366">
        <ele>318</ele>
        <time>2024-05-18T13:18:56Z</time>
      </trkpt>
      <trkpt lat="45.85791" lon="3.18358">
        <ele>318</ele>
        <time>2024-05-18T13:18:57Z</time>
      </trkpt>
      <trkpt lat="45.85786" lon="3.18351">
        <ele>318</ele>
        <time>2024-05-18T13:18:58Z</time>
      </trkpt>
      <trkpt lat="45.85781" lon="3.18343">
        <ele>318</ele>
        <time>2024-05-18T13:18:59Z</time>
      </trkpt>
      <trkpt lat="45.85777" lon="3.18335">
        <ele>318</ele>
        <time>2024-05-18T13:19:00Z</time>
      </trkpt>
      <trkpt lat="45.85772" lon="3.18327">
        <ele>318</ele>
        <time>2024-05-18T13:19:01Z</time>
      </trkpt>
      <trkpt lat="45.85768" lon="3.1832">
        <ele>318</ele>
        <time>2024-05-18T13:19:02Z</time>
      </trkpt>
      <trkpt lat="45.85764" lon="3.18312">
        <ele>318.2</ele>
        <time>2024-05-18T13:19:03Z</time>
      </trkpt>
      <trkpt lat="45.85759" lon="3.18304">
        <ele>318.2</ele>
        <time>2024-05-18T13:19:04Z</time>
      </trkpt>
      <trkpt lat="45.85755" lon="3.18297">
        <ele>318.2</ele>
        <time>2024-05-18T13:19:05Z</time>
      </trkpt>
      <trkpt lat="45.8575" lon="3.18289">
        <ele>318.2</ele>
        <time>2024-05-18T13:19:06Z</time>
      </trkpt>
      <trkpt lat="45.85746" lon="3.18282">
        <ele>318.2</ele>
        <time>2024-05-18T13:19:07Z</time>
      </trkpt>
      <trkpt lat="45.85741" lon="3.18274">
        <ele>318.2</ele>
        <time>2024-05-18T13:19:08Z</time>
      </trkpt>
      <trkpt lat="45.85737" lon="3.18266">
        <ele>318.2</ele>
        <time>2024-05-18T13:19:09Z</time>
      </trkpt>
      <trkpt lat="45.85733" lon="3.18259">
        <ele>318.2</ele>
        <time>2024-05-18T13:19:10Z</time>
      </trkpt>
      <trkpt lat="45.85728" lon="3.18251">
        <ele>318.2</ele>
        <time>2024-05-18T13:19:11Z</time>
      </trkpt>
      <trkpt lat="45.85724" lon="3.18244">
        <ele>318.2</ele>
        <time>2024-05-18T13:19:12Z</time>
      </trkpt>
      <trkpt lat="45.85719" lon="3.18236">
        <ele>318.2</ele>
        <time>2024-05-18T13:19:13Z</time>
      </trkpt>
      <trkpt lat="45.85715" lon="3.18228">
        <ele>318.2</ele>
        <time>2024-05-18T13:19:14Z</time>
      </trkpt>
      <trkpt lat="45.8571" lon="3.18221">
        <ele>318.2</ele>
        <time>2024-05-18T13:19:15Z</time>
      </trkpt>
      <trkpt lat="45.85706" lon="3.18213">
        <ele>318.2</ele>
        <time>2024-05-18T13:19:16Z</time>
      </trkpt>
      <trkpt lat="45.85701" lon="3.18205">
        <ele>318.2</ele>
        <time>2024-05-18T13:19:17Z</time>
      </trkpt>
      <trkpt lat="45.85697" lon="3.18197">
        <ele>318.2</ele>
        <time>2024-05-18T13:19:18Z</time>
      </trkpt>
      <trkpt lat="45.85692" lon="3.18189">
        <ele>318.2</ele>
        <time>2024-05-18T13:19:19Z</time>
      </trkpt>
      <trkpt lat="45.85687" lon="3.18181">
        <ele>318.2</ele>
        <time>2024-05-18T13:19:20Z</time>
      </trkpt>
      <trkpt lat="45.85682" lon="3.18173">
        <ele>318.2</ele>
        <time>2024-05-18T13:19:21Z</time>
      </trkpt>
      <trkpt lat="45.85678" lon="3.18165">
        <ele>318.2</ele>
        <time>2024-05-18T13:19:22Z</time>
      </trkpt>
      <trkpt lat="45.85673" lon="3.18156">
        <ele>318.2</ele>
        <time>2024-05-18T13:19:23Z</time>
      </trkpt>
      <trkpt lat="45.85668" lon="3.18148">
        <ele>318.2</ele>
        <time>2024-05-18T13:19:24Z</time>
      </trkpt>
      <trkpt lat="45.85663" lon="3.1814">
        <ele>318.2</ele>
        <time>2024-05-18T13:19:25Z</time>
      </trkpt>
      <trkpt lat="45.85659" lon="3.18132">
        <ele>318.4</ele>
        <time>2024-05-18T13:19:26Z</time>
      </trkpt>
      <trkpt lat="45.85654" lon="3.18124">
        <ele>318.2</ele>
        <time>2024-05-18T13:19:27Z</time>
      </trkpt>
      <trkpt lat="45.85649" lon="3.18116">
        <ele>318.2</ele>
        <time>2024-05-18T13:19:28Z</time>
      </trkpt>
      <trkpt lat="45.85645" lon="3.18108">
        <ele>318.2</ele>
        <time>2024-05-18T13:19:29Z</time>
      </trkpt>
      <trkpt lat="45.8564" lon="3.181">
        <ele>318.4</ele>
        <time>2024-05-18T13:19:30Z</time>
      </trkpt>
      <trkpt lat="45.85635" lon="3.18092">
        <ele>318.4</ele>
        <time>2024-05-18T13:19:31Z</time>
      </trkpt>
      <trkpt lat="45.85631" lon="3.18084">
        <ele>318.4</ele>
        <time>2024-05-18T13:19:32Z</time>
      </trkpt>
      <trkpt lat="45.85626" lon="3.18076">
        <ele>318.4</ele>
        <time>2024-05-18T13:19:33Z</time>
      </trkpt>
      <trkpt lat="45.85622" lon="3.18068">
        <ele>318.4</ele>
        <time>2024-05-18T13:19:34Z</time>
      </trkpt>
      <trkpt lat="45.85617" lon="3.1806">
        <ele>318.4</ele>
        <time>2024-05-18T13:19:35Z</time>
      </trkpt>
      <trkpt lat="45.85612" lon="3.18052">
        <ele>318.4</ele>
        <time>2024-05-18T13:19:36Z</time>
      </trkpt>
      <trkpt lat="45.85608" lon="3.18044">
        <ele>318.4</ele>
        <time>2024-05-18T13:19:37Z</time>
      </trkpt>
      <trkpt lat="45.85603" lon="3.18036">
        <ele>318.4</ele>
        <time>2024-05-18T13:19:38Z</time>
      </trkpt>
      <trkpt lat="45.85598" lon="3.18028">
        <ele>318.2</ele>
        <time>2024-05-18T13:19:39Z</time>
      </trkpt>
      <trkpt lat="45.85593" lon="3.1802">
        <ele>318.2</ele>
        <time>2024-05-18T13:19:40Z</time>
      </trkpt>
      <trkpt lat="45.85589" lon="3.18012">
        <ele>318.2</ele>
        <time>2024-05-18T13:19:41Z</time>
      </trkpt>
      <trkpt lat="45.85584" lon="3.18004">
        <ele>318.2</ele>
        <time>2024-05-18T13:19:42Z</time>
      </trkpt>
      <trkpt lat="45.85579" lon="3.17996">
        <ele>318.4</ele>
        <time>2024-05-18T13:19:43Z</time>
      </trkpt>
      <trkpt lat="45.85575" lon="3.17988">
        <ele>318.4</ele>
        <time>2024-05-18T13:19:44Z</time>
      </trkpt>
      <trkpt lat="45.8557" lon="3.1798">
        <ele>318.4</ele>
        <time>2024-05-18T13:19:45Z</time>
      </trkpt>
      <trkpt lat="45.85566" lon="3.17972">
        <ele>318.4</ele>
        <time>2024-05-18T13:19:46Z</time>
      </trkpt>
      <trkpt lat="45.85561" lon="3.17964">
        <ele>318.2</ele>
        <time>2024-05-18T13:19:47Z</time>
      </trkpt>
      <trkpt lat="45.85556" lon="3.17956">
        <ele>318.2</ele>
        <time>2024-05-18T13:19:48Z</time>
      </trkpt>
      <trkpt lat="45.85552" lon="3.17949">
        <ele>318.2</ele>
        <time>2024-05-18T13:19:49Z</time>
      </trkpt>
      <trkpt lat="45.85548" lon="3.17941">
        <ele>318.2</ele>
        <time>2024-05-18T13:19:50Z</time>
      </trkpt>
      <trkpt lat="45.85543" lon="3.17934">
        <ele>318.2</ele>
        <time>2024-05-18T13:19:51Z</time>
      </trkpt>
      <trkpt lat="45.85539" lon="3.17926">
        <ele>318.2</ele>
        <time>2024-05-18T13:19:52Z</time>
      </trkpt>
      <trkpt lat="45.85534" lon="3.17918">
        <ele>318.2</ele>
        <time>2024-05-18T13:19:53Z</time>
      </trkpt>
      <trkpt lat="45.8553" lon="3.1791">
        <ele>318.2</ele>
        <time>2024-05-18T13:19:54Z</time>
      </trkpt>
      <trkpt lat="45.85525" lon="3.17903">
        <ele>318.2</ele>
        <time>2024-05-18T13:19:55Z</time>
      </trkpt>
      <trkpt lat="45.8552" lon="3.17896">
        <ele>318.2</ele>
        <time>2024-05-18T13:19:56Z</time>
      </trkpt>
      <trkpt lat="45.85515" lon="3.1789">
        <ele>318.2</ele>
        <time>2024-05-18T13:19:57Z</time>
      </trkpt>
      <trkpt lat="45.85509" lon="3.17883">
        <ele>318.2</ele>
        <time>2024-05-18T13:19:58Z</time>
      </trkpt>
      <trkpt lat="45.85504" lon="3.17876">
        <ele>318.2</ele>
        <time>2024-05-18T13:19:59Z</time>
      </trkpt>
      <trkpt lat="45.85499" lon="3.1787">
        <ele>318.2</ele>
        <time>2024-05-18T13:20:00Z</time>
      </trkpt>
      <trkpt lat="45.85494" lon="3.17863">
        <ele>318.2</ele>
        <time>2024-05-18T13:20:01Z</time>
      </trkpt>
      <trkpt lat="45.85489" lon="3.17856">
        <ele>318.2</ele>
        <time>2024-05-18T13:20:02Z</time>
      </trkpt>
      <trkpt lat="45.85484" lon="3.1785">
        <ele>318.2</ele>
        <time>2024-05-18T13:20:03Z</time>
      </trkpt>
      <trkpt lat="45.85479" lon="3.17844">
        <ele>318.2</ele>
        <time>2024-05-18T13:20:04Z</time>
      </trkpt>
      <trkpt lat="45.85473" lon="3.17837">
        <ele>318.2</ele>
        <time>2024-05-18T13:20:05Z</time>
      </trkpt>
      <trkpt lat="45.85468" lon="3.17831">
        <ele>318.2</ele>
        <time>2024-05-18T13:20:06Z</time>
      </trkpt>
      <trkpt lat="45.85463" lon="3.17825">
        <ele>318.2</ele>
        <time>2024-05-18T13:20:07Z</time>
      </trkpt>
      <trkpt lat="45.85458" lon="3.17819">
        <ele>318.2</ele>
        <time>2024-05-18T13:20:08Z</time>
      </trkpt>
      <trkpt lat="45.85452" lon="3.17813">
        <ele>318.2</ele>
        <time>2024-05-18T13:20:09Z</time>
      </trkpt>
      <trkpt lat="45.85447" lon="3.17807">
        <ele>318.2</ele>
        <time>2024-05-18T13:20:10Z</time>
      </trkpt>
      <trkpt lat="45.85441" lon="3.17801">
        <ele>318.2</ele>
        <time>2024-05-18T13:20:11Z</time>
      </trkpt>
      <trkpt lat="45.85436" lon="3.17795">
        <ele>318.2</ele>
        <time>2024-05-18T13:20:12Z</time>
      </trkpt>
      <trkpt lat="45.85431" lon="3.17789">
        <ele>318.2</ele>
        <time>2024-05-18T13:20:13Z</time>
      </trkpt>
      <trkpt lat="45.85425" lon="3.17783">
        <ele>318.2</ele>
        <time>2024-05-18T13:20:14Z</time>
      </trkpt>
      <trkpt lat="45.8542" lon="3.17777">
        <ele>318.2</ele>
        <time>2024-05-18T13:20:15Z</time>
      </trkpt>
      <trkpt lat="45.85414" lon="3.1777">
        <ele>318</ele>
        <time>2024-05-18T13:20:16Z</time>
      </trkpt>
      <trkpt lat="45.85408" lon="3.17764">
        <ele>318.2</ele>
        <time>2024-05-18T13:20:17Z</time>
      </trkpt>
      <trkpt lat="45.85403" lon="3.17758">
        <ele>318</ele>
        <time>2024-05-18T13:20:18Z</time>
      </trkpt>
      <trkpt lat="45.85398" lon="3.17752">
        <ele>318.2</ele>
        <time>2024-05-18T13:20:19Z</time>
      </trkpt>
      <trkpt lat="45.85393" lon="3.17744">
        <ele>318.2</ele>
        <time>2024-05-18T13:20:20Z</time>
      </trkpt>
      <trkpt lat="45.85389" lon="3.17736">
        <ele>318.2</ele>
        <time>2024-05-18T13:20:21Z</time>
      </trkpt>
      <trkpt lat="45.85384" lon="3.17728">
        <ele>318.2</ele>
        <time>2024-05-18T13:20:22Z</time>
      </trkpt>
      <trkpt lat="45.8538" lon="3.1772">
        <ele>318.2</ele>
        <time>2024-05-18T13:20:23Z</time>
      </trkpt>
      <trkpt lat="45.85375" lon="3.17712">
        <ele>318.2</ele>
        <time>2024-05-18T13:20:24Z</time>
      </trkpt>
      <trkpt lat="45.85371" lon="3.17704">
        <ele>318.2</ele>
        <time>2024-05-18T13:20:25Z</time>
      </trkpt>
      <trkpt lat="45.85367" lon="3.17697">
        <ele>318.2</ele>
        <time>2024-05-18T13:20:26Z</time>
      </trkpt>
      <trkpt lat="45.85364" lon="3.17687">
        <ele>318.2</ele>
        <time>2024-05-18T13:20:27Z</time>
      </trkpt>
      <trkpt lat="45.85361" lon="3.17678">
        <ele>318.2</ele>
        <time>2024-05-18T13:20:28Z</time>
      </trkpt>
      <trkpt lat="45.85359" lon="3.17669">
        <ele>318.2</ele>
        <time>2024-05-18T13:20:29Z</time>
      </trkpt>
      <trkpt lat="45.85356" lon="3.17661">
        <ele>318.2</ele>
        <time>2024-05-18T13:20:30Z</time>
      </trkpt>
      <trkpt lat="45.85356" lon="3.17651">
        <ele>318.4</ele>
        <time>2024-05-18T13:20:31Z</time>
      </trkpt>
      <trkpt lat="45.85355" lon="3.17642">
        <ele>318.4</ele>
        <time>2024-05-18T13:20:32Z</time>
      </trkpt>
      <trkpt lat="45.8535" lon="3.17632">
        <ele>318.4</ele>
        <time>2024-05-18T13:20:33Z</time>
      </trkpt>
      <trkpt lat="45.85345" lon="3.17626">
        <ele>318.4</ele>
        <time>2024-05-18T13:20:34Z</time>
      </trkpt>
      <trkpt lat="45.85338" lon="3.17621">
        <ele>318.4</ele>
        <time>2024-05-18T13:20:35Z</time>
      </trkpt>
      <trkpt lat="45.85331" lon="3.17622">
        <ele>318.4</ele>
        <time>2024-05-18T13:20:36Z</time>
      </trkpt>
      <trkpt lat="45.85324" lon="3.17623">
        <ele>318.4</ele>
        <time>2024-05-18T13:20:37Z</time>
      </trkpt>
      <trkpt lat="45.85317" lon="3.17625">
        <ele>318.4</ele>
        <time>2024-05-18T13:20:38Z</time>
      </trkpt>
      <trkpt lat="45.8531" lon="3.17626">
        <ele>318.4</ele>
        <time>2024-05-18T13:20:39Z</time>
      </trkpt>
      <trkpt lat="45.85303" lon="3.17626">
        <ele>318.4</ele>
        <time>2024-05-18T13:20:40Z</time>
      </trkpt>
      <trkpt lat="45.85296" lon="3.17623">
        <ele>318.4</ele>
        <time>2024-05-18T13:20:41Z</time>
      </trkpt>
      <trkpt lat="45.85289" lon="3.17618">
        <ele>318.4</ele>
        <time>2024-05-18T13:20:42Z</time>
      </trkpt>
      <trkpt lat="45.85282" lon="3.17612">
        <ele>318.4</ele>
        <time>2024-05-18T13:20:43Z</time>
      </trkpt>
      <trkpt lat="45.85276" lon="3.17606">
        <ele>318.2</ele>
        <time>2024-05-18T13:20:44Z</time>
      </trkpt>
      <trkpt lat="45.8527" lon="3.176">
        <ele>318.2</ele>
        <time>2024-05-18T13:20:45Z</time>
      </trkpt>
      <trkpt lat="45.85264" lon="3.17595">
        <ele>318</ele>
        <time>2024-05-18T13:20:46Z</time>
      </trkpt>
      <trkpt lat="45.85258" lon="3.17589">
        <ele>318</ele>
        <time>2024-05-18T13:20:47Z</time>
      </trkpt>
      <trkpt lat="45.85252" lon="3.17584">
        <ele>318</ele>
        <time>2024-05-18T13:20:48Z</time>
      </trkpt>
      <trkpt lat="45.85252" lon="3.17584">
        <ele>318.2</ele>
        <time>2024-05-18T13:20:49Z</time>
      </trkpt>
      <trkpt lat="45.8524" lon="3.17571">
        <ele>318.4</ele>
        <time>2024-05-18T13:20:50Z</time>
      </trkpt>
      <trkpt lat="45.85236" lon="3.17563">
        <ele>318.4</ele>
        <time>2024-05-18T13:20:51Z</time>
      </trkpt>
      <trkpt lat="45.85231" lon="3.17555">
        <ele>318.4</ele>
        <time>2024-05-18T13:20:52Z</time>
      </trkpt>
      <trkpt lat="45.85227" lon="3.17547">
        <ele>318.4</ele>
        <time>2024-05-18T13:20:53Z</time>
      </trkpt>
      <trkpt lat="45.85222" lon="3.17539">
        <ele>318.4</ele>
        <time>2024-05-18T13:20:54Z</time>
      </trkpt>
      <trkpt lat="45.85218" lon="3.17531">
        <ele>318.4</ele>
        <time>2024-05-18T13:20:55Z</time>
      </trkpt>
      <trkpt lat="45.85213" lon="3.17524">
        <ele>318.4</ele>
        <time>2024-05-18T13:20:56Z</time>
      </trkpt>
      <trkpt lat="45.85209" lon="3.17516">
        <ele>318.4</ele>
        <time>2024-05-18T13:20:57Z</time>
      </trkpt>
      <trkpt lat="45.85204" lon="3.17508">
        <ele>318.4</ele>
        <time>2024-05-18T13:20:58Z</time>
      </trkpt>
      <trkpt lat="45.852" lon="3.175">
        <ele>318.2</ele>
        <time>2024-05-18T13:20:59Z</time>
      </trkpt>
      <trkpt lat="45.85195" lon="3.17492">
        <ele>318.2</ele>
        <time>2024-05-18T13:21:00Z</time>
      </trkpt>
      <trkpt lat="45.85191" lon="3.17484">
        <ele>318.2</ele>
        <time>2024-05-18T13:21:01Z</time>
      </trkpt>
      <trkpt lat="45.85186" lon="3.17476">
        <ele>318.2</ele>
        <time>2024-05-18T13:21:02Z</time>
      </trkpt>
      <trkpt lat="45.85182" lon="3.17468">
        <ele>318.2</ele>
        <time>2024-05-18T13:21:03Z</time>
      </trkpt>
      <trkpt lat="45.85177" lon="3.1746">
        <ele>318.2</ele>
        <time>2024-05-18T13:21:04Z</time>
      </trkpt>
      <trkpt lat="45.85172" lon="3.17452">
        <ele>318.2</ele>
        <time>2024-05-18T13:21:05Z</time>
      </trkpt>
      <trkpt lat="45.85168" lon="3.17444">
        <ele>318.2</ele>
        <time>2024-05-18T13:21:06Z</time>
      </trkpt>
      <trkpt lat="45.85163" lon="3.17436">
        <ele>318.4</ele>
        <time>2024-05-18T13:21:07Z</time>
      </trkpt>
      <trkpt lat="45.85159" lon="3.17428">
        <ele>318.4</ele>
        <time>2024-05-18T13:21:08Z</time>
      </trkpt>
      <trkpt lat="45.85154" lon="3.1742">
        <ele>318.4</ele>
        <time>2024-05-18T13:21:09Z</time>
      </trkpt>
      <trkpt lat="45.8515" lon="3.17412">
        <ele>318.4</ele>
        <time>2024-05-18T13:21:10Z</time>
      </trkpt>
      <trkpt lat="45.85145" lon="3.17404">
        <ele>318.4</ele>
        <time>2024-05-18T13:21:11Z</time>
      </trkpt>
      <trkpt lat="45.85141" lon="3.17396">
        <ele>318.2</ele>
        <time>2024-05-18T13:21:12Z</time>
      </trkpt>
      <trkpt lat="45.85136" lon="3.17388">
        <ele>318.2</ele>
        <time>2024-05-18T13:21:13Z</time>
      </trkpt>
      <trkpt lat="45.85132" lon="3.1738">
        <ele>318.2</ele>
        <time>2024-05-18T13:21:14Z</time>
      </trkpt>
      <trkpt lat="45.85127" lon="3.17372">
        <ele>318.2</ele>
        <time>2024-05-18T13:21:15Z</time>
      </trkpt>
      <trkpt lat="45.85123" lon="3.17365">
        <ele>318.4</ele>
        <time>2024-05-18T13:21:16Z</time>
      </trkpt>
      <trkpt lat="45.85118" lon="3.17357">
        <ele>318.4</ele>
        <time>2024-05-18T13:21:17Z</time>
      </trkpt>
      <trkpt lat="45.85114" lon="3.17349">
        <ele>318.4</ele>
        <time>2024-05-18T13:21:18Z</time>
      </trkpt>
      <trkpt lat="45.8511" lon="3.17341">
        <ele>318.4</ele>
        <time>2024-05-18T13:21:19Z</time>
      </trkpt>
      <trkpt lat="45.85105" lon="3.17334">
        <ele>318.4</ele>
        <time>2024-05-18T13:21:20Z</time>
      </trkpt>
      <trkpt lat="45.85101" lon="3.17326">
        <ele>318.4</ele>
        <time>2024-05-18T13:21:21Z</time>
      </trkpt>
      <trkpt lat="45.85097" lon="3.17318">
        <ele>318.4</ele>
        <time>2024-05-18T13:21:22Z</time>
      </trkpt>
      <trkpt lat="45.85092" lon="3.17311">
        <ele>318.4</ele>
        <time>2024-05-18T13:21:23Z</time>
      </trkpt>
      <trkpt lat="45.85088" lon="3.17303">
        <ele>318.4</ele>
        <time>2024-05-18T13:21:24Z</time>
      </trkpt>
      <trkpt lat="45.85083" lon="3.17295">
        <ele>318.4</ele>
        <time>2024-05-18T13:21:25Z</time>
      </trkpt>
      <trkpt lat="45.85078" lon="3.17288">
        <ele>318.4</ele>
        <time>2024-05-18T13:21:26Z</time>
      </trkpt>
      <trkpt lat="45.85073" lon="3.17282">
        <ele>318.4</ele>
        <time>2024-05-18T13:21:27Z</time>
      </trkpt>
      <trkpt lat="45.85068" lon="3.17275">
        <ele>318.4</ele>
        <time>2024-05-18T13:21:28Z</time>
      </trkpt>
      <trkpt lat="45.85062" lon="3.17268">
        <ele>318.4</ele>
        <time>2024-05-18T13:21:29Z</time>
      </trkpt>
      <trkpt lat="45.85056" lon="3.17262">
        <ele>318.4</ele>
        <time>2024-05-18T13:21:30Z</time>
      </trkpt>
      <trkpt lat="45.85051" lon="3.17255">
        <ele>318.4</ele>
        <time>2024-05-18T13:21:31Z</time>
      </trkpt>
      <trkpt lat="45.85045" lon="3.17248">
        <ele>318.4</ele>
        <time>2024-05-18T13:21:32Z</time>
      </trkpt>
      <trkpt lat="45.8504" lon="3.17241">
        <ele>318.4</ele>
        <time>2024-05-18T13:21:33Z</time>
      </trkpt>
      <trkpt lat="45.85034" lon="3.17234">
        <ele>318.6</ele>
        <time>2024-05-18T13:21:34Z</time>
      </trkpt>
      <trkpt lat="45.85028" lon="3.17227">
        <ele>318.4</ele>
        <time>2024-05-18T13:21:35Z</time>
      </trkpt>
      <trkpt lat="45.85023" lon="3.1722">
        <ele>318.4</ele>
        <time>2024-05-18T13:21:36Z</time>
      </trkpt>
      <trkpt lat="45.85017" lon="3.17214">
        <ele>318.4</ele>
        <time>2024-05-18T13:21:37Z</time>
      </trkpt>
      <trkpt lat="45.85011" lon="3.17207">
        <ele>318.4</ele>
        <time>2024-05-18T13:21:38Z</time>
      </trkpt>
      <trkpt lat="45.85006" lon="3.172">
        <ele>318.4</ele>
        <time>2024-05-18T13:21:39Z</time>
      </trkpt>
      <trkpt lat="45.85" lon="3.17193">
        <ele>318.4</ele>
        <time>2024-05-18T13:21:40Z</time>
      </trkpt>
      <trkpt lat="45.84994" lon="3.17186">
        <ele>318.4</ele>
        <time>2024-05-18T13:21:41Z</time>
      </trkpt>
      <trkpt lat="45.84989" lon="3.17179">
        <ele>318.4</ele>
        <time>2024-05-18T13:21:42Z</time>
      </trkpt>
      <trkpt lat="45.84983" lon="3.17173">
        <ele>318.4</ele>
        <time>2024-05-18T13:21:43Z</time>
      </trkpt>
      <trkpt lat="45.84978" lon="3.17166">
        <ele>318.4</ele>
        <time>2024-05-18T13:21:44Z</time>
      </trkpt>
      <trkpt lat="45.84972" lon="3.1716">
        <ele>318.6</ele>
        <time>2024-05-18T13:21:45Z</time>
      </trkpt>
      <trkpt lat="45.84967" lon="3.17153">
        <ele>318.4</ele>
        <time>2024-05-18T13:21:46Z</time>
      </trkpt>
      <trkpt lat="45.84961" lon="3.17146">
        <ele>318.4</ele>
        <time>2024-05-18T13:21:47Z</time>
      </trkpt>
      <trkpt lat="45.84956" lon="3.1714">
        <ele>318.6</ele>
        <time>2024-05-18T13:21:48Z</time>
      </trkpt>
      <trkpt lat="45.8495" lon="3.17133">
        <ele>318.6</ele>
        <time>2024-05-18T13:21:49Z</time>
      </trkpt>
      <trkpt lat="45.84945" lon="3.17126">
        <ele>318.6</ele>
        <time>2024-05-18T13:21:50Z</time>
      </trkpt>
      <trkpt lat="45.84939" lon="3.1712">
        <ele>318.6</ele>
        <time>2024-05-18T13:21:51Z</time>
      </trkpt>
      <trkpt lat="45.84934" lon="3.17113">
        <ele>318.6</ele>
        <time>2024-05-18T13:21:52Z</time>
      </trkpt>
      <trkpt lat="45.84928" lon="3.17106">
        <ele>318.6</ele>
        <time>2024-05-18T13:21:53Z</time>
      </trkpt>
      <trkpt lat="45.84923" lon="3.17099">
        <ele>318.6</ele>
        <time>2024-05-18T13:21:54Z</time>
      </trkpt>
      <trkpt lat="45.84917" lon="3.17093">
        <ele>318.6</ele>
        <time>2024-05-18T13:21:55Z</time>
      </trkpt>
      <trkpt lat="45.84912" lon="3.17086">
        <ele>318.8</ele>
        <time>2024-05-18T13:21:56Z</time>
      </trkpt>
      <trkpt lat="45.84907" lon="3.1708">
        <ele>318.6</ele>
        <time>2024-05-18T13:21:57Z</time>
      </trkpt>
      <trkpt lat="45.84901" lon="3.17073">
        <ele>318.8</ele>
        <time>2024-05-18T13:21:58Z</time>
      </trkpt>
      <trkpt lat="45.84896" lon="3.17067">
        <ele>318.8</ele>
        <time>2024-05-18T13:21:59Z</time>
      </trkpt>
      <trkpt lat="45.8489" lon="3.1706">
        <ele>318.8</ele>
        <time>2024-05-18T13:22:00Z</time>
      </trkpt>
      <trkpt lat="45.84885" lon="3.17053">
        <ele>318.8</ele>
        <time>2024-05-18T13:22:01Z</time>
      </trkpt>
      <trkpt lat="45.84879" lon="3.17046">
        <ele>318.8</ele>
        <time>2024-05-18T13:22:02Z</time>
      </trkpt>
      <trkpt lat="45.84874" lon="3.1704">
        <ele>319</ele>
        <time>2024-05-18T13:22:03Z</time>
      </trkpt>
      <trkpt lat="45.84868" lon="3.17033">
        <ele>318.8</ele>
        <time>2024-05-18T13:22:04Z</time>
      </trkpt>
      <trkpt lat="45.84863" lon="3.17025">
        <ele>318.8</ele>
        <time>2024-05-18T13:22:05Z</time>
      </trkpt>
      <trkpt lat="45.84857" lon="3.17018">
        <ele>318.8</ele>
        <time>2024-05-18T13:22:06Z</time>
      </trkpt>
      <trkpt lat="45.84852" lon="3.17011">
        <ele>318.8</ele>
        <time>2024-05-18T13:22:07Z</time>
      </trkpt>
      <trkpt lat="45.84847" lon="3.17004">
        <ele>318.8</ele>
        <time>2024-05-18T13:22:08Z</time>
      </trkpt>
      <trkpt lat="45.84841" lon="3.16997">
        <ele>318.8</ele>
        <time>2024-05-18T13:22:09Z</time>
      </trkpt>
      <trkpt lat="45.84836" lon="3.1699">
        <ele>318.8</ele>
        <time>2024-05-18T13:22:10Z</time>
      </trkpt>
      <trkpt lat="45.8483" lon="3.16982">
        <ele>318.8</ele>
        <time>2024-05-18T13:22:11Z</time>
      </trkpt>
      <trkpt lat="45.84825" lon="3.16975">
        <ele>318.8</ele>
        <time>2024-05-18T13:22:12Z</time>
      </trkpt>
      <trkpt lat="45.8482" lon="3.16968">
        <ele>318.8</ele>
        <time>2024-05-18T13:22:13Z</time>
      </trkpt>
      <trkpt lat="45.84815" lon="3.16961">
        <ele>318.8</ele>
        <time>2024-05-18T13:22:14Z</time>
      </trkpt>
      <trkpt lat="45.84809" lon="3.16954">
        <ele>318.8</ele>
        <time>2024-05-18T13:22:15Z</time>
      </trkpt>
      <trkpt lat="45.84804" lon="3.16947">
        <ele>318.8</ele>
        <time>2024-05-18T13:22:16Z</time>
      </trkpt>
      <trkpt lat="45.84799" lon="3.1694">
        <ele>318.8</ele>
        <time>2024-05-18T13:22:17Z</time>
      </trkpt>
      <trkpt lat="45.84794" lon="3.16933">
        <ele>318.8</ele>
        <time>2024-05-18T13:22:18Z</time>
      </trkpt>
      <trkpt lat="45.84788" lon="3.16926">
        <ele>318.8</ele>
        <time>2024-05-18T13:22:19Z</time>
      </trkpt>
      <trkpt lat="45.84783" lon="3.16919">
        <ele>318.8</ele>
        <time>2024-05-18T13:22:20Z</time>
      </trkpt>
      <trkpt lat="45.84778" lon="3.16912">
        <ele>319</ele>
        <time>2024-05-18T13:22:21Z</time>
      </trkpt>
      <trkpt lat="45.84773" lon="3.16905">
        <ele>319</ele>
        <time>2024-05-18T13:22:22Z</time>
      </trkpt>
      <trkpt lat="45.84768" lon="3.16899">
        <ele>319</ele>
        <time>2024-05-18T13:22:23Z</time>
      </trkpt>
      <trkpt lat="45.84762" lon="3.16892">
        <ele>319</ele>
        <time>2024-05-18T13:22:24Z</time>
      </trkpt>
      <trkpt lat="45.84757" lon="3.16885">
        <ele>319</ele>
        <time>2024-05-18T13:22:25Z</time>
      </trkpt>
      <trkpt lat="45.84752" lon="3.16877">
        <ele>319</ele>
        <time>2024-05-18T13:22:26Z</time>
      </trkpt>
      <trkpt lat="45.84746" lon="3.1687">
        <ele>319</ele>
        <time>2024-05-18T13:22:27Z</time>
      </trkpt>
      <trkpt lat="45.84741" lon="3.16863">
        <ele>319</ele>
        <time>2024-05-18T13:22:28Z</time>
      </trkpt>
      <trkpt lat="45.84736" lon="3.16856">
        <ele>319</ele>
        <time>2024-05-18T13:22:29Z</time>
      </trkpt>
      <trkpt lat="45.84731" lon="3.16849">
        <ele>319.2</ele>
        <time>2024-05-18T13:22:30Z</time>
      </trkpt>
      <trkpt lat="45.84725" lon="3.16842">
        <ele>319.2</ele>
        <time>2024-05-18T13:22:31Z</time>
      </trkpt>
      <trkpt lat="45.8472" lon="3.16835">
        <ele>319.2</ele>
        <time>2024-05-18T13:22:32Z</time>
      </trkpt>
      <trkpt lat="45.84715" lon="3.16828">
        <ele>319.2</ele>
        <time>2024-05-18T13:22:33Z</time>
      </trkpt>
      <trkpt lat="45.8471" lon="3.16822">
        <ele>319.2</ele>
        <time>2024-05-18T13:22:34Z</time>
      </trkpt>
      <trkpt lat="45.84705" lon="3.16815">
        <ele>319.2</ele>
        <time>2024-05-18T13:22:35Z</time>
      </trkpt>
      <trkpt lat="45.847" lon="3.16807">
        <ele>319.2</ele>
        <time>2024-05-18T13:22:36Z</time>
      </trkpt>
      <trkpt lat="45.847" lon="3.16807">
        <ele>319.2</ele>
        <time>2024-05-18T13:22:37Z</time>
      </trkpt>
      <trkpt lat="45.84692" lon="3.16791">
        <ele>319.2</ele>
        <time>2024-05-18T13:22:38Z</time>
      </trkpt>
      <trkpt lat="45.84688" lon="3.16783">
        <ele>319.2</ele>
        <time>2024-05-18T13:22:39Z</time>
      </trkpt>
      <trkpt lat="45.84683" lon="3.16775">
        <ele>319.4</ele>
        <time>2024-05-18T13:22:40Z</time>
      </trkpt>
      <trkpt lat="45.84679" lon="3.16766">
        <ele>319.4</ele>
        <time>2024-05-18T13:22:41Z</time>
      </trkpt>
      <trkpt lat="45.84674" lon="3.16758">
        <ele>319.4</ele>
        <time>2024-05-18T13:22:42Z</time>
      </trkpt>
      <trkpt lat="45.8467" lon="3.1675">
        <ele>319.4</ele>
        <time>2024-05-18T13:22:43Z</time>
      </trkpt>
      <trkpt lat="45.84666" lon="3.16741">
        <ele>319.4</ele>
        <time>2024-05-18T13:22:44Z</time>
      </trkpt>
      <trkpt lat="45.84663" lon="3.16733">
        <ele>319.4</ele>
        <time>2024-05-18T13:22:45Z</time>
      </trkpt>
      <trkpt lat="45.8466" lon="3.16723">
        <ele>319.4</ele>
        <time>2024-05-18T13:22:46Z</time>
      </trkpt>
      <trkpt lat="45.84659" lon="3.16715">
        <ele>319.4</ele>
        <time>2024-05-18T13:22:47Z</time>
      </trkpt>
      <trkpt lat="45.8466" lon="3.16705">
        <ele>319.4</ele>
        <time>2024-05-18T13:22:48Z</time>
      </trkpt>
      <trkpt lat="45.84661" lon="3.16696">
        <ele>319.4</ele>
        <time>2024-05-18T13:22:49Z</time>
      </trkpt>
      <trkpt lat="45.84665" lon="3.16689">
        <ele>319.4</ele>
        <time>2024-05-18T13:22:50Z</time>
      </trkpt>
      <trkpt lat="45.84669" lon="3.16677">
        <ele>319.4</ele>
        <time>2024-05-18T13:22:51Z</time>
      </trkpt>
      <trkpt lat="45.8467" lon="3.16666">
        <ele>319.4</ele>
        <time>2024-05-18T13:22:52Z</time>
      </trkpt>
      <trkpt lat="45.84671" lon="3.16657">
        <ele>319.4</ele>
        <time>2024-05-18T13:22:53Z</time>
      </trkpt>
      <trkpt lat="45.8467" lon="3.16644">
        <ele>319.4</ele>
        <time>2024-05-18T13:22:54Z</time>
      </trkpt>
      <trkpt lat="45.84668" lon="3.16634">
        <ele>319.4</ele>
        <time>2024-05-18T13:22:55Z</time>
      </trkpt>
      <trkpt lat="45.84667" lon="3.16624">
        <ele>319.4</ele>
        <time>2024-05-18T13:22:56Z</time>
      </trkpt>
      <trkpt lat="45.84661" lon="3.16614">
        <ele>319.4</ele>
        <time>2024-05-18T13:22:57Z</time>
      </trkpt>
      <trkpt lat="45.84655" lon="3.16607">
        <ele>319.4</ele>
        <time>2024-05-18T13:22:58Z</time>
      </trkpt>
      <trkpt lat="45.84649" lon="3.16601">
        <ele>319.4</ele>
        <time>2024-05-18T13:22:59Z</time>
      </trkpt>
      <trkpt lat="45.84642" lon="3.16593">
        <ele>319.4</ele>
        <time>2024-05-18T13:23:00Z</time>
      </trkpt>
      <trkpt lat="45.84635" lon="3.16592">
        <ele>319.4</ele>
        <time>2024-05-18T13:23:01Z</time>
      </trkpt>
      <trkpt lat="45.84627" lon="3.16592">
        <ele>319.4</ele>
        <time>2024-05-18T13:23:02Z</time>
      </trkpt>
      <trkpt lat="45.8462" lon="3.16591">
        <ele>319.6</ele>
        <time>2024-05-18T13:23:03Z</time>
      </trkpt>
      <trkpt lat="45.84612" lon="3.16593">
        <ele>319.6</ele>
        <time>2024-05-18T13:23:04Z</time>
      </trkpt>
      <trkpt lat="45.84605" lon="3.166">
        <ele>319.6</ele>
        <time>2024-05-18T13:23:05Z</time>
      </trkpt>
      <trkpt lat="45.846" lon="3.16607">
        <ele>319.6</ele>
        <time>2024-05-18T13:23:06Z</time>
      </trkpt>
      <trkpt lat="45.84596" lon="3.16614">
        <ele>319.6</ele>
        <time>2024-05-18T13:23:07Z</time>
      </trkpt>
      <trkpt lat="45.84591" lon="3.16622">
        <ele>319.6</ele>
        <time>2024-05-18T13:23:08Z</time>
      </trkpt>
      <trkpt lat="45.84586" lon="3.1663">
        <ele>319.6</ele>
        <time>2024-05-18T13:23:09Z</time>
      </trkpt>
      <trkpt lat="45.84584" lon="3.1664">
        <ele>319.6</ele>
        <time>2024-05-18T13:23:10Z</time>
      </trkpt>
      <trkpt lat="45.84583" lon="3.16651">
        <ele>319.6</ele>
        <time>2024-05-18T13:23:11Z</time>
      </trkpt>
      <trkpt lat="45.84584" lon="3.16661">
        <ele>319.6</ele>
        <time>2024-05-18T13:23:12Z</time>
      </trkpt>
      <trkpt lat="45.84586" lon="3.1667">
        <ele>319.8</ele>
        <time>2024-05-18T13:23:13Z</time>
      </trkpt>
      <trkpt lat="45.84589" lon="3.1668">
        <ele>319.8</ele>
        <time>2024-05-18T13:23:14Z</time>
      </trkpt>
      <trkpt lat="45.84592" lon="3.16688">
        <ele>319.8</ele>
        <time>2024-05-18T13:23:15Z</time>
      </trkpt>
      <trkpt lat="45.84581" lon="3.16708">
        <ele>319.8</ele>
        <time>2024-05-18T13:23:16Z</time>
      </trkpt>
      <trkpt lat="45.84576" lon="3.16714">
        <ele>319.8</ele>
        <time>2024-05-18T13:23:17Z</time>
      </trkpt>
      <trkpt lat="45.8457" lon="3.16721">
        <ele>319.8</ele>
        <time>2024-05-18T13:23:18Z</time>
      </trkpt>
      <trkpt lat="45.84565" lon="3.16729">
        <ele>319.8</ele>
        <time>2024-05-18T13:23:19Z</time>
      </trkpt>
      <trkpt lat="45.84559" lon="3.16736">
        <ele>319.8</ele>
        <time>2024-05-18T13:23:20Z</time>
      </trkpt>
      <trkpt lat="45.84554" lon="3.16744">
        <ele>319.8</ele>
        <time>2024-05-18T13:23:21Z</time>
      </trkpt>
      <trkpt lat="45.84549" lon="3.16751">
        <ele>319.8</ele>
        <time>2024-05-18T13:23:22Z</time>
      </trkpt>
      <trkpt lat="45.84543" lon="3.16758">
        <ele>319.8</ele>
        <time>2024-05-18T13:23:23Z</time>
      </trkpt>
      <trkpt lat="45.84538" lon="3.16766">
        <ele>319.8</ele>
        <time>2024-05-18T13:23:24Z</time>
      </trkpt>
      <trkpt lat="45.84533" lon="3.16773">
        <ele>319.8</ele>
        <time>2024-05-18T13:23:25Z</time>
      </trkpt>
      <trkpt lat="45.84527" lon="3.1678">
        <ele>319.8</ele>
        <time>2024-05-18T13:23:26Z</time>
      </trkpt>
      <trkpt lat="45.84523" lon="3.16789">
        <ele>319.8</ele>
        <time>2024-05-18T13:23:27Z</time>
      </trkpt>
      <trkpt lat="45.84519" lon="3.16798">
        <ele>319.8</ele>
        <time>2024-05-18T13:23:28Z</time>
      </trkpt>
      <trkpt lat="45.84515" lon="3.16807">
        <ele>319.8</ele>
        <time>2024-05-18T13:23:29Z</time>
      </trkpt>
      <trkpt lat="45.84511" lon="3.16816">
        <ele>319.8</ele>
        <time>2024-05-18T13:23:30Z</time>
      </trkpt>
      <trkpt lat="45.84507" lon="3.16825">
        <ele>319.8</ele>
        <time>2024-05-18T13:23:31Z</time>
      </trkpt>
      <trkpt lat="45.84503" lon="3.16834">
        <ele>319.8</ele>
        <time>2024-05-18T13:23:32Z</time>
      </trkpt>
      <trkpt lat="45.84498" lon="3.16843">
        <ele>319.8</ele>
        <time>2024-05-18T13:23:33Z</time>
      </trkpt>
      <trkpt lat="45.84494" lon="3.16852">
        <ele>319.8</ele>
        <time>2024-05-18T13:23:34Z</time>
      </trkpt>
      <trkpt lat="45.8449" lon="3.16861">
        <ele>319.6</ele>
        <time>2024-05-18T13:23:35Z</time>
      </trkpt>
      <trkpt lat="45.84487" lon="3.16871">
        <ele>319.6</ele>
        <time>2024-05-18T13:23:36Z</time>
      </trkpt>
      <trkpt lat="45.84484" lon="3.16881">
        <ele>319.6</ele>
        <time>2024-05-18T13:23:37Z</time>
      </trkpt>
      <trkpt lat="45.84481" lon="3.16891">
        <ele>319.6</ele>
        <time>2024-05-18T13:23:38Z</time>
      </trkpt>
      <trkpt lat="45.84479" lon="3.16901">
        <ele>319.6</ele>
        <time>2024-05-18T13:23:39Z</time>
      </trkpt>
      <trkpt lat="45.84476" lon="3.16911">
        <ele>319.6</ele>
        <time>2024-05-18T13:23:40Z</time>
      </trkpt>
      <trkpt lat="45.84474" lon="3.16921">
        <ele>319.6</ele>
        <time>2024-05-18T13:23:41Z</time>
      </trkpt>
      <trkpt lat="45.84474" lon="3.16921">
        <ele>319.6</ele>
        <time>2024-05-18T13:23:42Z</time>
      </trkpt>
      <trkpt lat="45.84469" lon="3.16941">
        <ele>319.6</ele>
        <time>2024-05-18T13:23:43Z</time>
      </trkpt>
      <trkpt lat="45.84466" lon="3.16951">
        <ele>319.4</ele>
        <time>2024-05-18T13:23:44Z</time>
      </trkpt>
      <trkpt lat="45.84463" lon="3.16961">
        <ele>319.4</ele>
        <time>2024-05-18T13:23:45Z</time>
      </trkpt>
      <trkpt lat="45.84463" lon="3.16961">
        <ele>319.4</ele>
        <time>2024-05-18T13:23:46Z</time>
      </trkpt>
      <trkpt lat="45.84458" lon="3.16981">
        <ele>319.4</ele>
        <time>2024-05-18T13:23:47Z</time>
      </trkpt>
      <trkpt lat="45.84456" lon="3.16991">
        <ele>319.4</ele>
        <time>2024-05-18T13:23:48Z</time>
      </trkpt>
      <trkpt lat="45.84453" lon="3.17">
        <ele>319.4</ele>
        <time>2024-05-18T13:23:49Z</time>
      </trkpt>
      <trkpt lat="45.84453" lon="3.17">
        <ele>319.4</ele>
        <time>2024-05-18T13:23:50Z</time>
      </trkpt>
      <trkpt lat="45.84448" lon="3.1702">
        <ele>319.4</ele>
        <time>2024-05-18T13:23:51Z</time>
      </trkpt>
      <trkpt lat="45.84446" lon="3.1703">
        <ele>319.4</ele>
        <time>2024-05-18T13:23:52Z</time>
      </trkpt>
      <trkpt lat="45.84443" lon="3.1704">
        <ele>319.4</ele>
        <time>2024-05-18T13:23:53Z</time>
      </trkpt>
      <trkpt lat="45.84441" lon="3.1705">
        <ele>319.2</ele>
        <time>2024-05-18T13:23:54Z</time>
      </trkpt>
      <trkpt lat="45.84438" lon="3.1706">
        <ele>319.2</ele>
        <time>2024-05-18T13:23:55Z</time>
      </trkpt>
      <trkpt lat="45.84435" lon="3.1707">
        <ele>319.2</ele>
        <time>2024-05-18T13:23:56Z</time>
      </trkpt>
      <trkpt lat="45.84433" lon="3.1708">
        <ele>319.2</ele>
        <time>2024-05-18T13:23:57Z</time>
      </trkpt>
      <trkpt lat="45.8443" lon="3.1709">
        <ele>319.2</ele>
        <time>2024-05-18T13:23:58Z</time>
      </trkpt>
      <trkpt lat="45.8443" lon="3.1709">
        <ele>319.2</ele>
        <time>2024-05-18T13:23:59Z</time>
      </trkpt>
      <trkpt lat="45.84425" lon="3.17109">
        <ele>319</ele>
        <time>2024-05-18T13:24:00Z</time>
      </trkpt>
      <trkpt lat="45.84423" lon="3.17119">
        <ele>319</ele>
        <time>2024-05-18T13:24:01Z</time>
      </trkpt>
      <trkpt lat="45.8442" lon="3.17129">
        <ele>319</ele>
        <time>2024-05-18T13:24:02Z</time>
      </trkpt>
      <trkpt lat="45.84418" lon="3.17139">
        <ele>319</ele>
        <time>2024-05-18T13:24:03Z</time>
      </trkpt>
      <trkpt lat="45.84415" lon="3.17149">
        <ele>319</ele>
        <time>2024-05-18T13:24:04Z</time>
      </trkpt>
      <trkpt lat="45.84413" lon="3.17158">
        <ele>319</ele>
        <time>2024-05-18T13:24:05Z</time>
      </trkpt>
      <trkpt lat="45.8441" lon="3.17168">
        <ele>319</ele>
        <time>2024-05-18T13:24:06Z</time>
      </trkpt>
      <trkpt lat="45.84408" lon="3.17178">
        <ele>319</ele>
        <time>2024-05-18T13:24:07Z</time>
      </trkpt>
      <trkpt lat="45.84405" lon="3.17188">
        <ele>319</ele>
        <time>2024-05-18T13:24:08Z</time>
      </trkpt>
      <trkpt lat="45.84402" lon="3.17198">
        <ele>319</ele>
        <time>2024-05-18T13:24:09Z</time>
      </trkpt>
      <trkpt lat="45.844" lon="3.17208">
        <ele>319</ele>
        <time>2024-05-18T13:24:10Z</time>
      </trkpt>
      <trkpt lat="45.84397" lon="3.17218">
        <ele>318.8</ele>
        <time>2024-05-18T13:24:11Z</time>
      </trkpt>
      <trkpt lat="45.84395" lon="3.17228">
        <ele>318.8</ele>
        <time>2024-05-18T13:24:12Z</time>
      </trkpt>
      <trkpt lat="45.84392" lon="3.17237">
        <ele>318.8</ele>
        <time>2024-05-18T13:24:13Z</time>
      </trkpt>
      <trkpt lat="45.8439" lon="3.17247">
        <ele>318.8</ele>
        <time>2024-05-18T13:24:14Z</time>
      </trkpt>
      <trkpt lat="45.84387" lon="3.17257">
        <ele>318.8</ele>
        <time>2024-05-18T13:24:15Z</time>
      </trkpt>
      <trkpt lat="45.84385" lon="3.17267">
        <ele>318.8</ele>
        <time>2024-05-18T13:24:16Z</time>
      </trkpt>
      <trkpt lat="45.84382" lon="3.17277">
        <ele>319</ele>
        <time>2024-05-18T13:24:17Z</time>
      </trkpt>
      <trkpt lat="45.8438" lon="3.17286">
        <ele>318.8</ele>
        <time>2024-05-18T13:24:18Z</time>
      </trkpt>
      <trkpt lat="45.84377" lon="3.17296">
        <ele>318.8</ele>
        <time>2024-05-18T13:24:19Z</time>
      </trkpt>
      <trkpt lat="45.84375" lon="3.17306">
        <ele>318.8</ele>
        <time>2024-05-18T13:24:20Z</time>
      </trkpt>
      <trkpt lat="45.84372" lon="3.17315">
        <ele>319</ele>
        <time>2024-05-18T13:24:21Z</time>
      </trkpt>
      <trkpt lat="45.8437" lon="3.17325">
        <ele>319</ele>
        <time>2024-05-18T13:24:22Z</time>
      </trkpt>
      <trkpt lat="45.84367" lon="3.17335">
        <ele>318.8</ele>
        <time>2024-05-18T13:24:23Z</time>
      </trkpt>
      <trkpt lat="45.84365" lon="3.17345">
        <ele>318.8</ele>
        <time>2024-05-18T13:24:24Z</time>
      </trkpt>
      <trkpt lat="45.84362" lon="3.17354">
        <ele>318.8</ele>
        <time>2024-05-18T13:24:25Z</time>
      </trkpt>
      <trkpt lat="45.8436" lon="3.17364">
        <ele>318.8</ele>
        <time>2024-05-18T13:24:26Z</time>
      </trkpt>
      <trkpt lat="45.84357" lon="3.17374">
        <ele>318.8</ele>
        <time>2024-05-18T13:24:27Z</time>
      </trkpt>
      <trkpt lat="45.84356" lon="3.17385">
        <ele>318.8</ele>
        <time>2024-05-18T13:24:28Z</time>
      </trkpt>
      <trkpt lat="45.84355" lon="3.17396">
        <ele>318.8</ele>
        <time>2024-05-18T13:24:29Z</time>
      </trkpt>
      <trkpt lat="45.84354" lon="3.17406">
        <ele>318.8</ele>
        <time>2024-05-18T13:24:30Z</time>
      </trkpt>
      <trkpt lat="45.84353" lon="3.17416">
        <ele>318.8</ele>
        <time>2024-05-18T13:24:31Z</time>
      </trkpt>
      <trkpt lat="45.84353" lon="3.17427">
        <ele>318.6</ele>
        <time>2024-05-18T13:24:32Z</time>
      </trkpt>
      <trkpt lat="45.84352" lon="3.17437">
        <ele>318.6</ele>
        <time>2024-05-18T13:24:33Z</time>
      </trkpt>
      <trkpt lat="45.84351" lon="3.17447">
        <ele>318.6</ele>
        <time>2024-05-18T13:24:34Z</time>
      </trkpt>
      <trkpt lat="45.8435" lon="3.17457">
        <ele>318.6</ele>
        <time>2024-05-18T13:24:35Z</time>
      </trkpt>
      <trkpt lat="45.84349" lon="3.17467">
        <ele>318.6</ele>
        <time>2024-05-18T13:24:36Z</time>
      </trkpt>
      <trkpt lat="45.84349" lon="3.17478">
        <ele>318.8</ele>
        <time>2024-05-18T13:24:37Z</time>
      </trkpt>
      <trkpt lat="45.84348" lon="3.17488">
        <ele>318.8</ele>
        <time>2024-05-18T13:24:38Z</time>
      </trkpt>
      <trkpt lat="45.84347" lon="3.17499">
        <ele>318.8</ele>
        <time>2024-05-18T13:24:39Z</time>
      </trkpt>
      <trkpt lat="45.84346" lon="3.17509">
        <ele>318.8</ele>
        <time>2024-05-18T13:24:40Z</time>
      </trkpt>
      <trkpt lat="45.84346" lon="3.1752">
        <ele>318.8</ele>
        <time>2024-05-18T13:24:41Z</time>
      </trkpt>
      <trkpt lat="45.84346" lon="3.1753">
        <ele>318.6</ele>
        <time>2024-05-18T13:24:42Z</time>
      </trkpt>
      <trkpt lat="45.84347" lon="3.17541">
        <ele>318.6</ele>
        <time>2024-05-18T13:24:43Z</time>
      </trkpt>
      <trkpt lat="45.84347" lon="3.17552">
        <ele>318.6</ele>
        <time>2024-05-18T13:24:44Z</time>
      </trkpt>
      <trkpt lat="45.84348" lon="3.17562">
        <ele>318.6</ele>
        <time>2024-05-18T13:24:45Z</time>
      </trkpt>
      <trkpt lat="45.84348" lon="3.17573">
        <ele>318.6</ele>
        <time>2024-05-18T13:24:46Z</time>
      </trkpt>
      <trkpt lat="45.84349" lon="3.17583">
        <ele>318.6</ele>
        <time>2024-05-18T13:24:47Z</time>
      </trkpt>
      <trkpt lat="45.84351" lon="3.17594">
        <ele>318.6</ele>
        <time>2024-05-18T13:24:48Z</time>
      </trkpt>
      <trkpt lat="45.84352" lon="3.17604">
        <ele>318.6</ele>
        <time>2024-05-18T13:24:49Z</time>
      </trkpt>
      <trkpt lat="45.84353" lon="3.17615">
        <ele>318.6</ele>
        <time>2024-05-18T13:24:50Z</time>
      </trkpt>
      <trkpt lat="45.84355" lon="3.17625">
        <ele>318.6</ele>
        <time>2024-05-18T13:24:51Z</time>
      </trkpt>
      <trkpt lat="45.84356" lon="3.17636">
        <ele>318.6</ele>
        <time>2024-05-18T13:24:52Z</time>
      </trkpt>
      <trkpt lat="45.84357" lon="3.17646">
        <ele>318.6</ele>
        <time>2024-05-18T13:24:53Z</time>
      </trkpt>
      <trkpt lat="45.84358" lon="3.17657">
        <ele>318.6</ele>
        <time>2024-05-18T13:24:54Z</time>
      </trkpt>
      <trkpt lat="45.8436" lon="3.17667">
        <ele>318.6</ele>
        <time>2024-05-18T13:24:55Z</time>
      </trkpt>
      <trkpt lat="45.84361" lon="3.17678">
        <ele>318.6</ele>
        <time>2024-05-18T13:24:56Z</time>
      </trkpt>
      <trkpt lat="45.84364" lon="3.17688">
        <ele>318.6</ele>
        <time>2024-05-18T13:24:57Z</time>
      </trkpt>
      <trkpt lat="45.84367" lon="3.17697">
        <ele>318.6</ele>
        <time>2024-05-18T13:24:58Z</time>
      </trkpt>
      <trkpt lat="45.8437" lon="3.17707">
        <ele>318.6</ele>
        <time>2024-05-18T13:24:59Z</time>
      </trkpt>
      <trkpt lat="45.84373" lon="3.17717">
        <ele>318.6</ele>
        <time>2024-05-18T13:25:00Z</time>
      </trkpt>
      <trkpt lat="45.84376" lon="3.17727">
        <ele>318.6</ele>
        <time>2024-05-18T13:25:01Z</time>
      </trkpt>
      <trkpt lat="45.84379" lon="3.17737">
        <ele>318.6</ele>
        <time>2024-05-18T13:25:02Z</time>
      </trkpt>
      <trkpt lat="45.84382" lon="3.17747">
        <ele>318.6</ele>
        <time>2024-05-18T13:25:03Z</time>
      </trkpt>
      <trkpt lat="45.84385" lon="3.17756">
        <ele>318.6</ele>
        <time>2024-05-18T13:25:04Z</time>
      </trkpt>
      <trkpt lat="45.84388" lon="3.17766">
        <ele>318.6</ele>
        <time>2024-05-18T13:25:05Z</time>
      </trkpt>
      <trkpt lat="45.84391" lon="3.17776">
        <ele>318.6</ele>
        <time>2024-05-18T13:25:06Z</time>
      </trkpt>
      <trkpt lat="45.84394" lon="3.17786">
        <ele>318.6</ele>
        <time>2024-05-18T13:25:07Z</time>
      </trkpt>
      <trkpt lat="45.84397" lon="3.17796">
        <ele>318.6</ele>
        <time>2024-05-18T13:25:08Z</time>
      </trkpt>
      <trkpt lat="45.844" lon="3.17805">
        <ele>318.6</ele>
        <time>2024-05-18T13:25:09Z</time>
      </trkpt>
      <trkpt lat="45.84404" lon="3.17814">
        <ele>318.6</ele>
        <time>2024-05-18T13:25:10Z</time>
      </trkpt>
      <trkpt lat="45.84408" lon="3.17823">
        <ele>318.6</ele>
        <time>2024-05-18T13:25:11Z</time>
      </trkpt>
      <trkpt lat="45.84413" lon="3.17831">
        <ele>318.6</ele>
        <time>2024-05-18T13:25:12Z</time>
      </trkpt>
      <trkpt lat="45.84417" lon="3.1784">
        <ele>318.8</ele>
        <time>2024-05-18T13:25:13Z</time>
      </trkpt>
      <trkpt lat="45.84421" lon="3.17848">
        <ele>318.8</ele>
        <time>2024-05-18T13:25:14Z</time>
      </trkpt>
      <trkpt lat="45.84425" lon="3.17857">
        <ele>318.8</ele>
        <time>2024-05-18T13:25:15Z</time>
      </trkpt>
      <trkpt lat="45.8443" lon="3.17865">
        <ele>318.8</ele>
        <time>2024-05-18T13:25:16Z</time>
      </trkpt>
      <trkpt lat="45.84434" lon="3.17874">
        <ele>318.8</ele>
        <time>2024-05-18T13:25:17Z</time>
      </trkpt>
      <trkpt lat="45.84438" lon="3.17882">
        <ele>318.8</ele>
        <time>2024-05-18T13:25:18Z</time>
      </trkpt>
      <trkpt lat="45.84442" lon="3.1789">
        <ele>318.8</ele>
        <time>2024-05-18T13:25:19Z</time>
      </trkpt>
      <trkpt lat="45.84447" lon="3.17898">
        <ele>318.8</ele>
        <time>2024-05-18T13:25:20Z</time>
      </trkpt>
      <trkpt lat="45.84451" lon="3.17907">
        <ele>318.8</ele>
        <time>2024-05-18T13:25:21Z</time>
      </trkpt>
      <trkpt lat="45.84455" lon="3.17915">
        <ele>318.8</ele>
        <time>2024-05-18T13:25:22Z</time>
      </trkpt>
      <trkpt lat="45.84459" lon="3.17923">
        <ele>318.8</ele>
        <time>2024-05-18T13:25:23Z</time>
      </trkpt>
      <trkpt lat="45.84464" lon="3.17932">
        <ele>318.8</ele>
        <time>2024-05-18T13:25:24Z</time>
      </trkpt>
      <trkpt lat="45.84468" lon="3.1794">
        <ele>318.8</ele>
        <time>2024-05-18T13:25:25Z</time>
      </trkpt>
      <trkpt lat="45.84472" lon="3.17949">
        <ele>318.8</ele>
        <time>2024-05-18T13:25:26Z</time>
      </trkpt>
      <trkpt lat="45.84477" lon="3.17957">
        <ele>318.8</ele>
        <time>2024-05-18T13:25:27Z</time>
      </trkpt>
      <trkpt lat="45.84481" lon="3.17965">
        <ele>318.8</ele>
        <time>2024-05-18T13:25:28Z</time>
      </trkpt>
      <trkpt lat="45.84485" lon="3.17974">
        <ele>318.8</ele>
        <time>2024-05-18T13:25:29Z</time>
      </trkpt>
      <trkpt lat="45.84489" lon="3.17982">
        <ele>318.8</ele>
        <time>2024-05-18T13:25:30Z</time>
      </trkpt>
      <trkpt lat="45.84494" lon="3.17991">
        <ele>318.8</ele>
        <time>2024-05-18T13:25:31Z</time>
      </trkpt>
      <trkpt lat="45.84498" lon="3.17999">
        <ele>319</ele>
        <time>2024-05-18T13:25:32Z</time>
      </trkpt>
      <trkpt lat="45.84502" lon="3.18007">
        <ele>319</ele>
        <time>2024-05-18T13:25:33Z</time>
      </trkpt>
      <trkpt lat="45.84506" lon="3.18015">
        <ele>319</ele>
        <time>2024-05-18T13:25:34Z</time>
      </trkpt>
      <trkpt lat="45.84511" lon="3.18024">
        <ele>319</ele>
        <time>2024-05-18T13:25:35Z</time>
      </trkpt>
      <trkpt lat="45.84515" lon="3.18033">
        <ele>319</ele>
        <time>2024-05-18T13:25:36Z</time>
      </trkpt>
      <trkpt lat="45.8452" lon="3.18041">
        <ele>319</ele>
        <time>2024-05-18T13:25:37Z</time>
      </trkpt>
      <trkpt lat="45.84524" lon="3.1805">
        <ele>319</ele>
        <time>2024-05-18T13:25:38Z</time>
      </trkpt>
      <trkpt lat="45.84528" lon="3.18059">
        <ele>319</ele>
        <time>2024-05-18T13:25:39Z</time>
      </trkpt>
      <trkpt lat="45.84533" lon="3.18067">
        <ele>319</ele>
        <time>2024-05-18T13:25:40Z</time>
      </trkpt>
      <trkpt lat="45.84537" lon="3.18076">
        <ele>319.2</ele>
        <time>2024-05-18T13:25:41Z</time>
      </trkpt>
      <trkpt lat="45.84542" lon="3.18085">
        <ele>319.2</ele>
        <time>2024-05-18T13:25:42Z</time>
      </trkpt>
      <trkpt lat="45.84546" lon="3.18094">
        <ele>319.2</ele>
        <time>2024-05-18T13:25:43Z</time>
      </trkpt>
      <trkpt lat="45.84551" lon="3.18102">
        <ele>319.2</ele>
        <time>2024-05-18T13:25:44Z</time>
      </trkpt>
      <trkpt lat="45.84555" lon="3.18111">
        <ele>319.2</ele>
        <time>2024-05-18T13:25:45Z</time>
      </trkpt>
      <trkpt lat="45.84559" lon="3.1812">
        <ele>319.2</ele>
        <time>2024-05-18T13:25:46Z</time>
      </trkpt>
      <trkpt lat="45.84564" lon="3.18129">
        <ele>319.4</ele>
        <time>2024-05-18T13:25:47Z</time>
      </trkpt>
      <trkpt lat="45.84569" lon="3.18138">
        <ele>319.4</ele>
        <time>2024-05-18T13:25:48Z</time>
      </trkpt>
      <trkpt lat="45.84573" lon="3.18147">
        <ele>319.4</ele>
        <time>2024-05-18T13:25:49Z</time>
      </trkpt>
      <trkpt lat="45.84578" lon="3.18156">
        <ele>319.4</ele>
        <time>2024-05-18T13:25:50Z</time>
      </trkpt>
      <trkpt lat="45.84582" lon="3.18165">
        <ele>319.4</ele>
        <time>2024-05-18T13:25:51Z</time>
      </trkpt>
      <trkpt lat="45.84587" lon="3.18174">
        <ele>319.6</ele>
        <time>2024-05-18T13:25:52Z</time>
      </trkpt>
      <trkpt lat="45.84591" lon="3.18182">
        <ele>319.4</ele>
        <time>2024-05-18T13:25:53Z</time>
      </trkpt>
      <trkpt lat="45.84596" lon="3.18191">
        <ele>319.6</ele>
        <time>2024-05-18T13:25:54Z</time>
      </trkpt>
      <trkpt lat="45.846" lon="3.182">
        <ele>319.6</ele>
        <time>2024-05-18T13:25:55Z</time>
      </trkpt>
      <trkpt lat="45.84605" lon="3.18209">
        <ele>319.6</ele>
        <time>2024-05-18T13:25:56Z</time>
      </trkpt>
      <trkpt lat="45.84609" lon="3.18218">
        <ele>319.6</ele>
        <time>2024-05-18T13:25:57Z</time>
      </trkpt>
      <trkpt lat="45.84614" lon="3.18227">
        <ele>319.6</ele>
        <time>2024-05-18T13:25:58Z</time>
      </trkpt>
      <trkpt lat="45.84618" lon="3.18235">
        <ele>319.6</ele>
        <time>2024-05-18T13:25:59Z</time>
      </trkpt>
      <trkpt lat="45.84622" lon="3.18244">
        <ele>319.6</ele>
        <time>2024-05-18T13:26:00Z</time>
      </trkpt>
      <trkpt lat="45.84627" lon="3.18252">
        <ele>319.6</ele>
        <time>2024-05-18T13:26:01Z</time>
      </trkpt>
      <trkpt lat="45.84631" lon="3.18261">
        <ele>319.6</ele>
        <time>2024-05-18T13:26:02Z</time>
      </trkpt>
      <trkpt lat="45.84635" lon="3.18269">
        <ele>319.6</ele>
        <time>2024-05-18T13:26:03Z</time>
      </trkpt>
      <trkpt lat="45.8464" lon="3.18278">
        <ele>319.6</ele>
        <time>2024-05-18T13:26:04Z</time>
      </trkpt>
      <trkpt lat="45.84644" lon="3.18287">
        <ele>319.6</ele>
        <time>2024-05-18T13:26:05Z</time>
      </trkpt>
      <trkpt lat="45.84649" lon="3.18295">
        <ele>319.6</ele>
        <time>2024-05-18T13:26:06Z</time>
      </trkpt>
      <trkpt lat="45.84653" lon="3.18304">
        <ele>319.6</ele>
        <time>2024-05-18T13:26:07Z</time>
      </trkpt>
      <trkpt lat="45.84658" lon="3.18312">
        <ele>319.6</ele>
        <time>2024-05-18T13:26:08Z</time>
      </trkpt>
      <trkpt lat="45.84662" lon="3.18321">
        <ele>319.6</ele>
        <time>2024-05-18T13:26:09Z</time>
      </trkpt>
      <trkpt lat="45.84667" lon="3.18329">
        <ele>319.8</ele>
        <time>2024-05-18T13:26:10Z</time>
      </trkpt>
      <trkpt lat="45.84672" lon="3.18337">
        <ele>319.8</ele>
        <time>2024-05-18T13:26:11Z</time>
      </trkpt>
      <trkpt lat="45.84677" lon="3.18346">
        <ele>319.8</ele>
        <time>2024-05-18T13:26:12Z</time>
      </trkpt>
      <trkpt lat="45.84682" lon="3.18354">
        <ele>319.8</ele>
        <time>2024-05-18T13:26:13Z</time>
      </trkpt>
      <trkpt lat="45.84687" lon="3.18362">
        <ele>319.8</ele>
        <time>2024-05-18T13:26:14Z</time>
      </trkpt>
      <trkpt lat="45.84691" lon="3.1837">
        <ele>319.8</ele>
        <time>2024-05-18T13:26:15Z</time>
      </trkpt>
      <trkpt lat="45.84696" lon="3.18379">
        <ele>319.8</ele>
        <time>2024-05-18T13:26:16Z</time>
      </trkpt>
      <trkpt lat="45.84701" lon="3.18387">
        <ele>319.8</ele>
        <time>2024-05-18T13:26:17Z</time>
      </trkpt>
      <trkpt lat="45.84706" lon="3.18396">
        <ele>319.8</ele>
        <time>2024-05-18T13:26:18Z</time>
      </trkpt>
      <trkpt lat="45.8471" lon="3.18404">
        <ele>319.8</ele>
        <time>2024-05-18T13:26:19Z</time>
      </trkpt>
      <trkpt lat="45.84715" lon="3.18412">
        <ele>319.8</ele>
        <time>2024-05-18T13:26:20Z</time>
      </trkpt>
      <trkpt lat="45.8472" lon="3.1842">
        <ele>319.8</ele>
        <time>2024-05-18T13:26:21Z</time>
      </trkpt>
      <trkpt lat="45.84724" lon="3.18427">
        <ele>319.8</ele>
        <time>2024-05-18T13:26:22Z</time>
      </trkpt>
      <trkpt lat="45.84729" lon="3.18435">
        <ele>319.8</ele>
        <time>2024-05-18T13:26:23Z</time>
      </trkpt>
      <trkpt lat="45.84733" lon="3.18442">
        <ele>320</ele>
        <time>2024-05-18T13:26:24Z</time>
      </trkpt>
      <trkpt lat="45.8473" lon="3.18475">
        <ele>319.8</ele>
        <time>2024-05-18T13:26:25Z</time>
      </trkpt>
      <trkpt lat="45.84729" lon="3.18467">
        <ele>320</ele>
        <time>2024-05-18T13:26:26Z</time>
      </trkpt>
      <trkpt lat="45.84731" lon="3.18478">
        <ele>320</ele>
        <time>2024-05-18T13:26:27Z</time>
      </trkpt>
      <trkpt lat="45.84732" lon="3.18483">
        <ele>319.8</ele>
        <time>2024-05-18T13:26:28Z</time>
      </trkpt>
      <trkpt lat="45.84742" lon="3.18487">
        <ele>320</ele>
        <time>2024-05-18T13:26:29Z</time>
      </trkpt>
      <trkpt lat="45.8475" lon="3.185">
        <ele>319.8</ele>
        <time>2024-05-18T13:26:30Z</time>
      </trkpt>
      <trkpt lat="45.8475" lon="3.18509">
        <ele>319.8</ele>
        <time>2024-05-18T13:26:31Z</time>
      </trkpt>
      <trkpt lat="45.84751" lon="3.18519">
        <ele>319.8</ele>
        <time>2024-05-18T13:26:32Z</time>
      </trkpt>
      <trkpt lat="45.84752" lon="3.1853">
        <ele>319.8</ele>
        <time>2024-05-18T13:26:33Z</time>
      </trkpt>
      <trkpt lat="45.84752" lon="3.18541">
        <ele>319.6</ele>
        <time>2024-05-18T13:26:34Z</time>
      </trkpt>
      <trkpt lat="45.84753" lon="3.18552">
        <ele>319.6</ele>
        <time>2024-05-18T13:26:35Z</time>
      </trkpt>
      <trkpt lat="45.84753" lon="3.18563">
        <ele>319.6</ele>
        <time>2024-05-18T13:26:36Z</time>
      </trkpt>
      <trkpt lat="45.84752" lon="3.18573">
        <ele>319.6</ele>
        <time>2024-05-18T13:26:37Z</time>
      </trkpt>
      <trkpt lat="45.84751" lon="3.18584">
        <ele>319.4</ele>
        <time>2024-05-18T13:26:38Z</time>
      </trkpt>
      <trkpt lat="45.84749" lon="3.18594">
        <ele>319.4</ele>
        <time>2024-05-18T13:26:39Z</time>
      </trkpt>
      <trkpt lat="45.84746" lon="3.18605">
        <ele>319.2</ele>
        <time>2024-05-18T13:26:40Z</time>
      </trkpt>
      <trkpt lat="45.84744" lon="3.18614">
        <ele>319.2</ele>
        <time>2024-05-18T13:26:41Z</time>
      </trkpt>
      <trkpt lat="45.84741" lon="3.18624">
        <ele>319.2</ele>
        <time>2024-05-18T13:26:42Z</time>
      </trkpt>
      <trkpt lat="45.84738" lon="3.18634">
        <ele>319.2</ele>
        <time>2024-05-18T13:26:43Z</time>
      </trkpt>
      <trkpt lat="45.84735" lon="3.18644">
        <ele>319.2</ele>
        <time>2024-05-18T13:26:44Z</time>
      </trkpt>
      <trkpt lat="45.84732" lon="3.18653">
        <ele>319.2</ele>
        <time>2024-05-18T13:26:45Z</time>
      </trkpt>
      <trkpt lat="45.84729" lon="3.18662">
        <ele>319.2</ele>
        <time>2024-05-18T13:26:46Z</time>
      </trkpt>
      <trkpt lat="45.84726" lon="3.18672">
        <ele>319</ele>
        <time>2024-05-18T13:26:47Z</time>
      </trkpt>
      <trkpt lat="45.84722" lon="3.18681">
        <ele>319</ele>
        <time>2024-05-18T13:26:48Z</time>
      </trkpt>
      <trkpt lat="45.84718" lon="3.1869">
        <ele>318.8</ele>
        <time>2024-05-18T13:26:49Z</time>
      </trkpt>
      <trkpt lat="45.84715" lon="3.18698">
        <ele>318.8</ele>
        <time>2024-05-18T13:26:50Z</time>
      </trkpt>
      <trkpt lat="45.84711" lon="3.18707">
        <ele>318.8</ele>
        <time>2024-05-18T13:26:51Z</time>
      </trkpt>
      <trkpt lat="45.84707" lon="3.18716">
        <ele>318.8</ele>
        <time>2024-05-18T13:26:52Z</time>
      </trkpt>
      <trkpt lat="45.84703" lon="3.18725">
        <ele>318.8</ele>
        <time>2024-05-18T13:26:53Z</time>
      </trkpt>
      <trkpt lat="45.84699" lon="3.18734">
        <ele>318.8</ele>
        <time>2024-05-18T13:26:54Z</time>
      </trkpt>
      <trkpt lat="45.84696" lon="3.18743">
        <ele>318.8</ele>
        <time>2024-05-18T13:26:55Z</time>
      </trkpt>
      <trkpt lat="45.84692" lon="3.18752">
        <ele>318.8</ele>
        <time>2024-05-18T13:26:56Z</time>
      </trkpt>
      <trkpt lat="45.84688" lon="3.18761">
        <ele>318.8</ele>
        <time>2024-05-18T13:26:57Z</time>
      </trkpt>
      <trkpt lat="45.84684" lon="3.1877">
        <ele>318.6</ele>
        <time>2024-05-18T13:26:58Z</time>
      </trkpt>
      <trkpt lat="45.8468" lon="3.18779">
        <ele>318.6</ele>
        <time>2024-05-18T13:26:59Z</time>
      </trkpt>
      <trkpt lat="45.84676" lon="3.18788">
        <ele>318.6</ele>
        <time>2024-05-18T13:27:00Z</time>
      </trkpt>
      <trkpt lat="45.84672" lon="3.18797">
        <ele>318.6</ele>
        <time>2024-05-18T13:27:01Z</time>
      </trkpt>
      <trkpt lat="45.84668" lon="3.18806">
        <ele>318.4</ele>
        <time>2024-05-18T13:27:02Z</time>
      </trkpt>
      <trkpt lat="45.84665" lon="3.18815">
        <ele>318.4</ele>
        <time>2024-05-18T13:27:03Z</time>
      </trkpt>
      <trkpt lat="45.84661" lon="3.18824">
        <ele>318.6</ele>
        <time>2024-05-18T13:27:04Z</time>
      </trkpt>
      <trkpt lat="45.84657" lon="3.18832">
        <ele>318.4</ele>
        <time>2024-05-18T13:27:05Z</time>
      </trkpt>
      <trkpt lat="45.84653" lon="3.18842">
        <ele>318.4</ele>
        <time>2024-05-18T13:27:06Z</time>
      </trkpt>
      <trkpt lat="45.84649" lon="3.1885">
        <ele>318.4</ele>
        <time>2024-05-18T13:27:07Z</time>
      </trkpt>
      <trkpt lat="45.84645" lon="3.18859">
        <ele>318.4</ele>
        <time>2024-05-18T13:27:08Z</time>
      </trkpt>
      <trkpt lat="45.84642" lon="3.18868">
        <ele>318.4</ele>
        <time>2024-05-18T13:27:09Z</time>
      </trkpt>
      <trkpt lat="45.84638" lon="3.18877">
        <ele>318.4</ele>
        <time>2024-05-18T13:27:10Z</time>
      </trkpt>
      <trkpt lat="45.84635" lon="3.18887">
        <ele>318.2</ele>
        <time>2024-05-18T13:27:11Z</time>
      </trkpt>
      <trkpt lat="45.84633" lon="3.18897">
        <ele>318.2</ele>
        <time>2024-05-18T13:27:12Z</time>
      </trkpt>
      <trkpt lat="45.84631" lon="3.18907">
        <ele>318.2</ele>
        <time>2024-05-18T13:27:13Z</time>
      </trkpt>
      <trkpt lat="45.84629" lon="3.18918">
        <ele>318.2</ele>
        <time>2024-05-18T13:27:14Z</time>
      </trkpt>
      <trkpt lat="45.84628" lon="3.18928">
        <ele>318.2</ele>
        <time>2024-05-18T13:27:15Z</time>
      </trkpt>
      <trkpt lat="45.84626" lon="3.18938">
        <ele>318.2</ele>
        <time>2024-05-18T13:27:16Z</time>
      </trkpt>
      <trkpt lat="45.84624" lon="3.18949">
        <ele>318.2</ele>
        <time>2024-05-18T13:27:17Z</time>
      </trkpt>
      <trkpt lat="45.84622" lon="3.18959">
        <ele>318.2</ele>
        <time>2024-05-18T13:27:18Z</time>
      </trkpt>
      <trkpt lat="45.84621" lon="3.18969">
        <ele>318</ele>
        <time>2024-05-18T13:27:19Z</time>
      </trkpt>
      <trkpt lat="45.84619" lon="3.1898">
        <ele>318</ele>
        <time>2024-05-18T13:27:20Z</time>
      </trkpt>
      <trkpt lat="45.84617" lon="3.1899">
        <ele>318</ele>
        <time>2024-05-18T13:27:21Z</time>
      </trkpt>
      <trkpt lat="45.84615" lon="3.19001">
        <ele>318</ele>
        <time>2024-05-18T13:27:22Z</time>
      </trkpt>
      <trkpt lat="45.84614" lon="3.19011">
        <ele>318</ele>
        <time>2024-05-18T13:27:23Z</time>
      </trkpt>
      <trkpt lat="45.84612" lon="3.19021">
        <ele>317.8</ele>
        <time>2024-05-18T13:27:24Z</time>
      </trkpt>
      <trkpt lat="45.8461" lon="3.19032">
        <ele>318</ele>
        <time>2024-05-18T13:27:25Z</time>
      </trkpt>
      <trkpt lat="45.84608" lon="3.19042">
        <ele>318</ele>
        <time>2024-05-18T13:27:26Z</time>
      </trkpt>
      <trkpt lat="45.84607" lon="3.19052">
        <ele>317.8</ele>
        <time>2024-05-18T13:27:27Z</time>
      </trkpt>
      <trkpt lat="45.84605" lon="3.19062">
        <ele>317.8</ele>
        <time>2024-05-18T13:27:28Z</time>
      </trkpt>
      <trkpt lat="45.84603" lon="3.19072">
        <ele>317.8</ele>
        <time>2024-05-18T13:27:29Z</time>
      </trkpt>
      <trkpt lat="45.84601" lon="3.19083">
        <ele>317.8</ele>
        <time>2024-05-18T13:27:30Z</time>
      </trkpt>
      <trkpt lat="45.846" lon="3.19093">
        <ele>317.6</ele>
        <time>2024-05-18T13:27:31Z</time>
      </trkpt>
      <trkpt lat="45.84598" lon="3.19104">
        <ele>317.6</ele>
        <time>2024-05-18T13:27:32Z</time>
      </trkpt>
      <trkpt lat="45.84596" lon="3.19114">
        <ele>317.6</ele>
        <time>2024-05-18T13:27:33Z</time>
      </trkpt>
      <trkpt lat="45.84594" lon="3.19125">
        <ele>317.6</ele>
        <time>2024-05-18T13:27:34Z</time>
      </trkpt>
      <trkpt lat="45.84592" lon="3.19136">
        <ele>317.6</ele>
        <time>2024-05-18T13:27:35Z</time>
      </trkpt>
      <trkpt lat="45.8459" lon="3.19146">
        <ele>317.6</ele>
        <time>2024-05-18T13:27:36Z</time>
      </trkpt>
      <trkpt lat="45.84589" lon="3.19157">
        <ele>317.6</ele>
        <time>2024-05-18T13:27:37Z</time>
      </trkpt>
      <trkpt lat="45.84588" lon="3.19168">
        <ele>317.6</ele>
        <time>2024-05-18T13:27:38Z</time>
      </trkpt>
      <trkpt lat="45.84586" lon="3.19178">
        <ele>317.6</ele>
        <time>2024-05-18T13:27:39Z</time>
      </trkpt>
      <trkpt lat="45.84585" lon="3.19189">
        <ele>317.6</ele>
        <time>2024-05-18T13:27:40Z</time>
      </trkpt>
      <trkpt lat="45.84583" lon="3.19199">
        <ele>317.6</ele>
        <time>2024-05-18T13:27:41Z</time>
      </trkpt>
      <trkpt lat="45.84582" lon="3.1921">
        <ele>317.6</ele>
        <time>2024-05-18T13:27:42Z</time>
      </trkpt>
      <trkpt lat="45.84582" lon="3.19221">
        <ele>317.4</ele>
        <time>2024-05-18T13:27:43Z</time>
      </trkpt>
      <trkpt lat="45.84582" lon="3.19232">
        <ele>317.4</ele>
        <time>2024-05-18T13:27:44Z</time>
      </trkpt>
      <trkpt lat="45.84582" lon="3.19242">
        <ele>317.4</ele>
        <time>2024-05-18T13:27:45Z</time>
      </trkpt>
      <trkpt lat="45.84582" lon="3.19253">
        <ele>317.4</ele>
        <time>2024-05-18T13:27:46Z</time>
      </trkpt>
      <trkpt lat="45.84582" lon="3.19264">
        <ele>317.4</ele>
        <time>2024-05-18T13:27:47Z</time>
      </trkpt>
      <trkpt lat="45.84582" lon="3.19274">
        <ele>317.2</ele>
        <time>2024-05-18T13:27:48Z</time>
      </trkpt>
      <trkpt lat="45.84582" lon="3.19285">
        <ele>317.2</ele>
        <time>2024-05-18T13:27:49Z</time>
      </trkpt>
      <trkpt lat="45.84582" lon="3.19296">
        <ele>317.2</ele>
        <time>2024-05-18T13:27:50Z</time>
      </trkpt>
      <trkpt lat="45.84583" lon="3.19308">
        <ele>317.2</ele>
        <time>2024-05-18T13:27:51Z</time>
      </trkpt>
      <trkpt lat="45.84583" lon="3.19319">
        <ele>317.2</ele>
        <time>2024-05-18T13:27:52Z</time>
      </trkpt>
      <trkpt lat="45.84583" lon="3.1933">
        <ele>317.2</ele>
        <time>2024-05-18T13:27:53Z</time>
      </trkpt>
      <trkpt lat="45.84583" lon="3.19341">
        <ele>317.2</ele>
        <time>2024-05-18T13:27:54Z</time>
      </trkpt>
      <trkpt lat="45.84583" lon="3.19352">
        <ele>317.2</ele>
        <time>2024-05-18T13:27:55Z</time>
      </trkpt>
      <trkpt lat="45.84583" lon="3.19363">
        <ele>317.2</ele>
        <time>2024-05-18T13:27:56Z</time>
      </trkpt>
      <trkpt lat="45.84583" lon="3.19374">
        <ele>317.2</ele>
        <time>2024-05-18T13:27:57Z</time>
      </trkpt>
      <trkpt lat="45.84583" lon="3.19385">
        <ele>317.2</ele>
        <time>2024-05-18T13:27:58Z</time>
      </trkpt>
      <trkpt lat="45.84584" lon="3.19396">
        <ele>317.2</ele>
        <time>2024-05-18T13:27:59Z</time>
      </trkpt>
      <trkpt lat="45.84584" lon="3.19407">
        <ele>317</ele>
        <time>2024-05-18T13:28:00Z</time>
      </trkpt>
      <trkpt lat="45.84584" lon="3.19418">
        <ele>317</ele>
        <time>2024-05-18T13:28:01Z</time>
      </trkpt>
      <trkpt lat="45.84584" lon="3.19429">
        <ele>317</ele>
        <time>2024-05-18T13:28:02Z</time>
      </trkpt>
      <trkpt lat="45.84584" lon="3.19439">
        <ele>317</ele>
        <time>2024-05-18T13:28:03Z</time>
      </trkpt>
      <trkpt lat="45.84584" lon="3.1945">
        <ele>317</ele>
        <time>2024-05-18T13:28:04Z</time>
      </trkpt>
      <trkpt lat="45.84584" lon="3.1945">
        <ele>317</ele>
        <time>2024-05-18T13:28:05Z</time>
      </trkpt>
      <trkpt lat="45.84585" lon="3.19471">
        <ele>317</ele>
        <time>2024-05-18T13:28:06Z</time>
      </trkpt>
      <trkpt lat="45.84585" lon="3.19481">
        <ele>316.8</ele>
        <time>2024-05-18T13:28:07Z</time>
      </trkpt>
      <trkpt lat="45.84585" lon="3.19492">
        <ele>316.8</ele>
        <time>2024-05-18T13:28:08Z</time>
      </trkpt>
      <trkpt lat="45.84585" lon="3.19502">
        <ele>316.8</ele>
        <time>2024-05-18T13:28:09Z</time>
      </trkpt>
      <trkpt lat="45.84585" lon="3.19513">
        <ele>316.8</ele>
        <time>2024-05-18T13:28:10Z</time>
      </trkpt>
      <trkpt lat="45.84585" lon="3.19524">
        <ele>316.8</ele>
        <time>2024-05-18T13:28:11Z</time>
      </trkpt>
      <trkpt lat="45.84585" lon="3.19534">
        <ele>316.8</ele>
        <time>2024-05-18T13:28:12Z</time>
      </trkpt>
      <trkpt lat="45.84585" lon="3.19545">
        <ele>316.8</ele>
        <time>2024-05-18T13:28:13Z</time>
      </trkpt>
      <trkpt lat="45.84586" lon="3.19556">
        <ele>316.8</ele>
        <time>2024-05-18T13:28:14Z</time>
      </trkpt>
      <trkpt lat="45.84586" lon="3.19566">
        <ele>316.8</ele>
        <time>2024-05-18T13:28:15Z</time>
      </trkpt>
      <trkpt lat="45.84586" lon="3.19577">
        <ele>316.8</ele>
        <time>2024-05-18T13:28:16Z</time>
      </trkpt>
      <trkpt lat="45.84586" lon="3.19588">
        <ele>316.8</ele>
        <time>2024-05-18T13:28:17Z</time>
      </trkpt>
      <trkpt lat="45.84586" lon="3.19599">
        <ele>316.6</ele>
        <time>2024-05-18T13:28:18Z</time>
      </trkpt>
      <trkpt lat="45.84586" lon="3.19609">
        <ele>316.6</ele>
        <time>2024-05-18T13:28:19Z</time>
      </trkpt>
      <trkpt lat="45.84585" lon="3.1962">
        <ele>316.6</ele>
        <time>2024-05-18T13:28:20Z</time>
      </trkpt>
      <trkpt lat="45.84585" lon="3.1963">
        <ele>316.6</ele>
        <time>2024-05-18T13:28:21Z</time>
      </trkpt>
      <trkpt lat="45.84584" lon="3.1964">
        <ele>316.6</ele>
        <time>2024-05-18T13:28:22Z</time>
      </trkpt>
      <trkpt lat="45.84583" lon="3.19651">
        <ele>316.6</ele>
        <time>2024-05-18T13:28:23Z</time>
      </trkpt>
      <trkpt lat="45.84581" lon="3.19661">
        <ele>316.6</ele>
        <time>2024-05-18T13:28:24Z</time>
      </trkpt>
      <trkpt lat="45.84579" lon="3.19671">
        <ele>316.6</ele>
        <time>2024-05-18T13:28:25Z</time>
      </trkpt>
      <trkpt lat="45.84578" lon="3.19681">
        <ele>316.6</ele>
        <time>2024-05-18T13:28:26Z</time>
      </trkpt>
      <trkpt lat="45.84576" lon="3.1969">
        <ele>316.6</ele>
        <time>2024-05-18T13:28:27Z</time>
      </trkpt>
      <trkpt lat="45.84575" lon="3.197">
        <ele>316.6</ele>
        <time>2024-05-18T13:28:28Z</time>
      </trkpt>
      <trkpt lat="45.84573" lon="3.1971">
        <ele>316.6</ele>
        <time>2024-05-18T13:28:29Z</time>
      </trkpt>
      <trkpt lat="45.84571" lon="3.1972">
        <ele>316.6</ele>
        <time>2024-05-18T13:28:30Z</time>
      </trkpt>
      <trkpt lat="45.8457" lon="3.19731">
        <ele>316.6</ele>
        <time>2024-05-18T13:28:31Z</time>
      </trkpt>
      <trkpt lat="45.84568" lon="3.19741">
        <ele>316.6</ele>
        <time>2024-05-18T13:28:32Z</time>
      </trkpt>
      <trkpt lat="45.84567" lon="3.19751">
        <ele>316.6</ele>
        <time>2024-05-18T13:28:33Z</time>
      </trkpt>
      <trkpt lat="45.84565" lon="3.19761">
        <ele>316.6</ele>
        <time>2024-05-18T13:28:34Z</time>
      </trkpt>
      <trkpt lat="45.84563" lon="3.19771">
        <ele>316.4</ele>
        <time>2024-05-18T13:28:35Z</time>
      </trkpt>
      <trkpt lat="45.84562" lon="3.19781">
        <ele>316.4</ele>
        <time>2024-05-18T13:28:36Z</time>
      </trkpt>
      <trkpt lat="45.84561" lon="3.19791">
        <ele>316.4</ele>
        <time>2024-05-18T13:28:37Z</time>
      </trkpt>
      <trkpt lat="45.84559" lon="3.19802">
        <ele>316.4</ele>
        <time>2024-05-18T13:28:38Z</time>
      </trkpt>
      <trkpt lat="45.84558" lon="3.19812">
        <ele>316.4</ele>
        <time>2024-05-18T13:28:39Z</time>
      </trkpt>
      <trkpt lat="45.84556" lon="3.19822">
        <ele>316.4</ele>
        <time>2024-05-18T13:28:40Z</time>
      </trkpt>
      <trkpt lat="45.84555" lon="3.19832">
        <ele>316.4</ele>
        <time>2024-05-18T13:28:41Z</time>
      </trkpt>
      <trkpt lat="45.84553" lon="3.19842">
        <ele>316.4</ele>
        <time>2024-05-18T13:28:42Z</time>
      </trkpt>
      <trkpt lat="45.84552" lon="3.19853">
        <ele>316.4</ele>
        <time>2024-05-18T13:28:43Z</time>
      </trkpt>
      <trkpt lat="45.8455" lon="3.19863">
        <ele>316.4</ele>
        <time>2024-05-18T13:28:44Z</time>
      </trkpt>
      <trkpt lat="45.84549" lon="3.19873">
        <ele>316.4</ele>
        <time>2024-05-18T13:28:45Z</time>
      </trkpt>
      <trkpt lat="45.84547" lon="3.19883">
        <ele>316.4</ele>
        <time>2024-05-18T13:28:46Z</time>
      </trkpt>
      <trkpt lat="45.84546" lon="3.19893">
        <ele>316.4</ele>
        <time>2024-05-18T13:28:47Z</time>
      </trkpt>
      <trkpt lat="45.84545" lon="3.19903">
        <ele>316.4</ele>
        <time>2024-05-18T13:28:48Z</time>
      </trkpt>
      <trkpt lat="45.84544" lon="3.19913">
        <ele>316.4</ele>
        <time>2024-05-18T13:28:49Z</time>
      </trkpt>
      <trkpt lat="45.84542" lon="3.19924">
        <ele>316.2</ele>
        <time>2024-05-18T13:28:50Z</time>
      </trkpt>
      <trkpt lat="45.84541" lon="3.19934">
        <ele>316.2</ele>
        <time>2024-05-18T13:28:51Z</time>
      </trkpt>
      <trkpt lat="45.84539" lon="3.19944">
        <ele>316.2</ele>
        <time>2024-05-18T13:28:52Z</time>
      </trkpt>
      <trkpt lat="45.84538" lon="3.19954">
        <ele>316.2</ele>
        <time>2024-05-18T13:28:53Z</time>
      </trkpt>
      <trkpt lat="45.84536" lon="3.19964">
        <ele>316.2</ele>
        <time>2024-05-18T13:28:54Z</time>
      </trkpt>
      <trkpt lat="45.84534" lon="3.19974">
        <ele>316.2</ele>
        <time>2024-05-18T13:28:55Z</time>
      </trkpt>
      <trkpt lat="45.84533" lon="3.19985">
        <ele>316.2</ele>
        <time>2024-05-18T13:28:56Z</time>
      </trkpt>
      <trkpt lat="45.84531" lon="3.19995">
        <ele>316.2</ele>
        <time>2024-05-18T13:28:57Z</time>
      </trkpt>
      <trkpt lat="45.84529" lon="3.20005">
        <ele>316.2</ele>
        <time>2024-05-18T13:28:58Z</time>
      </trkpt>
      <trkpt lat="45.84527" lon="3.20015">
        <ele>316.2</ele>
        <time>2024-05-18T13:28:59Z</time>
      </trkpt>
      <trkpt lat="45.84524" lon="3.20025">
        <ele>316.4</ele>
        <time>2024-05-18T13:29:00Z</time>
      </trkpt>
      <trkpt lat="45.84521" lon="3.20035">
        <ele>316.4</ele>
        <time>2024-05-18T13:29:01Z</time>
      </trkpt>
      <trkpt lat="45.84518" lon="3.20044">
        <ele>316.4</ele>
        <time>2024-05-18T13:29:02Z</time>
      </trkpt>
      <trkpt lat="45.84515" lon="3.20054">
        <ele>316.4</ele>
        <time>2024-05-18T13:29:03Z</time>
      </trkpt>
      <trkpt lat="45.84512" lon="3.20064">
        <ele>316.4</ele>
        <time>2024-05-18T13:29:04Z</time>
      </trkpt>
      <trkpt lat="45.84509" lon="3.20073">
        <ele>316.4</ele>
        <time>2024-05-18T13:29:05Z</time>
      </trkpt>
      <trkpt lat="45.84505" lon="3.20082">
        <ele>316.4</ele>
        <time>2024-05-18T13:29:06Z</time>
      </trkpt>
      <trkpt lat="45.84502" lon="3.20091">
        <ele>316.4</ele>
        <time>2024-05-18T13:29:07Z</time>
      </trkpt>
      <trkpt lat="45.84498" lon="3.201">
        <ele>316.6</ele>
        <time>2024-05-18T13:29:08Z</time>
      </trkpt>
      <trkpt lat="45.84494" lon="3.20109">
        <ele>316.6</ele>
        <time>2024-05-18T13:29:09Z</time>
      </trkpt>
      <trkpt lat="45.84491" lon="3.20118">
        <ele>316.6</ele>
        <time>2024-05-18T13:29:10Z</time>
      </trkpt>
      <trkpt lat="45.84487" lon="3.20127">
        <ele>316.6</ele>
        <time>2024-05-18T13:29:11Z</time>
      </trkpt>
      <trkpt lat="45.84484" lon="3.20136">
        <ele>316.6</ele>
        <time>2024-05-18T13:29:12Z</time>
      </trkpt>
      <trkpt lat="45.8448" lon="3.20145">
        <ele>316.6</ele>
        <time>2024-05-18T13:29:13Z</time>
      </trkpt>
      <trkpt lat="45.84476" lon="3.20154">
        <ele>316.8</ele>
        <time>2024-05-18T13:29:14Z</time>
      </trkpt>
      <trkpt lat="45.84473" lon="3.20163">
        <ele>316.8</ele>
        <time>2024-05-18T13:29:15Z</time>
      </trkpt>
      <trkpt lat="45.84469" lon="3.20172">
        <ele>316.6</ele>
        <time>2024-05-18T13:29:16Z</time>
      </trkpt>
      <trkpt lat="45.84466" lon="3.20181">
        <ele>316.8</ele>
        <time>2024-05-18T13:29:17Z</time>
      </trkpt>
      <trkpt lat="45.84462" lon="3.2019">
        <ele>316.8</ele>
        <time>2024-05-18T13:29:18Z</time>
      </trkpt>
      <trkpt lat="45.84459" lon="3.202">
        <ele>316.8</ele>
        <time>2024-05-18T13:29:19Z</time>
      </trkpt>
      <trkpt lat="45.84456" lon="3.20209">
        <ele>316.8</ele>
        <time>2024-05-18T13:29:20Z</time>
      </trkpt>
      <trkpt lat="45.84454" lon="3.20219">
        <ele>317</ele>
        <time>2024-05-18T13:29:21Z</time>
      </trkpt>
      <trkpt lat="45.84451" lon="3.20229">
        <ele>317</ele>
        <time>2024-05-18T13:29:22Z</time>
      </trkpt>
      <trkpt lat="45.84448" lon="3.20239">
        <ele>317</ele>
        <time>2024-05-18T13:29:23Z</time>
      </trkpt>
      <trkpt lat="45.84445" lon="3.20249">
        <ele>317</ele>
        <time>2024-05-18T13:29:24Z</time>
      </trkpt>
      <trkpt lat="45.84442" lon="3.20258">
        <ele>317.2</ele>
        <time>2024-05-18T13:29:25Z</time>
      </trkpt>
      <trkpt lat="45.84439" lon="3.20268">
        <ele>317.2</ele>
        <time>2024-05-18T13:29:26Z</time>
      </trkpt>
      <trkpt lat="45.84437" lon="3.20279">
        <ele>317.2</ele>
        <time>2024-05-18T13:29:27Z</time>
      </trkpt>
      <trkpt lat="45.84435" lon="3.20288">
        <ele>317.2</ele>
        <time>2024-05-18T13:29:28Z</time>
      </trkpt>
      <trkpt lat="45.84432" lon="3.20298">
        <ele>317.2</ele>
        <time>2024-05-18T13:29:29Z</time>
      </trkpt>
      <trkpt lat="45.8443" lon="3.20308">
        <ele>317.2</ele>
        <time>2024-05-18T13:29:30Z</time>
      </trkpt>
      <trkpt lat="45.84428" lon="3.20318">
        <ele>317.2</ele>
        <time>2024-05-18T13:29:31Z</time>
      </trkpt>
      <trkpt lat="45.84425" lon="3.20328">
        <ele>317.2</ele>
        <time>2024-05-18T13:29:32Z</time>
      </trkpt>
      <trkpt lat="45.84423" lon="3.20338">
        <ele>317.2</ele>
        <time>2024-05-18T13:29:33Z</time>
      </trkpt>
      <trkpt lat="45.84421" lon="3.20348">
        <ele>317.2</ele>
        <time>2024-05-18T13:29:34Z</time>
      </trkpt>
      <trkpt lat="45.84419" lon="3.20358">
        <ele>317.2</ele>
        <time>2024-05-18T13:29:35Z</time>
      </trkpt>
      <trkpt lat="45.84416" lon="3.20367">
        <ele>317.2</ele>
        <time>2024-05-18T13:29:36Z</time>
      </trkpt>
      <trkpt lat="45.84414" lon="3.20377">
        <ele>317.2</ele>
        <time>2024-05-18T13:29:37Z</time>
      </trkpt>
      <trkpt lat="45.84412" lon="3.20387">
        <ele>317.2</ele>
        <time>2024-05-18T13:29:38Z</time>
      </trkpt>
      <trkpt lat="45.84409" lon="3.20397">
        <ele>317.2</ele>
        <time>2024-05-18T13:29:39Z</time>
      </trkpt>
      <trkpt lat="45.84407" lon="3.20407">
        <ele>317.2</ele>
        <time>2024-05-18T13:29:40Z</time>
      </trkpt>
      <trkpt lat="45.84405" lon="3.20417">
        <ele>317.2</ele>
        <time>2024-05-18T13:29:41Z</time>
      </trkpt>
      <trkpt lat="45.84402" lon="3.20427">
        <ele>317.2</ele>
        <time>2024-05-18T13:29:42Z</time>
      </trkpt>
      <trkpt lat="45.844" lon="3.20437">
        <ele>317.2</ele>
        <time>2024-05-18T13:29:43Z</time>
      </trkpt>
      <trkpt lat="45.84398" lon="3.20447">
        <ele>317.2</ele>
        <time>2024-05-18T13:29:44Z</time>
      </trkpt>
      <trkpt lat="45.84395" lon="3.20457">
        <ele>317.2</ele>
        <time>2024-05-18T13:29:45Z</time>
      </trkpt>
      <trkpt lat="45.84393" lon="3.20467">
        <ele>317.2</ele>
        <time>2024-05-18T13:29:46Z</time>
      </trkpt>
      <trkpt lat="45.8439" lon="3.20477">
        <ele>317</ele>
        <time>2024-05-18T13:29:47Z</time>
      </trkpt>
      <trkpt lat="45.84388" lon="3.20487">
        <ele>317.2</ele>
        <time>2024-05-18T13:29:48Z</time>
      </trkpt>
      <trkpt lat="45.84386" lon="3.20497">
        <ele>317.2</ele>
        <time>2024-05-18T13:29:49Z</time>
      </trkpt>
      <trkpt lat="45.84383" lon="3.20507">
        <ele>317</ele>
        <time>2024-05-18T13:29:50Z</time>
      </trkpt>
      <trkpt lat="45.84381" lon="3.20517">
        <ele>317</ele>
        <time>2024-05-18T13:29:51Z</time>
      </trkpt>
      <trkpt lat="45.84379" lon="3.20528">
        <ele>317.2</ele>
        <time>2024-05-18T13:29:52Z</time>
      </trkpt>
      <trkpt lat="45.84376" lon="3.20538">
        <ele>317</ele>
        <time>2024-05-18T13:29:53Z</time>
      </trkpt>
      <trkpt lat="45.84374" lon="3.20548">
        <ele>317</ele>
        <time>2024-05-18T13:29:54Z</time>
      </trkpt>
      <trkpt lat="45.84371" lon="3.20558">
        <ele>317</ele>
        <time>2024-05-18T13:29:55Z</time>
      </trkpt>
      <trkpt lat="45.84369" lon="3.20569">
        <ele>317</ele>
        <time>2024-05-18T13:29:56Z</time>
      </trkpt>
      <trkpt lat="45.84366" lon="3.20578">
        <ele>317</ele>
        <time>2024-05-18T13:29:57Z</time>
      </trkpt>
      <trkpt lat="45.84364" lon="3.20588">
        <ele>317</ele>
        <time>2024-05-18T13:29:58Z</time>
      </trkpt>
      <trkpt lat="45.84361" lon="3.20598">
        <ele>317</ele>
        <time>2024-05-18T13:29:59Z</time>
      </trkpt>
      <trkpt lat="45.84358" lon="3.20607">
        <ele>317</ele>
        <time>2024-05-18T13:30:00Z</time>
      </trkpt>
      <trkpt lat="45.84355" lon="3.20617">
        <ele>317</ele>
        <time>2024-05-18T13:30:01Z</time>
      </trkpt>
      <trkpt lat="45.84351" lon="3.20626">
        <ele>317.2</ele>
        <time>2024-05-18T13:30:02Z</time>
      </trkpt>
      <trkpt lat="45.84348" lon="3.20635">
        <ele>317.2</ele>
        <time>2024-05-18T13:30:03Z</time>
      </trkpt>
      <trkpt lat="45.84344" lon="3.20644">
        <ele>317.2</ele>
        <time>2024-05-18T13:30:04Z</time>
      </trkpt>
      <trkpt lat="45.8434" lon="3.20653">
        <ele>317.2</ele>
        <time>2024-05-18T13:30:05Z</time>
      </trkpt>
      <trkpt lat="45.84336" lon="3.20661">
        <ele>317.2</ele>
        <time>2024-05-18T13:30:06Z</time>
      </trkpt>
      <trkpt lat="45.84332" lon="3.20669">
        <ele>317.2</ele>
        <time>2024-05-18T13:30:07Z</time>
      </trkpt>
      <trkpt lat="45.84327" lon="3.20677">
        <ele>317.2</ele>
        <time>2024-05-18T13:30:08Z</time>
      </trkpt>
      <trkpt lat="45.84323" lon="3.20685">
        <ele>317.2</ele>
        <time>2024-05-18T13:30:09Z</time>
      </trkpt>
      <trkpt lat="45.84318" lon="3.20693">
        <ele>317.2</ele>
        <time>2024-05-18T13:30:10Z</time>
      </trkpt>
      <trkpt lat="45.84314" lon="3.20701">
        <ele>317.2</ele>
        <time>2024-05-18T13:30:11Z</time>
      </trkpt>
      <trkpt lat="45.84309" lon="3.20709">
        <ele>317.2</ele>
        <time>2024-05-18T13:30:12Z</time>
      </trkpt>
      <trkpt lat="45.84305" lon="3.20717">
        <ele>317.2</ele>
        <time>2024-05-18T13:30:13Z</time>
      </trkpt>
      <trkpt lat="45.843" lon="3.20725">
        <ele>317.2</ele>
        <time>2024-05-18T13:30:14Z</time>
      </trkpt>
      <trkpt lat="45.84296" lon="3.20733">
        <ele>317.2</ele>
        <time>2024-05-18T13:30:15Z</time>
      </trkpt>
      <trkpt lat="45.84291" lon="3.20741">
        <ele>317.2</ele>
        <time>2024-05-18T13:30:16Z</time>
      </trkpt>
      <trkpt lat="45.84287" lon="3.2075">
        <ele>317.2</ele>
        <time>2024-05-18T13:30:17Z</time>
      </trkpt>
      <trkpt lat="45.84282" lon="3.20758">
        <ele>317.2</ele>
        <time>2024-05-18T13:30:18Z</time>
      </trkpt>
      <trkpt lat="45.84278" lon="3.20766">
        <ele>317.2</ele>
        <time>2024-05-18T13:30:19Z</time>
      </trkpt>
      <trkpt lat="45.84273" lon="3.20774">
        <ele>317.2</ele>
        <time>2024-05-18T13:30:20Z</time>
      </trkpt>
      <trkpt lat="45.84269" lon="3.20782">
        <ele>317.2</ele>
        <time>2024-05-18T13:30:21Z</time>
      </trkpt>
      <trkpt lat="45.84264" lon="3.20791">
        <ele>317.2</ele>
        <time>2024-05-18T13:30:22Z</time>
      </trkpt>
      <trkpt lat="45.8426" lon="3.20799">
        <ele>317.2</ele>
        <time>2024-05-18T13:30:23Z</time>
      </trkpt>
      <trkpt lat="45.84255" lon="3.20807">
        <ele>317.2</ele>
        <time>2024-05-18T13:30:24Z</time>
      </trkpt>
      <trkpt lat="45.84251" lon="3.20816">
        <ele>317.2</ele>
        <time>2024-05-18T13:30:25Z</time>
      </trkpt>
      <trkpt lat="45.84247" lon="3.20826">
        <ele>317.2</ele>
        <time>2024-05-18T13:30:26Z</time>
      </trkpt>
      <trkpt lat="45.84244" lon="3.20835">
        <ele>317.2</ele>
        <time>2024-05-18T13:30:27Z</time>
      </trkpt>
      <trkpt lat="45.84241" lon="3.20845">
        <ele>317.2</ele>
        <time>2024-05-18T13:30:28Z</time>
      </trkpt>
      <trkpt lat="45.84237" lon="3.20854">
        <ele>317.2</ele>
        <time>2024-05-18T13:30:29Z</time>
      </trkpt>
      <trkpt lat="45.84234" lon="3.20864">
        <ele>317.2</ele>
        <time>2024-05-18T13:30:30Z</time>
      </trkpt>
      <trkpt lat="45.84232" lon="3.20874">
        <ele>317.2</ele>
        <time>2024-05-18T13:30:31Z</time>
      </trkpt>
      <trkpt lat="45.84229" lon="3.20884">
        <ele>317.2</ele>
        <time>2024-05-18T13:30:32Z</time>
      </trkpt>
      <trkpt lat="45.84226" lon="3.20894">
        <ele>317.2</ele>
        <time>2024-05-18T13:30:33Z</time>
      </trkpt>
      <trkpt lat="45.84223" lon="3.20904">
        <ele>317.2</ele>
        <time>2024-05-18T13:30:34Z</time>
      </trkpt>
      <trkpt lat="45.84221" lon="3.20914">
        <ele>317.2</ele>
        <time>2024-05-18T13:30:35Z</time>
      </trkpt>
      <trkpt lat="45.84218" lon="3.20924">
        <ele>317.2</ele>
        <time>2024-05-18T13:30:36Z</time>
      </trkpt>
      <trkpt lat="45.84215" lon="3.20935">
        <ele>317.2</ele>
        <time>2024-05-18T13:30:37Z</time>
      </trkpt>
      <trkpt lat="45.84213" lon="3.20945">
        <ele>317.2</ele>
        <time>2024-05-18T13:30:38Z</time>
      </trkpt>
      <trkpt lat="45.8421" lon="3.20955">
        <ele>317.2</ele>
        <time>2024-05-18T13:30:39Z</time>
      </trkpt>
      <trkpt lat="45.84207" lon="3.20965">
        <ele>317</ele>
        <time>2024-05-18T13:30:40Z</time>
      </trkpt>
      <trkpt lat="45.84204" lon="3.20975">
        <ele>317.2</ele>
        <time>2024-05-18T13:30:41Z</time>
      </trkpt>
      <trkpt lat="45.84202" lon="3.20985">
        <ele>317</ele>
        <time>2024-05-18T13:30:42Z</time>
      </trkpt>
      <trkpt lat="45.84199" lon="3.20995">
        <ele>317</ele>
        <time>2024-05-18T13:30:43Z</time>
      </trkpt>
      <trkpt lat="45.84196" lon="3.21005">
        <ele>317</ele>
        <time>2024-05-18T13:30:44Z</time>
      </trkpt>
      <trkpt lat="45.84194" lon="3.21014">
        <ele>317</ele>
        <time>2024-05-18T13:30:45Z</time>
      </trkpt>
      <trkpt lat="45.84191" lon="3.21024">
        <ele>317</ele>
        <time>2024-05-18T13:30:46Z</time>
      </trkpt>
      <trkpt lat="45.84188" lon="3.21034">
        <ele>316.8</ele>
        <time>2024-05-18T13:30:47Z</time>
      </trkpt>
      <trkpt lat="45.84186" lon="3.21044">
        <ele>316.8</ele>
        <time>2024-05-18T13:30:48Z</time>
      </trkpt>
      <trkpt lat="45.84183" lon="3.21054">
        <ele>316.8</ele>
        <time>2024-05-18T13:30:49Z</time>
      </trkpt>
      <trkpt lat="45.8418" lon="3.21063">
        <ele>316.8</ele>
        <time>2024-05-18T13:30:50Z</time>
      </trkpt>
      <trkpt lat="45.84178" lon="3.21073">
        <ele>316.8</ele>
        <time>2024-05-18T13:30:51Z</time>
      </trkpt>
      <trkpt lat="45.84175" lon="3.21083">
        <ele>316.8</ele>
        <time>2024-05-18T13:30:52Z</time>
      </trkpt>
      <trkpt lat="45.84172" lon="3.21093">
        <ele>316.8</ele>
        <time>2024-05-18T13:30:53Z</time>
      </trkpt>
      <trkpt lat="45.8417" lon="3.21102">
        <ele>316.8</ele>
        <time>2024-05-18T13:30:54Z</time>
      </trkpt>
      <trkpt lat="45.84167" lon="3.21112">
        <ele>316.8</ele>
        <time>2024-05-18T13:30:55Z</time>
      </trkpt>
      <trkpt lat="45.84165" lon="3.21121">
        <ele>316.8</ele>
        <time>2024-05-18T13:30:56Z</time>
      </trkpt>
      <trkpt lat="45.84162" lon="3.21131">
        <ele>316.8</ele>
        <time>2024-05-18T13:30:57Z</time>
      </trkpt>
      <trkpt lat="45.8416" lon="3.21139">
        <ele>316.8</ele>
        <time>2024-05-18T13:30:58Z</time>
      </trkpt>
      <trkpt lat="45.84151" lon="3.21142">
        <ele>316.8</ele>
        <time>2024-05-18T13:30:59Z</time>
      </trkpt>
      <trkpt lat="45.84143" lon="3.21143">
        <ele>316.6</ele>
        <time>2024-05-18T13:31:00Z</time>
      </trkpt>
      <trkpt lat="45.84135" lon="3.21152">
        <ele>316.6</ele>
        <time>2024-05-18T13:31:01Z</time>
      </trkpt>
      <trkpt lat="45.84134" lon="3.21165">
        <ele>316.4</ele>
        <time>2024-05-18T13:31:02Z</time>
      </trkpt>
      <trkpt lat="45.84135" lon="3.21175">
        <ele>316.4</ele>
        <time>2024-05-18T13:31:03Z</time>
      </trkpt>
      <trkpt lat="45.84139" lon="3.21185">
        <ele>316.4</ele>
        <time>2024-05-18T13:31:04Z</time>
      </trkpt>
      <trkpt lat="45.84144" lon="3.21191">
        <ele>316.4</ele>
        <time>2024-05-18T13:31:05Z</time>
      </trkpt>
      <trkpt lat="45.84144" lon="3.21191">
        <ele>316.2</ele>
        <time>2024-05-18T13:31:06Z</time>
      </trkpt>
      <trkpt lat="45.84157" lon="3.21206">
        <ele>316.2</ele>
        <time>2024-05-18T13:31:07Z</time>
      </trkpt>
      <trkpt lat="45.84159" lon="3.21216">
        <ele>316.2</ele>
        <time>2024-05-18T13:31:08Z</time>
      </trkpt>
      <trkpt lat="45.8416" lon="3.21226">
        <ele>316</ele>
        <time>2024-05-18T13:31:09Z</time>
      </trkpt>
      <trkpt lat="45.84162" lon="3.21236">
        <ele>316</ele>
        <time>2024-05-18T13:31:10Z</time>
      </trkpt>
      <trkpt lat="45.84164" lon="3.21246">
        <ele>316</ele>
        <time>2024-05-18T13:31:11Z</time>
      </trkpt>
      <trkpt lat="45.84165" lon="3.21256">
        <ele>316</ele>
        <time>2024-05-18T13:31:12Z</time>
      </trkpt>
      <trkpt lat="45.84167" lon="3.21266">
        <ele>316</ele>
        <time>2024-05-18T13:31:13Z</time>
      </trkpt>
      <trkpt lat="45.84169" lon="3.21276">
        <ele>316</ele>
        <time>2024-05-18T13:31:14Z</time>
      </trkpt>
      <trkpt lat="45.8417" lon="3.21286">
        <ele>316</ele>
        <time>2024-05-18T13:31:15Z</time>
      </trkpt>
      <trkpt lat="45.84172" lon="3.21296">
        <ele>316</ele>
        <time>2024-05-18T13:31:16Z</time>
      </trkpt>
      <trkpt lat="45.84173" lon="3.21305">
        <ele>316</ele>
        <time>2024-05-18T13:31:17Z</time>
      </trkpt>
      <trkpt lat="45.84175" lon="3.21315">
        <ele>316</ele>
        <time>2024-05-18T13:31:18Z</time>
      </trkpt>
      <trkpt lat="45.84177" lon="3.21325">
        <ele>316</ele>
        <time>2024-05-18T13:31:19Z</time>
      </trkpt>
      <trkpt lat="45.84178" lon="3.21334">
        <ele>316</ele>
        <time>2024-05-18T13:31:20Z</time>
      </trkpt>
      <trkpt lat="45.8418" lon="3.21344">
        <ele>316</ele>
        <time>2024-05-18T13:31:21Z</time>
      </trkpt>
      <trkpt lat="45.84181" lon="3.21353">
        <ele>316</ele>
        <time>2024-05-18T13:31:22Z</time>
      </trkpt>
      <trkpt lat="45.84182" lon="3.21363">
        <ele>316</ele>
        <time>2024-05-18T13:31:23Z</time>
      </trkpt>
      <trkpt lat="45.84184" lon="3.21372">
        <ele>316</ele>
        <time>2024-05-18T13:31:24Z</time>
      </trkpt>
      <trkpt lat="45.84185" lon="3.21382">
        <ele>316</ele>
        <time>2024-05-18T13:31:25Z</time>
      </trkpt>
      <trkpt lat="45.84186" lon="3.21391">
        <ele>316</ele>
        <time>2024-05-18T13:31:26Z</time>
      </trkpt>
      <trkpt lat="45.84188" lon="3.21401">
        <ele>316</ele>
        <time>2024-05-18T13:31:27Z</time>
      </trkpt>
      <trkpt lat="45.84189" lon="3.2141">
        <ele>316</ele>
        <time>2024-05-18T13:31:28Z</time>
      </trkpt>
      <trkpt lat="45.84191" lon="3.2142">
        <ele>315.8</ele>
        <time>2024-05-18T13:31:29Z</time>
      </trkpt>
      <trkpt lat="45.84192" lon="3.2143">
        <ele>316</ele>
        <time>2024-05-18T13:31:30Z</time>
      </trkpt>
      <trkpt lat="45.84193" lon="3.2144">
        <ele>316</ele>
        <time>2024-05-18T13:31:31Z</time>
      </trkpt>
      <trkpt lat="45.84195" lon="3.21449">
        <ele>316.4</ele>
        <time>2024-05-18T13:31:32Z</time>
      </trkpt>
      <trkpt lat="45.84196" lon="3.21459">
        <ele>316.4</ele>
        <time>2024-05-18T13:31:33Z</time>
      </trkpt>
      <trkpt lat="45.84197" lon="3.21468">
        <ele>316.2</ele>
        <time>2024-05-18T13:31:34Z</time>
      </trkpt>
      <trkpt lat="45.84199" lon="3.21478">
        <ele>316.4</ele>
        <time>2024-05-18T13:31:35Z</time>
      </trkpt>
      <trkpt lat="45.842" lon="3.21488">
        <ele>316.4</ele>
        <time>2024-05-18T13:31:36Z</time>
      </trkpt>
      <trkpt lat="45.84201" lon="3.21497">
        <ele>316.2</ele>
        <time>2024-05-18T13:31:37Z</time>
      </trkpt>
      <trkpt lat="45.84202" lon="3.21508">
        <ele>316.2</ele>
        <time>2024-05-18T13:31:38Z</time>
      </trkpt>
      <trkpt lat="45.84201" lon="3.21517">
        <ele>316.4</ele>
        <time>2024-05-18T13:31:39Z</time>
      </trkpt>
      <trkpt lat="45.84201" lon="3.21527">
        <ele>316.4</ele>
        <time>2024-05-18T13:31:40Z</time>
      </trkpt>
      <trkpt lat="45.842" lon="3.21537">
        <ele>316.4</ele>
        <time>2024-05-18T13:31:41Z</time>
      </trkpt>
      <trkpt lat="45.84199" lon="3.21546">
        <ele>316.4</ele>
        <time>2024-05-18T13:31:42Z</time>
      </trkpt>
      <trkpt lat="45.84199" lon="3.21555">
        <ele>316.4</ele>
        <time>2024-05-18T13:31:43Z</time>
      </trkpt>
      <trkpt lat="45.84198" lon="3.21565">
        <ele>316.6</ele>
        <time>2024-05-18T13:31:44Z</time>
      </trkpt>
      <trkpt lat="45.84198" lon="3.21574">
        <ele>316.6</ele>
        <time>2024-05-18T13:31:45Z</time>
      </trkpt>
      <trkpt lat="45.84197" lon="3.21584">
        <ele>316.6</ele>
        <time>2024-05-18T13:31:46Z</time>
      </trkpt>
      <trkpt lat="45.84197" lon="3.21593">
        <ele>316.6</ele>
        <time>2024-05-18T13:31:47Z</time>
      </trkpt>
      <trkpt lat="45.84196" lon="3.21602">
        <ele>316.6</ele>
        <time>2024-05-18T13:31:48Z</time>
      </trkpt>
      <trkpt lat="45.84195" lon="3.21612">
        <ele>316.6</ele>
        <time>2024-05-18T13:31:49Z</time>
      </trkpt>
      <trkpt lat="45.84195" lon="3.21621">
        <ele>316.6</ele>
        <time>2024-05-18T13:31:50Z</time>
      </trkpt>
      <trkpt lat="45.84194" lon="3.2163">
        <ele>316.6</ele>
        <time>2024-05-18T13:31:51Z</time>
      </trkpt>
      <trkpt lat="45.84194" lon="3.2164">
        <ele>316.6</ele>
        <time>2024-05-18T13:31:52Z</time>
      </trkpt>
      <trkpt lat="45.84193" lon="3.21649">
        <ele>316.8</ele>
        <time>2024-05-18T13:31:53Z</time>
      </trkpt>
      <trkpt lat="45.84193" lon="3.21659">
        <ele>316.8</ele>
        <time>2024-05-18T13:31:54Z</time>
      </trkpt>
      <trkpt lat="45.84192" lon="3.21668">
        <ele>316.8</ele>
        <time>2024-05-18T13:31:55Z</time>
      </trkpt>
      <trkpt lat="45.84191" lon="3.21678">
        <ele>316.8</ele>
        <time>2024-05-18T13:31:56Z</time>
      </trkpt>
      <trkpt lat="45.84191" lon="3.21687">
        <ele>316.8</ele>
        <time>2024-05-18T13:31:57Z</time>
      </trkpt>
      <trkpt lat="45.8419" lon="3.21697">
        <ele>316.8</ele>
        <time>2024-05-18T13:31:58Z</time>
      </trkpt>
      <trkpt lat="45.8419" lon="3.21706">
        <ele>316.8</ele>
        <time>2024-05-18T13:31:59Z</time>
      </trkpt>
      <trkpt lat="45.84189" lon="3.21716">
        <ele>317</ele>
        <time>2024-05-18T13:32:00Z</time>
      </trkpt>
      <trkpt lat="45.84189" lon="3.21725">
        <ele>317</ele>
        <time>2024-05-18T13:32:01Z</time>
      </trkpt>
      <trkpt lat="45.84188" lon="3.21735">
        <ele>317</ele>
        <time>2024-05-18T13:32:02Z</time>
      </trkpt>
      <trkpt lat="45.84187" lon="3.21744">
        <ele>317</ele>
        <time>2024-05-18T13:32:03Z</time>
      </trkpt>
      <trkpt lat="45.84187" lon="3.21754">
        <ele>317.2</ele>
        <time>2024-05-18T13:32:04Z</time>
      </trkpt>
      <trkpt lat="45.84186" lon="3.21763">
        <ele>317.2</ele>
        <time>2024-05-18T13:32:05Z</time>
      </trkpt>
      <trkpt lat="45.84186" lon="3.21773">
        <ele>317.2</ele>
        <time>2024-05-18T13:32:06Z</time>
      </trkpt>
      <trkpt lat="45.84185" lon="3.21782">
        <ele>317.2</ele>
        <time>2024-05-18T13:32:07Z</time>
      </trkpt>
      <trkpt lat="45.84185" lon="3.21792">
        <ele>317.4</ele>
        <time>2024-05-18T13:32:08Z</time>
      </trkpt>
      <trkpt lat="45.84184" lon="3.21801">
        <ele>317.4</ele>
        <time>2024-05-18T13:32:09Z</time>
      </trkpt>
      <trkpt lat="45.84183" lon="3.21811">
        <ele>317.4</ele>
        <time>2024-05-18T13:32:10Z</time>
      </trkpt>
      <trkpt lat="45.84183" lon="3.2182">
        <ele>317.4</ele>
        <time>2024-05-18T13:32:11Z</time>
      </trkpt>
      <trkpt lat="45.84182" lon="3.2183">
        <ele>317.6</ele>
        <time>2024-05-18T13:32:12Z</time>
      </trkpt>
      <trkpt lat="45.84182" lon="3.2184">
        <ele>317.6</ele>
        <time>2024-05-18T13:32:13Z</time>
      </trkpt>
      <trkpt lat="45.84181" lon="3.21849">
        <ele>317.6</ele>
        <time>2024-05-18T13:32:14Z</time>
      </trkpt>
      <trkpt lat="45.84181" lon="3.21859">
        <ele>317.6</ele>
        <time>2024-05-18T13:32:15Z</time>
      </trkpt>
      <trkpt lat="45.8418" lon="3.21868">
        <ele>317.6</ele>
        <time>2024-05-18T13:32:16Z</time>
      </trkpt>
      <trkpt lat="45.84179" lon="3.21878">
        <ele>317.8</ele>
        <time>2024-05-18T13:32:17Z</time>
      </trkpt>
      <trkpt lat="45.84179" lon="3.21888">
        <ele>317.8</ele>
        <time>2024-05-18T13:32:18Z</time>
      </trkpt>
      <trkpt lat="45.84178" lon="3.21898">
        <ele>317.8</ele>
        <time>2024-05-18T13:32:19Z</time>
      </trkpt>
      <trkpt lat="45.84178" lon="3.21907">
        <ele>317.8</ele>
        <time>2024-05-18T13:32:20Z</time>
      </trkpt>
      <trkpt lat="45.84177" lon="3.21917">
        <ele>318</ele>
        <time>2024-05-18T13:32:21Z</time>
      </trkpt>
      <trkpt lat="45.84176" lon="3.21927">
        <ele>318</ele>
        <time>2024-05-18T13:32:22Z</time>
      </trkpt>
      <trkpt lat="45.84176" lon="3.21937">
        <ele>318</ele>
        <time>2024-05-18T13:32:23Z</time>
      </trkpt>
      <trkpt lat="45.84175" lon="3.21947">
        <ele>318</ele>
        <time>2024-05-18T13:32:24Z</time>
      </trkpt>
      <trkpt lat="45.84175" lon="3.21957">
        <ele>318</ele>
        <time>2024-05-18T13:32:25Z</time>
      </trkpt>
      <trkpt lat="45.84174" lon="3.21967">
        <ele>318.2</ele>
        <time>2024-05-18T13:32:26Z</time>
      </trkpt>
      <trkpt lat="45.84173" lon="3.21977">
        <ele>318.2</ele>
        <time>2024-05-18T13:32:27Z</time>
      </trkpt>
      <trkpt lat="45.84173" lon="3.21987">
        <ele>318.2</ele>
        <time>2024-05-18T13:32:28Z</time>
      </trkpt>
      <trkpt lat="45.84172" lon="3.21997">
        <ele>318.2</ele>
        <time>2024-05-18T13:32:29Z</time>
      </trkpt>
      <trkpt lat="45.84171" lon="3.22007">
        <ele>318.4</ele>
        <time>2024-05-18T13:32:30Z</time>
      </trkpt>
      <trkpt lat="45.8417" lon="3.22017">
        <ele>318.4</ele>
        <time>2024-05-18T13:32:31Z</time>
      </trkpt>
      <trkpt lat="45.84169" lon="3.22027">
        <ele>318.4</ele>
        <time>2024-05-18T13:32:32Z</time>
      </trkpt>
      <trkpt lat="45.84168" lon="3.22037">
        <ele>318.4</ele>
        <time>2024-05-18T13:32:33Z</time>
      </trkpt>
      <trkpt lat="45.84167" lon="3.22046">
        <ele>318.4</ele>
        <time>2024-05-18T13:32:34Z</time>
      </trkpt>
      <trkpt lat="45.84166" lon="3.22056">
        <ele>318.4</ele>
        <time>2024-05-18T13:32:35Z</time>
      </trkpt>
      <trkpt lat="45.84165" lon="3.22066">
        <ele>318.4</ele>
        <time>2024-05-18T13:32:36Z</time>
      </trkpt>
      <trkpt lat="45.84163" lon="3.22075">
        <ele>318.4</ele>
        <time>2024-05-18T13:32:37Z</time>
      </trkpt>
      <trkpt lat="45.84161" lon="3.22084">
        <ele>318.4</ele>
        <time>2024-05-18T13:32:38Z</time>
      </trkpt>
      <trkpt lat="45.84159" lon="3.22094">
        <ele>318.4</ele>
        <time>2024-05-18T13:32:39Z</time>
      </trkpt>
      <trkpt lat="45.84157" lon="3.22103">
        <ele>318.6</ele>
        <time>2024-05-18T13:32:40Z</time>
      </trkpt>
      <trkpt lat="45.84155" lon="3.22112">
        <ele>318.6</ele>
        <time>2024-05-18T13:32:41Z</time>
      </trkpt>
      <trkpt lat="45.84151" lon="3.22122">
        <ele>318.6</ele>
        <time>2024-05-18T13:32:42Z</time>
      </trkpt>
      <trkpt lat="45.84148" lon="3.2213">
        <ele>318.6</ele>
        <time>2024-05-18T13:32:43Z</time>
      </trkpt>
      <trkpt lat="45.84144" lon="3.22138">
        <ele>318.6</ele>
        <time>2024-05-18T13:32:44Z</time>
      </trkpt>
      <trkpt lat="45.8414" lon="3.22147">
        <ele>318.6</ele>
        <time>2024-05-18T13:32:45Z</time>
      </trkpt>
      <trkpt lat="45.84136" lon="3.22155">
        <ele>318.6</ele>
        <time>2024-05-18T13:32:46Z</time>
      </trkpt>
      <trkpt lat="45.84132" lon="3.22163">
        <ele>318.8</ele>
        <time>2024-05-18T13:32:47Z</time>
      </trkpt>
      <trkpt lat="45.84127" lon="3.22171">
        <ele>318.8</ele>
        <time>2024-05-18T13:32:48Z</time>
      </trkpt>
      <trkpt lat="45.84123" lon="3.2218">
        <ele>318.8</ele>
        <time>2024-05-18T13:32:49Z</time>
      </trkpt>
      <trkpt lat="45.84119" lon="3.22188">
        <ele>318.8</ele>
        <time>2024-05-18T13:32:50Z</time>
      </trkpt>
      <trkpt lat="45.84115" lon="3.22197">
        <ele>319</ele>
        <time>2024-05-18T13:32:51Z</time>
      </trkpt>
      <trkpt lat="45.8411" lon="3.22206">
        <ele>319</ele>
        <time>2024-05-18T13:32:52Z</time>
      </trkpt>
      <trkpt lat="45.84106" lon="3.22214">
        <ele>319.2</ele>
        <time>2024-05-18T13:32:53Z</time>
      </trkpt>
      <trkpt lat="45.84102" lon="3.22223">
        <ele>319.2</ele>
        <time>2024-05-18T13:32:54Z</time>
      </trkpt>
      <trkpt lat="45.84098" lon="3.22232">
        <ele>319.2</ele>
        <time>2024-05-18T13:32:55Z</time>
      </trkpt>
      <trkpt lat="45.84093" lon="3.22241">
        <ele>319.2</ele>
        <time>2024-05-18T13:32:56Z</time>
      </trkpt>
      <trkpt lat="45.84089" lon="3.22249">
        <ele>319.2</ele>
        <time>2024-05-18T13:32:57Z</time>
      </trkpt>
      <trkpt lat="45.84085" lon="3.22258">
        <ele>319.2</ele>
        <time>2024-05-18T13:32:58Z</time>
      </trkpt>
      <trkpt lat="45.8408" lon="3.22267">
        <ele>319.2</ele>
        <time>2024-05-18T13:32:59Z</time>
      </trkpt>
      <trkpt lat="45.84076" lon="3.22275">
        <ele>319.4</ele>
        <time>2024-05-18T13:33:00Z</time>
      </trkpt>
      <trkpt lat="45.84072" lon="3.22284">
        <ele>319.2</ele>
        <time>2024-05-18T13:33:01Z</time>
      </trkpt>
      <trkpt lat="45.84067" lon="3.22293">
        <ele>319.2</ele>
        <time>2024-05-18T13:33:02Z</time>
      </trkpt>
      <trkpt lat="45.84063" lon="3.22302">
        <ele>319.4</ele>
        <time>2024-05-18T13:33:03Z</time>
      </trkpt>
      <trkpt lat="45.84059" lon="3.22311">
        <ele>319.4</ele>
        <time>2024-05-18T13:33:04Z</time>
      </trkpt>
      <trkpt lat="45.84054" lon="3.22319">
        <ele>319.4</ele>
        <time>2024-05-18T13:33:05Z</time>
      </trkpt>
      <trkpt lat="45.8405" lon="3.22328">
        <ele>319.4</ele>
        <time>2024-05-18T13:33:06Z</time>
      </trkpt>
      <trkpt lat="45.84045" lon="3.22337">
        <ele>319.6</ele>
        <time>2024-05-18T13:33:07Z</time>
      </trkpt>
      <trkpt lat="45.84042" lon="3.22346">
        <ele>319.6</ele>
        <time>2024-05-18T13:33:08Z</time>
      </trkpt>
      <trkpt lat="45.84039" lon="3.22355">
        <ele>319.6</ele>
        <time>2024-05-18T13:33:09Z</time>
      </trkpt>
      <trkpt lat="45.84035" lon="3.22365">
        <ele>319.6</ele>
        <time>2024-05-18T13:33:10Z</time>
      </trkpt>
      <trkpt lat="45.84032" lon="3.22374">
        <ele>319.6</ele>
        <time>2024-05-18T13:33:11Z</time>
      </trkpt>
      <trkpt lat="45.84028" lon="3.22383">
        <ele>319.6</ele>
        <time>2024-05-18T13:33:12Z</time>
      </trkpt>
      <trkpt lat="45.84025" lon="3.22392">
        <ele>319.8</ele>
        <time>2024-05-18T13:33:13Z</time>
      </trkpt>
      <trkpt lat="45.84021" lon="3.22401">
        <ele>319.8</ele>
        <time>2024-05-18T13:33:14Z</time>
      </trkpt>
      <trkpt lat="45.84019" lon="3.2241">
        <ele>319.8</ele>
        <time>2024-05-18T13:33:15Z</time>
      </trkpt>
      <trkpt lat="45.84017" lon="3.2242">
        <ele>319.8</ele>
        <time>2024-05-18T13:33:16Z</time>
      </trkpt>
      <trkpt lat="45.84016" lon="3.22429">
        <ele>319.8</ele>
        <time>2024-05-18T13:33:17Z</time>
      </trkpt>
      <trkpt lat="45.84014" lon="3.22439">
        <ele>319.8</ele>
        <time>2024-05-18T13:33:18Z</time>
      </trkpt>
      <trkpt lat="45.84013" lon="3.22449">
        <ele>319.8</ele>
        <time>2024-05-18T13:33:19Z</time>
      </trkpt>
      <trkpt lat="45.84011" lon="3.22458">
        <ele>319.8</ele>
        <time>2024-05-18T13:33:20Z</time>
      </trkpt>
      <trkpt lat="45.8401" lon="3.22468">
        <ele>320</ele>
        <time>2024-05-18T13:33:21Z</time>
      </trkpt>
      <trkpt lat="45.8401" lon="3.22477">
        <ele>320</ele>
        <time>2024-05-18T13:33:22Z</time>
      </trkpt>
      <trkpt lat="45.84009" lon="3.22487">
        <ele>320</ele>
        <time>2024-05-18T13:33:23Z</time>
      </trkpt>
      <trkpt lat="45.84008" lon="3.22497">
        <ele>320</ele>
        <time>2024-05-18T13:33:24Z</time>
      </trkpt>
      <trkpt lat="45.84008" lon="3.22506">
        <ele>320</ele>
        <time>2024-05-18T13:33:25Z</time>
      </trkpt>
      <trkpt lat="45.84007" lon="3.22516">
        <ele>320</ele>
        <time>2024-05-18T13:33:26Z</time>
      </trkpt>
      <trkpt lat="45.84006" lon="3.22526">
        <ele>320.2</ele>
        <time>2024-05-18T13:33:27Z</time>
      </trkpt>
      <trkpt lat="45.84006" lon="3.22536">
        <ele>320.2</ele>
        <time>2024-05-18T13:33:28Z</time>
      </trkpt>
      <trkpt lat="45.84005" lon="3.22545">
        <ele>320.2</ele>
        <time>2024-05-18T13:33:29Z</time>
      </trkpt>
      <trkpt lat="45.84004" lon="3.22555">
        <ele>320.2</ele>
        <time>2024-05-18T13:33:30Z</time>
      </trkpt>
      <trkpt lat="45.84003" lon="3.22564">
        <ele>320.4</ele>
        <time>2024-05-18T13:33:31Z</time>
      </trkpt>
      <trkpt lat="45.84003" lon="3.22574">
        <ele>320.4</ele>
        <time>2024-05-18T13:33:32Z</time>
      </trkpt>
      <trkpt lat="45.84002" lon="3.22583">
        <ele>320.4</ele>
        <time>2024-05-18T13:33:33Z</time>
      </trkpt>
      <trkpt lat="45.84001" lon="3.22593">
        <ele>320.4</ele>
        <time>2024-05-18T13:33:34Z</time>
      </trkpt>
      <trkpt lat="45.84001" lon="3.22602">
        <ele>320.6</ele>
        <time>2024-05-18T13:33:35Z</time>
      </trkpt>
      <trkpt lat="45.84" lon="3.22611">
        <ele>320.6</ele>
        <time>2024-05-18T13:33:36Z</time>
      </trkpt>
      <trkpt lat="45.83999" lon="3.22621">
        <ele>320.6</ele>
        <time>2024-05-18T13:33:37Z</time>
      </trkpt>
      <trkpt lat="45.83999" lon="3.22631">
        <ele>320.8</ele>
        <time>2024-05-18T13:33:38Z</time>
      </trkpt>
      <trkpt lat="45.83998" lon="3.2264">
        <ele>320.8</ele>
        <time>2024-05-18T13:33:39Z</time>
      </trkpt>
      <trkpt lat="45.83998" lon="3.2265">
        <ele>320.8</ele>
        <time>2024-05-18T13:33:40Z</time>
      </trkpt>
      <trkpt lat="45.83997" lon="3.2266">
        <ele>320.8</ele>
        <time>2024-05-18T13:33:41Z</time>
      </trkpt>
      <trkpt lat="45.83997" lon="3.2267">
        <ele>320.8</ele>
        <time>2024-05-18T13:33:42Z</time>
      </trkpt>
      <trkpt lat="45.83997" lon="3.2268">
        <ele>320.8</ele>
        <time>2024-05-18T13:33:43Z</time>
      </trkpt>
      <trkpt lat="45.83996" lon="3.22691">
        <ele>321</ele>
        <time>2024-05-18T13:33:44Z</time>
      </trkpt>
      <trkpt lat="45.83996" lon="3.22701">
        <ele>321</ele>
        <time>2024-05-18T13:33:45Z</time>
      </trkpt>
      <trkpt lat="45.83995" lon="3.22711">
        <ele>321</ele>
        <time>2024-05-18T13:33:46Z</time>
      </trkpt>
      <trkpt lat="45.83995" lon="3.22722">
        <ele>321</ele>
        <time>2024-05-18T13:33:47Z</time>
      </trkpt>
      <trkpt lat="45.83995" lon="3.22732">
        <ele>321</ele>
        <time>2024-05-18T13:33:48Z</time>
      </trkpt>
      <trkpt lat="45.83994" lon="3.22742">
        <ele>321</ele>
        <time>2024-05-18T13:33:49Z</time>
      </trkpt>
      <trkpt lat="45.83994" lon="3.22753">
        <ele>321</ele>
        <time>2024-05-18T13:33:50Z</time>
      </trkpt>
      <trkpt lat="45.83994" lon="3.22764">
        <ele>321</ele>
        <time>2024-05-18T13:33:51Z</time>
      </trkpt>
      <trkpt lat="45.83995" lon="3.22774">
        <ele>321</ele>
        <time>2024-05-18T13:33:52Z</time>
      </trkpt>
      <trkpt lat="45.83995" lon="3.22785">
        <ele>321</ele>
        <time>2024-05-18T13:33:53Z</time>
      </trkpt>
      <trkpt lat="45.83995" lon="3.22796">
        <ele>321</ele>
        <time>2024-05-18T13:33:54Z</time>
      </trkpt>
      <trkpt lat="45.83996" lon="3.22806">
        <ele>321</ele>
        <time>2024-05-18T13:33:55Z</time>
      </trkpt>
      <trkpt lat="45.83996" lon="3.22817">
        <ele>321</ele>
        <time>2024-05-18T13:33:56Z</time>
      </trkpt>
      <trkpt lat="45.83996" lon="3.22827">
        <ele>321.2</ele>
        <time>2024-05-18T13:33:57Z</time>
      </trkpt>
      <trkpt lat="45.83997" lon="3.22837">
        <ele>321</ele>
        <time>2024-05-18T13:33:58Z</time>
      </trkpt>
      <trkpt lat="45.83997" lon="3.22848">
        <ele>321</ele>
        <time>2024-05-18T13:33:59Z</time>
      </trkpt>
      <trkpt lat="45.83997" lon="3.22858">
        <ele>321.2</ele>
        <time>2024-05-18T13:34:00Z</time>
      </trkpt>
      <trkpt lat="45.83998" lon="3.22868">
        <ele>321.2</ele>
        <time>2024-05-18T13:34:01Z</time>
      </trkpt>
      <trkpt lat="45.83998" lon="3.22878">
        <ele>321.2</ele>
        <time>2024-05-18T13:34:02Z</time>
      </trkpt>
      <trkpt lat="45.83998" lon="3.22888">
        <ele>321.2</ele>
        <time>2024-05-18T13:34:03Z</time>
      </trkpt>
      <trkpt lat="45.83999" lon="3.22898">
        <ele>321.2</ele>
        <time>2024-05-18T13:34:04Z</time>
      </trkpt>
      <trkpt lat="45.83999" lon="3.22907">
        <ele>321.2</ele>
        <time>2024-05-18T13:34:05Z</time>
      </trkpt>
      <trkpt lat="45.84" lon="3.22917">
        <ele>321.4</ele>
        <time>2024-05-18T13:34:06Z</time>
      </trkpt>
      <trkpt lat="45.84" lon="3.22926">
        <ele>321.4</ele>
        <time>2024-05-18T13:34:07Z</time>
      </trkpt>
      <trkpt lat="45.84001" lon="3.22935">
        <ele>321.4</ele>
        <time>2024-05-18T13:34:08Z</time>
      </trkpt>
      <trkpt lat="45.84001" lon="3.22945">
        <ele>321.4</ele>
        <time>2024-05-18T13:34:09Z</time>
      </trkpt>
      <trkpt lat="45.84002" lon="3.22954">
        <ele>321.4</ele>
        <time>2024-05-18T13:34:10Z</time>
      </trkpt>
      <trkpt lat="45.84002" lon="3.22963">
        <ele>321.4</ele>
        <time>2024-05-18T13:34:11Z</time>
      </trkpt>
      <trkpt lat="45.84003" lon="3.22973">
        <ele>321.6</ele>
        <time>2024-05-18T13:34:12Z</time>
      </trkpt>
      <trkpt lat="45.84003" lon="3.22982">
        <ele>321.6</ele>
        <time>2024-05-18T13:34:13Z</time>
      </trkpt>
      <trkpt lat="45.84004" lon="3.22991">
        <ele>321.6</ele>
        <time>2024-05-18T13:34:14Z</time>
      </trkpt>
      <trkpt lat="45.84004" lon="3.23">
        <ele>321.6</ele>
        <time>2024-05-18T13:34:15Z</time>
      </trkpt>
      <trkpt lat="45.84004" lon="3.23009">
        <ele>321.6</ele>
        <time>2024-05-18T13:34:16Z</time>
      </trkpt>
      <trkpt lat="45.84005" lon="3.23019">
        <ele>321.6</ele>
        <time>2024-05-18T13:34:17Z</time>
      </trkpt>
      <trkpt lat="45.84005" lon="3.23028">
        <ele>321.8</ele>
        <time>2024-05-18T13:34:18Z</time>
      </trkpt>
      <trkpt lat="45.84006" lon="3.23037">
        <ele>321.8</ele>
        <time>2024-05-18T13:34:19Z</time>
      </trkpt>
      <trkpt lat="45.84006" lon="3.23046">
        <ele>321.8</ele>
        <time>2024-05-18T13:34:20Z</time>
      </trkpt>
      <trkpt lat="45.84007" lon="3.23056">
        <ele>321.8</ele>
        <time>2024-05-18T13:34:21Z</time>
      </trkpt>
      <trkpt lat="45.84008" lon="3.23064">
        <ele>321.8</ele>
        <time>2024-05-18T13:34:22Z</time>
      </trkpt>
      <trkpt lat="45.84008" lon="3.23073">
        <ele>322</ele>
        <time>2024-05-18T13:34:23Z</time>
      </trkpt>
      <trkpt lat="45.84009" lon="3.23082">
        <ele>322</ele>
        <time>2024-05-18T13:34:24Z</time>
      </trkpt>
      <trkpt lat="45.84009" lon="3.2309">
        <ele>322</ele>
        <time>2024-05-18T13:34:25Z</time>
      </trkpt>
      <trkpt lat="45.8401" lon="3.23098">
        <ele>322.2</ele>
        <time>2024-05-18T13:34:26Z</time>
      </trkpt>
      <trkpt lat="45.84011" lon="3.23106">
        <ele>322.2</ele>
        <time>2024-05-18T13:34:27Z</time>
      </trkpt>
      <trkpt lat="45.84011" lon="3.23115">
        <ele>322.2</ele>
        <time>2024-05-18T13:34:28Z</time>
      </trkpt>
      <trkpt lat="45.84012" lon="3.23123">
        <ele>322.4</ele>
        <time>2024-05-18T13:34:29Z</time>
      </trkpt>
      <trkpt lat="45.84012" lon="3.23131">
        <ele>322.4</ele>
        <time>2024-05-18T13:34:30Z</time>
      </trkpt>
      <trkpt lat="45.84013" lon="3.23139">
        <ele>322.4</ele>
        <time>2024-05-18T13:34:31Z</time>
      </trkpt>
      <trkpt lat="45.84013" lon="3.23148">
        <ele>322.6</ele>
        <time>2024-05-18T13:34:32Z</time>
      </trkpt>
      <trkpt lat="45.84014" lon="3.23156">
        <ele>322.6</ele>
        <time>2024-05-18T13:34:33Z</time>
      </trkpt>
      <trkpt lat="45.84015" lon="3.23165">
        <ele>322.6</ele>
        <time>2024-05-18T13:34:34Z</time>
      </trkpt>
      <trkpt lat="45.84015" lon="3.23174">
        <ele>322.8</ele>
        <time>2024-05-18T13:34:35Z</time>
      </trkpt>
      <trkpt lat="45.84016" lon="3.23182">
        <ele>322.8</ele>
        <time>2024-05-18T13:34:36Z</time>
      </trkpt>
      <trkpt lat="45.84016" lon="3.23191">
        <ele>323</ele>
        <time>2024-05-18T13:34:37Z</time>
      </trkpt>
      <trkpt lat="45.84017" lon="3.23199">
        <ele>323</ele>
        <time>2024-05-18T13:34:38Z</time>
      </trkpt>
      <trkpt lat="45.84018" lon="3.23208">
        <ele>323</ele>
        <time>2024-05-18T13:34:39Z</time>
      </trkpt>
      <trkpt lat="45.84018" lon="3.23217">
        <ele>323.2</ele>
        <time>2024-05-18T13:34:40Z</time>
      </trkpt>
      <trkpt lat="45.84019" lon="3.23225">
        <ele>323.2</ele>
        <time>2024-05-18T13:34:41Z</time>
      </trkpt>
      <trkpt lat="45.8402" lon="3.23233">
        <ele>323.4</ele>
        <time>2024-05-18T13:34:42Z</time>
      </trkpt>
      <trkpt lat="45.8402" lon="3.23242">
        <ele>323.4</ele>
        <time>2024-05-18T13:34:43Z</time>
      </trkpt>
      <trkpt lat="45.84021" lon="3.23249">
        <ele>323.6</ele>
        <time>2024-05-18T13:34:44Z</time>
      </trkpt>
      <trkpt lat="45.84021" lon="3.23257">
        <ele>323.6</ele>
        <time>2024-05-18T13:34:45Z</time>
      </trkpt>
      <trkpt lat="45.84022" lon="3.23266">
        <ele>323.8</ele>
        <time>2024-05-18T13:34:46Z</time>
      </trkpt>
      <trkpt lat="45.84022" lon="3.23274">
        <ele>323.8</ele>
        <time>2024-05-18T13:34:47Z</time>
      </trkpt>
      <trkpt lat="45.84023" lon="3.23282">
        <ele>324</ele>
        <time>2024-05-18T13:34:48Z</time>
      </trkpt>
      <trkpt lat="45.84024" lon="3.2329">
        <ele>324</ele>
        <time>2024-05-18T13:34:49Z</time>
      </trkpt>
      <trkpt lat="45.84024" lon="3.23298">
        <ele>324</ele>
        <time>2024-05-18T13:34:50Z</time>
      </trkpt>
      <trkpt lat="45.84025" lon="3.23307">
        <ele>324.2</ele>
        <time>2024-05-18T13:34:51Z</time>
      </trkpt>
      <trkpt lat="45.84025" lon="3.23315">
        <ele>324.2</ele>
        <time>2024-05-18T13:34:52Z</time>
      </trkpt>
      <trkpt lat="45.84026" lon="3.23324">
        <ele>324.4</ele>
        <time>2024-05-18T13:34:53Z</time>
      </trkpt>
      <trkpt lat="45.84027" lon="3.23332">
        <ele>324.4</ele>
        <time>2024-05-18T13:34:54Z</time>
      </trkpt>
      <trkpt lat="45.84027" lon="3.23341">
        <ele>324.4</ele>
        <time>2024-05-18T13:34:55Z</time>
      </trkpt>
      <trkpt lat="45.84028" lon="3.2335">
        <ele>324.4</ele>
        <time>2024-05-18T13:34:56Z</time>
      </trkpt>
      <trkpt lat="45.84028" lon="3.23359">
        <ele>324.4</ele>
        <time>2024-05-18T13:34:57Z</time>
      </trkpt>
      <trkpt lat="45.84029" lon="3.23368">
        <ele>324.6</ele>
        <time>2024-05-18T13:34:58Z</time>
      </trkpt>
      <trkpt lat="45.8403" lon="3.23377">
        <ele>324.6</ele>
        <time>2024-05-18T13:34:59Z</time>
      </trkpt>
      <trkpt lat="45.8403" lon="3.23387">
        <ele>324.6</ele>
        <time>2024-05-18T13:35:00Z</time>
      </trkpt>
      <trkpt lat="45.84031" lon="3.23396">
        <ele>324.6</ele>
        <time>2024-05-18T13:35:01Z</time>
      </trkpt>
      <trkpt lat="45.84032" lon="3.23405">
        <ele>324.8</ele>
        <time>2024-05-18T13:35:02Z</time>
      </trkpt>
      <trkpt lat="45.84032" lon="3.23415">
        <ele>324.8</ele>
        <time>2024-05-18T13:35:03Z</time>
      </trkpt>
      <trkpt lat="45.84033" lon="3.23425">
        <ele>324.8</ele>
        <time>2024-05-18T13:35:04Z</time>
      </trkpt>
      <trkpt lat="45.84034" lon="3.23434">
        <ele>324.8</ele>
        <time>2024-05-18T13:35:05Z</time>
      </trkpt>
      <trkpt lat="45.84034" lon="3.23444">
        <ele>324.8</ele>
        <time>2024-05-18T13:35:06Z</time>
      </trkpt>
      <trkpt lat="45.84035" lon="3.23454">
        <ele>324.8</ele>
        <time>2024-05-18T13:35:07Z</time>
      </trkpt>
      <trkpt lat="45.84036" lon="3.23464">
        <ele>324.8</ele>
        <time>2024-05-18T13:35:08Z</time>
      </trkpt>
      <trkpt lat="45.84036" lon="3.23474">
        <ele>324.8</ele>
        <time>2024-05-18T13:35:09Z</time>
      </trkpt>
      <trkpt lat="45.84037" lon="3.23484">
        <ele>324.8</ele>
        <time>2024-05-18T13:35:10Z</time>
      </trkpt>
      <trkpt lat="45.84038" lon="3.23494">
        <ele>324.8</ele>
        <time>2024-05-18T13:35:11Z</time>
      </trkpt>
      <trkpt lat="45.84039" lon="3.23504">
        <ele>324.8</ele>
        <time>2024-05-18T13:35:12Z</time>
      </trkpt>
      <trkpt lat="45.84039" lon="3.23515">
        <ele>324.8</ele>
        <time>2024-05-18T13:35:13Z</time>
      </trkpt>
      <trkpt lat="45.8404" lon="3.23525">
        <ele>324.8</ele>
        <time>2024-05-18T13:35:14Z</time>
      </trkpt>
      <trkpt lat="45.84041" lon="3.23536">
        <ele>324.8</ele>
        <time>2024-05-18T13:35:15Z</time>
      </trkpt>
      <trkpt lat="45.84041" lon="3.23547">
        <ele>324.8</ele>
        <time>2024-05-18T13:35:16Z</time>
      </trkpt>
      <trkpt lat="45.84042" lon="3.23558">
        <ele>324.8</ele>
        <time>2024-05-18T13:35:17Z</time>
      </trkpt>
      <trkpt lat="45.84043" lon="3.23569">
        <ele>324.8</ele>
        <time>2024-05-18T13:35:18Z</time>
      </trkpt>
      <trkpt lat="45.84044" lon="3.23579">
        <ele>324.8</ele>
        <time>2024-05-18T13:35:19Z</time>
      </trkpt>
      <trkpt lat="45.84044" lon="3.2359">
        <ele>324.8</ele>
        <time>2024-05-18T13:35:20Z</time>
      </trkpt>
      <trkpt lat="45.84045" lon="3.236">
        <ele>324.8</ele>
        <time>2024-05-18T13:35:21Z</time>
      </trkpt>
      <trkpt lat="45.84046" lon="3.2361">
        <ele>324.8</ele>
        <time>2024-05-18T13:35:22Z</time>
      </trkpt>
      <trkpt lat="45.84048" lon="3.23621">
        <ele>324.8</ele>
        <time>2024-05-18T13:35:23Z</time>
      </trkpt>
      <trkpt lat="45.84049" lon="3.23631">
        <ele>325</ele>
        <time>2024-05-18T13:35:24Z</time>
      </trkpt>
      <trkpt lat="45.84051" lon="3.23642">
        <ele>325</ele>
        <time>2024-05-18T13:35:25Z</time>
      </trkpt>
      <trkpt lat="45.84052" lon="3.23652">
        <ele>325</ele>
        <time>2024-05-18T13:35:26Z</time>
      </trkpt>
      <trkpt lat="45.84052" lon="3.23652">
        <ele>325</ele>
        <time>2024-05-18T13:35:27Z</time>
      </trkpt>
      <trkpt lat="45.84055" lon="3.23673">
        <ele>325</ele>
        <time>2024-05-18T13:35:28Z</time>
      </trkpt>
      <trkpt lat="45.84055" lon="3.23673">
        <ele>325</ele>
        <time>2024-05-18T13:35:29Z</time>
      </trkpt>
      <trkpt lat="45.84058" lon="3.23694">
        <ele>325</ele>
        <time>2024-05-18T13:35:30Z</time>
      </trkpt>
      <trkpt lat="45.84058" lon="3.23694">
        <ele>325</ele>
        <time>2024-05-18T13:35:31Z</time>
      </trkpt>
      <trkpt lat="45.84062" lon="3.23715">
        <ele>325</ele>
        <time>2024-05-18T13:35:32Z</time>
      </trkpt>
      <trkpt lat="45.84063" lon="3.23725">
        <ele>325</ele>
        <time>2024-05-18T13:35:33Z</time>
      </trkpt>
      <trkpt lat="45.84065" lon="3.23736">
        <ele>325</ele>
        <time>2024-05-18T13:35:34Z</time>
      </trkpt>
      <trkpt lat="45.84066" lon="3.23746">
        <ele>325</ele>
        <time>2024-05-18T13:35:35Z</time>
      </trkpt>
      <trkpt lat="45.84068" lon="3.23757">
        <ele>324.8</ele>
        <time>2024-05-18T13:35:36Z</time>
      </trkpt>
      <trkpt lat="45.84069" lon="3.23767">
        <ele>324.8</ele>
        <time>2024-05-18T13:35:37Z</time>
      </trkpt>
      <trkpt lat="45.84071" lon="3.23778">
        <ele>324.8</ele>
        <time>2024-05-18T13:35:38Z</time>
      </trkpt>
      <trkpt lat="45.84072" lon="3.23788">
        <ele>324.8</ele>
        <time>2024-05-18T13:35:39Z</time>
      </trkpt>
      <trkpt lat="45.84074" lon="3.23799">
        <ele>324.8</ele>
        <time>2024-05-18T13:35:40Z</time>
      </trkpt>
      <trkpt lat="45.84076" lon="3.2381">
        <ele>324.6</ele>
        <time>2024-05-18T13:35:41Z</time>
      </trkpt>
      <trkpt lat="45.84077" lon="3.2382">
        <ele>324.6</ele>
        <time>2024-05-18T13:35:42Z</time>
      </trkpt>
      <trkpt lat="45.84079" lon="3.23831">
        <ele>324.6</ele>
        <time>2024-05-18T13:35:43Z</time>
      </trkpt>
      <trkpt lat="45.8408" lon="3.23841">
        <ele>324.6</ele>
        <time>2024-05-18T13:35:44Z</time>
      </trkpt>
      <trkpt lat="45.84082" lon="3.23852">
        <ele>324.6</ele>
        <time>2024-05-18T13:35:45Z</time>
      </trkpt>
      <trkpt lat="45.84083" lon="3.23863">
        <ele>324.6</ele>
        <time>2024-05-18T13:35:46Z</time>
      </trkpt>
      <trkpt lat="45.84085" lon="3.23873">
        <ele>324.4</ele>
        <time>2024-05-18T13:35:47Z</time>
      </trkpt>
      <trkpt lat="45.84086" lon="3.23884">
        <ele>324.4</ele>
        <time>2024-05-18T13:35:48Z</time>
      </trkpt>
      <trkpt lat="45.84088" lon="3.23894">
        <ele>324.4</ele>
        <time>2024-05-18T13:35:49Z</time>
      </trkpt>
      <trkpt lat="45.84089" lon="3.23905">
        <ele>324.4</ele>
        <time>2024-05-18T13:35:50Z</time>
      </trkpt>
      <trkpt lat="45.84091" lon="3.23915">
        <ele>324.4</ele>
        <time>2024-05-18T13:35:51Z</time>
      </trkpt>
      <trkpt lat="45.84093" lon="3.23926">
        <ele>324.4</ele>
        <time>2024-05-18T13:35:52Z</time>
      </trkpt>
      <trkpt lat="45.84094" lon="3.23936">
        <ele>324.4</ele>
        <time>2024-05-18T13:35:53Z</time>
      </trkpt>
      <trkpt lat="45.84096" lon="3.23947">
        <ele>324.2</ele>
        <time>2024-05-18T13:35:54Z</time>
      </trkpt>
      <trkpt lat="45.84097" lon="3.23957">
        <ele>324.2</ele>
        <time>2024-05-18T13:35:55Z</time>
      </trkpt>
      <trkpt lat="45.84099" lon="3.23968">
        <ele>324.2</ele>
        <time>2024-05-18T13:35:56Z</time>
      </trkpt>
      <trkpt lat="45.841" lon="3.23978">
        <ele>324.2</ele>
        <time>2024-05-18T13:35:57Z</time>
      </trkpt>
      <trkpt lat="45.84102" lon="3.23989">
        <ele>324.2</ele>
        <time>2024-05-18T13:35:58Z</time>
      </trkpt>
      <trkpt lat="45.84103" lon="3.23999">
        <ele>324.2</ele>
        <time>2024-05-18T13:35:59Z</time>
      </trkpt>
      <trkpt lat="45.84105" lon="3.2401">
        <ele>324.2</ele>
        <time>2024-05-18T13:36:00Z</time>
      </trkpt>
      <trkpt lat="45.84106" lon="3.2402">
        <ele>324.2</ele>
        <time>2024-05-18T13:36:01Z</time>
      </trkpt>
      <trkpt lat="45.84108" lon="3.24031">
        <ele>324.2</ele>
        <time>2024-05-18T13:36:02Z</time>
      </trkpt>
      <trkpt lat="45.84108" lon="3.24041">
        <ele>324</ele>
        <time>2024-05-18T13:36:03Z</time>
      </trkpt>
      <trkpt lat="45.84108" lon="3.24052">
        <ele>324</ele>
        <time>2024-05-18T13:36:04Z</time>
      </trkpt>
      <trkpt lat="45.84109" lon="3.24063">
        <ele>324</ele>
        <time>2024-05-18T13:36:05Z</time>
      </trkpt>
      <trkpt lat="45.84109" lon="3.24073">
        <ele>324</ele>
        <time>2024-05-18T13:36:06Z</time>
      </trkpt>
      <trkpt lat="45.84109" lon="3.24084">
        <ele>324</ele>
        <time>2024-05-18T13:36:07Z</time>
      </trkpt>
      <trkpt lat="45.84109" lon="3.24095">
        <ele>324</ele>
        <time>2024-05-18T13:36:08Z</time>
      </trkpt>
      <trkpt lat="45.8411" lon="3.24106">
        <ele>324</ele>
        <time>2024-05-18T13:36:09Z</time>
      </trkpt>
      <trkpt lat="45.8411" lon="3.24116">
        <ele>324</ele>
        <time>2024-05-18T13:36:10Z</time>
      </trkpt>
      <trkpt lat="45.8411" lon="3.24127">
        <ele>323.8</ele>
        <time>2024-05-18T13:36:11Z</time>
      </trkpt>
      <trkpt lat="45.8411" lon="3.24137">
        <ele>323.8</ele>
        <time>2024-05-18T13:36:12Z</time>
      </trkpt>
      <trkpt lat="45.84111" lon="3.24148">
        <ele>323.8</ele>
        <time>2024-05-18T13:36:13Z</time>
      </trkpt>
      <trkpt lat="45.84111" lon="3.24159">
        <ele>323.8</ele>
        <time>2024-05-18T13:36:14Z</time>
      </trkpt>
      <trkpt lat="45.84111" lon="3.24169">
        <ele>323.8</ele>
        <time>2024-05-18T13:36:15Z</time>
      </trkpt>
      <trkpt lat="45.84112" lon="3.2418">
        <ele>323.6</ele>
        <time>2024-05-18T13:36:16Z</time>
      </trkpt>
      <trkpt lat="45.84112" lon="3.24191">
        <ele>323.6</ele>
        <time>2024-05-18T13:36:17Z</time>
      </trkpt>
      <trkpt lat="45.84112" lon="3.24201">
        <ele>323.6</ele>
        <time>2024-05-18T13:36:18Z</time>
      </trkpt>
      <trkpt lat="45.84113" lon="3.24212">
        <ele>323.6</ele>
        <time>2024-05-18T13:36:19Z</time>
      </trkpt>
      <trkpt lat="45.84114" lon="3.24222">
        <ele>323.6</ele>
        <time>2024-05-18T13:36:20Z</time>
      </trkpt>
      <trkpt lat="45.84115" lon="3.24233">
        <ele>323.6</ele>
        <time>2024-05-18T13:36:21Z</time>
      </trkpt>
      <trkpt lat="45.84115" lon="3.24243">
        <ele>323.4</ele>
        <time>2024-05-18T13:36:22Z</time>
      </trkpt>
      <trkpt lat="45.84116" lon="3.24254">
        <ele>323.4</ele>
        <time>2024-05-18T13:36:23Z</time>
      </trkpt>
      <trkpt lat="45.84118" lon="3.24264">
        <ele>323.4</ele>
        <time>2024-05-18T13:36:24Z</time>
      </trkpt>
      <trkpt lat="45.8412" lon="3.24274">
        <ele>323.4</ele>
        <time>2024-05-18T13:36:25Z</time>
      </trkpt>
      <trkpt lat="45.84122" lon="3.24284">
        <ele>323.4</ele>
        <time>2024-05-18T13:36:26Z</time>
      </trkpt>
      <trkpt lat="45.84124" lon="3.24295">
        <ele>323.2</ele>
        <time>2024-05-18T13:36:27Z</time>
      </trkpt>
      <trkpt lat="45.84126" lon="3.24305">
        <ele>323.2</ele>
        <time>2024-05-18T13:36:28Z</time>
      </trkpt>
      <trkpt lat="45.84129" lon="3.24315">
        <ele>323.2</ele>
        <time>2024-05-18T13:36:29Z</time>
      </trkpt>
      <trkpt lat="45.84131" lon="3.24326">
        <ele>323.2</ele>
        <time>2024-05-18T13:36:30Z</time>
      </trkpt>
      <trkpt lat="45.84133" lon="3.24336">
        <ele>323.2</ele>
        <time>2024-05-18T13:36:31Z</time>
      </trkpt>
      <trkpt lat="45.84135" lon="3.24346">
        <ele>323.2</ele>
        <time>2024-05-18T13:36:32Z</time>
      </trkpt>
      <trkpt lat="45.84137" lon="3.24356">
        <ele>323.2</ele>
        <time>2024-05-18T13:36:33Z</time>
      </trkpt>
      <trkpt lat="45.8414" lon="3.24366">
        <ele>323.2</ele>
        <time>2024-05-18T13:36:34Z</time>
      </trkpt>
      <trkpt lat="45.84142" lon="3.24375">
        <ele>323.2</ele>
        <time>2024-05-18T13:36:35Z</time>
      </trkpt>
      <trkpt lat="45.84144" lon="3.24385">
        <ele>323.2</ele>
        <time>2024-05-18T13:36:36Z</time>
      </trkpt>
      <trkpt lat="45.84146" lon="3.24395">
        <ele>323.2</ele>
        <time>2024-05-18T13:36:37Z</time>
      </trkpt>
      <trkpt lat="45.84148" lon="3.24405">
        <ele>323.2</ele>
        <time>2024-05-18T13:36:38Z</time>
      </trkpt>
      <trkpt lat="45.8415" lon="3.24415">
        <ele>323.2</ele>
        <time>2024-05-18T13:36:39Z</time>
      </trkpt>
      <trkpt lat="45.84152" lon="3.24424">
        <ele>323.2</ele>
        <time>2024-05-18T13:36:40Z</time>
      </trkpt>
      <trkpt lat="45.84154" lon="3.24434">
        <ele>323.2</ele>
        <time>2024-05-18T13:36:41Z</time>
      </trkpt>
      <trkpt lat="45.84157" lon="3.24444">
        <ele>323.2</ele>
        <time>2024-05-18T13:36:42Z</time>
      </trkpt>
      <trkpt lat="45.84159" lon="3.24454">
        <ele>323.2</ele>
        <time>2024-05-18T13:36:43Z</time>
      </trkpt>
      <trkpt lat="45.84161" lon="3.24463">
        <ele>323.2</ele>
        <time>2024-05-18T13:36:44Z</time>
      </trkpt>
      <trkpt lat="45.84163" lon="3.24473">
        <ele>323.2</ele>
        <time>2024-05-18T13:36:45Z</time>
      </trkpt>
      <trkpt lat="45.84165" lon="3.24482">
        <ele>323.2</ele>
        <time>2024-05-18T13:36:46Z</time>
      </trkpt>
      <trkpt lat="45.84166" lon="3.24492">
        <ele>323.2</ele>
        <time>2024-05-18T13:36:47Z</time>
      </trkpt>
      <trkpt lat="45.84168" lon="3.24502">
        <ele>323</ele>
        <time>2024-05-18T13:36:48Z</time>
      </trkpt>
      <trkpt lat="45.8417" lon="3.24512">
        <ele>323</ele>
        <time>2024-05-18T13:36:49Z</time>
      </trkpt>
      <trkpt lat="45.84172" lon="3.24522">
        <ele>323</ele>
        <time>2024-05-18T13:36:50Z</time>
      </trkpt>
      <trkpt lat="45.84174" lon="3.24531">
        <ele>323</ele>
        <time>2024-05-18T13:36:51Z</time>
      </trkpt>
      <trkpt lat="45.84176" lon="3.24541">
        <ele>323</ele>
        <time>2024-05-18T13:36:52Z</time>
      </trkpt>
      <trkpt lat="45.84178" lon="3.24551">
        <ele>323</ele>
        <time>2024-05-18T13:36:53Z</time>
      </trkpt>
      <trkpt lat="45.84181" lon="3.2456">
        <ele>323</ele>
        <time>2024-05-18T13:36:54Z</time>
      </trkpt>
      <trkpt lat="45.84184" lon="3.24568">
        <ele>323</ele>
        <time>2024-05-18T13:36:55Z</time>
      </trkpt>
      <trkpt lat="45.84186" lon="3.24578">
        <ele>323</ele>
        <time>2024-05-18T13:36:56Z</time>
      </trkpt>
      <trkpt lat="45.84187" lon="3.24588">
        <ele>323</ele>
        <time>2024-05-18T13:36:57Z</time>
      </trkpt>
      <trkpt lat="45.84188" lon="3.24598">
        <ele>323</ele>
        <time>2024-05-18T13:36:58Z</time>
      </trkpt>
      <trkpt lat="45.84189" lon="3.24609">
        <ele>323</ele>
        <time>2024-05-18T13:36:59Z</time>
      </trkpt>
      <trkpt lat="45.84189" lon="3.24619">
        <ele>323</ele>
        <time>2024-05-18T13:37:00Z</time>
      </trkpt>
      <trkpt lat="45.84189" lon="3.2463">
        <ele>323</ele>
        <time>2024-05-18T13:37:01Z</time>
      </trkpt>
      <trkpt lat="45.84189" lon="3.24641">
        <ele>323</ele>
        <time>2024-05-18T13:37:02Z</time>
      </trkpt>
      <trkpt lat="45.84187" lon="3.24651">
        <ele>323</ele>
        <time>2024-05-18T13:37:03Z</time>
      </trkpt>
      <trkpt lat="45.84184" lon="3.24662">
        <ele>323</ele>
        <time>2024-05-18T13:37:04Z</time>
      </trkpt>
      <trkpt lat="45.84181" lon="3.24671">
        <ele>323</ele>
        <time>2024-05-18T13:37:05Z</time>
      </trkpt>
      <trkpt lat="45.84177" lon="3.24681">
        <ele>323</ele>
        <time>2024-05-18T13:37:06Z</time>
      </trkpt>
      <trkpt lat="45.84173" lon="3.2469">
        <ele>323</ele>
        <time>2024-05-18T13:37:07Z</time>
      </trkpt>
      <trkpt lat="45.84168" lon="3.24699">
        <ele>323</ele>
        <time>2024-05-18T13:37:08Z</time>
      </trkpt>
      <trkpt lat="45.84164" lon="3.24707">
        <ele>323.2</ele>
        <time>2024-05-18T13:37:09Z</time>
      </trkpt>
      <trkpt lat="45.8416" lon="3.24716">
        <ele>323.2</ele>
        <time>2024-05-18T13:37:10Z</time>
      </trkpt>
      <trkpt lat="45.84155" lon="3.24725">
        <ele>323.4</ele>
        <time>2024-05-18T13:37:11Z</time>
      </trkpt>
      <trkpt lat="45.84151" lon="3.24733">
        <ele>323.4</ele>
        <time>2024-05-18T13:37:12Z</time>
      </trkpt>
      <trkpt lat="45.84147" lon="3.24742">
        <ele>323.4</ele>
        <time>2024-05-18T13:37:13Z</time>
      </trkpt>
      <trkpt lat="45.84143" lon="3.24751">
        <ele>323.4</ele>
        <time>2024-05-18T13:37:14Z</time>
      </trkpt>
      <trkpt lat="45.84138" lon="3.2476">
        <ele>323.6</ele>
        <time>2024-05-18T13:37:15Z</time>
      </trkpt>
      <trkpt lat="45.84134" lon="3.24769">
        <ele>323.6</ele>
        <time>2024-05-18T13:37:16Z</time>
      </trkpt>
      <trkpt lat="45.8413" lon="3.24778">
        <ele>323.6</ele>
        <time>2024-05-18T13:37:17Z</time>
      </trkpt>
      <trkpt lat="45.84125" lon="3.24786">
        <ele>323.6</ele>
        <time>2024-05-18T13:37:18Z</time>
      </trkpt>
      <trkpt lat="45.84121" lon="3.24795">
        <ele>323.6</ele>
        <time>2024-05-18T13:37:19Z</time>
      </trkpt>
      <trkpt lat="45.84117" lon="3.24803">
        <ele>323.6</ele>
        <time>2024-05-18T13:37:20Z</time>
      </trkpt>
      <trkpt lat="45.84113" lon="3.24812">
        <ele>323.6</ele>
        <time>2024-05-18T13:37:21Z</time>
      </trkpt>
      <trkpt lat="45.84109" lon="3.2482">
        <ele>323.6</ele>
        <time>2024-05-18T13:37:22Z</time>
      </trkpt>
      <trkpt lat="45.84104" lon="3.24829">
        <ele>323.6</ele>
        <time>2024-05-18T13:37:23Z</time>
      </trkpt>
      <trkpt lat="45.841" lon="3.24837">
        <ele>323.6</ele>
        <time>2024-05-18T13:37:24Z</time>
      </trkpt>
      <trkpt lat="45.84096" lon="3.24846">
        <ele>323.6</ele>
        <time>2024-05-18T13:37:25Z</time>
      </trkpt>
      <trkpt lat="45.84091" lon="3.24853">
        <ele>323.6</ele>
        <time>2024-05-18T13:37:26Z</time>
      </trkpt>
      <trkpt lat="45.84086" lon="3.24861">
        <ele>323.4</ele>
        <time>2024-05-18T13:37:27Z</time>
      </trkpt>
      <trkpt lat="45.84081" lon="3.24869">
        <ele>323.4</ele>
        <time>2024-05-18T13:37:28Z</time>
      </trkpt>
      <trkpt lat="45.84077" lon="3.24876">
        <ele>323.4</ele>
        <time>2024-05-18T13:37:29Z</time>
      </trkpt>
      <trkpt lat="45.84072" lon="3.24883">
        <ele>323.8</ele>
        <time>2024-05-18T13:37:30Z</time>
      </trkpt>
      <trkpt lat="45.84068" lon="3.24891">
        <ele>323.6</ele>
        <time>2024-05-18T13:37:31Z</time>
      </trkpt>
      <trkpt lat="45.84063" lon="3.24898">
        <ele>323.8</ele>
        <time>2024-05-18T13:37:32Z</time>
      </trkpt>
      <trkpt lat="45.84058" lon="3.24906">
        <ele>323.6</ele>
        <time>2024-05-18T13:37:33Z</time>
      </trkpt>
      <trkpt lat="45.84054" lon="3.24913">
        <ele>323.4</ele>
        <time>2024-05-18T13:37:34Z</time>
      </trkpt>
      <trkpt lat="45.84049" lon="3.24921">
        <ele>323.4</ele>
        <time>2024-05-18T13:37:35Z</time>
      </trkpt>
      <trkpt lat="45.84045" lon="3.24928">
        <ele>323.4</ele>
        <time>2024-05-18T13:37:36Z</time>
      </trkpt>
      <trkpt lat="45.8404" lon="3.24936">
        <ele>323.2</ele>
        <time>2024-05-18T13:37:37Z</time>
      </trkpt>
      <trkpt lat="45.84035" lon="3.24943">
        <ele>323.2</ele>
        <time>2024-05-18T13:37:38Z</time>
      </trkpt>
      <trkpt lat="45.84031" lon="3.24951">
        <ele>323.2</ele>
        <time>2024-05-18T13:37:39Z</time>
      </trkpt>
      <trkpt lat="45.84026" lon="3.24959">
        <ele>323.2</ele>
        <time>2024-05-18T13:37:40Z</time>
      </trkpt>
      <trkpt lat="45.84023" lon="3.24968">
        <ele>323.2</ele>
        <time>2024-05-18T13:37:41Z</time>
      </trkpt>
      <trkpt lat="45.84019" lon="3.24976">
        <ele>323.2</ele>
        <time>2024-05-18T13:37:42Z</time>
      </trkpt>
      <trkpt lat="45.84016" lon="3.24985">
        <ele>323.2</ele>
        <time>2024-05-18T13:37:43Z</time>
      </trkpt>
      <trkpt lat="45.84012" lon="3.24993">
        <ele>323.2</ele>
        <time>2024-05-18T13:37:44Z</time>
      </trkpt>
      <trkpt lat="45.84008" lon="3.25002">
        <ele>323.2</ele>
        <time>2024-05-18T13:37:45Z</time>
      </trkpt>
      <trkpt lat="45.84005" lon="3.2501">
        <ele>323.2</ele>
        <time>2024-05-18T13:37:46Z</time>
      </trkpt>
      <trkpt lat="45.84001" lon="3.25019">
        <ele>323.2</ele>
        <time>2024-05-18T13:37:47Z</time>
      </trkpt>
      <trkpt lat="45.83998" lon="3.25027">
        <ele>323.2</ele>
        <time>2024-05-18T13:37:48Z</time>
      </trkpt>
      <trkpt lat="45.83994" lon="3.25035">
        <ele>323</ele>
        <time>2024-05-18T13:37:49Z</time>
      </trkpt>
      <trkpt lat="45.8399" lon="3.25044">
        <ele>323</ele>
        <time>2024-05-18T13:37:50Z</time>
      </trkpt>
      <trkpt lat="45.83987" lon="3.25053">
        <ele>323</ele>
        <time>2024-05-18T13:37:51Z</time>
      </trkpt>
      <trkpt lat="45.83983" lon="3.25062">
        <ele>323</ele>
        <time>2024-05-18T13:37:52Z</time>
      </trkpt>
      <trkpt lat="45.83979" lon="3.2507">
        <ele>323</ele>
        <time>2024-05-18T13:37:53Z</time>
      </trkpt>
      <trkpt lat="45.83976" lon="3.25078">
        <ele>323</ele>
        <time>2024-05-18T13:37:54Z</time>
      </trkpt>
      <trkpt lat="45.83972" lon="3.25087">
        <ele>323</ele>
        <time>2024-05-18T13:37:55Z</time>
      </trkpt>
      <trkpt lat="45.83969" lon="3.25096">
        <ele>323</ele>
        <time>2024-05-18T13:37:56Z</time>
      </trkpt>
      <trkpt lat="45.83965" lon="3.25104">
        <ele>322.8</ele>
        <time>2024-05-18T13:37:57Z</time>
      </trkpt>
      <trkpt lat="45.83961" lon="3.25113">
        <ele>322.8</ele>
        <time>2024-05-18T13:37:58Z</time>
      </trkpt>
      <trkpt lat="45.83957" lon="3.25122">
        <ele>322.8</ele>
        <time>2024-05-18T13:37:59Z</time>
      </trkpt>
      <trkpt lat="45.83953" lon="3.25131">
        <ele>322.6</ele>
        <time>2024-05-18T13:38:00Z</time>
      </trkpt>
      <trkpt lat="45.8395" lon="3.2514">
        <ele>322.6</ele>
        <time>2024-05-18T13:38:01Z</time>
      </trkpt>
      <trkpt lat="45.83946" lon="3.25149">
        <ele>322.6</ele>
        <time>2024-05-18T13:38:02Z</time>
      </trkpt>
      <trkpt lat="45.83942" lon="3.25158">
        <ele>322.6</ele>
        <time>2024-05-18T13:38:03Z</time>
      </trkpt>
      <trkpt lat="45.83938" lon="3.25167">
        <ele>322.6</ele>
        <time>2024-05-18T13:38:04Z</time>
      </trkpt>
      <trkpt lat="45.83934" lon="3.25176">
        <ele>322.6</ele>
        <time>2024-05-18T13:38:05Z</time>
      </trkpt>
      <trkpt lat="45.8393" lon="3.25185">
        <ele>322.6</ele>
        <time>2024-05-18T13:38:06Z</time>
      </trkpt>
      <trkpt lat="45.83926" lon="3.25193">
        <ele>322.6</ele>
        <time>2024-05-18T13:38:07Z</time>
      </trkpt>
      <trkpt lat="45.83922" lon="3.25201">
        <ele>322.4</ele>
        <time>2024-05-18T13:38:08Z</time>
      </trkpt>
      <trkpt lat="45.83917" lon="3.25209">
        <ele>322.4</ele>
        <time>2024-05-18T13:38:09Z</time>
      </trkpt>
      <trkpt lat="45.83913" lon="3.25217">
        <ele>322.4</ele>
        <time>2024-05-18T13:38:10Z</time>
      </trkpt>
      <trkpt lat="45.83908" lon="3.25224">
        <ele>322.4</ele>
        <time>2024-05-18T13:38:11Z</time>
      </trkpt>
      <trkpt lat="45.83904" lon="3.25232">
        <ele>322.4</ele>
        <time>2024-05-18T13:38:12Z</time>
      </trkpt>
      <trkpt lat="45.839" lon="3.2524">
        <ele>322.4</ele>
        <time>2024-05-18T13:38:13Z</time>
      </trkpt>
      <trkpt lat="45.83895" lon="3.25248">
        <ele>322.2</ele>
        <time>2024-05-18T13:38:14Z</time>
      </trkpt>
      <trkpt lat="45.83891" lon="3.25256">
        <ele>322.2</ele>
        <time>2024-05-18T13:38:15Z</time>
      </trkpt>
      <trkpt lat="45.83887" lon="3.25264">
        <ele>322.2</ele>
        <time>2024-05-18T13:38:16Z</time>
      </trkpt>
      <trkpt lat="45.83882" lon="3.25271">
        <ele>322.2</ele>
        <time>2024-05-18T13:38:17Z</time>
      </trkpt>
      <trkpt lat="45.83878" lon="3.25279">
        <ele>322.2</ele>
        <time>2024-05-18T13:38:18Z</time>
      </trkpt>
      <trkpt lat="45.83874" lon="3.25286">
        <ele>322.2</ele>
        <time>2024-05-18T13:38:19Z</time>
      </trkpt>
      <trkpt lat="45.8387" lon="3.25294">
        <ele>322.2</ele>
        <time>2024-05-18T13:38:20Z</time>
      </trkpt>
      <trkpt lat="45.83866" lon="3.25301">
        <ele>322.2</ele>
        <time>2024-05-18T13:38:21Z</time>
      </trkpt>
      <trkpt lat="45.83862" lon="3.25308">
        <ele>322.2</ele>
        <time>2024-05-18T13:38:22Z</time>
      </trkpt>
      <trkpt lat="45.83857" lon="3.25316">
        <ele>322.2</ele>
        <time>2024-05-18T13:38:23Z</time>
      </trkpt>
      <trkpt lat="45.83853" lon="3.25323">
        <ele>322.2</ele>
        <time>2024-05-18T13:38:24Z</time>
      </trkpt>
      <trkpt lat="45.83849" lon="3.25331">
        <ele>322.2</ele>
        <time>2024-05-18T13:38:25Z</time>
      </trkpt>
      <trkpt lat="45.83845" lon="3.25338">
        <ele>322.2</ele>
        <time>2024-05-18T13:38:26Z</time>
      </trkpt>
      <trkpt lat="45.83841" lon="3.25346">
        <ele>322.2</ele>
        <time>2024-05-18T13:38:27Z</time>
      </trkpt>
      <trkpt lat="45.83837" lon="3.25353">
        <ele>322.2</ele>
        <time>2024-05-18T13:38:28Z</time>
      </trkpt>
      <trkpt lat="45.83833" lon="3.2536">
        <ele>322.2</ele>
        <time>2024-05-18T13:38:29Z</time>
      </trkpt>
      <trkpt lat="45.83829" lon="3.25367">
        <ele>322.2</ele>
        <time>2024-05-18T13:38:30Z</time>
      </trkpt>
      <trkpt lat="45.83825" lon="3.25375">
        <ele>322.2</ele>
        <time>2024-05-18T13:38:31Z</time>
      </trkpt>
      <trkpt lat="45.8382" lon="3.25382">
        <ele>322</ele>
        <time>2024-05-18T13:38:32Z</time>
      </trkpt>
      <trkpt lat="45.83816" lon="3.2539">
        <ele>322</ele>
        <time>2024-05-18T13:38:33Z</time>
      </trkpt>
      <trkpt lat="45.83812" lon="3.25398">
        <ele>322</ele>
        <time>2024-05-18T13:38:34Z</time>
      </trkpt>
      <trkpt lat="45.83808" lon="3.25405">
        <ele>322</ele>
        <time>2024-05-18T13:38:35Z</time>
      </trkpt>
      <trkpt lat="45.83803" lon="3.25413">
        <ele>322.2</ele>
        <time>2024-05-18T13:38:36Z</time>
      </trkpt>
      <trkpt lat="45.83799" lon="3.25421">
        <ele>322.2</ele>
        <time>2024-05-18T13:38:37Z</time>
      </trkpt>
      <trkpt lat="45.83795" lon="3.25428">
        <ele>322</ele>
        <time>2024-05-18T13:38:38Z</time>
      </trkpt>
      <trkpt lat="45.83791" lon="3.25436">
        <ele>322.2</ele>
        <time>2024-05-18T13:38:39Z</time>
      </trkpt>
      <trkpt lat="45.83787" lon="3.25443">
        <ele>322.2</ele>
        <time>2024-05-18T13:38:40Z</time>
      </trkpt>
      <trkpt lat="45.83782" lon="3.25451">
        <ele>322</ele>
        <time>2024-05-18T13:38:41Z</time>
      </trkpt>
      <trkpt lat="45.83778" lon="3.25458">
        <ele>322.2</ele>
        <time>2024-05-18T13:38:42Z</time>
      </trkpt>
      <trkpt lat="45.83774" lon="3.25466">
        <ele>322.4</ele>
        <time>2024-05-18T13:38:43Z</time>
      </trkpt>
      <trkpt lat="45.8377" lon="3.25473">
        <ele>322.2</ele>
        <time>2024-05-18T13:38:44Z</time>
      </trkpt>
      <trkpt lat="45.83766" lon="3.2548">
        <ele>322.2</ele>
        <time>2024-05-18T13:38:45Z</time>
      </trkpt>
      <trkpt lat="45.83762" lon="3.25488">
        <ele>322.2</ele>
        <time>2024-05-18T13:38:46Z</time>
      </trkpt>
      <trkpt lat="45.83758" lon="3.25495">
        <ele>322.2</ele>
        <time>2024-05-18T13:38:47Z</time>
      </trkpt>
      <trkpt lat="45.83754" lon="3.25502">
        <ele>322.2</ele>
        <time>2024-05-18T13:38:48Z</time>
      </trkpt>
      <trkpt lat="45.8375" lon="3.25509">
        <ele>322.4</ele>
        <time>2024-05-18T13:38:49Z</time>
      </trkpt>
      <trkpt lat="45.83746" lon="3.25517">
        <ele>322.4</ele>
        <time>2024-05-18T13:38:50Z</time>
      </trkpt>
      <trkpt lat="45.83742" lon="3.25524">
        <ele>322.4</ele>
        <time>2024-05-18T13:38:51Z</time>
      </trkpt>
      <trkpt lat="45.83738" lon="3.25531">
        <ele>322.4</ele>
        <time>2024-05-18T13:38:52Z</time>
      </trkpt>
      <trkpt lat="45.83735" lon="3.25539">
        <ele>322.4</ele>
        <time>2024-05-18T13:38:53Z</time>
      </trkpt>
      <trkpt lat="45.83731" lon="3.25547">
        <ele>322.4</ele>
        <time>2024-05-18T13:38:54Z</time>
      </trkpt>
      <trkpt lat="45.83727" lon="3.25554">
        <ele>322.4</ele>
        <time>2024-05-18T13:38:55Z</time>
      </trkpt>
      <trkpt lat="45.83724" lon="3.25562">
        <ele>322.4</ele>
        <time>2024-05-18T13:38:56Z</time>
      </trkpt>
      <trkpt lat="45.8372" lon="3.2557">
        <ele>322.6</ele>
        <time>2024-05-18T13:38:57Z</time>
      </trkpt>
      <trkpt lat="45.83717" lon="3.25578">
        <ele>322.6</ele>
        <time>2024-05-18T13:38:58Z</time>
      </trkpt>
      <trkpt lat="45.83713" lon="3.25585">
        <ele>322.4</ele>
        <time>2024-05-18T13:38:59Z</time>
      </trkpt>
      <trkpt lat="45.8371" lon="3.25594">
        <ele>322.6</ele>
        <time>2024-05-18T13:39:00Z</time>
      </trkpt>
      <trkpt lat="45.83707" lon="3.25602">
        <ele>322.6</ele>
        <time>2024-05-18T13:39:01Z</time>
      </trkpt>
      <trkpt lat="45.83705" lon="3.25611">
        <ele>322.6</ele>
        <time>2024-05-18T13:39:02Z</time>
      </trkpt>
      <trkpt lat="45.83703" lon="3.25621">
        <ele>322.6</ele>
        <time>2024-05-18T13:39:03Z</time>
      </trkpt>
      <trkpt lat="45.83701" lon="3.2563">
        <ele>322.8</ele>
        <time>2024-05-18T13:39:04Z</time>
      </trkpt>
      <trkpt lat="45.83699" lon="3.2564">
        <ele>322.8</ele>
        <time>2024-05-18T13:39:05Z</time>
      </trkpt>
      <trkpt lat="45.83697" lon="3.2565">
        <ele>322.8</ele>
        <time>2024-05-18T13:39:06Z</time>
      </trkpt>
      <trkpt lat="45.83695" lon="3.2566">
        <ele>322.8</ele>
        <time>2024-05-18T13:39:07Z</time>
      </trkpt>
      <trkpt lat="45.83693" lon="3.2567">
        <ele>322.8</ele>
        <time>2024-05-18T13:39:08Z</time>
      </trkpt>
      <trkpt lat="45.83691" lon="3.2568">
        <ele>322.8</ele>
        <time>2024-05-18T13:39:09Z</time>
      </trkpt>
      <trkpt lat="45.83689" lon="3.2569">
        <ele>322.8</ele>
        <time>2024-05-18T13:39:10Z</time>
      </trkpt>
      <trkpt lat="45.83687" lon="3.257">
        <ele>322.8</ele>
        <time>2024-05-18T13:39:11Z</time>
      </trkpt>
      <trkpt lat="45.83685" lon="3.2571">
        <ele>322.8</ele>
        <time>2024-05-18T13:39:12Z</time>
      </trkpt>
      <trkpt lat="45.83685" lon="3.25721">
        <ele>322.8</ele>
        <time>2024-05-18T13:39:13Z</time>
      </trkpt>
      <trkpt lat="45.83684" lon="3.25731">
        <ele>322.8</ele>
        <time>2024-05-18T13:39:14Z</time>
      </trkpt>
      <trkpt lat="45.83684" lon="3.25741">
        <ele>322.8</ele>
        <time>2024-05-18T13:39:15Z</time>
      </trkpt>
      <trkpt lat="45.83684" lon="3.25751">
        <ele>322.8</ele>
        <time>2024-05-18T13:39:16Z</time>
      </trkpt>
      <trkpt lat="45.83683" lon="3.25761">
        <ele>322.8</ele>
        <time>2024-05-18T13:39:17Z</time>
      </trkpt>
      <trkpt lat="45.83683" lon="3.25772">
        <ele>322.8</ele>
        <time>2024-05-18T13:39:18Z</time>
      </trkpt>
      <trkpt lat="45.83683" lon="3.25782">
        <ele>322.8</ele>
        <time>2024-05-18T13:39:19Z</time>
      </trkpt>
      <trkpt lat="45.83684" lon="3.25792">
        <ele>322.8</ele>
        <time>2024-05-18T13:39:20Z</time>
      </trkpt>
      <trkpt lat="45.83685" lon="3.25803">
        <ele>323</ele>
        <time>2024-05-18T13:39:21Z</time>
      </trkpt>
      <trkpt lat="45.83687" lon="3.25813">
        <ele>323</ele>
        <time>2024-05-18T13:39:22Z</time>
      </trkpt>
      <trkpt lat="45.83688" lon="3.25823">
        <ele>323</ele>
        <time>2024-05-18T13:39:23Z</time>
      </trkpt>
      <trkpt lat="45.83689" lon="3.25834">
        <ele>323</ele>
        <time>2024-05-18T13:39:24Z</time>
      </trkpt>
      <trkpt lat="45.83691" lon="3.25844">
        <ele>323</ele>
        <time>2024-05-18T13:39:25Z</time>
      </trkpt>
      <trkpt lat="45.83692" lon="3.25854">
        <ele>323</ele>
        <time>2024-05-18T13:39:26Z</time>
      </trkpt>
      <trkpt lat="45.83693" lon="3.25864">
        <ele>323</ele>
        <time>2024-05-18T13:39:27Z</time>
      </trkpt>
      <trkpt lat="45.83695" lon="3.25874">
        <ele>323</ele>
        <time>2024-05-18T13:39:28Z</time>
      </trkpt>
      <trkpt lat="45.83696" lon="3.25883">
        <ele>323</ele>
        <time>2024-05-18T13:39:29Z</time>
      </trkpt>
      <trkpt lat="45.83698" lon="3.25893">
        <ele>323</ele>
        <time>2024-05-18T13:39:30Z</time>
      </trkpt>
      <trkpt lat="45.837" lon="3.25902">
        <ele>323</ele>
        <time>2024-05-18T13:39:31Z</time>
      </trkpt>
      <trkpt lat="45.83702" lon="3.25912">
        <ele>323</ele>
        <time>2024-05-18T13:39:32Z</time>
      </trkpt>
      <trkpt lat="45.83703" lon="3.25922">
        <ele>323</ele>
        <time>2024-05-18T13:39:33Z</time>
      </trkpt>
      <trkpt lat="45.83705" lon="3.25932">
        <ele>323</ele>
        <time>2024-05-18T13:39:34Z</time>
      </trkpt>
      <trkpt lat="45.83707" lon="3.25942">
        <ele>323</ele>
        <time>2024-05-18T13:39:35Z</time>
      </trkpt>
      <trkpt lat="45.83709" lon="3.25953">
        <ele>323</ele>
        <time>2024-05-18T13:39:36Z</time>
      </trkpt>
      <trkpt lat="45.83711" lon="3.25963">
        <ele>323</ele>
        <time>2024-05-18T13:39:37Z</time>
      </trkpt>
      <trkpt lat="45.83713" lon="3.25974">
        <ele>322.8</ele>
        <time>2024-05-18T13:39:38Z</time>
      </trkpt>
      <trkpt lat="45.83715" lon="3.25984">
        <ele>322.8</ele>
        <time>2024-05-18T13:39:39Z</time>
      </trkpt>
      <trkpt lat="45.83717" lon="3.25995">
        <ele>322.8</ele>
        <time>2024-05-18T13:39:40Z</time>
      </trkpt>
      <trkpt lat="45.83719" lon="3.26006">
        <ele>322.6</ele>
        <time>2024-05-18T13:39:41Z</time>
      </trkpt>
      <trkpt lat="45.83721" lon="3.26017">
        <ele>322.6</ele>
        <time>2024-05-18T13:39:42Z</time>
      </trkpt>
      <trkpt lat="45.83723" lon="3.26028">
        <ele>322.4</ele>
        <time>2024-05-18T13:39:43Z</time>
      </trkpt>
      <trkpt lat="45.83725" lon="3.26039">
        <ele>322.4</ele>
        <time>2024-05-18T13:39:44Z</time>
      </trkpt>
      <trkpt lat="45.83727" lon="3.2605">
        <ele>322.2</ele>
        <time>2024-05-18T13:39:45Z</time>
      </trkpt>
      <trkpt lat="45.83729" lon="3.26061">
        <ele>322.2</ele>
        <time>2024-05-18T13:39:46Z</time>
      </trkpt>
      <trkpt lat="45.83731" lon="3.26073">
        <ele>322</ele>
        <time>2024-05-18T13:39:47Z</time>
      </trkpt>
      <trkpt lat="45.83733" lon="3.26084">
        <ele>322</ele>
        <time>2024-05-18T13:39:48Z</time>
      </trkpt>
      <trkpt lat="45.83735" lon="3.26096">
        <ele>321.8</ele>
        <time>2024-05-18T13:39:49Z</time>
      </trkpt>
      <trkpt lat="45.83737" lon="3.26107">
        <ele>321.6</ele>
        <time>2024-05-18T13:39:50Z</time>
      </trkpt>
      <trkpt lat="45.83739" lon="3.26118">
        <ele>321.6</ele>
        <time>2024-05-18T13:39:51Z</time>
      </trkpt>
      <trkpt lat="45.83742" lon="3.2613">
        <ele>321.4</ele>
        <time>2024-05-18T13:39:52Z</time>
      </trkpt>
      <trkpt lat="45.83745" lon="3.26141">
        <ele>321.4</ele>
        <time>2024-05-18T13:39:53Z</time>
      </trkpt>
      <trkpt lat="45.83747" lon="3.26154">
        <ele>321.2</ele>
        <time>2024-05-18T13:39:54Z</time>
      </trkpt>
      <trkpt lat="45.83749" lon="3.26166">
        <ele>321.2</ele>
        <time>2024-05-18T13:39:55Z</time>
      </trkpt>
      <trkpt lat="45.83752" lon="3.26179">
        <ele>321</ele>
        <time>2024-05-18T13:39:56Z</time>
      </trkpt>
      <trkpt lat="45.83754" lon="3.2619">
        <ele>321</ele>
        <time>2024-05-18T13:39:57Z</time>
      </trkpt>
      <trkpt lat="45.83756" lon="3.26202">
        <ele>320.8</ele>
        <time>2024-05-18T13:39:58Z</time>
      </trkpt>
      <trkpt lat="45.83758" lon="3.26214">
        <ele>320.8</ele>
        <time>2024-05-18T13:39:59Z</time>
      </trkpt>
      <trkpt lat="45.8376" lon="3.26225">
        <ele>320.8</ele>
        <time>2024-05-18T13:40:00Z</time>
      </trkpt>
      <trkpt lat="45.83762" lon="3.26236">
        <ele>320.6</ele>
        <time>2024-05-18T13:40:01Z</time>
      </trkpt>
      <trkpt lat="45.83764" lon="3.26248">
        <ele>320.6</ele>
        <time>2024-05-18T13:40:02Z</time>
      </trkpt>
      <trkpt lat="45.83766" lon="3.26259">
        <ele>320.4</ele>
        <time>2024-05-18T13:40:03Z</time>
      </trkpt>
      <trkpt lat="45.83768" lon="3.2627">
        <ele>320.4</ele>
        <time>2024-05-18T13:40:04Z</time>
      </trkpt>
      <trkpt lat="45.8377" lon="3.26281">
        <ele>320.2</ele>
        <time>2024-05-18T13:40:05Z</time>
      </trkpt>
      <trkpt lat="45.83772" lon="3.26292">
        <ele>320.2</ele>
        <time>2024-05-18T13:40:06Z</time>
      </trkpt>
      <trkpt lat="45.83774" lon="3.26304">
        <ele>320.2</ele>
        <time>2024-05-18T13:40:07Z</time>
      </trkpt>
      <trkpt lat="45.83776" lon="3.26315">
        <ele>320</ele>
        <time>2024-05-18T13:40:08Z</time>
      </trkpt>
      <trkpt lat="45.83778" lon="3.26326">
        <ele>320</ele>
        <time>2024-05-18T13:40:09Z</time>
      </trkpt>
      <trkpt lat="45.8378" lon="3.26337">
        <ele>320</ele>
        <time>2024-05-18T13:40:10Z</time>
      </trkpt>
      <trkpt lat="45.83783" lon="3.26348">
        <ele>320</ele>
        <time>2024-05-18T13:40:11Z</time>
      </trkpt>
      <trkpt lat="45.83785" lon="3.26359">
        <ele>319.8</ele>
        <time>2024-05-18T13:40:12Z</time>
      </trkpt>
      <trkpt lat="45.83787" lon="3.26369">
        <ele>319.8</ele>
        <time>2024-05-18T13:40:13Z</time>
      </trkpt>
      <trkpt lat="45.83789" lon="3.2638">
        <ele>319.6</ele>
        <time>2024-05-18T13:40:14Z</time>
      </trkpt>
      <trkpt lat="45.83791" lon="3.26391">
        <ele>319.6</ele>
        <time>2024-05-18T13:40:15Z</time>
      </trkpt>
      <trkpt lat="45.83793" lon="3.26402">
        <ele>319.4</ele>
        <time>2024-05-18T13:40:16Z</time>
      </trkpt>
      <trkpt lat="45.83795" lon="3.26413">
        <ele>319.4</ele>
        <time>2024-05-18T13:40:17Z</time>
      </trkpt>
      <trkpt lat="45.83797" lon="3.26423">
        <ele>319.4</ele>
        <time>2024-05-18T13:40:18Z</time>
      </trkpt>
      <trkpt lat="45.83799" lon="3.26434">
        <ele>319.2</ele>
        <time>2024-05-18T13:40:19Z</time>
      </trkpt>
      <trkpt lat="45.83801" lon="3.26444">
        <ele>319.2</ele>
        <time>2024-05-18T13:40:20Z</time>
      </trkpt>
      <trkpt lat="45.83803" lon="3.26454">
        <ele>319</ele>
        <time>2024-05-18T13:40:21Z</time>
      </trkpt>
      <trkpt lat="45.83805" lon="3.26465">
        <ele>319</ele>
        <time>2024-05-18T13:40:22Z</time>
      </trkpt>
      <trkpt lat="45.83807" lon="3.26475">
        <ele>318.8</ele>
        <time>2024-05-18T13:40:23Z</time>
      </trkpt>
      <trkpt lat="45.83809" lon="3.26486">
        <ele>318.8</ele>
        <time>2024-05-18T13:40:24Z</time>
      </trkpt>
      <trkpt lat="45.83811" lon="3.26497">
        <ele>318.6</ele>
        <time>2024-05-18T13:40:25Z</time>
      </trkpt>
      <trkpt lat="45.83813" lon="3.26508">
        <ele>318.6</ele>
        <time>2024-05-18T13:40:26Z</time>
      </trkpt>
      <trkpt lat="45.83815" lon="3.26518">
        <ele>318.6</ele>
        <time>2024-05-18T13:40:27Z</time>
      </trkpt>
      <trkpt lat="45.83817" lon="3.26528">
        <ele>318.4</ele>
        <time>2024-05-18T13:40:28Z</time>
      </trkpt>
      <trkpt lat="45.83819" lon="3.26539">
        <ele>318.4</ele>
        <time>2024-05-18T13:40:29Z</time>
      </trkpt>
      <trkpt lat="45.83821" lon="3.2655">
        <ele>318.4</ele>
        <time>2024-05-18T13:40:30Z</time>
      </trkpt>
      <trkpt lat="45.83823" lon="3.2656">
        <ele>318.4</ele>
        <time>2024-05-18T13:40:31Z</time>
      </trkpt>
      <trkpt lat="45.83825" lon="3.2657">
        <ele>318.2</ele>
        <time>2024-05-18T13:40:32Z</time>
      </trkpt>
      <trkpt lat="45.83827" lon="3.26581">
        <ele>318.2</ele>
        <time>2024-05-18T13:40:33Z</time>
      </trkpt>
      <trkpt lat="45.83829" lon="3.26591">
        <ele>318.2</ele>
        <time>2024-05-18T13:40:34Z</time>
      </trkpt>
      <trkpt lat="45.83831" lon="3.26602">
        <ele>318.2</ele>
        <time>2024-05-18T13:40:35Z</time>
      </trkpt>
      <trkpt lat="45.83832" lon="3.26612">
        <ele>318.2</ele>
        <time>2024-05-18T13:40:36Z</time>
      </trkpt>
      <trkpt lat="45.83833" lon="3.26623">
        <ele>318</ele>
        <time>2024-05-18T13:40:37Z</time>
      </trkpt>
      <trkpt lat="45.83835" lon="3.26633">
        <ele>318</ele>
        <time>2024-05-18T13:40:38Z</time>
      </trkpt>
      <trkpt lat="45.83836" lon="3.26643">
        <ele>318</ele>
        <time>2024-05-18T13:40:39Z</time>
      </trkpt>
      <trkpt lat="45.83837" lon="3.26654">
        <ele>318</ele>
        <time>2024-05-18T13:40:40Z</time>
      </trkpt>
      <trkpt lat="45.83839" lon="3.26665">
        <ele>318</ele>
        <time>2024-05-18T13:40:41Z</time>
      </trkpt>
      <trkpt lat="45.8384" lon="3.26675">
        <ele>317.8</ele>
        <time>2024-05-18T13:40:42Z</time>
      </trkpt>
      <trkpt lat="45.83841" lon="3.26686">
        <ele>317.8</ele>
        <time>2024-05-18T13:40:43Z</time>
      </trkpt>
      <trkpt lat="45.83843" lon="3.26696">
        <ele>317.8</ele>
        <time>2024-05-18T13:40:44Z</time>
      </trkpt>
      <trkpt lat="45.83844" lon="3.26707">
        <ele>317.8</ele>
        <time>2024-05-18T13:40:45Z</time>
      </trkpt>
      <trkpt lat="45.83845" lon="3.26717">
        <ele>317.6</ele>
        <time>2024-05-18T13:40:46Z</time>
      </trkpt>
      <trkpt lat="45.83847" lon="3.26728">
        <ele>317.6</ele>
        <time>2024-05-18T13:40:47Z</time>
      </trkpt>
      <trkpt lat="45.83848" lon="3.26738">
        <ele>317.6</ele>
        <time>2024-05-18T13:40:48Z</time>
      </trkpt>
      <trkpt lat="45.83849" lon="3.26749">
        <ele>317.6</ele>
        <time>2024-05-18T13:40:49Z</time>
      </trkpt>
      <trkpt lat="45.83851" lon="3.26759">
        <ele>317.6</ele>
        <time>2024-05-18T13:40:50Z</time>
      </trkpt>
      <trkpt lat="45.83852" lon="3.2677">
        <ele>317.6</ele>
        <time>2024-05-18T13:40:51Z</time>
      </trkpt>
      <trkpt lat="45.83853" lon="3.2678">
        <ele>317.4</ele>
        <time>2024-05-18T13:40:52Z</time>
      </trkpt>
      <trkpt lat="45.83855" lon="3.26791">
        <ele>317.4</ele>
        <time>2024-05-18T13:40:53Z</time>
      </trkpt>
      <trkpt lat="45.83857" lon="3.26801">
        <ele>317.4</ele>
        <time>2024-05-18T13:40:54Z</time>
      </trkpt>
      <trkpt lat="45.8386" lon="3.26811">
        <ele>317.2</ele>
        <time>2024-05-18T13:40:55Z</time>
      </trkpt>
      <trkpt lat="45.83862" lon="3.26821">
        <ele>317.2</ele>
        <time>2024-05-18T13:40:56Z</time>
      </trkpt>
      <trkpt lat="45.83865" lon="3.26831">
        <ele>317</ele>
        <time>2024-05-18T13:40:57Z</time>
      </trkpt>
      <trkpt lat="45.83868" lon="3.26841">
        <ele>317</ele>
        <time>2024-05-18T13:40:58Z</time>
      </trkpt>
      <trkpt lat="45.8387" lon="3.26851">
        <ele>317</ele>
        <time>2024-05-18T13:40:59Z</time>
      </trkpt>
      <trkpt lat="45.83873" lon="3.2686">
        <ele>317</ele>
        <time>2024-05-18T13:41:00Z</time>
      </trkpt>
      <trkpt lat="45.83875" lon="3.26869">
        <ele>316.8</ele>
        <time>2024-05-18T13:41:01Z</time>
      </trkpt>
      <trkpt lat="45.83877" lon="3.26879">
        <ele>316.8</ele>
        <time>2024-05-18T13:41:02Z</time>
      </trkpt>
      <trkpt lat="45.8388" lon="3.26888">
        <ele>316.8</ele>
        <time>2024-05-18T13:41:03Z</time>
      </trkpt>
      <trkpt lat="45.83882" lon="3.26897">
        <ele>316.6</ele>
        <time>2024-05-18T13:41:04Z</time>
      </trkpt>
      <trkpt lat="45.83884" lon="3.26906">
        <ele>316.6</ele>
        <time>2024-05-18T13:41:05Z</time>
      </trkpt>
      <trkpt lat="45.83887" lon="3.26914">
        <ele>316.6</ele>
        <time>2024-05-18T13:41:06Z</time>
      </trkpt>
      <trkpt lat="45.83889" lon="3.26923">
        <ele>316.6</ele>
        <time>2024-05-18T13:41:07Z</time>
      </trkpt>
      <trkpt lat="45.83891" lon="3.26933">
        <ele>316.6</ele>
        <time>2024-05-18T13:41:08Z</time>
      </trkpt>
      <trkpt lat="45.83892" lon="3.26942">
        <ele>316.4</ele>
        <time>2024-05-18T13:41:09Z</time>
      </trkpt>
      <trkpt lat="45.83893" lon="3.26951">
        <ele>316.4</ele>
        <time>2024-05-18T13:41:10Z</time>
      </trkpt>
      <trkpt lat="45.83894" lon="3.2696">
        <ele>316.4</ele>
        <time>2024-05-18T13:41:11Z</time>
      </trkpt>
      <trkpt lat="45.83895" lon="3.26969">
        <ele>316.2</ele>
        <time>2024-05-18T13:41:12Z</time>
      </trkpt>
      <trkpt lat="45.83897" lon="3.26979">
        <ele>316.2</ele>
        <time>2024-05-18T13:41:13Z</time>
      </trkpt>
      <trkpt lat="45.83898" lon="3.26988">
        <ele>316.2</ele>
        <time>2024-05-18T13:41:14Z</time>
      </trkpt>
      <trkpt lat="45.83899" lon="3.26997">
        <ele>316</ele>
        <time>2024-05-18T13:41:15Z</time>
      </trkpt>
      <trkpt lat="45.83899" lon="3.27005">
        <ele>316</ele>
        <time>2024-05-18T13:41:16Z</time>
      </trkpt>
      <trkpt lat="45.83897" lon="3.27009">
        <ele>316</ele>
        <time>2024-05-18T13:41:17Z</time>
      </trkpt>
      <trkpt lat="45.83896" lon="3.27012">
        <ele>316</ele>
        <time>2024-05-18T13:41:18Z</time>
      </trkpt>
      <trkpt lat="45.83896" lon="3.27022">
        <ele>315.8</ele>
        <time>2024-05-18T13:41:19Z</time>
      </trkpt>
      <trkpt lat="45.83897" lon="3.27023">
        <ele>315.8</ele>
        <time>2024-05-18T13:41:20Z</time>
      </trkpt>
      <trkpt lat="45.83898" lon="3.27024">
        <ele>315.8</ele>
        <time>2024-05-18T13:41:21Z</time>
      </trkpt>
      <trkpt lat="45.83898" lon="3.27024">
        <ele>315.8</ele>
        <time>2024-05-18T13:41:22Z</time>
      </trkpt>
      <trkpt lat="45.83898" lon="3.27024">
        <ele>315.8</ele>
        <time>2024-05-18T13:41:23Z</time>
      </trkpt>
      <trkpt lat="45.83899" lon="3.27025">
        <ele>315.4</ele>
        <time>2024-05-18T13:41:30Z</time>
      </trkpt>
      <trkpt lat="45.83901" lon="3.27027">
        <ele>315.4</ele>
        <time>2024-05-18T13:41:31Z</time>
      </trkpt>
      <trkpt lat="45.83903" lon="3.2703">
        <ele>315.4</ele>
        <time>2024-05-18T13:41:32Z</time>
      </trkpt>
      <trkpt lat="45.83907" lon="3.27033">
        <ele>315.4</ele>
        <time>2024-05-18T13:41:33Z</time>
      </trkpt>
      <trkpt lat="45.83911" lon="3.27037">
        <ele>315.2</ele>
        <time>2024-05-18T13:41:34Z</time>
      </trkpt>
      <trkpt lat="45.83915" lon="3.27042">
        <ele>315</ele>
        <time>2024-05-18T13:41:35Z</time>
      </trkpt>
      <trkpt lat="45.83919" lon="3.27047">
        <ele>315</ele>
        <time>2024-05-18T13:41:36Z</time>
      </trkpt>
      <trkpt lat="45.83923" lon="3.27052">
        <ele>314.8</ele>
        <time>2024-05-18T13:41:37Z</time>
      </trkpt>
      <trkpt lat="45.83927" lon="3.27057">
        <ele>314.8</ele>
        <time>2024-05-18T13:41:38Z</time>
      </trkpt>
      <trkpt lat="45.83932" lon="3.27063">
        <ele>314.8</ele>
        <time>2024-05-18T13:41:39Z</time>
      </trkpt>
      <trkpt lat="45.83937" lon="3.27068">
        <ele>314.6</ele>
        <time>2024-05-18T13:41:40Z</time>
      </trkpt>
      <trkpt lat="45.83942" lon="3.27075">
        <ele>314.6</ele>
        <time>2024-05-18T13:41:41Z</time>
      </trkpt>
      <trkpt lat="45.83947" lon="3.27081">
        <ele>314.6</ele>
        <time>2024-05-18T13:41:42Z</time>
      </trkpt>
      <trkpt lat="45.83952" lon="3.27087">
        <ele>314.6</ele>
        <time>2024-05-18T13:41:43Z</time>
      </trkpt>
      <trkpt lat="45.83957" lon="3.27093">
        <ele>314.6</ele>
        <time>2024-05-18T13:41:44Z</time>
      </trkpt>
      <trkpt lat="45.83962" lon="3.27099">
        <ele>314.6</ele>
        <time>2024-05-18T13:41:45Z</time>
      </trkpt>
      <trkpt lat="45.83966" lon="3.27104">
        <ele>314.6</ele>
        <time>2024-05-18T13:41:46Z</time>
      </trkpt>
      <trkpt lat="45.83971" lon="3.2711">
        <ele>314.6</ele>
        <time>2024-05-18T13:41:47Z</time>
      </trkpt>
      <trkpt lat="45.83976" lon="3.27115">
        <ele>314.6</ele>
        <time>2024-05-18T13:41:48Z</time>
      </trkpt>
      <trkpt lat="45.83981" lon="3.2712">
        <ele>314.6</ele>
        <time>2024-05-18T13:41:49Z</time>
      </trkpt>
      <trkpt lat="45.83985" lon="3.27126">
        <ele>314.6</ele>
        <time>2024-05-18T13:41:50Z</time>
      </trkpt>
      <trkpt lat="45.8399" lon="3.27131">
        <ele>314.6</ele>
        <time>2024-05-18T13:41:51Z</time>
      </trkpt>
      <trkpt lat="45.83995" lon="3.27137">
        <ele>314.6</ele>
        <time>2024-05-18T13:41:52Z</time>
      </trkpt>
      <trkpt lat="45.84" lon="3.27142">
        <ele>314.6</ele>
        <time>2024-05-18T13:41:53Z</time>
      </trkpt>
      <trkpt lat="45.84005" lon="3.27148">
        <ele>314.8</ele>
        <time>2024-05-18T13:41:54Z</time>
      </trkpt>
      <trkpt lat="45.84009" lon="3.27153">
        <ele>314.8</ele>
        <time>2024-05-18T13:41:55Z</time>
      </trkpt>
      <trkpt lat="45.84014" lon="3.27158">
        <ele>314.8</ele>
        <time>2024-05-18T13:41:56Z</time>
      </trkpt>
      <trkpt lat="45.84019" lon="3.27164">
        <ele>314.8</ele>
        <time>2024-05-18T13:41:57Z</time>
      </trkpt>
      <trkpt lat="45.84023" lon="3.27169">
        <ele>314.8</ele>
        <time>2024-05-18T13:41:58Z</time>
      </trkpt>
      <trkpt lat="45.84029" lon="3.27173">
        <ele>314.8</ele>
        <time>2024-05-18T13:41:59Z</time>
      </trkpt>
      <trkpt lat="45.84034" lon="3.27177">
        <ele>314.6</ele>
        <time>2024-05-18T13:42:00Z</time>
      </trkpt>
      <trkpt lat="45.84039" lon="3.27182">
        <ele>314.2</ele>
        <time>2024-05-18T13:42:01Z</time>
      </trkpt>
      <trkpt lat="45.84045" lon="3.27187">
        <ele>314.4</ele>
        <time>2024-05-18T13:42:02Z</time>
      </trkpt>
      <trkpt lat="45.8405" lon="3.27191">
        <ele>314.6</ele>
        <time>2024-05-18T13:42:03Z</time>
      </trkpt>
      <trkpt lat="45.84056" lon="3.27196">
        <ele>314.6</ele>
        <time>2024-05-18T13:42:04Z</time>
      </trkpt>
      <trkpt lat="45.84061" lon="3.272">
        <ele>314.8</ele>
        <time>2024-05-18T13:42:05Z</time>
      </trkpt>
      <trkpt lat="45.84066" lon="3.27205">
        <ele>315</ele>
        <time>2024-05-18T13:42:06Z</time>
      </trkpt>
      <trkpt lat="45.84072" lon="3.27209">
        <ele>315</ele>
        <time>2024-05-18T13:42:07Z</time>
      </trkpt>
      <trkpt lat="45.84077" lon="3.27214">
        <ele>315</ele>
        <time>2024-05-18T13:42:08Z</time>
      </trkpt>
      <trkpt lat="45.84082" lon="3.27218">
        <ele>314.8</ele>
        <time>2024-05-18T13:42:09Z</time>
      </trkpt>
      <trkpt lat="45.84088" lon="3.27223">
        <ele>314.8</ele>
        <time>2024-05-18T13:42:10Z</time>
      </trkpt>
      <trkpt lat="45.84093" lon="3.27227">
        <ele>314.8</ele>
        <time>2024-05-18T13:42:11Z</time>
      </trkpt>
      <trkpt lat="45.84098" lon="3.27232">
        <ele>314.8</ele>
        <time>2024-05-18T13:42:12Z</time>
      </trkpt>
      <trkpt lat="45.84103" lon="3.27236">
        <ele>314.8</ele>
        <time>2024-05-18T13:42:13Z</time>
      </trkpt>
      <trkpt lat="45.84109" lon="3.2724">
        <ele>314.8</ele>
        <time>2024-05-18T13:42:14Z</time>
      </trkpt>
      <trkpt lat="45.84114" lon="3.27245">
        <ele>314.8</ele>
        <time>2024-05-18T13:42:15Z</time>
      </trkpt>
      <trkpt lat="45.84119" lon="3.27249">
        <ele>314.8</ele>
        <time>2024-05-18T13:42:16Z</time>
      </trkpt>
      <trkpt lat="45.84124" lon="3.27254">
        <ele>314.8</ele>
        <time>2024-05-18T13:42:17Z</time>
      </trkpt>
      <trkpt lat="45.8413" lon="3.27259">
        <ele>314.8</ele>
        <time>2024-05-18T13:42:18Z</time>
      </trkpt>
      <trkpt lat="45.84135" lon="3.27263">
        <ele>314.8</ele>
        <time>2024-05-18T13:42:19Z</time>
      </trkpt>
      <trkpt lat="45.8414" lon="3.27268">
        <ele>314.8</ele>
        <time>2024-05-18T13:42:20Z</time>
      </trkpt>
      <trkpt lat="45.84145" lon="3.27272">
        <ele>314.8</ele>
        <time>2024-05-18T13:42:21Z</time>
      </trkpt>
      <trkpt lat="45.84151" lon="3.27277">
        <ele>314.8</ele>
        <time>2024-05-18T13:42:22Z</time>
      </trkpt>
      <trkpt lat="45.84156" lon="3.27281">
        <ele>315</ele>
        <time>2024-05-18T13:42:23Z</time>
      </trkpt>
      <trkpt lat="45.84161" lon="3.27286">
        <ele>315</ele>
        <time>2024-05-18T13:42:24Z</time>
      </trkpt>
      <trkpt lat="45.84167" lon="3.2729">
        <ele>315</ele>
        <time>2024-05-18T13:42:25Z</time>
      </trkpt>
      <trkpt lat="45.84172" lon="3.27295">
        <ele>315</ele>
        <time>2024-05-18T13:42:26Z</time>
      </trkpt>
      <trkpt lat="45.84177" lon="3.27299">
        <ele>315</ele>
        <time>2024-05-18T13:42:27Z</time>
      </trkpt>
      <trkpt lat="45.84182" lon="3.27304">
        <ele>315</ele>
        <time>2024-05-18T13:42:28Z</time>
      </trkpt>
      <trkpt lat="45.84188" lon="3.27308">
        <ele>315</ele>
        <time>2024-05-18T13:42:29Z</time>
      </trkpt>
      <trkpt lat="45.84193" lon="3.27313">
        <ele>314.8</ele>
        <time>2024-05-18T13:42:30Z</time>
      </trkpt>
      <trkpt lat="45.84198" lon="3.27317">
        <ele>314.8</ele>
        <time>2024-05-18T13:42:31Z</time>
      </trkpt>
      <trkpt lat="45.84203" lon="3.27322">
        <ele>315</ele>
        <time>2024-05-18T13:42:32Z</time>
      </trkpt>
      <trkpt lat="45.84208" lon="3.27326">
        <ele>315</ele>
        <time>2024-05-18T13:42:33Z</time>
      </trkpt>
      <trkpt lat="45.84214" lon="3.27331">
        <ele>315</ele>
        <time>2024-05-18T13:42:34Z</time>
      </trkpt>
      <trkpt lat="45.84219" lon="3.27335">
        <ele>315</ele>
        <time>2024-05-18T13:42:35Z</time>
      </trkpt>
      <trkpt lat="45.84224" lon="3.2734">
        <ele>315</ele>
        <time>2024-05-18T13:42:36Z</time>
      </trkpt>
      <trkpt lat="45.84229" lon="3.27344">
        <ele>315</ele>
        <time>2024-05-18T13:42:37Z</time>
      </trkpt>
      <trkpt lat="45.84234" lon="3.27349">
        <ele>315</ele>
        <time>2024-05-18T13:42:38Z</time>
      </trkpt>
      <trkpt lat="45.8424" lon="3.27353">
        <ele>315</ele>
        <time>2024-05-18T13:42:39Z</time>
      </trkpt>
      <trkpt lat="45.84245" lon="3.27358">
        <ele>315</ele>
        <time>2024-05-18T13:42:40Z</time>
      </trkpt>
      <trkpt lat="45.8425" lon="3.27362">
        <ele>315</ele>
        <time>2024-05-18T13:42:41Z</time>
      </trkpt>
      <trkpt lat="45.84256" lon="3.27367">
        <ele>315</ele>
        <time>2024-05-18T13:42:42Z</time>
      </trkpt>
      <trkpt lat="45.84261" lon="3.27371">
        <ele>315</ele>
        <time>2024-05-18T13:42:43Z</time>
      </trkpt>
      <trkpt lat="45.84266" lon="3.27376">
        <ele>315.2</ele>
        <time>2024-05-18T13:42:44Z</time>
      </trkpt>
      <trkpt lat="45.84272" lon="3.27381">
        <ele>315.2</ele>
        <time>2024-05-18T13:42:45Z</time>
      </trkpt>
      <trkpt lat="45.84277" lon="3.27386">
        <ele>315.2</ele>
        <time>2024-05-18T13:42:46Z</time>
      </trkpt>
      <trkpt lat="45.84282" lon="3.27392">
        <ele>315.2</ele>
        <time>2024-05-18T13:42:47Z</time>
      </trkpt>
      <trkpt lat="45.84287" lon="3.27397">
        <ele>315.2</ele>
        <time>2024-05-18T13:42:48Z</time>
      </trkpt>
      <trkpt lat="45.84292" lon="3.27403">
        <ele>315.2</ele>
        <time>2024-05-18T13:42:49Z</time>
      </trkpt>
      <trkpt lat="45.84298" lon="3.27408">
        <ele>315.2</ele>
        <time>2024-05-18T13:42:50Z</time>
      </trkpt>
      <trkpt lat="45.84303" lon="3.27414">
        <ele>315.2</ele>
        <time>2024-05-18T13:42:51Z</time>
      </trkpt>
      <trkpt lat="45.84308" lon="3.27419">
        <ele>315.2</ele>
        <time>2024-05-18T13:42:52Z</time>
      </trkpt>
      <trkpt lat="45.84313" lon="3.27425">
        <ele>315.4</ele>
        <time>2024-05-18T13:42:53Z</time>
      </trkpt>
      <trkpt lat="45.84313" lon="3.27425">
        <ele>315.4</ele>
        <time>2024-05-18T13:42:54Z</time>
      </trkpt>
      <trkpt lat="45.84323" lon="3.27436">
        <ele>315.4</ele>
        <time>2024-05-18T13:42:55Z</time>
      </trkpt>
      <trkpt lat="45.84328" lon="3.27441">
        <ele>315.4</ele>
        <time>2024-05-18T13:42:56Z</time>
      </trkpt>
      <trkpt lat="45.84333" lon="3.27447">
        <ele>315.4</ele>
        <time>2024-05-18T13:42:57Z</time>
      </trkpt>
      <trkpt lat="45.84338" lon="3.27452">
        <ele>315.4</ele>
        <time>2024-05-18T13:42:58Z</time>
      </trkpt>
      <trkpt lat="45.84338" lon="3.27452">
        <ele>315.6</ele>
        <time>2024-05-18T13:42:59Z</time>
      </trkpt>
      <trkpt lat="45.84349" lon="3.27463">
        <ele>315.6</ele>
        <time>2024-05-18T13:43:00Z</time>
      </trkpt>
      <trkpt lat="45.84354" lon="3.27468">
        <ele>315.6</ele>
        <time>2024-05-18T13:43:01Z</time>
      </trkpt>
      <trkpt lat="45.84359" lon="3.27474">
        <ele>315.6</ele>
        <time>2024-05-18T13:43:02Z</time>
      </trkpt>
      <trkpt lat="45.84364" lon="3.27479">
        <ele>315.6</ele>
        <time>2024-05-18T13:43:03Z</time>
      </trkpt>
      <trkpt lat="45.84369" lon="3.27485">
        <ele>315.6</ele>
        <time>2024-05-18T13:43:04Z</time>
      </trkpt>
      <trkpt lat="45.84373" lon="3.27491">
        <ele>315.6</ele>
        <time>2024-05-18T13:43:05Z</time>
      </trkpt>
      <trkpt lat="45.84373" lon="3.27491">
        <ele>315.6</ele>
        <time>2024-05-18T13:43:06Z</time>
      </trkpt>
      <trkpt lat="45.84383" lon="3.27502">
        <ele>315.8</ele>
        <time>2024-05-18T13:43:07Z</time>
      </trkpt>
      <trkpt lat="45.84388" lon="3.27508">
        <ele>315.8</ele>
        <time>2024-05-18T13:43:08Z</time>
      </trkpt>
      <trkpt lat="45.84392" lon="3.27514">
        <ele>315.8</ele>
        <time>2024-05-18T13:43:09Z</time>
      </trkpt>
      <trkpt lat="45.84397" lon="3.2752">
        <ele>315.8</ele>
        <time>2024-05-18T13:43:10Z</time>
      </trkpt>
      <trkpt lat="45.84402" lon="3.27526">
        <ele>315.8</ele>
        <time>2024-05-18T13:43:11Z</time>
      </trkpt>
      <trkpt lat="45.84407" lon="3.27532">
        <ele>315.8</ele>
        <time>2024-05-18T13:43:12Z</time>
      </trkpt>
      <trkpt lat="45.84407" lon="3.27532">
        <ele>315.8</ele>
        <time>2024-05-18T13:43:13Z</time>
      </trkpt>
      <trkpt lat="45.84417" lon="3.27544">
        <ele>316</ele>
        <time>2024-05-18T13:43:14Z</time>
      </trkpt>
      <trkpt lat="45.84421" lon="3.2755">
        <ele>316</ele>
        <time>2024-05-18T13:43:15Z</time>
      </trkpt>
      <trkpt lat="45.84426" lon="3.27556">
        <ele>316</ele>
        <time>2024-05-18T13:43:16Z</time>
      </trkpt>
      <trkpt lat="45.84431" lon="3.27563">
        <ele>316</ele>
        <time>2024-05-18T13:43:17Z</time>
      </trkpt>
      <trkpt lat="45.84434" lon="3.27571">
        <ele>316</ele>
        <time>2024-05-18T13:43:18Z</time>
      </trkpt>
      <trkpt lat="45.84437" lon="3.27579">
        <ele>316</ele>
        <time>2024-05-18T13:43:19Z</time>
      </trkpt>
      <trkpt lat="45.8444" lon="3.27588">
        <ele>316</ele>
        <time>2024-05-18T13:43:20Z</time>
      </trkpt>
      <trkpt lat="45.84444" lon="3.27596">
        <ele>316.2</ele>
        <time>2024-05-18T13:43:21Z</time>
      </trkpt>
      <trkpt lat="45.84447" lon="3.27604">
        <ele>316.2</ele>
        <time>2024-05-18T13:43:22Z</time>
      </trkpt>
      <trkpt lat="45.8445" lon="3.27613">
        <ele>316.2</ele>
        <time>2024-05-18T13:43:23Z</time>
      </trkpt>
      <trkpt lat="45.84453" lon="3.27621">
        <ele>316.2</ele>
        <time>2024-05-18T13:43:24Z</time>
      </trkpt>
      <trkpt lat="45.84457" lon="3.2763">
        <ele>316.2</ele>
        <time>2024-05-18T13:43:25Z</time>
      </trkpt>
      <trkpt lat="45.8446" lon="3.27639">
        <ele>316.2</ele>
        <time>2024-05-18T13:43:26Z</time>
      </trkpt>
      <trkpt lat="45.84463" lon="3.27648">
        <ele>316.2</ele>
        <time>2024-05-18T13:43:27Z</time>
      </trkpt>
      <trkpt lat="45.84466" lon="3.27658">
        <ele>316.2</ele>
        <time>2024-05-18T13:43:28Z</time>
      </trkpt>
      <trkpt lat="45.84468" lon="3.27668">
        <ele>316</ele>
        <time>2024-05-18T13:43:29Z</time>
      </trkpt>
      <trkpt lat="45.84471" lon="3.27678">
        <ele>316</ele>
        <time>2024-05-18T13:43:30Z</time>
      </trkpt>
      <trkpt lat="45.84474" lon="3.27687">
        <ele>316</ele>
        <time>2024-05-18T13:43:31Z</time>
      </trkpt>
      <trkpt lat="45.84477" lon="3.27697">
        <ele>316</ele>
        <time>2024-05-18T13:43:32Z</time>
      </trkpt>
      <trkpt lat="45.8448" lon="3.27707">
        <ele>316</ele>
        <time>2024-05-18T13:43:33Z</time>
      </trkpt>
      <trkpt lat="45.84483" lon="3.27716">
        <ele>316</ele>
        <time>2024-05-18T13:43:34Z</time>
      </trkpt>
      <trkpt lat="45.84485" lon="3.27726">
        <ele>316</ele>
        <time>2024-05-18T13:43:35Z</time>
      </trkpt>
      <trkpt lat="45.84488" lon="3.27735">
        <ele>316.2</ele>
        <time>2024-05-18T13:43:36Z</time>
      </trkpt>
      <trkpt lat="45.84491" lon="3.27745">
        <ele>316.2</ele>
        <time>2024-05-18T13:43:37Z</time>
      </trkpt>
      <trkpt lat="45.84493" lon="3.27754">
        <ele>316</ele>
        <time>2024-05-18T13:43:38Z</time>
      </trkpt>
      <trkpt lat="45.84496" lon="3.27763">
        <ele>316.2</ele>
        <time>2024-05-18T13:43:39Z</time>
      </trkpt>
      <trkpt lat="45.84499" lon="3.27773">
        <ele>316.2</ele>
        <time>2024-05-18T13:43:40Z</time>
      </trkpt>
      <trkpt lat="45.84502" lon="3.27782">
        <ele>316.2</ele>
        <time>2024-05-18T13:43:41Z</time>
      </trkpt>
      <trkpt lat="45.84505" lon="3.27792">
        <ele>316</ele>
        <time>2024-05-18T13:43:42Z</time>
      </trkpt>
      <trkpt lat="45.84507" lon="3.27801">
        <ele>316</ele>
        <time>2024-05-18T13:43:43Z</time>
      </trkpt>
      <trkpt lat="45.8451" lon="3.2781">
        <ele>316.2</ele>
        <time>2024-05-18T13:43:44Z</time>
      </trkpt>
      <trkpt lat="45.84513" lon="3.2782">
        <ele>316</ele>
        <time>2024-05-18T13:43:45Z</time>
      </trkpt>
      <trkpt lat="45.84515" lon="3.27829">
        <ele>316</ele>
        <time>2024-05-18T13:43:46Z</time>
      </trkpt>
      <trkpt lat="45.84518" lon="3.27839">
        <ele>316</ele>
        <time>2024-05-18T13:43:47Z</time>
      </trkpt>
      <trkpt lat="45.84521" lon="3.27848">
        <ele>316</ele>
        <time>2024-05-18T13:43:48Z</time>
      </trkpt>
      <trkpt lat="45.84524" lon="3.27858">
        <ele>316</ele>
        <time>2024-05-18T13:43:49Z</time>
      </trkpt>
      <trkpt lat="45.84527" lon="3.27867">
        <ele>316</ele>
        <time>2024-05-18T13:43:50Z</time>
      </trkpt>
      <trkpt lat="45.84529" lon="3.27877">
        <ele>316.2</ele>
        <time>2024-05-18T13:43:51Z</time>
      </trkpt>
      <trkpt lat="45.84532" lon="3.27887">
        <ele>316.2</ele>
        <time>2024-05-18T13:43:52Z</time>
      </trkpt>
      <trkpt lat="45.84535" lon="3.27897">
        <ele>316</ele>
        <time>2024-05-18T13:43:53Z</time>
      </trkpt>
      <trkpt lat="45.84538" lon="3.27907">
        <ele>316</ele>
        <time>2024-05-18T13:43:54Z</time>
      </trkpt>
      <trkpt lat="45.84541" lon="3.27917">
        <ele>316.2</ele>
        <time>2024-05-18T13:43:55Z</time>
      </trkpt>
      <trkpt lat="45.84544" lon="3.27927">
        <ele>316.2</ele>
        <time>2024-05-18T13:43:56Z</time>
      </trkpt>
      <trkpt lat="45.84547" lon="3.27937">
        <ele>316.2</ele>
        <time>2024-05-18T13:43:57Z</time>
      </trkpt>
      <trkpt lat="45.8455" lon="3.27947">
        <ele>316.2</ele>
        <time>2024-05-18T13:43:58Z</time>
      </trkpt>
      <trkpt lat="45.84553" lon="3.27957">
        <ele>316.2</ele>
        <time>2024-05-18T13:43:59Z</time>
      </trkpt>
      <trkpt lat="45.84555" lon="3.27967">
        <ele>316.2</ele>
        <time>2024-05-18T13:44:00Z</time>
      </trkpt>
      <trkpt lat="45.84558" lon="3.27977">
        <ele>316.2</ele>
        <time>2024-05-18T13:44:01Z</time>
      </trkpt>
      <trkpt lat="45.84561" lon="3.27987">
        <ele>316.2</ele>
        <time>2024-05-18T13:44:02Z</time>
      </trkpt>
      <trkpt lat="45.84565" lon="3.27996">
        <ele>316.2</ele>
        <time>2024-05-18T13:44:03Z</time>
      </trkpt>
      <trkpt lat="45.8457" lon="3.28005">
        <ele>316.2</ele>
        <time>2024-05-18T13:44:04Z</time>
      </trkpt>
      <trkpt lat="45.84575" lon="3.28013">
        <ele>316.2</ele>
        <time>2024-05-18T13:44:05Z</time>
      </trkpt>
      <trkpt lat="45.84579" lon="3.28022">
        <ele>316.2</ele>
        <time>2024-05-18T13:44:06Z</time>
      </trkpt>
      <trkpt lat="45.84584" lon="3.28031">
        <ele>316.2</ele>
        <time>2024-05-18T13:44:07Z</time>
      </trkpt>
      <trkpt lat="45.84589" lon="3.28039">
        <ele>316.2</ele>
        <time>2024-05-18T13:44:08Z</time>
      </trkpt>
      <trkpt lat="45.84595" lon="3.28045">
        <ele>316.2</ele>
        <time>2024-05-18T13:44:09Z</time>
      </trkpt>
      <trkpt lat="45.84601" lon="3.28052">
        <ele>316.2</ele>
        <time>2024-05-18T13:44:10Z</time>
      </trkpt>
      <trkpt lat="45.84607" lon="3.28058">
        <ele>316.4</ele>
        <time>2024-05-18T13:44:11Z</time>
      </trkpt>
      <trkpt lat="45.84614" lon="3.28065">
        <ele>316.2</ele>
        <time>2024-05-18T13:44:12Z</time>
      </trkpt>
      <trkpt lat="45.8462" lon="3.28071">
        <ele>316.2</ele>
        <time>2024-05-18T13:44:13Z</time>
      </trkpt>
      <trkpt lat="45.84626" lon="3.28078">
        <ele>316</ele>
        <time>2024-05-18T13:44:14Z</time>
      </trkpt>
      <trkpt lat="45.84632" lon="3.28084">
        <ele>316</ele>
        <time>2024-05-18T13:44:15Z</time>
      </trkpt>
      <trkpt lat="45.84638" lon="3.28091">
        <ele>316</ele>
        <time>2024-05-18T13:44:16Z</time>
      </trkpt>
      <trkpt lat="45.84645" lon="3.28097">
        <ele>316</ele>
        <time>2024-05-18T13:44:17Z</time>
      </trkpt>
      <trkpt lat="45.84651" lon="3.28104">
        <ele>315.8</ele>
        <time>2024-05-18T13:44:18Z</time>
      </trkpt>
      <trkpt lat="45.84657" lon="3.28111">
        <ele>315.8</ele>
        <time>2024-05-18T13:44:19Z</time>
      </trkpt>
      <trkpt lat="45.84664" lon="3.28117">
        <ele>315.6</ele>
        <time>2024-05-18T13:44:20Z</time>
      </trkpt>
      <trkpt lat="45.8467" lon="3.28124">
        <ele>315.6</ele>
        <time>2024-05-18T13:44:21Z</time>
      </trkpt>
      <trkpt lat="45.84677" lon="3.28131">
        <ele>315.6</ele>
        <time>2024-05-18T13:44:22Z</time>
      </trkpt>
      <trkpt lat="45.84683" lon="3.28137">
        <ele>315.6</ele>
        <time>2024-05-18T13:44:23Z</time>
      </trkpt>
      <trkpt lat="45.8469" lon="3.28144">
        <ele>315.6</ele>
        <time>2024-05-18T13:44:24Z</time>
      </trkpt>
      <trkpt lat="45.84696" lon="3.28151">
        <ele>315.6</ele>
        <time>2024-05-18T13:44:25Z</time>
      </trkpt>
      <trkpt lat="45.84703" lon="3.28158">
        <ele>315.6</ele>
        <time>2024-05-18T13:44:26Z</time>
      </trkpt>
      <trkpt lat="45.8471" lon="3.28165">
        <ele>315.6</ele>
        <time>2024-05-18T13:44:27Z</time>
      </trkpt>
      <trkpt lat="45.84717" lon="3.28172">
        <ele>315.4</ele>
        <time>2024-05-18T13:44:28Z</time>
      </trkpt>
      <trkpt lat="45.84723" lon="3.28179">
        <ele>315.4</ele>
        <time>2024-05-18T13:44:29Z</time>
      </trkpt>
      <trkpt lat="45.8473" lon="3.28186">
        <ele>315.4</ele>
        <time>2024-05-18T13:44:30Z</time>
      </trkpt>
      <trkpt lat="45.84737" lon="3.28193">
        <ele>315.4</ele>
        <time>2024-05-18T13:44:31Z</time>
      </trkpt>
      <trkpt lat="45.84743" lon="3.282">
        <ele>315.4</ele>
        <time>2024-05-18T13:44:32Z</time>
      </trkpt>
      <trkpt lat="45.8475" lon="3.28207">
        <ele>315.4</ele>
        <time>2024-05-18T13:44:33Z</time>
      </trkpt>
      <trkpt lat="45.84757" lon="3.28214">
        <ele>315.2</ele>
        <time>2024-05-18T13:44:34Z</time>
      </trkpt>
      <trkpt lat="45.84764" lon="3.28222">
        <ele>315.2</ele>
        <time>2024-05-18T13:44:35Z</time>
      </trkpt>
      <trkpt lat="45.8477" lon="3.28229">
        <ele>315</ele>
        <time>2024-05-18T13:44:36Z</time>
      </trkpt>
      <trkpt lat="45.84777" lon="3.28236">
        <ele>315</ele>
        <time>2024-05-18T13:44:37Z</time>
      </trkpt>
      <trkpt lat="45.84784" lon="3.28243">
        <ele>315</ele>
        <time>2024-05-18T13:44:38Z</time>
      </trkpt>
      <trkpt lat="45.84791" lon="3.2825">
        <ele>315</ele>
        <time>2024-05-18T13:44:39Z</time>
      </trkpt>
      <trkpt lat="45.84798" lon="3.28258">
        <ele>315</ele>
        <time>2024-05-18T13:44:40Z</time>
      </trkpt>
      <trkpt lat="45.84805" lon="3.28265">
        <ele>315</ele>
        <time>2024-05-18T13:44:41Z</time>
      </trkpt>
      <trkpt lat="45.84812" lon="3.28272">
        <ele>314.8</ele>
        <time>2024-05-18T13:44:42Z</time>
      </trkpt>
      <trkpt lat="45.84819" lon="3.28279">
        <ele>315</ele>
        <time>2024-05-18T13:44:43Z</time>
      </trkpt>
      <trkpt lat="45.84826" lon="3.28286">
        <ele>315</ele>
        <time>2024-05-18T13:44:44Z</time>
      </trkpt>
      <trkpt lat="45.84833" lon="3.28293">
        <ele>315</ele>
        <time>2024-05-18T13:44:45Z</time>
      </trkpt>
      <trkpt lat="45.84839" lon="3.283">
        <ele>314.8</ele>
        <time>2024-05-18T13:44:46Z</time>
      </trkpt>
      <trkpt lat="45.84847" lon="3.28307">
        <ele>314.8</ele>
        <time>2024-05-18T13:44:47Z</time>
      </trkpt>
      <trkpt lat="45.84854" lon="3.28311">
        <ele>314.8</ele>
        <time>2024-05-18T13:44:48Z</time>
      </trkpt>
      <trkpt lat="45.84862" lon="3.28315">
        <ele>314.8</ele>
        <time>2024-05-18T13:44:49Z</time>
      </trkpt>
      <trkpt lat="45.84869" lon="3.28319">
        <ele>314.8</ele>
        <time>2024-05-18T13:44:50Z</time>
      </trkpt>
      <trkpt lat="45.84877" lon="3.28321">
        <ele>314.8</ele>
        <time>2024-05-18T13:44:51Z</time>
      </trkpt>
      <trkpt lat="45.84884" lon="3.28324">
        <ele>314.8</ele>
        <time>2024-05-18T13:44:52Z</time>
      </trkpt>
      <trkpt lat="45.84892" lon="3.28327">
        <ele>314.8</ele>
        <time>2024-05-18T13:44:53Z</time>
      </trkpt>
      <trkpt lat="45.84899" lon="3.28329">
        <ele>314.8</ele>
        <time>2024-05-18T13:44:54Z</time>
      </trkpt>
      <trkpt lat="45.84907" lon="3.28332">
        <ele>314.8</ele>
        <time>2024-05-18T13:44:55Z</time>
      </trkpt>
      <trkpt lat="45.84914" lon="3.28334">
        <ele>314.6</ele>
        <time>2024-05-18T13:44:56Z</time>
      </trkpt>
      <trkpt lat="45.84921" lon="3.28336">
        <ele>314.8</ele>
        <time>2024-05-18T13:44:57Z</time>
      </trkpt>
      <trkpt lat="45.84929" lon="3.28337">
        <ele>314.8</ele>
        <time>2024-05-18T13:44:58Z</time>
      </trkpt>
      <trkpt lat="45.84936" lon="3.28339">
        <ele>314.8</ele>
        <time>2024-05-18T13:44:59Z</time>
      </trkpt>
      <trkpt lat="45.84943" lon="3.2834">
        <ele>314.8</ele>
        <time>2024-05-18T13:45:00Z</time>
      </trkpt>
      <trkpt lat="45.84951" lon="3.28342">
        <ele>314.8</ele>
        <time>2024-05-18T13:45:01Z</time>
      </trkpt>
      <trkpt lat="45.84958" lon="3.28343">
        <ele>314.6</ele>
        <time>2024-05-18T13:45:02Z</time>
      </trkpt>
      <trkpt lat="45.84965" lon="3.28344">
        <ele>314.6</ele>
        <time>2024-05-18T13:45:03Z</time>
      </trkpt>
      <trkpt lat="45.84972" lon="3.28346">
        <ele>314.6</ele>
        <time>2024-05-18T13:45:04Z</time>
      </trkpt>
      <trkpt lat="45.8498" lon="3.28347">
        <ele>314.6</ele>
        <time>2024-05-18T13:45:05Z</time>
      </trkpt>
      <trkpt lat="45.84987" lon="3.28349">
        <ele>314.6</ele>
        <time>2024-05-18T13:45:06Z</time>
      </trkpt>
      <trkpt lat="45.84995" lon="3.2835">
        <ele>314.6</ele>
        <time>2024-05-18T13:45:07Z</time>
      </trkpt>
      <trkpt lat="45.85003" lon="3.28352">
        <ele>314.6</ele>
        <time>2024-05-18T13:45:08Z</time>
      </trkpt>
      <trkpt lat="45.8501" lon="3.28353">
        <ele>314.6</ele>
        <time>2024-05-18T13:45:09Z</time>
      </trkpt>
      <trkpt lat="45.85018" lon="3.28354">
        <ele>314.6</ele>
        <time>2024-05-18T13:45:10Z</time>
      </trkpt>
      <trkpt lat="45.85026" lon="3.28356">
        <ele>314.6</ele>
        <time>2024-05-18T13:45:11Z</time>
      </trkpt>
      <trkpt lat="45.85033" lon="3.28359">
        <ele>314.6</ele>
        <time>2024-05-18T13:45:12Z</time>
      </trkpt>
      <trkpt lat="45.8504" lon="3.28362">
        <ele>314.6</ele>
        <time>2024-05-18T13:45:13Z</time>
      </trkpt>
      <trkpt lat="45.85047" lon="3.28366">
        <ele>314.6</ele>
        <time>2024-05-18T13:45:14Z</time>
      </trkpt>
      <trkpt lat="45.85055" lon="3.28369">
        <ele>314.4</ele>
        <time>2024-05-18T13:45:15Z</time>
      </trkpt>
      <trkpt lat="45.85062" lon="3.28372">
        <ele>314.4</ele>
        <time>2024-05-18T13:45:16Z</time>
      </trkpt>
      <trkpt lat="45.85068" lon="3.28375">
        <ele>314.6</ele>
        <time>2024-05-18T13:45:17Z</time>
      </trkpt>
      <trkpt lat="45.85075" lon="3.2838">
        <ele>314.6</ele>
        <time>2024-05-18T13:45:18Z</time>
      </trkpt>
      <trkpt lat="45.85081" lon="3.28384">
        <ele>314.6</ele>
        <time>2024-05-18T13:45:19Z</time>
      </trkpt>
      <trkpt lat="45.85088" lon="3.28389">
        <ele>314.6</ele>
        <time>2024-05-18T13:45:20Z</time>
      </trkpt>
      <trkpt lat="45.85094" lon="3.28394">
        <ele>314.6</ele>
        <time>2024-05-18T13:45:21Z</time>
      </trkpt>
      <trkpt lat="45.85101" lon="3.28399">
        <ele>314.6</ele>
        <time>2024-05-18T13:45:22Z</time>
      </trkpt>
      <trkpt lat="45.85107" lon="3.28404">
        <ele>314.6</ele>
        <time>2024-05-18T13:45:23Z</time>
      </trkpt>
      <trkpt lat="45.85113" lon="3.28409">
        <ele>314.4</ele>
        <time>2024-05-18T13:45:24Z</time>
      </trkpt>
      <trkpt lat="45.8512" lon="3.28415">
        <ele>314.4</ele>
        <time>2024-05-18T13:45:25Z</time>
      </trkpt>
      <trkpt lat="45.85126" lon="3.28421">
        <ele>314.4</ele>
        <time>2024-05-18T13:45:26Z</time>
      </trkpt>
      <trkpt lat="45.85132" lon="3.28427">
        <ele>314.4</ele>
        <time>2024-05-18T13:45:27Z</time>
      </trkpt>
      <trkpt lat="45.85138" lon="3.28434">
        <ele>314.4</ele>
        <time>2024-05-18T13:45:28Z</time>
      </trkpt>
      <trkpt lat="45.85144" lon="3.2844">
        <ele>314.4</ele>
        <time>2024-05-18T13:45:29Z</time>
      </trkpt>
      <trkpt lat="45.8515" lon="3.28446">
        <ele>314.2</ele>
        <time>2024-05-18T13:45:30Z</time>
      </trkpt>
      <trkpt lat="45.85156" lon="3.28454">
        <ele>314.2</ele>
        <time>2024-05-18T13:45:31Z</time>
      </trkpt>
      <trkpt lat="45.85162" lon="3.28462">
        <ele>314.2</ele>
        <time>2024-05-18T13:45:32Z</time>
      </trkpt>
      <trkpt lat="45.85168" lon="3.2847">
        <ele>314.2</ele>
        <time>2024-05-18T13:45:33Z</time>
      </trkpt>
      <trkpt lat="45.85173" lon="3.28478">
        <ele>314.2</ele>
        <time>2024-05-18T13:45:34Z</time>
      </trkpt>
      <trkpt lat="45.85179" lon="3.28486">
        <ele>314.2</ele>
        <time>2024-05-18T13:45:35Z</time>
      </trkpt>
      <trkpt lat="45.85184" lon="3.28494">
        <ele>314</ele>
        <time>2024-05-18T13:45:36Z</time>
      </trkpt>
      <trkpt lat="45.85189" lon="3.28503">
        <ele>314</ele>
        <time>2024-05-18T13:45:37Z</time>
      </trkpt>
      <trkpt lat="45.85194" lon="3.28511">
        <ele>314</ele>
        <time>2024-05-18T13:45:38Z</time>
      </trkpt>
      <trkpt lat="45.85199" lon="3.28519">
        <ele>314</ele>
        <time>2024-05-18T13:45:39Z</time>
      </trkpt>
      <trkpt lat="45.85204" lon="3.28528">
        <ele>314</ele>
        <time>2024-05-18T13:45:40Z</time>
      </trkpt>
      <trkpt lat="45.8521" lon="3.28536">
        <ele>314</ele>
        <time>2024-05-18T13:45:41Z</time>
      </trkpt>
      <trkpt lat="45.85214" lon="3.28544">
        <ele>314</ele>
        <time>2024-05-18T13:45:42Z</time>
      </trkpt>
      <trkpt lat="45.85219" lon="3.28552">
        <ele>314</ele>
        <time>2024-05-18T13:45:43Z</time>
      </trkpt>
      <trkpt lat="45.85225" lon="3.28561">
        <ele>314</ele>
        <time>2024-05-18T13:45:44Z</time>
      </trkpt>
      <trkpt lat="45.8523" lon="3.28569">
        <ele>314</ele>
        <time>2024-05-18T13:45:45Z</time>
      </trkpt>
      <trkpt lat="45.85234" lon="3.28577">
        <ele>314</ele>
        <time>2024-05-18T13:45:46Z</time>
      </trkpt>
      <trkpt lat="45.85239" lon="3.28585">
        <ele>314</ele>
        <time>2024-05-18T13:45:47Z</time>
      </trkpt>
      <trkpt lat="45.85244" lon="3.28593">
        <ele>314</ele>
        <time>2024-05-18T13:45:48Z</time>
      </trkpt>
      <trkpt lat="45.85249" lon="3.28601">
        <ele>314</ele>
        <time>2024-05-18T13:45:49Z</time>
      </trkpt>
      <trkpt lat="45.85254" lon="3.2861">
        <ele>314</ele>
        <time>2024-05-18T13:45:50Z</time>
      </trkpt>
      <trkpt lat="45.85259" lon="3.28618">
        <ele>314</ele>
        <time>2024-05-18T13:45:51Z</time>
      </trkpt>
      <trkpt lat="45.85264" lon="3.28626">
        <ele>313.8</ele>
        <time>2024-05-18T13:45:52Z</time>
      </trkpt>
      <trkpt lat="45.8527" lon="3.28635">
        <ele>313.8</ele>
        <time>2024-05-18T13:45:53Z</time>
      </trkpt>
      <trkpt lat="45.85275" lon="3.28643">
        <ele>313.8</ele>
        <time>2024-05-18T13:45:54Z</time>
      </trkpt>
      <trkpt lat="45.8528" lon="3.28652">
        <ele>313.8</ele>
        <time>2024-05-18T13:45:55Z</time>
      </trkpt>
      <trkpt lat="45.85285" lon="3.2866">
        <ele>313.8</ele>
        <time>2024-05-18T13:45:56Z</time>
      </trkpt>
      <trkpt lat="45.8529" lon="3.28668">
        <ele>313.8</ele>
        <time>2024-05-18T13:45:57Z</time>
      </trkpt>
      <trkpt lat="45.85295" lon="3.28676">
        <ele>313.8</ele>
        <time>2024-05-18T13:45:58Z</time>
      </trkpt>
      <trkpt lat="45.853" lon="3.28684">
        <ele>313.8</ele>
        <time>2024-05-18T13:45:59Z</time>
      </trkpt>
      <trkpt lat="45.85305" lon="3.28691">
        <ele>313.8</ele>
        <time>2024-05-18T13:46:00Z</time>
      </trkpt>
      <trkpt lat="45.8531" lon="3.28699">
        <ele>313.8</ele>
        <time>2024-05-18T13:46:01Z</time>
      </trkpt>
      <trkpt lat="45.85315" lon="3.28707">
        <ele>313.8</ele>
        <time>2024-05-18T13:46:02Z</time>
      </trkpt>
      <trkpt lat="45.8532" lon="3.28715">
        <ele>313.6</ele>
        <time>2024-05-18T13:46:03Z</time>
      </trkpt>
      <trkpt lat="45.85325" lon="3.28723">
        <ele>313.6</ele>
        <time>2024-05-18T13:46:04Z</time>
      </trkpt>
      <trkpt lat="45.8533" lon="3.28731">
        <ele>313.6</ele>
        <time>2024-05-18T13:46:05Z</time>
      </trkpt>
      <trkpt lat="45.85335" lon="3.28739">
        <ele>313.6</ele>
        <time>2024-05-18T13:46:06Z</time>
      </trkpt>
      <trkpt lat="45.8534" lon="3.28747">
        <ele>313.4</ele>
        <time>2024-05-18T13:46:07Z</time>
      </trkpt>
      <trkpt lat="45.85345" lon="3.28755">
        <ele>313.4</ele>
        <time>2024-05-18T13:46:08Z</time>
      </trkpt>
      <trkpt lat="45.8535" lon="3.28763">
        <ele>313.4</ele>
        <time>2024-05-18T13:46:09Z</time>
      </trkpt>
      <trkpt lat="45.85355" lon="3.28771">
        <ele>313.4</ele>
        <time>2024-05-18T13:46:10Z</time>
      </trkpt>
      <trkpt lat="45.8536" lon="3.28779">
        <ele>313.4</ele>
        <time>2024-05-18T13:46:11Z</time>
      </trkpt>
      <trkpt lat="45.85365" lon="3.28787">
        <ele>313.4</ele>
        <time>2024-05-18T13:46:12Z</time>
      </trkpt>
      <trkpt lat="45.8537" lon="3.28795">
        <ele>313.4</ele>
        <time>2024-05-18T13:46:13Z</time>
      </trkpt>
      <trkpt lat="45.85375" lon="3.28803">
        <ele>313.4</ele>
        <time>2024-05-18T13:46:14Z</time>
      </trkpt>
      <trkpt lat="45.8538" lon="3.28811">
        <ele>313.4</ele>
        <time>2024-05-18T13:46:15Z</time>
      </trkpt>
      <trkpt lat="45.85385" lon="3.28819">
        <ele>313.4</ele>
        <time>2024-05-18T13:46:16Z</time>
      </trkpt>
      <trkpt lat="45.8539" lon="3.28827">
        <ele>313.2</ele>
        <time>2024-05-18T13:46:17Z</time>
      </trkpt>
      <trkpt lat="45.85395" lon="3.28835">
        <ele>313.2</ele>
        <time>2024-05-18T13:46:18Z</time>
      </trkpt>
      <trkpt lat="45.854" lon="3.28843">
        <ele>313.2</ele>
        <time>2024-05-18T13:46:19Z</time>
      </trkpt>
      <trkpt lat="45.85405" lon="3.28851">
        <ele>313.2</ele>
        <time>2024-05-18T13:46:20Z</time>
      </trkpt>
      <trkpt lat="45.8541" lon="3.28859">
        <ele>313.2</ele>
        <time>2024-05-18T13:46:21Z</time>
      </trkpt>
      <trkpt lat="45.85415" lon="3.28867">
        <ele>313</ele>
        <time>2024-05-18T13:46:22Z</time>
      </trkpt>
      <trkpt lat="45.8542" lon="3.28876">
        <ele>313</ele>
        <time>2024-05-18T13:46:23Z</time>
      </trkpt>
      <trkpt lat="45.85425" lon="3.28884">
        <ele>313</ele>
        <time>2024-05-18T13:46:24Z</time>
      </trkpt>
      <trkpt lat="45.8543" lon="3.28892">
        <ele>313</ele>
        <time>2024-05-18T13:46:25Z</time>
      </trkpt>
      <trkpt lat="45.85435" lon="3.289">
        <ele>313</ele>
        <time>2024-05-18T13:46:26Z</time>
      </trkpt>
      <trkpt lat="45.8544" lon="3.28908">
        <ele>313</ele>
        <time>2024-05-18T13:46:27Z</time>
      </trkpt>
      <trkpt lat="45.85445" lon="3.28916">
        <ele>313</ele>
        <time>2024-05-18T13:46:28Z</time>
      </trkpt>
      <trkpt lat="45.8545" lon="3.28924">
        <ele>313</ele>
        <time>2024-05-18T13:46:29Z</time>
      </trkpt>
      <trkpt lat="45.85456" lon="3.28933">
        <ele>312.8</ele>
        <time>2024-05-18T13:46:30Z</time>
      </trkpt>
      <trkpt lat="45.85461" lon="3.28941">
        <ele>312.8</ele>
        <time>2024-05-18T13:46:31Z</time>
      </trkpt>
      <trkpt lat="45.85466" lon="3.28949">
        <ele>312.8</ele>
        <time>2024-05-18T13:46:32Z</time>
      </trkpt>
      <trkpt lat="45.8547" lon="3.28957">
        <ele>312.8</ele>
        <time>2024-05-18T13:46:33Z</time>
      </trkpt>
      <trkpt lat="45.85475" lon="3.28966">
        <ele>312.8</ele>
        <time>2024-05-18T13:46:34Z</time>
      </trkpt>
      <trkpt lat="45.85479" lon="3.28974">
        <ele>312.8</ele>
        <time>2024-05-18T13:46:35Z</time>
      </trkpt>
      <trkpt lat="45.85484" lon="3.28983">
        <ele>312.8</ele>
        <time>2024-05-18T13:46:36Z</time>
      </trkpt>
      <trkpt lat="45.85488" lon="3.28992">
        <ele>312.6</ele>
        <time>2024-05-18T13:46:37Z</time>
      </trkpt>
      <trkpt lat="45.85493" lon="3.29">
        <ele>312.6</ele>
        <time>2024-05-18T13:46:38Z</time>
      </trkpt>
      <trkpt lat="45.85496" lon="3.2901">
        <ele>312.6</ele>
        <time>2024-05-18T13:46:39Z</time>
      </trkpt>
      <trkpt lat="45.85499" lon="3.29019">
        <ele>312.6</ele>
        <time>2024-05-18T13:46:40Z</time>
      </trkpt>
      <trkpt lat="45.85503" lon="3.29029">
        <ele>312.6</ele>
        <time>2024-05-18T13:46:41Z</time>
      </trkpt>
      <trkpt lat="45.85506" lon="3.29039">
        <ele>312.6</ele>
        <time>2024-05-18T13:46:42Z</time>
      </trkpt>
      <trkpt lat="45.8551" lon="3.29048">
        <ele>312.4</ele>
        <time>2024-05-18T13:46:43Z</time>
      </trkpt>
      <trkpt lat="45.85513" lon="3.29058">
        <ele>312.4</ele>
        <time>2024-05-18T13:46:44Z</time>
      </trkpt>
      <trkpt lat="45.85517" lon="3.29067">
        <ele>312.4</ele>
        <time>2024-05-18T13:46:45Z</time>
      </trkpt>
      <trkpt lat="45.8552" lon="3.29077">
        <ele>312.4</ele>
        <time>2024-05-18T13:46:46Z</time>
      </trkpt>
      <trkpt lat="45.85524" lon="3.29087">
        <ele>312.2</ele>
        <time>2024-05-18T13:46:47Z</time>
      </trkpt>
      <trkpt lat="45.85527" lon="3.29097">
        <ele>312.2</ele>
        <time>2024-05-18T13:46:48Z</time>
      </trkpt>
      <trkpt lat="45.85531" lon="3.29107">
        <ele>312.2</ele>
        <time>2024-05-18T13:46:49Z</time>
      </trkpt>
      <trkpt lat="45.85534" lon="3.29117">
        <ele>312.2</ele>
        <time>2024-05-18T13:46:50Z</time>
      </trkpt>
      <trkpt lat="45.85538" lon="3.29126">
        <ele>312.2</ele>
        <time>2024-05-18T13:46:51Z</time>
      </trkpt>
      <trkpt lat="45.85541" lon="3.29136">
        <ele>312.2</ele>
        <time>2024-05-18T13:46:52Z</time>
      </trkpt>
      <trkpt lat="45.85545" lon="3.29146">
        <ele>312.2</ele>
        <time>2024-05-18T13:46:53Z</time>
      </trkpt>
      <trkpt lat="45.85548" lon="3.29156">
        <ele>312</ele>
        <time>2024-05-18T13:46:54Z</time>
      </trkpt>
      <trkpt lat="45.85552" lon="3.29166">
        <ele>312</ele>
        <time>2024-05-18T13:46:55Z</time>
      </trkpt>
      <trkpt lat="45.85555" lon="3.29176">
        <ele>312</ele>
        <time>2024-05-18T13:46:56Z</time>
      </trkpt>
      <trkpt lat="45.85559" lon="3.29186">
        <ele>312</ele>
        <time>2024-05-18T13:46:57Z</time>
      </trkpt>
      <trkpt lat="45.85563" lon="3.29196">
        <ele>311.8</ele>
        <time>2024-05-18T13:46:58Z</time>
      </trkpt>
      <trkpt lat="45.85566" lon="3.29206">
        <ele>311.8</ele>
        <time>2024-05-18T13:46:59Z</time>
      </trkpt>
      <trkpt lat="45.8557" lon="3.29216">
        <ele>311.8</ele>
        <time>2024-05-18T13:47:00Z</time>
      </trkpt>
      <trkpt lat="45.85573" lon="3.29227">
        <ele>311.8</ele>
        <time>2024-05-18T13:47:01Z</time>
      </trkpt>
      <trkpt lat="45.85577" lon="3.29237">
        <ele>311.6</ele>
        <time>2024-05-18T13:47:02Z</time>
      </trkpt>
      <trkpt lat="45.85581" lon="3.29247">
        <ele>311.6</ele>
        <time>2024-05-18T13:47:03Z</time>
      </trkpt>
      <trkpt lat="45.85584" lon="3.29257">
        <ele>311.6</ele>
        <time>2024-05-18T13:47:04Z</time>
      </trkpt>
      <trkpt lat="45.85588" lon="3.29268">
        <ele>311.6</ele>
        <time>2024-05-18T13:47:05Z</time>
      </trkpt>
      <trkpt lat="45.85592" lon="3.29277">
        <ele>311.4</ele>
        <time>2024-05-18T13:47:06Z</time>
      </trkpt>
      <trkpt lat="45.85596" lon="3.29287">
        <ele>311.4</ele>
        <time>2024-05-18T13:47:07Z</time>
      </trkpt>
      <trkpt lat="45.85599" lon="3.29296">
        <ele>311.2</ele>
        <time>2024-05-18T13:47:08Z</time>
      </trkpt>
      <trkpt lat="45.85603" lon="3.29306">
        <ele>311.2</ele>
        <time>2024-05-18T13:47:09Z</time>
      </trkpt>
      <trkpt lat="45.85607" lon="3.29315">
        <ele>311.2</ele>
        <time>2024-05-18T13:47:10Z</time>
      </trkpt>
      <trkpt lat="45.85611" lon="3.29325">
        <ele>311.2</ele>
        <time>2024-05-18T13:47:11Z</time>
      </trkpt>
      <trkpt lat="45.85616" lon="3.29335">
        <ele>311.2</ele>
        <time>2024-05-18T13:47:12Z</time>
      </trkpt>
      <trkpt lat="45.8562" lon="3.29344">
        <ele>311.2</ele>
        <time>2024-05-18T13:47:13Z</time>
      </trkpt>
      <trkpt lat="45.85624" lon="3.29354">
        <ele>311.2</ele>
        <time>2024-05-18T13:47:14Z</time>
      </trkpt>
      <trkpt lat="45.85628" lon="3.29363">
        <ele>311.2</ele>
        <time>2024-05-18T13:47:15Z</time>
      </trkpt>
      <trkpt lat="45.85632" lon="3.29373">
        <ele>311.2</ele>
        <time>2024-05-18T13:47:16Z</time>
      </trkpt>
      <trkpt lat="45.85636" lon="3.29383">
        <ele>311</ele>
        <time>2024-05-18T13:47:17Z</time>
      </trkpt>
      <trkpt lat="45.8564" lon="3.29392">
        <ele>311</ele>
        <time>2024-05-18T13:47:18Z</time>
      </trkpt>
      <trkpt lat="45.85643" lon="3.29402">
        <ele>311</ele>
        <time>2024-05-18T13:47:19Z</time>
      </trkpt>
      <trkpt lat="45.85646" lon="3.29412">
        <ele>311</ele>
        <time>2024-05-18T13:47:20Z</time>
      </trkpt>
      <trkpt lat="45.85649" lon="3.29422">
        <ele>311</ele>
        <time>2024-05-18T13:47:21Z</time>
      </trkpt>
      <trkpt lat="45.85652" lon="3.29432">
        <ele>311</ele>
        <time>2024-05-18T13:47:22Z</time>
      </trkpt>
      <trkpt lat="45.85655" lon="3.29442">
        <ele>311</ele>
        <time>2024-05-18T13:47:23Z</time>
      </trkpt>
      <trkpt lat="45.85658" lon="3.29452">
        <ele>310.8</ele>
        <time>2024-05-18T13:47:24Z</time>
      </trkpt>
      <trkpt lat="45.85662" lon="3.29463">
        <ele>310.8</ele>
        <time>2024-05-18T13:47:25Z</time>
      </trkpt>
      <trkpt lat="45.85665" lon="3.29473">
        <ele>310.8</ele>
        <time>2024-05-18T13:47:26Z</time>
      </trkpt>
      <trkpt lat="45.85668" lon="3.29483">
        <ele>310.8</ele>
        <time>2024-05-18T13:47:27Z</time>
      </trkpt>
      <trkpt lat="45.85671" lon="3.29493">
        <ele>310.6</ele>
        <time>2024-05-18T13:47:28Z</time>
      </trkpt>
      <trkpt lat="45.85675" lon="3.29504">
        <ele>310.6</ele>
        <time>2024-05-18T13:47:29Z</time>
      </trkpt>
      <trkpt lat="45.85678" lon="3.29514">
        <ele>310.6</ele>
        <time>2024-05-18T13:47:30Z</time>
      </trkpt>
      <trkpt lat="45.85681" lon="3.29524">
        <ele>310.6</ele>
        <time>2024-05-18T13:47:31Z</time>
      </trkpt>
      <trkpt lat="45.85684" lon="3.29534">
        <ele>310.6</ele>
        <time>2024-05-18T13:47:32Z</time>
      </trkpt>
      <trkpt lat="45.85687" lon="3.29544">
        <ele>310.4</ele>
        <time>2024-05-18T13:47:33Z</time>
      </trkpt>
      <trkpt lat="45.85691" lon="3.29555">
        <ele>310.4</ele>
        <time>2024-05-18T13:47:34Z</time>
      </trkpt>
      <trkpt lat="45.85694" lon="3.29565">
        <ele>310.4</ele>
        <time>2024-05-18T13:47:35Z</time>
      </trkpt>
      <trkpt lat="45.85697" lon="3.29575">
        <ele>310.4</ele>
        <time>2024-05-18T13:47:36Z</time>
      </trkpt>
      <trkpt lat="45.857" lon="3.29584">
        <ele>310.2</ele>
        <time>2024-05-18T13:47:37Z</time>
      </trkpt>
      <trkpt lat="45.85703" lon="3.29594">
        <ele>310.2</ele>
        <time>2024-05-18T13:47:38Z</time>
      </trkpt>
      <trkpt lat="45.85706" lon="3.29604">
        <ele>310.2</ele>
        <time>2024-05-18T13:47:39Z</time>
      </trkpt>
      <trkpt lat="45.85709" lon="3.29614">
        <ele>310.2</ele>
        <time>2024-05-18T13:47:40Z</time>
      </trkpt>
      <trkpt lat="45.85712" lon="3.29623">
        <ele>310.2</ele>
        <time>2024-05-18T13:47:41Z</time>
      </trkpt>
      <trkpt lat="45.85715" lon="3.29633">
        <ele>310</ele>
        <time>2024-05-18T13:47:42Z</time>
      </trkpt>
      <trkpt lat="45.85718" lon="3.29644">
        <ele>310</ele>
        <time>2024-05-18T13:47:43Z</time>
      </trkpt>
      <trkpt lat="45.85722" lon="3.29654">
        <ele>309.8</ele>
        <time>2024-05-18T13:47:44Z</time>
      </trkpt>
      <trkpt lat="45.85725" lon="3.29664">
        <ele>309.8</ele>
        <time>2024-05-18T13:47:45Z</time>
      </trkpt>
      <trkpt lat="45.85728" lon="3.29674">
        <ele>309.8</ele>
        <time>2024-05-18T13:47:46Z</time>
      </trkpt>
      <trkpt lat="45.85732" lon="3.29684">
        <ele>309.8</ele>
        <time>2024-05-18T13:47:47Z</time>
      </trkpt>
      <trkpt lat="45.85737" lon="3.29694">
        <ele>309.6</ele>
        <time>2024-05-18T13:47:48Z</time>
      </trkpt>
      <trkpt lat="45.85741" lon="3.29703">
        <ele>309.6</ele>
        <time>2024-05-18T13:47:49Z</time>
      </trkpt>
      <trkpt lat="45.85746" lon="3.29713">
        <ele>309.6</ele>
        <time>2024-05-18T13:47:50Z</time>
      </trkpt>
      <trkpt lat="45.85751" lon="3.29723">
        <ele>309.6</ele>
        <time>2024-05-18T13:47:51Z</time>
      </trkpt>
      <trkpt lat="45.85756" lon="3.29732">
        <ele>309.4</ele>
        <time>2024-05-18T13:47:52Z</time>
      </trkpt>
      <trkpt lat="45.85761" lon="3.29742">
        <ele>309.4</ele>
        <time>2024-05-18T13:47:53Z</time>
      </trkpt>
      <trkpt lat="45.85765" lon="3.29751">
        <ele>309.4</ele>
        <time>2024-05-18T13:47:54Z</time>
      </trkpt>
      <trkpt lat="45.8577" lon="3.29761">
        <ele>309.4</ele>
        <time>2024-05-18T13:47:55Z</time>
      </trkpt>
      <trkpt lat="45.85775" lon="3.29771">
        <ele>309.2</ele>
        <time>2024-05-18T13:47:56Z</time>
      </trkpt>
      <trkpt lat="45.85779" lon="3.2978">
        <ele>309.2</ele>
        <time>2024-05-18T13:47:57Z</time>
      </trkpt>
      <trkpt lat="45.85782" lon="3.29791">
        <ele>309.2</ele>
        <time>2024-05-18T13:47:58Z</time>
      </trkpt>
      <trkpt lat="45.85785" lon="3.29801">
        <ele>309</ele>
        <time>2024-05-18T13:47:59Z</time>
      </trkpt>
      <trkpt lat="45.85789" lon="3.29811">
        <ele>309</ele>
        <time>2024-05-18T13:48:00Z</time>
      </trkpt>
      <trkpt lat="45.85792" lon="3.29821">
        <ele>309</ele>
        <time>2024-05-18T13:48:01Z</time>
      </trkpt>
      <trkpt lat="45.85795" lon="3.29831">
        <ele>309</ele>
        <time>2024-05-18T13:48:02Z</time>
      </trkpt>
      <trkpt lat="45.85798" lon="3.2984">
        <ele>308.8</ele>
        <time>2024-05-18T13:48:03Z</time>
      </trkpt>
      <trkpt lat="45.85801" lon="3.2985">
        <ele>308.8</ele>
        <time>2024-05-18T13:48:04Z</time>
      </trkpt>
      <trkpt lat="45.85803" lon="3.29859">
        <ele>308.8</ele>
        <time>2024-05-18T13:48:05Z</time>
      </trkpt>
      <trkpt lat="45.85806" lon="3.29868">
        <ele>308.8</ele>
        <time>2024-05-18T13:48:06Z</time>
      </trkpt>
      <trkpt lat="45.85809" lon="3.29877">
        <ele>308.8</ele>
        <time>2024-05-18T13:48:07Z</time>
      </trkpt>
      <trkpt lat="45.85812" lon="3.29885">
        <ele>308.8</ele>
        <time>2024-05-18T13:48:08Z</time>
      </trkpt>
      <trkpt lat="45.85814" lon="3.29894">
        <ele>308.8</ele>
        <time>2024-05-18T13:48:09Z</time>
      </trkpt>
      <trkpt lat="45.85817" lon="3.29902">
        <ele>308.8</ele>
        <time>2024-05-18T13:48:10Z</time>
      </trkpt>
      <trkpt lat="45.85819" lon="3.2991">
        <ele>308.8</ele>
        <time>2024-05-18T13:48:11Z</time>
      </trkpt>
      <trkpt lat="45.85822" lon="3.29917">
        <ele>308.8</ele>
        <time>2024-05-18T13:48:12Z</time>
      </trkpt>
      <trkpt lat="45.85826" lon="3.29924">
        <ele>308.8</ele>
        <time>2024-05-18T13:48:13Z</time>
      </trkpt>
      <trkpt lat="45.85829" lon="3.29931">
        <ele>308.8</ele>
        <time>2024-05-18T13:48:14Z</time>
      </trkpt>
      <trkpt lat="45.85832" lon="3.29938">
        <ele>308.8</ele>
        <time>2024-05-18T13:48:15Z</time>
      </trkpt>
      <trkpt lat="45.85835" lon="3.29945">
        <ele>308.8</ele>
        <time>2024-05-18T13:48:16Z</time>
      </trkpt>
      <trkpt lat="45.8584" lon="3.29951">
        <ele>308.8</ele>
        <time>2024-05-18T13:48:17Z</time>
      </trkpt>
      <trkpt lat="45.85844" lon="3.29956">
        <ele>308.6</ele>
        <time>2024-05-18T13:48:18Z</time>
      </trkpt>
      <trkpt lat="45.8585" lon="3.29961">
        <ele>308.6</ele>
        <time>2024-05-18T13:48:19Z</time>
      </trkpt>
      <trkpt lat="45.85855" lon="3.29966">
        <ele>308.6</ele>
        <time>2024-05-18T13:48:20Z</time>
      </trkpt>
      <trkpt lat="45.8586" lon="3.29972">
        <ele>308.6</ele>
        <time>2024-05-18T13:48:21Z</time>
      </trkpt>
      <trkpt lat="45.85866" lon="3.29977">
        <ele>308.6</ele>
        <time>2024-05-18T13:48:22Z</time>
      </trkpt>
      <trkpt lat="45.85871" lon="3.29983">
        <ele>308.6</ele>
        <time>2024-05-18T13:48:23Z</time>
      </trkpt>
      <trkpt lat="45.85877" lon="3.29988">
        <ele>308.4</ele>
        <time>2024-05-18T13:48:24Z</time>
      </trkpt>
      <trkpt lat="45.85882" lon="3.29993">
        <ele>308.6</ele>
        <time>2024-05-18T13:48:25Z</time>
      </trkpt>
      <trkpt lat="45.85888" lon="3.29998">
        <ele>308.4</ele>
        <time>2024-05-18T13:48:26Z</time>
      </trkpt>
      <trkpt lat="45.85894" lon="3.30002">
        <ele>308.4</ele>
        <time>2024-05-18T13:48:27Z</time>
      </trkpt>
      <trkpt lat="45.859" lon="3.30007">
        <ele>308.4</ele>
        <time>2024-05-18T13:48:28Z</time>
      </trkpt>
      <trkpt lat="45.85906" lon="3.30011">
        <ele>308.4</ele>
        <time>2024-05-18T13:48:29Z</time>
      </trkpt>
      <trkpt lat="45.85911" lon="3.30015">
        <ele>308.4</ele>
        <time>2024-05-18T13:48:30Z</time>
      </trkpt>
      <trkpt lat="45.85917" lon="3.3002">
        <ele>308.4</ele>
        <time>2024-05-18T13:48:31Z</time>
      </trkpt>
      <trkpt lat="45.85922" lon="3.30024">
        <ele>308.2</ele>
        <time>2024-05-18T13:48:32Z</time>
      </trkpt>
      <trkpt lat="45.85927" lon="3.30028">
        <ele>308.2</ele>
        <time>2024-05-18T13:48:33Z</time>
      </trkpt>
      <trkpt lat="45.85933" lon="3.30033">
        <ele>308.2</ele>
        <time>2024-05-18T13:48:34Z</time>
      </trkpt>
      <trkpt lat="45.85939" lon="3.30037">
        <ele>308</ele>
        <time>2024-05-18T13:48:35Z</time>
      </trkpt>
      <trkpt lat="45.85944" lon="3.30041">
        <ele>308</ele>
        <time>2024-05-18T13:48:36Z</time>
      </trkpt>
      <trkpt lat="45.8595" lon="3.30046">
        <ele>308</ele>
        <time>2024-05-18T13:48:37Z</time>
      </trkpt>
      <trkpt lat="45.85955" lon="3.30051">
        <ele>308</ele>
        <time>2024-05-18T13:48:38Z</time>
      </trkpt>
      <trkpt lat="45.85961" lon="3.30056">
        <ele>308</ele>
        <time>2024-05-18T13:48:39Z</time>
      </trkpt>
      <trkpt lat="45.85966" lon="3.30061">
        <ele>308</ele>
        <time>2024-05-18T13:48:40Z</time>
      </trkpt>
      <trkpt lat="45.85972" lon="3.30066">
        <ele>308</ele>
        <time>2024-05-18T13:48:41Z</time>
      </trkpt>
      <trkpt lat="45.85977" lon="3.30071">
        <ele>308</ele>
        <time>2024-05-18T13:48:42Z</time>
      </trkpt>
      <trkpt lat="45.85983" lon="3.30076">
        <ele>308</ele>
        <time>2024-05-18T13:48:43Z</time>
      </trkpt>
      <trkpt lat="45.85988" lon="3.3008">
        <ele>308</ele>
        <time>2024-05-18T13:48:44Z</time>
      </trkpt>
      <trkpt lat="45.85989" lon="3.30089">
        <ele>308</ele>
        <time>2024-05-18T13:48:45Z</time>
      </trkpt>
      <trkpt lat="45.85989" lon="3.30098">
        <ele>308</ele>
        <time>2024-05-18T13:48:46Z</time>
      </trkpt>
      <trkpt lat="45.85989" lon="3.30108">
        <ele>308</ele>
        <time>2024-05-18T13:48:47Z</time>
      </trkpt>
      <trkpt lat="45.85993" lon="3.30119">
        <ele>308</ele>
        <time>2024-05-18T13:48:48Z</time>
      </trkpt>
      <trkpt lat="45.85997" lon="3.30126">
        <ele>307.8</ele>
        <time>2024-05-18T13:48:49Z</time>
      </trkpt>
      <trkpt lat="45.86001" lon="3.30134">
        <ele>307.8</ele>
        <time>2024-05-18T13:48:50Z</time>
      </trkpt>
      <trkpt lat="45.86006" lon="3.30142">
        <ele>307.8</ele>
        <time>2024-05-18T13:48:51Z</time>
      </trkpt>
      <trkpt lat="45.8601" lon="3.3015">
        <ele>307.8</ele>
        <time>2024-05-18T13:48:52Z</time>
      </trkpt>
      <trkpt lat="45.8601" lon="3.3015">
        <ele>307.8</ele>
        <time>2024-05-18T13:48:53Z</time>
      </trkpt>
      <trkpt lat="45.86019" lon="3.30165">
        <ele>307.8</ele>
        <time>2024-05-18T13:48:54Z</time>
      </trkpt>
      <trkpt lat="45.86025" lon="3.30171">
        <ele>307.8</ele>
        <time>2024-05-18T13:48:55Z</time>
      </trkpt>
      <trkpt lat="45.8603" lon="3.30177">
        <ele>307.8</ele>
        <time>2024-05-18T13:48:56Z</time>
      </trkpt>
      <trkpt lat="45.86036" lon="3.30182">
        <ele>307.8</ele>
        <time>2024-05-18T13:48:57Z</time>
      </trkpt>
      <trkpt lat="45.86041" lon="3.30188">
        <ele>307.8</ele>
        <time>2024-05-18T13:48:58Z</time>
      </trkpt>
      <trkpt lat="45.86047" lon="3.30194">
        <ele>307.6</ele>
        <time>2024-05-18T13:48:59Z</time>
      </trkpt>
      <trkpt lat="45.86052" lon="3.302">
        <ele>307.6</ele>
        <time>2024-05-18T13:49:00Z</time>
      </trkpt>
      <trkpt lat="45.86058" lon="3.30207">
        <ele>307.4</ele>
        <time>2024-05-18T13:49:01Z</time>
      </trkpt>
      <trkpt lat="45.86064" lon="3.30213">
        <ele>307.4</ele>
        <time>2024-05-18T13:49:02Z</time>
      </trkpt>
      <trkpt lat="45.86069" lon="3.30219">
        <ele>307.4</ele>
        <time>2024-05-18T13:49:03Z</time>
      </trkpt>
      <trkpt lat="45.86075" lon="3.30226">
        <ele>307.4</ele>
        <time>2024-05-18T13:49:04Z</time>
      </trkpt>
      <trkpt lat="45.86081" lon="3.30232">
        <ele>307.4</ele>
        <time>2024-05-18T13:49:05Z</time>
      </trkpt>
      <trkpt lat="45.86087" lon="3.30238">
        <ele>307.4</ele>
        <time>2024-05-18T13:49:06Z</time>
      </trkpt>
      <trkpt lat="45.86093" lon="3.30245">
        <ele>307.4</ele>
        <time>2024-05-18T13:49:07Z</time>
      </trkpt>
      <trkpt lat="45.86098" lon="3.30251">
        <ele>307.4</ele>
        <time>2024-05-18T13:49:08Z</time>
      </trkpt>
      <trkpt lat="45.86103" lon="3.30258">
        <ele>307.4</ele>
        <time>2024-05-18T13:49:09Z</time>
      </trkpt>
      <trkpt lat="45.86109" lon="3.30265">
        <ele>307.4</ele>
        <time>2024-05-18T13:49:10Z</time>
      </trkpt>
      <trkpt lat="45.86114" lon="3.30272">
        <ele>307.4</ele>
        <time>2024-05-18T13:49:11Z</time>
      </trkpt>
      <trkpt lat="45.8612" lon="3.30279">
        <ele>307.4</ele>
        <time>2024-05-18T13:49:12Z</time>
      </trkpt>
      <trkpt lat="45.86125" lon="3.30285">
        <ele>307.4</ele>
        <time>2024-05-18T13:49:13Z</time>
      </trkpt>
      <trkpt lat="45.86131" lon="3.30291">
        <ele>307.4</ele>
        <time>2024-05-18T13:49:14Z</time>
      </trkpt>
      <trkpt lat="45.86136" lon="3.30297">
        <ele>307.4</ele>
        <time>2024-05-18T13:49:15Z</time>
      </trkpt>
      <trkpt lat="45.86141" lon="3.30303">
        <ele>307.2</ele>
        <time>2024-05-18T13:49:16Z</time>
      </trkpt>
      <trkpt lat="45.86146" lon="3.30309">
        <ele>307.2</ele>
        <time>2024-05-18T13:49:17Z</time>
      </trkpt>
      <trkpt lat="45.86152" lon="3.30315">
        <ele>307.2</ele>
        <time>2024-05-18T13:49:18Z</time>
      </trkpt>
      <trkpt lat="45.86157" lon="3.30321">
        <ele>307.2</ele>
        <time>2024-05-18T13:49:19Z</time>
      </trkpt>
      <trkpt lat="45.86163" lon="3.30327">
        <ele>307.2</ele>
        <time>2024-05-18T13:49:20Z</time>
      </trkpt>
      <trkpt lat="45.86168" lon="3.30333">
        <ele>307.2</ele>
        <time>2024-05-18T13:49:21Z</time>
      </trkpt>
      <trkpt lat="45.86174" lon="3.3034">
        <ele>307</ele>
        <time>2024-05-18T13:49:22Z</time>
      </trkpt>
      <trkpt lat="45.8618" lon="3.30346">
        <ele>307</ele>
        <time>2024-05-18T13:49:23Z</time>
      </trkpt>
      <trkpt lat="45.86186" lon="3.30351">
        <ele>307</ele>
        <time>2024-05-18T13:49:24Z</time>
      </trkpt>
      <trkpt lat="45.86193" lon="3.30355">
        <ele>307</ele>
        <time>2024-05-18T13:49:25Z</time>
      </trkpt>
      <trkpt lat="45.862" lon="3.30358">
        <ele>306.8</ele>
        <time>2024-05-18T13:49:26Z</time>
      </trkpt>
      <trkpt lat="45.86207" lon="3.30362">
        <ele>306.8</ele>
        <time>2024-05-18T13:49:27Z</time>
      </trkpt>
      <trkpt lat="45.86213" lon="3.30365">
        <ele>306.6</ele>
        <time>2024-05-18T13:49:28Z</time>
      </trkpt>
      <trkpt lat="45.86221" lon="3.30377">
        <ele>306.4</ele>
        <time>2024-05-18T13:49:29Z</time>
      </trkpt>
      <trkpt lat="45.8622" lon="3.30387">
        <ele>306.2</ele>
        <time>2024-05-18T13:49:30Z</time>
      </trkpt>
      <trkpt lat="45.86219" lon="3.30399">
        <ele>306.2</ele>
        <time>2024-05-18T13:49:31Z</time>
      </trkpt>
      <trkpt lat="45.86218" lon="3.30411">
        <ele>306</ele>
        <time>2024-05-18T13:49:32Z</time>
      </trkpt>
      <trkpt lat="45.86217" lon="3.30423">
        <ele>305.8</ele>
        <time>2024-05-18T13:49:33Z</time>
      </trkpt>
      <trkpt lat="45.86216" lon="3.30436">
        <ele>305.6</ele>
        <time>2024-05-18T13:49:34Z</time>
      </trkpt>
      <trkpt lat="45.86215" lon="3.30448">
        <ele>305.6</ele>
        <time>2024-05-18T13:49:35Z</time>
      </trkpt>
      <trkpt lat="45.86214" lon="3.3046">
        <ele>305.4</ele>
        <time>2024-05-18T13:49:36Z</time>
      </trkpt>
      <trkpt lat="45.86213" lon="3.30473">
        <ele>305.4</ele>
        <time>2024-05-18T13:49:37Z</time>
      </trkpt>
      <trkpt lat="45.86212" lon="3.30485">
        <ele>305.2</ele>
        <time>2024-05-18T13:49:38Z</time>
      </trkpt>
      <trkpt lat="45.86212" lon="3.30497">
        <ele>305.2</ele>
        <time>2024-05-18T13:49:39Z</time>
      </trkpt>
      <trkpt lat="45.86211" lon="3.30509">
        <ele>305</ele>
        <time>2024-05-18T13:49:40Z</time>
      </trkpt>
      <trkpt lat="45.8621" lon="3.3052">
        <ele>305</ele>
        <time>2024-05-18T13:49:41Z</time>
      </trkpt>
      <trkpt lat="45.86209" lon="3.30532">
        <ele>305</ele>
        <time>2024-05-18T13:49:42Z</time>
      </trkpt>
      <trkpt lat="45.86207" lon="3.30543">
        <ele>304.8</ele>
        <time>2024-05-18T13:49:43Z</time>
      </trkpt>
      <trkpt lat="45.86205" lon="3.30554">
        <ele>304.8</ele>
        <time>2024-05-18T13:49:44Z</time>
      </trkpt>
      <trkpt lat="45.86203" lon="3.30564">
        <ele>304.8</ele>
        <time>2024-05-18T13:49:45Z</time>
      </trkpt>
      <trkpt lat="45.86201" lon="3.30574">
        <ele>304.8</ele>
        <time>2024-05-18T13:49:46Z</time>
      </trkpt>
      <trkpt lat="45.86199" lon="3.30584">
        <ele>304.6</ele>
        <time>2024-05-18T13:49:47Z</time>
      </trkpt>
      <trkpt lat="45.86197" lon="3.30594">
        <ele>304.6</ele>
        <time>2024-05-18T13:49:48Z</time>
      </trkpt>
      <trkpt lat="45.86195" lon="3.30604">
        <ele>304.6</ele>
        <time>2024-05-18T13:49:49Z</time>
      </trkpt>
      <trkpt lat="45.86192" lon="3.30614">
        <ele>304.4</ele>
        <time>2024-05-18T13:49:50Z</time>
      </trkpt>
      <trkpt lat="45.8619" lon="3.30624">
        <ele>304.4</ele>
        <time>2024-05-18T13:49:51Z</time>
      </trkpt>
      <trkpt lat="45.86188" lon="3.30634">
        <ele>304.4</ele>
        <time>2024-05-18T13:49:52Z</time>
      </trkpt>
      <trkpt lat="45.86186" lon="3.30644">
        <ele>304.4</ele>
        <time>2024-05-18T13:49:53Z</time>
      </trkpt>
      <trkpt lat="45.86184" lon="3.30654">
        <ele>304.4</ele>
        <time>2024-05-18T13:49:54Z</time>
      </trkpt>
      <trkpt lat="45.86182" lon="3.30665">
        <ele>304.2</ele>
        <time>2024-05-18T13:49:55Z</time>
      </trkpt>
      <trkpt lat="45.8618" lon="3.30675">
        <ele>304.2</ele>
        <time>2024-05-18T13:49:56Z</time>
      </trkpt>
      <trkpt lat="45.86178" lon="3.30685">
        <ele>304.2</ele>
        <time>2024-05-18T13:49:57Z</time>
      </trkpt>
      <trkpt lat="45.86175" lon="3.30695">
        <ele>304.2</ele>
        <time>2024-05-18T13:49:58Z</time>
      </trkpt>
      <trkpt lat="45.86173" lon="3.30705">
        <ele>304</ele>
        <time>2024-05-18T13:49:59Z</time>
      </trkpt>
      <trkpt lat="45.86171" lon="3.30716">
        <ele>304</ele>
        <time>2024-05-18T13:50:00Z</time>
      </trkpt>
      <trkpt lat="45.86169" lon="3.30726">
        <ele>304</ele>
        <time>2024-05-18T13:50:01Z</time>
      </trkpt>
      <trkpt lat="45.86167" lon="3.30736">
        <ele>303.8</ele>
        <time>2024-05-18T13:50:02Z</time>
      </trkpt>
      <trkpt lat="45.86165" lon="3.30747">
        <ele>303.8</ele>
        <time>2024-05-18T13:50:03Z</time>
      </trkpt>
      <trkpt lat="45.86162" lon="3.30757">
        <ele>303.8</ele>
        <time>2024-05-18T13:50:04Z</time>
      </trkpt>
      <trkpt lat="45.8616" lon="3.30768">
        <ele>303.6</ele>
        <time>2024-05-18T13:50:05Z</time>
      </trkpt>
      <trkpt lat="45.86158" lon="3.30779">
        <ele>303.6</ele>
        <time>2024-05-18T13:50:06Z</time>
      </trkpt>
      <trkpt lat="45.86156" lon="3.3079">
        <ele>303.4</ele>
        <time>2024-05-18T13:50:07Z</time>
      </trkpt>
      <trkpt lat="45.86154" lon="3.308">
        <ele>303.4</ele>
        <time>2024-05-18T13:50:08Z</time>
      </trkpt>
      <trkpt lat="45.86152" lon="3.30812">
        <ele>303.2</ele>
        <time>2024-05-18T13:50:09Z</time>
      </trkpt>
      <trkpt lat="45.86149" lon="3.30823">
        <ele>303.2</ele>
        <time>2024-05-18T13:50:10Z</time>
      </trkpt>
      <trkpt lat="45.86147" lon="3.30834">
        <ele>303</ele>
        <time>2024-05-18T13:50:11Z</time>
      </trkpt>
      <trkpt lat="45.86145" lon="3.30845">
        <ele>303</ele>
        <time>2024-05-18T13:50:12Z</time>
      </trkpt>
      <trkpt lat="45.86143" lon="3.30856">
        <ele>302.8</ele>
        <time>2024-05-18T13:50:13Z</time>
      </trkpt>
      <trkpt lat="45.86141" lon="3.30867">
        <ele>302.6</ele>
        <time>2024-05-18T13:50:14Z</time>
      </trkpt>
      <trkpt lat="45.86138" lon="3.30878">
        <ele>302.6</ele>
        <time>2024-05-18T13:50:15Z</time>
      </trkpt>
      <trkpt lat="45.86136" lon="3.3089">
        <ele>302.4</ele>
        <time>2024-05-18T13:50:16Z</time>
      </trkpt>
      <trkpt lat="45.86133" lon="3.30902">
        <ele>302.4</ele>
        <time>2024-05-18T13:50:17Z</time>
      </trkpt>
      <trkpt lat="45.86131" lon="3.30913">
        <ele>302.2</ele>
        <time>2024-05-18T13:50:18Z</time>
      </trkpt>
      <trkpt lat="45.86128" lon="3.30925">
        <ele>302</ele>
        <time>2024-05-18T13:50:19Z</time>
      </trkpt>
      <trkpt lat="45.86126" lon="3.30937">
        <ele>302</ele>
        <time>2024-05-18T13:50:20Z</time>
      </trkpt>
      <trkpt lat="45.86124" lon="3.30949">
        <ele>301.8</ele>
        <time>2024-05-18T13:50:21Z</time>
      </trkpt>
      <trkpt lat="45.86121" lon="3.3096">
        <ele>301.6</ele>
        <time>2024-05-18T13:50:22Z</time>
      </trkpt>
      <trkpt lat="45.86119" lon="3.30971">
        <ele>301.6</ele>
        <time>2024-05-18T13:50:23Z</time>
      </trkpt>
      <trkpt lat="45.86117" lon="3.30983">
        <ele>301.4</ele>
        <time>2024-05-18T13:50:24Z</time>
      </trkpt>
      <trkpt lat="45.86114" lon="3.30994">
        <ele>301.4</ele>
        <time>2024-05-18T13:50:25Z</time>
      </trkpt>
      <trkpt lat="45.86112" lon="3.31005">
        <ele>301.2</ele>
        <time>2024-05-18T13:50:26Z</time>
      </trkpt>
      <trkpt lat="45.8611" lon="3.31017">
        <ele>301.2</ele>
        <time>2024-05-18T13:50:27Z</time>
      </trkpt>
      <trkpt lat="45.86107" lon="3.31028">
        <ele>301</ele>
        <time>2024-05-18T13:50:28Z</time>
      </trkpt>
      <trkpt lat="45.86105" lon="3.31038">
        <ele>301</ele>
        <time>2024-05-18T13:50:29Z</time>
      </trkpt>
      <trkpt lat="45.86103" lon="3.31049">
        <ele>300.8</ele>
        <time>2024-05-18T13:50:30Z</time>
      </trkpt>
      <trkpt lat="45.86101" lon="3.3106">
        <ele>300.8</ele>
        <time>2024-05-18T13:50:31Z</time>
      </trkpt>
      <trkpt lat="45.86098" lon="3.3107">
        <ele>300.6</ele>
        <time>2024-05-18T13:50:32Z</time>
      </trkpt>
      <trkpt lat="45.86096" lon="3.31081">
        <ele>300.6</ele>
        <time>2024-05-18T13:50:33Z</time>
      </trkpt>
      <trkpt lat="45.86094" lon="3.31092">
        <ele>300.4</ele>
        <time>2024-05-18T13:50:34Z</time>
      </trkpt>
      <trkpt lat="45.86092" lon="3.31102">
        <ele>300.4</ele>
        <time>2024-05-18T13:50:35Z</time>
      </trkpt>
      <trkpt lat="45.8609" lon="3.31112">
        <ele>300.2</ele>
        <time>2024-05-18T13:50:36Z</time>
      </trkpt>
      <trkpt lat="45.86088" lon="3.31122">
        <ele>300.2</ele>
        <time>2024-05-18T13:50:37Z</time>
      </trkpt>
      <trkpt lat="45.86086" lon="3.31133">
        <ele>300.2</ele>
        <time>2024-05-18T13:50:38Z</time>
      </trkpt>
      <trkpt lat="45.86084" lon="3.31143">
        <ele>300</ele>
        <time>2024-05-18T13:50:39Z</time>
      </trkpt>
      <trkpt lat="45.86081" lon="3.31153">
        <ele>299.8</ele>
        <time>2024-05-18T13:50:40Z</time>
      </trkpt>
      <trkpt lat="45.86079" lon="3.31163">
        <ele>299.8</ele>
        <time>2024-05-18T13:50:41Z</time>
      </trkpt>
      <trkpt lat="45.86077" lon="3.31174">
        <ele>299.6</ele>
        <time>2024-05-18T13:50:42Z</time>
      </trkpt>
      <trkpt lat="45.86075" lon="3.31184">
        <ele>299.6</ele>
        <time>2024-05-18T13:50:43Z</time>
      </trkpt>
      <trkpt lat="45.86073" lon="3.31194">
        <ele>299.6</ele>
        <time>2024-05-18T13:50:44Z</time>
      </trkpt>
      <trkpt lat="45.86071" lon="3.31204">
        <ele>299.4</ele>
        <time>2024-05-18T13:50:45Z</time>
      </trkpt>
      <trkpt lat="45.86069" lon="3.31215">
        <ele>299.4</ele>
        <time>2024-05-18T13:50:46Z</time>
      </trkpt>
      <trkpt lat="45.86067" lon="3.31225">
        <ele>299.2</ele>
        <time>2024-05-18T13:50:47Z</time>
      </trkpt>
      <trkpt lat="45.86066" lon="3.31235">
        <ele>299.2</ele>
        <time>2024-05-18T13:50:48Z</time>
      </trkpt>
      <trkpt lat="45.86064" lon="3.31246">
        <ele>299</ele>
        <time>2024-05-18T13:50:49Z</time>
      </trkpt>
      <trkpt lat="45.86062" lon="3.31256">
        <ele>299</ele>
        <time>2024-05-18T13:50:50Z</time>
      </trkpt>
      <trkpt lat="45.8606" lon="3.31266">
        <ele>299</ele>
        <time>2024-05-18T13:50:51Z</time>
      </trkpt>
      <trkpt lat="45.86059" lon="3.31276">
        <ele>298.8</ele>
        <time>2024-05-18T13:50:52Z</time>
      </trkpt>
      <trkpt lat="45.86057" lon="3.31287">
        <ele>298.8</ele>
        <time>2024-05-18T13:50:53Z</time>
      </trkpt>
      <trkpt lat="45.86055" lon="3.31297">
        <ele>298.8</ele>
        <time>2024-05-18T13:50:54Z</time>
      </trkpt>
      <trkpt lat="45.86053" lon="3.31307">
        <ele>298.6</ele>
        <time>2024-05-18T13:50:55Z</time>
      </trkpt>
      <trkpt lat="45.86052" lon="3.31318">
        <ele>298.6</ele>
        <time>2024-05-18T13:50:56Z</time>
      </trkpt>
      <trkpt lat="45.8605" lon="3.31328">
        <ele>298.6</ele>
        <time>2024-05-18T13:50:57Z</time>
      </trkpt>
      <trkpt lat="45.86048" lon="3.31339">
        <ele>298.4</ele>
        <time>2024-05-18T13:50:58Z</time>
      </trkpt>
      <trkpt lat="45.86046" lon="3.31349">
        <ele>298.4</ele>
        <time>2024-05-18T13:50:59Z</time>
      </trkpt>
      <trkpt lat="45.86045" lon="3.3136">
        <ele>298.4</ele>
        <time>2024-05-18T13:51:00Z</time>
      </trkpt>
      <trkpt lat="45.86043" lon="3.3137">
        <ele>298.4</ele>
        <time>2024-05-18T13:51:01Z</time>
      </trkpt>
      <trkpt lat="45.86043" lon="3.31381">
        <ele>298.2</ele>
        <time>2024-05-18T13:51:02Z</time>
      </trkpt>
      <trkpt lat="45.86043" lon="3.31391">
        <ele>298.2</ele>
        <time>2024-05-18T13:51:03Z</time>
      </trkpt>
      <trkpt lat="45.86043" lon="3.31401">
        <ele>298.2</ele>
        <time>2024-05-18T13:51:04Z</time>
      </trkpt>
      <trkpt lat="45.86043" lon="3.31411">
        <ele>298</ele>
        <time>2024-05-18T13:51:05Z</time>
      </trkpt>
      <trkpt lat="45.86043" lon="3.31422">
        <ele>298</ele>
        <time>2024-05-18T13:51:06Z</time>
      </trkpt>
      <trkpt lat="45.86043" lon="3.31432">
        <ele>298</ele>
        <time>2024-05-18T13:51:07Z</time>
      </trkpt>
      <trkpt lat="45.86043" lon="3.31442">
        <ele>297.8</ele>
        <time>2024-05-18T13:51:08Z</time>
      </trkpt>
      <trkpt lat="45.86043" lon="3.31452">
        <ele>297.8</ele>
        <time>2024-05-18T13:51:09Z</time>
      </trkpt>
      <trkpt lat="45.86043" lon="3.31462">
        <ele>297.8</ele>
        <time>2024-05-18T13:51:10Z</time>
      </trkpt>
      <trkpt lat="45.86043" lon="3.31473">
        <ele>297.6</ele>
        <time>2024-05-18T13:51:11Z</time>
      </trkpt>
      <trkpt lat="45.86043" lon="3.31483">
        <ele>297.6</ele>
        <time>2024-05-18T13:51:12Z</time>
      </trkpt>
      <trkpt lat="45.86043" lon="3.31493">
        <ele>297.6</ele>
        <time>2024-05-18T13:51:13Z</time>
      </trkpt>
      <trkpt lat="45.86043" lon="3.31503">
        <ele>297.4</ele>
        <time>2024-05-18T13:51:14Z</time>
      </trkpt>
      <trkpt lat="45.86042" lon="3.31513">
        <ele>297.4</ele>
        <time>2024-05-18T13:51:15Z</time>
      </trkpt>
      <trkpt lat="45.86042" lon="3.31523">
        <ele>297.4</ele>
        <time>2024-05-18T13:51:16Z</time>
      </trkpt>
      <trkpt lat="45.86042" lon="3.31534">
        <ele>297.4</ele>
        <time>2024-05-18T13:51:17Z</time>
      </trkpt>
      <trkpt lat="45.86042" lon="3.31544">
        <ele>297.2</ele>
        <time>2024-05-18T13:51:18Z</time>
      </trkpt>
      <trkpt lat="45.86042" lon="3.31554">
        <ele>297.2</ele>
        <time>2024-05-18T13:51:19Z</time>
      </trkpt>
      <trkpt lat="45.86042" lon="3.31563">
        <ele>297.2</ele>
        <time>2024-05-18T13:51:20Z</time>
      </trkpt>
      <trkpt lat="45.86042" lon="3.31573">
        <ele>297.2</ele>
        <time>2024-05-18T13:51:21Z</time>
      </trkpt>
      <trkpt lat="45.86042" lon="3.31583">
        <ele>297.2</ele>
        <time>2024-05-18T13:51:22Z</time>
      </trkpt>
      <trkpt lat="45.86042" lon="3.31593">
        <ele>297</ele>
        <time>2024-05-18T13:51:23Z</time>
      </trkpt>
      <trkpt lat="45.86042" lon="3.31603">
        <ele>297</ele>
        <time>2024-05-18T13:51:24Z</time>
      </trkpt>
      <trkpt lat="45.86042" lon="3.31612">
        <ele>297</ele>
        <time>2024-05-18T13:51:25Z</time>
      </trkpt>
      <trkpt lat="45.86042" lon="3.31622">
        <ele>297</ele>
        <time>2024-05-18T13:51:26Z</time>
      </trkpt>
      <trkpt lat="45.86042" lon="3.31631">
        <ele>297</ele>
        <time>2024-05-18T13:51:27Z</time>
      </trkpt>
      <trkpt lat="45.86042" lon="3.31641">
        <ele>297</ele>
        <time>2024-05-18T13:51:28Z</time>
      </trkpt>
      <trkpt lat="45.86042" lon="3.31651">
        <ele>297</ele>
        <time>2024-05-18T13:51:29Z</time>
      </trkpt>
      <trkpt lat="45.86042" lon="3.31661">
        <ele>297</ele>
        <time>2024-05-18T13:51:30Z</time>
      </trkpt>
      <trkpt lat="45.86042" lon="3.31671">
        <ele>297</ele>
        <time>2024-05-18T13:51:31Z</time>
      </trkpt>
      <trkpt lat="45.86042" lon="3.31681">
        <ele>296.8</ele>
        <time>2024-05-18T13:51:32Z</time>
      </trkpt>
      <trkpt lat="45.86042" lon="3.31691">
        <ele>296.8</ele>
        <time>2024-05-18T13:51:33Z</time>
      </trkpt>
      <trkpt lat="45.86042" lon="3.31701">
        <ele>296.8</ele>
        <time>2024-05-18T13:51:34Z</time>
      </trkpt>
      <trkpt lat="45.86042" lon="3.31711">
        <ele>296.8</ele>
        <time>2024-05-18T13:51:35Z</time>
      </trkpt>
      <trkpt lat="45.86042" lon="3.31721">
        <ele>296.8</ele>
        <time>2024-05-18T13:51:36Z</time>
      </trkpt>
      <trkpt lat="45.86041" lon="3.31731">
        <ele>296.8</ele>
        <time>2024-05-18T13:51:37Z</time>
      </trkpt>
      <trkpt lat="45.86041" lon="3.31741">
        <ele>296.8</ele>
        <time>2024-05-18T13:51:38Z</time>
      </trkpt>
      <trkpt lat="45.86041" lon="3.31751">
        <ele>296.8</ele>
        <time>2024-05-18T13:51:39Z</time>
      </trkpt>
      <trkpt lat="45.86041" lon="3.31761">
        <ele>296.6</ele>
        <time>2024-05-18T13:51:40Z</time>
      </trkpt>
      <trkpt lat="45.86041" lon="3.31772">
        <ele>296.6</ele>
        <time>2024-05-18T13:51:41Z</time>
      </trkpt>
      <trkpt lat="45.86041" lon="3.31782">
        <ele>296.6</ele>
        <time>2024-05-18T13:51:42Z</time>
      </trkpt>
      <trkpt lat="45.86041" lon="3.31792">
        <ele>296.6</ele>
        <time>2024-05-18T13:51:43Z</time>
      </trkpt>
      <trkpt lat="45.86041" lon="3.31802">
        <ele>296.6</ele>
        <time>2024-05-18T13:51:44Z</time>
      </trkpt>
      <trkpt lat="45.86041" lon="3.31812">
        <ele>296.8</ele>
        <time>2024-05-18T13:51:45Z</time>
      </trkpt>
      <trkpt lat="45.86041" lon="3.31822">
        <ele>296.8</ele>
        <time>2024-05-18T13:51:46Z</time>
      </trkpt>
      <trkpt lat="45.86041" lon="3.31833">
        <ele>296.6</ele>
        <time>2024-05-18T13:51:47Z</time>
      </trkpt>
      <trkpt lat="45.86041" lon="3.31843">
        <ele>296.6</ele>
        <time>2024-05-18T13:51:48Z</time>
      </trkpt>
      <trkpt lat="45.86041" lon="3.31853">
        <ele>296.6</ele>
        <time>2024-05-18T13:51:49Z</time>
      </trkpt>
      <trkpt lat="45.86041" lon="3.31863">
        <ele>296.6</ele>
        <time>2024-05-18T13:51:50Z</time>
      </trkpt>
      <trkpt lat="45.86041" lon="3.31873">
        <ele>296.6</ele>
        <time>2024-05-18T13:51:51Z</time>
      </trkpt>
      <trkpt lat="45.86041" lon="3.31884">
        <ele>296.6</ele>
        <time>2024-05-18T13:51:52Z</time>
      </trkpt>
      <trkpt lat="45.8604" lon="3.31894">
        <ele>296.6</ele>
        <time>2024-05-18T13:51:53Z</time>
      </trkpt>
      <trkpt lat="45.8604" lon="3.31905">
        <ele>296.6</ele>
        <time>2024-05-18T13:51:54Z</time>
      </trkpt>
      <trkpt lat="45.8604" lon="3.31915">
        <ele>296.6</ele>
        <time>2024-05-18T13:51:55Z</time>
      </trkpt>
      <trkpt lat="45.8604" lon="3.31926">
        <ele>296.6</ele>
        <time>2024-05-18T13:51:56Z</time>
      </trkpt>
      <trkpt lat="45.8604" lon="3.31936">
        <ele>296.6</ele>
        <time>2024-05-18T13:51:57Z</time>
      </trkpt>
      <trkpt lat="45.8604" lon="3.31947">
        <ele>296.6</ele>
        <time>2024-05-18T13:51:58Z</time>
      </trkpt>
      <trkpt lat="45.8604" lon="3.31957">
        <ele>296.6</ele>
        <time>2024-05-18T13:51:59Z</time>
      </trkpt>
      <trkpt lat="45.8604" lon="3.31967">
        <ele>296.6</ele>
        <time>2024-05-18T13:52:00Z</time>
      </trkpt>
      <trkpt lat="45.8604" lon="3.31977">
        <ele>296.6</ele>
        <time>2024-05-18T13:52:01Z</time>
      </trkpt>
      <trkpt lat="45.86039" lon="3.31988">
        <ele>296.6</ele>
        <time>2024-05-18T13:52:02Z</time>
      </trkpt>
      <trkpt lat="45.86039" lon="3.31998">
        <ele>296.6</ele>
        <time>2024-05-18T13:52:03Z</time>
      </trkpt>
      <trkpt lat="45.86039" lon="3.32008">
        <ele>296.6</ele>
        <time>2024-05-18T13:52:04Z</time>
      </trkpt>
      <trkpt lat="45.86039" lon="3.32019">
        <ele>296.6</ele>
        <time>2024-05-18T13:52:05Z</time>
      </trkpt>
      <trkpt lat="45.86039" lon="3.32029">
        <ele>296.6</ele>
        <time>2024-05-18T13:52:06Z</time>
      </trkpt>
      <trkpt lat="45.86039" lon="3.32039">
        <ele>296.6</ele>
        <time>2024-05-18T13:52:07Z</time>
      </trkpt>
      <trkpt lat="45.86039" lon="3.3205">
        <ele>296.6</ele>
        <time>2024-05-18T13:52:08Z</time>
      </trkpt>
      <trkpt lat="45.86039" lon="3.3206">
        <ele>296.6</ele>
        <time>2024-05-18T13:52:09Z</time>
      </trkpt>
      <trkpt lat="45.8604" lon="3.3207">
        <ele>296.6</ele>
        <time>2024-05-18T13:52:10Z</time>
      </trkpt>
      <trkpt lat="45.8604" lon="3.3208">
        <ele>296.6</ele>
        <time>2024-05-18T13:52:11Z</time>
      </trkpt>
      <trkpt lat="45.86041" lon="3.3209">
        <ele>296.4</ele>
        <time>2024-05-18T13:52:12Z</time>
      </trkpt>
      <trkpt lat="45.86041" lon="3.321">
        <ele>296.4</ele>
        <time>2024-05-18T13:52:13Z</time>
      </trkpt>
      <trkpt lat="45.86041" lon="3.3211">
        <ele>296.4</ele>
        <time>2024-05-18T13:52:14Z</time>
      </trkpt>
      <trkpt lat="45.86042" lon="3.3212">
        <ele>296.4</ele>
        <time>2024-05-18T13:52:15Z</time>
      </trkpt>
      <trkpt lat="45.86042" lon="3.3213">
        <ele>296.4</ele>
        <time>2024-05-18T13:52:16Z</time>
      </trkpt>
      <trkpt lat="45.86043" lon="3.3214">
        <ele>296.4</ele>
        <time>2024-05-18T13:52:17Z</time>
      </trkpt>
      <trkpt lat="45.86043" lon="3.3215">
        <ele>296.4</ele>
        <time>2024-05-18T13:52:18Z</time>
      </trkpt>
      <trkpt lat="45.86043" lon="3.32159">
        <ele>296.4</ele>
        <time>2024-05-18T13:52:19Z</time>
      </trkpt>
      <trkpt lat="45.86044" lon="3.32169">
        <ele>296.4</ele>
        <time>2024-05-18T13:52:20Z</time>
      </trkpt>
      <trkpt lat="45.86044" lon="3.32178">
        <ele>296.4</ele>
        <time>2024-05-18T13:52:21Z</time>
      </trkpt>
      <trkpt lat="45.86044" lon="3.32187">
        <ele>296.4</ele>
        <time>2024-05-18T13:52:22Z</time>
      </trkpt>
      <trkpt lat="45.86045" lon="3.32196">
        <ele>296.4</ele>
        <time>2024-05-18T13:52:23Z</time>
      </trkpt>
      <trkpt lat="45.86045" lon="3.32205">
        <ele>296.4</ele>
        <time>2024-05-18T13:52:24Z</time>
      </trkpt>
      <trkpt lat="45.86045" lon="3.32213">
        <ele>296.6</ele>
        <time>2024-05-18T13:52:25Z</time>
      </trkpt>
      <trkpt lat="45.86046" lon="3.32221">
        <ele>296.4</ele>
        <time>2024-05-18T13:52:26Z</time>
      </trkpt>
      <trkpt lat="45.86047" lon="3.32229">
        <ele>296.4</ele>
        <time>2024-05-18T13:52:27Z</time>
      </trkpt>
      <trkpt lat="45.86048" lon="3.32236">
        <ele>296.6</ele>
        <time>2024-05-18T13:52:28Z</time>
      </trkpt>
      <trkpt lat="45.86049" lon="3.32244">
        <ele>296.8</ele>
        <time>2024-05-18T13:52:29Z</time>
      </trkpt>
      <trkpt lat="45.8605" lon="3.32251">
        <ele>296.6</ele>
        <time>2024-05-18T13:52:30Z</time>
      </trkpt>
      <trkpt lat="45.8605" lon="3.32258">
        <ele>296.6</ele>
        <time>2024-05-18T13:52:31Z</time>
      </trkpt>
      <trkpt lat="45.86051" lon="3.32265">
        <ele>296.6</ele>
        <time>2024-05-18T13:52:32Z</time>
      </trkpt>
      <trkpt lat="45.86053" lon="3.32273">
        <ele>296.8</ele>
        <time>2024-05-18T13:52:33Z</time>
      </trkpt>
      <trkpt lat="45.86055" lon="3.32279">
        <ele>296.8</ele>
        <time>2024-05-18T13:52:34Z</time>
      </trkpt>
      <trkpt lat="45.86057" lon="3.32286">
        <ele>296.8</ele>
        <time>2024-05-18T13:52:35Z</time>
      </trkpt>
      <trkpt lat="45.86059" lon="3.32292">
        <ele>296.8</ele>
        <time>2024-05-18T13:52:36Z</time>
      </trkpt>
      <trkpt lat="45.86061" lon="3.32299">
        <ele>296.8</ele>
        <time>2024-05-18T13:52:37Z</time>
      </trkpt>
      <trkpt lat="45.86063" lon="3.32304">
        <ele>297</ele>
        <time>2024-05-18T13:52:38Z</time>
      </trkpt>
      <trkpt lat="45.86064" lon="3.3231">
        <ele>297</ele>
        <time>2024-05-18T13:52:39Z</time>
      </trkpt>
      <trkpt lat="45.86066" lon="3.32316">
        <ele>297</ele>
        <time>2024-05-18T13:52:40Z</time>
      </trkpt>
      <trkpt lat="45.86068" lon="3.32321">
        <ele>297</ele>
        <time>2024-05-18T13:52:41Z</time>
      </trkpt>
      <trkpt lat="45.8607" lon="3.32326">
        <ele>297.2</ele>
        <time>2024-05-18T13:52:42Z</time>
      </trkpt>
      <trkpt lat="45.86071" lon="3.32331">
        <ele>297.2</ele>
        <time>2024-05-18T13:52:43Z</time>
      </trkpt>
      <trkpt lat="45.86072" lon="3.32335">
        <ele>297.2</ele>
        <time>2024-05-18T13:52:44Z</time>
      </trkpt>
      <trkpt lat="45.86073" lon="3.32338">
        <ele>297.2</ele>
        <time>2024-05-18T13:52:45Z</time>
      </trkpt>
      <trkpt lat="45.86075" lon="3.32343">
        <ele>297</ele>
        <time>2024-05-18T13:52:46Z</time>
      </trkpt>
      <trkpt lat="45.86077" lon="3.32348">
        <ele>297</ele>
        <time>2024-05-18T13:52:47Z</time>
      </trkpt>
      <trkpt lat="45.86078" lon="3.32354">
        <ele>297</ele>
        <time>2024-05-18T13:52:48Z</time>
      </trkpt>
      <trkpt lat="45.8608" lon="3.3236">
        <ele>297</ele>
        <time>2024-05-18T13:52:49Z</time>
      </trkpt>
      <trkpt lat="45.86082" lon="3.32365">
        <ele>297</ele>
        <time>2024-05-18T13:52:50Z</time>
      </trkpt>
      <trkpt lat="45.86084" lon="3.32371">
        <ele>296.8</ele>
        <time>2024-05-18T13:52:51Z</time>
      </trkpt>
      <trkpt lat="45.86086" lon="3.32377">
        <ele>297</ele>
        <time>2024-05-18T13:52:52Z</time>
      </trkpt>
      <trkpt lat="45.86088" lon="3.32383">
        <ele>296.8</ele>
        <time>2024-05-18T13:52:53Z</time>
      </trkpt>
      <trkpt lat="45.8609" lon="3.32389">
        <ele>296.8</ele>
        <time>2024-05-18T13:52:54Z</time>
      </trkpt>
      <trkpt lat="45.86092" lon="3.32395">
        <ele>296.6</ele>
        <time>2024-05-18T13:52:55Z</time>
      </trkpt>
      <trkpt lat="45.86094" lon="3.32401">
        <ele>296.6</ele>
        <time>2024-05-18T13:52:56Z</time>
      </trkpt>
      <trkpt lat="45.86095" lon="3.32407">
        <ele>296.6</ele>
        <time>2024-05-18T13:52:57Z</time>
      </trkpt>
      <trkpt lat="45.86097" lon="3.32413">
        <ele>296.6</ele>
        <time>2024-05-18T13:52:58Z</time>
      </trkpt>
      <trkpt lat="45.86099" lon="3.32419">
        <ele>296.6</ele>
        <time>2024-05-18T13:52:59Z</time>
      </trkpt>
      <trkpt lat="45.86101" lon="3.32425">
        <ele>296.6</ele>
        <time>2024-05-18T13:53:00Z</time>
      </trkpt>
      <trkpt lat="45.86103" lon="3.32431">
        <ele>296.6</ele>
        <time>2024-05-18T13:53:01Z</time>
      </trkpt>
      <trkpt lat="45.86105" lon="3.32437">
        <ele>296.8</ele>
        <time>2024-05-18T13:53:02Z</time>
      </trkpt>
      <trkpt lat="45.86107" lon="3.32444">
        <ele>296.8</ele>
        <time>2024-05-18T13:53:03Z</time>
      </trkpt>
      <trkpt lat="45.86109" lon="3.3245">
        <ele>297</ele>
        <time>2024-05-18T13:53:04Z</time>
      </trkpt>
      <trkpt lat="45.86111" lon="3.32457">
        <ele>297.2</ele>
        <time>2024-05-18T13:53:05Z</time>
      </trkpt>
      <trkpt lat="45.86112" lon="3.32465">
        <ele>297</ele>
        <time>2024-05-18T13:53:06Z</time>
      </trkpt>
      <trkpt lat="45.86113" lon="3.32472">
        <ele>297</ele>
        <time>2024-05-18T13:53:07Z</time>
      </trkpt>
      <trkpt lat="45.86113" lon="3.32479">
        <ele>297.2</ele>
        <time>2024-05-18T13:53:08Z</time>
      </trkpt>
      <trkpt lat="45.86114" lon="3.32486">
        <ele>297.2</ele>
        <time>2024-05-18T13:53:09Z</time>
      </trkpt>
      <trkpt lat="45.86114" lon="3.32493">
        <ele>297.2</ele>
        <time>2024-05-18T13:53:10Z</time>
      </trkpt>
      <trkpt lat="45.86115" lon="3.325">
        <ele>297.4</ele>
        <time>2024-05-18T13:53:11Z</time>
      </trkpt>
      <trkpt lat="45.86115" lon="3.32507">
        <ele>297.4</ele>
        <time>2024-05-18T13:53:12Z</time>
      </trkpt>
      <trkpt lat="45.86116" lon="3.32515">
        <ele>297.4</ele>
        <time>2024-05-18T13:53:13Z</time>
      </trkpt>
      <trkpt lat="45.86116" lon="3.32522">
        <ele>297.4</ele>
        <time>2024-05-18T13:53:14Z</time>
      </trkpt>
      <trkpt lat="45.86117" lon="3.3253">
        <ele>297.6</ele>
        <time>2024-05-18T13:53:15Z</time>
      </trkpt>
      <trkpt lat="45.86117" lon="3.32537">
        <ele>297.6</ele>
        <time>2024-05-18T13:53:16Z</time>
      </trkpt>
      <trkpt lat="45.86118" lon="3.32545">
        <ele>297.6</ele>
        <time>2024-05-18T13:53:17Z</time>
      </trkpt>
      <trkpt lat="45.86117" lon="3.32554">
        <ele>297.6</ele>
        <time>2024-05-18T13:53:18Z</time>
      </trkpt>
      <trkpt lat="45.86116" lon="3.32561">
        <ele>297.6</ele>
        <time>2024-05-18T13:53:19Z</time>
      </trkpt>
      <trkpt lat="45.86115" lon="3.32569">
        <ele>297.6</ele>
        <time>2024-05-18T13:53:20Z</time>
      </trkpt>
      <trkpt lat="45.86114" lon="3.32576">
        <ele>297.6</ele>
        <time>2024-05-18T13:53:21Z</time>
      </trkpt>
      <trkpt lat="45.86112" lon="3.32584">
        <ele>297.8</ele>
        <time>2024-05-18T13:53:22Z</time>
      </trkpt>
      <trkpt lat="45.86111" lon="3.32592">
        <ele>297.8</ele>
        <time>2024-05-18T13:53:23Z</time>
      </trkpt>
      <trkpt lat="45.8611" lon="3.326">
        <ele>297.8</ele>
        <time>2024-05-18T13:53:24Z</time>
      </trkpt>
      <trkpt lat="45.86108" lon="3.32608">
        <ele>297.8</ele>
        <time>2024-05-18T13:53:25Z</time>
      </trkpt>
      <trkpt lat="45.86107" lon="3.32616">
        <ele>297.8</ele>
        <time>2024-05-18T13:53:26Z</time>
      </trkpt>
      <trkpt lat="45.86106" lon="3.32624">
        <ele>298</ele>
        <time>2024-05-18T13:53:27Z</time>
      </trkpt>
      <trkpt lat="45.86104" lon="3.32632">
        <ele>298</ele>
        <time>2024-05-18T13:53:28Z</time>
      </trkpt>
      <trkpt lat="45.86103" lon="3.32641">
        <ele>298</ele>
        <time>2024-05-18T13:53:29Z</time>
      </trkpt>
      <trkpt lat="45.86101" lon="3.32649">
        <ele>298</ele>
        <time>2024-05-18T13:53:30Z</time>
      </trkpt>
      <trkpt lat="45.861" lon="3.32658">
        <ele>298</ele>
        <time>2024-05-18T13:53:31Z</time>
      </trkpt>
      <trkpt lat="45.86099" lon="3.32666">
        <ele>298.2</ele>
        <time>2024-05-18T13:53:32Z</time>
      </trkpt>
      <trkpt lat="45.86097" lon="3.32675">
        <ele>298.2</ele>
        <time>2024-05-18T13:53:33Z</time>
      </trkpt>
      <trkpt lat="45.86097" lon="3.32684">
        <ele>298.2</ele>
        <time>2024-05-18T13:53:34Z</time>
      </trkpt>
      <trkpt lat="45.86096" lon="3.32692">
        <ele>298.2</ele>
        <time>2024-05-18T13:53:35Z</time>
      </trkpt>
      <trkpt lat="45.86096" lon="3.32701">
        <ele>298.4</ele>
        <time>2024-05-18T13:53:36Z</time>
      </trkpt>
      <trkpt lat="45.86096" lon="3.3271">
        <ele>298.4</ele>
        <time>2024-05-18T13:53:37Z</time>
      </trkpt>
      <trkpt lat="45.86096" lon="3.32719">
        <ele>298.4</ele>
        <time>2024-05-18T13:53:38Z</time>
      </trkpt>
      <trkpt lat="45.86095" lon="3.32728">
        <ele>298.4</ele>
        <time>2024-05-18T13:53:39Z</time>
      </trkpt>
      <trkpt lat="45.86095" lon="3.32738">
        <ele>298.4</ele>
        <time>2024-05-18T13:53:40Z</time>
      </trkpt>
      <trkpt lat="45.86095" lon="3.32747">
        <ele>298.4</ele>
        <time>2024-05-18T13:53:41Z</time>
      </trkpt>
      <trkpt lat="45.86095" lon="3.32756">
        <ele>298.4</ele>
        <time>2024-05-18T13:53:42Z</time>
      </trkpt>
      <trkpt lat="45.86094" lon="3.32765">
        <ele>298.6</ele>
        <time>2024-05-18T13:53:43Z</time>
      </trkpt>
      <trkpt lat="45.86094" lon="3.32774">
        <ele>298.6</ele>
        <time>2024-05-18T13:53:44Z</time>
      </trkpt>
      <trkpt lat="45.86094" lon="3.32783">
        <ele>298.6</ele>
        <time>2024-05-18T13:53:45Z</time>
      </trkpt>
      <trkpt lat="45.86094" lon="3.32792">
        <ele>298.6</ele>
        <time>2024-05-18T13:53:46Z</time>
      </trkpt>
      <trkpt lat="45.86093" lon="3.328">
        <ele>298.6</ele>
        <time>2024-05-18T13:53:47Z</time>
      </trkpt>
      <trkpt lat="45.86093" lon="3.32809">
        <ele>298.6</ele>
        <time>2024-05-18T13:53:48Z</time>
      </trkpt>
      <trkpt lat="45.86093" lon="3.32817">
        <ele>298.8</ele>
        <time>2024-05-18T13:53:49Z</time>
      </trkpt>
      <trkpt lat="45.86093" lon="3.32826">
        <ele>298.8</ele>
        <time>2024-05-18T13:53:50Z</time>
      </trkpt>
      <trkpt lat="45.86092" lon="3.32835">
        <ele>298.8</ele>
        <time>2024-05-18T13:53:51Z</time>
      </trkpt>
      <trkpt lat="45.86092" lon="3.32844">
        <ele>298.8</ele>
        <time>2024-05-18T13:53:52Z</time>
      </trkpt>
      <trkpt lat="45.86092" lon="3.32853">
        <ele>298.8</ele>
        <time>2024-05-18T13:53:53Z</time>
      </trkpt>
      <trkpt lat="45.86092" lon="3.32862">
        <ele>298.8</ele>
        <time>2024-05-18T13:53:54Z</time>
      </trkpt>
      <trkpt lat="45.86091" lon="3.32871">
        <ele>298.8</ele>
        <time>2024-05-18T13:53:55Z</time>
      </trkpt>
      <trkpt lat="45.86091" lon="3.32881">
        <ele>298.8</ele>
        <time>2024-05-18T13:53:56Z</time>
      </trkpt>
      <trkpt lat="45.86091" lon="3.3289">
        <ele>298.8</ele>
        <time>2024-05-18T13:53:57Z</time>
      </trkpt>
      <trkpt lat="45.86091" lon="3.32899">
        <ele>298.8</ele>
        <time>2024-05-18T13:53:58Z</time>
      </trkpt>
      <trkpt lat="45.86091" lon="3.32909">
        <ele>298.8</ele>
        <time>2024-05-18T13:53:59Z</time>
      </trkpt>
      <trkpt lat="45.86091" lon="3.32918">
        <ele>298.8</ele>
        <time>2024-05-18T13:54:00Z</time>
      </trkpt>
      <trkpt lat="45.86092" lon="3.32927">
        <ele>298.8</ele>
        <time>2024-05-18T13:54:01Z</time>
      </trkpt>
      <trkpt lat="45.86093" lon="3.32936">
        <ele>299</ele>
        <time>2024-05-18T13:54:02Z</time>
      </trkpt>
      <trkpt lat="45.86094" lon="3.32945">
        <ele>299</ele>
        <time>2024-05-18T13:54:03Z</time>
      </trkpt>
      <trkpt lat="45.86094" lon="3.32954">
        <ele>299</ele>
        <time>2024-05-18T13:54:04Z</time>
      </trkpt>
      <trkpt lat="45.86095" lon="3.32963">
        <ele>299</ele>
        <time>2024-05-18T13:54:05Z</time>
      </trkpt>
      <trkpt lat="45.86096" lon="3.32972">
        <ele>299</ele>
        <time>2024-05-18T13:54:06Z</time>
      </trkpt>
      <trkpt lat="45.86097" lon="3.32981">
        <ele>299</ele>
        <time>2024-05-18T13:54:07Z</time>
      </trkpt>
      <trkpt lat="45.86097" lon="3.3299">
        <ele>299</ele>
        <time>2024-05-18T13:54:08Z</time>
      </trkpt>
      <trkpt lat="45.86098" lon="3.32998">
        <ele>299</ele>
        <time>2024-05-18T13:54:09Z</time>
      </trkpt>
      <trkpt lat="45.86099" lon="3.33008">
        <ele>299</ele>
        <time>2024-05-18T13:54:10Z</time>
      </trkpt>
      <trkpt lat="45.861" lon="3.33017">
        <ele>299</ele>
        <time>2024-05-18T13:54:11Z</time>
      </trkpt>
      <trkpt lat="45.861" lon="3.33026">
        <ele>299</ele>
        <time>2024-05-18T13:54:12Z</time>
      </trkpt>
      <trkpt lat="45.86101" lon="3.33035">
        <ele>299</ele>
        <time>2024-05-18T13:54:13Z</time>
      </trkpt>
      <trkpt lat="45.86102" lon="3.33044">
        <ele>298.8</ele>
        <time>2024-05-18T13:54:14Z</time>
      </trkpt>
      <trkpt lat="45.86103" lon="3.33053">
        <ele>299</ele>
        <time>2024-05-18T13:54:15Z</time>
      </trkpt>
      <trkpt lat="45.86103" lon="3.33062">
        <ele>298.8</ele>
        <time>2024-05-18T13:54:16Z</time>
      </trkpt>
      <trkpt lat="45.86104" lon="3.33072">
        <ele>298.8</ele>
        <time>2024-05-18T13:54:17Z</time>
      </trkpt>
      <trkpt lat="45.86105" lon="3.33081">
        <ele>298.6</ele>
        <time>2024-05-18T13:54:18Z</time>
      </trkpt>
      <trkpt lat="45.86106" lon="3.33091">
        <ele>298.6</ele>
        <time>2024-05-18T13:54:19Z</time>
      </trkpt>
      <trkpt lat="45.86107" lon="3.33101">
        <ele>298.6</ele>
        <time>2024-05-18T13:54:20Z</time>
      </trkpt>
      <trkpt lat="45.86107" lon="3.33111">
        <ele>298.6</ele>
        <time>2024-05-18T13:54:21Z</time>
      </trkpt>
      <trkpt lat="45.86108" lon="3.3312">
        <ele>298.6</ele>
        <time>2024-05-18T13:54:22Z</time>
      </trkpt>
      <trkpt lat="45.86109" lon="3.3313">
        <ele>298.8</ele>
        <time>2024-05-18T13:54:23Z</time>
      </trkpt>
      <trkpt lat="45.8611" lon="3.3314">
        <ele>298.8</ele>
        <time>2024-05-18T13:54:24Z</time>
      </trkpt>
      <trkpt lat="45.86111" lon="3.3315">
        <ele>298.8</ele>
        <time>2024-05-18T13:54:25Z</time>
      </trkpt>
      <trkpt lat="45.86111" lon="3.33159">
        <ele>298.8</ele>
        <time>2024-05-18T13:54:26Z</time>
      </trkpt>
      <trkpt lat="45.86112" lon="3.33169">
        <ele>299</ele>
        <time>2024-05-18T13:54:27Z</time>
      </trkpt>
      <trkpt lat="45.86113" lon="3.33179">
        <ele>299</ele>
        <time>2024-05-18T13:54:28Z</time>
      </trkpt>
      <trkpt lat="45.86114" lon="3.33189">
        <ele>299</ele>
        <time>2024-05-18T13:54:29Z</time>
      </trkpt>
      <trkpt lat="45.86115" lon="3.33199">
        <ele>299</ele>
        <time>2024-05-18T13:54:30Z</time>
      </trkpt>
      <trkpt lat="45.86115" lon="3.33209">
        <ele>299</ele>
        <time>2024-05-18T13:54:31Z</time>
      </trkpt>
      <trkpt lat="45.86117" lon="3.33219">
        <ele>299</ele>
        <time>2024-05-18T13:54:32Z</time>
      </trkpt>
      <trkpt lat="45.86119" lon="3.33229">
        <ele>299</ele>
        <time>2024-05-18T13:54:33Z</time>
      </trkpt>
      <trkpt lat="45.86121" lon="3.33239">
        <ele>299</ele>
        <time>2024-05-18T13:54:34Z</time>
      </trkpt>
      <trkpt lat="45.86123" lon="3.3325">
        <ele>299</ele>
        <time>2024-05-18T13:54:35Z</time>
      </trkpt>
      <trkpt lat="45.86126" lon="3.33261">
        <ele>299</ele>
        <time>2024-05-18T13:54:36Z</time>
      </trkpt>
      <trkpt lat="45.86129" lon="3.33271">
        <ele>299</ele>
        <time>2024-05-18T13:54:37Z</time>
      </trkpt>
      <trkpt lat="45.86132" lon="3.33282">
        <ele>298.8</ele>
        <time>2024-05-18T13:54:38Z</time>
      </trkpt>
      <trkpt lat="45.86136" lon="3.33293">
        <ele>298.8</ele>
        <time>2024-05-18T13:54:39Z</time>
      </trkpt>
      <trkpt lat="45.86139" lon="3.33303">
        <ele>298.8</ele>
        <time>2024-05-18T13:54:40Z</time>
      </trkpt>
      <trkpt lat="45.86142" lon="3.33314">
        <ele>298.8</ele>
        <time>2024-05-18T13:54:41Z</time>
      </trkpt>
      <trkpt lat="45.86145" lon="3.33325">
        <ele>298.8</ele>
        <time>2024-05-18T13:54:42Z</time>
      </trkpt>
      <trkpt lat="45.86148" lon="3.33336">
        <ele>298.6</ele>
        <time>2024-05-18T13:54:43Z</time>
      </trkpt>
      <trkpt lat="45.86151" lon="3.33346">
        <ele>298.6</ele>
        <time>2024-05-18T13:54:44Z</time>
      </trkpt>
      <trkpt lat="45.86154" lon="3.33357">
        <ele>298.8</ele>
        <time>2024-05-18T13:54:45Z</time>
      </trkpt>
      <trkpt lat="45.86157" lon="3.33367">
        <ele>298.8</ele>
        <time>2024-05-18T13:54:46Z</time>
      </trkpt>
      <trkpt lat="45.8616" lon="3.33377">
        <ele>298.8</ele>
        <time>2024-05-18T13:54:47Z</time>
      </trkpt>
      <trkpt lat="45.86163" lon="3.33386">
        <ele>298.8</ele>
        <time>2024-05-18T13:54:48Z</time>
      </trkpt>
      <trkpt lat="45.86166" lon="3.33396">
        <ele>298.8</ele>
        <time>2024-05-18T13:54:49Z</time>
      </trkpt>
      <trkpt lat="45.86169" lon="3.33406">
        <ele>298.6</ele>
        <time>2024-05-18T13:54:50Z</time>
      </trkpt>
      <trkpt lat="45.86172" lon="3.33415">
        <ele>298.6</ele>
        <time>2024-05-18T13:54:51Z</time>
      </trkpt>
      <trkpt lat="45.86174" lon="3.33425">
        <ele>298.6</ele>
        <time>2024-05-18T13:54:52Z</time>
      </trkpt>
      <trkpt lat="45.86177" lon="3.33434">
        <ele>298.8</ele>
        <time>2024-05-18T13:54:53Z</time>
      </trkpt>
      <trkpt lat="45.86181" lon="3.33442">
        <ele>298.6</ele>
        <time>2024-05-18T13:54:54Z</time>
      </trkpt>
      <trkpt lat="45.86184" lon="3.3345">
        <ele>298.6</ele>
        <time>2024-05-18T13:54:55Z</time>
      </trkpt>
      <trkpt lat="45.86187" lon="3.33459">
        <ele>298.6</ele>
        <time>2024-05-18T13:54:56Z</time>
      </trkpt>
      <trkpt lat="45.86191" lon="3.33468">
        <ele>298.6</ele>
        <time>2024-05-18T13:54:57Z</time>
      </trkpt>
      <trkpt lat="45.86194" lon="3.33476">
        <ele>298.8</ele>
        <time>2024-05-18T13:54:58Z</time>
      </trkpt>
      <trkpt lat="45.86198" lon="3.33485">
        <ele>298.6</ele>
        <time>2024-05-18T13:54:59Z</time>
      </trkpt>
      <trkpt lat="45.86203" lon="3.33491">
        <ele>298.6</ele>
        <time>2024-05-18T13:55:00Z</time>
      </trkpt>
      <trkpt lat="45.86208" lon="3.33498">
        <ele>298.6</ele>
        <time>2024-05-18T13:55:01Z</time>
      </trkpt>
      <trkpt lat="45.86213" lon="3.33503">
        <ele>298.4</ele>
        <time>2024-05-18T13:55:02Z</time>
      </trkpt>
      <trkpt lat="45.86219" lon="3.33507">
        <ele>298.4</ele>
        <time>2024-05-18T13:55:03Z</time>
      </trkpt>
      <trkpt lat="45.86223" lon="3.33509">
        <ele>298.6</ele>
        <time>2024-05-18T13:55:04Z</time>
      </trkpt>
      <trkpt lat="45.86226" lon="3.33511">
        <ele>298.4</ele>
        <time>2024-05-18T13:55:05Z</time>
      </trkpt>
      <trkpt lat="45.8623" lon="3.33513">
        <ele>298.6</ele>
        <time>2024-05-18T13:55:06Z</time>
      </trkpt>
      <trkpt lat="45.86234" lon="3.33516">
        <ele>298.6</ele>
        <time>2024-05-18T13:55:07Z</time>
      </trkpt>
      <trkpt lat="45.86239" lon="3.33518">
        <ele>298.6</ele>
        <time>2024-05-18T13:55:08Z</time>
      </trkpt>
      <trkpt lat="45.86245" lon="3.33521">
        <ele>298.4</ele>
        <time>2024-05-18T13:55:09Z</time>
      </trkpt>
      <trkpt lat="45.8625" lon="3.33524">
        <ele>298.4</ele>
        <time>2024-05-18T13:55:10Z</time>
      </trkpt>
      <trkpt lat="45.86256" lon="3.33527">
        <ele>298.4</ele>
        <time>2024-05-18T13:55:11Z</time>
      </trkpt>
      <trkpt lat="45.86262" lon="3.3353">
        <ele>298.4</ele>
        <time>2024-05-18T13:55:12Z</time>
      </trkpt>
      <trkpt lat="45.86267" lon="3.33533">
        <ele>298.4</ele>
        <time>2024-05-18T13:55:13Z</time>
      </trkpt>
      <trkpt lat="45.86273" lon="3.33536">
        <ele>298.4</ele>
        <time>2024-05-18T13:55:14Z</time>
      </trkpt>
      <trkpt lat="45.86279" lon="3.33539">
        <ele>298.4</ele>
        <time>2024-05-18T13:55:15Z</time>
      </trkpt>
      <trkpt lat="45.86284" lon="3.33542">
        <ele>298.4</ele>
        <time>2024-05-18T13:55:16Z</time>
      </trkpt>
      <trkpt lat="45.8629" lon="3.33544">
        <ele>298.4</ele>
        <time>2024-05-18T13:55:17Z</time>
      </trkpt>
      <trkpt lat="45.86295" lon="3.33547">
        <ele>298.4</ele>
        <time>2024-05-18T13:55:18Z</time>
      </trkpt>
      <trkpt lat="45.863" lon="3.33549">
        <ele>298.4</ele>
        <time>2024-05-18T13:55:19Z</time>
      </trkpt>
      <trkpt lat="45.86305" lon="3.3355">
        <ele>298.4</ele>
        <time>2024-05-18T13:55:20Z</time>
      </trkpt>
      <trkpt lat="45.8631" lon="3.33551">
        <ele>298.6</ele>
        <time>2024-05-18T13:55:21Z</time>
      </trkpt>
      <trkpt lat="45.86314" lon="3.33551">
        <ele>298.6</ele>
        <time>2024-05-18T13:55:22Z</time>
      </trkpt>
      <trkpt lat="45.86319" lon="3.33551">
        <ele>298.6</ele>
        <time>2024-05-18T13:55:23Z</time>
      </trkpt>
      <trkpt lat="45.86323" lon="3.33551">
        <ele>298.6</ele>
        <time>2024-05-18T13:55:24Z</time>
      </trkpt>
      <trkpt lat="45.86328" lon="3.33551">
        <ele>298.8</ele>
        <time>2024-05-18T13:55:25Z</time>
      </trkpt>
      <trkpt lat="45.86332" lon="3.33551">
        <ele>298.8</ele>
        <time>2024-05-18T13:55:26Z</time>
      </trkpt>
      <trkpt lat="45.86336" lon="3.33551">
        <ele>298.8</ele>
        <time>2024-05-18T13:55:27Z</time>
      </trkpt>
      <trkpt lat="45.8634" lon="3.33551">
        <ele>298.8</ele>
        <time>2024-05-18T13:55:28Z</time>
      </trkpt>
      <trkpt lat="45.86345" lon="3.33551">
        <ele>298.8</ele>
        <time>2024-05-18T13:55:29Z</time>
      </trkpt>
      <trkpt lat="45.86349" lon="3.33549">
        <ele>299</ele>
        <time>2024-05-18T13:55:30Z</time>
      </trkpt>
      <trkpt lat="45.86353" lon="3.33547">
        <ele>299</ele>
        <time>2024-05-18T13:55:31Z</time>
      </trkpt>
      <trkpt lat="45.86358" lon="3.33545">
        <ele>299.2</ele>
        <time>2024-05-18T13:55:32Z</time>
      </trkpt>
      <trkpt lat="45.86362" lon="3.33543">
        <ele>299.2</ele>
        <time>2024-05-18T13:55:33Z</time>
      </trkpt>
      <trkpt lat="45.86367" lon="3.3354">
        <ele>299.2</ele>
        <time>2024-05-18T13:55:34Z</time>
      </trkpt>
      <trkpt lat="45.86372" lon="3.33538">
        <ele>299.4</ele>
        <time>2024-05-18T13:55:35Z</time>
      </trkpt>
      <trkpt lat="45.86377" lon="3.33535">
        <ele>299.4</ele>
        <time>2024-05-18T13:55:36Z</time>
      </trkpt>
      <trkpt lat="45.86382" lon="3.33533">
        <ele>299.4</ele>
        <time>2024-05-18T13:55:37Z</time>
      </trkpt>
      <trkpt lat="45.86387" lon="3.3353">
        <ele>299.6</ele>
        <time>2024-05-18T13:55:38Z</time>
      </trkpt>
      <trkpt lat="45.86392" lon="3.33529">
        <ele>299.6</ele>
        <time>2024-05-18T13:55:39Z</time>
      </trkpt>
      <trkpt lat="45.86397" lon="3.33528">
        <ele>299.6</ele>
        <time>2024-05-18T13:55:40Z</time>
      </trkpt>
      <trkpt lat="45.86402" lon="3.33527">
        <ele>299.8</ele>
        <time>2024-05-18T13:55:41Z</time>
      </trkpt>
      <trkpt lat="45.86408" lon="3.33526">
        <ele>299.8</ele>
        <time>2024-05-18T13:55:42Z</time>
      </trkpt>
      <trkpt lat="45.86413" lon="3.33525">
        <ele>299.8</ele>
        <time>2024-05-18T13:55:43Z</time>
      </trkpt>
      <trkpt lat="45.86418" lon="3.33524">
        <ele>299.8</ele>
        <time>2024-05-18T13:55:44Z</time>
      </trkpt>
      <trkpt lat="45.86423" lon="3.33523">
        <ele>299.8</ele>
        <time>2024-05-18T13:55:45Z</time>
      </trkpt>
      <trkpt lat="45.86427" lon="3.33522">
        <ele>300</ele>
        <time>2024-05-18T13:55:46Z</time>
      </trkpt>
      <trkpt lat="45.86432" lon="3.33521">
        <ele>300</ele>
        <time>2024-05-18T13:55:47Z</time>
      </trkpt>
      <trkpt lat="45.86437" lon="3.3352">
        <ele>300</ele>
        <time>2024-05-18T13:55:48Z</time>
      </trkpt>
      <trkpt lat="45.86443" lon="3.33519">
        <ele>300</ele>
        <time>2024-05-18T13:55:49Z</time>
      </trkpt>
      <trkpt lat="45.86448" lon="3.33518">
        <ele>300</ele>
        <time>2024-05-18T13:55:50Z</time>
      </trkpt>
      <trkpt lat="45.86454" lon="3.33517">
        <ele>300</ele>
        <time>2024-05-18T13:55:51Z</time>
      </trkpt>
      <trkpt lat="45.8646" lon="3.33516">
        <ele>300</ele>
        <time>2024-05-18T13:55:52Z</time>
      </trkpt>
      <trkpt lat="45.86466" lon="3.33515">
        <ele>300</ele>
        <time>2024-05-18T13:55:53Z</time>
      </trkpt>
      <trkpt lat="45.86473" lon="3.33514">
        <ele>300</ele>
        <time>2024-05-18T13:55:54Z</time>
      </trkpt>
      <trkpt lat="45.86479" lon="3.33513">
        <ele>300</ele>
        <time>2024-05-18T13:55:55Z</time>
      </trkpt>
      <trkpt lat="45.86486" lon="3.33512">
        <ele>300</ele>
        <time>2024-05-18T13:55:56Z</time>
      </trkpt>
      <trkpt lat="45.86492" lon="3.33512">
        <ele>300</ele>
        <time>2024-05-18T13:55:57Z</time>
      </trkpt>
      <trkpt lat="45.86499" lon="3.33511">
        <ele>300</ele>
        <time>2024-05-18T13:55:58Z</time>
      </trkpt>
      <trkpt lat="45.86506" lon="3.3351">
        <ele>300</ele>
        <time>2024-05-18T13:55:59Z</time>
      </trkpt>
      <trkpt lat="45.86513" lon="3.33509">
        <ele>300</ele>
        <time>2024-05-18T13:56:00Z</time>
      </trkpt>
      <trkpt lat="45.8652" lon="3.33508">
        <ele>299.8</ele>
        <time>2024-05-18T13:56:01Z</time>
      </trkpt>
      <trkpt lat="45.86527" lon="3.33507">
        <ele>299.8</ele>
        <time>2024-05-18T13:56:02Z</time>
      </trkpt>
      <trkpt lat="45.86534" lon="3.33506">
        <ele>300</ele>
        <time>2024-05-18T13:56:03Z</time>
      </trkpt>
      <trkpt lat="45.86541" lon="3.33505">
        <ele>299.8</ele>
        <time>2024-05-18T13:56:04Z</time>
      </trkpt>
      <trkpt lat="45.86548" lon="3.33504">
        <ele>299.4</ele>
        <time>2024-05-18T13:56:05Z</time>
      </trkpt>
      <trkpt lat="45.86556" lon="3.33503">
        <ele>299.6</ele>
        <time>2024-05-18T13:56:06Z</time>
      </trkpt>
      <trkpt lat="45.86563" lon="3.33502">
        <ele>299.6</ele>
        <time>2024-05-18T13:56:07Z</time>
      </trkpt>
      <trkpt lat="45.8657" lon="3.33501">
        <ele>299.4</ele>
        <time>2024-05-18T13:56:08Z</time>
      </trkpt>
      <trkpt lat="45.86577" lon="3.335">
        <ele>299.4</ele>
        <time>2024-05-18T13:56:09Z</time>
      </trkpt>
      <trkpt lat="45.86585" lon="3.33499">
        <ele>299.4</ele>
        <time>2024-05-18T13:56:10Z</time>
      </trkpt>
      <trkpt lat="45.86592" lon="3.33498">
        <ele>299.4</ele>
        <time>2024-05-18T13:56:11Z</time>
      </trkpt>
      <trkpt lat="45.86599" lon="3.33497">
        <ele>299.6</ele>
        <time>2024-05-18T13:56:12Z</time>
      </trkpt>
      <trkpt lat="45.86606" lon="3.33497">
        <ele>299.6</ele>
        <time>2024-05-18T13:56:13Z</time>
      </trkpt>
      <trkpt lat="45.86613" lon="3.33496">
        <ele>299.6</ele>
        <time>2024-05-18T13:56:14Z</time>
      </trkpt>
      <trkpt lat="45.8662" lon="3.33495">
        <ele>299.6</ele>
        <time>2024-05-18T13:56:15Z</time>
      </trkpt>
      <trkpt lat="45.86627" lon="3.33496">
        <ele>299.6</ele>
        <time>2024-05-18T13:56:16Z</time>
      </trkpt>
      <trkpt lat="45.86634" lon="3.33497">
        <ele>299.6</ele>
        <time>2024-05-18T13:56:17Z</time>
      </trkpt>
      <trkpt lat="45.8664" lon="3.33497">
        <ele>299.6</ele>
        <time>2024-05-18T13:56:18Z</time>
      </trkpt>
      <trkpt lat="45.86647" lon="3.33499">
        <ele>299.6</ele>
        <time>2024-05-18T13:56:19Z</time>
      </trkpt>
      <trkpt lat="45.86653" lon="3.33501">
        <ele>299.6</ele>
        <time>2024-05-18T13:56:20Z</time>
      </trkpt>
      <trkpt lat="45.86659" lon="3.33504">
        <ele>299.6</ele>
        <time>2024-05-18T13:56:21Z</time>
      </trkpt>
      <trkpt lat="45.86665" lon="3.33506">
        <ele>299.4</ele>
        <time>2024-05-18T13:56:22Z</time>
      </trkpt>
      <trkpt lat="45.86671" lon="3.33509">
        <ele>299.6</ele>
        <time>2024-05-18T13:56:23Z</time>
      </trkpt>
      <trkpt lat="45.86677" lon="3.33514">
        <ele>300</ele>
        <time>2024-05-18T13:56:24Z</time>
      </trkpt>
      <trkpt lat="45.86682" lon="3.33518">
        <ele>299.8</ele>
        <time>2024-05-18T13:56:25Z</time>
      </trkpt>
      <trkpt lat="45.86687" lon="3.33522">
        <ele>299.8</ele>
        <time>2024-05-18T13:56:26Z</time>
      </trkpt>
      <trkpt lat="45.86692" lon="3.33527">
        <ele>299.8</ele>
        <time>2024-05-18T13:56:27Z</time>
      </trkpt>
      <trkpt lat="45.86697" lon="3.33531">
        <ele>300</ele>
        <time>2024-05-18T13:56:28Z</time>
      </trkpt>
      <trkpt lat="45.86702" lon="3.33535">
        <ele>300</ele>
        <time>2024-05-18T13:56:29Z</time>
      </trkpt>
      <trkpt lat="45.86707" lon="3.33539">
        <ele>300</ele>
        <time>2024-05-18T13:56:30Z</time>
      </trkpt>
      <trkpt lat="45.86712" lon="3.33544">
        <ele>300</ele>
        <time>2024-05-18T13:56:31Z</time>
      </trkpt>
      <trkpt lat="45.86717" lon="3.33548">
        <ele>300.2</ele>
        <time>2024-05-18T13:56:32Z</time>
      </trkpt>
      <trkpt lat="45.86723" lon="3.33552">
        <ele>300.2</ele>
        <time>2024-05-18T13:56:33Z</time>
      </trkpt>
      <trkpt lat="45.86728" lon="3.33557">
        <ele>300.2</ele>
        <time>2024-05-18T13:56:34Z</time>
      </trkpt>
      <trkpt lat="45.86733" lon="3.33562">
        <ele>300.2</ele>
        <time>2024-05-18T13:56:35Z</time>
      </trkpt>
      <trkpt lat="45.86739" lon="3.33566">
        <ele>300.2</ele>
        <time>2024-05-18T13:56:36Z</time>
      </trkpt>
      <trkpt lat="45.86744" lon="3.33571">
        <ele>300.2</ele>
        <time>2024-05-18T13:56:37Z</time>
      </trkpt>
      <trkpt lat="45.8675" lon="3.33576">
        <ele>300.4</ele>
        <time>2024-05-18T13:56:38Z</time>
      </trkpt>
      <trkpt lat="45.86755" lon="3.3358">
        <ele>300.4</ele>
        <time>2024-05-18T13:56:39Z</time>
      </trkpt>
      <trkpt lat="45.86761" lon="3.33583">
        <ele>300.4</ele>
        <time>2024-05-18T13:56:40Z</time>
      </trkpt>
      <trkpt lat="45.86767" lon="3.33586">
        <ele>300.4</ele>
        <time>2024-05-18T13:56:41Z</time>
      </trkpt>
      <trkpt lat="45.86773" lon="3.3359">
        <ele>300.4</ele>
        <time>2024-05-18T13:56:42Z</time>
      </trkpt>
      <trkpt lat="45.86779" lon="3.33593">
        <ele>300.4</ele>
        <time>2024-05-18T13:56:43Z</time>
      </trkpt>
      <trkpt lat="45.86785" lon="3.33596">
        <ele>300.4</ele>
        <time>2024-05-18T13:56:44Z</time>
      </trkpt>
      <trkpt lat="45.86791" lon="3.33599">
        <ele>300.4</ele>
        <time>2024-05-18T13:56:45Z</time>
      </trkpt>
      <trkpt lat="45.86797" lon="3.33602">
        <ele>300.6</ele>
        <time>2024-05-18T13:56:46Z</time>
      </trkpt>
      <trkpt lat="45.86803" lon="3.33605">
        <ele>300.6</ele>
        <time>2024-05-18T13:56:47Z</time>
      </trkpt>
      <trkpt lat="45.86809" lon="3.33607">
        <ele>300.6</ele>
        <time>2024-05-18T13:56:48Z</time>
      </trkpt>
      <trkpt lat="45.86815" lon="3.33608">
        <ele>300.6</ele>
        <time>2024-05-18T13:56:49Z</time>
      </trkpt>
      <trkpt lat="45.86821" lon="3.3361">
        <ele>300.6</ele>
        <time>2024-05-18T13:56:50Z</time>
      </trkpt>
      <trkpt lat="45.86828" lon="3.33612">
        <ele>300.6</ele>
        <time>2024-05-18T13:56:51Z</time>
      </trkpt>
      <trkpt lat="45.86834" lon="3.33613">
        <ele>300.6</ele>
        <time>2024-05-18T13:56:52Z</time>
      </trkpt>
      <trkpt lat="45.8684" lon="3.33615">
        <ele>300.6</ele>
        <time>2024-05-18T13:56:53Z</time>
      </trkpt>
      <trkpt lat="45.86846" lon="3.33616">
        <ele>300.6</ele>
        <time>2024-05-18T13:56:54Z</time>
      </trkpt>
      <trkpt lat="45.86852" lon="3.33618">
        <ele>300.6</ele>
        <time>2024-05-18T13:56:55Z</time>
      </trkpt>
      <trkpt lat="45.86858" lon="3.3362">
        <ele>300.6</ele>
        <time>2024-05-18T13:56:56Z</time>
      </trkpt>
      <trkpt lat="45.86865" lon="3.3362">
        <ele>300.6</ele>
        <time>2024-05-18T13:56:57Z</time>
      </trkpt>
      <trkpt lat="45.86872" lon="3.33621">
        <ele>300.6</ele>
        <time>2024-05-18T13:56:58Z</time>
      </trkpt>
      <trkpt lat="45.86878" lon="3.33622">
        <ele>300.6</ele>
        <time>2024-05-18T13:56:59Z</time>
      </trkpt>
      <trkpt lat="45.86885" lon="3.33622">
        <ele>300.6</ele>
        <time>2024-05-18T13:57:00Z</time>
      </trkpt>
      <trkpt lat="45.86892" lon="3.33623">
        <ele>300.6</ele>
        <time>2024-05-18T13:57:01Z</time>
      </trkpt>
      <trkpt lat="45.86899" lon="3.33624">
        <ele>300.8</ele>
        <time>2024-05-18T13:57:02Z</time>
      </trkpt>
      <trkpt lat="45.86906" lon="3.33624">
        <ele>300.8</ele>
        <time>2024-05-18T13:57:03Z</time>
      </trkpt>
      <trkpt lat="45.86913" lon="3.33625">
        <ele>300.8</ele>
        <time>2024-05-18T13:57:04Z</time>
      </trkpt>
      <trkpt lat="45.8692" lon="3.33626">
        <ele>300.8</ele>
        <time>2024-05-18T13:57:05Z</time>
      </trkpt>
      <trkpt lat="45.86928" lon="3.33627">
        <ele>300.8</ele>
        <time>2024-05-18T13:57:06Z</time>
      </trkpt>
      <trkpt lat="45.86935" lon="3.33627">
        <ele>300.8</ele>
        <time>2024-05-18T13:57:07Z</time>
      </trkpt>
      <trkpt lat="45.86942" lon="3.33628">
        <ele>300.8</ele>
        <time>2024-05-18T13:57:08Z</time>
      </trkpt>
      <trkpt lat="45.86949" lon="3.33629">
        <ele>300.8</ele>
        <time>2024-05-18T13:57:09Z</time>
      </trkpt>
      <trkpt lat="45.86956" lon="3.3363">
        <ele>300.8</ele>
        <time>2024-05-18T13:57:10Z</time>
      </trkpt>
      <trkpt lat="45.86963" lon="3.3363">
        <ele>300.8</ele>
        <time>2024-05-18T13:57:11Z</time>
      </trkpt>
      <trkpt lat="45.8697" lon="3.33632">
        <ele>300.8</ele>
        <time>2024-05-18T13:57:12Z</time>
      </trkpt>
      <trkpt lat="45.86977" lon="3.33633">
        <ele>300.8</ele>
        <time>2024-05-18T13:57:13Z</time>
      </trkpt>
      <trkpt lat="45.86984" lon="3.33635">
        <ele>300.8</ele>
        <time>2024-05-18T13:57:14Z</time>
      </trkpt>
      <trkpt lat="45.86991" lon="3.33636">
        <ele>300.8</ele>
        <time>2024-05-18T13:57:15Z</time>
      </trkpt>
      <trkpt lat="45.86997" lon="3.33638">
        <ele>300.8</ele>
        <time>2024-05-18T13:57:16Z</time>
      </trkpt>
      <trkpt lat="45.87004" lon="3.33639">
        <ele>300.8</ele>
        <time>2024-05-18T13:57:17Z</time>
      </trkpt>
      <trkpt lat="45.87011" lon="3.3364">
        <ele>300.8</ele>
        <time>2024-05-18T13:57:18Z</time>
      </trkpt>
      <trkpt lat="45.87018" lon="3.33642">
        <ele>300.8</ele>
        <time>2024-05-18T13:57:19Z</time>
      </trkpt>
      <trkpt lat="45.87025" lon="3.33644">
        <ele>300.8</ele>
        <time>2024-05-18T13:57:20Z</time>
      </trkpt>
      <trkpt lat="45.87031" lon="3.33647">
        <ele>300.8</ele>
        <time>2024-05-18T13:57:21Z</time>
      </trkpt>
      <trkpt lat="45.87038" lon="3.3365">
        <ele>300.8</ele>
        <time>2024-05-18T13:57:22Z</time>
      </trkpt>
      <trkpt lat="45.87044" lon="3.33653">
        <ele>300.8</ele>
        <time>2024-05-18T13:57:23Z</time>
      </trkpt>
      <trkpt lat="45.87051" lon="3.33656">
        <ele>301</ele>
        <time>2024-05-18T13:57:24Z</time>
      </trkpt>
      <trkpt lat="45.87057" lon="3.33659">
        <ele>301</ele>
        <time>2024-05-18T13:57:25Z</time>
      </trkpt>
      <trkpt lat="45.87063" lon="3.33662">
        <ele>301</ele>
        <time>2024-05-18T13:57:26Z</time>
      </trkpt>
      <trkpt lat="45.8707" lon="3.33665">
        <ele>301</ele>
        <time>2024-05-18T13:57:27Z</time>
      </trkpt>
      <trkpt lat="45.87076" lon="3.33669">
        <ele>301</ele>
        <time>2024-05-18T13:57:28Z</time>
      </trkpt>
      <trkpt lat="45.87082" lon="3.33673">
        <ele>301</ele>
        <time>2024-05-18T13:57:29Z</time>
      </trkpt>
      <trkpt lat="45.87088" lon="3.33678">
        <ele>301.2</ele>
        <time>2024-05-18T13:57:30Z</time>
      </trkpt>
      <trkpt lat="45.87095" lon="3.33682">
        <ele>301.2</ele>
        <time>2024-05-18T13:57:31Z</time>
      </trkpt>
      <trkpt lat="45.87101" lon="3.33686">
        <ele>301.2</ele>
        <time>2024-05-18T13:57:32Z</time>
      </trkpt>
      <trkpt lat="45.87107" lon="3.33691">
        <ele>301.2</ele>
        <time>2024-05-18T13:57:33Z</time>
      </trkpt>
      <trkpt lat="45.87114" lon="3.33695">
        <ele>301.2</ele>
        <time>2024-05-18T13:57:34Z</time>
      </trkpt>
      <trkpt lat="45.8712" lon="3.337">
        <ele>301.2</ele>
        <time>2024-05-18T13:57:35Z</time>
      </trkpt>
      <trkpt lat="45.87126" lon="3.33704">
        <ele>301.2</ele>
        <time>2024-05-18T13:57:36Z</time>
      </trkpt>
      <trkpt lat="45.87132" lon="3.33708">
        <ele>301.2</ele>
        <time>2024-05-18T13:57:37Z</time>
      </trkpt>
      <trkpt lat="45.87138" lon="3.33713">
        <ele>301</ele>
        <time>2024-05-18T13:57:38Z</time>
      </trkpt>
      <trkpt lat="45.87145" lon="3.33717">
        <ele>301</ele>
        <time>2024-05-18T13:57:39Z</time>
      </trkpt>
      <trkpt lat="45.87151" lon="3.33721">
        <ele>301</ele>
        <time>2024-05-18T13:57:40Z</time>
      </trkpt>
      <trkpt lat="45.87157" lon="3.33726">
        <ele>301</ele>
        <time>2024-05-18T13:57:41Z</time>
      </trkpt>
      <trkpt lat="45.87163" lon="3.33732">
        <ele>300.8</ele>
        <time>2024-05-18T13:57:42Z</time>
      </trkpt>
      <trkpt lat="45.87169" lon="3.33738">
        <ele>300.8</ele>
        <time>2024-05-18T13:57:43Z</time>
      </trkpt>
      <trkpt lat="45.87175" lon="3.33744">
        <ele>300.8</ele>
        <time>2024-05-18T13:57:44Z</time>
      </trkpt>
      <trkpt lat="45.87181" lon="3.3375">
        <ele>300.8</ele>
        <time>2024-05-18T13:57:45Z</time>
      </trkpt>
      <trkpt lat="45.87186" lon="3.33757">
        <ele>300.6</ele>
        <time>2024-05-18T13:57:46Z</time>
      </trkpt>
      <trkpt lat="45.87192" lon="3.33763">
        <ele>300.6</ele>
        <time>2024-05-18T13:57:47Z</time>
      </trkpt>
      <trkpt lat="45.87198" lon="3.33769">
        <ele>300.6</ele>
        <time>2024-05-18T13:57:48Z</time>
      </trkpt>
      <trkpt lat="45.87204" lon="3.33776">
        <ele>300.6</ele>
        <time>2024-05-18T13:57:49Z</time>
      </trkpt>
      <trkpt lat="45.8721" lon="3.33782">
        <ele>300.4</ele>
        <time>2024-05-18T13:57:50Z</time>
      </trkpt>
      <trkpt lat="45.87215" lon="3.33788">
        <ele>300.4</ele>
        <time>2024-05-18T13:57:51Z</time>
      </trkpt>
      <trkpt lat="45.87221" lon="3.33794">
        <ele>300.2</ele>
        <time>2024-05-18T13:57:52Z</time>
      </trkpt>
      <trkpt lat="45.87227" lon="3.33801">
        <ele>300.2</ele>
        <time>2024-05-18T13:57:53Z</time>
      </trkpt>
      <trkpt lat="45.87233" lon="3.33807">
        <ele>300.2</ele>
        <time>2024-05-18T13:57:54Z</time>
      </trkpt>
      <trkpt lat="45.87238" lon="3.33815">
        <ele>300.2</ele>
        <time>2024-05-18T13:57:55Z</time>
      </trkpt>
      <trkpt lat="45.87242" lon="3.33823">
        <ele>300.2</ele>
        <time>2024-05-18T13:57:56Z</time>
      </trkpt>
      <trkpt lat="45.87246" lon="3.33832">
        <ele>300.2</ele>
        <time>2024-05-18T13:57:57Z</time>
      </trkpt>
      <trkpt lat="45.87251" lon="3.33841">
        <ele>300.2</ele>
        <time>2024-05-18T13:57:58Z</time>
      </trkpt>
      <trkpt lat="45.87255" lon="3.3385">
        <ele>300</ele>
        <time>2024-05-18T13:57:59Z</time>
      </trkpt>
      <trkpt lat="45.87259" lon="3.33858">
        <ele>300</ele>
        <time>2024-05-18T13:58:00Z</time>
      </trkpt>
      <trkpt lat="45.87263" lon="3.33867">
        <ele>300.2</ele>
        <time>2024-05-18T13:58:01Z</time>
      </trkpt>
      <trkpt lat="45.87267" lon="3.33876">
        <ele>300</ele>
        <time>2024-05-18T13:58:02Z</time>
      </trkpt>
      <trkpt lat="45.87271" lon="3.33884">
        <ele>300</ele>
        <time>2024-05-18T13:58:03Z</time>
      </trkpt>
      <trkpt lat="45.87275" lon="3.33893">
        <ele>300</ele>
        <time>2024-05-18T13:58:04Z</time>
      </trkpt>
      <trkpt lat="45.87279" lon="3.33901">
        <ele>300</ele>
        <time>2024-05-18T13:58:05Z</time>
      </trkpt>
      <trkpt lat="45.87283" lon="3.33909">
        <ele>300</ele>
        <time>2024-05-18T13:58:06Z</time>
      </trkpt>
      <trkpt lat="45.87287" lon="3.33918">
        <ele>300.2</ele>
        <time>2024-05-18T13:58:07Z</time>
      </trkpt>
      <trkpt lat="45.87291" lon="3.33926">
        <ele>300</ele>
        <time>2024-05-18T13:58:08Z</time>
      </trkpt>
      <trkpt lat="45.87294" lon="3.33936">
        <ele>300</ele>
        <time>2024-05-18T13:58:09Z</time>
      </trkpt>
      <trkpt lat="45.87297" lon="3.33945">
        <ele>300</ele>
        <time>2024-05-18T13:58:10Z</time>
      </trkpt>
      <trkpt lat="45.873" lon="3.33954">
        <ele>300</ele>
        <time>2024-05-18T13:58:11Z</time>
      </trkpt>
      <trkpt lat="45.87302" lon="3.33963">
        <ele>300</ele>
        <time>2024-05-18T13:58:12Z</time>
      </trkpt>
      <trkpt lat="45.87305" lon="3.33972">
        <ele>300</ele>
        <time>2024-05-18T13:58:13Z</time>
      </trkpt>
      <trkpt lat="45.87307" lon="3.33981">
        <ele>300</ele>
        <time>2024-05-18T13:58:14Z</time>
      </trkpt>
      <trkpt lat="45.8731" lon="3.3399">
        <ele>299.8</ele>
        <time>2024-05-18T13:58:15Z</time>
      </trkpt>
      <trkpt lat="45.87313" lon="3.33999">
        <ele>299.8</ele>
        <time>2024-05-18T13:58:16Z</time>
      </trkpt>
      <trkpt lat="45.87315" lon="3.34007">
        <ele>299.8</ele>
        <time>2024-05-18T13:58:17Z</time>
      </trkpt>
      <trkpt lat="45.87318" lon="3.34016">
        <ele>299.8</ele>
        <time>2024-05-18T13:58:18Z</time>
      </trkpt>
      <trkpt lat="45.8732" lon="3.34024">
        <ele>299.8</ele>
        <time>2024-05-18T13:58:19Z</time>
      </trkpt>
      <trkpt lat="45.87323" lon="3.34033">
        <ele>299.8</ele>
        <time>2024-05-18T13:58:20Z</time>
      </trkpt>
      <trkpt lat="45.87325" lon="3.34041">
        <ele>299.8</ele>
        <time>2024-05-18T13:58:21Z</time>
      </trkpt>
      <trkpt lat="45.87328" lon="3.34049">
        <ele>299.8</ele>
        <time>2024-05-18T13:58:22Z</time>
      </trkpt>
      <trkpt lat="45.8733" lon="3.34057">
        <ele>299.8</ele>
        <time>2024-05-18T13:58:23Z</time>
      </trkpt>
      <trkpt lat="45.87332" lon="3.34065">
        <ele>299.8</ele>
        <time>2024-05-18T13:58:24Z</time>
      </trkpt>
      <trkpt lat="45.87335" lon="3.34073">
        <ele>299.8</ele>
        <time>2024-05-18T13:58:25Z</time>
      </trkpt>
      <trkpt lat="45.87337" lon="3.34081">
        <ele>300</ele>
        <time>2024-05-18T13:58:26Z</time>
      </trkpt>
      <trkpt lat="45.8734" lon="3.34089">
        <ele>299.8</ele>
        <time>2024-05-18T13:58:27Z</time>
      </trkpt>
      <trkpt lat="45.87342" lon="3.34097">
        <ele>300</ele>
        <time>2024-05-18T13:58:28Z</time>
      </trkpt>
      <trkpt lat="45.87344" lon="3.34104">
        <ele>300.2</ele>
        <time>2024-05-18T13:58:29Z</time>
      </trkpt>
      <trkpt lat="45.87347" lon="3.34112">
        <ele>300</ele>
        <time>2024-05-18T13:58:30Z</time>
      </trkpt>
      <trkpt lat="45.8735" lon="3.34119">
        <ele>300</ele>
        <time>2024-05-18T13:58:31Z</time>
      </trkpt>
      <trkpt lat="45.87353" lon="3.34127">
        <ele>300.2</ele>
        <time>2024-05-18T13:58:32Z</time>
      </trkpt>
      <trkpt lat="45.87356" lon="3.34134">
        <ele>300.2</ele>
        <time>2024-05-18T13:58:33Z</time>
      </trkpt>
      <trkpt lat="45.8736" lon="3.34141">
        <ele>300.2</ele>
        <time>2024-05-18T13:58:34Z</time>
      </trkpt>
      <trkpt lat="45.87363" lon="3.34147">
        <ele>300.2</ele>
        <time>2024-05-18T13:58:35Z</time>
      </trkpt>
      <trkpt lat="45.87367" lon="3.34154">
        <ele>300.2</ele>
        <time>2024-05-18T13:58:36Z</time>
      </trkpt>
      <trkpt lat="45.87371" lon="3.34161">
        <ele>300.2</ele>
        <time>2024-05-18T13:58:37Z</time>
      </trkpt>
      <trkpt lat="45.87375" lon="3.34168">
        <ele>300.2</ele>
        <time>2024-05-18T13:58:38Z</time>
      </trkpt>
      <trkpt lat="45.87379" lon="3.34175">
        <ele>300.2</ele>
        <time>2024-05-18T13:58:39Z</time>
      </trkpt>
      <trkpt lat="45.87382" lon="3.34182">
        <ele>300.2</ele>
        <time>2024-05-18T13:58:40Z</time>
      </trkpt>
      <trkpt lat="45.87387" lon="3.34187">
        <ele>300.4</ele>
        <time>2024-05-18T13:58:41Z</time>
      </trkpt>
      <trkpt lat="45.87392" lon="3.34192">
        <ele>300.4</ele>
        <time>2024-05-18T13:58:42Z</time>
      </trkpt>
      <trkpt lat="45.87397" lon="3.34197">
        <ele>300.4</ele>
        <time>2024-05-18T13:58:43Z</time>
      </trkpt>
      <trkpt lat="45.87402" lon="3.34202">
        <ele>300.4</ele>
        <time>2024-05-18T13:58:44Z</time>
      </trkpt>
      <trkpt lat="45.87407" lon="3.34207">
        <ele>300.4</ele>
        <time>2024-05-18T13:58:45Z</time>
      </trkpt>
      <trkpt lat="45.87412" lon="3.34213">
        <ele>300.4</ele>
        <time>2024-05-18T13:58:46Z</time>
      </trkpt>
      <trkpt lat="45.87418" lon="3.34219">
        <ele>300.4</ele>
        <time>2024-05-18T13:58:47Z</time>
      </trkpt>
      <trkpt lat="45.87423" lon="3.34225">
        <ele>300.4</ele>
        <time>2024-05-18T13:58:48Z</time>
      </trkpt>
      <trkpt lat="45.87428" lon="3.3423">
        <ele>300.4</ele>
        <time>2024-05-18T13:58:49Z</time>
      </trkpt>
      <trkpt lat="45.87434" lon="3.34234">
        <ele>300.4</ele>
        <time>2024-05-18T13:58:50Z</time>
      </trkpt>
      <trkpt lat="45.87441" lon="3.34237">
        <ele>300.4</ele>
        <time>2024-05-18T13:58:51Z</time>
      </trkpt>
      <trkpt lat="45.87447" lon="3.34241">
        <ele>300.6</ele>
        <time>2024-05-18T13:58:52Z</time>
      </trkpt>
      <trkpt lat="45.87453" lon="3.34244">
        <ele>300.6</ele>
        <time>2024-05-18T13:58:53Z</time>
      </trkpt>
      <trkpt lat="45.87459" lon="3.34248">
        <ele>300.6</ele>
        <time>2024-05-18T13:58:54Z</time>
      </trkpt>
      <trkpt lat="45.87465" lon="3.34251">
        <ele>300.6</ele>
        <time>2024-05-18T13:58:55Z</time>
      </trkpt>
      <trkpt lat="45.87472" lon="3.34255">
        <ele>300.6</ele>
        <time>2024-05-18T13:58:56Z</time>
      </trkpt>
      <trkpt lat="45.87478" lon="3.34258">
        <ele>300.6</ele>
        <time>2024-05-18T13:58:57Z</time>
      </trkpt>
      <trkpt lat="45.87484" lon="3.34261">
        <ele>300.6</ele>
        <time>2024-05-18T13:58:58Z</time>
      </trkpt>
      <trkpt lat="45.8749" lon="3.34265">
        <ele>300.6</ele>
        <time>2024-05-18T13:58:59Z</time>
      </trkpt>
      <trkpt lat="45.87496" lon="3.34268">
        <ele>300.6</ele>
        <time>2024-05-18T13:59:00Z</time>
      </trkpt>
      <trkpt lat="45.87502" lon="3.34271">
        <ele>300.8</ele>
        <time>2024-05-18T13:59:01Z</time>
      </trkpt>
      <trkpt lat="45.87508" lon="3.34275">
        <ele>300.8</ele>
        <time>2024-05-18T13:59:02Z</time>
      </trkpt>
      <trkpt lat="45.87515" lon="3.34278">
        <ele>300.8</ele>
        <time>2024-05-18T13:59:03Z</time>
      </trkpt>
      <trkpt lat="45.87521" lon="3.34282">
        <ele>300.8</ele>
        <time>2024-05-18T13:59:04Z</time>
      </trkpt>
      <trkpt lat="45.87527" lon="3.34285">
        <ele>300.8</ele>
        <time>2024-05-18T13:59:05Z</time>
      </trkpt>
      <trkpt lat="45.87533" lon="3.34288">
        <ele>300.8</ele>
        <time>2024-05-18T13:59:06Z</time>
      </trkpt>
      <trkpt lat="45.87539" lon="3.34294">
        <ele>301</ele>
        <time>2024-05-18T13:59:07Z</time>
      </trkpt>
      <trkpt lat="45.87544" lon="3.34299">
        <ele>301</ele>
        <time>2024-05-18T13:59:08Z</time>
      </trkpt>
      <trkpt lat="45.87549" lon="3.34305">
        <ele>301</ele>
        <time>2024-05-18T13:59:09Z</time>
      </trkpt>
      <trkpt lat="45.87555" lon="3.34311">
        <ele>301</ele>
        <time>2024-05-18T13:59:10Z</time>
      </trkpt>
      <trkpt lat="45.8756" lon="3.34316">
        <ele>301</ele>
        <time>2024-05-18T13:59:11Z</time>
      </trkpt>
      <trkpt lat="45.87566" lon="3.34322">
        <ele>301</ele>
        <time>2024-05-18T13:59:12Z</time>
      </trkpt>
      <trkpt lat="45.87571" lon="3.34328">
        <ele>301</ele>
        <time>2024-05-18T13:59:13Z</time>
      </trkpt>
      <trkpt lat="45.87577" lon="3.34333">
        <ele>301</ele>
        <time>2024-05-18T13:59:14Z</time>
      </trkpt>
      <trkpt lat="45.87582" lon="3.34339">
        <ele>301</ele>
        <time>2024-05-18T13:59:15Z</time>
      </trkpt>
      <trkpt lat="45.87588" lon="3.34345">
        <ele>301</ele>
        <time>2024-05-18T13:59:16Z</time>
      </trkpt>
      <trkpt lat="45.87593" lon="3.3435">
        <ele>301</ele>
        <time>2024-05-18T13:59:17Z</time>
      </trkpt>
      <trkpt lat="45.87598" lon="3.34356">
        <ele>301</ele>
        <time>2024-05-18T13:59:18Z</time>
      </trkpt>
      <trkpt lat="45.87604" lon="3.34362">
        <ele>301</ele>
        <time>2024-05-18T13:59:19Z</time>
      </trkpt>
      <trkpt lat="45.87609" lon="3.34367">
        <ele>301</ele>
        <time>2024-05-18T13:59:20Z</time>
      </trkpt>
      <trkpt lat="45.87615" lon="3.34373">
        <ele>301</ele>
        <time>2024-05-18T13:59:21Z</time>
      </trkpt>
      <trkpt lat="45.8762" lon="3.34379">
        <ele>301</ele>
        <time>2024-05-18T13:59:22Z</time>
      </trkpt>
      <trkpt lat="45.87626" lon="3.34385">
        <ele>301</ele>
        <time>2024-05-18T13:59:23Z</time>
      </trkpt>
      <trkpt lat="45.87631" lon="3.3439">
        <ele>301</ele>
        <time>2024-05-18T13:59:24Z</time>
      </trkpt>
      <trkpt lat="45.87637" lon="3.34396">
        <ele>301</ele>
        <time>2024-05-18T13:59:25Z</time>
      </trkpt>
      <trkpt lat="45.87642" lon="3.34402">
        <ele>301</ele>
        <time>2024-05-18T13:59:26Z</time>
      </trkpt>
      <trkpt lat="45.87648" lon="3.34408">
        <ele>301</ele>
        <time>2024-05-18T13:59:27Z</time>
      </trkpt>
      <trkpt lat="45.87653" lon="3.34413">
        <ele>301</ele>
        <time>2024-05-18T13:59:28Z</time>
      </trkpt>
      <trkpt lat="45.87659" lon="3.34419">
        <ele>301</ele>
        <time>2024-05-18T13:59:29Z</time>
      </trkpt>
      <trkpt lat="45.87664" lon="3.34424">
        <ele>301</ele>
        <time>2024-05-18T13:59:30Z</time>
      </trkpt>
      <trkpt lat="45.87669" lon="3.3443">
        <ele>301</ele>
        <time>2024-05-18T13:59:31Z</time>
      </trkpt>
      <trkpt lat="45.87675" lon="3.34436">
        <ele>301</ele>
        <time>2024-05-18T13:59:32Z</time>
      </trkpt>
      <trkpt lat="45.8768" lon="3.34441">
        <ele>301</ele>
        <time>2024-05-18T13:59:33Z</time>
      </trkpt>
      <trkpt lat="45.87686" lon="3.34446">
        <ele>301</ele>
        <time>2024-05-18T13:59:34Z</time>
      </trkpt>
      <trkpt lat="45.87692" lon="3.34451">
        <ele>301</ele>
        <time>2024-05-18T13:59:35Z</time>
      </trkpt>
      <trkpt lat="45.87698" lon="3.34456">
        <ele>301</ele>
        <time>2024-05-18T13:59:36Z</time>
      </trkpt>
      <trkpt lat="45.87704" lon="3.3446">
        <ele>301</ele>
        <time>2024-05-18T13:59:37Z</time>
      </trkpt>
      <trkpt lat="45.8771" lon="3.34465">
        <ele>301.2</ele>
        <time>2024-05-18T13:59:38Z</time>
      </trkpt>
      <trkpt lat="45.87715" lon="3.3447">
        <ele>301.2</ele>
        <time>2024-05-18T13:59:39Z</time>
      </trkpt>
      <trkpt lat="45.87721" lon="3.34474">
        <ele>301.2</ele>
        <time>2024-05-18T13:59:40Z</time>
      </trkpt>
      <trkpt lat="45.87727" lon="3.3448">
        <ele>301.2</ele>
        <time>2024-05-18T13:59:41Z</time>
      </trkpt>
      <trkpt lat="45.87731" lon="3.34487">
        <ele>301.2</ele>
        <time>2024-05-18T13:59:42Z</time>
      </trkpt>
      <trkpt lat="45.87736" lon="3.34494">
        <ele>301.2</ele>
        <time>2024-05-18T13:59:43Z</time>
      </trkpt>
      <trkpt lat="45.87741" lon="3.34501">
        <ele>301.2</ele>
        <time>2024-05-18T13:59:44Z</time>
      </trkpt>
      <trkpt lat="45.87746" lon="3.34507">
        <ele>301.2</ele>
        <time>2024-05-18T13:59:45Z</time>
      </trkpt>
      <trkpt lat="45.8775" lon="3.34514">
        <ele>301.2</ele>
        <time>2024-05-18T13:59:46Z</time>
      </trkpt>
      <trkpt lat="45.87755" lon="3.34521">
        <ele>301.2</ele>
        <time>2024-05-18T13:59:47Z</time>
      </trkpt>
      <trkpt lat="45.8776" lon="3.34528">
        <ele>301.2</ele>
        <time>2024-05-18T13:59:48Z</time>
      </trkpt>
      <trkpt lat="45.87764" lon="3.34536">
        <ele>301.2</ele>
        <time>2024-05-18T13:59:49Z</time>
      </trkpt>
      <trkpt lat="45.87768" lon="3.34543">
        <ele>301.2</ele>
        <time>2024-05-18T13:59:50Z</time>
      </trkpt>
      <trkpt lat="45.87772" lon="3.34551">
        <ele>301.2</ele>
        <time>2024-05-18T13:59:51Z</time>
      </trkpt>
      <trkpt lat="45.87776" lon="3.34558">
        <ele>301.2</ele>
        <time>2024-05-18T13:59:52Z</time>
      </trkpt>
      <trkpt lat="45.8778" lon="3.34566">
        <ele>301.2</ele>
        <time>2024-05-18T13:59:53Z</time>
      </trkpt>
      <trkpt lat="45.87785" lon="3.34574">
        <ele>301.2</ele>
        <time>2024-05-18T13:59:54Z</time>
      </trkpt>
      <trkpt lat="45.87789" lon="3.34581">
        <ele>301.2</ele>
        <time>2024-05-18T13:59:55Z</time>
      </trkpt>
      <trkpt lat="45.87793" lon="3.34589">
        <ele>301.2</ele>
        <time>2024-05-18T13:59:56Z</time>
      </trkpt>
      <trkpt lat="45.87797" lon="3.34596">
        <ele>301.2</ele>
        <time>2024-05-18T13:59:57Z</time>
      </trkpt>
      <trkpt lat="45.87801" lon="3.34603">
        <ele>301.2</ele>
        <time>2024-05-18T13:59:58Z</time>
      </trkpt>
      <trkpt lat="45.87805" lon="3.34611">
        <ele>301.2</ele>
        <time>2024-05-18T13:59:59Z</time>
      </trkpt>
      <trkpt lat="45.87809" lon="3.34618">
        <ele>301.2</ele>
        <time>2024-05-18T14:00:00Z</time>
      </trkpt>
      <trkpt lat="45.87814" lon="3.34624">
        <ele>301.2</ele>
        <time>2024-05-18T14:00:01Z</time>
      </trkpt>
      <trkpt lat="45.87818" lon="3.34631">
        <ele>301.2</ele>
        <time>2024-05-18T14:00:02Z</time>
      </trkpt>
      <trkpt lat="45.87822" lon="3.34637">
        <ele>301.2</ele>
        <time>2024-05-18T14:00:03Z</time>
      </trkpt>
      <trkpt lat="45.87827" lon="3.34644">
        <ele>301.2</ele>
        <time>2024-05-18T14:00:04Z</time>
      </trkpt>
      <trkpt lat="45.87831" lon="3.34651">
        <ele>301.2</ele>
        <time>2024-05-18T14:00:05Z</time>
      </trkpt>
      <trkpt lat="45.87835" lon="3.34657">
        <ele>301.2</ele>
        <time>2024-05-18T14:00:06Z</time>
      </trkpt>
      <trkpt lat="45.8784" lon="3.34664">
        <ele>301.2</ele>
        <time>2024-05-18T14:00:07Z</time>
      </trkpt>
      <trkpt lat="45.87844" lon="3.34671">
        <ele>301.2</ele>
        <time>2024-05-18T14:00:08Z</time>
      </trkpt>
      <trkpt lat="45.87849" lon="3.34678">
        <ele>301.2</ele>
        <time>2024-05-18T14:00:09Z</time>
      </trkpt>
      <trkpt lat="45.87854" lon="3.34684">
        <ele>301.2</ele>
        <time>2024-05-18T14:00:10Z</time>
      </trkpt>
      <trkpt lat="45.87859" lon="3.3469">
        <ele>301.2</ele>
        <time>2024-05-18T14:00:11Z</time>
      </trkpt>
      <trkpt lat="45.87864" lon="3.34695">
        <ele>301.2</ele>
        <time>2024-05-18T14:00:12Z</time>
      </trkpt>
      <trkpt lat="45.87869" lon="3.34701">
        <ele>301.2</ele>
        <time>2024-05-18T14:00:13Z</time>
      </trkpt>
      <trkpt lat="45.87874" lon="3.34707">
        <ele>301.2</ele>
        <time>2024-05-18T14:00:14Z</time>
      </trkpt>
      <trkpt lat="45.87879" lon="3.34713">
        <ele>301.2</ele>
        <time>2024-05-18T14:00:15Z</time>
      </trkpt>
      <trkpt lat="45.87885" lon="3.34719">
        <ele>301.2</ele>
        <time>2024-05-18T14:00:16Z</time>
      </trkpt>
      <trkpt lat="45.8789" lon="3.34725">
        <ele>301.2</ele>
        <time>2024-05-18T14:00:17Z</time>
      </trkpt>
      <trkpt lat="45.87895" lon="3.34731">
        <ele>301</ele>
        <time>2024-05-18T14:00:18Z</time>
      </trkpt>
      <trkpt lat="45.87901" lon="3.34737">
        <ele>301.2</ele>
        <time>2024-05-18T14:00:19Z</time>
      </trkpt>
      <trkpt lat="45.87906" lon="3.34743">
        <ele>301</ele>
        <time>2024-05-18T14:00:20Z</time>
      </trkpt>
      <trkpt lat="45.87911" lon="3.34749">
        <ele>301</ele>
        <time>2024-05-18T14:00:21Z</time>
      </trkpt>
      <trkpt lat="45.87917" lon="3.34755">
        <ele>301</ele>
        <time>2024-05-18T14:00:22Z</time>
      </trkpt>
      <trkpt lat="45.87922" lon="3.34761">
        <ele>301</ele>
        <time>2024-05-18T14:00:23Z</time>
      </trkpt>
      <trkpt lat="45.87927" lon="3.34767">
        <ele>301</ele>
        <time>2024-05-18T14:00:24Z</time>
      </trkpt>
      <trkpt lat="45.87933" lon="3.34773">
        <ele>301</ele>
        <time>2024-05-18T14:00:25Z</time>
      </trkpt>
      <trkpt lat="45.87938" lon="3.34779">
        <ele>301</ele>
        <time>2024-05-18T14:00:26Z</time>
      </trkpt>
      <trkpt lat="45.87943" lon="3.34785">
        <ele>301</ele>
        <time>2024-05-18T14:00:27Z</time>
      </trkpt>
      <trkpt lat="45.87948" lon="3.34791">
        <ele>301</ele>
        <time>2024-05-18T14:00:28Z</time>
      </trkpt>
      <trkpt lat="45.87954" lon="3.34795">
        <ele>301</ele>
        <time>2024-05-18T14:00:29Z</time>
      </trkpt>
      <trkpt lat="45.87961" lon="3.34798">
        <ele>301</ele>
        <time>2024-05-18T14:00:30Z</time>
      </trkpt>
      <trkpt lat="45.87967" lon="3.34801">
        <ele>301</ele>
        <time>2024-05-18T14:00:31Z</time>
      </trkpt>
      <trkpt lat="45.87974" lon="3.34805">
        <ele>301</ele>
        <time>2024-05-18T14:00:32Z</time>
      </trkpt>
      <trkpt lat="45.8798" lon="3.34808">
        <ele>301</ele>
        <time>2024-05-18T14:00:33Z</time>
      </trkpt>
      <trkpt lat="45.87987" lon="3.34811">
        <ele>301</ele>
        <time>2024-05-18T14:00:34Z</time>
      </trkpt>
      <trkpt lat="45.87993" lon="3.34814">
        <ele>301</ele>
        <time>2024-05-18T14:00:35Z</time>
      </trkpt>
      <trkpt lat="45.88" lon="3.34817">
        <ele>301</ele>
        <time>2024-05-18T14:00:36Z</time>
      </trkpt>
      <trkpt lat="45.88006" lon="3.3482">
        <ele>301</ele>
        <time>2024-05-18T14:00:37Z</time>
      </trkpt>
      <trkpt lat="45.88012" lon="3.34823">
        <ele>301</ele>
        <time>2024-05-18T14:00:38Z</time>
      </trkpt>
      <trkpt lat="45.88018" lon="3.34826">
        <ele>301</ele>
        <time>2024-05-18T14:00:39Z</time>
      </trkpt>
      <trkpt lat="45.88025" lon="3.34829">
        <ele>301</ele>
        <time>2024-05-18T14:00:40Z</time>
      </trkpt>
      <trkpt lat="45.88032" lon="3.34831">
        <ele>300.8</ele>
        <time>2024-05-18T14:00:41Z</time>
      </trkpt>
      <trkpt lat="45.88038" lon="3.34832">
        <ele>300.8</ele>
        <time>2024-05-18T14:00:42Z</time>
      </trkpt>
      <trkpt lat="45.88045" lon="3.34833">
        <ele>300.8</ele>
        <time>2024-05-18T14:00:43Z</time>
      </trkpt>
      <trkpt lat="45.88052" lon="3.34835">
        <ele>300.8</ele>
        <time>2024-05-18T14:00:44Z</time>
      </trkpt>
      <trkpt lat="45.88058" lon="3.34836">
        <ele>300.8</ele>
        <time>2024-05-18T14:00:45Z</time>
      </trkpt>
      <trkpt lat="45.88065" lon="3.34837">
        <ele>300.6</ele>
        <time>2024-05-18T14:00:46Z</time>
      </trkpt>
      <trkpt lat="45.88072" lon="3.34838">
        <ele>300.8</ele>
        <time>2024-05-18T14:00:47Z</time>
      </trkpt>
      <trkpt lat="45.88078" lon="3.3484">
        <ele>300.6</ele>
        <time>2024-05-18T14:00:48Z</time>
      </trkpt>
      <trkpt lat="45.88085" lon="3.34841">
        <ele>300.6</ele>
        <time>2024-05-18T14:00:49Z</time>
      </trkpt>
      <trkpt lat="45.88092" lon="3.34842">
        <ele>300.4</ele>
        <time>2024-05-18T14:00:50Z</time>
      </trkpt>
      <trkpt lat="45.88098" lon="3.34843">
        <ele>300.4</ele>
        <time>2024-05-18T14:00:51Z</time>
      </trkpt>
      <trkpt lat="45.88105" lon="3.34845">
        <ele>300.4</ele>
        <time>2024-05-18T14:00:52Z</time>
      </trkpt>
      <trkpt lat="45.88112" lon="3.34846">
        <ele>300.4</ele>
        <time>2024-05-18T14:00:53Z</time>
      </trkpt>
      <trkpt lat="45.88119" lon="3.34847">
        <ele>300.2</ele>
        <time>2024-05-18T14:00:54Z</time>
      </trkpt>
      <trkpt lat="45.88125" lon="3.34849">
        <ele>300.2</ele>
        <time>2024-05-18T14:00:55Z</time>
      </trkpt>
      <trkpt lat="45.88132" lon="3.3485">
        <ele>300.2</ele>
        <time>2024-05-18T14:00:56Z</time>
      </trkpt>
      <trkpt lat="45.8814" lon="3.34851">
        <ele>300.2</ele>
        <time>2024-05-18T14:00:57Z</time>
      </trkpt>
      <trkpt lat="45.88147" lon="3.34855">
        <ele>300</ele>
        <time>2024-05-18T14:00:58Z</time>
      </trkpt>
      <trkpt lat="45.88154" lon="3.34859">
        <ele>299.8</ele>
        <time>2024-05-18T14:00:59Z</time>
      </trkpt>
      <trkpt lat="45.88162" lon="3.34863">
        <ele>299.8</ele>
        <time>2024-05-18T14:01:00Z</time>
      </trkpt>
      <trkpt lat="45.88168" lon="3.34869">
        <ele>299.6</ele>
        <time>2024-05-18T14:01:01Z</time>
      </trkpt>
      <trkpt lat="45.88174" lon="3.34875">
        <ele>299.6</ele>
        <time>2024-05-18T14:01:02Z</time>
      </trkpt>
      <trkpt lat="45.8818" lon="3.34882">
        <ele>299.6</ele>
        <time>2024-05-18T14:01:03Z</time>
      </trkpt>
      <trkpt lat="45.88186" lon="3.34888">
        <ele>299.4</ele>
        <time>2024-05-18T14:01:04Z</time>
      </trkpt>
      <trkpt lat="45.88191" lon="3.34894">
        <ele>299.4</ele>
        <time>2024-05-18T14:01:05Z</time>
      </trkpt>
      <trkpt lat="45.88197" lon="3.349">
        <ele>299.2</ele>
        <time>2024-05-18T14:01:06Z</time>
      </trkpt>
      <trkpt lat="45.88203" lon="3.34906">
        <ele>299.2</ele>
        <time>2024-05-18T14:01:07Z</time>
      </trkpt>
      <trkpt lat="45.88209" lon="3.34912">
        <ele>299.2</ele>
        <time>2024-05-18T14:01:08Z</time>
      </trkpt>
      <trkpt lat="45.88214" lon="3.34918">
        <ele>299</ele>
        <time>2024-05-18T14:01:09Z</time>
      </trkpt>
      <trkpt lat="45.8822" lon="3.34923">
        <ele>299</ele>
        <time>2024-05-18T14:01:10Z</time>
      </trkpt>
      <trkpt lat="45.88226" lon="3.34929">
        <ele>299</ele>
        <time>2024-05-18T14:01:11Z</time>
      </trkpt>
      <trkpt lat="45.88232" lon="3.34935">
        <ele>299</ele>
        <time>2024-05-18T14:01:12Z</time>
      </trkpt>
      <trkpt lat="45.88237" lon="3.3494">
        <ele>298.8</ele>
        <time>2024-05-18T14:01:13Z</time>
      </trkpt>
      <trkpt lat="45.88243" lon="3.34946">
        <ele>298.8</ele>
        <time>2024-05-18T14:01:14Z</time>
      </trkpt>
      <trkpt lat="45.88249" lon="3.34951">
        <ele>298.8</ele>
        <time>2024-05-18T14:01:15Z</time>
      </trkpt>
      <trkpt lat="45.88255" lon="3.34957">
        <ele>298.6</ele>
        <time>2024-05-18T14:01:16Z</time>
      </trkpt>
      <trkpt lat="45.88261" lon="3.34962">
        <ele>298.6</ele>
        <time>2024-05-18T14:01:17Z</time>
      </trkpt>
      <trkpt lat="45.88267" lon="3.34965">
        <ele>298.6</ele>
        <time>2024-05-18T14:01:18Z</time>
      </trkpt>
      <trkpt lat="45.88273" lon="3.34968">
        <ele>298.6</ele>
        <time>2024-05-18T14:01:19Z</time>
      </trkpt>
      <trkpt lat="45.88279" lon="3.34971">
        <ele>298.6</ele>
        <time>2024-05-18T14:01:20Z</time>
      </trkpt>
      <trkpt lat="45.88285" lon="3.34975">
        <ele>298.6</ele>
        <time>2024-05-18T14:01:21Z</time>
      </trkpt>
      <trkpt lat="45.88291" lon="3.34978">
        <ele>298.6</ele>
        <time>2024-05-18T14:01:22Z</time>
      </trkpt>
      <trkpt lat="45.88298" lon="3.34981">
        <ele>298.4</ele>
        <time>2024-05-18T14:01:23Z</time>
      </trkpt>
      <trkpt lat="45.88304" lon="3.34984">
        <ele>298.4</ele>
        <time>2024-05-18T14:01:24Z</time>
      </trkpt>
      <trkpt lat="45.8831" lon="3.34986">
        <ele>298.4</ele>
        <time>2024-05-18T14:01:25Z</time>
      </trkpt>
      <trkpt lat="45.88317" lon="3.34989">
        <ele>298.4</ele>
        <time>2024-05-18T14:01:26Z</time>
      </trkpt>
      <trkpt lat="45.88323" lon="3.34992">
        <ele>298.2</ele>
        <time>2024-05-18T14:01:27Z</time>
      </trkpt>
      <trkpt lat="45.88329" lon="3.34995">
        <ele>298.2</ele>
        <time>2024-05-18T14:01:28Z</time>
      </trkpt>
      <trkpt lat="45.88336" lon="3.34997">
        <ele>298.2</ele>
        <time>2024-05-18T14:01:29Z</time>
      </trkpt>
      <trkpt lat="45.88342" lon="3.35">
        <ele>298.2</ele>
        <time>2024-05-18T14:01:30Z</time>
      </trkpt>
      <trkpt lat="45.88349" lon="3.35003">
        <ele>298.2</ele>
        <time>2024-05-18T14:01:31Z</time>
      </trkpt>
      <trkpt lat="45.88355" lon="3.35006">
        <ele>298.2</ele>
        <time>2024-05-18T14:01:32Z</time>
      </trkpt>
      <trkpt lat="45.88362" lon="3.35009">
        <ele>298.2</ele>
        <time>2024-05-18T14:01:33Z</time>
      </trkpt>
      <trkpt lat="45.88369" lon="3.35011">
        <ele>298.2</ele>
        <time>2024-05-18T14:01:34Z</time>
      </trkpt>
      <trkpt lat="45.88375" lon="3.35014">
        <ele>298</ele>
        <time>2024-05-18T14:01:35Z</time>
      </trkpt>
      <trkpt lat="45.88382" lon="3.35016">
        <ele>298</ele>
        <time>2024-05-18T14:01:36Z</time>
      </trkpt>
      <trkpt lat="45.88388" lon="3.35017">
        <ele>298</ele>
        <time>2024-05-18T14:01:37Z</time>
      </trkpt>
      <trkpt lat="45.88395" lon="3.35018">
        <ele>298</ele>
        <time>2024-05-18T14:01:38Z</time>
      </trkpt>
      <trkpt lat="45.88402" lon="3.3502">
        <ele>298</ele>
        <time>2024-05-18T14:01:39Z</time>
      </trkpt>
      <trkpt lat="45.88409" lon="3.35021">
        <ele>298</ele>
        <time>2024-05-18T14:01:40Z</time>
      </trkpt>
      <trkpt lat="45.88416" lon="3.35022">
        <ele>298</ele>
        <time>2024-05-18T14:01:41Z</time>
      </trkpt>
      <trkpt lat="45.88422" lon="3.35023">
        <ele>298</ele>
        <time>2024-05-18T14:01:42Z</time>
      </trkpt>
      <trkpt lat="45.88429" lon="3.35024">
        <ele>298</ele>
        <time>2024-05-18T14:01:43Z</time>
      </trkpt>
      <trkpt lat="45.88435" lon="3.35025">
        <ele>297.8</ele>
        <time>2024-05-18T14:01:44Z</time>
      </trkpt>
      <trkpt lat="45.88442" lon="3.35026">
        <ele>298</ele>
        <time>2024-05-18T14:01:45Z</time>
      </trkpt>
      <trkpt lat="45.88449" lon="3.35027">
        <ele>297.8</ele>
        <time>2024-05-18T14:01:46Z</time>
      </trkpt>
      <trkpt lat="45.88456" lon="3.35027">
        <ele>297.8</ele>
        <time>2024-05-18T14:01:47Z</time>
      </trkpt>
      <trkpt lat="45.88463" lon="3.35028">
        <ele>297.8</ele>
        <time>2024-05-18T14:01:48Z</time>
      </trkpt>
      <trkpt lat="45.8847" lon="3.35029">
        <ele>297.6</ele>
        <time>2024-05-18T14:01:49Z</time>
      </trkpt>
      <trkpt lat="45.88476" lon="3.3503">
        <ele>297.6</ele>
        <time>2024-05-18T14:01:50Z</time>
      </trkpt>
      <trkpt lat="45.88483" lon="3.35031">
        <ele>297.6</ele>
        <time>2024-05-18T14:01:51Z</time>
      </trkpt>
      <trkpt lat="45.8849" lon="3.35032">
        <ele>297.4</ele>
        <time>2024-05-18T14:01:52Z</time>
      </trkpt>
      <trkpt lat="45.88497" lon="3.35033">
        <ele>297.4</ele>
        <time>2024-05-18T14:01:53Z</time>
      </trkpt>
      <trkpt lat="45.88504" lon="3.35033">
        <ele>297.4</ele>
        <time>2024-05-18T14:01:54Z</time>
      </trkpt>
      <trkpt lat="45.88511" lon="3.35031">
        <ele>297.2</ele>
        <time>2024-05-18T14:01:55Z</time>
      </trkpt>
      <trkpt lat="45.88518" lon="3.3503">
        <ele>297.2</ele>
        <time>2024-05-18T14:01:56Z</time>
      </trkpt>
      <trkpt lat="45.88525" lon="3.35028">
        <ele>297.2</ele>
        <time>2024-05-18T14:01:57Z</time>
      </trkpt>
      <trkpt lat="45.88532" lon="3.35027">
        <ele>297.2</ele>
        <time>2024-05-18T14:01:58Z</time>
      </trkpt>
      <trkpt lat="45.88539" lon="3.35025">
        <ele>297</ele>
        <time>2024-05-18T14:01:59Z</time>
      </trkpt>
      <trkpt lat="45.88546" lon="3.35024">
        <ele>297</ele>
        <time>2024-05-18T14:02:00Z</time>
      </trkpt>
      <trkpt lat="45.88553" lon="3.35022">
        <ele>296.8</ele>
        <time>2024-05-18T14:02:01Z</time>
      </trkpt>
      <trkpt lat="45.88561" lon="3.35021">
        <ele>296.8</ele>
        <time>2024-05-18T14:02:02Z</time>
      </trkpt>
      <trkpt lat="45.88568" lon="3.35019">
        <ele>296.6</ele>
        <time>2024-05-18T14:02:03Z</time>
      </trkpt>
      <trkpt lat="45.88576" lon="3.35018">
        <ele>296.6</ele>
        <time>2024-05-18T14:02:04Z</time>
      </trkpt>
      <trkpt lat="45.88583" lon="3.35016">
        <ele>296.4</ele>
        <time>2024-05-18T14:02:05Z</time>
      </trkpt>
      <trkpt lat="45.88592" lon="3.35014">
        <ele>296.4</ele>
        <time>2024-05-18T14:02:06Z</time>
      </trkpt>
      <trkpt lat="45.886" lon="3.35012">
        <ele>296.2</ele>
        <time>2024-05-18T14:02:07Z</time>
      </trkpt>
      <trkpt lat="45.88608" lon="3.35011">
        <ele>296</ele>
        <time>2024-05-18T14:02:08Z</time>
      </trkpt>
      <trkpt lat="45.88617" lon="3.35009">
        <ele>296</ele>
        <time>2024-05-18T14:02:09Z</time>
      </trkpt>
      <trkpt lat="45.88626" lon="3.35007">
        <ele>295.8</ele>
        <time>2024-05-18T14:02:10Z</time>
      </trkpt>
      <trkpt lat="45.88634" lon="3.35005">
        <ele>295.8</ele>
        <time>2024-05-18T14:02:11Z</time>
      </trkpt>
      <trkpt lat="45.88643" lon="3.35003">
        <ele>295.6</ele>
        <time>2024-05-18T14:02:12Z</time>
      </trkpt>
      <trkpt lat="45.88651" lon="3.35001">
        <ele>295.4</ele>
        <time>2024-05-18T14:02:13Z</time>
      </trkpt>
      <trkpt lat="45.8866" lon="3.35">
        <ele>295.4</ele>
        <time>2024-05-18T14:02:14Z</time>
      </trkpt>
      <trkpt lat="45.88668" lon="3.34996">
        <ele>295.2</ele>
        <time>2024-05-18T14:02:15Z</time>
      </trkpt>
      <trkpt lat="45.88676" lon="3.34993">
        <ele>295.2</ele>
        <time>2024-05-18T14:02:16Z</time>
      </trkpt>
      <trkpt lat="45.88684" lon="3.34989">
        <ele>295</ele>
        <time>2024-05-18T14:02:17Z</time>
      </trkpt>
      <trkpt lat="45.88692" lon="3.34986">
        <ele>295</ele>
        <time>2024-05-18T14:02:18Z</time>
      </trkpt>
      <trkpt lat="45.887" lon="3.34982">
        <ele>294.8</ele>
        <time>2024-05-18T14:02:19Z</time>
      </trkpt>
      <trkpt lat="45.88707" lon="3.34979">
        <ele>294.8</ele>
        <time>2024-05-18T14:02:20Z</time>
      </trkpt>
      <trkpt lat="45.88715" lon="3.34976">
        <ele>294.8</ele>
        <time>2024-05-18T14:02:21Z</time>
      </trkpt>
      <trkpt lat="45.88722" lon="3.34973">
        <ele>294.6</ele>
        <time>2024-05-18T14:02:22Z</time>
      </trkpt>
      <trkpt lat="45.8873" lon="3.34969">
        <ele>294.6</ele>
        <time>2024-05-18T14:02:23Z</time>
      </trkpt>
      <trkpt lat="45.88737" lon="3.34966">
        <ele>294.6</ele>
        <time>2024-05-18T14:02:24Z</time>
      </trkpt>
      <trkpt lat="45.88745" lon="3.34963">
        <ele>294.4</ele>
        <time>2024-05-18T14:02:25Z</time>
      </trkpt>
      <trkpt lat="45.88752" lon="3.3496">
        <ele>294.4</ele>
        <time>2024-05-18T14:02:26Z</time>
      </trkpt>
      <trkpt lat="45.8876" lon="3.34956">
        <ele>294.4</ele>
        <time>2024-05-18T14:02:27Z</time>
      </trkpt>
      <trkpt lat="45.88767" lon="3.34953">
        <ele>294.2</ele>
        <time>2024-05-18T14:02:28Z</time>
      </trkpt>
      <trkpt lat="45.88774" lon="3.3495">
        <ele>294.2</ele>
        <time>2024-05-18T14:02:29Z</time>
      </trkpt>
      <trkpt lat="45.88782" lon="3.34947">
        <ele>294.2</ele>
        <time>2024-05-18T14:02:30Z</time>
      </trkpt>
      <trkpt lat="45.88789" lon="3.34944">
        <ele>294</ele>
        <time>2024-05-18T14:02:31Z</time>
      </trkpt>
      <trkpt lat="45.88796" lon="3.3494">
        <ele>294</ele>
        <time>2024-05-18T14:02:32Z</time>
      </trkpt>
      <trkpt lat="45.88803" lon="3.34936">
        <ele>294</ele>
        <time>2024-05-18T14:02:33Z</time>
      </trkpt>
      <trkpt lat="45.8881" lon="3.34932">
        <ele>294</ele>
        <time>2024-05-18T14:02:34Z</time>
      </trkpt>
      <trkpt lat="45.88816" lon="3.34927">
        <ele>294</ele>
        <time>2024-05-18T14:02:35Z</time>
      </trkpt>
      <trkpt lat="45.88823" lon="3.34923">
        <ele>293.8</ele>
        <time>2024-05-18T14:02:36Z</time>
      </trkpt>
      <trkpt lat="45.8883" lon="3.34919">
        <ele>293.8</ele>
        <time>2024-05-18T14:02:37Z</time>
      </trkpt>
      <trkpt lat="45.88837" lon="3.34915">
        <ele>293.8</ele>
        <time>2024-05-18T14:02:38Z</time>
      </trkpt>
      <trkpt lat="45.88844" lon="3.34911">
        <ele>293.8</ele>
        <time>2024-05-18T14:02:39Z</time>
      </trkpt>
      <trkpt lat="45.8885" lon="3.34907">
        <ele>293.8</ele>
        <time>2024-05-18T14:02:40Z</time>
      </trkpt>
      <trkpt lat="45.88856" lon="3.34903">
        <ele>293.8</ele>
        <time>2024-05-18T14:02:41Z</time>
      </trkpt>
      <trkpt lat="45.88863" lon="3.34901">
        <ele>293.6</ele>
        <time>2024-05-18T14:02:42Z</time>
      </trkpt>
      <trkpt lat="45.8887" lon="3.34899">
        <ele>293.6</ele>
        <time>2024-05-18T14:02:43Z</time>
      </trkpt>
      <trkpt lat="45.88876" lon="3.34897">
        <ele>293.6</ele>
        <time>2024-05-18T14:02:44Z</time>
      </trkpt>
      <trkpt lat="45.88883" lon="3.34895">
        <ele>293.6</ele>
        <time>2024-05-18T14:02:45Z</time>
      </trkpt>
      <trkpt lat="45.88889" lon="3.34893">
        <ele>293.6</ele>
        <time>2024-05-18T14:02:46Z</time>
      </trkpt>
      <trkpt lat="45.88895" lon="3.34891">
        <ele>293.6</ele>
        <time>2024-05-18T14:02:47Z</time>
      </trkpt>
      <trkpt lat="45.88901" lon="3.3489">
        <ele>293.6</ele>
        <time>2024-05-18T14:02:48Z</time>
      </trkpt>
      <trkpt lat="45.88907" lon="3.34888">
        <ele>293.8</ele>
        <time>2024-05-18T14:02:49Z</time>
      </trkpt>
      <trkpt lat="45.88913" lon="3.34886">
        <ele>293.8</ele>
        <time>2024-05-18T14:02:50Z</time>
      </trkpt>
      <trkpt lat="45.88918" lon="3.34885">
        <ele>293.8</ele>
        <time>2024-05-18T14:02:51Z</time>
      </trkpt>
      <trkpt lat="45.88924" lon="3.34884">
        <ele>293.8</ele>
        <time>2024-05-18T14:02:52Z</time>
      </trkpt>
      <trkpt lat="45.8893" lon="3.34884">
        <ele>293.4</ele>
        <time>2024-05-18T14:02:53Z</time>
      </trkpt>
      <trkpt lat="45.88936" lon="3.34884">
        <ele>293.8</ele>
        <time>2024-05-18T14:02:54Z</time>
      </trkpt>
      <trkpt lat="45.88942" lon="3.34885">
        <ele>294</ele>
        <time>2024-05-18T14:02:55Z</time>
      </trkpt>
      <trkpt lat="45.88948" lon="3.34885">
        <ele>294.4</ele>
        <time>2024-05-18T14:02:56Z</time>
      </trkpt>
      <trkpt lat="45.88953" lon="3.34885">
        <ele>294</ele>
        <time>2024-05-18T14:02:57Z</time>
      </trkpt>
      <trkpt lat="45.88959" lon="3.34888">
        <ele>294.2</ele>
        <time>2024-05-18T14:02:58Z</time>
      </trkpt>
      <trkpt lat="45.88964" lon="3.34891">
        <ele>294.2</ele>
        <time>2024-05-18T14:02:59Z</time>
      </trkpt>
      <trkpt lat="45.88969" lon="3.34894">
        <ele>294.2</ele>
        <time>2024-05-18T14:03:00Z</time>
      </trkpt>
      <trkpt lat="45.88975" lon="3.34896">
        <ele>294.4</ele>
        <time>2024-05-18T14:03:01Z</time>
      </trkpt>
      <trkpt lat="45.8898" lon="3.34899">
        <ele>294.4</ele>
        <time>2024-05-18T14:03:02Z</time>
      </trkpt>
      <trkpt lat="45.88985" lon="3.34902">
        <ele>294.4</ele>
        <time>2024-05-18T14:03:03Z</time>
      </trkpt>
      <trkpt lat="45.8899" lon="3.34905">
        <ele>294.4</ele>
        <time>2024-05-18T14:03:04Z</time>
      </trkpt>
      <trkpt lat="45.88995" lon="3.34908">
        <ele>294.6</ele>
        <time>2024-05-18T14:03:05Z</time>
      </trkpt>
      <trkpt lat="45.89" lon="3.3491">
        <ele>294.6</ele>
        <time>2024-05-18T14:03:06Z</time>
      </trkpt>
      <trkpt lat="45.89006" lon="3.34913">
        <ele>294.6</ele>
        <time>2024-05-18T14:03:07Z</time>
      </trkpt>
      <trkpt lat="45.8901" lon="3.34916">
        <ele>294.8</ele>
        <time>2024-05-18T14:03:08Z</time>
      </trkpt>
      <trkpt lat="45.89015" lon="3.34919">
        <ele>294.8</ele>
        <time>2024-05-18T14:03:09Z</time>
      </trkpt>
      <trkpt lat="45.8902" lon="3.34921">
        <ele>294.8</ele>
        <time>2024-05-18T14:03:10Z</time>
      </trkpt>
      <trkpt lat="45.89025" lon="3.34924">
        <ele>295</ele>
        <time>2024-05-18T14:03:11Z</time>
      </trkpt>
      <trkpt lat="45.8903" lon="3.34927">
        <ele>295</ele>
        <time>2024-05-18T14:03:12Z</time>
      </trkpt>
      <trkpt lat="45.89035" lon="3.34929">
        <ele>295</ele>
        <time>2024-05-18T14:03:13Z</time>
      </trkpt>
      <trkpt lat="45.8904" lon="3.34932">
        <ele>295.2</ele>
        <time>2024-05-18T14:03:14Z</time>
      </trkpt>
      <trkpt lat="45.89044" lon="3.34935">
        <ele>295.2</ele>
        <time>2024-05-18T14:03:15Z</time>
      </trkpt>
      <trkpt lat="45.89049" lon="3.34936">
        <ele>295.2</ele>
        <time>2024-05-18T14:03:16Z</time>
      </trkpt>
      <trkpt lat="45.89055" lon="3.34937">
        <ele>295.2</ele>
        <time>2024-05-18T14:03:17Z</time>
      </trkpt>
      <trkpt lat="45.8906" lon="3.34938">
        <ele>295.4</ele>
        <time>2024-05-18T14:03:18Z</time>
      </trkpt>
      <trkpt lat="45.89065" lon="3.34939">
        <ele>295.4</ele>
        <time>2024-05-18T14:03:19Z</time>
      </trkpt>
      <trkpt lat="45.89071" lon="3.3494">
        <ele>295.4</ele>
        <time>2024-05-18T14:03:20Z</time>
      </trkpt>
      <trkpt lat="45.89076" lon="3.34941">
        <ele>295.6</ele>
        <time>2024-05-18T14:03:21Z</time>
      </trkpt>
      <trkpt lat="45.89082" lon="3.34942">
        <ele>295.6</ele>
        <time>2024-05-18T14:03:22Z</time>
      </trkpt>
      <trkpt lat="45.89088" lon="3.34943">
        <ele>295.6</ele>
        <time>2024-05-18T14:03:23Z</time>
      </trkpt>
      <trkpt lat="45.89093" lon="3.34944">
        <ele>295.8</ele>
        <time>2024-05-18T14:03:24Z</time>
      </trkpt>
      <trkpt lat="45.89099" lon="3.34945">
        <ele>295.8</ele>
        <time>2024-05-18T14:03:25Z</time>
      </trkpt>
      <trkpt lat="45.89104" lon="3.34946">
        <ele>295.8</ele>
        <time>2024-05-18T14:03:26Z</time>
      </trkpt>
      <trkpt lat="45.8911" lon="3.34949">
        <ele>295.8</ele>
        <time>2024-05-18T14:03:27Z</time>
      </trkpt>
      <trkpt lat="45.89116" lon="3.34951">
        <ele>295.8</ele>
        <time>2024-05-18T14:03:28Z</time>
      </trkpt>
      <trkpt lat="45.89122" lon="3.34953">
        <ele>295.8</ele>
        <time>2024-05-18T14:03:29Z</time>
      </trkpt>
      <trkpt lat="45.89128" lon="3.34956">
        <ele>295.8</ele>
        <time>2024-05-18T14:03:30Z</time>
      </trkpt>
      <trkpt lat="45.89134" lon="3.34958">
        <ele>296</ele>
        <time>2024-05-18T14:03:31Z</time>
      </trkpt>
      <trkpt lat="45.8914" lon="3.3496">
        <ele>296</ele>
        <time>2024-05-18T14:03:32Z</time>
      </trkpt>
      <trkpt lat="45.89146" lon="3.34963">
        <ele>296</ele>
        <time>2024-05-18T14:03:33Z</time>
      </trkpt>
      <trkpt lat="45.89152" lon="3.34965">
        <ele>296</ele>
        <time>2024-05-18T14:03:34Z</time>
      </trkpt>
      <trkpt lat="45.89158" lon="3.34968">
        <ele>296</ele>
        <time>2024-05-18T14:03:35Z</time>
      </trkpt>
      <trkpt lat="45.89164" lon="3.3497">
        <ele>296</ele>
        <time>2024-05-18T14:03:36Z</time>
      </trkpt>
      <trkpt lat="45.8917" lon="3.34973">
        <ele>296</ele>
        <time>2024-05-18T14:03:37Z</time>
      </trkpt>
      <trkpt lat="45.89177" lon="3.34975">
        <ele>296</ele>
        <time>2024-05-18T14:03:38Z</time>
      </trkpt>
      <trkpt lat="45.89183" lon="3.34978">
        <ele>295.8</ele>
        <time>2024-05-18T14:03:39Z</time>
      </trkpt>
      <trkpt lat="45.8919" lon="3.3498">
        <ele>296</ele>
        <time>2024-05-18T14:03:40Z</time>
      </trkpt>
      <trkpt lat="45.89196" lon="3.34983">
        <ele>296</ele>
        <time>2024-05-18T14:03:41Z</time>
      </trkpt>
      <trkpt lat="45.89203" lon="3.34986">
        <ele>296</ele>
        <time>2024-05-18T14:03:42Z</time>
      </trkpt>
      <trkpt lat="45.8921" lon="3.34988">
        <ele>296</ele>
        <time>2024-05-18T14:03:43Z</time>
      </trkpt>
      <trkpt lat="45.89217" lon="3.34989">
        <ele>296</ele>
        <time>2024-05-18T14:03:44Z</time>
      </trkpt>
      <trkpt lat="45.89224" lon="3.34989">
        <ele>296</ele>
        <time>2024-05-18T14:03:45Z</time>
      </trkpt>
      <trkpt lat="45.89231" lon="3.3499">
        <ele>296</ele>
        <time>2024-05-18T14:03:46Z</time>
      </trkpt>
      <trkpt lat="45.89238" lon="3.3499">
        <ele>296</ele>
        <time>2024-05-18T14:03:47Z</time>
      </trkpt>
      <trkpt lat="45.89245" lon="3.3499">
        <ele>295.8</ele>
        <time>2024-05-18T14:03:48Z</time>
      </trkpt>
      <trkpt lat="45.89252" lon="3.34991">
        <ele>295.8</ele>
        <time>2024-05-18T14:03:49Z</time>
      </trkpt>
      <trkpt lat="45.8926" lon="3.3499">
        <ele>296</ele>
        <time>2024-05-18T14:03:50Z</time>
      </trkpt>
      <trkpt lat="45.89268" lon="3.34988">
        <ele>295.6</ele>
        <time>2024-05-18T14:03:51Z</time>
      </trkpt>
      <trkpt lat="45.89276" lon="3.34986">
        <ele>295.6</ele>
        <time>2024-05-18T14:03:52Z</time>
      </trkpt>
      <trkpt lat="45.89285" lon="3.34985">
        <ele>295.6</ele>
        <time>2024-05-18T14:03:53Z</time>
      </trkpt>
      <trkpt lat="45.89294" lon="3.34988">
        <ele>295.4</ele>
        <time>2024-05-18T14:03:54Z</time>
      </trkpt>
      <trkpt lat="45.89303" lon="3.34992">
        <ele>295.2</ele>
        <time>2024-05-18T14:03:55Z</time>
      </trkpt>
      <trkpt lat="45.89312" lon="3.34996">
        <ele>295.2</ele>
        <time>2024-05-18T14:03:56Z</time>
      </trkpt>
      <trkpt lat="45.8932" lon="3.35002">
        <ele>295</ele>
        <time>2024-05-18T14:03:57Z</time>
      </trkpt>
      <trkpt lat="45.89328" lon="3.35008">
        <ele>294.8</ele>
        <time>2024-05-18T14:03:58Z</time>
      </trkpt>
      <trkpt lat="45.89336" lon="3.35013">
        <ele>294.8</ele>
        <time>2024-05-18T14:03:59Z</time>
      </trkpt>
      <trkpt lat="45.89344" lon="3.35019">
        <ele>294.6</ele>
        <time>2024-05-18T14:04:00Z</time>
      </trkpt>
      <trkpt lat="45.89353" lon="3.35025">
        <ele>294.6</ele>
        <time>2024-05-18T14:04:01Z</time>
      </trkpt>
      <trkpt lat="45.89361" lon="3.35031">
        <ele>294.4</ele>
        <time>2024-05-18T14:04:02Z</time>
      </trkpt>
      <trkpt lat="45.8937" lon="3.35037">
        <ele>294.4</ele>
        <time>2024-05-18T14:04:03Z</time>
      </trkpt>
      <trkpt lat="45.89378" lon="3.35042">
        <ele>294.2</ele>
        <time>2024-05-18T14:04:04Z</time>
      </trkpt>
      <trkpt lat="45.89385" lon="3.35048">
        <ele>294.2</ele>
        <time>2024-05-18T14:04:05Z</time>
      </trkpt>
      <trkpt lat="45.89393" lon="3.35053">
        <ele>294.2</ele>
        <time>2024-05-18T14:04:06Z</time>
      </trkpt>
      <trkpt lat="45.89401" lon="3.35059">
        <ele>294</ele>
        <time>2024-05-18T14:04:07Z</time>
      </trkpt>
      <trkpt lat="45.89409" lon="3.35064">
        <ele>294</ele>
        <time>2024-05-18T14:04:08Z</time>
      </trkpt>
      <trkpt lat="45.89417" lon="3.3507">
        <ele>293.8</ele>
        <time>2024-05-18T14:04:09Z</time>
      </trkpt>
      <trkpt lat="45.89426" lon="3.35076">
        <ele>293.8</ele>
        <time>2024-05-18T14:04:10Z</time>
      </trkpt>
      <trkpt lat="45.89434" lon="3.35082">
        <ele>293.8</ele>
        <time>2024-05-18T14:04:11Z</time>
      </trkpt>
      <trkpt lat="45.89442" lon="3.35087">
        <ele>293.8</ele>
        <time>2024-05-18T14:04:12Z</time>
      </trkpt>
      <trkpt lat="45.8945" lon="3.35093">
        <ele>293.8</ele>
        <time>2024-05-18T14:04:13Z</time>
      </trkpt>
      <trkpt lat="45.89457" lon="3.35098">
        <ele>293.8</ele>
        <time>2024-05-18T14:04:14Z</time>
      </trkpt>
      <trkpt lat="45.89465" lon="3.35104">
        <ele>293.6</ele>
        <time>2024-05-18T14:04:15Z</time>
      </trkpt>
      <trkpt lat="45.89473" lon="3.35109">
        <ele>293.6</ele>
        <time>2024-05-18T14:04:16Z</time>
      </trkpt>
      <trkpt lat="45.89481" lon="3.35115">
        <ele>293.6</ele>
        <time>2024-05-18T14:04:17Z</time>
      </trkpt>
      <trkpt lat="45.89489" lon="3.3512">
        <ele>293.6</ele>
        <time>2024-05-18T14:04:18Z</time>
      </trkpt>
      <trkpt lat="45.89496" lon="3.35126">
        <ele>293.4</ele>
        <time>2024-05-18T14:04:19Z</time>
      </trkpt>
      <trkpt lat="45.89504" lon="3.35131">
        <ele>293.4</ele>
        <time>2024-05-18T14:04:20Z</time>
      </trkpt>
      <trkpt lat="45.89512" lon="3.35137">
        <ele>293.2</ele>
        <time>2024-05-18T14:04:21Z</time>
      </trkpt>
      <trkpt lat="45.8952" lon="3.35142">
        <ele>293.2</ele>
        <time>2024-05-18T14:04:22Z</time>
      </trkpt>
      <trkpt lat="45.89528" lon="3.35148">
        <ele>293.2</ele>
        <time>2024-05-18T14:04:23Z</time>
      </trkpt>
      <trkpt lat="45.89536" lon="3.35153">
        <ele>293</ele>
        <time>2024-05-18T14:04:24Z</time>
      </trkpt>
      <trkpt lat="45.89544" lon="3.35159">
        <ele>293</ele>
        <time>2024-05-18T14:04:25Z</time>
      </trkpt>
      <trkpt lat="45.89551" lon="3.35167">
        <ele>292.8</ele>
        <time>2024-05-18T14:04:26Z</time>
      </trkpt>
      <trkpt lat="45.89559" lon="3.35174">
        <ele>292.8</ele>
        <time>2024-05-18T14:04:27Z</time>
      </trkpt>
      <trkpt lat="45.89566" lon="3.35181">
        <ele>292.8</ele>
        <time>2024-05-18T14:04:28Z</time>
      </trkpt>
      <trkpt lat="45.89573" lon="3.35188">
        <ele>292.6</ele>
        <time>2024-05-18T14:04:29Z</time>
      </trkpt>
      <trkpt lat="45.8958" lon="3.35195">
        <ele>292.6</ele>
        <time>2024-05-18T14:04:30Z</time>
      </trkpt>
      <trkpt lat="45.89587" lon="3.35202">
        <ele>292.4</ele>
        <time>2024-05-18T14:04:31Z</time>
      </trkpt>
      <trkpt lat="45.89594" lon="3.3521">
        <ele>292.4</ele>
        <time>2024-05-18T14:04:32Z</time>
      </trkpt>
      <trkpt lat="45.89601" lon="3.35217">
        <ele>292.4</ele>
        <time>2024-05-18T14:04:33Z</time>
      </trkpt>
      <trkpt lat="45.89609" lon="3.35224">
        <ele>292.2</ele>
        <time>2024-05-18T14:04:34Z</time>
      </trkpt>
      <trkpt lat="45.89616" lon="3.35231">
        <ele>292.2</ele>
        <time>2024-05-18T14:04:35Z</time>
      </trkpt>
      <trkpt lat="45.89623" lon="3.35239">
        <ele>292</ele>
        <time>2024-05-18T14:04:36Z</time>
      </trkpt>
      <trkpt lat="45.89631" lon="3.35246">
        <ele>292</ele>
        <time>2024-05-18T14:04:37Z</time>
      </trkpt>
      <trkpt lat="45.89638" lon="3.35254">
        <ele>292</ele>
        <time>2024-05-18T14:04:38Z</time>
      </trkpt>
      <trkpt lat="45.89645" lon="3.35262">
        <ele>291.8</ele>
        <time>2024-05-18T14:04:39Z</time>
      </trkpt>
      <trkpt lat="45.89652" lon="3.3527">
        <ele>291.6</ele>
        <time>2024-05-18T14:04:40Z</time>
      </trkpt>
      <trkpt lat="45.89659" lon="3.35279">
        <ele>291.6</ele>
        <time>2024-05-18T14:04:41Z</time>
      </trkpt>
      <trkpt lat="45.89666" lon="3.35287">
        <ele>291.6</ele>
        <time>2024-05-18T14:04:42Z</time>
      </trkpt>
      <trkpt lat="45.89673" lon="3.35295">
        <ele>291.4</ele>
        <time>2024-05-18T14:04:43Z</time>
      </trkpt>
      <trkpt lat="45.8968" lon="3.35303">
        <ele>291.4</ele>
        <time>2024-05-18T14:04:44Z</time>
      </trkpt>
      <trkpt lat="45.89687" lon="3.35312">
        <ele>291.2</ele>
        <time>2024-05-18T14:04:45Z</time>
      </trkpt>
      <trkpt lat="45.89693" lon="3.3532">
        <ele>291.2</ele>
        <time>2024-05-18T14:04:46Z</time>
      </trkpt>
      <trkpt lat="45.897" lon="3.35328">
        <ele>291.2</ele>
        <time>2024-05-18T14:04:47Z</time>
      </trkpt>
      <trkpt lat="45.89707" lon="3.35336">
        <ele>291</ele>
        <time>2024-05-18T14:04:48Z</time>
      </trkpt>
      <trkpt lat="45.89713" lon="3.35344">
        <ele>291</ele>
        <time>2024-05-18T14:04:49Z</time>
      </trkpt>
      <trkpt lat="45.8972" lon="3.35352">
        <ele>291</ele>
        <time>2024-05-18T14:04:50Z</time>
      </trkpt>
      <trkpt lat="45.89726" lon="3.3536">
        <ele>290.8</ele>
        <time>2024-05-18T14:04:51Z</time>
      </trkpt>
      <trkpt lat="45.89733" lon="3.35368">
        <ele>290.8</ele>
        <time>2024-05-18T14:04:52Z</time>
      </trkpt>
      <trkpt lat="45.89739" lon="3.35376">
        <ele>290.8</ele>
        <time>2024-05-18T14:04:53Z</time>
      </trkpt>
      <trkpt lat="45.89745" lon="3.35383">
        <ele>290.8</ele>
        <time>2024-05-18T14:04:54Z</time>
      </trkpt>
      <trkpt lat="45.89751" lon="3.35391">
        <ele>290.8</ele>
        <time>2024-05-18T14:04:55Z</time>
      </trkpt>
      <trkpt lat="45.89757" lon="3.35398">
        <ele>290.8</ele>
        <time>2024-05-18T14:04:56Z</time>
      </trkpt>
      <trkpt lat="45.89763" lon="3.35405">
        <ele>290.8</ele>
        <time>2024-05-18T14:04:57Z</time>
      </trkpt>
      <trkpt lat="45.89768" lon="3.35412">
        <ele>290.8</ele>
        <time>2024-05-18T14:04:58Z</time>
      </trkpt>
      <trkpt lat="45.89774" lon="3.35419">
        <ele>290.8</ele>
        <time>2024-05-18T14:04:59Z</time>
      </trkpt>
      <trkpt lat="45.8978" lon="3.35426">
        <ele>290.8</ele>
        <time>2024-05-18T14:05:00Z</time>
      </trkpt>
      <trkpt lat="45.89785" lon="3.35433">
        <ele>290.8</ele>
        <time>2024-05-18T14:05:01Z</time>
      </trkpt>
      <trkpt lat="45.89791" lon="3.35439">
        <ele>290.8</ele>
        <time>2024-05-18T14:05:02Z</time>
      </trkpt>
      <trkpt lat="45.89796" lon="3.35446">
        <ele>290.8</ele>
        <time>2024-05-18T14:05:03Z</time>
      </trkpt>
      <trkpt lat="45.89802" lon="3.35453">
        <ele>290.8</ele>
        <time>2024-05-18T14:05:04Z</time>
      </trkpt>
      <trkpt lat="45.89807" lon="3.35459">
        <ele>290.8</ele>
        <time>2024-05-18T14:05:05Z</time>
      </trkpt>
      <trkpt lat="45.89813" lon="3.35464">
        <ele>290.8</ele>
        <time>2024-05-18T14:05:06Z</time>
      </trkpt>
      <trkpt lat="45.89819" lon="3.3547">
        <ele>290.8</ele>
        <time>2024-05-18T14:05:07Z</time>
      </trkpt>
      <trkpt lat="45.89825" lon="3.35475">
        <ele>290.8</ele>
        <time>2024-05-18T14:05:08Z</time>
      </trkpt>
      <trkpt lat="45.89831" lon="3.35481">
        <ele>290.8</ele>
        <time>2024-05-18T14:05:09Z</time>
      </trkpt>
      <trkpt lat="45.89837" lon="3.35488">
        <ele>290.8</ele>
        <time>2024-05-18T14:05:10Z</time>
      </trkpt>
      <trkpt lat="45.89844" lon="3.35494">
        <ele>290.8</ele>
        <time>2024-05-18T14:05:11Z</time>
      </trkpt>
      <trkpt lat="45.89851" lon="3.355">
        <ele>290.8</ele>
        <time>2024-05-18T14:05:12Z</time>
      </trkpt>
      <trkpt lat="45.89858" lon="3.35505">
        <ele>290.6</ele>
        <time>2024-05-18T14:05:13Z</time>
      </trkpt>
      <trkpt lat="45.89865" lon="3.3551">
        <ele>290.6</ele>
        <time>2024-05-18T14:05:14Z</time>
      </trkpt>
      <trkpt lat="45.89872" lon="3.35515">
        <ele>290.6</ele>
        <time>2024-05-18T14:05:15Z</time>
      </trkpt>
      <trkpt lat="45.89879" lon="3.3552">
        <ele>290.6</ele>
        <time>2024-05-18T14:05:16Z</time>
      </trkpt>
      <trkpt lat="45.89887" lon="3.35524">
        <ele>290.6</ele>
        <time>2024-05-18T14:05:17Z</time>
      </trkpt>
      <trkpt lat="45.89894" lon="3.3553">
        <ele>290.4</ele>
        <time>2024-05-18T14:05:18Z</time>
      </trkpt>
      <trkpt lat="45.89901" lon="3.35534">
        <ele>290.4</ele>
        <time>2024-05-18T14:05:19Z</time>
      </trkpt>
      <trkpt lat="45.89908" lon="3.35539">
        <ele>290.4</ele>
        <time>2024-05-18T14:05:20Z</time>
      </trkpt>
      <trkpt lat="45.89916" lon="3.35544">
        <ele>290.2</ele>
        <time>2024-05-18T14:05:21Z</time>
      </trkpt>
      <trkpt lat="45.89923" lon="3.35549">
        <ele>290.2</ele>
        <time>2024-05-18T14:05:22Z</time>
      </trkpt>
      <trkpt lat="45.8993" lon="3.35554">
        <ele>290.2</ele>
        <time>2024-05-18T14:05:23Z</time>
      </trkpt>
      <trkpt lat="45.89937" lon="3.35559">
        <ele>290.2</ele>
        <time>2024-05-18T14:05:24Z</time>
      </trkpt>
      <trkpt lat="45.89944" lon="3.35564">
        <ele>290.2</ele>
        <time>2024-05-18T14:05:25Z</time>
      </trkpt>
      <trkpt lat="45.89952" lon="3.35569">
        <ele>290.2</ele>
        <time>2024-05-18T14:05:26Z</time>
      </trkpt>
      <trkpt lat="45.89959" lon="3.35574">
        <ele>290</ele>
        <time>2024-05-18T14:05:27Z</time>
      </trkpt>
      <trkpt lat="45.89967" lon="3.35579">
        <ele>290</ele>
        <time>2024-05-18T14:05:28Z</time>
      </trkpt>
      <trkpt lat="45.89974" lon="3.35584">
        <ele>290</ele>
        <time>2024-05-18T14:05:29Z</time>
      </trkpt>
      <trkpt lat="45.89981" lon="3.35589">
        <ele>290</ele>
        <time>2024-05-18T14:05:30Z</time>
      </trkpt>
      <trkpt lat="45.89988" lon="3.35594">
        <ele>290</ele>
        <time>2024-05-18T14:05:31Z</time>
      </trkpt>
      <trkpt lat="45.89996" lon="3.35599">
        <ele>290</ele>
        <time>2024-05-18T14:05:32Z</time>
      </trkpt>
      <trkpt lat="45.90003" lon="3.35604">
        <ele>289.8</ele>
        <time>2024-05-18T14:05:33Z</time>
      </trkpt>
      <trkpt lat="45.9001" lon="3.35608">
        <ele>289.8</ele>
        <time>2024-05-18T14:05:34Z</time>
      </trkpt>
      <trkpt lat="45.90018" lon="3.35614">
        <ele>289.6</ele>
        <time>2024-05-18T14:05:35Z</time>
      </trkpt>
      <trkpt lat="45.90025" lon="3.35619">
        <ele>289.6</ele>
        <time>2024-05-18T14:05:36Z</time>
      </trkpt>
      <trkpt lat="45.90032" lon="3.35623">
        <ele>289.6</ele>
        <time>2024-05-18T14:05:37Z</time>
      </trkpt>
      <trkpt lat="45.9004" lon="3.35628">
        <ele>289.6</ele>
        <time>2024-05-18T14:05:38Z</time>
      </trkpt>
      <trkpt lat="45.90047" lon="3.35633">
        <ele>289.6</ele>
        <time>2024-05-18T14:05:39Z</time>
      </trkpt>
      <trkpt lat="45.90054" lon="3.35638">
        <ele>289.4</ele>
        <time>2024-05-18T14:05:40Z</time>
      </trkpt>
      <trkpt lat="45.90061" lon="3.35643">
        <ele>289.6</ele>
        <time>2024-05-18T14:05:41Z</time>
      </trkpt>
      <trkpt lat="45.90068" lon="3.35648">
        <ele>289.4</ele>
        <time>2024-05-18T14:05:42Z</time>
      </trkpt>
      <trkpt lat="45.90074" lon="3.35652">
        <ele>289.4</ele>
        <time>2024-05-18T14:05:43Z</time>
      </trkpt>
      <trkpt lat="45.90081" lon="3.35657">
        <ele>289.4</ele>
        <time>2024-05-18T14:05:44Z</time>
      </trkpt>
      <trkpt lat="45.90089" lon="3.35662">
        <ele>289.2</ele>
        <time>2024-05-18T14:05:45Z</time>
      </trkpt>
      <trkpt lat="45.90096" lon="3.35667">
        <ele>289.2</ele>
        <time>2024-05-18T14:05:46Z</time>
      </trkpt>
      <trkpt lat="45.90103" lon="3.35672">
        <ele>289.2</ele>
        <time>2024-05-18T14:05:47Z</time>
      </trkpt>
      <trkpt lat="45.90111" lon="3.35677">
        <ele>289</ele>
        <time>2024-05-18T14:05:48Z</time>
      </trkpt>
      <trkpt lat="45.90118" lon="3.35682">
        <ele>289</ele>
        <time>2024-05-18T14:05:49Z</time>
      </trkpt>
      <trkpt lat="45.90125" lon="3.35687">
        <ele>289</ele>
        <time>2024-05-18T14:05:50Z</time>
      </trkpt>
      <trkpt lat="45.90132" lon="3.35691">
        <ele>289</ele>
        <time>2024-05-18T14:05:51Z</time>
      </trkpt>
      <trkpt lat="45.90139" lon="3.35696">
        <ele>289</ele>
        <time>2024-05-18T14:05:52Z</time>
      </trkpt>
      <trkpt lat="45.90146" lon="3.35701">
        <ele>288.8</ele>
        <time>2024-05-18T14:05:53Z</time>
      </trkpt>
      <trkpt lat="45.90153" lon="3.35706">
        <ele>288.8</ele>
        <time>2024-05-18T14:05:54Z</time>
      </trkpt>
      <trkpt lat="45.90161" lon="3.35711">
        <ele>288.8</ele>
        <time>2024-05-18T14:05:55Z</time>
      </trkpt>
      <trkpt lat="45.90168" lon="3.35716">
        <ele>288.8</ele>
        <time>2024-05-18T14:05:56Z</time>
      </trkpt>
      <trkpt lat="45.90175" lon="3.35722">
        <ele>288.6</ele>
        <time>2024-05-18T14:05:57Z</time>
      </trkpt>
      <trkpt lat="45.90181" lon="3.35727">
        <ele>288.6</ele>
        <time>2024-05-18T14:05:58Z</time>
      </trkpt>
      <trkpt lat="45.90188" lon="3.35732">
        <ele>288.6</ele>
        <time>2024-05-18T14:05:59Z</time>
      </trkpt>
      <trkpt lat="45.90195" lon="3.35737">
        <ele>288.6</ele>
        <time>2024-05-18T14:06:00Z</time>
      </trkpt>
      <trkpt lat="45.90202" lon="3.35743">
        <ele>288.4</ele>
        <time>2024-05-18T14:06:01Z</time>
      </trkpt>
      <trkpt lat="45.90208" lon="3.35748">
        <ele>288.4</ele>
        <time>2024-05-18T14:06:02Z</time>
      </trkpt>
      <trkpt lat="45.90214" lon="3.35755">
        <ele>288.4</ele>
        <time>2024-05-18T14:06:03Z</time>
      </trkpt>
      <trkpt lat="45.9022" lon="3.35762">
        <ele>288.2</ele>
        <time>2024-05-18T14:06:04Z</time>
      </trkpt>
      <trkpt lat="45.90227" lon="3.35768">
        <ele>288.2</ele>
        <time>2024-05-18T14:06:05Z</time>
      </trkpt>
      <trkpt lat="45.90233" lon="3.35774">
        <ele>288.2</ele>
        <time>2024-05-18T14:06:06Z</time>
      </trkpt>
      <trkpt lat="45.90239" lon="3.35781">
        <ele>288.2</ele>
        <time>2024-05-18T14:06:07Z</time>
      </trkpt>
      <trkpt lat="45.90244" lon="3.35789">
        <ele>288.2</ele>
        <time>2024-05-18T14:06:08Z</time>
      </trkpt>
      <trkpt lat="45.90248" lon="3.35797">
        <ele>288.2</ele>
        <time>2024-05-18T14:06:09Z</time>
      </trkpt>
      <trkpt lat="45.90253" lon="3.35805">
        <ele>288.2</ele>
        <time>2024-05-18T14:06:10Z</time>
      </trkpt>
      <trkpt lat="45.90258" lon="3.35813">
        <ele>288</ele>
        <time>2024-05-18T14:06:11Z</time>
      </trkpt>
      <trkpt lat="45.90262" lon="3.35821">
        <ele>288</ele>
        <time>2024-05-18T14:06:12Z</time>
      </trkpt>
      <trkpt lat="45.90267" lon="3.3583">
        <ele>288</ele>
        <time>2024-05-18T14:06:13Z</time>
      </trkpt>
      <trkpt lat="45.90271" lon="3.35838">
        <ele>288</ele>
        <time>2024-05-18T14:06:14Z</time>
      </trkpt>
      <trkpt lat="45.90276" lon="3.35846">
        <ele>288</ele>
        <time>2024-05-18T14:06:15Z</time>
      </trkpt>
      <trkpt lat="45.90281" lon="3.35854">
        <ele>287.8</ele>
        <time>2024-05-18T14:06:16Z</time>
      </trkpt>
      <trkpt lat="45.90285" lon="3.35862">
        <ele>287.8</ele>
        <time>2024-05-18T14:06:17Z</time>
      </trkpt>
      <trkpt lat="45.9029" lon="3.35871">
        <ele>287.8</ele>
        <time>2024-05-18T14:06:18Z</time>
      </trkpt>
      <trkpt lat="45.90295" lon="3.35879">
        <ele>287.8</ele>
        <time>2024-05-18T14:06:19Z</time>
      </trkpt>
      <trkpt lat="45.90299" lon="3.35887">
        <ele>287.8</ele>
        <time>2024-05-18T14:06:20Z</time>
      </trkpt>
      <trkpt lat="45.90304" lon="3.35895">
        <ele>287.8</ele>
        <time>2024-05-18T14:06:21Z</time>
      </trkpt>
      <trkpt lat="45.90309" lon="3.35904">
        <ele>287.8</ele>
        <time>2024-05-18T14:06:22Z</time>
      </trkpt>
      <trkpt lat="45.90313" lon="3.35912">
        <ele>287.8</ele>
        <time>2024-05-18T14:06:23Z</time>
      </trkpt>
      <trkpt lat="45.90318" lon="3.3592">
        <ele>287.8</ele>
        <time>2024-05-18T14:06:24Z</time>
      </trkpt>
      <trkpt lat="45.90323" lon="3.35928">
        <ele>287.8</ele>
        <time>2024-05-18T14:06:25Z</time>
      </trkpt>
      <trkpt lat="45.90327" lon="3.35936">
        <ele>287.6</ele>
        <time>2024-05-18T14:06:26Z</time>
      </trkpt>
      <trkpt lat="45.90332" lon="3.35945">
        <ele>287.6</ele>
        <time>2024-05-18T14:06:27Z</time>
      </trkpt>
      <trkpt lat="45.90336" lon="3.35952">
        <ele>287.6</ele>
        <time>2024-05-18T14:06:28Z</time>
      </trkpt>
      <trkpt lat="45.90341" lon="3.3596">
        <ele>287.6</ele>
        <time>2024-05-18T14:06:29Z</time>
      </trkpt>
      <trkpt lat="45.90345" lon="3.35969">
        <ele>287.6</ele>
        <time>2024-05-18T14:06:30Z</time>
      </trkpt>
      <trkpt lat="45.9035" lon="3.35977">
        <ele>287.4</ele>
        <time>2024-05-18T14:06:31Z</time>
      </trkpt>
      <trkpt lat="45.90354" lon="3.35984">
        <ele>287.4</ele>
        <time>2024-05-18T14:06:32Z</time>
      </trkpt>
      <trkpt lat="45.90359" lon="3.35992">
        <ele>287.4</ele>
        <time>2024-05-18T14:06:33Z</time>
      </trkpt>
      <trkpt lat="45.90363" lon="3.36001">
        <ele>287.4</ele>
        <time>2024-05-18T14:06:34Z</time>
      </trkpt>
      <trkpt lat="45.90368" lon="3.36009">
        <ele>287.4</ele>
        <time>2024-05-18T14:06:35Z</time>
      </trkpt>
      <trkpt lat="45.90372" lon="3.36017">
        <ele>287.2</ele>
        <time>2024-05-18T14:06:36Z</time>
      </trkpt>
      <trkpt lat="45.90377" lon="3.36025">
        <ele>287.2</ele>
        <time>2024-05-18T14:06:37Z</time>
      </trkpt>
      <trkpt lat="45.90381" lon="3.36034">
        <ele>287.2</ele>
        <time>2024-05-18T14:06:38Z</time>
      </trkpt>
      <trkpt lat="45.90385" lon="3.36043">
        <ele>287.2</ele>
        <time>2024-05-18T14:06:39Z</time>
      </trkpt>
      <trkpt lat="45.90389" lon="3.36051">
        <ele>287</ele>
        <time>2024-05-18T14:06:40Z</time>
      </trkpt>
      <trkpt lat="45.90393" lon="3.3606">
        <ele>287</ele>
        <time>2024-05-18T14:06:41Z</time>
      </trkpt>
      <trkpt lat="45.90398" lon="3.36069">
        <ele>287</ele>
        <time>2024-05-18T14:06:42Z</time>
      </trkpt>
      <trkpt lat="45.90402" lon="3.36077">
        <ele>287</ele>
        <time>2024-05-18T14:06:43Z</time>
      </trkpt>
      <trkpt lat="45.90406" lon="3.36086">
        <ele>287</ele>
        <time>2024-05-18T14:06:44Z</time>
      </trkpt>
      <trkpt lat="45.9041" lon="3.36094">
        <ele>286.8</ele>
        <time>2024-05-18T14:06:45Z</time>
      </trkpt>
      <trkpt lat="45.90414" lon="3.36102">
        <ele>286.8</ele>
        <time>2024-05-18T14:06:46Z</time>
      </trkpt>
      <trkpt lat="45.90418" lon="3.36111">
        <ele>286.8</ele>
        <time>2024-05-18T14:06:47Z</time>
      </trkpt>
      <trkpt lat="45.90421" lon="3.36121">
        <ele>286.8</ele>
        <time>2024-05-18T14:06:48Z</time>
      </trkpt>
      <trkpt lat="45.90421" lon="3.3613">
        <ele>286.8</ele>
        <time>2024-05-18T14:06:49Z</time>
      </trkpt>
      <trkpt lat="45.90421" lon="3.3614">
        <ele>286.8</ele>
        <time>2024-05-18T14:06:50Z</time>
      </trkpt>
      <trkpt lat="45.90422" lon="3.3615">
        <ele>286.8</ele>
        <time>2024-05-18T14:06:51Z</time>
      </trkpt>
      <trkpt lat="45.90422" lon="3.3616">
        <ele>286.8</ele>
        <time>2024-05-18T14:06:52Z</time>
      </trkpt>
      <trkpt lat="45.90422" lon="3.36169">
        <ele>286.8</ele>
        <time>2024-05-18T14:06:53Z</time>
      </trkpt>
      <trkpt lat="45.90422" lon="3.36179">
        <ele>286.8</ele>
        <time>2024-05-18T14:06:54Z</time>
      </trkpt>
      <trkpt lat="45.90421" lon="3.36189">
        <ele>286.8</ele>
        <time>2024-05-18T14:06:55Z</time>
      </trkpt>
      <trkpt lat="45.9042" lon="3.36198">
        <ele>286.8</ele>
        <time>2024-05-18T14:06:56Z</time>
      </trkpt>
      <trkpt lat="45.90419" lon="3.36208">
        <ele>286.8</ele>
        <time>2024-05-18T14:06:57Z</time>
      </trkpt>
      <trkpt lat="45.90418" lon="3.36217">
        <ele>286.8</ele>
        <time>2024-05-18T14:06:58Z</time>
      </trkpt>
      <trkpt lat="45.90417" lon="3.36226">
        <ele>286.8</ele>
        <time>2024-05-18T14:06:59Z</time>
      </trkpt>
      <trkpt lat="45.90416" lon="3.36236">
        <ele>286.8</ele>
        <time>2024-05-18T14:07:00Z</time>
      </trkpt>
      <trkpt lat="45.90415" lon="3.36245">
        <ele>286.8</ele>
        <time>2024-05-18T14:07:01Z</time>
      </trkpt>
      <trkpt lat="45.90414" lon="3.36255">
        <ele>286.8</ele>
        <time>2024-05-18T14:07:02Z</time>
      </trkpt>
      <trkpt lat="45.90413" lon="3.36264">
        <ele>286.8</ele>
        <time>2024-05-18T14:07:03Z</time>
      </trkpt>
      <trkpt lat="45.90412" lon="3.36273">
        <ele>286.8</ele>
        <time>2024-05-18T14:07:04Z</time>
      </trkpt>
      <trkpt lat="45.90411" lon="3.36282">
        <ele>286.6</ele>
        <time>2024-05-18T14:07:05Z</time>
      </trkpt>
      <trkpt lat="45.9041" lon="3.36291">
        <ele>286.6</ele>
        <time>2024-05-18T14:07:06Z</time>
      </trkpt>
      <trkpt lat="45.90409" lon="3.36299">
        <ele>286.6</ele>
        <time>2024-05-18T14:07:07Z</time>
      </trkpt>
      <trkpt lat="45.90408" lon="3.36308">
        <ele>286.6</ele>
        <time>2024-05-18T14:07:08Z</time>
      </trkpt>
      <trkpt lat="45.90408" lon="3.36316">
        <ele>286.8</ele>
        <time>2024-05-18T14:07:09Z</time>
      </trkpt>
      <trkpt lat="45.90409" lon="3.36324">
        <ele>286.8</ele>
        <time>2024-05-18T14:07:10Z</time>
      </trkpt>
      <trkpt lat="45.90409" lon="3.36333">
        <ele>287</ele>
        <time>2024-05-18T14:07:11Z</time>
      </trkpt>
      <trkpt lat="45.9041" lon="3.36342">
        <ele>287</ele>
        <time>2024-05-18T14:07:12Z</time>
      </trkpt>
      <trkpt lat="45.90411" lon="3.3635">
        <ele>287</ele>
        <time>2024-05-18T14:07:13Z</time>
      </trkpt>
      <trkpt lat="45.90411" lon="3.36359">
        <ele>287</ele>
        <time>2024-05-18T14:07:14Z</time>
      </trkpt>
      <trkpt lat="45.90412" lon="3.36367">
        <ele>287</ele>
        <time>2024-05-18T14:07:15Z</time>
      </trkpt>
      <trkpt lat="45.90414" lon="3.36376">
        <ele>287</ele>
        <time>2024-05-18T14:07:16Z</time>
      </trkpt>
      <trkpt lat="45.90417" lon="3.36383">
        <ele>287</ele>
        <time>2024-05-18T14:07:17Z</time>
      </trkpt>
      <trkpt lat="45.9042" lon="3.36391">
        <ele>287</ele>
        <time>2024-05-18T14:07:18Z</time>
      </trkpt>
      <trkpt lat="45.90423" lon="3.36399">
        <ele>287</ele>
        <time>2024-05-18T14:07:19Z</time>
      </trkpt>
      <trkpt lat="45.90425" lon="3.36407">
        <ele>287</ele>
        <time>2024-05-18T14:07:20Z</time>
      </trkpt>
      <trkpt lat="45.90428" lon="3.36415">
        <ele>287.2</ele>
        <time>2024-05-18T14:07:21Z</time>
      </trkpt>
      <trkpt lat="45.9043" lon="3.36422">
        <ele>287.2</ele>
        <time>2024-05-18T14:07:22Z</time>
      </trkpt>
      <trkpt lat="45.90433" lon="3.3643">
        <ele>287.2</ele>
        <time>2024-05-18T14:07:23Z</time>
      </trkpt>
      <trkpt lat="45.90436" lon="3.36437">
        <ele>287.2</ele>
        <time>2024-05-18T14:07:24Z</time>
      </trkpt>
      <trkpt lat="45.90438" lon="3.36445">
        <ele>287.4</ele>
        <time>2024-05-18T14:07:25Z</time>
      </trkpt>
      <trkpt lat="45.90441" lon="3.36452">
        <ele>287.4</ele>
        <time>2024-05-18T14:07:26Z</time>
      </trkpt>
      <trkpt lat="45.90443" lon="3.36459">
        <ele>287.4</ele>
        <time>2024-05-18T14:07:27Z</time>
      </trkpt>
      <trkpt lat="45.90446" lon="3.36467">
        <ele>287.4</ele>
        <time>2024-05-18T14:07:28Z</time>
      </trkpt>
      <trkpt lat="45.90449" lon="3.36475">
        <ele>287.4</ele>
        <time>2024-05-18T14:07:29Z</time>
      </trkpt>
      <trkpt lat="45.90452" lon="3.36482">
        <ele>287.6</ele>
        <time>2024-05-18T14:07:30Z</time>
      </trkpt>
      <trkpt lat="45.90456" lon="3.36488">
        <ele>287.6</ele>
        <time>2024-05-18T14:07:31Z</time>
      </trkpt>
      <trkpt lat="45.9046" lon="3.36494">
        <ele>287.6</ele>
        <time>2024-05-18T14:07:32Z</time>
      </trkpt>
      <trkpt lat="45.90464" lon="3.36501">
        <ele>287.6</ele>
        <time>2024-05-18T14:07:33Z</time>
      </trkpt>
      <trkpt lat="45.90468" lon="3.36507">
        <ele>287.6</ele>
        <time>2024-05-18T14:07:34Z</time>
      </trkpt>
      <trkpt lat="45.90473" lon="3.36514">
        <ele>287.8</ele>
        <time>2024-05-18T14:07:35Z</time>
      </trkpt>
      <trkpt lat="45.90477" lon="3.3652">
        <ele>287.8</ele>
        <time>2024-05-18T14:07:36Z</time>
      </trkpt>
      <trkpt lat="45.90481" lon="3.36527">
        <ele>287.8</ele>
        <time>2024-05-18T14:07:37Z</time>
      </trkpt>
      <trkpt lat="45.90486" lon="3.36533">
        <ele>287.8</ele>
        <time>2024-05-18T14:07:38Z</time>
      </trkpt>
      <trkpt lat="45.9049" lon="3.36539">
        <ele>288</ele>
        <time>2024-05-18T14:07:39Z</time>
      </trkpt>
      <trkpt lat="45.90495" lon="3.36545">
        <ele>288</ele>
        <time>2024-05-18T14:07:40Z</time>
      </trkpt>
      <trkpt lat="45.905" lon="3.36552">
        <ele>288</ele>
        <time>2024-05-18T14:07:41Z</time>
      </trkpt>
      <trkpt lat="45.90504" lon="3.36558">
        <ele>288</ele>
        <time>2024-05-18T14:07:42Z</time>
      </trkpt>
      <trkpt lat="45.90509" lon="3.36565">
        <ele>288</ele>
        <time>2024-05-18T14:07:43Z</time>
      </trkpt>
      <trkpt lat="45.90514" lon="3.36571">
        <ele>288</ele>
        <time>2024-05-18T14:07:44Z</time>
      </trkpt>
      <trkpt lat="45.90519" lon="3.36578">
        <ele>288</ele>
        <time>2024-05-18T14:07:45Z</time>
      </trkpt>
      <trkpt lat="45.90523" lon="3.36584">
        <ele>288</ele>
        <time>2024-05-18T14:07:46Z</time>
      </trkpt>
      <trkpt lat="45.90528" lon="3.3659">
        <ele>288.2</ele>
        <time>2024-05-18T14:07:47Z</time>
      </trkpt>
      <trkpt lat="45.90533" lon="3.36597">
        <ele>288.2</ele>
        <time>2024-05-18T14:07:48Z</time>
      </trkpt>
      <trkpt lat="45.90537" lon="3.36603">
        <ele>288.2</ele>
        <time>2024-05-18T14:07:49Z</time>
      </trkpt>
      <trkpt lat="45.90542" lon="3.3661">
        <ele>288.2</ele>
        <time>2024-05-18T14:07:50Z</time>
      </trkpt>
      <trkpt lat="45.90547" lon="3.36617">
        <ele>288.2</ele>
        <time>2024-05-18T14:07:51Z</time>
      </trkpt>
      <trkpt lat="45.90552" lon="3.36623">
        <ele>288.2</ele>
        <time>2024-05-18T14:07:52Z</time>
      </trkpt>
      <trkpt lat="45.90556" lon="3.36629">
        <ele>288.2</ele>
        <time>2024-05-18T14:07:53Z</time>
      </trkpt>
      <trkpt lat="45.90561" lon="3.36636">
        <ele>288.2</ele>
        <time>2024-05-18T14:07:54Z</time>
      </trkpt>
      <trkpt lat="45.90566" lon="3.36642">
        <ele>288.2</ele>
        <time>2024-05-18T14:07:55Z</time>
      </trkpt>
      <trkpt lat="45.90571" lon="3.36649">
        <ele>288.2</ele>
        <time>2024-05-18T14:07:56Z</time>
      </trkpt>
      <trkpt lat="45.90575" lon="3.36655">
        <ele>288.2</ele>
        <time>2024-05-18T14:07:57Z</time>
      </trkpt>
      <trkpt lat="45.9058" lon="3.36662">
        <ele>288.2</ele>
        <time>2024-05-18T14:07:58Z</time>
      </trkpt>
      <trkpt lat="45.90585" lon="3.36668">
        <ele>288.2</ele>
        <time>2024-05-18T14:07:59Z</time>
      </trkpt>
      <trkpt lat="45.9059" lon="3.36675">
        <ele>288.2</ele>
        <time>2024-05-18T14:08:00Z</time>
      </trkpt>
      <trkpt lat="45.90594" lon="3.36681">
        <ele>288.2</ele>
        <time>2024-05-18T14:08:01Z</time>
      </trkpt>
      <trkpt lat="45.906" lon="3.36688">
        <ele>288.2</ele>
        <time>2024-05-18T14:08:02Z</time>
      </trkpt>
      <trkpt lat="45.90605" lon="3.36695">
        <ele>288.2</ele>
        <time>2024-05-18T14:08:03Z</time>
      </trkpt>
      <trkpt lat="45.90609" lon="3.36702">
        <ele>288.2</ele>
        <time>2024-05-18T14:08:04Z</time>
      </trkpt>
      <trkpt lat="45.90614" lon="3.36708">
        <ele>288.2</ele>
        <time>2024-05-18T14:08:05Z</time>
      </trkpt>
      <trkpt lat="45.90619" lon="3.36715">
        <ele>288.2</ele>
        <time>2024-05-18T14:08:06Z</time>
      </trkpt>
      <trkpt lat="45.90624" lon="3.36722">
        <ele>288.2</ele>
        <time>2024-05-18T14:08:07Z</time>
      </trkpt>
      <trkpt lat="45.90629" lon="3.36729">
        <ele>288.2</ele>
        <time>2024-05-18T14:08:08Z</time>
      </trkpt>
      <trkpt lat="45.90634" lon="3.36735">
        <ele>288.2</ele>
        <time>2024-05-18T14:08:09Z</time>
      </trkpt>
      <trkpt lat="45.90638" lon="3.36741">
        <ele>288.2</ele>
        <time>2024-05-18T14:08:10Z</time>
      </trkpt>
      <trkpt lat="45.90643" lon="3.36747">
        <ele>288.2</ele>
        <time>2024-05-18T14:08:11Z</time>
      </trkpt>
      <trkpt lat="45.90647" lon="3.36754">
        <ele>288.2</ele>
        <time>2024-05-18T14:08:12Z</time>
      </trkpt>
      <trkpt lat="45.90652" lon="3.3676">
        <ele>288.2</ele>
        <time>2024-05-18T14:08:13Z</time>
      </trkpt>
      <trkpt lat="45.90658" lon="3.36766">
        <ele>288.2</ele>
        <time>2024-05-18T14:08:14Z</time>
      </trkpt>
      <trkpt lat="45.90663" lon="3.3677">
        <ele>288.2</ele>
        <time>2024-05-18T14:08:15Z</time>
      </trkpt>
      <trkpt lat="45.90669" lon="3.36775">
        <ele>288.2</ele>
        <time>2024-05-18T14:08:16Z</time>
      </trkpt>
      <trkpt lat="45.90675" lon="3.36779">
        <ele>288.2</ele>
        <time>2024-05-18T14:08:17Z</time>
      </trkpt>
      <trkpt lat="45.9068" lon="3.36783">
        <ele>288.4</ele>
        <time>2024-05-18T14:08:18Z</time>
      </trkpt>
      <trkpt lat="45.90685" lon="3.36788">
        <ele>288.4</ele>
        <time>2024-05-18T14:08:19Z</time>
      </trkpt>
      <trkpt lat="45.90691" lon="3.3679">
        <ele>288.6</ele>
        <time>2024-05-18T14:08:20Z</time>
      </trkpt>
      <trkpt lat="45.90697" lon="3.36791">
        <ele>288.6</ele>
        <time>2024-05-18T14:08:21Z</time>
      </trkpt>
      <trkpt lat="45.90703" lon="3.36793">
        <ele>288.6</ele>
        <time>2024-05-18T14:08:22Z</time>
      </trkpt>
      <trkpt lat="45.9071" lon="3.36794">
        <ele>288.6</ele>
        <time>2024-05-18T14:08:23Z</time>
      </trkpt>
      <trkpt lat="45.90716" lon="3.36796">
        <ele>288.6</ele>
        <time>2024-05-18T14:08:24Z</time>
      </trkpt>
      <trkpt lat="45.90723" lon="3.36797">
        <ele>288.8</ele>
        <time>2024-05-18T14:08:25Z</time>
      </trkpt>
      <trkpt lat="45.90729" lon="3.36798">
        <ele>288.8</ele>
        <time>2024-05-18T14:08:26Z</time>
      </trkpt>
      <trkpt lat="45.90736" lon="3.368">
        <ele>288.8</ele>
        <time>2024-05-18T14:08:27Z</time>
      </trkpt>
      <trkpt lat="45.90743" lon="3.36801">
        <ele>288.8</ele>
        <time>2024-05-18T14:08:28Z</time>
      </trkpt>
      <trkpt lat="45.90749" lon="3.36803">
        <ele>288.8</ele>
        <time>2024-05-18T14:08:29Z</time>
      </trkpt>
      <trkpt lat="45.90756" lon="3.36804">
        <ele>288.8</ele>
        <time>2024-05-18T14:08:30Z</time>
      </trkpt>
      <trkpt lat="45.90763" lon="3.36806">
        <ele>288.8</ele>
        <time>2024-05-18T14:08:31Z</time>
      </trkpt>
      <trkpt lat="45.9077" lon="3.36807">
        <ele>288.8</ele>
        <time>2024-05-18T14:08:32Z</time>
      </trkpt>
      <trkpt lat="45.90777" lon="3.36809">
        <ele>288.8</ele>
        <time>2024-05-18T14:08:33Z</time>
      </trkpt>
      <trkpt lat="45.90783" lon="3.36811">
        <ele>288.8</ele>
        <time>2024-05-18T14:08:34Z</time>
      </trkpt>
      <trkpt lat="45.9079" lon="3.36812">
        <ele>288.8</ele>
        <time>2024-05-18T14:08:35Z</time>
      </trkpt>
      <trkpt lat="45.90797" lon="3.36814">
        <ele>288.8</ele>
        <time>2024-05-18T14:08:36Z</time>
      </trkpt>
      <trkpt lat="45.90804" lon="3.36815">
        <ele>288.8</ele>
        <time>2024-05-18T14:08:37Z</time>
      </trkpt>
      <trkpt lat="45.9081" lon="3.36817">
        <ele>288.8</ele>
        <time>2024-05-18T14:08:38Z</time>
      </trkpt>
      <trkpt lat="45.90817" lon="3.36818">
        <ele>288.8</ele>
        <time>2024-05-18T14:08:39Z</time>
      </trkpt>
      <trkpt lat="45.90824" lon="3.3682">
        <ele>288.8</ele>
        <time>2024-05-18T14:08:40Z</time>
      </trkpt>
      <trkpt lat="45.9083" lon="3.36821">
        <ele>288.8</ele>
        <time>2024-05-18T14:08:41Z</time>
      </trkpt>
      <trkpt lat="45.90837" lon="3.36821">
        <ele>288.8</ele>
        <time>2024-05-18T14:08:42Z</time>
      </trkpt>
      <trkpt lat="45.90844" lon="3.36821">
        <ele>288.8</ele>
        <time>2024-05-18T14:08:43Z</time>
      </trkpt>
      <trkpt lat="45.90851" lon="3.36821">
        <ele>288.8</ele>
        <time>2024-05-18T14:08:44Z</time>
      </trkpt>
      <trkpt lat="45.90858" lon="3.36818">
        <ele>288.8</ele>
        <time>2024-05-18T14:08:45Z</time>
      </trkpt>
      <trkpt lat="45.90864" lon="3.36813">
        <ele>288.8</ele>
        <time>2024-05-18T14:08:46Z</time>
      </trkpt>
      <trkpt lat="45.9087" lon="3.36809">
        <ele>289</ele>
        <time>2024-05-18T14:08:47Z</time>
      </trkpt>
      <trkpt lat="45.90876" lon="3.36804">
        <ele>288.6</ele>
        <time>2024-05-18T14:08:48Z</time>
      </trkpt>
      <trkpt lat="45.90882" lon="3.368">
        <ele>288.4</ele>
        <time>2024-05-18T14:08:49Z</time>
      </trkpt>
      <trkpt lat="45.90889" lon="3.36795">
        <ele>288.6</ele>
        <time>2024-05-18T14:08:50Z</time>
      </trkpt>
      <trkpt lat="45.90895" lon="3.3679">
        <ele>288.6</ele>
        <time>2024-05-18T14:08:51Z</time>
      </trkpt>
      <trkpt lat="45.90902" lon="3.36787">
        <ele>288.4</ele>
        <time>2024-05-18T14:08:52Z</time>
      </trkpt>
      <trkpt lat="45.90909" lon="3.36784">
        <ele>288.6</ele>
        <time>2024-05-18T14:08:53Z</time>
      </trkpt>
      <trkpt lat="45.90916" lon="3.36781">
        <ele>288.6</ele>
        <time>2024-05-18T14:08:54Z</time>
      </trkpt>
      <trkpt lat="45.90923" lon="3.36778">
        <ele>288.6</ele>
        <time>2024-05-18T14:08:55Z</time>
      </trkpt>
      <trkpt lat="45.9093" lon="3.36775">
        <ele>288.4</ele>
        <time>2024-05-18T14:08:56Z</time>
      </trkpt>
      <trkpt lat="45.90936" lon="3.36772">
        <ele>288.4</ele>
        <time>2024-05-18T14:08:57Z</time>
      </trkpt>
      <trkpt lat="45.90943" lon="3.36769">
        <ele>288.4</ele>
        <time>2024-05-18T14:08:58Z</time>
      </trkpt>
      <trkpt lat="45.9095" lon="3.36766">
        <ele>288.4</ele>
        <time>2024-05-18T14:08:59Z</time>
      </trkpt>
      <trkpt lat="45.90958" lon="3.36763">
        <ele>288.2</ele>
        <time>2024-05-18T14:09:00Z</time>
      </trkpt>
      <trkpt lat="45.90965" lon="3.36763">
        <ele>288.2</ele>
        <time>2024-05-18T14:09:01Z</time>
      </trkpt>
      <trkpt lat="45.90972" lon="3.36763">
        <ele>288.2</ele>
        <time>2024-05-18T14:09:02Z</time>
      </trkpt>
      <trkpt lat="45.9098" lon="3.36763">
        <ele>288.2</ele>
        <time>2024-05-18T14:09:03Z</time>
      </trkpt>
      <trkpt lat="45.90987" lon="3.36764">
        <ele>288.2</ele>
        <time>2024-05-18T14:09:04Z</time>
      </trkpt>
      <trkpt lat="45.90994" lon="3.36766">
        <ele>288</ele>
        <time>2024-05-18T14:09:05Z</time>
      </trkpt>
      <trkpt lat="45.91001" lon="3.36768">
        <ele>288</ele>
        <time>2024-05-18T14:09:06Z</time>
      </trkpt>
      <trkpt lat="45.91009" lon="3.36771">
        <ele>288</ele>
        <time>2024-05-18T14:09:07Z</time>
      </trkpt>
      <trkpt lat="45.91016" lon="3.36773">
        <ele>288</ele>
        <time>2024-05-18T14:09:08Z</time>
      </trkpt>
      <trkpt lat="45.91023" lon="3.36775">
        <ele>287.8</ele>
        <time>2024-05-18T14:09:09Z</time>
      </trkpt>
      <trkpt lat="45.9103" lon="3.36777">
        <ele>287.8</ele>
        <time>2024-05-18T14:09:10Z</time>
      </trkpt>
      <trkpt lat="45.91037" lon="3.36779">
        <ele>287.8</ele>
        <time>2024-05-18T14:09:11Z</time>
      </trkpt>
      <trkpt lat="45.91044" lon="3.36782">
        <ele>287.8</ele>
        <time>2024-05-18T14:09:12Z</time>
      </trkpt>
      <trkpt lat="45.91051" lon="3.36784">
        <ele>287.8</ele>
        <time>2024-05-18T14:09:13Z</time>
      </trkpt>
      <trkpt lat="45.91058" lon="3.36786">
        <ele>287.6</ele>
        <time>2024-05-18T14:09:14Z</time>
      </trkpt>
      <trkpt lat="45.91065" lon="3.36789">
        <ele>287.6</ele>
        <time>2024-05-18T14:09:15Z</time>
      </trkpt>
      <trkpt lat="45.91072" lon="3.36791">
        <ele>287.6</ele>
        <time>2024-05-18T14:09:16Z</time>
      </trkpt>
      <trkpt lat="45.91078" lon="3.36794">
        <ele>287.6</ele>
        <time>2024-05-18T14:09:17Z</time>
      </trkpt>
      <trkpt lat="45.91085" lon="3.36796">
        <ele>287.6</ele>
        <time>2024-05-18T14:09:18Z</time>
      </trkpt>
      <trkpt lat="45.91092" lon="3.36798">
        <ele>287.6</ele>
        <time>2024-05-18T14:09:19Z</time>
      </trkpt>
      <trkpt lat="45.91099" lon="3.36801">
        <ele>287.6</ele>
        <time>2024-05-18T14:09:20Z</time>
      </trkpt>
      <trkpt lat="45.91106" lon="3.36803">
        <ele>287.6</ele>
        <time>2024-05-18T14:09:21Z</time>
      </trkpt>
      <trkpt lat="45.91112" lon="3.36805">
        <ele>287.6</ele>
        <time>2024-05-18T14:09:22Z</time>
      </trkpt>
      <trkpt lat="45.91119" lon="3.36808">
        <ele>287.6</ele>
        <time>2024-05-18T14:09:23Z</time>
      </trkpt>
      <trkpt lat="45.91126" lon="3.3681">
        <ele>287.6</ele>
        <time>2024-05-18T14:09:24Z</time>
      </trkpt>
      <trkpt lat="45.91133" lon="3.36813">
        <ele>287.6</ele>
        <time>2024-05-18T14:09:25Z</time>
      </trkpt>
      <trkpt lat="45.91141" lon="3.36815">
        <ele>287.6</ele>
        <time>2024-05-18T14:09:26Z</time>
      </trkpt>
      <trkpt lat="45.91148" lon="3.36817">
        <ele>287.6</ele>
        <time>2024-05-18T14:09:27Z</time>
      </trkpt>
      <trkpt lat="45.91155" lon="3.3682">
        <ele>287.6</ele>
        <time>2024-05-18T14:09:28Z</time>
      </trkpt>
      <trkpt lat="45.91162" lon="3.36822">
        <ele>287.6</ele>
        <time>2024-05-18T14:09:29Z</time>
      </trkpt>
      <trkpt lat="45.91169" lon="3.36825">
        <ele>287.6</ele>
        <time>2024-05-18T14:09:30Z</time>
      </trkpt>
      <trkpt lat="45.91176" lon="3.36827">
        <ele>287.6</ele>
        <time>2024-05-18T14:09:31Z</time>
      </trkpt>
      <trkpt lat="45.91183" lon="3.3683">
        <ele>287.6</ele>
        <time>2024-05-18T14:09:32Z</time>
      </trkpt>
      <trkpt lat="45.9119" lon="3.36832">
        <ele>287.6</ele>
        <time>2024-05-18T14:09:33Z</time>
      </trkpt>
      <trkpt lat="45.91197" lon="3.36834">
        <ele>287.6</ele>
        <time>2024-05-18T14:09:34Z</time>
      </trkpt>
      <trkpt lat="45.91203" lon="3.36837">
        <ele>287.6</ele>
        <time>2024-05-18T14:09:35Z</time>
      </trkpt>
      <trkpt lat="45.91209" lon="3.3684">
        <ele>287.8</ele>
        <time>2024-05-18T14:09:36Z</time>
      </trkpt>
      <trkpt lat="45.91215" lon="3.36844">
        <ele>287.8</ele>
        <time>2024-05-18T14:09:37Z</time>
      </trkpt>
      <trkpt lat="45.91221" lon="3.36847">
        <ele>288</ele>
        <time>2024-05-18T14:09:38Z</time>
      </trkpt>
      <trkpt lat="45.91225" lon="3.36854">
        <ele>287.8</ele>
        <time>2024-05-18T14:09:39Z</time>
      </trkpt>
      <trkpt lat="45.9123" lon="3.3686">
        <ele>288</ele>
        <time>2024-05-18T14:09:40Z</time>
      </trkpt>
      <trkpt lat="45.91234" lon="3.36867">
        <ele>288</ele>
        <time>2024-05-18T14:09:41Z</time>
      </trkpt>
      <trkpt lat="45.91238" lon="3.36873">
        <ele>288</ele>
        <time>2024-05-18T14:09:42Z</time>
      </trkpt>
      <trkpt lat="45.91243" lon="3.3688">
        <ele>288</ele>
        <time>2024-05-18T14:09:43Z</time>
      </trkpt>
      <trkpt lat="45.91247" lon="3.36886">
        <ele>288</ele>
        <time>2024-05-18T14:09:44Z</time>
      </trkpt>
      <trkpt lat="45.91251" lon="3.36892">
        <ele>288</ele>
        <time>2024-05-18T14:09:45Z</time>
      </trkpt>
      <trkpt lat="45.91251" lon="3.36892">
        <ele>288.2</ele>
        <time>2024-05-18T14:09:46Z</time>
      </trkpt>
      <trkpt lat="45.91251" lon="3.36892">
        <ele>288.2</ele>
        <time>2024-05-18T14:09:47Z</time>
      </trkpt>
      <trkpt lat="45.9125" lon="3.36933">
        <ele>288.2</ele>
        <time>2024-05-18T14:09:48Z</time>
      </trkpt>
      <trkpt lat="45.9125" lon="3.36942">
        <ele>288.2</ele>
        <time>2024-05-18T14:09:49Z</time>
      </trkpt>
      <trkpt lat="45.91251" lon="3.36951">
        <ele>288.2</ele>
        <time>2024-05-18T14:09:50Z</time>
      </trkpt>
      <trkpt lat="45.91251" lon="3.36959">
        <ele>288.2</ele>
        <time>2024-05-18T14:09:51Z</time>
      </trkpt>
      <trkpt lat="45.91252" lon="3.36968">
        <ele>288.4</ele>
        <time>2024-05-18T14:09:52Z</time>
      </trkpt>
      <trkpt lat="45.91251" lon="3.36976">
        <ele>288.4</ele>
        <time>2024-05-18T14:09:53Z</time>
      </trkpt>
      <trkpt lat="45.91251" lon="3.36985">
        <ele>288.4</ele>
        <time>2024-05-18T14:09:54Z</time>
      </trkpt>
      <trkpt lat="45.9125" lon="3.36993">
        <ele>288.4</ele>
        <time>2024-05-18T14:09:55Z</time>
      </trkpt>
      <trkpt lat="45.91248" lon="3.37">
        <ele>288.4</ele>
        <time>2024-05-18T14:09:56Z</time>
      </trkpt>
      <trkpt lat="45.91247" lon="3.37008">
        <ele>288.6</ele>
        <time>2024-05-18T14:09:57Z</time>
      </trkpt>
      <trkpt lat="45.91244" lon="3.37016">
        <ele>288.6</ele>
        <time>2024-05-18T14:09:58Z</time>
      </trkpt>
      <trkpt lat="45.91241" lon="3.37023">
        <ele>288.6</ele>
        <time>2024-05-18T14:09:59Z</time>
      </trkpt>
      <trkpt lat="45.91239" lon="3.37031">
        <ele>288.6</ele>
        <time>2024-05-18T14:10:00Z</time>
      </trkpt>
      <trkpt lat="45.91236" lon="3.37039">
        <ele>288.8</ele>
        <time>2024-05-18T14:10:01Z</time>
      </trkpt>
      <trkpt lat="45.91234" lon="3.37047">
        <ele>288.8</ele>
        <time>2024-05-18T14:10:02Z</time>
      </trkpt>
      <trkpt lat="45.91233" lon="3.37055">
        <ele>288.8</ele>
        <time>2024-05-18T14:10:03Z</time>
      </trkpt>
      <trkpt lat="45.91232" lon="3.37064">
        <ele>288.8</ele>
        <time>2024-05-18T14:10:04Z</time>
      </trkpt>
      <trkpt lat="45.9123" lon="3.37071">
        <ele>289</ele>
        <time>2024-05-18T14:10:05Z</time>
      </trkpt>
      <trkpt lat="45.91228" lon="3.37079">
        <ele>289</ele>
        <time>2024-05-18T14:10:06Z</time>
      </trkpt>
      <trkpt lat="45.91226" lon="3.37086">
        <ele>289</ele>
        <time>2024-05-18T14:10:07Z</time>
      </trkpt>
      <trkpt lat="45.91224" lon="3.37092">
        <ele>289</ele>
        <time>2024-05-18T14:10:08Z</time>
      </trkpt>
      <trkpt lat="45.91222" lon="3.37098">
        <ele>289.2</ele>
        <time>2024-05-18T14:10:09Z</time>
      </trkpt>
      <trkpt lat="45.91219" lon="3.37104">
        <ele>289.2</ele>
        <time>2024-05-18T14:10:10Z</time>
      </trkpt>
      <trkpt lat="45.91216" lon="3.3711">
        <ele>289.2</ele>
        <time>2024-05-18T14:10:11Z</time>
      </trkpt>
      <trkpt lat="45.91214" lon="3.37116">
        <ele>289.2</ele>
        <time>2024-05-18T14:10:12Z</time>
      </trkpt>
      <trkpt lat="45.91213" lon="3.37122">
        <ele>289.2</ele>
        <time>2024-05-18T14:10:13Z</time>
      </trkpt>
      <trkpt lat="45.91211" lon="3.37127">
        <ele>289.2</ele>
        <time>2024-05-18T14:10:14Z</time>
      </trkpt>
      <trkpt lat="45.9121" lon="3.37133">
        <ele>289.2</ele>
        <time>2024-05-18T14:10:15Z</time>
      </trkpt>
      <trkpt lat="45.91209" lon="3.37137">
        <ele>289.2</ele>
        <time>2024-05-18T14:10:16Z</time>
      </trkpt>
      <trkpt lat="45.91209" lon="3.37142">
        <ele>289.2</ele>
        <time>2024-05-18T14:10:17Z</time>
      </trkpt>
      <trkpt lat="45.91208" lon="3.37146">
        <ele>289.2</ele>
        <time>2024-05-18T14:10:18Z</time>
      </trkpt>
      <trkpt lat="45.91208" lon="3.37149">
        <ele>289.4</ele>
        <time>2024-05-18T14:10:19Z</time>
      </trkpt>
      <trkpt lat="45.91208" lon="3.37152">
        <ele>289.4</ele>
        <time>2024-05-18T14:10:20Z</time>
      </trkpt>
      <trkpt lat="45.91208" lon="3.37156">
        <ele>289.4</ele>
        <time>2024-05-18T14:10:21Z</time>
      </trkpt>
      <trkpt lat="45.91208" lon="3.3716">
        <ele>289.4</ele>
        <time>2024-05-18T14:10:22Z</time>
      </trkpt>
      <trkpt lat="45.91208" lon="3.37164">
        <ele>289.4</ele>
        <time>2024-05-18T14:10:23Z</time>
      </trkpt>
      <trkpt lat="45.91209" lon="3.37168">
        <ele>289.4</ele>
        <time>2024-05-18T14:10:24Z</time>
      </trkpt>
      <trkpt lat="45.91209" lon="3.37171">
        <ele>289.6</ele>
        <time>2024-05-18T14:10:25Z</time>
      </trkpt>
      <trkpt lat="45.9121" lon="3.37174">
        <ele>289.6</ele>
        <time>2024-05-18T14:10:26Z</time>
      </trkpt>
      <trkpt lat="45.9121" lon="3.37178">
        <ele>289.6</ele>
        <time>2024-05-18T14:10:27Z</time>
      </trkpt>
      <trkpt lat="45.91211" lon="3.37181">
        <ele>289.6</ele>
        <time>2024-05-18T14:10:28Z</time>
      </trkpt>
      <trkpt lat="45.9121" lon="3.37184">
        <ele>289.6</ele>
        <time>2024-05-18T14:10:29Z</time>
      </trkpt>
      <trkpt lat="45.91211" lon="3.37188">
        <ele>289.6</ele>
        <time>2024-05-18T14:10:30Z</time>
      </trkpt>
      <trkpt lat="45.91211" lon="3.37191">
        <ele>289.6</ele>
        <time>2024-05-18T14:10:31Z</time>
      </trkpt>
      <trkpt lat="45.91211" lon="3.37195">
        <ele>289.6</ele>
        <time>2024-05-18T14:10:32Z</time>
      </trkpt>
      <trkpt lat="45.91211" lon="3.37198">
        <ele>289.6</ele>
        <time>2024-05-18T14:10:33Z</time>
      </trkpt>
      <trkpt lat="45.91211" lon="3.37202">
        <ele>289.6</ele>
        <time>2024-05-18T14:10:34Z</time>
      </trkpt>
      <trkpt lat="45.91212" lon="3.37206">
        <ele>289.6</ele>
        <time>2024-05-18T14:10:35Z</time>
      </trkpt>
      <trkpt lat="45.91212" lon="3.37209">
        <ele>289.6</ele>
        <time>2024-05-18T14:10:36Z</time>
      </trkpt>
      <trkpt lat="45.91213" lon="3.37213">
        <ele>289.6</ele>
        <time>2024-05-18T14:10:37Z</time>
      </trkpt>
      <trkpt lat="45.91213" lon="3.37216">
        <ele>289.6</ele>
        <time>2024-05-18T14:10:38Z</time>
      </trkpt>
      <trkpt lat="45.91214" lon="3.37218">
        <ele>289.6</ele>
        <time>2024-05-18T14:10:39Z</time>
      </trkpt>
      <trkpt lat="45.91214" lon="3.37222">
        <ele>289.8</ele>
        <time>2024-05-18T14:10:40Z</time>
      </trkpt>
      <trkpt lat="45.91214" lon="3.37225">
        <ele>289.8</ele>
        <time>2024-05-18T14:10:41Z</time>
      </trkpt>
      <trkpt lat="45.91214" lon="3.37228">
        <ele>290</ele>
        <time>2024-05-18T14:10:42Z</time>
      </trkpt>
      <trkpt lat="45.91215" lon="3.37231">
        <ele>290.2</ele>
        <time>2024-05-18T14:10:43Z</time>
      </trkpt>
      <trkpt lat="45.91216" lon="3.37234">
        <ele>290.4</ele>
        <time>2024-05-18T14:10:44Z</time>
      </trkpt>
      <trkpt lat="45.91216" lon="3.37238">
        <ele>290.4</ele>
        <time>2024-05-18T14:10:45Z</time>
      </trkpt>
      <trkpt lat="45.91217" lon="3.37242">
        <ele>290.6</ele>
        <time>2024-05-18T14:10:46Z</time>
      </trkpt>
      <trkpt lat="45.91217" lon="3.37246">
        <ele>290.8</ele>
        <time>2024-05-18T14:10:47Z</time>
      </trkpt>
      <trkpt lat="45.91218" lon="3.37249">
        <ele>291</ele>
        <time>2024-05-18T14:10:48Z</time>
      </trkpt>
      <trkpt lat="45.91219" lon="3.37252">
        <ele>291.2</ele>
        <time>2024-05-18T14:10:49Z</time>
      </trkpt>
      <trkpt lat="45.9122" lon="3.37256">
        <ele>291.4</ele>
        <time>2024-05-18T14:10:50Z</time>
      </trkpt>
      <trkpt lat="45.9122" lon="3.37259">
        <ele>291.4</ele>
        <time>2024-05-18T14:10:51Z</time>
      </trkpt>
      <trkpt lat="45.91221" lon="3.37263">
        <ele>291.6</ele>
        <time>2024-05-18T14:10:52Z</time>
      </trkpt>
      <trkpt lat="45.91221" lon="3.37266">
        <ele>291.8</ele>
        <time>2024-05-18T14:10:53Z</time>
      </trkpt>
      <trkpt lat="45.91222" lon="3.37269">
        <ele>292</ele>
        <time>2024-05-18T14:10:54Z</time>
      </trkpt>
      <trkpt lat="45.91222" lon="3.37272">
        <ele>292.2</ele>
        <time>2024-05-18T14:10:55Z</time>
      </trkpt>
      <trkpt lat="45.91223" lon="3.37276">
        <ele>292.4</ele>
        <time>2024-05-18T14:10:56Z</time>
      </trkpt>
      <trkpt lat="45.91224" lon="3.37279">
        <ele>292.4</ele>
        <time>2024-05-18T14:10:57Z</time>
      </trkpt>
      <trkpt lat="45.91224" lon="3.37282">
        <ele>292.6</ele>
        <time>2024-05-18T14:10:58Z</time>
      </trkpt>
      <trkpt lat="45.91225" lon="3.37286">
        <ele>292.8</ele>
        <time>2024-05-18T14:10:59Z</time>
      </trkpt>
      <trkpt lat="45.91225" lon="3.3729">
        <ele>293</ele>
        <time>2024-05-18T14:11:00Z</time>
      </trkpt>
      <trkpt lat="45.91225" lon="3.37293">
        <ele>293.2</ele>
        <time>2024-05-18T14:11:01Z</time>
      </trkpt>
      <trkpt lat="45.91226" lon="3.37297">
        <ele>293.4</ele>
        <time>2024-05-18T14:11:02Z</time>
      </trkpt>
      <trkpt lat="45.91226" lon="3.373">
        <ele>293.6</ele>
        <time>2024-05-18T14:11:03Z</time>
      </trkpt>
      <trkpt lat="45.91226" lon="3.37304">
        <ele>293.8</ele>
        <time>2024-05-18T14:11:04Z</time>
      </trkpt>
      <trkpt lat="45.91226" lon="3.37307">
        <ele>294</ele>
        <time>2024-05-18T14:11:05Z</time>
      </trkpt>
      <trkpt lat="45.91226" lon="3.37311">
        <ele>294.2</ele>
        <time>2024-05-18T14:11:06Z</time>
      </trkpt>
      <trkpt lat="45.91226" lon="3.37314">
        <ele>294.6</ele>
        <time>2024-05-18T14:11:07Z</time>
      </trkpt>
      <trkpt lat="45.91226" lon="3.37318">
        <ele>294.8</ele>
        <time>2024-05-18T14:11:08Z</time>
      </trkpt>
      <trkpt lat="45.91227" lon="3.37322">
        <ele>295</ele>
        <time>2024-05-18T14:11:09Z</time>
      </trkpt>
      <trkpt lat="45.91228" lon="3.37325">
        <ele>295.4</ele>
        <time>2024-05-18T14:11:10Z</time>
      </trkpt>
      <trkpt lat="45.91229" lon="3.37329">
        <ele>295.8</ele>
        <time>2024-05-18T14:11:11Z</time>
      </trkpt>
      <trkpt lat="45.9123" lon="3.37333">
        <ele>296</ele>
        <time>2024-05-18T14:11:12Z</time>
      </trkpt>
      <trkpt lat="45.91231" lon="3.37337">
        <ele>296.4</ele>
        <time>2024-05-18T14:11:13Z</time>
      </trkpt>
      <trkpt lat="45.91233" lon="3.37341">
        <ele>296.6</ele>
        <time>2024-05-18T14:11:14Z</time>
      </trkpt>
      <trkpt lat="45.91234" lon="3.37355">
        <ele>296.8</ele>
        <time>2024-05-18T14:11:15Z</time>
      </trkpt>
      <trkpt lat="45.91235" lon="3.37355">
        <ele>297</ele>
        <time>2024-05-18T14:11:16Z</time>
      </trkpt>
      <trkpt lat="45.91234" lon="3.37355">
        <ele>297.4</ele>
        <time>2024-05-18T14:11:17Z</time>
      </trkpt>
      <trkpt lat="45.91237" lon="3.37355">
        <ele>297.6</ele>
        <time>2024-05-18T14:11:18Z</time>
      </trkpt>
      <trkpt lat="45.91234" lon="3.37355">
        <ele>297.8</ele>
        <time>2024-05-18T14:11:19Z</time>
      </trkpt>
      <trkpt lat="45.91244" lon="3.37357">
        <ele>298</ele>
        <time>2024-05-18T14:11:20Z</time>
      </trkpt>
      <trkpt lat="45.91248" lon="3.3736">
        <ele>298.2</ele>
        <time>2024-05-18T14:11:21Z</time>
      </trkpt>
      <trkpt lat="45.91252" lon="3.37364">
        <ele>298.2</ele>
        <time>2024-05-18T14:11:22Z</time>
      </trkpt>
      <trkpt lat="45.91256" lon="3.37368">
        <ele>298.4</ele>
        <time>2024-05-18T14:11:23Z</time>
      </trkpt>
      <trkpt lat="45.9126" lon="3.37372">
        <ele>298.6</ele>
        <time>2024-05-18T14:11:24Z</time>
      </trkpt>
      <trkpt lat="45.91264" lon="3.37376">
        <ele>298.8</ele>
        <time>2024-05-18T14:11:25Z</time>
      </trkpt>
      <trkpt lat="45.91268" lon="3.37379">
        <ele>299</ele>
        <time>2024-05-18T14:11:26Z</time>
      </trkpt>
      <trkpt lat="45.91271" lon="3.37378">
        <ele>299</ele>
        <time>2024-05-18T14:11:27Z</time>
      </trkpt>
      <trkpt lat="45.91277" lon="3.37375">
        <ele>299.2</ele>
        <time>2024-05-18T14:11:28Z</time>
      </trkpt>
      <trkpt lat="45.91282" lon="3.37373">
        <ele>299.4</ele>
        <time>2024-05-18T14:11:29Z</time>
      </trkpt>
      <trkpt lat="45.91286" lon="3.37372">
        <ele>299.6</ele>
        <time>2024-05-18T14:11:30Z</time>
      </trkpt>
      <trkpt lat="45.91291" lon="3.3737">
        <ele>299.8</ele>
        <time>2024-05-18T14:11:31Z</time>
      </trkpt>
      <trkpt lat="45.91296" lon="3.37368">
        <ele>299.8</ele>
        <time>2024-05-18T14:11:32Z</time>
      </trkpt>
      <trkpt lat="45.91301" lon="3.37366">
        <ele>300</ele>
        <time>2024-05-18T14:11:33Z</time>
      </trkpt>
      <trkpt lat="45.91305" lon="3.37364">
        <ele>300</ele>
        <time>2024-05-18T14:11:34Z</time>
      </trkpt>
      <trkpt lat="45.9131" lon="3.37362">
        <ele>300.2</ele>
        <time>2024-05-18T14:11:35Z</time>
      </trkpt>
      <trkpt lat="45.91314" lon="3.3736">
        <ele>300.4</ele>
        <time>2024-05-18T14:11:36Z</time>
      </trkpt>
      <trkpt lat="45.91319" lon="3.37358">
        <ele>300.6</ele>
        <time>2024-05-18T14:11:37Z</time>
      </trkpt>
      <trkpt lat="45.91323" lon="3.37357">
        <ele>300.8</ele>
        <time>2024-05-18T14:11:38Z</time>
      </trkpt>
      <trkpt lat="45.91327" lon="3.37355">
        <ele>300.8</ele>
        <time>2024-05-18T14:11:39Z</time>
      </trkpt>
    </trkseg>
  </trk>
</gpx>